<?xml version="1.0" encoding="UTF-8"?>
<gpx xmlns:gpxdata="http://www.cluetrust.com/XML/GPXDATA/1/0" xmlns:xsi="http://www.w3.org/2001/XMLSchema-instance" xmlns="http://www.topografix.com/GPX/1/1" version="1.1" creator="http://ridewithgps.com/" xsi:schemaLocation="http://www.topografix.com/GPX/1/1 http://www.topografix.com/GPX/1/1/gpx.xsd http://www.cluetrust.com/XML/GPXDATA/1/0 http://www.cluetrust.com/Schemas/gpxdata10.xsd">
  <metadata>
    <name>11/07/20</name>
    <link href="https://ridewithgps.com/trips/52279177">
      <text>11/07/20</text>
    </link>
    <time>2020-07-11T08:08:00Z</time>
  </metadata>
  <trk>
    <name>11/07/20</name>
    <trkseg>
      <trkpt lat="48.783095" lon="7.249493">
        <ele>326.0</ele>
        <time>2020-07-11T06:08:00Z</time>
      </trkpt>
      <trkpt lat="48.783095" lon="7.249493">
        <ele>326.0</ele>
        <time>2020-07-11T06:08:02Z</time>
      </trkpt>
      <trkpt lat="48.783095" lon="7.249493">
        <ele>326.0</ele>
        <time>2020-07-11T06:08:04Z</time>
      </trkpt>
      <trkpt lat="48.783095" lon="7.249493">
        <ele>326.0</ele>
        <time>2020-07-11T06:08:06Z</time>
      </trkpt>
      <trkpt lat="48.783095" lon="7.249493">
        <ele>326.0</ele>
        <time>2020-07-11T06:08:08Z</time>
      </trkpt>
      <trkpt lat="48.783095" lon="7.249493">
        <ele>326.0</ele>
        <time>2020-07-11T06:08:10Z</time>
      </trkpt>
      <trkpt lat="48.783095" lon="7.249493">
        <ele>326.0</ele>
        <time>2020-07-11T06:08:12Z</time>
      </trkpt>
      <trkpt lat="48.783095" lon="7.249493">
        <ele>326.0</ele>
        <time>2020-07-11T06:08:14Z</time>
      </trkpt>
      <trkpt lat="48.783084" lon="7.24951">
        <ele>326.0</ele>
        <time>2020-07-11T06:08:16Z</time>
      </trkpt>
      <trkpt lat="48.783066" lon="7.249515">
        <ele>328.0</ele>
        <time>2020-07-11T06:08:18Z</time>
      </trkpt>
      <trkpt lat="48.783064" lon="7.249507">
        <ele>327.0</ele>
        <time>2020-07-11T06:08:20Z</time>
      </trkpt>
      <trkpt lat="48.783048" lon="7.249505">
        <ele>328.0</ele>
        <time>2020-07-11T06:08:22Z</time>
      </trkpt>
      <trkpt lat="48.783023" lon="7.249493">
        <ele>328.0</ele>
        <time>2020-07-11T06:08:24Z</time>
      </trkpt>
      <trkpt lat="48.782985" lon="7.249474">
        <ele>327.0</ele>
        <time>2020-07-11T06:08:26Z</time>
      </trkpt>
      <trkpt lat="48.782944" lon="7.249452">
        <ele>327.0</ele>
        <time>2020-07-11T06:08:28Z</time>
      </trkpt>
      <trkpt lat="48.782914" lon="7.249422">
        <ele>327.0</ele>
        <time>2020-07-11T06:08:30Z</time>
      </trkpt>
      <trkpt lat="48.782901" lon="7.24938">
        <ele>326.0</ele>
        <time>2020-07-11T06:08:32Z</time>
      </trkpt>
      <trkpt lat="48.782882" lon="7.249386">
        <ele>326.0</ele>
        <time>2020-07-11T06:08:34Z</time>
      </trkpt>
      <trkpt lat="48.782878" lon="7.249394">
        <ele>326.0</ele>
        <time>2020-07-11T06:08:36Z</time>
      </trkpt>
      <trkpt lat="48.782878" lon="7.249394">
        <ele>326.0</ele>
        <time>2020-07-11T06:08:38Z</time>
      </trkpt>
      <trkpt lat="48.782878" lon="7.249394">
        <ele>326.0</ele>
        <time>2020-07-11T06:08:40Z</time>
      </trkpt>
      <trkpt lat="48.782878" lon="7.249394">
        <ele>326.0</ele>
        <time>2020-07-11T06:10:19Z</time>
      </trkpt>
      <trkpt lat="48.782878" lon="7.249394">
        <ele>326.0</ele>
        <time>2020-07-11T06:10:21Z</time>
      </trkpt>
      <trkpt lat="48.782878" lon="7.249394">
        <ele>326.0</ele>
        <time>2020-07-11T06:10:23Z</time>
      </trkpt>
      <trkpt lat="48.782878" lon="7.249394">
        <ele>326.0</ele>
        <time>2020-07-11T06:10:25Z</time>
      </trkpt>
      <trkpt lat="48.782878" lon="7.249394">
        <ele>326.0</ele>
        <time>2020-07-11T06:10:27Z</time>
      </trkpt>
      <trkpt lat="48.782878" lon="7.249394">
        <ele>326.0</ele>
        <time>2020-07-11T06:10:29Z</time>
      </trkpt>
      <trkpt lat="48.782878" lon="7.249394">
        <ele>326.0</ele>
        <time>2020-07-11T06:10:31Z</time>
      </trkpt>
      <trkpt lat="48.782881" lon="7.249413">
        <ele>325.0</ele>
        <time>2020-07-11T06:10:33Z</time>
      </trkpt>
      <trkpt lat="48.782878" lon="7.249429">
        <ele>325.0</ele>
        <time>2020-07-11T06:10:35Z</time>
      </trkpt>
      <trkpt lat="48.782878" lon="7.249434">
        <ele>325.0</ele>
        <time>2020-07-11T06:10:37Z</time>
      </trkpt>
      <trkpt lat="48.782869" lon="7.249436">
        <ele>325.0</ele>
        <time>2020-07-11T06:10:39Z</time>
      </trkpt>
      <trkpt lat="48.782869" lon="7.249436">
        <ele>325.0</ele>
        <time>2020-07-11T06:10:41Z</time>
      </trkpt>
      <trkpt lat="48.782886" lon="7.249467">
        <ele>325.0</ele>
        <time>2020-07-11T06:10:43Z</time>
      </trkpt>
      <trkpt lat="48.78293" lon="7.249497">
        <ele>325.0</ele>
        <time>2020-07-11T06:10:45Z</time>
      </trkpt>
      <trkpt lat="48.782972" lon="7.249527">
        <ele>324.0</ele>
        <time>2020-07-11T06:10:47Z</time>
      </trkpt>
      <trkpt lat="48.783015" lon="7.249537">
        <ele>324.0</ele>
        <time>2020-07-11T06:10:49Z</time>
      </trkpt>
      <trkpt lat="48.783067" lon="7.249549">
        <ele>324.0</ele>
        <time>2020-07-11T06:10:51Z</time>
      </trkpt>
      <trkpt lat="48.783127" lon="7.249564">
        <ele>324.0</ele>
        <time>2020-07-11T06:10:53Z</time>
      </trkpt>
      <trkpt lat="48.783194" lon="7.249525">
        <ele>324.0</ele>
        <time>2020-07-11T06:10:55Z</time>
      </trkpt>
      <trkpt lat="48.783243" lon="7.249475">
        <ele>324.0</ele>
        <time>2020-07-11T06:10:57Z</time>
      </trkpt>
      <trkpt lat="48.783298" lon="7.24944">
        <ele>324.0</ele>
        <time>2020-07-11T06:10:59Z</time>
      </trkpt>
      <trkpt lat="48.783354" lon="7.249418">
        <ele>326.0</ele>
        <time>2020-07-11T06:11:01Z</time>
      </trkpt>
      <trkpt lat="48.783401" lon="7.249398">
        <ele>327.0</ele>
        <time>2020-07-11T06:11:03Z</time>
      </trkpt>
      <trkpt lat="48.783451" lon="7.249392">
        <ele>327.0</ele>
        <time>2020-07-11T06:11:05Z</time>
      </trkpt>
      <trkpt lat="48.783501" lon="7.249393">
        <ele>328.0</ele>
        <time>2020-07-11T06:11:07Z</time>
      </trkpt>
      <trkpt lat="48.783554" lon="7.249396">
        <ele>328.0</ele>
        <time>2020-07-11T06:11:09Z</time>
      </trkpt>
      <trkpt lat="48.78361" lon="7.249396">
        <ele>328.0</ele>
        <time>2020-07-11T06:11:11Z</time>
      </trkpt>
      <trkpt lat="48.783663" lon="7.249398">
        <ele>329.0</ele>
        <time>2020-07-11T06:11:13Z</time>
      </trkpt>
      <trkpt lat="48.783718" lon="7.249389">
        <ele>329.0</ele>
        <time>2020-07-11T06:11:15Z</time>
      </trkpt>
      <trkpt lat="48.783777" lon="7.249378">
        <ele>329.0</ele>
        <time>2020-07-11T06:11:17Z</time>
      </trkpt>
      <trkpt lat="48.783839" lon="7.249368">
        <ele>330.0</ele>
        <time>2020-07-11T06:11:19Z</time>
      </trkpt>
      <trkpt lat="48.783887" lon="7.249361">
        <ele>330.0</ele>
        <time>2020-07-11T06:11:21Z</time>
      </trkpt>
      <trkpt lat="48.783935" lon="7.249347">
        <ele>330.0</ele>
        <time>2020-07-11T06:11:23Z</time>
      </trkpt>
      <trkpt lat="48.783987" lon="7.249329">
        <ele>330.0</ele>
        <time>2020-07-11T06:11:25Z</time>
      </trkpt>
      <trkpt lat="48.784043" lon="7.249295">
        <ele>330.0</ele>
        <time>2020-07-11T06:11:27Z</time>
      </trkpt>
      <trkpt lat="48.784099" lon="7.249264">
        <ele>332.0</ele>
        <time>2020-07-11T06:11:29Z</time>
      </trkpt>
      <trkpt lat="48.784144" lon="7.249211">
        <ele>331.0</ele>
        <time>2020-07-11T06:11:31Z</time>
      </trkpt>
      <trkpt lat="48.78419" lon="7.249156">
        <ele>331.0</ele>
        <time>2020-07-11T06:11:33Z</time>
      </trkpt>
      <trkpt lat="48.784241" lon="7.249086">
        <ele>331.0</ele>
        <time>2020-07-11T06:11:35Z</time>
      </trkpt>
      <trkpt lat="48.78428" lon="7.249022">
        <ele>330.0</ele>
        <time>2020-07-11T06:11:37Z</time>
      </trkpt>
      <trkpt lat="48.78433" lon="7.24898">
        <ele>331.0</ele>
        <time>2020-07-11T06:11:39Z</time>
      </trkpt>
      <trkpt lat="48.784419" lon="7.249016">
        <ele>329.0</ele>
        <time>2020-07-11T06:11:41Z</time>
      </trkpt>
      <trkpt lat="48.784513" lon="7.249173">
        <ele>326.0</ele>
        <time>2020-07-11T06:11:43Z</time>
      </trkpt>
      <trkpt lat="48.784587" lon="7.249307">
        <ele>324.0</ele>
        <time>2020-07-11T06:11:45Z</time>
      </trkpt>
      <trkpt lat="48.784655" lon="7.249446">
        <ele>324.0</ele>
        <time>2020-07-11T06:11:47Z</time>
      </trkpt>
      <trkpt lat="48.784713" lon="7.249574">
        <ele>324.0</ele>
        <time>2020-07-11T06:11:49Z</time>
      </trkpt>
      <trkpt lat="48.784767" lon="7.249702">
        <ele>324.0</ele>
        <time>2020-07-11T06:11:51Z</time>
      </trkpt>
      <trkpt lat="48.784825" lon="7.249822">
        <ele>324.0</ele>
        <time>2020-07-11T06:11:53Z</time>
      </trkpt>
      <trkpt lat="48.784873" lon="7.249969">
        <ele>324.0</ele>
        <time>2020-07-11T06:11:55Z</time>
      </trkpt>
      <trkpt lat="48.784938" lon="7.250107">
        <ele>323.0</ele>
        <time>2020-07-11T06:11:57Z</time>
      </trkpt>
      <trkpt lat="48.78502" lon="7.250224">
        <ele>323.0</ele>
        <time>2020-07-11T06:11:59Z</time>
      </trkpt>
      <trkpt lat="48.785094" lon="7.25034">
        <ele>323.0</ele>
        <time>2020-07-11T06:12:01Z</time>
      </trkpt>
      <trkpt lat="48.785166" lon="7.250447">
        <ele>324.0</ele>
        <time>2020-07-11T06:12:03Z</time>
      </trkpt>
      <trkpt lat="48.78524" lon="7.250567">
        <ele>323.0</ele>
        <time>2020-07-11T06:12:05Z</time>
      </trkpt>
      <trkpt lat="48.785308" lon="7.250713">
        <ele>323.0</ele>
        <time>2020-07-11T06:12:07Z</time>
      </trkpt>
      <trkpt lat="48.785384" lon="7.250888">
        <ele>324.0</ele>
        <time>2020-07-11T06:12:09Z</time>
      </trkpt>
      <trkpt lat="48.785452" lon="7.251072">
        <ele>323.0</ele>
        <time>2020-07-11T06:12:11Z</time>
      </trkpt>
      <trkpt lat="48.785508" lon="7.251245">
        <ele>323.0</ele>
        <time>2020-07-11T06:12:13Z</time>
      </trkpt>
      <trkpt lat="48.785529" lon="7.251443">
        <ele>321.0</ele>
        <time>2020-07-11T06:12:16Z</time>
      </trkpt>
      <trkpt lat="48.785563" lon="7.251583">
        <ele>321.0</ele>
        <time>2020-07-11T06:12:18Z</time>
      </trkpt>
      <trkpt lat="48.785585" lon="7.251728">
        <ele>320.0</ele>
        <time>2020-07-11T06:12:20Z</time>
      </trkpt>
      <trkpt lat="48.785601" lon="7.251872">
        <ele>319.0</ele>
        <time>2020-07-11T06:12:22Z</time>
      </trkpt>
      <trkpt lat="48.785616" lon="7.252013">
        <ele>319.0</ele>
        <time>2020-07-11T06:12:24Z</time>
      </trkpt>
      <trkpt lat="48.785648" lon="7.252178">
        <ele>318.0</ele>
        <time>2020-07-11T06:12:26Z</time>
      </trkpt>
      <trkpt lat="48.785675" lon="7.252347">
        <ele>317.0</ele>
        <time>2020-07-11T06:12:28Z</time>
      </trkpt>
      <trkpt lat="48.785703" lon="7.252513">
        <ele>316.0</ele>
        <time>2020-07-11T06:12:30Z</time>
      </trkpt>
      <trkpt lat="48.785727" lon="7.252691">
        <ele>315.0</ele>
        <time>2020-07-11T06:12:32Z</time>
      </trkpt>
      <trkpt lat="48.785749" lon="7.252886">
        <ele>313.0</ele>
        <time>2020-07-11T06:12:34Z</time>
      </trkpt>
      <trkpt lat="48.785788" lon="7.253101">
        <ele>312.0</ele>
        <time>2020-07-11T06:12:36Z</time>
      </trkpt>
      <trkpt lat="48.785844" lon="7.2533">
        <ele>310.0</ele>
        <time>2020-07-11T06:12:38Z</time>
      </trkpt>
      <trkpt lat="48.785899" lon="7.253485">
        <ele>308.0</ele>
        <time>2020-07-11T06:12:40Z</time>
      </trkpt>
      <trkpt lat="48.785962" lon="7.253667">
        <ele>306.0</ele>
        <time>2020-07-11T06:12:42Z</time>
      </trkpt>
      <trkpt lat="48.786013" lon="7.253835">
        <ele>305.0</ele>
        <time>2020-07-11T06:12:44Z</time>
      </trkpt>
      <trkpt lat="48.786053" lon="7.253988">
        <ele>304.0</ele>
        <time>2020-07-11T06:12:46Z</time>
      </trkpt>
      <trkpt lat="48.786018" lon="7.254113">
        <ele>302.0</ele>
        <time>2020-07-11T06:12:48Z</time>
      </trkpt>
      <trkpt lat="48.785907" lon="7.254202">
        <ele>301.0</ele>
        <time>2020-07-11T06:12:50Z</time>
      </trkpt>
      <trkpt lat="48.785783" lon="7.254308">
        <ele>300.0</ele>
        <time>2020-07-11T06:12:52Z</time>
      </trkpt>
      <trkpt lat="48.785638" lon="7.254426">
        <ele>298.0</ele>
        <time>2020-07-11T06:12:54Z</time>
      </trkpt>
      <trkpt lat="48.785512" lon="7.254571">
        <ele>297.0</ele>
        <time>2020-07-11T06:12:56Z</time>
      </trkpt>
      <trkpt lat="48.785386" lon="7.254675">
        <ele>297.0</ele>
        <time>2020-07-11T06:12:58Z</time>
      </trkpt>
      <trkpt lat="48.785277" lon="7.254764">
        <ele>297.0</ele>
        <time>2020-07-11T06:13:00Z</time>
      </trkpt>
      <trkpt lat="48.785172" lon="7.254857">
        <ele>297.0</ele>
        <time>2020-07-11T06:13:02Z</time>
      </trkpt>
      <trkpt lat="48.785071" lon="7.254945">
        <ele>298.0</ele>
        <time>2020-07-11T06:13:04Z</time>
      </trkpt>
      <trkpt lat="48.784974" lon="7.25503">
        <ele>297.0</ele>
        <time>2020-07-11T06:13:06Z</time>
      </trkpt>
      <trkpt lat="48.784882" lon="7.255093">
        <ele>297.0</ele>
        <time>2020-07-11T06:13:08Z</time>
      </trkpt>
      <trkpt lat="48.784801" lon="7.255145">
        <ele>298.0</ele>
        <time>2020-07-11T06:13:10Z</time>
      </trkpt>
      <trkpt lat="48.784722" lon="7.255189">
        <ele>298.0</ele>
        <time>2020-07-11T06:13:12Z</time>
      </trkpt>
      <trkpt lat="48.784652" lon="7.255224">
        <ele>298.0</ele>
        <time>2020-07-11T06:13:14Z</time>
      </trkpt>
      <trkpt lat="48.784583" lon="7.255253">
        <ele>298.0</ele>
        <time>2020-07-11T06:13:16Z</time>
      </trkpt>
      <trkpt lat="48.784519" lon="7.255278">
        <ele>298.0</ele>
        <time>2020-07-11T06:13:18Z</time>
      </trkpt>
      <trkpt lat="48.784454" lon="7.255299">
        <ele>298.0</ele>
        <time>2020-07-11T06:13:20Z</time>
      </trkpt>
      <trkpt lat="48.784392" lon="7.255324">
        <ele>298.0</ele>
        <time>2020-07-11T06:13:22Z</time>
      </trkpt>
      <trkpt lat="48.784327" lon="7.255341">
        <ele>298.0</ele>
        <time>2020-07-11T06:13:24Z</time>
      </trkpt>
      <trkpt lat="48.784267" lon="7.255365">
        <ele>298.0</ele>
        <time>2020-07-11T06:13:26Z</time>
      </trkpt>
      <trkpt lat="48.784214" lon="7.25539">
        <ele>298.0</ele>
        <time>2020-07-11T06:13:28Z</time>
      </trkpt>
      <trkpt lat="48.78416" lon="7.255402">
        <ele>298.0</ele>
        <time>2020-07-11T06:13:30Z</time>
      </trkpt>
      <trkpt lat="48.784115" lon="7.255432">
        <ele>299.0</ele>
        <time>2020-07-11T06:13:32Z</time>
      </trkpt>
      <trkpt lat="48.784092" lon="7.255493">
        <ele>299.0</ele>
        <time>2020-07-11T06:13:34Z</time>
      </trkpt>
      <trkpt lat="48.784079" lon="7.255573">
        <ele>298.0</ele>
        <time>2020-07-11T06:13:36Z</time>
      </trkpt>
      <trkpt lat="48.784073" lon="7.255646">
        <ele>298.0</ele>
        <time>2020-07-11T06:13:38Z</time>
      </trkpt>
      <trkpt lat="48.784068" lon="7.255719">
        <ele>298.0</ele>
        <time>2020-07-11T06:13:40Z</time>
      </trkpt>
      <trkpt lat="48.784067" lon="7.255794">
        <ele>299.0</ele>
        <time>2020-07-11T06:13:42Z</time>
      </trkpt>
      <trkpt lat="48.784072" lon="7.255862">
        <ele>299.0</ele>
        <time>2020-07-11T06:13:44Z</time>
      </trkpt>
      <trkpt lat="48.784074" lon="7.255897">
        <ele>299.0</ele>
        <time>2020-07-11T06:13:45Z</time>
      </trkpt>
      <trkpt lat="48.784069" lon="7.256107">
        <ele>299.0</ele>
        <time>2020-07-11T06:13:50Z</time>
      </trkpt>
      <trkpt lat="48.78407" lon="7.256182">
        <ele>300.0</ele>
        <time>2020-07-11T06:13:52Z</time>
      </trkpt>
      <trkpt lat="48.784076" lon="7.256254">
        <ele>299.0</ele>
        <time>2020-07-11T06:13:54Z</time>
      </trkpt>
      <trkpt lat="48.784078" lon="7.256329">
        <ele>299.0</ele>
        <time>2020-07-11T06:13:56Z</time>
      </trkpt>
      <trkpt lat="48.784081" lon="7.256403">
        <ele>300.0</ele>
        <time>2020-07-11T06:13:58Z</time>
      </trkpt>
      <trkpt lat="48.784081" lon="7.256478">
        <ele>300.0</ele>
        <time>2020-07-11T06:14:00Z</time>
      </trkpt>
      <trkpt lat="48.784081" lon="7.256533">
        <ele>300.0</ele>
        <time>2020-07-11T06:14:02Z</time>
      </trkpt>
      <trkpt lat="48.784062" lon="7.256588">
        <ele>300.0</ele>
        <time>2020-07-11T06:14:04Z</time>
      </trkpt>
      <trkpt lat="48.784047" lon="7.256634">
        <ele>299.0</ele>
        <time>2020-07-11T06:14:06Z</time>
      </trkpt>
      <trkpt lat="48.784036" lon="7.256671">
        <ele>299.0</ele>
        <time>2020-07-11T06:14:08Z</time>
      </trkpt>
      <trkpt lat="48.784021" lon="7.256702">
        <ele>299.0</ele>
        <time>2020-07-11T06:14:10Z</time>
      </trkpt>
      <trkpt lat="48.783999" lon="7.256737">
        <ele>300.0</ele>
        <time>2020-07-11T06:14:12Z</time>
      </trkpt>
      <trkpt lat="48.783977" lon="7.256763">
        <ele>300.0</ele>
        <time>2020-07-11T06:14:14Z</time>
      </trkpt>
      <trkpt lat="48.783952" lon="7.256784">
        <ele>300.0</ele>
        <time>2020-07-11T06:14:16Z</time>
      </trkpt>
      <trkpt lat="48.783919" lon="7.256815">
        <ele>300.0</ele>
        <time>2020-07-11T06:14:18Z</time>
      </trkpt>
      <trkpt lat="48.783885" lon="7.256841">
        <ele>299.0</ele>
        <time>2020-07-11T06:14:20Z</time>
      </trkpt>
      <trkpt lat="48.783859" lon="7.256868">
        <ele>298.0</ele>
        <time>2020-07-11T06:14:22Z</time>
      </trkpt>
      <trkpt lat="48.783835" lon="7.256901">
        <ele>299.0</ele>
        <time>2020-07-11T06:14:24Z</time>
      </trkpt>
      <trkpt lat="48.783813" lon="7.256934">
        <ele>299.0</ele>
        <time>2020-07-11T06:14:26Z</time>
      </trkpt>
      <trkpt lat="48.783792" lon="7.256968">
        <ele>299.0</ele>
        <time>2020-07-11T06:14:28Z</time>
      </trkpt>
      <trkpt lat="48.783766" lon="7.256991">
        <ele>300.0</ele>
        <time>2020-07-11T06:14:30Z</time>
      </trkpt>
      <trkpt lat="48.783736" lon="7.257013">
        <ele>300.0</ele>
        <time>2020-07-11T06:14:32Z</time>
      </trkpt>
      <trkpt lat="48.783718" lon="7.25704">
        <ele>300.0</ele>
        <time>2020-07-11T06:14:34Z</time>
      </trkpt>
      <trkpt lat="48.783697" lon="7.25707">
        <ele>300.0</ele>
        <time>2020-07-11T06:14:36Z</time>
      </trkpt>
      <trkpt lat="48.783697" lon="7.25707">
        <ele>300.0</ele>
        <time>2020-07-11T06:14:38Z</time>
      </trkpt>
      <trkpt lat="48.783655" lon="7.257121">
        <ele>301.0</ele>
        <time>2020-07-11T06:14:40Z</time>
      </trkpt>
      <trkpt lat="48.783633" lon="7.257141">
        <ele>301.0</ele>
        <time>2020-07-11T06:14:42Z</time>
      </trkpt>
      <trkpt lat="48.78361" lon="7.257158">
        <ele>302.0</ele>
        <time>2020-07-11T06:14:44Z</time>
      </trkpt>
      <trkpt lat="48.78361" lon="7.257158">
        <ele>302.0</ele>
        <time>2020-07-11T06:14:46Z</time>
      </trkpt>
      <trkpt lat="48.783578" lon="7.257228">
        <ele>301.0</ele>
        <time>2020-07-11T06:14:49Z</time>
      </trkpt>
      <trkpt lat="48.783569" lon="7.25726">
        <ele>302.0</ele>
        <time>2020-07-11T06:14:51Z</time>
      </trkpt>
      <trkpt lat="48.783569" lon="7.25726">
        <ele>302.0</ele>
        <time>2020-07-11T06:14:52Z</time>
      </trkpt>
      <trkpt lat="48.783547" lon="7.25729">
        <ele>303.0</ele>
        <time>2020-07-11T06:14:55Z</time>
      </trkpt>
      <trkpt lat="48.783529" lon="7.257299">
        <ele>304.0</ele>
        <time>2020-07-11T06:14:57Z</time>
      </trkpt>
      <trkpt lat="48.783363" lon="7.257465">
        <ele>306.0</ele>
        <time>2020-07-11T06:15:21Z</time>
      </trkpt>
      <trkpt lat="48.783363" lon="7.257465">
        <ele>306.0</ele>
        <time>2020-07-11T06:15:23Z</time>
      </trkpt>
      <trkpt lat="48.783363" lon="7.257465">
        <ele>306.0</ele>
        <time>2020-07-11T06:15:25Z</time>
      </trkpt>
      <trkpt lat="48.783359" lon="7.257488">
        <ele>308.0</ele>
        <time>2020-07-11T06:15:27Z</time>
      </trkpt>
      <trkpt lat="48.783356" lon="7.257502">
        <ele>310.0</ele>
        <time>2020-07-11T06:15:29Z</time>
      </trkpt>
      <trkpt lat="48.78336" lon="7.257519">
        <ele>310.0</ele>
        <time>2020-07-11T06:15:31Z</time>
      </trkpt>
      <trkpt lat="48.78336" lon="7.257519">
        <ele>310.0</ele>
        <time>2020-07-11T06:15:33Z</time>
      </trkpt>
      <trkpt lat="48.78336" lon="7.257519">
        <ele>310.0</ele>
        <time>2020-07-11T06:15:35Z</time>
      </trkpt>
      <trkpt lat="48.783351" lon="7.257546">
        <ele>311.0</ele>
        <time>2020-07-11T06:15:37Z</time>
      </trkpt>
      <trkpt lat="48.783343" lon="7.257562">
        <ele>311.0</ele>
        <time>2020-07-11T06:15:39Z</time>
      </trkpt>
      <trkpt lat="48.783343" lon="7.257562">
        <ele>311.0</ele>
        <time>2020-07-11T06:15:41Z</time>
      </trkpt>
      <trkpt lat="48.783317" lon="7.257594">
        <ele>312.0</ele>
        <time>2020-07-11T06:15:43Z</time>
      </trkpt>
      <trkpt lat="48.783292" lon="7.257625">
        <ele>313.0</ele>
        <time>2020-07-11T06:15:45Z</time>
      </trkpt>
      <trkpt lat="48.78327" lon="7.257659">
        <ele>313.0</ele>
        <time>2020-07-11T06:15:47Z</time>
      </trkpt>
      <trkpt lat="48.783246" lon="7.257688">
        <ele>314.0</ele>
        <time>2020-07-11T06:15:49Z</time>
      </trkpt>
      <trkpt lat="48.783227" lon="7.257719">
        <ele>315.0</ele>
        <time>2020-07-11T06:15:51Z</time>
      </trkpt>
      <trkpt lat="48.783227" lon="7.257719">
        <ele>315.0</ele>
        <time>2020-07-11T06:15:53Z</time>
      </trkpt>
      <trkpt lat="48.783199" lon="7.257765">
        <ele>316.0</ele>
        <time>2020-07-11T06:15:55Z</time>
      </trkpt>
      <trkpt lat="48.783182" lon="7.257796">
        <ele>316.0</ele>
        <time>2020-07-11T06:15:57Z</time>
      </trkpt>
      <trkpt lat="48.783158" lon="7.257824">
        <ele>316.0</ele>
        <time>2020-07-11T06:15:59Z</time>
      </trkpt>
      <trkpt lat="48.78315" lon="7.257831">
        <ele>315.0</ele>
        <time>2020-07-11T06:16:01Z</time>
      </trkpt>
      <trkpt lat="48.783126" lon="7.257864">
        <ele>316.0</ele>
        <time>2020-07-11T06:16:03Z</time>
      </trkpt>
      <trkpt lat="48.783111" lon="7.257891">
        <ele>316.0</ele>
        <time>2020-07-11T06:16:05Z</time>
      </trkpt>
      <trkpt lat="48.783091" lon="7.257916">
        <ele>316.0</ele>
        <time>2020-07-11T06:16:07Z</time>
      </trkpt>
      <trkpt lat="48.78308" lon="7.257936">
        <ele>316.0</ele>
        <time>2020-07-11T06:16:09Z</time>
      </trkpt>
      <trkpt lat="48.78308" lon="7.257936">
        <ele>316.0</ele>
        <time>2020-07-11T06:16:11Z</time>
      </trkpt>
      <trkpt lat="48.78308" lon="7.257935">
        <ele>316.0</ele>
        <time>2020-07-11T06:16:13Z</time>
      </trkpt>
      <trkpt lat="48.78308" lon="7.257935">
        <ele>316.0</ele>
        <time>2020-07-11T06:16:15Z</time>
      </trkpt>
      <trkpt lat="48.783071" lon="7.257939">
        <ele>319.0</ele>
        <time>2020-07-11T06:16:59Z</time>
      </trkpt>
      <trkpt lat="48.783071" lon="7.257939">
        <ele>319.0</ele>
        <time>2020-07-11T06:17:01Z</time>
      </trkpt>
      <trkpt lat="48.783071" lon="7.257939">
        <ele>319.0</ele>
        <time>2020-07-11T06:17:03Z</time>
      </trkpt>
      <trkpt lat="48.783071" lon="7.257939">
        <ele>319.0</ele>
        <time>2020-07-11T06:17:05Z</time>
      </trkpt>
      <trkpt lat="48.783071" lon="7.257939">
        <ele>319.0</ele>
        <time>2020-07-11T06:17:07Z</time>
      </trkpt>
      <trkpt lat="48.783071" lon="7.257939">
        <ele>319.0</ele>
        <time>2020-07-11T06:17:09Z</time>
      </trkpt>
      <trkpt lat="48.783071" lon="7.257939">
        <ele>319.0</ele>
        <time>2020-07-11T06:17:11Z</time>
      </trkpt>
      <trkpt lat="48.783071" lon="7.257939">
        <ele>319.0</ele>
        <time>2020-07-11T06:17:13Z</time>
      </trkpt>
      <trkpt lat="48.783071" lon="7.257939">
        <ele>319.0</ele>
        <time>2020-07-11T06:17:15Z</time>
      </trkpt>
      <trkpt lat="48.783071" lon="7.257939">
        <ele>319.0</ele>
        <time>2020-07-11T06:17:17Z</time>
      </trkpt>
      <trkpt lat="48.783071" lon="7.257939">
        <ele>319.0</ele>
        <time>2020-07-11T06:17:19Z</time>
      </trkpt>
      <trkpt lat="48.783071" lon="7.257939">
        <ele>319.0</ele>
        <time>2020-07-11T06:17:21Z</time>
      </trkpt>
      <trkpt lat="48.783041" lon="7.257969">
        <ele>319.0</ele>
        <time>2020-07-11T06:17:23Z</time>
      </trkpt>
      <trkpt lat="48.783011" lon="7.257991">
        <ele>319.0</ele>
        <time>2020-07-11T06:17:25Z</time>
      </trkpt>
      <trkpt lat="48.782979" lon="7.258014">
        <ele>319.0</ele>
        <time>2020-07-11T06:17:27Z</time>
      </trkpt>
      <trkpt lat="48.782952" lon="7.258032">
        <ele>318.0</ele>
        <time>2020-07-11T06:17:29Z</time>
      </trkpt>
      <trkpt lat="48.782923" lon="7.258041">
        <ele>318.0</ele>
        <time>2020-07-11T06:17:31Z</time>
      </trkpt>
      <trkpt lat="48.782902" lon="7.258055">
        <ele>318.0</ele>
        <time>2020-07-11T06:17:33Z</time>
      </trkpt>
      <trkpt lat="48.782879" lon="7.25807">
        <ele>319.0</ele>
        <time>2020-07-11T06:17:35Z</time>
      </trkpt>
      <trkpt lat="48.782849" lon="7.25808">
        <ele>319.0</ele>
        <time>2020-07-11T06:17:37Z</time>
      </trkpt>
      <trkpt lat="48.782829" lon="7.258086">
        <ele>320.0</ele>
        <time>2020-07-11T06:17:39Z</time>
      </trkpt>
      <trkpt lat="48.782829" lon="7.258086">
        <ele>320.0</ele>
        <time>2020-07-11T06:17:41Z</time>
      </trkpt>
      <trkpt lat="48.782801" lon="7.258112">
        <ele>321.0</ele>
        <time>2020-07-11T06:17:43Z</time>
      </trkpt>
      <trkpt lat="48.782797" lon="7.258107">
        <ele>322.0</ele>
        <time>2020-07-11T06:17:45Z</time>
      </trkpt>
      <trkpt lat="48.782782" lon="7.258128">
        <ele>322.0</ele>
        <time>2020-07-11T06:17:47Z</time>
      </trkpt>
      <trkpt lat="48.782779" lon="7.258166">
        <ele>323.0</ele>
        <time>2020-07-11T06:17:49Z</time>
      </trkpt>
      <trkpt lat="48.782786" lon="7.258216">
        <ele>323.0</ele>
        <time>2020-07-11T06:17:51Z</time>
      </trkpt>
      <trkpt lat="48.782792" lon="7.258258">
        <ele>324.0</ele>
        <time>2020-07-11T06:17:53Z</time>
      </trkpt>
      <trkpt lat="48.782801" lon="7.258302">
        <ele>324.0</ele>
        <time>2020-07-11T06:17:55Z</time>
      </trkpt>
      <trkpt lat="48.782813" lon="7.25834">
        <ele>324.0</ele>
        <time>2020-07-11T06:17:57Z</time>
      </trkpt>
      <trkpt lat="48.782819" lon="7.258348">
        <ele>325.0</ele>
        <time>2020-07-11T06:17:59Z</time>
      </trkpt>
      <trkpt lat="48.782828" lon="7.258377">
        <ele>325.0</ele>
        <time>2020-07-11T06:18:01Z</time>
      </trkpt>
      <trkpt lat="48.782862" lon="7.258438">
        <ele>326.0</ele>
        <time>2020-07-11T06:18:04Z</time>
      </trkpt>
      <trkpt lat="48.78289" lon="7.258497">
        <ele>327.0</ele>
        <time>2020-07-11T06:18:06Z</time>
      </trkpt>
      <trkpt lat="48.782916" lon="7.258551">
        <ele>327.0</ele>
        <time>2020-07-11T06:18:08Z</time>
      </trkpt>
      <trkpt lat="48.782948" lon="7.258608">
        <ele>327.0</ele>
        <time>2020-07-11T06:18:10Z</time>
      </trkpt>
      <trkpt lat="48.782993" lon="7.258649">
        <ele>326.0</ele>
        <time>2020-07-11T06:18:12Z</time>
      </trkpt>
      <trkpt lat="48.783031" lon="7.258698">
        <ele>326.0</ele>
        <time>2020-07-11T06:18:14Z</time>
      </trkpt>
      <trkpt lat="48.783065" lon="7.258742">
        <ele>327.0</ele>
        <time>2020-07-11T06:18:16Z</time>
      </trkpt>
      <trkpt lat="48.783102" lon="7.258786">
        <ele>327.0</ele>
        <time>2020-07-11T06:18:18Z</time>
      </trkpt>
      <trkpt lat="48.783137" lon="7.258829">
        <ele>327.0</ele>
        <time>2020-07-11T06:18:20Z</time>
      </trkpt>
      <trkpt lat="48.783173" lon="7.258881">
        <ele>328.0</ele>
        <time>2020-07-11T06:18:22Z</time>
      </trkpt>
      <trkpt lat="48.78321" lon="7.258926">
        <ele>328.0</ele>
        <time>2020-07-11T06:18:24Z</time>
      </trkpt>
      <trkpt lat="48.78325" lon="7.258981">
        <ele>328.0</ele>
        <time>2020-07-11T06:18:26Z</time>
      </trkpt>
      <trkpt lat="48.783289" lon="7.259034">
        <ele>328.0</ele>
        <time>2020-07-11T06:18:28Z</time>
      </trkpt>
      <trkpt lat="48.783322" lon="7.259088">
        <ele>329.0</ele>
        <time>2020-07-11T06:18:30Z</time>
      </trkpt>
      <trkpt lat="48.783351" lon="7.259147">
        <ele>329.0</ele>
        <time>2020-07-11T06:18:32Z</time>
      </trkpt>
      <trkpt lat="48.783381" lon="7.259209">
        <ele>330.0</ele>
        <time>2020-07-11T06:18:34Z</time>
      </trkpt>
      <trkpt lat="48.783419" lon="7.259281">
        <ele>330.0</ele>
        <time>2020-07-11T06:18:36Z</time>
      </trkpt>
      <trkpt lat="48.783456" lon="7.259355">
        <ele>330.0</ele>
        <time>2020-07-11T06:18:38Z</time>
      </trkpt>
      <trkpt lat="48.783497" lon="7.259424">
        <ele>330.0</ele>
        <time>2020-07-11T06:18:40Z</time>
      </trkpt>
      <trkpt lat="48.783533" lon="7.259501">
        <ele>330.0</ele>
        <time>2020-07-11T06:18:42Z</time>
      </trkpt>
      <trkpt lat="48.783569" lon="7.259561">
        <ele>329.0</ele>
        <time>2020-07-11T06:18:44Z</time>
      </trkpt>
      <trkpt lat="48.783592" lon="7.259625">
        <ele>329.0</ele>
        <time>2020-07-11T06:18:46Z</time>
      </trkpt>
      <trkpt lat="48.783613" lon="7.259687">
        <ele>328.0</ele>
        <time>2020-07-11T06:18:48Z</time>
      </trkpt>
      <trkpt lat="48.783635" lon="7.259745">
        <ele>329.0</ele>
        <time>2020-07-11T06:18:50Z</time>
      </trkpt>
      <trkpt lat="48.783661" lon="7.2598">
        <ele>328.0</ele>
        <time>2020-07-11T06:18:52Z</time>
      </trkpt>
      <trkpt lat="48.783679" lon="7.259847">
        <ele>327.0</ele>
        <time>2020-07-11T06:18:54Z</time>
      </trkpt>
      <trkpt lat="48.783701" lon="7.259882">
        <ele>328.0</ele>
        <time>2020-07-11T06:18:56Z</time>
      </trkpt>
      <trkpt lat="48.783716" lon="7.25992">
        <ele>328.0</ele>
        <time>2020-07-11T06:18:58Z</time>
      </trkpt>
      <trkpt lat="48.78372" lon="7.259917">
        <ele>327.0</ele>
        <time>2020-07-11T06:19:00Z</time>
      </trkpt>
      <trkpt lat="48.783714" lon="7.259909">
        <ele>327.0</ele>
        <time>2020-07-11T06:19:02Z</time>
      </trkpt>
      <trkpt lat="48.783714" lon="7.259909">
        <ele>327.0</ele>
        <time>2020-07-11T06:19:04Z</time>
      </trkpt>
      <trkpt lat="48.783714" lon="7.259909">
        <ele>327.0</ele>
        <time>2020-07-11T06:19:06Z</time>
      </trkpt>
      <trkpt lat="48.783714" lon="7.259909">
        <ele>327.0</ele>
        <time>2020-07-11T06:20:55Z</time>
      </trkpt>
      <trkpt lat="48.783714" lon="7.259909">
        <ele>327.0</ele>
        <time>2020-07-11T06:20:57Z</time>
      </trkpt>
      <trkpt lat="48.783714" lon="7.259909">
        <ele>327.0</ele>
        <time>2020-07-11T06:20:59Z</time>
      </trkpt>
      <trkpt lat="48.783714" lon="7.259909">
        <ele>327.0</ele>
        <time>2020-07-11T06:21:01Z</time>
      </trkpt>
      <trkpt lat="48.783714" lon="7.259909">
        <ele>327.0</ele>
        <time>2020-07-11T06:21:03Z</time>
      </trkpt>
      <trkpt lat="48.783714" lon="7.259909">
        <ele>327.0</ele>
        <time>2020-07-11T06:21:05Z</time>
      </trkpt>
      <trkpt lat="48.783714" lon="7.259909">
        <ele>327.0</ele>
        <time>2020-07-11T06:21:07Z</time>
      </trkpt>
      <trkpt lat="48.783714" lon="7.259909">
        <ele>327.0</ele>
        <time>2020-07-11T06:21:09Z</time>
      </trkpt>
      <trkpt lat="48.783714" lon="7.259909">
        <ele>327.0</ele>
        <time>2020-07-11T06:21:11Z</time>
      </trkpt>
      <trkpt lat="48.783714" lon="7.259909">
        <ele>327.0</ele>
        <time>2020-07-11T06:21:13Z</time>
      </trkpt>
      <trkpt lat="48.783714" lon="7.259909">
        <ele>327.0</ele>
        <time>2020-07-11T06:21:15Z</time>
      </trkpt>
      <trkpt lat="48.78371" lon="7.259909">
        <ele>327.0</ele>
        <time>2020-07-11T06:21:17Z</time>
      </trkpt>
      <trkpt lat="48.783687" lon="7.259896">
        <ele>328.0</ele>
        <time>2020-07-11T06:21:19Z</time>
      </trkpt>
      <trkpt lat="48.783679" lon="7.259854">
        <ele>328.0</ele>
        <time>2020-07-11T06:21:21Z</time>
      </trkpt>
      <trkpt lat="48.783669" lon="7.259791">
        <ele>328.0</ele>
        <time>2020-07-11T06:21:23Z</time>
      </trkpt>
      <trkpt lat="48.783653" lon="7.259721">
        <ele>328.0</ele>
        <time>2020-07-11T06:21:25Z</time>
      </trkpt>
      <trkpt lat="48.783629" lon="7.259647">
        <ele>328.0</ele>
        <time>2020-07-11T06:21:27Z</time>
      </trkpt>
      <trkpt lat="48.78359" lon="7.25957">
        <ele>327.0</ele>
        <time>2020-07-11T06:21:29Z</time>
      </trkpt>
      <trkpt lat="48.783552" lon="7.259484">
        <ele>327.0</ele>
        <time>2020-07-11T06:21:31Z</time>
      </trkpt>
      <trkpt lat="48.783506" lon="7.259404">
        <ele>327.0</ele>
        <time>2020-07-11T06:21:33Z</time>
      </trkpt>
      <trkpt lat="48.783461" lon="7.259322">
        <ele>327.0</ele>
        <time>2020-07-11T06:21:35Z</time>
      </trkpt>
      <trkpt lat="48.783411" lon="7.259231">
        <ele>327.0</ele>
        <time>2020-07-11T06:21:37Z</time>
      </trkpt>
      <trkpt lat="48.783361" lon="7.259142">
        <ele>326.0</ele>
        <time>2020-07-11T06:21:39Z</time>
      </trkpt>
      <trkpt lat="48.78332" lon="7.259059">
        <ele>326.0</ele>
        <time>2020-07-11T06:21:41Z</time>
      </trkpt>
      <trkpt lat="48.783264" lon="7.258966">
        <ele>326.0</ele>
        <time>2020-07-11T06:21:43Z</time>
      </trkpt>
      <trkpt lat="48.783204" lon="7.258893">
        <ele>326.0</ele>
        <time>2020-07-11T06:21:45Z</time>
      </trkpt>
      <trkpt lat="48.783149" lon="7.258821">
        <ele>327.0</ele>
        <time>2020-07-11T06:21:47Z</time>
      </trkpt>
      <trkpt lat="48.783089" lon="7.258749">
        <ele>327.0</ele>
        <time>2020-07-11T06:21:49Z</time>
      </trkpt>
      <trkpt lat="48.783024" lon="7.258675">
        <ele>326.0</ele>
        <time>2020-07-11T06:21:51Z</time>
      </trkpt>
      <trkpt lat="48.78296" lon="7.258593">
        <ele>325.0</ele>
        <time>2020-07-11T06:21:53Z</time>
      </trkpt>
      <trkpt lat="48.782892" lon="7.258491">
        <ele>325.0</ele>
        <time>2020-07-11T06:21:55Z</time>
      </trkpt>
      <trkpt lat="48.782837" lon="7.258387">
        <ele>326.0</ele>
        <time>2020-07-11T06:21:57Z</time>
      </trkpt>
      <trkpt lat="48.782791" lon="7.25827">
        <ele>325.0</ele>
        <time>2020-07-11T06:21:59Z</time>
      </trkpt>
      <trkpt lat="48.782748" lon="7.258163">
        <ele>325.0</ele>
        <time>2020-07-11T06:22:01Z</time>
      </trkpt>
      <trkpt lat="48.782686" lon="7.258094">
        <ele>324.0</ele>
        <time>2020-07-11T06:22:03Z</time>
      </trkpt>
      <trkpt lat="48.782617" lon="7.258085">
        <ele>324.0</ele>
        <time>2020-07-11T06:22:05Z</time>
      </trkpt>
      <trkpt lat="48.782553" lon="7.258092">
        <ele>324.0</ele>
        <time>2020-07-11T06:22:07Z</time>
      </trkpt>
      <trkpt lat="48.782491" lon="7.258099">
        <ele>324.0</ele>
        <time>2020-07-11T06:22:09Z</time>
      </trkpt>
      <trkpt lat="48.78243" lon="7.2581">
        <ele>324.0</ele>
        <time>2020-07-11T06:22:11Z</time>
      </trkpt>
      <trkpt lat="48.782359" lon="7.258099">
        <ele>324.0</ele>
        <time>2020-07-11T06:22:13Z</time>
      </trkpt>
      <trkpt lat="48.782287" lon="7.258087">
        <ele>325.0</ele>
        <time>2020-07-11T06:22:15Z</time>
      </trkpt>
      <trkpt lat="48.782214" lon="7.25808">
        <ele>325.0</ele>
        <time>2020-07-11T06:22:17Z</time>
      </trkpt>
      <trkpt lat="48.782145" lon="7.258079">
        <ele>325.0</ele>
        <time>2020-07-11T06:22:19Z</time>
      </trkpt>
      <trkpt lat="48.782074" lon="7.258075">
        <ele>325.0</ele>
        <time>2020-07-11T06:22:21Z</time>
      </trkpt>
      <trkpt lat="48.782005" lon="7.258067">
        <ele>325.0</ele>
        <time>2020-07-11T06:22:23Z</time>
      </trkpt>
      <trkpt lat="48.781939" lon="7.258057">
        <ele>326.0</ele>
        <time>2020-07-11T06:22:25Z</time>
      </trkpt>
      <trkpt lat="48.781865" lon="7.258048">
        <ele>327.0</ele>
        <time>2020-07-11T06:22:27Z</time>
      </trkpt>
      <trkpt lat="48.781798" lon="7.258044">
        <ele>327.0</ele>
        <time>2020-07-11T06:22:29Z</time>
      </trkpt>
      <trkpt lat="48.781733" lon="7.258041">
        <ele>327.0</ele>
        <time>2020-07-11T06:22:31Z</time>
      </trkpt>
      <trkpt lat="48.781669" lon="7.258034">
        <ele>327.0</ele>
        <time>2020-07-11T06:22:33Z</time>
      </trkpt>
      <trkpt lat="48.781612" lon="7.258022">
        <ele>327.0</ele>
        <time>2020-07-11T06:22:35Z</time>
      </trkpt>
      <trkpt lat="48.781562" lon="7.258017">
        <ele>327.0</ele>
        <time>2020-07-11T06:22:37Z</time>
      </trkpt>
      <trkpt lat="48.781513" lon="7.258017">
        <ele>328.0</ele>
        <time>2020-07-11T06:22:39Z</time>
      </trkpt>
      <trkpt lat="48.781465" lon="7.258007">
        <ele>328.0</ele>
        <time>2020-07-11T06:22:41Z</time>
      </trkpt>
      <trkpt lat="48.781416" lon="7.258001">
        <ele>328.0</ele>
        <time>2020-07-11T06:22:43Z</time>
      </trkpt>
      <trkpt lat="48.78137" lon="7.257994">
        <ele>328.0</ele>
        <time>2020-07-11T06:22:45Z</time>
      </trkpt>
      <trkpt lat="48.781322" lon="7.257995">
        <ele>329.0</ele>
        <time>2020-07-11T06:22:47Z</time>
      </trkpt>
      <trkpt lat="48.781281" lon="7.257978">
        <ele>329.0</ele>
        <time>2020-07-11T06:22:49Z</time>
      </trkpt>
      <trkpt lat="48.78124" lon="7.257968">
        <ele>330.0</ele>
        <time>2020-07-11T06:22:51Z</time>
      </trkpt>
      <trkpt lat="48.7812" lon="7.257958">
        <ele>330.0</ele>
        <time>2020-07-11T06:22:53Z</time>
      </trkpt>
      <trkpt lat="48.781153" lon="7.257947">
        <ele>330.0</ele>
        <time>2020-07-11T06:22:55Z</time>
      </trkpt>
      <trkpt lat="48.781107" lon="7.257931">
        <ele>330.0</ele>
        <time>2020-07-11T06:22:57Z</time>
      </trkpt>
      <trkpt lat="48.78106" lon="7.257926">
        <ele>330.0</ele>
        <time>2020-07-11T06:22:59Z</time>
      </trkpt>
      <trkpt lat="48.781011" lon="7.257921">
        <ele>330.0</ele>
        <time>2020-07-11T06:23:01Z</time>
      </trkpt>
      <trkpt lat="48.780965" lon="7.257913">
        <ele>330.0</ele>
        <time>2020-07-11T06:23:03Z</time>
      </trkpt>
      <trkpt lat="48.78092" lon="7.257903">
        <ele>330.0</ele>
        <time>2020-07-11T06:23:05Z</time>
      </trkpt>
      <trkpt lat="48.780871" lon="7.2579">
        <ele>331.0</ele>
        <time>2020-07-11T06:23:07Z</time>
      </trkpt>
      <trkpt lat="48.780823" lon="7.257893">
        <ele>331.0</ele>
        <time>2020-07-11T06:23:09Z</time>
      </trkpt>
      <trkpt lat="48.780781" lon="7.257891">
        <ele>331.0</ele>
        <time>2020-07-11T06:23:11Z</time>
      </trkpt>
      <trkpt lat="48.780737" lon="7.257887">
        <ele>332.0</ele>
        <time>2020-07-11T06:23:13Z</time>
      </trkpt>
      <trkpt lat="48.780688" lon="7.257869">
        <ele>332.0</ele>
        <time>2020-07-11T06:23:15Z</time>
      </trkpt>
      <trkpt lat="48.780642" lon="7.25786">
        <ele>332.0</ele>
        <time>2020-07-11T06:23:17Z</time>
      </trkpt>
      <trkpt lat="48.780595" lon="7.257851">
        <ele>332.0</ele>
        <time>2020-07-11T06:23:19Z</time>
      </trkpt>
      <trkpt lat="48.78055" lon="7.257843">
        <ele>333.0</ele>
        <time>2020-07-11T06:23:21Z</time>
      </trkpt>
      <trkpt lat="48.780505" lon="7.257834">
        <ele>333.0</ele>
        <time>2020-07-11T06:23:23Z</time>
      </trkpt>
      <trkpt lat="48.780465" lon="7.25782">
        <ele>334.0</ele>
        <time>2020-07-11T06:23:25Z</time>
      </trkpt>
      <trkpt lat="48.780426" lon="7.257806">
        <ele>333.0</ele>
        <time>2020-07-11T06:23:27Z</time>
      </trkpt>
      <trkpt lat="48.780389" lon="7.257803">
        <ele>333.0</ele>
        <time>2020-07-11T06:23:29Z</time>
      </trkpt>
      <trkpt lat="48.780353" lon="7.2578">
        <ele>333.0</ele>
        <time>2020-07-11T06:23:31Z</time>
      </trkpt>
      <trkpt lat="48.780314" lon="7.257786">
        <ele>334.0</ele>
        <time>2020-07-11T06:23:33Z</time>
      </trkpt>
      <trkpt lat="48.780276" lon="7.257773">
        <ele>334.0</ele>
        <time>2020-07-11T06:23:35Z</time>
      </trkpt>
      <trkpt lat="48.780236" lon="7.257759">
        <ele>335.0</ele>
        <time>2020-07-11T06:23:37Z</time>
      </trkpt>
      <trkpt lat="48.780194" lon="7.257738">
        <ele>336.0</ele>
        <time>2020-07-11T06:23:39Z</time>
      </trkpt>
      <trkpt lat="48.780155" lon="7.257728">
        <ele>336.0</ele>
        <time>2020-07-11T06:23:41Z</time>
      </trkpt>
      <trkpt lat="48.780113" lon="7.257715">
        <ele>337.0</ele>
        <time>2020-07-11T06:23:43Z</time>
      </trkpt>
      <trkpt lat="48.780069" lon="7.257706">
        <ele>338.0</ele>
        <time>2020-07-11T06:23:45Z</time>
      </trkpt>
      <trkpt lat="48.780029" lon="7.257691">
        <ele>338.0</ele>
        <time>2020-07-11T06:23:47Z</time>
      </trkpt>
      <trkpt lat="48.779993" lon="7.257677">
        <ele>338.0</ele>
        <time>2020-07-11T06:23:49Z</time>
      </trkpt>
      <trkpt lat="48.779949" lon="7.257667">
        <ele>339.0</ele>
        <time>2020-07-11T06:23:51Z</time>
      </trkpt>
      <trkpt lat="48.77989" lon="7.257644">
        <ele>340.0</ele>
        <time>2020-07-11T06:23:54Z</time>
      </trkpt>
      <trkpt lat="48.779874" lon="7.25764">
        <ele>340.0</ele>
        <time>2020-07-11T06:23:55Z</time>
      </trkpt>
      <trkpt lat="48.779818" lon="7.25763">
        <ele>340.0</ele>
        <time>2020-07-11T06:23:58Z</time>
      </trkpt>
      <trkpt lat="48.779783" lon="7.257618">
        <ele>340.0</ele>
        <time>2020-07-11T06:24:00Z</time>
      </trkpt>
      <trkpt lat="48.779746" lon="7.257607">
        <ele>340.0</ele>
        <time>2020-07-11T06:24:02Z</time>
      </trkpt>
      <trkpt lat="48.779712" lon="7.257591">
        <ele>339.0</ele>
        <time>2020-07-11T06:24:04Z</time>
      </trkpt>
      <trkpt lat="48.779678" lon="7.257571">
        <ele>340.0</ele>
        <time>2020-07-11T06:24:06Z</time>
      </trkpt>
      <trkpt lat="48.779641" lon="7.257557">
        <ele>340.0</ele>
        <time>2020-07-11T06:24:08Z</time>
      </trkpt>
      <trkpt lat="48.779609" lon="7.257545">
        <ele>340.0</ele>
        <time>2020-07-11T06:24:10Z</time>
      </trkpt>
      <trkpt lat="48.779579" lon="7.257538">
        <ele>340.0</ele>
        <time>2020-07-11T06:24:12Z</time>
      </trkpt>
      <trkpt lat="48.779543" lon="7.257532">
        <ele>341.0</ele>
        <time>2020-07-11T06:24:14Z</time>
      </trkpt>
      <trkpt lat="48.779508" lon="7.257527">
        <ele>340.0</ele>
        <time>2020-07-11T06:24:16Z</time>
      </trkpt>
      <trkpt lat="48.779474" lon="7.257525">
        <ele>341.0</ele>
        <time>2020-07-11T06:24:18Z</time>
      </trkpt>
      <trkpt lat="48.779433" lon="7.257511">
        <ele>341.0</ele>
        <time>2020-07-11T06:24:20Z</time>
      </trkpt>
      <trkpt lat="48.779391" lon="7.257496">
        <ele>342.0</ele>
        <time>2020-07-11T06:24:22Z</time>
      </trkpt>
      <trkpt lat="48.77935" lon="7.25748">
        <ele>342.0</ele>
        <time>2020-07-11T06:24:24Z</time>
      </trkpt>
      <trkpt lat="48.779309" lon="7.257466">
        <ele>343.0</ele>
        <time>2020-07-11T06:24:26Z</time>
      </trkpt>
      <trkpt lat="48.779262" lon="7.257456">
        <ele>343.0</ele>
        <time>2020-07-11T06:24:28Z</time>
      </trkpt>
      <trkpt lat="48.779226" lon="7.257442">
        <ele>343.0</ele>
        <time>2020-07-11T06:24:30Z</time>
      </trkpt>
      <trkpt lat="48.779188" lon="7.257425">
        <ele>343.0</ele>
        <time>2020-07-11T06:24:32Z</time>
      </trkpt>
      <trkpt lat="48.779155" lon="7.257405">
        <ele>343.0</ele>
        <time>2020-07-11T06:24:34Z</time>
      </trkpt>
      <trkpt lat="48.779112" lon="7.257399">
        <ele>343.0</ele>
        <time>2020-07-11T06:24:36Z</time>
      </trkpt>
      <trkpt lat="48.779071" lon="7.257384">
        <ele>344.0</ele>
        <time>2020-07-11T06:24:38Z</time>
      </trkpt>
      <trkpt lat="48.779036" lon="7.257373">
        <ele>344.0</ele>
        <time>2020-07-11T06:24:40Z</time>
      </trkpt>
      <trkpt lat="48.779" lon="7.257359">
        <ele>344.0</ele>
        <time>2020-07-11T06:24:42Z</time>
      </trkpt>
      <trkpt lat="48.778958" lon="7.257339">
        <ele>345.0</ele>
        <time>2020-07-11T06:24:44Z</time>
      </trkpt>
      <trkpt lat="48.778918" lon="7.257325">
        <ele>345.0</ele>
        <time>2020-07-11T06:24:46Z</time>
      </trkpt>
      <trkpt lat="48.778877" lon="7.257308">
        <ele>345.0</ele>
        <time>2020-07-11T06:24:48Z</time>
      </trkpt>
      <trkpt lat="48.77885" lon="7.257286">
        <ele>346.0</ele>
        <time>2020-07-11T06:24:50Z</time>
      </trkpt>
      <trkpt lat="48.778824" lon="7.257267">
        <ele>345.0</ele>
        <time>2020-07-11T06:24:52Z</time>
      </trkpt>
      <trkpt lat="48.778783" lon="7.257253">
        <ele>345.0</ele>
        <time>2020-07-11T06:24:54Z</time>
      </trkpt>
      <trkpt lat="48.778745" lon="7.257241">
        <ele>345.0</ele>
        <time>2020-07-11T06:24:56Z</time>
      </trkpt>
      <trkpt lat="48.778708" lon="7.257232">
        <ele>345.0</ele>
        <time>2020-07-11T06:24:58Z</time>
      </trkpt>
      <trkpt lat="48.778663" lon="7.257219">
        <ele>346.0</ele>
        <time>2020-07-11T06:25:00Z</time>
      </trkpt>
      <trkpt lat="48.778617" lon="7.257211">
        <ele>347.0</ele>
        <time>2020-07-11T06:25:02Z</time>
      </trkpt>
      <trkpt lat="48.778576" lon="7.257204">
        <ele>348.0</ele>
        <time>2020-07-11T06:25:04Z</time>
      </trkpt>
      <trkpt lat="48.778543" lon="7.257172">
        <ele>347.0</ele>
        <time>2020-07-11T06:25:06Z</time>
      </trkpt>
      <trkpt lat="48.778522" lon="7.257116">
        <ele>348.0</ele>
        <time>2020-07-11T06:25:08Z</time>
      </trkpt>
      <trkpt lat="48.778523" lon="7.257053">
        <ele>349.0</ele>
        <time>2020-07-11T06:25:10Z</time>
      </trkpt>
      <trkpt lat="48.778531" lon="7.256983">
        <ele>350.0</ele>
        <time>2020-07-11T06:25:12Z</time>
      </trkpt>
      <trkpt lat="48.778532" lon="7.256905">
        <ele>350.0</ele>
        <time>2020-07-11T06:25:14Z</time>
      </trkpt>
      <trkpt lat="48.778535" lon="7.256828">
        <ele>350.0</ele>
        <time>2020-07-11T06:25:16Z</time>
      </trkpt>
      <trkpt lat="48.778547" lon="7.256741">
        <ele>350.0</ele>
        <time>2020-07-11T06:25:18Z</time>
      </trkpt>
      <trkpt lat="48.778556" lon="7.256647">
        <ele>350.0</ele>
        <time>2020-07-11T06:25:20Z</time>
      </trkpt>
      <trkpt lat="48.778566" lon="7.256535">
        <ele>351.0</ele>
        <time>2020-07-11T06:25:22Z</time>
      </trkpt>
      <trkpt lat="48.77859" lon="7.256405">
        <ele>350.0</ele>
        <time>2020-07-11T06:25:24Z</time>
      </trkpt>
      <trkpt lat="48.778602" lon="7.256266">
        <ele>349.0</ele>
        <time>2020-07-11T06:25:26Z</time>
      </trkpt>
      <trkpt lat="48.778615" lon="7.256122">
        <ele>350.0</ele>
        <time>2020-07-11T06:25:28Z</time>
      </trkpt>
      <trkpt lat="48.77863" lon="7.255992">
        <ele>351.0</ele>
        <time>2020-07-11T06:25:30Z</time>
      </trkpt>
      <trkpt lat="48.778638" lon="7.255918">
        <ele>351.0</ele>
        <time>2020-07-11T06:25:32Z</time>
      </trkpt>
      <trkpt lat="48.778644" lon="7.25589">
        <ele>351.0</ele>
        <time>2020-07-11T06:25:34Z</time>
      </trkpt>
      <trkpt lat="48.778645" lon="7.255898">
        <ele>351.0</ele>
        <time>2020-07-11T06:25:36Z</time>
      </trkpt>
      <trkpt lat="48.778644" lon="7.255901">
        <ele>351.0</ele>
        <time>2020-07-11T06:25:38Z</time>
      </trkpt>
      <trkpt lat="48.778644" lon="7.255901">
        <ele>351.0</ele>
        <time>2020-07-11T06:25:40Z</time>
      </trkpt>
      <trkpt lat="48.778644" lon="7.255901">
        <ele>351.0</ele>
        <time>2020-07-11T06:25:42Z</time>
      </trkpt>
      <trkpt lat="48.778644" lon="7.255901">
        <ele>351.0</ele>
        <time>2020-07-11T06:26:40Z</time>
      </trkpt>
      <trkpt lat="48.778644" lon="7.255901">
        <ele>351.0</ele>
        <time>2020-07-11T06:26:42Z</time>
      </trkpt>
      <trkpt lat="48.778644" lon="7.255901">
        <ele>351.0</ele>
        <time>2020-07-11T06:26:44Z</time>
      </trkpt>
      <trkpt lat="48.778644" lon="7.255901">
        <ele>351.0</ele>
        <time>2020-07-11T06:26:46Z</time>
      </trkpt>
      <trkpt lat="48.778644" lon="7.255901">
        <ele>351.0</ele>
        <time>2020-07-11T06:26:48Z</time>
      </trkpt>
      <trkpt lat="48.778644" lon="7.255901">
        <ele>351.0</ele>
        <time>2020-07-11T06:26:50Z</time>
      </trkpt>
      <trkpt lat="48.778644" lon="7.255901">
        <ele>351.0</ele>
        <time>2020-07-11T06:26:52Z</time>
      </trkpt>
      <trkpt lat="48.778644" lon="7.255901">
        <ele>351.0</ele>
        <time>2020-07-11T06:26:54Z</time>
      </trkpt>
      <trkpt lat="48.778644" lon="7.255901">
        <ele>351.0</ele>
        <time>2020-07-11T06:26:56Z</time>
      </trkpt>
      <trkpt lat="48.778644" lon="7.255901">
        <ele>351.0</ele>
        <time>2020-07-11T06:26:59Z</time>
      </trkpt>
      <trkpt lat="48.778644" lon="7.255901">
        <ele>351.0</ele>
        <time>2020-07-11T06:27:01Z</time>
      </trkpt>
      <trkpt lat="48.778644" lon="7.255901">
        <ele>351.0</ele>
        <time>2020-07-11T06:27:03Z</time>
      </trkpt>
      <trkpt lat="48.778644" lon="7.255882">
        <ele>350.0</ele>
        <time>2020-07-11T06:27:04Z</time>
      </trkpt>
      <trkpt lat="48.778646" lon="7.25578">
        <ele>350.0</ele>
        <time>2020-07-11T06:27:07Z</time>
      </trkpt>
      <trkpt lat="48.778657" lon="7.25568">
        <ele>350.0</ele>
        <time>2020-07-11T06:27:09Z</time>
      </trkpt>
      <trkpt lat="48.778666" lon="7.255572">
        <ele>350.0</ele>
        <time>2020-07-11T06:27:11Z</time>
      </trkpt>
      <trkpt lat="48.778675" lon="7.255447">
        <ele>350.0</ele>
        <time>2020-07-11T06:27:13Z</time>
      </trkpt>
      <trkpt lat="48.778679" lon="7.255307">
        <ele>348.0</ele>
        <time>2020-07-11T06:27:15Z</time>
      </trkpt>
      <trkpt lat="48.778688" lon="7.255126">
        <ele>347.0</ele>
        <time>2020-07-11T06:27:17Z</time>
      </trkpt>
      <trkpt lat="48.778707" lon="7.25491">
        <ele>347.0</ele>
        <time>2020-07-11T06:27:19Z</time>
      </trkpt>
      <trkpt lat="48.778724" lon="7.254668">
        <ele>345.0</ele>
        <time>2020-07-11T06:27:21Z</time>
      </trkpt>
      <trkpt lat="48.77874" lon="7.254439">
        <ele>344.0</ele>
        <time>2020-07-11T06:27:23Z</time>
      </trkpt>
      <trkpt lat="48.778758" lon="7.25419">
        <ele>344.0</ele>
        <time>2020-07-11T06:27:25Z</time>
      </trkpt>
      <trkpt lat="48.778796" lon="7.253953">
        <ele>342.0</ele>
        <time>2020-07-11T06:27:27Z</time>
      </trkpt>
      <trkpt lat="48.778848" lon="7.253724">
        <ele>341.0</ele>
        <time>2020-07-11T06:27:29Z</time>
      </trkpt>
      <trkpt lat="48.778914" lon="7.253463">
        <ele>339.0</ele>
        <time>2020-07-11T06:27:31Z</time>
      </trkpt>
      <trkpt lat="48.778977" lon="7.253197">
        <ele>338.0</ele>
        <time>2020-07-11T06:27:33Z</time>
      </trkpt>
      <trkpt lat="48.779036" lon="7.252953">
        <ele>338.0</ele>
        <time>2020-07-11T06:27:35Z</time>
      </trkpt>
      <trkpt lat="48.779083" lon="7.25278">
        <ele>338.0</ele>
        <time>2020-07-11T06:27:37Z</time>
      </trkpt>
      <trkpt lat="48.779102" lon="7.252648">
        <ele>337.0</ele>
        <time>2020-07-11T06:27:39Z</time>
      </trkpt>
      <trkpt lat="48.779087" lon="7.252544">
        <ele>337.0</ele>
        <time>2020-07-11T06:27:41Z</time>
      </trkpt>
      <trkpt lat="48.779037" lon="7.25248">
        <ele>337.0</ele>
        <time>2020-07-11T06:27:43Z</time>
      </trkpt>
      <trkpt lat="48.778975" lon="7.252428">
        <ele>336.0</ele>
        <time>2020-07-11T06:27:45Z</time>
      </trkpt>
      <trkpt lat="48.778914" lon="7.252387">
        <ele>336.0</ele>
        <time>2020-07-11T06:27:47Z</time>
      </trkpt>
      <trkpt lat="48.778852" lon="7.252355">
        <ele>336.0</ele>
        <time>2020-07-11T06:27:49Z</time>
      </trkpt>
      <trkpt lat="48.778792" lon="7.252318">
        <ele>336.0</ele>
        <time>2020-07-11T06:27:51Z</time>
      </trkpt>
      <trkpt lat="48.778728" lon="7.252284">
        <ele>336.0</ele>
        <time>2020-07-11T06:27:53Z</time>
      </trkpt>
      <trkpt lat="48.77867" lon="7.252242">
        <ele>335.0</ele>
        <time>2020-07-11T06:27:55Z</time>
      </trkpt>
      <trkpt lat="48.778614" lon="7.252194">
        <ele>335.0</ele>
        <time>2020-07-11T06:27:57Z</time>
      </trkpt>
      <trkpt lat="48.778551" lon="7.252154">
        <ele>336.0</ele>
        <time>2020-07-11T06:27:59Z</time>
      </trkpt>
      <trkpt lat="48.77849" lon="7.252122">
        <ele>336.0</ele>
        <time>2020-07-11T06:28:01Z</time>
      </trkpt>
      <trkpt lat="48.778428" lon="7.252087">
        <ele>336.0</ele>
        <time>2020-07-11T06:28:03Z</time>
      </trkpt>
      <trkpt lat="48.778369" lon="7.252055">
        <ele>336.0</ele>
        <time>2020-07-11T06:28:05Z</time>
      </trkpt>
      <trkpt lat="48.778312" lon="7.252017">
        <ele>335.0</ele>
        <time>2020-07-11T06:28:07Z</time>
      </trkpt>
      <trkpt lat="48.778254" lon="7.251978">
        <ele>335.0</ele>
        <time>2020-07-11T06:28:09Z</time>
      </trkpt>
      <trkpt lat="48.778197" lon="7.25194">
        <ele>336.0</ele>
        <time>2020-07-11T06:28:11Z</time>
      </trkpt>
      <trkpt lat="48.778138" lon="7.251908">
        <ele>336.0</ele>
        <time>2020-07-11T06:28:13Z</time>
      </trkpt>
      <trkpt lat="48.778083" lon="7.251874">
        <ele>336.0</ele>
        <time>2020-07-11T06:28:15Z</time>
      </trkpt>
      <trkpt lat="48.778028" lon="7.251834">
        <ele>336.0</ele>
        <time>2020-07-11T06:28:17Z</time>
      </trkpt>
      <trkpt lat="48.777971" lon="7.251788">
        <ele>336.0</ele>
        <time>2020-07-11T06:28:19Z</time>
      </trkpt>
      <trkpt lat="48.777913" lon="7.251752">
        <ele>336.0</ele>
        <time>2020-07-11T06:28:21Z</time>
      </trkpt>
      <trkpt lat="48.777852" lon="7.251713">
        <ele>337.0</ele>
        <time>2020-07-11T06:28:23Z</time>
      </trkpt>
      <trkpt lat="48.777794" lon="7.251678">
        <ele>338.0</ele>
        <time>2020-07-11T06:28:25Z</time>
      </trkpt>
      <trkpt lat="48.77774" lon="7.251637">
        <ele>337.0</ele>
        <time>2020-07-11T06:28:27Z</time>
      </trkpt>
      <trkpt lat="48.777688" lon="7.251597">
        <ele>337.0</ele>
        <time>2020-07-11T06:28:29Z</time>
      </trkpt>
      <trkpt lat="48.777632" lon="7.251559">
        <ele>338.0</ele>
        <time>2020-07-11T06:28:31Z</time>
      </trkpt>
      <trkpt lat="48.777579" lon="7.25153">
        <ele>338.0</ele>
        <time>2020-07-11T06:28:33Z</time>
      </trkpt>
      <trkpt lat="48.777528" lon="7.251491">
        <ele>338.0</ele>
        <time>2020-07-11T06:28:35Z</time>
      </trkpt>
      <trkpt lat="48.777481" lon="7.251452">
        <ele>338.0</ele>
        <time>2020-07-11T06:28:37Z</time>
      </trkpt>
      <trkpt lat="48.777437" lon="7.251416">
        <ele>339.0</ele>
        <time>2020-07-11T06:28:39Z</time>
      </trkpt>
      <trkpt lat="48.777393" lon="7.25138">
        <ele>340.0</ele>
        <time>2020-07-11T06:28:41Z</time>
      </trkpt>
      <trkpt lat="48.777347" lon="7.251344">
        <ele>340.0</ele>
        <time>2020-07-11T06:28:43Z</time>
      </trkpt>
      <trkpt lat="48.777296" lon="7.251308">
        <ele>341.0</ele>
        <time>2020-07-11T06:28:45Z</time>
      </trkpt>
      <trkpt lat="48.777254" lon="7.25126">
        <ele>341.0</ele>
        <time>2020-07-11T06:28:47Z</time>
      </trkpt>
      <trkpt lat="48.777212" lon="7.251216">
        <ele>342.0</ele>
        <time>2020-07-11T06:28:49Z</time>
      </trkpt>
      <trkpt lat="48.777166" lon="7.251186">
        <ele>342.0</ele>
        <time>2020-07-11T06:28:51Z</time>
      </trkpt>
      <trkpt lat="48.777125" lon="7.251146">
        <ele>343.0</ele>
        <time>2020-07-11T06:28:53Z</time>
      </trkpt>
      <trkpt lat="48.777091" lon="7.251105">
        <ele>343.0</ele>
        <time>2020-07-11T06:28:55Z</time>
      </trkpt>
      <trkpt lat="48.777055" lon="7.251062">
        <ele>343.0</ele>
        <time>2020-07-11T06:28:57Z</time>
      </trkpt>
      <trkpt lat="48.777021" lon="7.251031">
        <ele>343.0</ele>
        <time>2020-07-11T06:28:59Z</time>
      </trkpt>
      <trkpt lat="48.776986" lon="7.250994">
        <ele>344.0</ele>
        <time>2020-07-11T06:29:01Z</time>
      </trkpt>
      <trkpt lat="48.776953" lon="7.25095">
        <ele>344.0</ele>
        <time>2020-07-11T06:29:03Z</time>
      </trkpt>
      <trkpt lat="48.776923" lon="7.250902">
        <ele>344.0</ele>
        <time>2020-07-11T06:29:05Z</time>
      </trkpt>
      <trkpt lat="48.776894" lon="7.250861">
        <ele>346.0</ele>
        <time>2020-07-11T06:29:07Z</time>
      </trkpt>
      <trkpt lat="48.776863" lon="7.250818">
        <ele>346.0</ele>
        <time>2020-07-11T06:29:09Z</time>
      </trkpt>
      <trkpt lat="48.776831" lon="7.250774">
        <ele>346.0</ele>
        <time>2020-07-11T06:29:11Z</time>
      </trkpt>
      <trkpt lat="48.776801" lon="7.250732">
        <ele>346.0</ele>
        <time>2020-07-11T06:29:13Z</time>
      </trkpt>
      <trkpt lat="48.776773" lon="7.250691">
        <ele>346.0</ele>
        <time>2020-07-11T06:29:15Z</time>
      </trkpt>
      <trkpt lat="48.776742" lon="7.25065">
        <ele>347.0</ele>
        <time>2020-07-11T06:29:17Z</time>
      </trkpt>
      <trkpt lat="48.776718" lon="7.250616">
        <ele>347.0</ele>
        <time>2020-07-11T06:29:19Z</time>
      </trkpt>
      <trkpt lat="48.776693" lon="7.250568">
        <ele>347.0</ele>
        <time>2020-07-11T06:29:21Z</time>
      </trkpt>
      <trkpt lat="48.776666" lon="7.250519">
        <ele>346.0</ele>
        <time>2020-07-11T06:29:23Z</time>
      </trkpt>
      <trkpt lat="48.776641" lon="7.250472">
        <ele>346.0</ele>
        <time>2020-07-11T06:29:25Z</time>
      </trkpt>
      <trkpt lat="48.776618" lon="7.250432">
        <ele>346.0</ele>
        <time>2020-07-11T06:29:27Z</time>
      </trkpt>
      <trkpt lat="48.776592" lon="7.250378">
        <ele>347.0</ele>
        <time>2020-07-11T06:29:29Z</time>
      </trkpt>
      <trkpt lat="48.776568" lon="7.250332">
        <ele>348.0</ele>
        <time>2020-07-11T06:29:31Z</time>
      </trkpt>
      <trkpt lat="48.776544" lon="7.250286">
        <ele>348.0</ele>
        <time>2020-07-11T06:29:33Z</time>
      </trkpt>
      <trkpt lat="48.776509" lon="7.250216">
        <ele>350.0</ele>
        <time>2020-07-11T06:29:36Z</time>
      </trkpt>
      <trkpt lat="48.77648" lon="7.250175">
        <ele>351.0</ele>
        <time>2020-07-11T06:29:38Z</time>
      </trkpt>
      <trkpt lat="48.776455" lon="7.250117">
        <ele>351.0</ele>
        <time>2020-07-11T06:29:40Z</time>
      </trkpt>
      <trkpt lat="48.77643" lon="7.250062">
        <ele>351.0</ele>
        <time>2020-07-11T06:29:42Z</time>
      </trkpt>
      <trkpt lat="48.776402" lon="7.250005">
        <ele>351.0</ele>
        <time>2020-07-11T06:29:44Z</time>
      </trkpt>
      <trkpt lat="48.776382" lon="7.249961">
        <ele>351.0</ele>
        <time>2020-07-11T06:29:46Z</time>
      </trkpt>
      <trkpt lat="48.776364" lon="7.249913">
        <ele>351.0</ele>
        <time>2020-07-11T06:29:48Z</time>
      </trkpt>
      <trkpt lat="48.776346" lon="7.249864">
        <ele>351.0</ele>
        <time>2020-07-11T06:29:50Z</time>
      </trkpt>
      <trkpt lat="48.776334" lon="7.249835">
        <ele>351.0</ele>
        <time>2020-07-11T06:29:51Z</time>
      </trkpt>
      <trkpt lat="48.776303" lon="7.249747">
        <ele>351.0</ele>
        <time>2020-07-11T06:29:54Z</time>
      </trkpt>
      <trkpt lat="48.776285" lon="7.249687">
        <ele>351.0</ele>
        <time>2020-07-11T06:29:56Z</time>
      </trkpt>
      <trkpt lat="48.776268" lon="7.249634">
        <ele>351.0</ele>
        <time>2020-07-11T06:29:58Z</time>
      </trkpt>
      <trkpt lat="48.776245" lon="7.249575">
        <ele>352.0</ele>
        <time>2020-07-11T06:30:00Z</time>
      </trkpt>
      <trkpt lat="48.776218" lon="7.24952">
        <ele>351.0</ele>
        <time>2020-07-11T06:30:02Z</time>
      </trkpt>
      <trkpt lat="48.776201" lon="7.249477">
        <ele>353.0</ele>
        <time>2020-07-11T06:30:04Z</time>
      </trkpt>
      <trkpt lat="48.776191" lon="7.249458">
        <ele>353.0</ele>
        <time>2020-07-11T06:30:06Z</time>
      </trkpt>
      <trkpt lat="48.776153" lon="7.249433">
        <ele>353.0</ele>
        <time>2020-07-11T06:30:08Z</time>
      </trkpt>
      <trkpt lat="48.776093" lon="7.249441">
        <ele>353.0</ele>
        <time>2020-07-11T06:30:10Z</time>
      </trkpt>
      <trkpt lat="48.776027" lon="7.249484">
        <ele>353.0</ele>
        <time>2020-07-11T06:30:12Z</time>
      </trkpt>
      <trkpt lat="48.775964" lon="7.249527">
        <ele>352.0</ele>
        <time>2020-07-11T06:30:14Z</time>
      </trkpt>
      <trkpt lat="48.775894" lon="7.24959">
        <ele>353.0</ele>
        <time>2020-07-11T06:30:16Z</time>
      </trkpt>
      <trkpt lat="48.775822" lon="7.249663">
        <ele>353.0</ele>
        <time>2020-07-11T06:30:18Z</time>
      </trkpt>
      <trkpt lat="48.775736" lon="7.249718">
        <ele>353.0</ele>
        <time>2020-07-11T06:30:20Z</time>
      </trkpt>
      <trkpt lat="48.775648" lon="7.249757">
        <ele>352.0</ele>
        <time>2020-07-11T06:30:22Z</time>
      </trkpt>
      <trkpt lat="48.775565" lon="7.249809">
        <ele>353.0</ele>
        <time>2020-07-11T06:30:24Z</time>
      </trkpt>
      <trkpt lat="48.775487" lon="7.249886">
        <ele>352.0</ele>
        <time>2020-07-11T06:30:26Z</time>
      </trkpt>
      <trkpt lat="48.77541" lon="7.249959">
        <ele>351.0</ele>
        <time>2020-07-11T06:30:28Z</time>
      </trkpt>
      <trkpt lat="48.775331" lon="7.25003">
        <ele>352.0</ele>
        <time>2020-07-11T06:30:30Z</time>
      </trkpt>
      <trkpt lat="48.775255" lon="7.25011">
        <ele>352.0</ele>
        <time>2020-07-11T06:30:32Z</time>
      </trkpt>
      <trkpt lat="48.775178" lon="7.250175">
        <ele>353.0</ele>
        <time>2020-07-11T06:30:34Z</time>
      </trkpt>
      <trkpt lat="48.775097" lon="7.250253">
        <ele>353.0</ele>
        <time>2020-07-11T06:30:36Z</time>
      </trkpt>
      <trkpt lat="48.775019" lon="7.250328">
        <ele>353.0</ele>
        <time>2020-07-11T06:30:38Z</time>
      </trkpt>
      <trkpt lat="48.774941" lon="7.250398">
        <ele>353.0</ele>
        <time>2020-07-11T06:30:40Z</time>
      </trkpt>
      <trkpt lat="48.774863" lon="7.250472">
        <ele>355.0</ele>
        <time>2020-07-11T06:30:42Z</time>
      </trkpt>
      <trkpt lat="48.774796" lon="7.250533">
        <ele>355.0</ele>
        <time>2020-07-11T06:30:44Z</time>
      </trkpt>
      <trkpt lat="48.774737" lon="7.250593">
        <ele>354.0</ele>
        <time>2020-07-11T06:30:46Z</time>
      </trkpt>
      <trkpt lat="48.774674" lon="7.250641">
        <ele>354.0</ele>
        <time>2020-07-11T06:30:48Z</time>
      </trkpt>
      <trkpt lat="48.774614" lon="7.250686">
        <ele>355.0</ele>
        <time>2020-07-11T06:30:50Z</time>
      </trkpt>
      <trkpt lat="48.774557" lon="7.250738">
        <ele>355.0</ele>
        <time>2020-07-11T06:30:52Z</time>
      </trkpt>
      <trkpt lat="48.774502" lon="7.250795">
        <ele>355.0</ele>
        <time>2020-07-11T06:30:54Z</time>
      </trkpt>
      <trkpt lat="48.774448" lon="7.250834">
        <ele>355.0</ele>
        <time>2020-07-11T06:30:56Z</time>
      </trkpt>
      <trkpt lat="48.774399" lon="7.250882">
        <ele>355.0</ele>
        <time>2020-07-11T06:30:58Z</time>
      </trkpt>
      <trkpt lat="48.774346" lon="7.250925">
        <ele>355.0</ele>
        <time>2020-07-11T06:31:00Z</time>
      </trkpt>
      <trkpt lat="48.774288" lon="7.250969">
        <ele>355.0</ele>
        <time>2020-07-11T06:31:02Z</time>
      </trkpt>
      <trkpt lat="48.774233" lon="7.251">
        <ele>355.0</ele>
        <time>2020-07-11T06:31:04Z</time>
      </trkpt>
      <trkpt lat="48.774179" lon="7.251039">
        <ele>355.0</ele>
        <time>2020-07-11T06:31:06Z</time>
      </trkpt>
      <trkpt lat="48.774125" lon="7.251076">
        <ele>355.0</ele>
        <time>2020-07-11T06:31:08Z</time>
      </trkpt>
      <trkpt lat="48.774073" lon="7.251115">
        <ele>356.0</ele>
        <time>2020-07-11T06:31:10Z</time>
      </trkpt>
      <trkpt lat="48.774023" lon="7.251157">
        <ele>356.0</ele>
        <time>2020-07-11T06:31:12Z</time>
      </trkpt>
      <trkpt lat="48.773974" lon="7.251193">
        <ele>356.0</ele>
        <time>2020-07-11T06:31:14Z</time>
      </trkpt>
      <trkpt lat="48.773927" lon="7.251235">
        <ele>356.0</ele>
        <time>2020-07-11T06:31:16Z</time>
      </trkpt>
      <trkpt lat="48.773878" lon="7.251275">
        <ele>356.0</ele>
        <time>2020-07-11T06:31:18Z</time>
      </trkpt>
      <trkpt lat="48.773824" lon="7.251313">
        <ele>356.0</ele>
        <time>2020-07-11T06:31:20Z</time>
      </trkpt>
      <trkpt lat="48.773774" lon="7.251349">
        <ele>357.0</ele>
        <time>2020-07-11T06:31:22Z</time>
      </trkpt>
      <trkpt lat="48.773728" lon="7.251385">
        <ele>358.0</ele>
        <time>2020-07-11T06:31:24Z</time>
      </trkpt>
      <trkpt lat="48.773681" lon="7.251423">
        <ele>357.0</ele>
        <time>2020-07-11T06:31:26Z</time>
      </trkpt>
      <trkpt lat="48.773632" lon="7.251455">
        <ele>358.0</ele>
        <time>2020-07-11T06:31:28Z</time>
      </trkpt>
      <trkpt lat="48.773586" lon="7.251497">
        <ele>358.0</ele>
        <time>2020-07-11T06:31:30Z</time>
      </trkpt>
      <trkpt lat="48.77354" lon="7.251539">
        <ele>358.0</ele>
        <time>2020-07-11T06:31:32Z</time>
      </trkpt>
      <trkpt lat="48.773495" lon="7.251573">
        <ele>359.0</ele>
        <time>2020-07-11T06:31:34Z</time>
      </trkpt>
      <trkpt lat="48.773447" lon="7.251583">
        <ele>359.0</ele>
        <time>2020-07-11T06:31:36Z</time>
      </trkpt>
      <trkpt lat="48.773398" lon="7.251584">
        <ele>360.0</ele>
        <time>2020-07-11T06:31:38Z</time>
      </trkpt>
      <trkpt lat="48.773351" lon="7.251583">
        <ele>361.0</ele>
        <time>2020-07-11T06:31:40Z</time>
      </trkpt>
      <trkpt lat="48.773298" lon="7.251606">
        <ele>361.0</ele>
        <time>2020-07-11T06:31:42Z</time>
      </trkpt>
      <trkpt lat="48.773247" lon="7.251663">
        <ele>362.0</ele>
        <time>2020-07-11T06:31:44Z</time>
      </trkpt>
      <trkpt lat="48.773211" lon="7.251732">
        <ele>362.0</ele>
        <time>2020-07-11T06:31:46Z</time>
      </trkpt>
      <trkpt lat="48.773187" lon="7.251802">
        <ele>362.0</ele>
        <time>2020-07-11T06:31:48Z</time>
      </trkpt>
      <trkpt lat="48.773155" lon="7.251856">
        <ele>362.0</ele>
        <time>2020-07-11T06:31:50Z</time>
      </trkpt>
      <trkpt lat="48.773117" lon="7.251905">
        <ele>362.0</ele>
        <time>2020-07-11T06:31:52Z</time>
      </trkpt>
      <trkpt lat="48.773075" lon="7.251942">
        <ele>362.0</ele>
        <time>2020-07-11T06:31:54Z</time>
      </trkpt>
      <trkpt lat="48.773033" lon="7.25198">
        <ele>362.0</ele>
        <time>2020-07-11T06:31:56Z</time>
      </trkpt>
      <trkpt lat="48.772989" lon="7.252021">
        <ele>363.0</ele>
        <time>2020-07-11T06:31:58Z</time>
      </trkpt>
      <trkpt lat="48.772939" lon="7.25206">
        <ele>363.0</ele>
        <time>2020-07-11T06:32:00Z</time>
      </trkpt>
      <trkpt lat="48.772889" lon="7.252107">
        <ele>363.0</ele>
        <time>2020-07-11T06:32:02Z</time>
      </trkpt>
      <trkpt lat="48.772842" lon="7.252146">
        <ele>363.0</ele>
        <time>2020-07-11T06:32:04Z</time>
      </trkpt>
      <trkpt lat="48.772799" lon="7.252181">
        <ele>363.0</ele>
        <time>2020-07-11T06:32:06Z</time>
      </trkpt>
      <trkpt lat="48.772755" lon="7.252218">
        <ele>363.0</ele>
        <time>2020-07-11T06:32:08Z</time>
      </trkpt>
      <trkpt lat="48.772707" lon="7.252259">
        <ele>364.0</ele>
        <time>2020-07-11T06:32:10Z</time>
      </trkpt>
      <trkpt lat="48.772665" lon="7.252297">
        <ele>364.0</ele>
        <time>2020-07-11T06:32:12Z</time>
      </trkpt>
      <trkpt lat="48.772619" lon="7.252332">
        <ele>365.0</ele>
        <time>2020-07-11T06:32:14Z</time>
      </trkpt>
      <trkpt lat="48.772577" lon="7.252369">
        <ele>365.0</ele>
        <time>2020-07-11T06:32:16Z</time>
      </trkpt>
      <trkpt lat="48.772531" lon="7.252413">
        <ele>365.0</ele>
        <time>2020-07-11T06:32:18Z</time>
      </trkpt>
      <trkpt lat="48.772487" lon="7.252453">
        <ele>366.0</ele>
        <time>2020-07-11T06:32:20Z</time>
      </trkpt>
      <trkpt lat="48.772446" lon="7.252495">
        <ele>367.0</ele>
        <time>2020-07-11T06:32:22Z</time>
      </trkpt>
      <trkpt lat="48.772401" lon="7.252528">
        <ele>367.0</ele>
        <time>2020-07-11T06:32:24Z</time>
      </trkpt>
      <trkpt lat="48.772354" lon="7.252565">
        <ele>368.0</ele>
        <time>2020-07-11T06:32:26Z</time>
      </trkpt>
      <trkpt lat="48.772301" lon="7.252609">
        <ele>369.0</ele>
        <time>2020-07-11T06:32:28Z</time>
      </trkpt>
      <trkpt lat="48.772253" lon="7.252646">
        <ele>368.0</ele>
        <time>2020-07-11T06:32:30Z</time>
      </trkpt>
      <trkpt lat="48.772207" lon="7.252685">
        <ele>369.0</ele>
        <time>2020-07-11T06:32:32Z</time>
      </trkpt>
      <trkpt lat="48.772158" lon="7.252721">
        <ele>371.0</ele>
        <time>2020-07-11T06:32:34Z</time>
      </trkpt>
      <trkpt lat="48.772115" lon="7.25276">
        <ele>371.0</ele>
        <time>2020-07-11T06:32:36Z</time>
      </trkpt>
      <trkpt lat="48.772071" lon="7.252799">
        <ele>372.0</ele>
        <time>2020-07-11T06:32:38Z</time>
      </trkpt>
      <trkpt lat="48.771999" lon="7.252855">
        <ele>372.0</ele>
        <time>2020-07-11T06:32:41Z</time>
      </trkpt>
      <trkpt lat="48.771951" lon="7.25289">
        <ele>373.0</ele>
        <time>2020-07-11T06:32:43Z</time>
      </trkpt>
      <trkpt lat="48.771906" lon="7.252926">
        <ele>373.0</ele>
        <time>2020-07-11T06:32:45Z</time>
      </trkpt>
      <trkpt lat="48.77186" lon="7.252965">
        <ele>373.0</ele>
        <time>2020-07-11T06:32:47Z</time>
      </trkpt>
      <trkpt lat="48.771815" lon="7.253007">
        <ele>372.0</ele>
        <time>2020-07-11T06:32:49Z</time>
      </trkpt>
      <trkpt lat="48.771772" lon="7.253049">
        <ele>373.0</ele>
        <time>2020-07-11T06:32:51Z</time>
      </trkpt>
      <trkpt lat="48.771729" lon="7.253091">
        <ele>373.0</ele>
        <time>2020-07-11T06:32:53Z</time>
      </trkpt>
      <trkpt lat="48.771683" lon="7.253132">
        <ele>374.0</ele>
        <time>2020-07-11T06:32:55Z</time>
      </trkpt>
      <trkpt lat="48.771639" lon="7.253167">
        <ele>374.0</ele>
        <time>2020-07-11T06:32:57Z</time>
      </trkpt>
      <trkpt lat="48.771593" lon="7.253203">
        <ele>375.0</ele>
        <time>2020-07-11T06:32:59Z</time>
      </trkpt>
      <trkpt lat="48.771549" lon="7.253246">
        <ele>375.0</ele>
        <time>2020-07-11T06:33:01Z</time>
      </trkpt>
      <trkpt lat="48.771504" lon="7.253285">
        <ele>375.0</ele>
        <time>2020-07-11T06:33:03Z</time>
      </trkpt>
      <trkpt lat="48.771455" lon="7.253322">
        <ele>375.0</ele>
        <time>2020-07-11T06:33:05Z</time>
      </trkpt>
      <trkpt lat="48.771408" lon="7.25336">
        <ele>375.0</ele>
        <time>2020-07-11T06:33:07Z</time>
      </trkpt>
      <trkpt lat="48.771363" lon="7.25341">
        <ele>375.0</ele>
        <time>2020-07-11T06:33:09Z</time>
      </trkpt>
      <trkpt lat="48.771311" lon="7.253449">
        <ele>375.0</ele>
        <time>2020-07-11T06:33:11Z</time>
      </trkpt>
      <trkpt lat="48.771263" lon="7.253492">
        <ele>375.0</ele>
        <time>2020-07-11T06:33:13Z</time>
      </trkpt>
      <trkpt lat="48.771211" lon="7.253533">
        <ele>375.0</ele>
        <time>2020-07-11T06:33:15Z</time>
      </trkpt>
      <trkpt lat="48.771159" lon="7.253575">
        <ele>375.0</ele>
        <time>2020-07-11T06:33:17Z</time>
      </trkpt>
      <trkpt lat="48.771108" lon="7.253619">
        <ele>375.0</ele>
        <time>2020-07-11T06:33:19Z</time>
      </trkpt>
      <trkpt lat="48.771055" lon="7.253664">
        <ele>375.0</ele>
        <time>2020-07-11T06:33:21Z</time>
      </trkpt>
      <trkpt lat="48.771003" lon="7.253706">
        <ele>376.0</ele>
        <time>2020-07-11T06:33:23Z</time>
      </trkpt>
      <trkpt lat="48.770945" lon="7.253752">
        <ele>376.0</ele>
        <time>2020-07-11T06:33:25Z</time>
      </trkpt>
      <trkpt lat="48.770883" lon="7.253797">
        <ele>377.0</ele>
        <time>2020-07-11T06:33:27Z</time>
      </trkpt>
      <trkpt lat="48.770825" lon="7.253848">
        <ele>377.0</ele>
        <time>2020-07-11T06:33:29Z</time>
      </trkpt>
      <trkpt lat="48.770767" lon="7.253898">
        <ele>376.0</ele>
        <time>2020-07-11T06:33:31Z</time>
      </trkpt>
      <trkpt lat="48.770706" lon="7.253941">
        <ele>376.0</ele>
        <time>2020-07-11T06:33:33Z</time>
      </trkpt>
      <trkpt lat="48.770622" lon="7.253966">
        <ele>375.0</ele>
        <time>2020-07-11T06:33:35Z</time>
      </trkpt>
      <trkpt lat="48.77054" lon="7.253985">
        <ele>375.0</ele>
        <time>2020-07-11T06:33:37Z</time>
      </trkpt>
      <trkpt lat="48.770446" lon="7.254004">
        <ele>375.0</ele>
        <time>2020-07-11T06:33:39Z</time>
      </trkpt>
      <trkpt lat="48.770353" lon="7.254004">
        <ele>375.0</ele>
        <time>2020-07-11T06:33:41Z</time>
      </trkpt>
      <trkpt lat="48.770266" lon="7.25399">
        <ele>375.0</ele>
        <time>2020-07-11T06:33:43Z</time>
      </trkpt>
      <trkpt lat="48.770172" lon="7.253951">
        <ele>375.0</ele>
        <time>2020-07-11T06:33:45Z</time>
      </trkpt>
      <trkpt lat="48.770082" lon="7.253907">
        <ele>376.0</ele>
        <time>2020-07-11T06:33:47Z</time>
      </trkpt>
      <trkpt lat="48.76999" lon="7.253853">
        <ele>376.0</ele>
        <time>2020-07-11T06:33:49Z</time>
      </trkpt>
      <trkpt lat="48.769894" lon="7.253788">
        <ele>375.0</ele>
        <time>2020-07-11T06:33:51Z</time>
      </trkpt>
      <trkpt lat="48.769794" lon="7.253724">
        <ele>376.0</ele>
        <time>2020-07-11T06:33:53Z</time>
      </trkpt>
      <trkpt lat="48.769689" lon="7.253658">
        <ele>375.0</ele>
        <time>2020-07-11T06:33:55Z</time>
      </trkpt>
      <trkpt lat="48.769582" lon="7.253593">
        <ele>375.0</ele>
        <time>2020-07-11T06:33:57Z</time>
      </trkpt>
      <trkpt lat="48.76948" lon="7.253529">
        <ele>374.0</ele>
        <time>2020-07-11T06:33:59Z</time>
      </trkpt>
      <trkpt lat="48.769383" lon="7.253472">
        <ele>374.0</ele>
        <time>2020-07-11T06:34:01Z</time>
      </trkpt>
      <trkpt lat="48.769289" lon="7.25342">
        <ele>373.0</ele>
        <time>2020-07-11T06:34:03Z</time>
      </trkpt>
      <trkpt lat="48.769193" lon="7.25337">
        <ele>373.0</ele>
        <time>2020-07-11T06:34:05Z</time>
      </trkpt>
      <trkpt lat="48.769105" lon="7.253323">
        <ele>373.0</ele>
        <time>2020-07-11T06:34:07Z</time>
      </trkpt>
      <trkpt lat="48.769024" lon="7.253283">
        <ele>373.0</ele>
        <time>2020-07-11T06:34:09Z</time>
      </trkpt>
      <trkpt lat="48.768934" lon="7.253251">
        <ele>372.0</ele>
        <time>2020-07-11T06:34:11Z</time>
      </trkpt>
      <trkpt lat="48.768839" lon="7.253238">
        <ele>373.0</ele>
        <time>2020-07-11T06:34:13Z</time>
      </trkpt>
      <trkpt lat="48.768745" lon="7.253241">
        <ele>372.0</ele>
        <time>2020-07-11T06:34:15Z</time>
      </trkpt>
      <trkpt lat="48.768643" lon="7.253254">
        <ele>372.0</ele>
        <time>2020-07-11T06:34:17Z</time>
      </trkpt>
      <trkpt lat="48.768535" lon="7.253285">
        <ele>372.0</ele>
        <time>2020-07-11T06:34:19Z</time>
      </trkpt>
      <trkpt lat="48.768428" lon="7.253314">
        <ele>373.0</ele>
        <time>2020-07-11T06:34:21Z</time>
      </trkpt>
      <trkpt lat="48.768324" lon="7.25334">
        <ele>372.0</ele>
        <time>2020-07-11T06:34:23Z</time>
      </trkpt>
      <trkpt lat="48.768223" lon="7.253376">
        <ele>371.0</ele>
        <time>2020-07-11T06:34:25Z</time>
      </trkpt>
      <trkpt lat="48.768122" lon="7.253411">
        <ele>371.0</ele>
        <time>2020-07-11T06:34:27Z</time>
      </trkpt>
      <trkpt lat="48.76802" lon="7.25344">
        <ele>371.0</ele>
        <time>2020-07-11T06:34:29Z</time>
      </trkpt>
      <trkpt lat="48.767928" lon="7.253484">
        <ele>371.0</ele>
        <time>2020-07-11T06:34:31Z</time>
      </trkpt>
      <trkpt lat="48.767844" lon="7.253498">
        <ele>371.0</ele>
        <time>2020-07-11T06:34:33Z</time>
      </trkpt>
      <trkpt lat="48.767768" lon="7.253452">
        <ele>371.0</ele>
        <time>2020-07-11T06:34:35Z</time>
      </trkpt>
      <trkpt lat="48.767728" lon="7.253294">
        <ele>370.0</ele>
        <time>2020-07-11T06:34:37Z</time>
      </trkpt>
      <trkpt lat="48.767709" lon="7.253131">
        <ele>370.0</ele>
        <time>2020-07-11T06:34:39Z</time>
      </trkpt>
      <trkpt lat="48.767699" lon="7.252995">
        <ele>370.0</ele>
        <time>2020-07-11T06:34:41Z</time>
      </trkpt>
      <trkpt lat="48.767683" lon="7.252886">
        <ele>370.0</ele>
        <time>2020-07-11T06:34:43Z</time>
      </trkpt>
      <trkpt lat="48.767666" lon="7.252795">
        <ele>371.0</ele>
        <time>2020-07-11T06:34:45Z</time>
      </trkpt>
      <trkpt lat="48.76765" lon="7.252701">
        <ele>370.0</ele>
        <time>2020-07-11T06:34:47Z</time>
      </trkpt>
      <trkpt lat="48.76763" lon="7.252596">
        <ele>371.0</ele>
        <time>2020-07-11T06:34:49Z</time>
      </trkpt>
      <trkpt lat="48.767579" lon="7.252441">
        <ele>370.0</ele>
        <time>2020-07-11T06:34:51Z</time>
      </trkpt>
      <trkpt lat="48.767503" lon="7.252316">
        <ele>369.0</ele>
        <time>2020-07-11T06:34:53Z</time>
      </trkpt>
      <trkpt lat="48.767397" lon="7.252244">
        <ele>369.0</ele>
        <time>2020-07-11T06:34:55Z</time>
      </trkpt>
      <trkpt lat="48.767274" lon="7.252176">
        <ele>368.0</ele>
        <time>2020-07-11T06:34:57Z</time>
      </trkpt>
      <trkpt lat="48.767158" lon="7.252098">
        <ele>367.0</ele>
        <time>2020-07-11T06:34:59Z</time>
      </trkpt>
      <trkpt lat="48.767039" lon="7.252019">
        <ele>367.0</ele>
        <time>2020-07-11T06:35:01Z</time>
      </trkpt>
      <trkpt lat="48.76691" lon="7.251935">
        <ele>366.0</ele>
        <time>2020-07-11T06:35:03Z</time>
      </trkpt>
      <trkpt lat="48.766778" lon="7.251846">
        <ele>365.0</ele>
        <time>2020-07-11T06:35:05Z</time>
      </trkpt>
      <trkpt lat="48.766648" lon="7.251734">
        <ele>364.0</ele>
        <time>2020-07-11T06:35:07Z</time>
      </trkpt>
      <trkpt lat="48.766515" lon="7.251631">
        <ele>363.0</ele>
        <time>2020-07-11T06:35:09Z</time>
      </trkpt>
      <trkpt lat="48.766377" lon="7.251539">
        <ele>363.0</ele>
        <time>2020-07-11T06:35:11Z</time>
      </trkpt>
      <trkpt lat="48.766241" lon="7.251432">
        <ele>362.0</ele>
        <time>2020-07-11T06:35:13Z</time>
      </trkpt>
      <trkpt lat="48.7661" lon="7.251329">
        <ele>362.0</ele>
        <time>2020-07-11T06:35:15Z</time>
      </trkpt>
      <trkpt lat="48.76597" lon="7.25122">
        <ele>361.0</ele>
        <time>2020-07-11T06:35:17Z</time>
      </trkpt>
      <trkpt lat="48.765826" lon="7.251112">
        <ele>360.0</ele>
        <time>2020-07-11T06:35:19Z</time>
      </trkpt>
      <trkpt lat="48.765678" lon="7.251006">
        <ele>359.0</ele>
        <time>2020-07-11T06:35:21Z</time>
      </trkpt>
      <trkpt lat="48.765531" lon="7.250908">
        <ele>359.0</ele>
        <time>2020-07-11T06:35:23Z</time>
      </trkpt>
      <trkpt lat="48.765386" lon="7.250796">
        <ele>359.0</ele>
        <time>2020-07-11T06:35:25Z</time>
      </trkpt>
      <trkpt lat="48.76525" lon="7.25069">
        <ele>359.0</ele>
        <time>2020-07-11T06:35:27Z</time>
      </trkpt>
      <trkpt lat="48.765106" lon="7.25059">
        <ele>358.0</ele>
        <time>2020-07-11T06:35:29Z</time>
      </trkpt>
      <trkpt lat="48.764957" lon="7.250488">
        <ele>357.0</ele>
        <time>2020-07-11T06:35:31Z</time>
      </trkpt>
      <trkpt lat="48.764816" lon="7.250389">
        <ele>357.0</ele>
        <time>2020-07-11T06:35:33Z</time>
      </trkpt>
      <trkpt lat="48.764678" lon="7.250286">
        <ele>357.0</ele>
        <time>2020-07-11T06:35:35Z</time>
      </trkpt>
      <trkpt lat="48.764533" lon="7.250178">
        <ele>356.0</ele>
        <time>2020-07-11T06:35:37Z</time>
      </trkpt>
      <trkpt lat="48.764391" lon="7.250075">
        <ele>356.0</ele>
        <time>2020-07-11T06:35:39Z</time>
      </trkpt>
      <trkpt lat="48.76424" lon="7.249962">
        <ele>356.0</ele>
        <time>2020-07-11T06:35:41Z</time>
      </trkpt>
      <trkpt lat="48.764092" lon="7.249852">
        <ele>355.0</ele>
        <time>2020-07-11T06:35:43Z</time>
      </trkpt>
      <trkpt lat="48.763941" lon="7.249739">
        <ele>355.0</ele>
        <time>2020-07-11T06:35:45Z</time>
      </trkpt>
      <trkpt lat="48.763705" lon="7.249564">
        <ele>354.0</ele>
        <time>2020-07-11T06:35:48Z</time>
      </trkpt>
      <trkpt lat="48.763551" lon="7.249461">
        <ele>353.0</ele>
        <time>2020-07-11T06:35:50Z</time>
      </trkpt>
      <trkpt lat="48.7634" lon="7.249363">
        <ele>353.0</ele>
        <time>2020-07-11T06:35:52Z</time>
      </trkpt>
      <trkpt lat="48.763247" lon="7.249257">
        <ele>352.0</ele>
        <time>2020-07-11T06:35:54Z</time>
      </trkpt>
      <trkpt lat="48.763093" lon="7.249151">
        <ele>351.0</ele>
        <time>2020-07-11T06:35:56Z</time>
      </trkpt>
      <trkpt lat="48.762936" lon="7.249037">
        <ele>350.0</ele>
        <time>2020-07-11T06:35:58Z</time>
      </trkpt>
      <trkpt lat="48.762776" lon="7.248928">
        <ele>350.0</ele>
        <time>2020-07-11T06:36:00Z</time>
      </trkpt>
      <trkpt lat="48.762624" lon="7.248817">
        <ele>349.0</ele>
        <time>2020-07-11T06:36:02Z</time>
      </trkpt>
      <trkpt lat="48.762471" lon="7.248703">
        <ele>348.0</ele>
        <time>2020-07-11T06:36:04Z</time>
      </trkpt>
      <trkpt lat="48.762315" lon="7.248584">
        <ele>348.0</ele>
        <time>2020-07-11T06:36:06Z</time>
      </trkpt>
      <trkpt lat="48.76216" lon="7.248465">
        <ele>347.0</ele>
        <time>2020-07-11T06:36:08Z</time>
      </trkpt>
      <trkpt lat="48.762007" lon="7.24834">
        <ele>347.0</ele>
        <time>2020-07-11T06:36:10Z</time>
      </trkpt>
      <trkpt lat="48.761854" lon="7.248226">
        <ele>346.0</ele>
        <time>2020-07-11T06:36:12Z</time>
      </trkpt>
      <trkpt lat="48.761695" lon="7.248109">
        <ele>345.0</ele>
        <time>2020-07-11T06:36:14Z</time>
      </trkpt>
      <trkpt lat="48.761544" lon="7.247998">
        <ele>345.0</ele>
        <time>2020-07-11T06:36:16Z</time>
      </trkpt>
      <trkpt lat="48.761381" lon="7.247881">
        <ele>344.0</ele>
        <time>2020-07-11T06:36:18Z</time>
      </trkpt>
      <trkpt lat="48.761224" lon="7.247764">
        <ele>344.0</ele>
        <time>2020-07-11T06:36:20Z</time>
      </trkpt>
      <trkpt lat="48.761065" lon="7.247658">
        <ele>343.0</ele>
        <time>2020-07-11T06:36:22Z</time>
      </trkpt>
      <trkpt lat="48.760906" lon="7.247564">
        <ele>343.0</ele>
        <time>2020-07-11T06:36:24Z</time>
      </trkpt>
      <trkpt lat="48.760758" lon="7.247444">
        <ele>343.0</ele>
        <time>2020-07-11T06:36:26Z</time>
      </trkpt>
      <trkpt lat="48.760609" lon="7.247315">
        <ele>342.0</ele>
        <time>2020-07-11T06:36:28Z</time>
      </trkpt>
      <trkpt lat="48.760459" lon="7.247194">
        <ele>341.0</ele>
        <time>2020-07-11T06:36:30Z</time>
      </trkpt>
      <trkpt lat="48.760311" lon="7.247079">
        <ele>341.0</ele>
        <time>2020-07-11T06:36:32Z</time>
      </trkpt>
      <trkpt lat="48.76016" lon="7.246954">
        <ele>340.0</ele>
        <time>2020-07-11T06:36:34Z</time>
      </trkpt>
      <trkpt lat="48.760012" lon="7.246838">
        <ele>340.0</ele>
        <time>2020-07-11T06:36:36Z</time>
      </trkpt>
      <trkpt lat="48.759866" lon="7.246723">
        <ele>339.0</ele>
        <time>2020-07-11T06:36:38Z</time>
      </trkpt>
      <trkpt lat="48.759723" lon="7.246602">
        <ele>338.0</ele>
        <time>2020-07-11T06:36:40Z</time>
      </trkpt>
      <trkpt lat="48.759577" lon="7.246478">
        <ele>337.0</ele>
        <time>2020-07-11T06:36:42Z</time>
      </trkpt>
      <trkpt lat="48.759438" lon="7.24635">
        <ele>337.0</ele>
        <time>2020-07-11T06:36:44Z</time>
      </trkpt>
      <trkpt lat="48.759293" lon="7.246229">
        <ele>337.0</ele>
        <time>2020-07-11T06:36:46Z</time>
      </trkpt>
      <trkpt lat="48.759144" lon="7.246111">
        <ele>336.0</ele>
        <time>2020-07-11T06:36:48Z</time>
      </trkpt>
      <trkpt lat="48.758998" lon="7.245992">
        <ele>335.0</ele>
        <time>2020-07-11T06:36:50Z</time>
      </trkpt>
      <trkpt lat="48.75885" lon="7.245882">
        <ele>334.0</ele>
        <time>2020-07-11T06:36:52Z</time>
      </trkpt>
      <trkpt lat="48.7587" lon="7.24576">
        <ele>333.0</ele>
        <time>2020-07-11T06:36:54Z</time>
      </trkpt>
      <trkpt lat="48.758545" lon="7.245647">
        <ele>333.0</ele>
        <time>2020-07-11T06:36:56Z</time>
      </trkpt>
      <trkpt lat="48.758387" lon="7.245535">
        <ele>333.0</ele>
        <time>2020-07-11T06:36:58Z</time>
      </trkpt>
      <trkpt lat="48.758229" lon="7.245435">
        <ele>332.0</ele>
        <time>2020-07-11T06:37:00Z</time>
      </trkpt>
      <trkpt lat="48.758065" lon="7.245332">
        <ele>330.0</ele>
        <time>2020-07-11T06:37:02Z</time>
      </trkpt>
      <trkpt lat="48.757905" lon="7.245238">
        <ele>330.0</ele>
        <time>2020-07-11T06:37:04Z</time>
      </trkpt>
      <trkpt lat="48.757741" lon="7.245143">
        <ele>329.0</ele>
        <time>2020-07-11T06:37:06Z</time>
      </trkpt>
      <trkpt lat="48.757582" lon="7.245044">
        <ele>328.0</ele>
        <time>2020-07-11T06:37:08Z</time>
      </trkpt>
      <trkpt lat="48.757431" lon="7.244954">
        <ele>327.0</ele>
        <time>2020-07-11T06:37:10Z</time>
      </trkpt>
      <trkpt lat="48.757275" lon="7.244875">
        <ele>326.0</ele>
        <time>2020-07-11T06:37:12Z</time>
      </trkpt>
      <trkpt lat="48.757119" lon="7.244808">
        <ele>326.0</ele>
        <time>2020-07-11T06:37:14Z</time>
      </trkpt>
      <trkpt lat="48.756962" lon="7.244744">
        <ele>325.0</ele>
        <time>2020-07-11T06:37:16Z</time>
      </trkpt>
      <trkpt lat="48.756808" lon="7.244676">
        <ele>325.0</ele>
        <time>2020-07-11T06:37:18Z</time>
      </trkpt>
      <trkpt lat="48.756661" lon="7.244615">
        <ele>325.0</ele>
        <time>2020-07-11T06:37:20Z</time>
      </trkpt>
      <trkpt lat="48.756513" lon="7.244546">
        <ele>325.0</ele>
        <time>2020-07-11T06:37:22Z</time>
      </trkpt>
      <trkpt lat="48.756362" lon="7.244463">
        <ele>325.0</ele>
        <time>2020-07-11T06:37:24Z</time>
      </trkpt>
      <trkpt lat="48.756216" lon="7.244353">
        <ele>325.0</ele>
        <time>2020-07-11T06:37:26Z</time>
      </trkpt>
      <trkpt lat="48.756077" lon="7.244231">
        <ele>324.0</ele>
        <time>2020-07-11T06:37:28Z</time>
      </trkpt>
      <trkpt lat="48.755951" lon="7.244107">
        <ele>323.0</ele>
        <time>2020-07-11T06:37:30Z</time>
      </trkpt>
      <trkpt lat="48.755828" lon="7.243973">
        <ele>323.0</ele>
        <time>2020-07-11T06:37:32Z</time>
      </trkpt>
      <trkpt lat="48.755703" lon="7.243844">
        <ele>322.0</ele>
        <time>2020-07-11T06:37:34Z</time>
      </trkpt>
      <trkpt lat="48.755577" lon="7.243726">
        <ele>322.0</ele>
        <time>2020-07-11T06:37:36Z</time>
      </trkpt>
      <trkpt lat="48.755454" lon="7.243599">
        <ele>321.0</ele>
        <time>2020-07-11T06:37:38Z</time>
      </trkpt>
      <trkpt lat="48.755323" lon="7.24346">
        <ele>321.0</ele>
        <time>2020-07-11T06:37:40Z</time>
      </trkpt>
      <trkpt lat="48.755203" lon="7.243316">
        <ele>320.0</ele>
        <time>2020-07-11T06:37:42Z</time>
      </trkpt>
      <trkpt lat="48.755085" lon="7.243184">
        <ele>319.0</ele>
        <time>2020-07-11T06:37:44Z</time>
      </trkpt>
      <trkpt lat="48.754971" lon="7.243057">
        <ele>319.0</ele>
        <time>2020-07-11T06:37:46Z</time>
      </trkpt>
      <trkpt lat="48.75485" lon="7.242916">
        <ele>318.0</ele>
        <time>2020-07-11T06:37:48Z</time>
      </trkpt>
      <trkpt lat="48.754738" lon="7.242776">
        <ele>318.0</ele>
        <time>2020-07-11T06:37:50Z</time>
      </trkpt>
      <trkpt lat="48.754627" lon="7.242622">
        <ele>318.0</ele>
        <time>2020-07-11T06:37:52Z</time>
      </trkpt>
      <trkpt lat="48.754509" lon="7.242457">
        <ele>317.0</ele>
        <time>2020-07-11T06:37:54Z</time>
      </trkpt>
      <trkpt lat="48.754393" lon="7.24229">
        <ele>316.0</ele>
        <time>2020-07-11T06:37:56Z</time>
      </trkpt>
      <trkpt lat="48.754281" lon="7.24213">
        <ele>315.0</ele>
        <time>2020-07-11T06:37:58Z</time>
      </trkpt>
      <trkpt lat="48.754169" lon="7.241972">
        <ele>316.0</ele>
        <time>2020-07-11T06:38:00Z</time>
      </trkpt>
      <trkpt lat="48.75405" lon="7.241812">
        <ele>317.0</ele>
        <time>2020-07-11T06:38:02Z</time>
      </trkpt>
      <trkpt lat="48.753925" lon="7.24165">
        <ele>316.0</ele>
        <time>2020-07-11T06:38:04Z</time>
      </trkpt>
      <trkpt lat="48.753807" lon="7.241503">
        <ele>316.0</ele>
        <time>2020-07-11T06:38:06Z</time>
      </trkpt>
      <trkpt lat="48.753689" lon="7.241345">
        <ele>315.0</ele>
        <time>2020-07-11T06:38:08Z</time>
      </trkpt>
      <trkpt lat="48.753574" lon="7.241196">
        <ele>315.0</ele>
        <time>2020-07-11T06:38:10Z</time>
      </trkpt>
      <trkpt lat="48.753449" lon="7.241063">
        <ele>315.0</ele>
        <time>2020-07-11T06:38:12Z</time>
      </trkpt>
      <trkpt lat="48.753306" lon="7.240938">
        <ele>314.0</ele>
        <time>2020-07-11T06:38:14Z</time>
      </trkpt>
      <trkpt lat="48.75315" lon="7.240849">
        <ele>315.0</ele>
        <time>2020-07-11T06:38:16Z</time>
      </trkpt>
      <trkpt lat="48.752988" lon="7.240818">
        <ele>315.0</ele>
        <time>2020-07-11T06:38:18Z</time>
      </trkpt>
      <trkpt lat="48.752824" lon="7.240851">
        <ele>315.0</ele>
        <time>2020-07-11T06:38:20Z</time>
      </trkpt>
      <trkpt lat="48.752665" lon="7.240925">
        <ele>314.0</ele>
        <time>2020-07-11T06:38:22Z</time>
      </trkpt>
      <trkpt lat="48.752502" lon="7.241004">
        <ele>314.0</ele>
        <time>2020-07-11T06:38:24Z</time>
      </trkpt>
      <trkpt lat="48.75234" lon="7.241092">
        <ele>313.0</ele>
        <time>2020-07-11T06:38:26Z</time>
      </trkpt>
      <trkpt lat="48.752169" lon="7.24118">
        <ele>312.0</ele>
        <time>2020-07-11T06:38:28Z</time>
      </trkpt>
      <trkpt lat="48.752" lon="7.241279">
        <ele>310.0</ele>
        <time>2020-07-11T06:38:30Z</time>
      </trkpt>
      <trkpt lat="48.751755" lon="7.241433">
        <ele>307.0</ele>
        <time>2020-07-11T06:38:33Z</time>
      </trkpt>
      <trkpt lat="48.751588" lon="7.241537">
        <ele>307.0</ele>
        <time>2020-07-11T06:38:35Z</time>
      </trkpt>
      <trkpt lat="48.75142" lon="7.241655">
        <ele>307.0</ele>
        <time>2020-07-11T06:38:37Z</time>
      </trkpt>
      <trkpt lat="48.751258" lon="7.24178">
        <ele>306.0</ele>
        <time>2020-07-11T06:38:39Z</time>
      </trkpt>
      <trkpt lat="48.751106" lon="7.241905">
        <ele>306.0</ele>
        <time>2020-07-11T06:38:41Z</time>
      </trkpt>
      <trkpt lat="48.750963" lon="7.242036">
        <ele>305.0</ele>
        <time>2020-07-11T06:38:43Z</time>
      </trkpt>
      <trkpt lat="48.750821" lon="7.242171">
        <ele>305.0</ele>
        <time>2020-07-11T06:38:45Z</time>
      </trkpt>
      <trkpt lat="48.750677" lon="7.242305">
        <ele>304.0</ele>
        <time>2020-07-11T06:38:47Z</time>
      </trkpt>
      <trkpt lat="48.750537" lon="7.242455">
        <ele>303.0</ele>
        <time>2020-07-11T06:38:49Z</time>
      </trkpt>
      <trkpt lat="48.750402" lon="7.242614">
        <ele>302.0</ele>
        <time>2020-07-11T06:38:51Z</time>
      </trkpt>
      <trkpt lat="48.750255" lon="7.242781">
        <ele>302.0</ele>
        <time>2020-07-11T06:38:53Z</time>
      </trkpt>
      <trkpt lat="48.750115" lon="7.242934">
        <ele>302.0</ele>
        <time>2020-07-11T06:38:55Z</time>
      </trkpt>
      <trkpt lat="48.749988" lon="7.243089">
        <ele>302.0</ele>
        <time>2020-07-11T06:38:57Z</time>
      </trkpt>
      <trkpt lat="48.749856" lon="7.24325">
        <ele>302.0</ele>
        <time>2020-07-11T06:38:59Z</time>
      </trkpt>
      <trkpt lat="48.74971" lon="7.243388">
        <ele>301.0</ele>
        <time>2020-07-11T06:39:01Z</time>
      </trkpt>
      <trkpt lat="48.749559" lon="7.243528">
        <ele>300.0</ele>
        <time>2020-07-11T06:39:03Z</time>
      </trkpt>
      <trkpt lat="48.749407" lon="7.243667">
        <ele>300.0</ele>
        <time>2020-07-11T06:39:05Z</time>
      </trkpt>
      <trkpt lat="48.749252" lon="7.243797">
        <ele>300.0</ele>
        <time>2020-07-11T06:39:07Z</time>
      </trkpt>
      <trkpt lat="48.749106" lon="7.24393">
        <ele>300.0</ele>
        <time>2020-07-11T06:39:09Z</time>
      </trkpt>
      <trkpt lat="48.748953" lon="7.244061">
        <ele>300.0</ele>
        <time>2020-07-11T06:39:11Z</time>
      </trkpt>
      <trkpt lat="48.748799" lon="7.244192">
        <ele>300.0</ele>
        <time>2020-07-11T06:39:13Z</time>
      </trkpt>
      <trkpt lat="48.748646" lon="7.244309">
        <ele>299.0</ele>
        <time>2020-07-11T06:39:15Z</time>
      </trkpt>
      <trkpt lat="48.74848" lon="7.244418">
        <ele>298.0</ele>
        <time>2020-07-11T06:39:17Z</time>
      </trkpt>
      <trkpt lat="48.748308" lon="7.2445">
        <ele>298.0</ele>
        <time>2020-07-11T06:39:19Z</time>
      </trkpt>
      <trkpt lat="48.748125" lon="7.244596">
        <ele>297.0</ele>
        <time>2020-07-11T06:39:21Z</time>
      </trkpt>
      <trkpt lat="48.747972" lon="7.2447">
        <ele>297.0</ele>
        <time>2020-07-11T06:39:23Z</time>
      </trkpt>
      <trkpt lat="48.747844" lon="7.244834">
        <ele>296.0</ele>
        <time>2020-07-11T06:39:25Z</time>
      </trkpt>
      <trkpt lat="48.747727" lon="7.244991">
        <ele>296.0</ele>
        <time>2020-07-11T06:39:27Z</time>
      </trkpt>
      <trkpt lat="48.747646" lon="7.245159">
        <ele>295.0</ele>
        <time>2020-07-11T06:39:29Z</time>
      </trkpt>
      <trkpt lat="48.747586" lon="7.245327">
        <ele>295.0</ele>
        <time>2020-07-11T06:39:31Z</time>
      </trkpt>
      <trkpt lat="48.74753" lon="7.245493">
        <ele>295.0</ele>
        <time>2020-07-11T06:39:33Z</time>
      </trkpt>
      <trkpt lat="48.747476" lon="7.245654">
        <ele>294.0</ele>
        <time>2020-07-11T06:39:35Z</time>
      </trkpt>
      <trkpt lat="48.74743" lon="7.245823">
        <ele>294.0</ele>
        <time>2020-07-11T06:39:37Z</time>
      </trkpt>
      <trkpt lat="48.747369" lon="7.245984">
        <ele>294.0</ele>
        <time>2020-07-11T06:39:39Z</time>
      </trkpt>
      <trkpt lat="48.747321" lon="7.246143">
        <ele>294.0</ele>
        <time>2020-07-11T06:39:41Z</time>
      </trkpt>
      <trkpt lat="48.747266" lon="7.246287">
        <ele>293.0</ele>
        <time>2020-07-11T06:39:43Z</time>
      </trkpt>
      <trkpt lat="48.747204" lon="7.24644">
        <ele>294.0</ele>
        <time>2020-07-11T06:39:45Z</time>
      </trkpt>
      <trkpt lat="48.747155" lon="7.246596">
        <ele>294.0</ele>
        <time>2020-07-11T06:39:47Z</time>
      </trkpt>
      <trkpt lat="48.747119" lon="7.246765">
        <ele>294.0</ele>
        <time>2020-07-11T06:39:49Z</time>
      </trkpt>
      <trkpt lat="48.747067" lon="7.246921">
        <ele>293.0</ele>
        <time>2020-07-11T06:39:51Z</time>
      </trkpt>
      <trkpt lat="48.746998" lon="7.247051">
        <ele>293.0</ele>
        <time>2020-07-11T06:39:53Z</time>
      </trkpt>
      <trkpt lat="48.746924" lon="7.247165">
        <ele>292.0</ele>
        <time>2020-07-11T06:39:55Z</time>
      </trkpt>
      <trkpt lat="48.746852" lon="7.247272">
        <ele>292.0</ele>
        <time>2020-07-11T06:39:57Z</time>
      </trkpt>
      <trkpt lat="48.746775" lon="7.247387">
        <ele>291.0</ele>
        <time>2020-07-11T06:39:59Z</time>
      </trkpt>
      <trkpt lat="48.746693" lon="7.247504">
        <ele>291.0</ele>
        <time>2020-07-11T06:40:01Z</time>
      </trkpt>
      <trkpt lat="48.7466" lon="7.247604">
        <ele>291.0</ele>
        <time>2020-07-11T06:40:03Z</time>
      </trkpt>
      <trkpt lat="48.746497" lon="7.247704">
        <ele>291.0</ele>
        <time>2020-07-11T06:40:05Z</time>
      </trkpt>
      <trkpt lat="48.746391" lon="7.247805">
        <ele>291.0</ele>
        <time>2020-07-11T06:40:07Z</time>
      </trkpt>
      <trkpt lat="48.746288" lon="7.247914">
        <ele>290.0</ele>
        <time>2020-07-11T06:40:09Z</time>
      </trkpt>
      <trkpt lat="48.746176" lon="7.248029">
        <ele>290.0</ele>
        <time>2020-07-11T06:40:11Z</time>
      </trkpt>
      <trkpt lat="48.746069" lon="7.248151">
        <ele>291.0</ele>
        <time>2020-07-11T06:40:13Z</time>
      </trkpt>
      <trkpt lat="48.745961" lon="7.248261">
        <ele>291.0</ele>
        <time>2020-07-11T06:40:15Z</time>
      </trkpt>
      <trkpt lat="48.745848" lon="7.248383">
        <ele>291.0</ele>
        <time>2020-07-11T06:40:17Z</time>
      </trkpt>
      <trkpt lat="48.745731" lon="7.248513">
        <ele>291.0</ele>
        <time>2020-07-11T06:40:19Z</time>
      </trkpt>
      <trkpt lat="48.745616" lon="7.248635">
        <ele>291.0</ele>
        <time>2020-07-11T06:40:21Z</time>
      </trkpt>
      <trkpt lat="48.745501" lon="7.248749">
        <ele>291.0</ele>
        <time>2020-07-11T06:40:23Z</time>
      </trkpt>
      <trkpt lat="48.745398" lon="7.248886">
        <ele>291.0</ele>
        <time>2020-07-11T06:40:25Z</time>
      </trkpt>
      <trkpt lat="48.745309" lon="7.249038">
        <ele>291.0</ele>
        <time>2020-07-11T06:40:27Z</time>
      </trkpt>
      <trkpt lat="48.74522" lon="7.2492">
        <ele>290.0</ele>
        <time>2020-07-11T06:40:29Z</time>
      </trkpt>
      <trkpt lat="48.745155" lon="7.249379">
        <ele>290.0</ele>
        <time>2020-07-11T06:40:31Z</time>
      </trkpt>
      <trkpt lat="48.745096" lon="7.249569">
        <ele>289.0</ele>
        <time>2020-07-11T06:40:33Z</time>
      </trkpt>
      <trkpt lat="48.745037" lon="7.249776">
        <ele>287.0</ele>
        <time>2020-07-11T06:40:35Z</time>
      </trkpt>
      <trkpt lat="48.744981" lon="7.249991">
        <ele>287.0</ele>
        <time>2020-07-11T06:40:37Z</time>
      </trkpt>
      <trkpt lat="48.744938" lon="7.250208">
        <ele>287.0</ele>
        <time>2020-07-11T06:40:39Z</time>
      </trkpt>
      <trkpt lat="48.744895" lon="7.250453">
        <ele>288.0</ele>
        <time>2020-07-11T06:40:41Z</time>
      </trkpt>
      <trkpt lat="48.744829" lon="7.25069">
        <ele>289.0</ele>
        <time>2020-07-11T06:40:43Z</time>
      </trkpt>
      <trkpt lat="48.744762" lon="7.250914">
        <ele>289.0</ele>
        <time>2020-07-11T06:40:45Z</time>
      </trkpt>
      <trkpt lat="48.744653" lon="7.251102">
        <ele>288.0</ele>
        <time>2020-07-11T06:40:47Z</time>
      </trkpt>
      <trkpt lat="48.744542" lon="7.251254">
        <ele>287.0</ele>
        <time>2020-07-11T06:40:49Z</time>
      </trkpt>
      <trkpt lat="48.744429" lon="7.25138">
        <ele>286.0</ele>
        <time>2020-07-11T06:40:51Z</time>
      </trkpt>
      <trkpt lat="48.744299" lon="7.251493">
        <ele>285.0</ele>
        <time>2020-07-11T06:40:53Z</time>
      </trkpt>
      <trkpt lat="48.744157" lon="7.251599">
        <ele>285.0</ele>
        <time>2020-07-11T06:40:55Z</time>
      </trkpt>
      <trkpt lat="48.744002" lon="7.251691">
        <ele>285.0</ele>
        <time>2020-07-11T06:40:57Z</time>
      </trkpt>
      <trkpt lat="48.743843" lon="7.251752">
        <ele>284.0</ele>
        <time>2020-07-11T06:40:59Z</time>
      </trkpt>
      <trkpt lat="48.74369" lon="7.251807">
        <ele>283.0</ele>
        <time>2020-07-11T06:41:01Z</time>
      </trkpt>
      <trkpt lat="48.743531" lon="7.251845">
        <ele>282.0</ele>
        <time>2020-07-11T06:41:03Z</time>
      </trkpt>
      <trkpt lat="48.743377" lon="7.251873">
        <ele>281.0</ele>
        <time>2020-07-11T06:41:05Z</time>
      </trkpt>
      <trkpt lat="48.743221" lon="7.251895">
        <ele>280.0</ele>
        <time>2020-07-11T06:41:07Z</time>
      </trkpt>
      <trkpt lat="48.742985" lon="7.251917">
        <ele>279.0</ele>
        <time>2020-07-11T06:41:10Z</time>
      </trkpt>
      <trkpt lat="48.742822" lon="7.251921">
        <ele>278.0</ele>
        <time>2020-07-11T06:41:12Z</time>
      </trkpt>
      <trkpt lat="48.742654" lon="7.251909">
        <ele>278.0</ele>
        <time>2020-07-11T06:41:14Z</time>
      </trkpt>
      <trkpt lat="48.742489" lon="7.251886">
        <ele>279.0</ele>
        <time>2020-07-11T06:41:16Z</time>
      </trkpt>
      <trkpt lat="48.74233" lon="7.251857">
        <ele>278.0</ele>
        <time>2020-07-11T06:41:18Z</time>
      </trkpt>
      <trkpt lat="48.742163" lon="7.251807">
        <ele>276.0</ele>
        <time>2020-07-11T06:41:20Z</time>
      </trkpt>
      <trkpt lat="48.742004" lon="7.25177">
        <ele>276.0</ele>
        <time>2020-07-11T06:41:22Z</time>
      </trkpt>
      <trkpt lat="48.741849" lon="7.251731">
        <ele>277.0</ele>
        <time>2020-07-11T06:41:24Z</time>
      </trkpt>
      <trkpt lat="48.741687" lon="7.251713">
        <ele>277.0</ele>
        <time>2020-07-11T06:41:26Z</time>
      </trkpt>
      <trkpt lat="48.741528" lon="7.251725">
        <ele>277.0</ele>
        <time>2020-07-11T06:41:28Z</time>
      </trkpt>
      <trkpt lat="48.741376" lon="7.251785">
        <ele>277.0</ele>
        <time>2020-07-11T06:41:30Z</time>
      </trkpt>
      <trkpt lat="48.741222" lon="7.251855">
        <ele>277.0</ele>
        <time>2020-07-11T06:41:32Z</time>
      </trkpt>
      <trkpt lat="48.741062" lon="7.251936">
        <ele>277.0</ele>
        <time>2020-07-11T06:41:34Z</time>
      </trkpt>
      <trkpt lat="48.7409" lon="7.251991">
        <ele>276.0</ele>
        <time>2020-07-11T06:41:36Z</time>
      </trkpt>
      <trkpt lat="48.740745" lon="7.252028">
        <ele>275.0</ele>
        <time>2020-07-11T06:41:38Z</time>
      </trkpt>
      <trkpt lat="48.740578" lon="7.252054">
        <ele>275.0</ele>
        <time>2020-07-11T06:41:40Z</time>
      </trkpt>
      <trkpt lat="48.740421" lon="7.252083">
        <ele>275.0</ele>
        <time>2020-07-11T06:41:42Z</time>
      </trkpt>
      <trkpt lat="48.740261" lon="7.252108">
        <ele>274.0</ele>
        <time>2020-07-11T06:41:44Z</time>
      </trkpt>
      <trkpt lat="48.740098" lon="7.252126">
        <ele>274.0</ele>
        <time>2020-07-11T06:41:46Z</time>
      </trkpt>
      <trkpt lat="48.739937" lon="7.252144">
        <ele>273.0</ele>
        <time>2020-07-11T06:41:48Z</time>
      </trkpt>
      <trkpt lat="48.739769" lon="7.25217">
        <ele>272.0</ele>
        <time>2020-07-11T06:41:50Z</time>
      </trkpt>
      <trkpt lat="48.739612" lon="7.252196">
        <ele>271.0</ele>
        <time>2020-07-11T06:41:52Z</time>
      </trkpt>
      <trkpt lat="48.73945" lon="7.252229">
        <ele>270.0</ele>
        <time>2020-07-11T06:41:54Z</time>
      </trkpt>
      <trkpt lat="48.739286" lon="7.252249">
        <ele>269.0</ele>
        <time>2020-07-11T06:41:56Z</time>
      </trkpt>
      <trkpt lat="48.73913" lon="7.252251">
        <ele>267.0</ele>
        <time>2020-07-11T06:41:58Z</time>
      </trkpt>
      <trkpt lat="48.738977" lon="7.252275">
        <ele>266.0</ele>
        <time>2020-07-11T06:42:00Z</time>
      </trkpt>
      <trkpt lat="48.738824" lon="7.252304">
        <ele>266.0</ele>
        <time>2020-07-11T06:42:02Z</time>
      </trkpt>
      <trkpt lat="48.738672" lon="7.252347">
        <ele>266.0</ele>
        <time>2020-07-11T06:42:04Z</time>
      </trkpt>
      <trkpt lat="48.738524" lon="7.252394">
        <ele>265.0</ele>
        <time>2020-07-11T06:42:06Z</time>
      </trkpt>
      <trkpt lat="48.738379" lon="7.252451">
        <ele>264.0</ele>
        <time>2020-07-11T06:42:08Z</time>
      </trkpt>
      <trkpt lat="48.738238" lon="7.252476">
        <ele>264.0</ele>
        <time>2020-07-11T06:42:10Z</time>
      </trkpt>
      <trkpt lat="48.738103" lon="7.252513">
        <ele>264.0</ele>
        <time>2020-07-11T06:42:12Z</time>
      </trkpt>
      <trkpt lat="48.737968" lon="7.252576">
        <ele>263.0</ele>
        <time>2020-07-11T06:42:14Z</time>
      </trkpt>
      <trkpt lat="48.737831" lon="7.252638">
        <ele>263.0</ele>
        <time>2020-07-11T06:42:16Z</time>
      </trkpt>
      <trkpt lat="48.737694" lon="7.252705">
        <ele>262.0</ele>
        <time>2020-07-11T06:42:18Z</time>
      </trkpt>
      <trkpt lat="48.737558" lon="7.252788">
        <ele>262.0</ele>
        <time>2020-07-11T06:42:20Z</time>
      </trkpt>
      <trkpt lat="48.737416" lon="7.252882">
        <ele>261.0</ele>
        <time>2020-07-11T06:42:22Z</time>
      </trkpt>
      <trkpt lat="48.737281" lon="7.252935">
        <ele>260.0</ele>
        <time>2020-07-11T06:42:24Z</time>
      </trkpt>
      <trkpt lat="48.737177" lon="7.252946">
        <ele>260.0</ele>
        <time>2020-07-11T06:42:26Z</time>
      </trkpt>
      <trkpt lat="48.737088" lon="7.252877">
        <ele>260.0</ele>
        <time>2020-07-11T06:42:28Z</time>
      </trkpt>
      <trkpt lat="48.737037" lon="7.252759">
        <ele>260.0</ele>
        <time>2020-07-11T06:42:30Z</time>
      </trkpt>
      <trkpt lat="48.736998" lon="7.25264">
        <ele>260.0</ele>
        <time>2020-07-11T06:42:32Z</time>
      </trkpt>
      <trkpt lat="48.73697" lon="7.252503">
        <ele>261.0</ele>
        <time>2020-07-11T06:42:34Z</time>
      </trkpt>
      <trkpt lat="48.736942" lon="7.252381">
        <ele>261.0</ele>
        <time>2020-07-11T06:42:36Z</time>
      </trkpt>
      <trkpt lat="48.7369" lon="7.252261">
        <ele>261.0</ele>
        <time>2020-07-11T06:42:38Z</time>
      </trkpt>
      <trkpt lat="48.736855" lon="7.252143">
        <ele>261.0</ele>
        <time>2020-07-11T06:42:40Z</time>
      </trkpt>
      <trkpt lat="48.736796" lon="7.25203">
        <ele>260.0</ele>
        <time>2020-07-11T06:42:42Z</time>
      </trkpt>
      <trkpt lat="48.736748" lon="7.251918">
        <ele>260.0</ele>
        <time>2020-07-11T06:42:44Z</time>
      </trkpt>
      <trkpt lat="48.7367" lon="7.251818">
        <ele>260.0</ele>
        <time>2020-07-11T06:42:46Z</time>
      </trkpt>
      <trkpt lat="48.736649" lon="7.251716">
        <ele>259.0</ele>
        <time>2020-07-11T06:42:48Z</time>
      </trkpt>
      <trkpt lat="48.736595" lon="7.25162">
        <ele>259.0</ele>
        <time>2020-07-11T06:42:50Z</time>
      </trkpt>
      <trkpt lat="48.736538" lon="7.251511">
        <ele>260.0</ele>
        <time>2020-07-11T06:42:52Z</time>
      </trkpt>
      <trkpt lat="48.73648" lon="7.251406">
        <ele>260.0</ele>
        <time>2020-07-11T06:42:54Z</time>
      </trkpt>
      <trkpt lat="48.736411" lon="7.251304">
        <ele>259.0</ele>
        <time>2020-07-11T06:42:56Z</time>
      </trkpt>
      <trkpt lat="48.736341" lon="7.251214">
        <ele>259.0</ele>
        <time>2020-07-11T06:42:58Z</time>
      </trkpt>
      <trkpt lat="48.736268" lon="7.251117">
        <ele>260.0</ele>
        <time>2020-07-11T06:43:00Z</time>
      </trkpt>
      <trkpt lat="48.736203" lon="7.251014">
        <ele>260.0</ele>
        <time>2020-07-11T06:43:02Z</time>
      </trkpt>
      <trkpt lat="48.736132" lon="7.250918">
        <ele>260.0</ele>
        <time>2020-07-11T06:43:04Z</time>
      </trkpt>
      <trkpt lat="48.736059" lon="7.250822">
        <ele>260.0</ele>
        <time>2020-07-11T06:43:06Z</time>
      </trkpt>
      <trkpt lat="48.735993" lon="7.250719">
        <ele>260.0</ele>
        <time>2020-07-11T06:43:08Z</time>
      </trkpt>
      <trkpt lat="48.735922" lon="7.250624">
        <ele>260.0</ele>
        <time>2020-07-11T06:43:10Z</time>
      </trkpt>
      <trkpt lat="48.735849" lon="7.250534">
        <ele>261.0</ele>
        <time>2020-07-11T06:43:12Z</time>
      </trkpt>
      <trkpt lat="48.735783" lon="7.250453">
        <ele>261.0</ele>
        <time>2020-07-11T06:43:14Z</time>
      </trkpt>
      <trkpt lat="48.73572" lon="7.250384">
        <ele>261.0</ele>
        <time>2020-07-11T06:43:16Z</time>
      </trkpt>
      <trkpt lat="48.735653" lon="7.250335">
        <ele>261.0</ele>
        <time>2020-07-11T06:43:18Z</time>
      </trkpt>
      <trkpt lat="48.735596" lon="7.250322">
        <ele>261.0</ele>
        <time>2020-07-11T06:43:20Z</time>
      </trkpt>
      <trkpt lat="48.735542" lon="7.250392">
        <ele>261.0</ele>
        <time>2020-07-11T06:43:22Z</time>
      </trkpt>
      <trkpt lat="48.735487" lon="7.250477">
        <ele>261.0</ele>
        <time>2020-07-11T06:43:24Z</time>
      </trkpt>
      <trkpt lat="48.735428" lon="7.250551">
        <ele>261.0</ele>
        <time>2020-07-11T06:43:26Z</time>
      </trkpt>
      <trkpt lat="48.735377" lon="7.25062">
        <ele>261.0</ele>
        <time>2020-07-11T06:43:28Z</time>
      </trkpt>
      <trkpt lat="48.735328" lon="7.250684">
        <ele>261.0</ele>
        <time>2020-07-11T06:43:30Z</time>
      </trkpt>
      <trkpt lat="48.735283" lon="7.25074">
        <ele>261.0</ele>
        <time>2020-07-11T06:43:32Z</time>
      </trkpt>
      <trkpt lat="48.735238" lon="7.250791">
        <ele>261.0</ele>
        <time>2020-07-11T06:43:34Z</time>
      </trkpt>
      <trkpt lat="48.735191" lon="7.250835">
        <ele>261.0</ele>
        <time>2020-07-11T06:43:36Z</time>
      </trkpt>
      <trkpt lat="48.735153" lon="7.250875">
        <ele>261.0</ele>
        <time>2020-07-11T06:43:38Z</time>
      </trkpt>
      <trkpt lat="48.735127" lon="7.250898">
        <ele>261.0</ele>
        <time>2020-07-11T06:43:40Z</time>
      </trkpt>
      <trkpt lat="48.735102" lon="7.250919">
        <ele>261.0</ele>
        <time>2020-07-11T06:43:42Z</time>
      </trkpt>
      <trkpt lat="48.735073" lon="7.250942">
        <ele>261.0</ele>
        <time>2020-07-11T06:43:44Z</time>
      </trkpt>
      <trkpt lat="48.735061" lon="7.250958">
        <ele>261.0</ele>
        <time>2020-07-11T06:43:46Z</time>
      </trkpt>
      <trkpt lat="48.73506" lon="7.250957">
        <ele>261.0</ele>
        <time>2020-07-11T06:43:48Z</time>
      </trkpt>
      <trkpt lat="48.73506" lon="7.250957">
        <ele>261.0</ele>
        <time>2020-07-11T06:43:50Z</time>
      </trkpt>
      <trkpt lat="48.73506" lon="7.250957">
        <ele>261.0</ele>
        <time>2020-07-11T06:43:52Z</time>
      </trkpt>
      <trkpt lat="48.73506" lon="7.250957">
        <ele>261.0</ele>
        <time>2020-07-11T06:45:55Z</time>
      </trkpt>
      <trkpt lat="48.73506" lon="7.250957">
        <ele>261.0</ele>
        <time>2020-07-11T06:45:57Z</time>
      </trkpt>
      <trkpt lat="48.73506" lon="7.250957">
        <ele>261.0</ele>
        <time>2020-07-11T06:45:59Z</time>
      </trkpt>
      <trkpt lat="48.73506" lon="7.250957">
        <ele>261.0</ele>
        <time>2020-07-11T06:46:01Z</time>
      </trkpt>
      <trkpt lat="48.73506" lon="7.250957">
        <ele>261.0</ele>
        <time>2020-07-11T06:46:03Z</time>
      </trkpt>
      <trkpt lat="48.73506" lon="7.250957">
        <ele>261.0</ele>
        <time>2020-07-11T06:46:05Z</time>
      </trkpt>
      <trkpt lat="48.73506" lon="7.250957">
        <ele>261.0</ele>
        <time>2020-07-11T06:46:07Z</time>
      </trkpt>
      <trkpt lat="48.73506" lon="7.250957">
        <ele>261.0</ele>
        <time>2020-07-11T06:46:09Z</time>
      </trkpt>
      <trkpt lat="48.735056" lon="7.250956">
        <ele>262.0</ele>
        <time>2020-07-11T06:46:11Z</time>
      </trkpt>
      <trkpt lat="48.735055" lon="7.250956">
        <ele>262.0</ele>
        <time>2020-07-11T06:46:13Z</time>
      </trkpt>
      <trkpt lat="48.735055" lon="7.250956">
        <ele>262.0</ele>
        <time>2020-07-11T06:46:15Z</time>
      </trkpt>
      <trkpt lat="48.735056" lon="7.250964">
        <ele>262.0</ele>
        <time>2020-07-11T06:46:17Z</time>
      </trkpt>
      <trkpt lat="48.73504" lon="7.250985">
        <ele>262.0</ele>
        <time>2020-07-11T06:46:19Z</time>
      </trkpt>
      <trkpt lat="48.735012" lon="7.251014">
        <ele>261.0</ele>
        <time>2020-07-11T06:46:21Z</time>
      </trkpt>
      <trkpt lat="48.734981" lon="7.251042">
        <ele>262.0</ele>
        <time>2020-07-11T06:46:23Z</time>
      </trkpt>
      <trkpt lat="48.734964" lon="7.25105">
        <ele>262.0</ele>
        <time>2020-07-11T06:46:25Z</time>
      </trkpt>
      <trkpt lat="48.734954" lon="7.251082">
        <ele>262.0</ele>
        <time>2020-07-11T06:46:27Z</time>
      </trkpt>
      <trkpt lat="48.734952" lon="7.251089">
        <ele>263.0</ele>
        <time>2020-07-11T06:46:29Z</time>
      </trkpt>
      <trkpt lat="48.734952" lon="7.251089">
        <ele>263.0</ele>
        <time>2020-07-11T06:46:31Z</time>
      </trkpt>
      <trkpt lat="48.734952" lon="7.251089">
        <ele>263.0</ele>
        <time>2020-07-11T06:46:33Z</time>
      </trkpt>
      <trkpt lat="48.734952" lon="7.251103">
        <ele>264.0</ele>
        <time>2020-07-11T06:46:35Z</time>
      </trkpt>
      <trkpt lat="48.73493" lon="7.251132">
        <ele>264.0</ele>
        <time>2020-07-11T06:46:37Z</time>
      </trkpt>
      <trkpt lat="48.7349" lon="7.251159">
        <ele>264.0</ele>
        <time>2020-07-11T06:46:39Z</time>
      </trkpt>
      <trkpt lat="48.73487" lon="7.251196">
        <ele>264.0</ele>
        <time>2020-07-11T06:46:41Z</time>
      </trkpt>
      <trkpt lat="48.73484" lon="7.251231">
        <ele>264.0</ele>
        <time>2020-07-11T06:46:43Z</time>
      </trkpt>
      <trkpt lat="48.73481" lon="7.251261">
        <ele>264.0</ele>
        <time>2020-07-11T06:46:45Z</time>
      </trkpt>
      <trkpt lat="48.734783" lon="7.251295">
        <ele>264.0</ele>
        <time>2020-07-11T06:46:47Z</time>
      </trkpt>
      <trkpt lat="48.734756" lon="7.251322">
        <ele>264.0</ele>
        <time>2020-07-11T06:46:49Z</time>
      </trkpt>
      <trkpt lat="48.734734" lon="7.251346">
        <ele>263.0</ele>
        <time>2020-07-11T06:46:51Z</time>
      </trkpt>
      <trkpt lat="48.734706" lon="7.251372">
        <ele>263.0</ele>
        <time>2020-07-11T06:46:53Z</time>
      </trkpt>
      <trkpt lat="48.734687" lon="7.251423">
        <ele>263.0</ele>
        <time>2020-07-11T06:46:55Z</time>
      </trkpt>
      <trkpt lat="48.734717" lon="7.251453">
        <ele>262.0</ele>
        <time>2020-07-11T06:46:57Z</time>
      </trkpt>
      <trkpt lat="48.734743" lon="7.251426">
        <ele>262.0</ele>
        <time>2020-07-11T06:46:59Z</time>
      </trkpt>
      <trkpt lat="48.734769" lon="7.251396">
        <ele>262.0</ele>
        <time>2020-07-11T06:47:01Z</time>
      </trkpt>
      <trkpt lat="48.734792" lon="7.251371">
        <ele>262.0</ele>
        <time>2020-07-11T06:47:03Z</time>
      </trkpt>
      <trkpt lat="48.734822" lon="7.251331">
        <ele>261.0</ele>
        <time>2020-07-11T06:47:05Z</time>
      </trkpt>
      <trkpt lat="48.734867" lon="7.251288">
        <ele>261.0</ele>
        <time>2020-07-11T06:47:07Z</time>
      </trkpt>
      <trkpt lat="48.7349" lon="7.251242">
        <ele>262.0</ele>
        <time>2020-07-11T06:47:09Z</time>
      </trkpt>
      <trkpt lat="48.734925" lon="7.251205">
        <ele>262.0</ele>
        <time>2020-07-11T06:47:11Z</time>
      </trkpt>
      <trkpt lat="48.734949" lon="7.251215">
        <ele>262.0</ele>
        <time>2020-07-11T06:47:13Z</time>
      </trkpt>
      <trkpt lat="48.734964" lon="7.251202">
        <ele>262.0</ele>
        <time>2020-07-11T06:47:15Z</time>
      </trkpt>
      <trkpt lat="48.734962" lon="7.251196">
        <ele>263.0</ele>
        <time>2020-07-11T06:47:17Z</time>
      </trkpt>
      <trkpt lat="48.734963" lon="7.251197">
        <ele>263.0</ele>
        <time>2020-07-11T06:47:19Z</time>
      </trkpt>
      <trkpt lat="48.734963" lon="7.251197">
        <ele>263.0</ele>
        <time>2020-07-11T06:47:22Z</time>
      </trkpt>
      <trkpt lat="48.734963" lon="7.251197">
        <ele>263.0</ele>
        <time>2020-07-11T06:47:23Z</time>
      </trkpt>
      <trkpt lat="48.734963" lon="7.251197">
        <ele>263.0</ele>
        <time>2020-07-11T06:47:27Z</time>
      </trkpt>
      <trkpt lat="48.734963" lon="7.251197">
        <ele>263.0</ele>
        <time>2020-07-11T06:47:30Z</time>
      </trkpt>
      <trkpt lat="48.734963" lon="7.251197">
        <ele>263.0</ele>
        <time>2020-07-11T06:47:32Z</time>
      </trkpt>
      <trkpt lat="48.734963" lon="7.251197">
        <ele>263.0</ele>
        <time>2020-07-11T06:47:34Z</time>
      </trkpt>
      <trkpt lat="48.734963" lon="7.251197">
        <ele>263.0</ele>
        <time>2020-07-11T06:47:36Z</time>
      </trkpt>
      <trkpt lat="48.734963" lon="7.251197">
        <ele>263.0</ele>
        <time>2020-07-11T06:47:38Z</time>
      </trkpt>
      <trkpt lat="48.734963" lon="7.251197">
        <ele>263.0</ele>
        <time>2020-07-11T06:47:40Z</time>
      </trkpt>
      <trkpt lat="48.734963" lon="7.251197">
        <ele>263.0</ele>
        <time>2020-07-11T06:47:42Z</time>
      </trkpt>
      <trkpt lat="48.734963" lon="7.251197">
        <ele>263.0</ele>
        <time>2020-07-11T06:47:44Z</time>
      </trkpt>
      <trkpt lat="48.734963" lon="7.251197">
        <ele>263.0</ele>
        <time>2020-07-11T06:47:46Z</time>
      </trkpt>
      <trkpt lat="48.734962" lon="7.251188">
        <ele>262.0</ele>
        <time>2020-07-11T06:47:48Z</time>
      </trkpt>
      <trkpt lat="48.734969" lon="7.251163">
        <ele>262.0</ele>
        <time>2020-07-11T06:47:50Z</time>
      </trkpt>
      <trkpt lat="48.734998" lon="7.251142">
        <ele>262.0</ele>
        <time>2020-07-11T06:47:52Z</time>
      </trkpt>
      <trkpt lat="48.735025" lon="7.251109">
        <ele>262.0</ele>
        <time>2020-07-11T06:47:54Z</time>
      </trkpt>
      <trkpt lat="48.735063" lon="7.251059">
        <ele>262.0</ele>
        <time>2020-07-11T06:47:56Z</time>
      </trkpt>
      <trkpt lat="48.7351" lon="7.251014">
        <ele>262.0</ele>
        <time>2020-07-11T06:47:58Z</time>
      </trkpt>
      <trkpt lat="48.735129" lon="7.250968">
        <ele>263.0</ele>
        <time>2020-07-11T06:48:00Z</time>
      </trkpt>
      <trkpt lat="48.735155" lon="7.25096">
        <ele>262.0</ele>
        <time>2020-07-11T06:48:02Z</time>
      </trkpt>
      <trkpt lat="48.735164" lon="7.250966">
        <ele>263.0</ele>
        <time>2020-07-11T06:48:04Z</time>
      </trkpt>
      <trkpt lat="48.735186" lon="7.250973">
        <ele>264.0</ele>
        <time>2020-07-11T06:48:06Z</time>
      </trkpt>
      <trkpt lat="48.73521" lon="7.250993">
        <ele>264.0</ele>
        <time>2020-07-11T06:48:08Z</time>
      </trkpt>
      <trkpt lat="48.735237" lon="7.251023">
        <ele>264.0</ele>
        <time>2020-07-11T06:48:10Z</time>
      </trkpt>
      <trkpt lat="48.735259" lon="7.251047">
        <ele>265.0</ele>
        <time>2020-07-11T06:48:12Z</time>
      </trkpt>
      <trkpt lat="48.735278" lon="7.25106">
        <ele>265.0</ele>
        <time>2020-07-11T06:48:14Z</time>
      </trkpt>
      <trkpt lat="48.735289" lon="7.251068">
        <ele>265.0</ele>
        <time>2020-07-11T06:48:16Z</time>
      </trkpt>
      <trkpt lat="48.735305" lon="7.251101">
        <ele>265.0</ele>
        <time>2020-07-11T06:48:18Z</time>
      </trkpt>
      <trkpt lat="48.735314" lon="7.251139">
        <ele>265.0</ele>
        <time>2020-07-11T06:48:20Z</time>
      </trkpt>
      <trkpt lat="48.735315" lon="7.251189">
        <ele>265.0</ele>
        <time>2020-07-11T06:48:22Z</time>
      </trkpt>
      <trkpt lat="48.735322" lon="7.25122">
        <ele>265.0</ele>
        <time>2020-07-11T06:48:24Z</time>
      </trkpt>
      <trkpt lat="48.735322" lon="7.251224">
        <ele>266.0</ele>
        <time>2020-07-11T06:48:26Z</time>
      </trkpt>
      <trkpt lat="48.735322" lon="7.251225">
        <ele>266.0</ele>
        <time>2020-07-11T06:48:28Z</time>
      </trkpt>
      <trkpt lat="48.735322" lon="7.251225">
        <ele>266.0</ele>
        <time>2020-07-11T06:48:30Z</time>
      </trkpt>
      <trkpt lat="48.735328" lon="7.251221">
        <ele>265.0</ele>
        <time>2020-07-11T06:48:32Z</time>
      </trkpt>
      <trkpt lat="48.735349" lon="7.251268">
        <ele>264.0</ele>
        <time>2020-07-11T06:48:34Z</time>
      </trkpt>
      <trkpt lat="48.735384" lon="7.251359">
        <ele>263.0</ele>
        <time>2020-07-11T06:48:36Z</time>
      </trkpt>
      <trkpt lat="48.735408" lon="7.251466">
        <ele>262.0</ele>
        <time>2020-07-11T06:48:38Z</time>
      </trkpt>
      <trkpt lat="48.73543" lon="7.25161">
        <ele>261.0</ele>
        <time>2020-07-11T06:48:40Z</time>
      </trkpt>
      <trkpt lat="48.735437" lon="7.25177">
        <ele>262.0</ele>
        <time>2020-07-11T06:48:42Z</time>
      </trkpt>
      <trkpt lat="48.735449" lon="7.251926">
        <ele>261.0</ele>
        <time>2020-07-11T06:48:44Z</time>
      </trkpt>
      <trkpt lat="48.735466" lon="7.252088">
        <ele>261.0</ele>
        <time>2020-07-11T06:48:46Z</time>
      </trkpt>
      <trkpt lat="48.735484" lon="7.252231">
        <ele>260.0</ele>
        <time>2020-07-11T06:48:48Z</time>
      </trkpt>
      <trkpt lat="48.7355" lon="7.252361">
        <ele>260.0</ele>
        <time>2020-07-11T06:48:50Z</time>
      </trkpt>
      <trkpt lat="48.735509" lon="7.252503">
        <ele>261.0</ele>
        <time>2020-07-11T06:48:52Z</time>
      </trkpt>
      <trkpt lat="48.735527" lon="7.252637">
        <ele>261.0</ele>
        <time>2020-07-11T06:48:54Z</time>
      </trkpt>
      <trkpt lat="48.73554" lon="7.25277">
        <ele>260.0</ele>
        <time>2020-07-11T06:48:56Z</time>
      </trkpt>
      <trkpt lat="48.73555" lon="7.252901">
        <ele>260.0</ele>
        <time>2020-07-11T06:48:58Z</time>
      </trkpt>
      <trkpt lat="48.735559" lon="7.253025">
        <ele>261.0</ele>
        <time>2020-07-11T06:49:00Z</time>
      </trkpt>
      <trkpt lat="48.73557" lon="7.253142">
        <ele>261.0</ele>
        <time>2020-07-11T06:49:02Z</time>
      </trkpt>
      <trkpt lat="48.735583" lon="7.253272">
        <ele>261.0</ele>
        <time>2020-07-11T06:49:04Z</time>
      </trkpt>
      <trkpt lat="48.735597" lon="7.253393">
        <ele>260.0</ele>
        <time>2020-07-11T06:49:06Z</time>
      </trkpt>
      <trkpt lat="48.735607" lon="7.253521">
        <ele>260.0</ele>
        <time>2020-07-11T06:49:08Z</time>
      </trkpt>
      <trkpt lat="48.735616" lon="7.253639">
        <ele>261.0</ele>
        <time>2020-07-11T06:49:10Z</time>
      </trkpt>
      <trkpt lat="48.735623" lon="7.253766">
        <ele>260.0</ele>
        <time>2020-07-11T06:49:12Z</time>
      </trkpt>
      <trkpt lat="48.735635" lon="7.253895">
        <ele>260.0</ele>
        <time>2020-07-11T06:49:14Z</time>
      </trkpt>
      <trkpt lat="48.735645" lon="7.25402">
        <ele>259.0</ele>
        <time>2020-07-11T06:49:16Z</time>
      </trkpt>
      <trkpt lat="48.735656" lon="7.254156">
        <ele>259.0</ele>
        <time>2020-07-11T06:49:18Z</time>
      </trkpt>
      <trkpt lat="48.735665" lon="7.254287">
        <ele>259.0</ele>
        <time>2020-07-11T06:49:20Z</time>
      </trkpt>
      <trkpt lat="48.735681" lon="7.254417">
        <ele>259.0</ele>
        <time>2020-07-11T06:49:22Z</time>
      </trkpt>
      <trkpt lat="48.735699" lon="7.254547">
        <ele>260.0</ele>
        <time>2020-07-11T06:49:24Z</time>
      </trkpt>
      <trkpt lat="48.73571" lon="7.254674">
        <ele>261.0</ele>
        <time>2020-07-11T06:49:26Z</time>
      </trkpt>
      <trkpt lat="48.735723" lon="7.254814">
        <ele>261.0</ele>
        <time>2020-07-11T06:49:28Z</time>
      </trkpt>
      <trkpt lat="48.735736" lon="7.25496">
        <ele>261.0</ele>
        <time>2020-07-11T06:49:30Z</time>
      </trkpt>
      <trkpt lat="48.735749" lon="7.2551">
        <ele>262.0</ele>
        <time>2020-07-11T06:49:32Z</time>
      </trkpt>
      <trkpt lat="48.735762" lon="7.255235">
        <ele>262.0</ele>
        <time>2020-07-11T06:49:34Z</time>
      </trkpt>
      <trkpt lat="48.73577" lon="7.255366">
        <ele>262.0</ele>
        <time>2020-07-11T06:49:36Z</time>
      </trkpt>
      <trkpt lat="48.735769" lon="7.255477">
        <ele>262.0</ele>
        <time>2020-07-11T06:49:38Z</time>
      </trkpt>
      <trkpt lat="48.735812" lon="7.255557">
        <ele>262.0</ele>
        <time>2020-07-11T06:49:40Z</time>
      </trkpt>
      <trkpt lat="48.735862" lon="7.255605">
        <ele>261.0</ele>
        <time>2020-07-11T06:49:42Z</time>
      </trkpt>
      <trkpt lat="48.735916" lon="7.25563">
        <ele>261.0</ele>
        <time>2020-07-11T06:49:44Z</time>
      </trkpt>
      <trkpt lat="48.735979" lon="7.255659">
        <ele>261.0</ele>
        <time>2020-07-11T06:49:46Z</time>
      </trkpt>
      <trkpt lat="48.736046" lon="7.255715">
        <ele>260.0</ele>
        <time>2020-07-11T06:49:48Z</time>
      </trkpt>
      <trkpt lat="48.736112" lon="7.255807">
        <ele>260.0</ele>
        <time>2020-07-11T06:49:50Z</time>
      </trkpt>
      <trkpt lat="48.736142" lon="7.255929">
        <ele>261.0</ele>
        <time>2020-07-11T06:49:52Z</time>
      </trkpt>
      <trkpt lat="48.736124" lon="7.256051">
        <ele>262.0</ele>
        <time>2020-07-11T06:49:54Z</time>
      </trkpt>
      <trkpt lat="48.736112" lon="7.256175">
        <ele>263.0</ele>
        <time>2020-07-11T06:49:56Z</time>
      </trkpt>
      <trkpt lat="48.736106" lon="7.256301">
        <ele>264.0</ele>
        <time>2020-07-11T06:49:58Z</time>
      </trkpt>
      <trkpt lat="48.736092" lon="7.256443">
        <ele>264.0</ele>
        <time>2020-07-11T06:50:00Z</time>
      </trkpt>
      <trkpt lat="48.736078" lon="7.256574">
        <ele>264.0</ele>
        <time>2020-07-11T06:50:02Z</time>
      </trkpt>
      <trkpt lat="48.736063" lon="7.256713">
        <ele>264.0</ele>
        <time>2020-07-11T06:50:04Z</time>
      </trkpt>
      <trkpt lat="48.736045" lon="7.256928">
        <ele>264.0</ele>
        <time>2020-07-11T06:50:07Z</time>
      </trkpt>
      <trkpt lat="48.73604" lon="7.257066">
        <ele>264.0</ele>
        <time>2020-07-11T06:50:09Z</time>
      </trkpt>
      <trkpt lat="48.736026" lon="7.257184">
        <ele>263.0</ele>
        <time>2020-07-11T06:50:11Z</time>
      </trkpt>
      <trkpt lat="48.73602" lon="7.2573">
        <ele>263.0</ele>
        <time>2020-07-11T06:50:13Z</time>
      </trkpt>
      <trkpt lat="48.736017" lon="7.2574">
        <ele>263.0</ele>
        <time>2020-07-11T06:50:15Z</time>
      </trkpt>
      <trkpt lat="48.736018" lon="7.257449">
        <ele>263.0</ele>
        <time>2020-07-11T06:50:17Z</time>
      </trkpt>
      <trkpt lat="48.73602" lon="7.257473">
        <ele>263.0</ele>
        <time>2020-07-11T06:50:19Z</time>
      </trkpt>
      <trkpt lat="48.736036" lon="7.25748">
        <ele>263.0</ele>
        <time>2020-07-11T06:50:21Z</time>
      </trkpt>
      <trkpt lat="48.736045" lon="7.257442">
        <ele>263.0</ele>
        <time>2020-07-11T06:50:23Z</time>
      </trkpt>
      <trkpt lat="48.736036" lon="7.257391">
        <ele>262.0</ele>
        <time>2020-07-11T06:50:25Z</time>
      </trkpt>
      <trkpt lat="48.736019" lon="7.257322">
        <ele>263.0</ele>
        <time>2020-07-11T06:50:27Z</time>
      </trkpt>
      <trkpt lat="48.736" lon="7.257249">
        <ele>262.0</ele>
        <time>2020-07-11T06:50:29Z</time>
      </trkpt>
      <trkpt lat="48.736009" lon="7.257202">
        <ele>263.0</ele>
        <time>2020-07-11T06:50:31Z</time>
      </trkpt>
      <trkpt lat="48.736028" lon="7.257227">
        <ele>263.0</ele>
        <time>2020-07-11T06:50:33Z</time>
      </trkpt>
      <trkpt lat="48.736021" lon="7.257278">
        <ele>263.0</ele>
        <time>2020-07-11T06:50:35Z</time>
      </trkpt>
      <trkpt lat="48.736012" lon="7.257343">
        <ele>263.0</ele>
        <time>2020-07-11T06:50:37Z</time>
      </trkpt>
      <trkpt lat="48.735992" lon="7.257381">
        <ele>263.0</ele>
        <time>2020-07-11T06:50:39Z</time>
      </trkpt>
      <trkpt lat="48.735967" lon="7.257401">
        <ele>263.0</ele>
        <time>2020-07-11T06:50:41Z</time>
      </trkpt>
      <trkpt lat="48.73596" lon="7.257406">
        <ele>262.0</ele>
        <time>2020-07-11T06:50:43Z</time>
      </trkpt>
      <trkpt lat="48.735947" lon="7.257391">
        <ele>261.0</ele>
        <time>2020-07-11T06:50:45Z</time>
      </trkpt>
      <trkpt lat="48.735932" lon="7.257358">
        <ele>261.0</ele>
        <time>2020-07-11T06:50:47Z</time>
      </trkpt>
      <trkpt lat="48.735923" lon="7.257315">
        <ele>260.0</ele>
        <time>2020-07-11T06:50:49Z</time>
      </trkpt>
      <trkpt lat="48.735912" lon="7.257267">
        <ele>260.0</ele>
        <time>2020-07-11T06:50:51Z</time>
      </trkpt>
      <trkpt lat="48.73591" lon="7.257219">
        <ele>261.0</ele>
        <time>2020-07-11T06:50:53Z</time>
      </trkpt>
      <trkpt lat="48.735915" lon="7.257176">
        <ele>261.0</ele>
        <time>2020-07-11T06:50:55Z</time>
      </trkpt>
      <trkpt lat="48.735919" lon="7.257125">
        <ele>261.0</ele>
        <time>2020-07-11T06:50:57Z</time>
      </trkpt>
      <trkpt lat="48.735925" lon="7.257062">
        <ele>261.0</ele>
        <time>2020-07-11T06:50:59Z</time>
      </trkpt>
      <trkpt lat="48.73593" lon="7.257024">
        <ele>260.0</ele>
        <time>2020-07-11T06:51:01Z</time>
      </trkpt>
      <trkpt lat="48.735922" lon="7.257004">
        <ele>260.0</ele>
        <time>2020-07-11T06:51:03Z</time>
      </trkpt>
      <trkpt lat="48.735929" lon="7.257005">
        <ele>259.0</ele>
        <time>2020-07-11T06:51:05Z</time>
      </trkpt>
      <trkpt lat="48.73593" lon="7.257006">
        <ele>259.0</ele>
        <time>2020-07-11T06:51:07Z</time>
      </trkpt>
      <trkpt lat="48.73593" lon="7.257007">
        <ele>259.0</ele>
        <time>2020-07-11T06:51:09Z</time>
      </trkpt>
      <trkpt lat="48.73593" lon="7.257007">
        <ele>259.0</ele>
        <time>2020-07-11T06:51:11Z</time>
      </trkpt>
      <trkpt lat="48.735957" lon="7.257026">
        <ele>260.0</ele>
        <time>2020-07-11T07:18:19Z</time>
      </trkpt>
      <trkpt lat="48.735957" lon="7.257026">
        <ele>260.0</ele>
        <time>2020-07-11T07:18:22Z</time>
      </trkpt>
      <trkpt lat="48.735957" lon="7.257026">
        <ele>260.0</ele>
        <time>2020-07-11T07:18:24Z</time>
      </trkpt>
      <trkpt lat="48.735957" lon="7.257026">
        <ele>260.0</ele>
        <time>2020-07-11T07:18:27Z</time>
      </trkpt>
      <trkpt lat="48.735957" lon="7.257026">
        <ele>260.0</ele>
        <time>2020-07-11T07:18:29Z</time>
      </trkpt>
      <trkpt lat="48.735957" lon="7.257026">
        <ele>260.0</ele>
        <time>2020-07-11T07:18:31Z</time>
      </trkpt>
      <trkpt lat="48.735955" lon="7.257042">
        <ele>257.0</ele>
        <time>2020-07-11T07:18:33Z</time>
      </trkpt>
      <trkpt lat="48.735949" lon="7.257062">
        <ele>258.0</ele>
        <time>2020-07-11T07:18:35Z</time>
      </trkpt>
      <trkpt lat="48.735948" lon="7.257062">
        <ele>259.0</ele>
        <time>2020-07-11T07:18:37Z</time>
      </trkpt>
      <trkpt lat="48.735947" lon="7.257062">
        <ele>259.0</ele>
        <time>2020-07-11T07:18:39Z</time>
      </trkpt>
      <trkpt lat="48.73595" lon="7.257072">
        <ele>258.0</ele>
        <time>2020-07-11T07:18:41Z</time>
      </trkpt>
      <trkpt lat="48.73595" lon="7.257097">
        <ele>259.0</ele>
        <time>2020-07-11T07:18:43Z</time>
      </trkpt>
      <trkpt lat="48.735949" lon="7.257144">
        <ele>259.0</ele>
        <time>2020-07-11T07:18:45Z</time>
      </trkpt>
      <trkpt lat="48.735958" lon="7.257202">
        <ele>259.0</ele>
        <time>2020-07-11T07:18:47Z</time>
      </trkpt>
      <trkpt lat="48.735961" lon="7.25723">
        <ele>259.0</ele>
        <time>2020-07-11T07:18:48Z</time>
      </trkpt>
      <trkpt lat="48.735968" lon="7.257297">
        <ele>260.0</ele>
        <time>2020-07-11T07:18:51Z</time>
      </trkpt>
      <trkpt lat="48.735969" lon="7.257361">
        <ele>259.0</ele>
        <time>2020-07-11T07:18:54Z</time>
      </trkpt>
      <trkpt lat="48.735976" lon="7.257392">
        <ele>258.0</ele>
        <time>2020-07-11T07:18:56Z</time>
      </trkpt>
      <trkpt lat="48.735998" lon="7.257385">
        <ele>258.0</ele>
        <time>2020-07-11T07:18:58Z</time>
      </trkpt>
      <trkpt lat="48.735999" lon="7.257411">
        <ele>260.0</ele>
        <time>2020-07-11T07:19:00Z</time>
      </trkpt>
      <trkpt lat="48.735991" lon="7.257509">
        <ele>261.0</ele>
        <time>2020-07-11T07:19:03Z</time>
      </trkpt>
      <trkpt lat="48.73601" lon="7.257604">
        <ele>261.0</ele>
        <time>2020-07-11T07:19:05Z</time>
      </trkpt>
      <trkpt lat="48.73603" lon="7.2577">
        <ele>261.0</ele>
        <time>2020-07-11T07:19:07Z</time>
      </trkpt>
      <trkpt lat="48.736041" lon="7.257801">
        <ele>261.0</ele>
        <time>2020-07-11T07:19:09Z</time>
      </trkpt>
      <trkpt lat="48.736054" lon="7.257898">
        <ele>262.0</ele>
        <time>2020-07-11T07:19:11Z</time>
      </trkpt>
      <trkpt lat="48.73607" lon="7.257981">
        <ele>262.0</ele>
        <time>2020-07-11T07:19:13Z</time>
      </trkpt>
      <trkpt lat="48.736091" lon="7.258096">
        <ele>262.0</ele>
        <time>2020-07-11T07:19:16Z</time>
      </trkpt>
      <trkpt lat="48.736133" lon="7.258248">
        <ele>260.0</ele>
        <time>2020-07-11T07:19:20Z</time>
      </trkpt>
      <trkpt lat="48.736154" lon="7.258328">
        <ele>260.0</ele>
        <time>2020-07-11T07:19:22Z</time>
      </trkpt>
      <trkpt lat="48.736176" lon="7.258417">
        <ele>260.0</ele>
        <time>2020-07-11T07:19:24Z</time>
      </trkpt>
      <trkpt lat="48.7362" lon="7.258505">
        <ele>261.0</ele>
        <time>2020-07-11T07:19:26Z</time>
      </trkpt>
      <trkpt lat="48.736221" lon="7.258586">
        <ele>261.0</ele>
        <time>2020-07-11T07:19:28Z</time>
      </trkpt>
      <trkpt lat="48.736232" lon="7.258671">
        <ele>263.0</ele>
        <time>2020-07-11T07:19:30Z</time>
      </trkpt>
      <trkpt lat="48.7362" lon="7.258737">
        <ele>265.0</ele>
        <time>2020-07-11T07:19:32Z</time>
      </trkpt>
      <trkpt lat="48.736141" lon="7.258771">
        <ele>265.0</ele>
        <time>2020-07-11T07:19:34Z</time>
      </trkpt>
      <trkpt lat="48.736081" lon="7.258798">
        <ele>264.0</ele>
        <time>2020-07-11T07:19:36Z</time>
      </trkpt>
      <trkpt lat="48.736032" lon="7.258821">
        <ele>263.0</ele>
        <time>2020-07-11T07:19:38Z</time>
      </trkpt>
      <trkpt lat="48.73599" lon="7.258833">
        <ele>263.0</ele>
        <time>2020-07-11T07:19:40Z</time>
      </trkpt>
      <trkpt lat="48.735949" lon="7.258852">
        <ele>263.0</ele>
        <time>2020-07-11T07:19:42Z</time>
      </trkpt>
      <trkpt lat="48.73589" lon="7.258892">
        <ele>262.0</ele>
        <time>2020-07-11T07:19:44Z</time>
      </trkpt>
      <trkpt lat="48.735869" lon="7.259009">
        <ele>263.0</ele>
        <time>2020-07-11T07:19:46Z</time>
      </trkpt>
      <trkpt lat="48.7359" lon="7.259259">
        <ele>262.0</ele>
        <time>2020-07-11T07:19:49Z</time>
      </trkpt>
      <trkpt lat="48.735961" lon="7.259528">
        <ele>261.0</ele>
        <time>2020-07-11T07:19:52Z</time>
      </trkpt>
      <trkpt lat="48.736019" lon="7.259698">
        <ele>260.0</ele>
        <time>2020-07-11T07:19:54Z</time>
      </trkpt>
      <trkpt lat="48.736087" lon="7.259852">
        <ele>260.0</ele>
        <time>2020-07-11T07:19:56Z</time>
      </trkpt>
      <trkpt lat="48.7362" lon="7.260076">
        <ele>260.0</ele>
        <time>2020-07-11T07:19:59Z</time>
      </trkpt>
      <trkpt lat="48.736276" lon="7.260246">
        <ele>260.0</ele>
        <time>2020-07-11T07:20:01Z</time>
      </trkpt>
      <trkpt lat="48.73635" lon="7.260392">
        <ele>260.0</ele>
        <time>2020-07-11T07:20:03Z</time>
      </trkpt>
      <trkpt lat="48.736452" lon="7.260601">
        <ele>260.0</ele>
        <time>2020-07-11T07:20:06Z</time>
      </trkpt>
      <trkpt lat="48.736521" lon="7.260744">
        <ele>259.0</ele>
        <time>2020-07-11T07:20:08Z</time>
      </trkpt>
      <trkpt lat="48.736591" lon="7.260893">
        <ele>259.0</ele>
        <time>2020-07-11T07:20:10Z</time>
      </trkpt>
      <trkpt lat="48.73666" lon="7.261032">
        <ele>259.0</ele>
        <time>2020-07-11T07:20:12Z</time>
      </trkpt>
      <trkpt lat="48.736715" lon="7.261172">
        <ele>259.0</ele>
        <time>2020-07-11T07:20:14Z</time>
      </trkpt>
      <trkpt lat="48.736808" lon="7.261391">
        <ele>258.0</ele>
        <time>2020-07-11T07:20:17Z</time>
      </trkpt>
      <trkpt lat="48.73687" lon="7.261534">
        <ele>258.0</ele>
        <time>2020-07-11T07:20:19Z</time>
      </trkpt>
      <trkpt lat="48.736939" lon="7.261677">
        <ele>259.0</ele>
        <time>2020-07-11T07:20:21Z</time>
      </trkpt>
      <trkpt lat="48.736998" lon="7.261818">
        <ele>259.0</ele>
        <time>2020-07-11T07:20:23Z</time>
      </trkpt>
      <trkpt lat="48.737062" lon="7.261962">
        <ele>259.0</ele>
        <time>2020-07-11T07:20:25Z</time>
      </trkpt>
      <trkpt lat="48.737127" lon="7.262099">
        <ele>259.0</ele>
        <time>2020-07-11T07:20:27Z</time>
      </trkpt>
      <trkpt lat="48.737193" lon="7.262236">
        <ele>259.0</ele>
        <time>2020-07-11T07:20:29Z</time>
      </trkpt>
      <trkpt lat="48.737257" lon="7.262377">
        <ele>259.0</ele>
        <time>2020-07-11T07:20:31Z</time>
      </trkpt>
      <trkpt lat="48.737359" lon="7.262584">
        <ele>259.0</ele>
        <time>2020-07-11T07:20:34Z</time>
      </trkpt>
      <trkpt lat="48.737427" lon="7.262732">
        <ele>260.0</ele>
        <time>2020-07-11T07:20:36Z</time>
      </trkpt>
      <trkpt lat="48.737487" lon="7.262871">
        <ele>260.0</ele>
        <time>2020-07-11T07:20:38Z</time>
      </trkpt>
      <trkpt lat="48.737582" lon="7.263085">
        <ele>259.0</ele>
        <time>2020-07-11T07:20:41Z</time>
      </trkpt>
      <trkpt lat="48.737651" lon="7.263226">
        <ele>259.0</ele>
        <time>2020-07-11T07:20:43Z</time>
      </trkpt>
      <trkpt lat="48.737715" lon="7.263358">
        <ele>258.0</ele>
        <time>2020-07-11T07:20:45Z</time>
      </trkpt>
      <trkpt lat="48.73778" lon="7.263504">
        <ele>258.0</ele>
        <time>2020-07-11T07:20:47Z</time>
      </trkpt>
      <trkpt lat="48.737844" lon="7.263654">
        <ele>258.0</ele>
        <time>2020-07-11T07:20:49Z</time>
      </trkpt>
      <trkpt lat="48.737891" lon="7.263796">
        <ele>258.0</ele>
        <time>2020-07-11T07:20:51Z</time>
      </trkpt>
      <trkpt lat="48.737957" lon="7.264004">
        <ele>258.0</ele>
        <time>2020-07-11T07:20:54Z</time>
      </trkpt>
      <trkpt lat="48.737994" lon="7.264152">
        <ele>258.0</ele>
        <time>2020-07-11T07:20:56Z</time>
      </trkpt>
      <trkpt lat="48.738013" lon="7.264227">
        <ele>259.0</ele>
        <time>2020-07-11T07:20:57Z</time>
      </trkpt>
      <trkpt lat="48.738058" lon="7.264444">
        <ele>259.0</ele>
        <time>2020-07-11T07:21:00Z</time>
      </trkpt>
      <trkpt lat="48.738086" lon="7.264606">
        <ele>259.0</ele>
        <time>2020-07-11T07:21:02Z</time>
      </trkpt>
      <trkpt lat="48.738112" lon="7.264756">
        <ele>259.0</ele>
        <time>2020-07-11T07:21:04Z</time>
      </trkpt>
      <trkpt lat="48.738133" lon="7.264906">
        <ele>259.0</ele>
        <time>2020-07-11T07:21:06Z</time>
      </trkpt>
      <trkpt lat="48.738139" lon="7.265062">
        <ele>259.0</ele>
        <time>2020-07-11T07:21:08Z</time>
      </trkpt>
      <trkpt lat="48.738152" lon="7.265283">
        <ele>258.0</ele>
        <time>2020-07-11T07:21:11Z</time>
      </trkpt>
      <trkpt lat="48.738166" lon="7.265449">
        <ele>257.0</ele>
        <time>2020-07-11T07:21:13Z</time>
      </trkpt>
      <trkpt lat="48.738168" lon="7.265605">
        <ele>257.0</ele>
        <time>2020-07-11T07:21:15Z</time>
      </trkpt>
      <trkpt lat="48.73817" lon="7.265837">
        <ele>257.0</ele>
        <time>2020-07-11T07:21:18Z</time>
      </trkpt>
      <trkpt lat="48.738179" lon="7.266001">
        <ele>257.0</ele>
        <time>2020-07-11T07:21:20Z</time>
      </trkpt>
      <trkpt lat="48.738171" lon="7.266162">
        <ele>258.0</ele>
        <time>2020-07-11T07:21:22Z</time>
      </trkpt>
      <trkpt lat="48.738154" lon="7.266418">
        <ele>259.0</ele>
        <time>2020-07-11T07:21:25Z</time>
      </trkpt>
      <trkpt lat="48.738154" lon="7.266493">
        <ele>258.0</ele>
        <time>2020-07-11T07:21:26Z</time>
      </trkpt>
      <trkpt lat="48.738134" lon="7.266813">
        <ele>258.0</ele>
        <time>2020-07-11T07:21:30Z</time>
      </trkpt>
      <trkpt lat="48.738128" lon="7.266898">
        <ele>258.0</ele>
        <time>2020-07-11T07:21:31Z</time>
      </trkpt>
      <trkpt lat="48.738117" lon="7.267136">
        <ele>257.0</ele>
        <time>2020-07-11T07:21:34Z</time>
      </trkpt>
      <trkpt lat="48.738113" lon="7.267298">
        <ele>257.0</ele>
        <time>2020-07-11T07:21:36Z</time>
      </trkpt>
      <trkpt lat="48.738108" lon="7.267462">
        <ele>257.0</ele>
        <time>2020-07-11T07:21:38Z</time>
      </trkpt>
      <trkpt lat="48.738101" lon="7.267625">
        <ele>257.0</ele>
        <time>2020-07-11T07:21:40Z</time>
      </trkpt>
      <trkpt lat="48.738097" lon="7.267787">
        <ele>257.0</ele>
        <time>2020-07-11T07:21:42Z</time>
      </trkpt>
      <trkpt lat="48.738091" lon="7.267954">
        <ele>257.0</ele>
        <time>2020-07-11T07:21:44Z</time>
      </trkpt>
      <trkpt lat="48.738085" lon="7.268117">
        <ele>258.0</ele>
        <time>2020-07-11T07:21:46Z</time>
      </trkpt>
      <trkpt lat="48.738076" lon="7.268275">
        <ele>258.0</ele>
        <time>2020-07-11T07:21:48Z</time>
      </trkpt>
      <trkpt lat="48.738059" lon="7.268511">
        <ele>258.0</ele>
        <time>2020-07-11T07:21:51Z</time>
      </trkpt>
      <trkpt lat="48.738051" lon="7.268673">
        <ele>258.0</ele>
        <time>2020-07-11T07:21:53Z</time>
      </trkpt>
      <trkpt lat="48.738047" lon="7.268839">
        <ele>258.0</ele>
        <time>2020-07-11T07:21:55Z</time>
      </trkpt>
      <trkpt lat="48.738049" lon="7.269">
        <ele>258.0</ele>
        <time>2020-07-11T07:21:57Z</time>
      </trkpt>
      <trkpt lat="48.738047" lon="7.269158">
        <ele>258.0</ele>
        <time>2020-07-11T07:21:59Z</time>
      </trkpt>
      <trkpt lat="48.738039" lon="7.269323">
        <ele>258.0</ele>
        <time>2020-07-11T07:22:01Z</time>
      </trkpt>
      <trkpt lat="48.738028" lon="7.269478">
        <ele>259.0</ele>
        <time>2020-07-11T07:22:03Z</time>
      </trkpt>
      <trkpt lat="48.738018" lon="7.269642">
        <ele>258.0</ele>
        <time>2020-07-11T07:22:05Z</time>
      </trkpt>
      <trkpt lat="48.738004" lon="7.269888">
        <ele>258.0</ele>
        <time>2020-07-11T07:22:08Z</time>
      </trkpt>
      <trkpt lat="48.737984" lon="7.270041">
        <ele>257.0</ele>
        <time>2020-07-11T07:22:10Z</time>
      </trkpt>
      <trkpt lat="48.737973" lon="7.270211">
        <ele>257.0</ele>
        <time>2020-07-11T07:22:12Z</time>
      </trkpt>
      <trkpt lat="48.737971" lon="7.27044">
        <ele>257.0</ele>
        <time>2020-07-11T07:22:15Z</time>
      </trkpt>
      <trkpt lat="48.737953" lon="7.270594">
        <ele>257.0</ele>
        <time>2020-07-11T07:22:17Z</time>
      </trkpt>
      <trkpt lat="48.737936" lon="7.27074">
        <ele>257.0</ele>
        <time>2020-07-11T07:22:19Z</time>
      </trkpt>
      <trkpt lat="48.737918" lon="7.270906">
        <ele>257.0</ele>
        <time>2020-07-11T07:22:21Z</time>
      </trkpt>
      <trkpt lat="48.73789" lon="7.271064">
        <ele>257.0</ele>
        <time>2020-07-11T07:22:23Z</time>
      </trkpt>
      <trkpt lat="48.737838" lon="7.271288">
        <ele>257.0</ele>
        <time>2020-07-11T07:22:26Z</time>
      </trkpt>
      <trkpt lat="48.737809" lon="7.271437">
        <ele>257.0</ele>
        <time>2020-07-11T07:22:28Z</time>
      </trkpt>
      <trkpt lat="48.737773" lon="7.271579">
        <ele>257.0</ele>
        <time>2020-07-11T07:22:30Z</time>
      </trkpt>
      <trkpt lat="48.737719" lon="7.271721">
        <ele>257.0</ele>
        <time>2020-07-11T07:22:32Z</time>
      </trkpt>
      <trkpt lat="48.737674" lon="7.271862">
        <ele>257.0</ele>
        <time>2020-07-11T07:22:34Z</time>
      </trkpt>
      <trkpt lat="48.73762" lon="7.272003">
        <ele>257.0</ele>
        <time>2020-07-11T07:22:36Z</time>
      </trkpt>
      <trkpt lat="48.737563" lon="7.272138">
        <ele>258.0</ele>
        <time>2020-07-11T07:22:38Z</time>
      </trkpt>
      <trkpt lat="48.737499" lon="7.27227">
        <ele>257.0</ele>
        <time>2020-07-11T07:22:40Z</time>
      </trkpt>
      <trkpt lat="48.737434" lon="7.272409">
        <ele>257.0</ele>
        <time>2020-07-11T07:22:42Z</time>
      </trkpt>
      <trkpt lat="48.73737" lon="7.272541">
        <ele>257.0</ele>
        <time>2020-07-11T07:22:44Z</time>
      </trkpt>
      <trkpt lat="48.737309" lon="7.272668">
        <ele>257.0</ele>
        <time>2020-07-11T07:22:46Z</time>
      </trkpt>
      <trkpt lat="48.73724" lon="7.272797">
        <ele>257.0</ele>
        <time>2020-07-11T07:22:48Z</time>
      </trkpt>
      <trkpt lat="48.737163" lon="7.27292">
        <ele>257.0</ele>
        <time>2020-07-11T07:22:50Z</time>
      </trkpt>
      <trkpt lat="48.737047" lon="7.273074">
        <ele>256.0</ele>
        <time>2020-07-11T07:22:53Z</time>
      </trkpt>
      <trkpt lat="48.736961" lon="7.273204">
        <ele>256.0</ele>
        <time>2020-07-11T07:22:55Z</time>
      </trkpt>
      <trkpt lat="48.736871" lon="7.273364">
        <ele>256.0</ele>
        <time>2020-07-11T07:22:57Z</time>
      </trkpt>
      <trkpt lat="48.736776" lon="7.273529">
        <ele>257.0</ele>
        <time>2020-07-11T07:22:59Z</time>
      </trkpt>
      <trkpt lat="48.73668" lon="7.273699">
        <ele>257.0</ele>
        <time>2020-07-11T07:23:01Z</time>
      </trkpt>
      <trkpt lat="48.736588" lon="7.273863">
        <ele>257.0</ele>
        <time>2020-07-11T07:23:03Z</time>
      </trkpt>
      <trkpt lat="48.736499" lon="7.274014">
        <ele>257.0</ele>
        <time>2020-07-11T07:23:05Z</time>
      </trkpt>
      <trkpt lat="48.736406" lon="7.274172">
        <ele>257.0</ele>
        <time>2020-07-11T07:23:07Z</time>
      </trkpt>
      <trkpt lat="48.736315" lon="7.274319">
        <ele>257.0</ele>
        <time>2020-07-11T07:23:09Z</time>
      </trkpt>
      <trkpt lat="48.736232" lon="7.274468">
        <ele>257.0</ele>
        <time>2020-07-11T07:23:11Z</time>
      </trkpt>
      <trkpt lat="48.736148" lon="7.274605">
        <ele>256.0</ele>
        <time>2020-07-11T07:23:13Z</time>
      </trkpt>
      <trkpt lat="48.736063" lon="7.274744">
        <ele>255.0</ele>
        <time>2020-07-11T07:23:15Z</time>
      </trkpt>
      <trkpt lat="48.735936" lon="7.274958">
        <ele>255.0</ele>
        <time>2020-07-11T07:23:18Z</time>
      </trkpt>
      <trkpt lat="48.735854" lon="7.275096">
        <ele>255.0</ele>
        <time>2020-07-11T07:23:20Z</time>
      </trkpt>
      <trkpt lat="48.735777" lon="7.275234">
        <ele>255.0</ele>
        <time>2020-07-11T07:23:22Z</time>
      </trkpt>
      <trkpt lat="48.735659" lon="7.275425">
        <ele>254.0</ele>
        <time>2020-07-11T07:23:25Z</time>
      </trkpt>
      <trkpt lat="48.735579" lon="7.275564">
        <ele>254.0</ele>
        <time>2020-07-11T07:23:27Z</time>
      </trkpt>
      <trkpt lat="48.735506" lon="7.275702">
        <ele>254.0</ele>
        <time>2020-07-11T07:23:29Z</time>
      </trkpt>
      <trkpt lat="48.73543" lon="7.275833">
        <ele>254.0</ele>
        <time>2020-07-11T07:23:31Z</time>
      </trkpt>
      <trkpt lat="48.735357" lon="7.275973">
        <ele>253.0</ele>
        <time>2020-07-11T07:23:33Z</time>
      </trkpt>
      <trkpt lat="48.73529" lon="7.276124">
        <ele>253.0</ele>
        <time>2020-07-11T07:23:35Z</time>
      </trkpt>
      <trkpt lat="48.735226" lon="7.276273">
        <ele>254.0</ele>
        <time>2020-07-11T07:23:37Z</time>
      </trkpt>
      <trkpt lat="48.735163" lon="7.276417">
        <ele>253.0</ele>
        <time>2020-07-11T07:23:39Z</time>
      </trkpt>
      <trkpt lat="48.735105" lon="7.276564">
        <ele>253.0</ele>
        <time>2020-07-11T07:23:41Z</time>
      </trkpt>
      <trkpt lat="48.73505" lon="7.276723">
        <ele>253.0</ele>
        <time>2020-07-11T07:23:43Z</time>
      </trkpt>
      <trkpt lat="48.734995" lon="7.276878">
        <ele>253.0</ele>
        <time>2020-07-11T07:23:45Z</time>
      </trkpt>
      <trkpt lat="48.734937" lon="7.277034">
        <ele>253.0</ele>
        <time>2020-07-11T07:23:47Z</time>
      </trkpt>
      <trkpt lat="48.734859" lon="7.277287">
        <ele>253.0</ele>
        <time>2020-07-11T07:23:50Z</time>
      </trkpt>
      <trkpt lat="48.734807" lon="7.27744">
        <ele>253.0</ele>
        <time>2020-07-11T07:23:52Z</time>
      </trkpt>
      <trkpt lat="48.734747" lon="7.277591">
        <ele>253.0</ele>
        <time>2020-07-11T07:23:54Z</time>
      </trkpt>
      <trkpt lat="48.734686" lon="7.277741">
        <ele>253.0</ele>
        <time>2020-07-11T07:23:56Z</time>
      </trkpt>
      <trkpt lat="48.734632" lon="7.277884">
        <ele>253.0</ele>
        <time>2020-07-11T07:23:58Z</time>
      </trkpt>
      <trkpt lat="48.734586" lon="7.278031">
        <ele>253.0</ele>
        <time>2020-07-11T07:24:00Z</time>
      </trkpt>
      <trkpt lat="48.734531" lon="7.278176">
        <ele>253.0</ele>
        <time>2020-07-11T07:24:02Z</time>
      </trkpt>
      <trkpt lat="48.734484" lon="7.278318">
        <ele>253.0</ele>
        <time>2020-07-11T07:24:04Z</time>
      </trkpt>
      <trkpt lat="48.734431" lon="7.278459">
        <ele>253.0</ele>
        <time>2020-07-11T07:24:06Z</time>
      </trkpt>
      <trkpt lat="48.734373" lon="7.278597">
        <ele>253.0</ele>
        <time>2020-07-11T07:24:08Z</time>
      </trkpt>
      <trkpt lat="48.734324" lon="7.278752">
        <ele>253.0</ele>
        <time>2020-07-11T07:24:10Z</time>
      </trkpt>
      <trkpt lat="48.734272" lon="7.278894">
        <ele>254.0</ele>
        <time>2020-07-11T07:24:12Z</time>
      </trkpt>
      <trkpt lat="48.734224" lon="7.279031">
        <ele>254.0</ele>
        <time>2020-07-11T07:24:14Z</time>
      </trkpt>
      <trkpt lat="48.734174" lon="7.279176">
        <ele>255.0</ele>
        <time>2020-07-11T07:24:16Z</time>
      </trkpt>
      <trkpt lat="48.734098" lon="7.279386">
        <ele>255.0</ele>
        <time>2020-07-11T07:24:19Z</time>
      </trkpt>
      <trkpt lat="48.734076" lon="7.279454">
        <ele>255.0</ele>
        <time>2020-07-11T07:24:20Z</time>
      </trkpt>
      <trkpt lat="48.734006" lon="7.279659">
        <ele>254.0</ele>
        <time>2020-07-11T07:24:23Z</time>
      </trkpt>
      <trkpt lat="48.733961" lon="7.279795">
        <ele>254.0</ele>
        <time>2020-07-11T07:24:25Z</time>
      </trkpt>
      <trkpt lat="48.733909" lon="7.279939">
        <ele>254.0</ele>
        <time>2020-07-11T07:24:27Z</time>
      </trkpt>
      <trkpt lat="48.733861" lon="7.280077">
        <ele>254.0</ele>
        <time>2020-07-11T07:24:29Z</time>
      </trkpt>
      <trkpt lat="48.733837" lon="7.280148">
        <ele>254.0</ele>
        <time>2020-07-11T07:24:30Z</time>
      </trkpt>
      <trkpt lat="48.73373" lon="7.280421">
        <ele>254.0</ele>
        <time>2020-07-11T07:24:34Z</time>
      </trkpt>
      <trkpt lat="48.733677" lon="7.280565">
        <ele>254.0</ele>
        <time>2020-07-11T07:24:36Z</time>
      </trkpt>
      <trkpt lat="48.733627" lon="7.280709">
        <ele>255.0</ele>
        <time>2020-07-11T07:24:38Z</time>
      </trkpt>
      <trkpt lat="48.733577" lon="7.280857">
        <ele>255.0</ele>
        <time>2020-07-11T07:24:40Z</time>
      </trkpt>
      <trkpt lat="48.733529" lon="7.28099">
        <ele>255.0</ele>
        <time>2020-07-11T07:24:42Z</time>
      </trkpt>
      <trkpt lat="48.733476" lon="7.281128">
        <ele>255.0</ele>
        <time>2020-07-11T07:24:44Z</time>
      </trkpt>
      <trkpt lat="48.733451" lon="7.281198">
        <ele>255.0</ele>
        <time>2020-07-11T07:24:45Z</time>
      </trkpt>
      <trkpt lat="48.733388" lon="7.281388">
        <ele>254.0</ele>
        <time>2020-07-11T07:24:48Z</time>
      </trkpt>
      <trkpt lat="48.733347" lon="7.281527">
        <ele>255.0</ele>
        <time>2020-07-11T07:24:50Z</time>
      </trkpt>
      <trkpt lat="48.733303" lon="7.281679">
        <ele>255.0</ele>
        <time>2020-07-11T07:24:52Z</time>
      </trkpt>
      <trkpt lat="48.733253" lon="7.281815">
        <ele>255.0</ele>
        <time>2020-07-11T07:24:54Z</time>
      </trkpt>
      <trkpt lat="48.733205" lon="7.281952">
        <ele>255.0</ele>
        <time>2020-07-11T07:24:56Z</time>
      </trkpt>
      <trkpt lat="48.733153" lon="7.282078">
        <ele>255.0</ele>
        <time>2020-07-11T07:24:58Z</time>
      </trkpt>
      <trkpt lat="48.733106" lon="7.282209">
        <ele>254.0</ele>
        <time>2020-07-11T07:25:00Z</time>
      </trkpt>
      <trkpt lat="48.733058" lon="7.282361">
        <ele>253.0</ele>
        <time>2020-07-11T07:25:02Z</time>
      </trkpt>
      <trkpt lat="48.733005" lon="7.282523">
        <ele>253.0</ele>
        <time>2020-07-11T07:25:04Z</time>
      </trkpt>
      <trkpt lat="48.732926" lon="7.282799">
        <ele>253.0</ele>
        <time>2020-07-11T07:25:07Z</time>
      </trkpt>
      <trkpt lat="48.732866" lon="7.282977">
        <ele>253.0</ele>
        <time>2020-07-11T07:25:09Z</time>
      </trkpt>
      <trkpt lat="48.732801" lon="7.283157">
        <ele>253.0</ele>
        <time>2020-07-11T07:25:11Z</time>
      </trkpt>
      <trkpt lat="48.732739" lon="7.283326">
        <ele>253.0</ele>
        <time>2020-07-11T07:25:13Z</time>
      </trkpt>
      <trkpt lat="48.732681" lon="7.28349">
        <ele>253.0</ele>
        <time>2020-07-11T07:25:15Z</time>
      </trkpt>
      <trkpt lat="48.732627" lon="7.283664">
        <ele>253.0</ele>
        <time>2020-07-11T07:25:17Z</time>
      </trkpt>
      <trkpt lat="48.73257" lon="7.283831">
        <ele>254.0</ele>
        <time>2020-07-11T07:25:19Z</time>
      </trkpt>
      <trkpt lat="48.732512" lon="7.283992">
        <ele>254.0</ele>
        <time>2020-07-11T07:25:21Z</time>
      </trkpt>
      <trkpt lat="48.732456" lon="7.284149">
        <ele>254.0</ele>
        <time>2020-07-11T07:25:23Z</time>
      </trkpt>
      <trkpt lat="48.732391" lon="7.284306">
        <ele>253.0</ele>
        <time>2020-07-11T07:25:25Z</time>
      </trkpt>
      <trkpt lat="48.732337" lon="7.284471">
        <ele>253.0</ele>
        <time>2020-07-11T07:25:27Z</time>
      </trkpt>
      <trkpt lat="48.732274" lon="7.284627">
        <ele>253.0</ele>
        <time>2020-07-11T07:25:29Z</time>
      </trkpt>
      <trkpt lat="48.732213" lon="7.284789">
        <ele>253.0</ele>
        <time>2020-07-11T07:25:31Z</time>
      </trkpt>
      <trkpt lat="48.732152" lon="7.284945">
        <ele>253.0</ele>
        <time>2020-07-11T07:25:33Z</time>
      </trkpt>
      <trkpt lat="48.732072" lon="7.285175">
        <ele>253.0</ele>
        <time>2020-07-11T07:25:36Z</time>
      </trkpt>
      <trkpt lat="48.732022" lon="7.285334">
        <ele>253.0</ele>
        <time>2020-07-11T07:25:38Z</time>
      </trkpt>
      <trkpt lat="48.731973" lon="7.285474">
        <ele>252.0</ele>
        <time>2020-07-11T07:25:40Z</time>
      </trkpt>
      <trkpt lat="48.73195" lon="7.285547">
        <ele>253.0</ele>
        <time>2020-07-11T07:25:41Z</time>
      </trkpt>
      <trkpt lat="48.731876" lon="7.285766">
        <ele>252.0</ele>
        <time>2020-07-11T07:25:44Z</time>
      </trkpt>
      <trkpt lat="48.731826" lon="7.28591">
        <ele>252.0</ele>
        <time>2020-07-11T07:25:46Z</time>
      </trkpt>
      <trkpt lat="48.731774" lon="7.286053">
        <ele>252.0</ele>
        <time>2020-07-11T07:25:48Z</time>
      </trkpt>
      <trkpt lat="48.731713" lon="7.286275">
        <ele>252.0</ele>
        <time>2020-07-11T07:25:51Z</time>
      </trkpt>
      <trkpt lat="48.731675" lon="7.286417">
        <ele>252.0</ele>
        <time>2020-07-11T07:25:53Z</time>
      </trkpt>
      <trkpt lat="48.731636" lon="7.28656">
        <ele>253.0</ele>
        <time>2020-07-11T07:25:55Z</time>
      </trkpt>
      <trkpt lat="48.731602" lon="7.286704">
        <ele>254.0</ele>
        <time>2020-07-11T07:25:57Z</time>
      </trkpt>
      <trkpt lat="48.731575" lon="7.286855">
        <ele>254.0</ele>
        <time>2020-07-11T07:25:59Z</time>
      </trkpt>
      <trkpt lat="48.731538" lon="7.28701">
        <ele>254.0</ele>
        <time>2020-07-11T07:26:01Z</time>
      </trkpt>
      <trkpt lat="48.731469" lon="7.287231">
        <ele>253.0</ele>
        <time>2020-07-11T07:26:04Z</time>
      </trkpt>
      <trkpt lat="48.731435" lon="7.287372">
        <ele>253.0</ele>
        <time>2020-07-11T07:26:06Z</time>
      </trkpt>
      <trkpt lat="48.731398" lon="7.287518">
        <ele>254.0</ele>
        <time>2020-07-11T07:26:08Z</time>
      </trkpt>
      <trkpt lat="48.731366" lon="7.28768">
        <ele>254.0</ele>
        <time>2020-07-11T07:26:10Z</time>
      </trkpt>
      <trkpt lat="48.731315" lon="7.287932">
        <ele>255.0</ele>
        <time>2020-07-11T07:26:13Z</time>
      </trkpt>
      <trkpt lat="48.731288" lon="7.288092">
        <ele>255.0</ele>
        <time>2020-07-11T07:26:15Z</time>
      </trkpt>
      <trkpt lat="48.731254" lon="7.288249">
        <ele>254.0</ele>
        <time>2020-07-11T07:26:17Z</time>
      </trkpt>
      <trkpt lat="48.731222" lon="7.288419">
        <ele>255.0</ele>
        <time>2020-07-11T07:26:19Z</time>
      </trkpt>
      <trkpt lat="48.731188" lon="7.288575">
        <ele>255.0</ele>
        <time>2020-07-11T07:26:21Z</time>
      </trkpt>
      <trkpt lat="48.731158" lon="7.288734">
        <ele>255.0</ele>
        <time>2020-07-11T07:26:23Z</time>
      </trkpt>
      <trkpt lat="48.731125" lon="7.288882">
        <ele>256.0</ele>
        <time>2020-07-11T07:26:25Z</time>
      </trkpt>
      <trkpt lat="48.731089" lon="7.289035">
        <ele>256.0</ele>
        <time>2020-07-11T07:26:27Z</time>
      </trkpt>
      <trkpt lat="48.731051" lon="7.289186">
        <ele>256.0</ele>
        <time>2020-07-11T07:26:29Z</time>
      </trkpt>
      <trkpt lat="48.731015" lon="7.289336">
        <ele>256.0</ele>
        <time>2020-07-11T07:26:31Z</time>
      </trkpt>
      <trkpt lat="48.730972" lon="7.28949">
        <ele>256.0</ele>
        <time>2020-07-11T07:26:33Z</time>
      </trkpt>
      <trkpt lat="48.730939" lon="7.289637">
        <ele>255.0</ele>
        <time>2020-07-11T07:26:35Z</time>
      </trkpt>
      <trkpt lat="48.730898" lon="7.289806">
        <ele>255.0</ele>
        <time>2020-07-11T07:26:37Z</time>
      </trkpt>
      <trkpt lat="48.730881" lon="7.289874">
        <ele>255.0</ele>
        <time>2020-07-11T07:26:38Z</time>
      </trkpt>
      <trkpt lat="48.73084" lon="7.2901">
        <ele>254.0</ele>
        <time>2020-07-11T07:26:41Z</time>
      </trkpt>
      <trkpt lat="48.730821" lon="7.290252">
        <ele>253.0</ele>
        <time>2020-07-11T07:26:43Z</time>
      </trkpt>
      <trkpt lat="48.730787" lon="7.290482">
        <ele>253.0</ele>
        <time>2020-07-11T07:26:46Z</time>
      </trkpt>
      <trkpt lat="48.730769" lon="7.290631">
        <ele>254.0</ele>
        <time>2020-07-11T07:26:48Z</time>
      </trkpt>
      <trkpt lat="48.730748" lon="7.29079">
        <ele>254.0</ele>
        <time>2020-07-11T07:26:50Z</time>
      </trkpt>
      <trkpt lat="48.730716" lon="7.29096">
        <ele>254.0</ele>
        <time>2020-07-11T07:26:52Z</time>
      </trkpt>
      <trkpt lat="48.730684" lon="7.291137">
        <ele>253.0</ele>
        <time>2020-07-11T07:26:54Z</time>
      </trkpt>
      <trkpt lat="48.730652" lon="7.291304">
        <ele>254.0</ele>
        <time>2020-07-11T07:26:56Z</time>
      </trkpt>
      <trkpt lat="48.730626" lon="7.291462">
        <ele>254.0</ele>
        <time>2020-07-11T07:26:58Z</time>
      </trkpt>
      <trkpt lat="48.730593" lon="7.291628">
        <ele>254.0</ele>
        <time>2020-07-11T07:27:00Z</time>
      </trkpt>
      <trkpt lat="48.730561" lon="7.291793">
        <ele>253.0</ele>
        <time>2020-07-11T07:27:02Z</time>
      </trkpt>
      <trkpt lat="48.730509" lon="7.292035">
        <ele>255.0</ele>
        <time>2020-07-11T07:27:05Z</time>
      </trkpt>
      <trkpt lat="48.730467" lon="7.292194">
        <ele>255.0</ele>
        <time>2020-07-11T07:27:07Z</time>
      </trkpt>
      <trkpt lat="48.730419" lon="7.292345">
        <ele>255.0</ele>
        <time>2020-07-11T07:27:09Z</time>
      </trkpt>
      <trkpt lat="48.730379" lon="7.292493">
        <ele>254.0</ele>
        <time>2020-07-11T07:27:11Z</time>
      </trkpt>
      <trkpt lat="48.73034" lon="7.29263">
        <ele>254.0</ele>
        <time>2020-07-11T07:27:13Z</time>
      </trkpt>
      <trkpt lat="48.730303" lon="7.292772">
        <ele>253.0</ele>
        <time>2020-07-11T07:27:15Z</time>
      </trkpt>
      <trkpt lat="48.73026" lon="7.292921">
        <ele>253.0</ele>
        <time>2020-07-11T07:27:17Z</time>
      </trkpt>
      <trkpt lat="48.730196" lon="7.293148">
        <ele>252.0</ele>
        <time>2020-07-11T07:27:20Z</time>
      </trkpt>
      <trkpt lat="48.73016" lon="7.293296">
        <ele>252.0</ele>
        <time>2020-07-11T07:27:22Z</time>
      </trkpt>
      <trkpt lat="48.730139" lon="7.293371">
        <ele>252.0</ele>
        <time>2020-07-11T07:27:23Z</time>
      </trkpt>
      <trkpt lat="48.730091" lon="7.293522">
        <ele>252.0</ele>
        <time>2020-07-11T07:27:25Z</time>
      </trkpt>
      <trkpt lat="48.730018" lon="7.293752">
        <ele>252.0</ele>
        <time>2020-07-11T07:27:28Z</time>
      </trkpt>
      <trkpt lat="48.729971" lon="7.293909">
        <ele>252.0</ele>
        <time>2020-07-11T07:27:30Z</time>
      </trkpt>
      <trkpt lat="48.729929" lon="7.294066">
        <ele>252.0</ele>
        <time>2020-07-11T07:27:32Z</time>
      </trkpt>
      <trkpt lat="48.729895" lon="7.294218">
        <ele>252.0</ele>
        <time>2020-07-11T07:27:34Z</time>
      </trkpt>
      <trkpt lat="48.729859" lon="7.294372">
        <ele>252.0</ele>
        <time>2020-07-11T07:27:36Z</time>
      </trkpt>
      <trkpt lat="48.729805" lon="7.294601">
        <ele>252.0</ele>
        <time>2020-07-11T07:27:39Z</time>
      </trkpt>
      <trkpt lat="48.729768" lon="7.294766">
        <ele>252.0</ele>
        <time>2020-07-11T07:27:41Z</time>
      </trkpt>
      <trkpt lat="48.72973" lon="7.294924">
        <ele>252.0</ele>
        <time>2020-07-11T07:27:43Z</time>
      </trkpt>
      <trkpt lat="48.729687" lon="7.29508">
        <ele>252.0</ele>
        <time>2020-07-11T07:27:45Z</time>
      </trkpt>
      <trkpt lat="48.729651" lon="7.295242">
        <ele>252.0</ele>
        <time>2020-07-11T07:27:47Z</time>
      </trkpt>
      <trkpt lat="48.729617" lon="7.295402">
        <ele>252.0</ele>
        <time>2020-07-11T07:27:49Z</time>
      </trkpt>
      <trkpt lat="48.729571" lon="7.295641">
        <ele>252.0</ele>
        <time>2020-07-11T07:27:52Z</time>
      </trkpt>
      <trkpt lat="48.729541" lon="7.295811">
        <ele>252.0</ele>
        <time>2020-07-11T07:27:54Z</time>
      </trkpt>
      <trkpt lat="48.729498" lon="7.295982">
        <ele>252.0</ele>
        <time>2020-07-11T07:27:56Z</time>
      </trkpt>
      <trkpt lat="48.729455" lon="7.296152">
        <ele>252.0</ele>
        <time>2020-07-11T07:27:58Z</time>
      </trkpt>
      <trkpt lat="48.729411" lon="7.296323">
        <ele>252.0</ele>
        <time>2020-07-11T07:28:00Z</time>
      </trkpt>
      <trkpt lat="48.729376" lon="7.296495">
        <ele>251.0</ele>
        <time>2020-07-11T07:28:02Z</time>
      </trkpt>
      <trkpt lat="48.729333" lon="7.296689">
        <ele>251.0</ele>
        <time>2020-07-11T07:28:04Z</time>
      </trkpt>
      <trkpt lat="48.729256" lon="7.297006">
        <ele>251.0</ele>
        <time>2020-07-11T07:28:07Z</time>
      </trkpt>
      <trkpt lat="48.729207" lon="7.297197">
        <ele>251.0</ele>
        <time>2020-07-11T07:28:09Z</time>
      </trkpt>
      <trkpt lat="48.729163" lon="7.2974">
        <ele>251.0</ele>
        <time>2020-07-11T07:28:11Z</time>
      </trkpt>
      <trkpt lat="48.729114" lon="7.297586">
        <ele>251.0</ele>
        <time>2020-07-11T07:28:13Z</time>
      </trkpt>
      <trkpt lat="48.72907" lon="7.297757">
        <ele>251.0</ele>
        <time>2020-07-11T07:28:15Z</time>
      </trkpt>
      <trkpt lat="48.729028" lon="7.297933">
        <ele>251.0</ele>
        <time>2020-07-11T07:28:17Z</time>
      </trkpt>
      <trkpt lat="48.728989" lon="7.298109">
        <ele>251.0</ele>
        <time>2020-07-11T07:28:19Z</time>
      </trkpt>
      <trkpt lat="48.728945" lon="7.298292">
        <ele>251.0</ele>
        <time>2020-07-11T07:28:21Z</time>
      </trkpt>
      <trkpt lat="48.728888" lon="7.298454">
        <ele>251.0</ele>
        <time>2020-07-11T07:28:23Z</time>
      </trkpt>
      <trkpt lat="48.728834" lon="7.298606">
        <ele>251.0</ele>
        <time>2020-07-11T07:28:25Z</time>
      </trkpt>
      <trkpt lat="48.72877" lon="7.298751">
        <ele>252.0</ele>
        <time>2020-07-11T07:28:27Z</time>
      </trkpt>
      <trkpt lat="48.7287" lon="7.298861">
        <ele>251.0</ele>
        <time>2020-07-11T07:28:29Z</time>
      </trkpt>
      <trkpt lat="48.728604" lon="7.298962">
        <ele>251.0</ele>
        <time>2020-07-11T07:28:31Z</time>
      </trkpt>
      <trkpt lat="48.728512" lon="7.299036">
        <ele>251.0</ele>
        <time>2020-07-11T07:28:33Z</time>
      </trkpt>
      <trkpt lat="48.72842" lon="7.299086">
        <ele>251.0</ele>
        <time>2020-07-11T07:28:35Z</time>
      </trkpt>
      <trkpt lat="48.728309" lon="7.299131">
        <ele>251.0</ele>
        <time>2020-07-11T07:28:37Z</time>
      </trkpt>
      <trkpt lat="48.728188" lon="7.299143">
        <ele>251.0</ele>
        <time>2020-07-11T07:28:39Z</time>
      </trkpt>
      <trkpt lat="48.728062" lon="7.299148">
        <ele>251.0</ele>
        <time>2020-07-11T07:28:41Z</time>
      </trkpt>
      <trkpt lat="48.727941" lon="7.29914">
        <ele>250.0</ele>
        <time>2020-07-11T07:28:43Z</time>
      </trkpt>
      <trkpt lat="48.727825" lon="7.299115">
        <ele>250.0</ele>
        <time>2020-07-11T07:28:45Z</time>
      </trkpt>
      <trkpt lat="48.727711" lon="7.299065">
        <ele>250.0</ele>
        <time>2020-07-11T07:28:47Z</time>
      </trkpt>
      <trkpt lat="48.727552" lon="7.298968">
        <ele>250.0</ele>
        <time>2020-07-11T07:28:50Z</time>
      </trkpt>
      <trkpt lat="48.727435" lon="7.29892">
        <ele>249.0</ele>
        <time>2020-07-11T07:28:52Z</time>
      </trkpt>
      <trkpt lat="48.727282" lon="7.29884">
        <ele>250.0</ele>
        <time>2020-07-11T07:28:55Z</time>
      </trkpt>
      <trkpt lat="48.72723" lon="7.298821">
        <ele>249.0</ele>
        <time>2020-07-11T07:28:56Z</time>
      </trkpt>
      <trkpt lat="48.727123" lon="7.298794">
        <ele>249.0</ele>
        <time>2020-07-11T07:28:58Z</time>
      </trkpt>
      <trkpt lat="48.726957" lon="7.298759">
        <ele>249.0</ele>
        <time>2020-07-11T07:29:01Z</time>
      </trkpt>
      <trkpt lat="48.726852" lon="7.298754">
        <ele>248.0</ele>
        <time>2020-07-11T07:29:03Z</time>
      </trkpt>
      <trkpt lat="48.726741" lon="7.298771">
        <ele>247.0</ele>
        <time>2020-07-11T07:29:05Z</time>
      </trkpt>
      <trkpt lat="48.726645" lon="7.298807">
        <ele>246.0</ele>
        <time>2020-07-11T07:29:07Z</time>
      </trkpt>
      <trkpt lat="48.726536" lon="7.298843">
        <ele>246.0</ele>
        <time>2020-07-11T07:29:09Z</time>
      </trkpt>
      <trkpt lat="48.726433" lon="7.2989">
        <ele>245.0</ele>
        <time>2020-07-11T07:29:11Z</time>
      </trkpt>
      <trkpt lat="48.726331" lon="7.298979">
        <ele>245.0</ele>
        <time>2020-07-11T07:29:13Z</time>
      </trkpt>
      <trkpt lat="48.726237" lon="7.299063">
        <ele>245.0</ele>
        <time>2020-07-11T07:29:15Z</time>
      </trkpt>
      <trkpt lat="48.72614" lon="7.299155">
        <ele>246.0</ele>
        <time>2020-07-11T07:29:17Z</time>
      </trkpt>
      <trkpt lat="48.726058" lon="7.299262">
        <ele>246.0</ele>
        <time>2020-07-11T07:29:19Z</time>
      </trkpt>
      <trkpt lat="48.725985" lon="7.299386">
        <ele>246.0</ele>
        <time>2020-07-11T07:29:21Z</time>
      </trkpt>
      <trkpt lat="48.725913" lon="7.299512">
        <ele>246.0</ele>
        <time>2020-07-11T07:29:23Z</time>
      </trkpt>
      <trkpt lat="48.725847" lon="7.299649">
        <ele>247.0</ele>
        <time>2020-07-11T07:29:25Z</time>
      </trkpt>
      <trkpt lat="48.725784" lon="7.29979">
        <ele>248.0</ele>
        <time>2020-07-11T07:29:27Z</time>
      </trkpt>
      <trkpt lat="48.725723" lon="7.299944">
        <ele>248.0</ele>
        <time>2020-07-11T07:29:29Z</time>
      </trkpt>
      <trkpt lat="48.725642" lon="7.300165">
        <ele>248.0</ele>
        <time>2020-07-11T07:29:32Z</time>
      </trkpt>
      <trkpt lat="48.725562" lon="7.300461">
        <ele>249.0</ele>
        <time>2020-07-11T07:29:36Z</time>
      </trkpt>
      <trkpt lat="48.725498" lon="7.300694">
        <ele>249.0</ele>
        <time>2020-07-11T07:29:39Z</time>
      </trkpt>
      <trkpt lat="48.725461" lon="7.300845">
        <ele>249.0</ele>
        <time>2020-07-11T07:29:41Z</time>
      </trkpt>
      <trkpt lat="48.725425" lon="7.301004">
        <ele>248.0</ele>
        <time>2020-07-11T07:29:43Z</time>
      </trkpt>
      <trkpt lat="48.725392" lon="7.30117">
        <ele>248.0</ele>
        <time>2020-07-11T07:29:45Z</time>
      </trkpt>
      <trkpt lat="48.725357" lon="7.301329">
        <ele>249.0</ele>
        <time>2020-07-11T07:29:47Z</time>
      </trkpt>
      <trkpt lat="48.725328" lon="7.301486">
        <ele>249.0</ele>
        <time>2020-07-11T07:29:49Z</time>
      </trkpt>
      <trkpt lat="48.725297" lon="7.30165">
        <ele>249.0</ele>
        <time>2020-07-11T07:29:51Z</time>
      </trkpt>
      <trkpt lat="48.72528" lon="7.301731">
        <ele>250.0</ele>
        <time>2020-07-11T07:29:52Z</time>
      </trkpt>
      <trkpt lat="48.725242" lon="7.301897">
        <ele>251.0</ele>
        <time>2020-07-11T07:29:54Z</time>
      </trkpt>
      <trkpt lat="48.725192" lon="7.302147">
        <ele>251.0</ele>
        <time>2020-07-11T07:29:57Z</time>
      </trkpt>
      <trkpt lat="48.725152" lon="7.302301">
        <ele>251.0</ele>
        <time>2020-07-11T07:29:59Z</time>
      </trkpt>
      <trkpt lat="48.725105" lon="7.302456">
        <ele>251.0</ele>
        <time>2020-07-11T07:30:01Z</time>
      </trkpt>
      <trkpt lat="48.725049" lon="7.302616">
        <ele>250.0</ele>
        <time>2020-07-11T07:30:03Z</time>
      </trkpt>
      <trkpt lat="48.724989" lon="7.302775">
        <ele>249.0</ele>
        <time>2020-07-11T07:30:05Z</time>
      </trkpt>
      <trkpt lat="48.724933" lon="7.302938">
        <ele>248.0</ele>
        <time>2020-07-11T07:30:07Z</time>
      </trkpt>
      <trkpt lat="48.724867" lon="7.303116">
        <ele>247.0</ele>
        <time>2020-07-11T07:30:09Z</time>
      </trkpt>
      <trkpt lat="48.724801" lon="7.303285">
        <ele>247.0</ele>
        <time>2020-07-11T07:30:11Z</time>
      </trkpt>
      <trkpt lat="48.724727" lon="7.303456">
        <ele>246.0</ele>
        <time>2020-07-11T07:30:13Z</time>
      </trkpt>
      <trkpt lat="48.724655" lon="7.30362">
        <ele>246.0</ele>
        <time>2020-07-11T07:30:15Z</time>
      </trkpt>
      <trkpt lat="48.72458" lon="7.303775">
        <ele>245.0</ele>
        <time>2020-07-11T07:30:17Z</time>
      </trkpt>
      <trkpt lat="48.724449" lon="7.303994">
        <ele>245.0</ele>
        <time>2020-07-11T07:30:20Z</time>
      </trkpt>
      <trkpt lat="48.724365" lon="7.304131">
        <ele>246.0</ele>
        <time>2020-07-11T07:30:22Z</time>
      </trkpt>
      <trkpt lat="48.724282" lon="7.304265">
        <ele>246.0</ele>
        <time>2020-07-11T07:30:24Z</time>
      </trkpt>
      <trkpt lat="48.724198" lon="7.304393">
        <ele>246.0</ele>
        <time>2020-07-11T07:30:26Z</time>
      </trkpt>
      <trkpt lat="48.724118" lon="7.304521">
        <ele>246.0</ele>
        <time>2020-07-11T07:30:28Z</time>
      </trkpt>
      <trkpt lat="48.724038" lon="7.304643">
        <ele>246.0</ele>
        <time>2020-07-11T07:30:30Z</time>
      </trkpt>
      <trkpt lat="48.723941" lon="7.304768">
        <ele>246.0</ele>
        <time>2020-07-11T07:30:32Z</time>
      </trkpt>
      <trkpt lat="48.723842" lon="7.304888">
        <ele>246.0</ele>
        <time>2020-07-11T07:30:34Z</time>
      </trkpt>
      <trkpt lat="48.72374" lon="7.305006">
        <ele>246.0</ele>
        <time>2020-07-11T07:30:36Z</time>
      </trkpt>
      <trkpt lat="48.723641" lon="7.305117">
        <ele>245.0</ele>
        <time>2020-07-11T07:30:38Z</time>
      </trkpt>
      <trkpt lat="48.723539" lon="7.305215">
        <ele>245.0</ele>
        <time>2020-07-11T07:30:40Z</time>
      </trkpt>
      <trkpt lat="48.723434" lon="7.305323">
        <ele>244.0</ele>
        <time>2020-07-11T07:30:42Z</time>
      </trkpt>
      <trkpt lat="48.723327" lon="7.305426">
        <ele>244.0</ele>
        <time>2020-07-11T07:30:44Z</time>
      </trkpt>
      <trkpt lat="48.723217" lon="7.305518">
        <ele>244.0</ele>
        <time>2020-07-11T07:30:46Z</time>
      </trkpt>
      <trkpt lat="48.723106" lon="7.3056">
        <ele>244.0</ele>
        <time>2020-07-11T07:30:48Z</time>
      </trkpt>
      <trkpt lat="48.723" lon="7.305669">
        <ele>243.0</ele>
        <time>2020-07-11T07:30:50Z</time>
      </trkpt>
      <trkpt lat="48.722885" lon="7.305734">
        <ele>243.0</ele>
        <time>2020-07-11T07:30:52Z</time>
      </trkpt>
      <trkpt lat="48.722772" lon="7.305803">
        <ele>242.0</ele>
        <time>2020-07-11T07:30:54Z</time>
      </trkpt>
      <trkpt lat="48.722655" lon="7.30586">
        <ele>243.0</ele>
        <time>2020-07-11T07:30:56Z</time>
      </trkpt>
      <trkpt lat="48.72248" lon="7.305917">
        <ele>242.0</ele>
        <time>2020-07-11T07:30:59Z</time>
      </trkpt>
      <trkpt lat="48.722421" lon="7.305938">
        <ele>242.0</ele>
        <time>2020-07-11T07:31:00Z</time>
      </trkpt>
      <trkpt lat="48.722241" lon="7.306001">
        <ele>242.0</ele>
        <time>2020-07-11T07:31:03Z</time>
      </trkpt>
      <trkpt lat="48.722125" lon="7.30605">
        <ele>242.0</ele>
        <time>2020-07-11T07:31:05Z</time>
      </trkpt>
      <trkpt lat="48.722008" lon="7.306094">
        <ele>242.0</ele>
        <time>2020-07-11T07:31:07Z</time>
      </trkpt>
      <trkpt lat="48.721894" lon="7.306133">
        <ele>242.0</ele>
        <time>2020-07-11T07:31:09Z</time>
      </trkpt>
      <trkpt lat="48.721782" lon="7.306179">
        <ele>242.0</ele>
        <time>2020-07-11T07:31:11Z</time>
      </trkpt>
      <trkpt lat="48.721671" lon="7.306241">
        <ele>242.0</ele>
        <time>2020-07-11T07:31:13Z</time>
      </trkpt>
      <trkpt lat="48.721503" lon="7.306337">
        <ele>241.0</ele>
        <time>2020-07-11T07:31:16Z</time>
      </trkpt>
      <trkpt lat="48.721453" lon="7.306377">
        <ele>241.0</ele>
        <time>2020-07-11T07:31:17Z</time>
      </trkpt>
      <trkpt lat="48.721309" lon="7.306522">
        <ele>242.0</ele>
        <time>2020-07-11T07:31:20Z</time>
      </trkpt>
      <trkpt lat="48.721222" lon="7.306647">
        <ele>242.0</ele>
        <time>2020-07-11T07:31:22Z</time>
      </trkpt>
      <trkpt lat="48.721143" lon="7.306772">
        <ele>243.0</ele>
        <time>2020-07-11T07:31:24Z</time>
      </trkpt>
      <trkpt lat="48.721038" lon="7.306973">
        <ele>244.0</ele>
        <time>2020-07-11T07:31:27Z</time>
      </trkpt>
      <trkpt lat="48.720981" lon="7.307126">
        <ele>245.0</ele>
        <time>2020-07-11T07:31:29Z</time>
      </trkpt>
      <trkpt lat="48.72092" lon="7.307279">
        <ele>245.0</ele>
        <time>2020-07-11T07:31:31Z</time>
      </trkpt>
      <trkpt lat="48.720893" lon="7.307351">
        <ele>245.0</ele>
        <time>2020-07-11T07:31:32Z</time>
      </trkpt>
      <trkpt lat="48.720832" lon="7.307614">
        <ele>246.0</ele>
        <time>2020-07-11T07:31:35Z</time>
      </trkpt>
      <trkpt lat="48.7208" lon="7.307791">
        <ele>246.0</ele>
        <time>2020-07-11T07:31:37Z</time>
      </trkpt>
      <trkpt lat="48.720779" lon="7.307979">
        <ele>245.0</ele>
        <time>2020-07-11T07:31:39Z</time>
      </trkpt>
      <trkpt lat="48.720757" lon="7.308151">
        <ele>246.0</ele>
        <time>2020-07-11T07:31:41Z</time>
      </trkpt>
      <trkpt lat="48.720743" lon="7.308336">
        <ele>247.0</ele>
        <time>2020-07-11T07:31:43Z</time>
      </trkpt>
      <trkpt lat="48.720742" lon="7.308524">
        <ele>248.0</ele>
        <time>2020-07-11T07:31:45Z</time>
      </trkpt>
      <trkpt lat="48.720747" lon="7.308704">
        <ele>248.0</ele>
        <time>2020-07-11T07:31:47Z</time>
      </trkpt>
      <trkpt lat="48.720756" lon="7.308881">
        <ele>248.0</ele>
        <time>2020-07-11T07:31:49Z</time>
      </trkpt>
      <trkpt lat="48.720769" lon="7.309152">
        <ele>248.0</ele>
        <time>2020-07-11T07:31:52Z</time>
      </trkpt>
      <trkpt lat="48.720784" lon="7.309331">
        <ele>249.0</ele>
        <time>2020-07-11T07:31:54Z</time>
      </trkpt>
      <trkpt lat="48.7208" lon="7.309506">
        <ele>249.0</ele>
        <time>2020-07-11T07:31:56Z</time>
      </trkpt>
      <trkpt lat="48.720811" lon="7.30977">
        <ele>249.0</ele>
        <time>2020-07-11T07:31:59Z</time>
      </trkpt>
      <trkpt lat="48.720816" lon="7.309947">
        <ele>249.0</ele>
        <time>2020-07-11T07:32:01Z</time>
      </trkpt>
      <trkpt lat="48.720823" lon="7.31013">
        <ele>250.0</ele>
        <time>2020-07-11T07:32:03Z</time>
      </trkpt>
      <trkpt lat="48.720823" lon="7.310303">
        <ele>250.0</ele>
        <time>2020-07-11T07:32:05Z</time>
      </trkpt>
      <trkpt lat="48.720816" lon="7.310476">
        <ele>249.0</ele>
        <time>2020-07-11T07:32:07Z</time>
      </trkpt>
      <trkpt lat="48.7208" lon="7.310656">
        <ele>250.0</ele>
        <time>2020-07-11T07:32:09Z</time>
      </trkpt>
      <trkpt lat="48.720779" lon="7.31083">
        <ele>250.0</ele>
        <time>2020-07-11T07:32:11Z</time>
      </trkpt>
      <trkpt lat="48.72077" lon="7.310914">
        <ele>251.0</ele>
        <time>2020-07-11T07:32:12Z</time>
      </trkpt>
      <trkpt lat="48.720731" lon="7.311152">
        <ele>251.0</ele>
        <time>2020-07-11T07:32:15Z</time>
      </trkpt>
      <trkpt lat="48.72071" lon="7.311316">
        <ele>250.0</ele>
        <time>2020-07-11T07:32:17Z</time>
      </trkpt>
      <trkpt lat="48.720691" lon="7.311482">
        <ele>250.0</ele>
        <time>2020-07-11T07:32:19Z</time>
      </trkpt>
      <trkpt lat="48.720676" lon="7.311647">
        <ele>250.0</ele>
        <time>2020-07-11T07:32:21Z</time>
      </trkpt>
      <trkpt lat="48.72067" lon="7.311732">
        <ele>250.0</ele>
        <time>2020-07-11T07:32:22Z</time>
      </trkpt>
      <trkpt lat="48.720653" lon="7.312072">
        <ele>249.0</ele>
        <time>2020-07-11T07:32:26Z</time>
      </trkpt>
      <trkpt lat="48.720655" lon="7.312256">
        <ele>248.0</ele>
        <time>2020-07-11T07:32:28Z</time>
      </trkpt>
      <trkpt lat="48.720641" lon="7.312432">
        <ele>248.0</ele>
        <time>2020-07-11T07:32:30Z</time>
      </trkpt>
      <trkpt lat="48.720668" lon="7.312681">
        <ele>249.0</ele>
        <time>2020-07-11T07:32:33Z</time>
      </trkpt>
      <trkpt lat="48.720697" lon="7.312842">
        <ele>249.0</ele>
        <time>2020-07-11T07:32:35Z</time>
      </trkpt>
      <trkpt lat="48.720728" lon="7.313004">
        <ele>249.0</ele>
        <time>2020-07-11T07:32:37Z</time>
      </trkpt>
      <trkpt lat="48.720765" lon="7.313168">
        <ele>250.0</ele>
        <time>2020-07-11T07:32:39Z</time>
      </trkpt>
      <trkpt lat="48.720839" lon="7.3134">
        <ele>250.0</ele>
        <time>2020-07-11T07:32:42Z</time>
      </trkpt>
      <trkpt lat="48.720883" lon="7.313549">
        <ele>251.0</ele>
        <time>2020-07-11T07:32:44Z</time>
      </trkpt>
      <trkpt lat="48.720924" lon="7.313692">
        <ele>251.0</ele>
        <time>2020-07-11T07:32:46Z</time>
      </trkpt>
      <trkpt lat="48.720978" lon="7.313832">
        <ele>251.0</ele>
        <time>2020-07-11T07:32:48Z</time>
      </trkpt>
      <trkpt lat="48.721023" lon="7.313977">
        <ele>251.0</ele>
        <time>2020-07-11T07:32:50Z</time>
      </trkpt>
      <trkpt lat="48.721046" lon="7.314048">
        <ele>251.0</ele>
        <time>2020-07-11T07:32:51Z</time>
      </trkpt>
      <trkpt lat="48.721117" lon="7.314258">
        <ele>251.0</ele>
        <time>2020-07-11T07:32:54Z</time>
      </trkpt>
      <trkpt lat="48.721152" lon="7.314418">
        <ele>251.0</ele>
        <time>2020-07-11T07:32:56Z</time>
      </trkpt>
      <trkpt lat="48.721194" lon="7.314566">
        <ele>251.0</ele>
        <time>2020-07-11T07:32:58Z</time>
      </trkpt>
      <trkpt lat="48.721265" lon="7.31478">
        <ele>251.0</ele>
        <time>2020-07-11T07:33:01Z</time>
      </trkpt>
      <trkpt lat="48.721309" lon="7.31493">
        <ele>251.0</ele>
        <time>2020-07-11T07:33:03Z</time>
      </trkpt>
      <trkpt lat="48.721354" lon="7.315079">
        <ele>251.0</ele>
        <time>2020-07-11T07:33:05Z</time>
      </trkpt>
      <trkpt lat="48.721375" lon="7.315158">
        <ele>251.0</ele>
        <time>2020-07-11T07:33:06Z</time>
      </trkpt>
      <trkpt lat="48.721456" lon="7.315464">
        <ele>250.0</ele>
        <time>2020-07-11T07:33:10Z</time>
      </trkpt>
      <trkpt lat="48.721498" lon="7.315624">
        <ele>250.0</ele>
        <time>2020-07-11T07:33:12Z</time>
      </trkpt>
      <trkpt lat="48.721544" lon="7.315781">
        <ele>250.0</ele>
        <time>2020-07-11T07:33:14Z</time>
      </trkpt>
      <trkpt lat="48.721578" lon="7.315949">
        <ele>251.0</ele>
        <time>2020-07-11T07:33:16Z</time>
      </trkpt>
      <trkpt lat="48.721628" lon="7.316185">
        <ele>251.0</ele>
        <time>2020-07-11T07:33:19Z</time>
      </trkpt>
      <trkpt lat="48.721659" lon="7.316347">
        <ele>250.0</ele>
        <time>2020-07-11T07:33:21Z</time>
      </trkpt>
      <trkpt lat="48.721712" lon="7.31652">
        <ele>251.0</ele>
        <time>2020-07-11T07:33:23Z</time>
      </trkpt>
      <trkpt lat="48.721761" lon="7.316827">
        <ele>251.0</ele>
        <time>2020-07-11T07:33:26Z</time>
      </trkpt>
      <trkpt lat="48.721776" lon="7.317025">
        <ele>251.0</ele>
        <time>2020-07-11T07:33:28Z</time>
      </trkpt>
      <trkpt lat="48.721784" lon="7.31711">
        <ele>251.0</ele>
        <time>2020-07-11T07:33:29Z</time>
      </trkpt>
      <trkpt lat="48.721802" lon="7.317407">
        <ele>251.0</ele>
        <time>2020-07-11T07:33:32Z</time>
      </trkpt>
      <trkpt lat="48.721825" lon="7.317594">
        <ele>251.0</ele>
        <time>2020-07-11T07:33:34Z</time>
      </trkpt>
      <trkpt lat="48.721851" lon="7.317782">
        <ele>251.0</ele>
        <time>2020-07-11T07:33:36Z</time>
      </trkpt>
      <trkpt lat="48.721869" lon="7.317982">
        <ele>251.0</ele>
        <time>2020-07-11T07:33:38Z</time>
      </trkpt>
      <trkpt lat="48.721879" lon="7.318159">
        <ele>252.0</ele>
        <time>2020-07-11T07:33:40Z</time>
      </trkpt>
      <trkpt lat="48.721891" lon="7.31834">
        <ele>252.0</ele>
        <time>2020-07-11T07:33:42Z</time>
      </trkpt>
      <trkpt lat="48.721904" lon="7.318528">
        <ele>251.0</ele>
        <time>2020-07-11T07:33:44Z</time>
      </trkpt>
      <trkpt lat="48.721926" lon="7.3187">
        <ele>251.0</ele>
        <time>2020-07-11T07:33:46Z</time>
      </trkpt>
      <trkpt lat="48.721949" lon="7.318872">
        <ele>251.0</ele>
        <time>2020-07-11T07:33:48Z</time>
      </trkpt>
      <trkpt lat="48.721971" lon="7.319042">
        <ele>251.0</ele>
        <time>2020-07-11T07:33:50Z</time>
      </trkpt>
      <trkpt lat="48.722005" lon="7.319205">
        <ele>251.0</ele>
        <time>2020-07-11T07:33:52Z</time>
      </trkpt>
      <trkpt lat="48.722038" lon="7.319366">
        <ele>251.0</ele>
        <time>2020-07-11T07:33:54Z</time>
      </trkpt>
      <trkpt lat="48.722084" lon="7.319515">
        <ele>250.0</ele>
        <time>2020-07-11T07:33:56Z</time>
      </trkpt>
      <trkpt lat="48.722135" lon="7.319667">
        <ele>250.0</ele>
        <time>2020-07-11T07:33:58Z</time>
      </trkpt>
      <trkpt lat="48.722189" lon="7.319819">
        <ele>249.0</ele>
        <time>2020-07-11T07:34:00Z</time>
      </trkpt>
      <trkpt lat="48.72224" lon="7.319975">
        <ele>249.0</ele>
        <time>2020-07-11T07:34:02Z</time>
      </trkpt>
      <trkpt lat="48.722311" lon="7.320194">
        <ele>248.0</ele>
        <time>2020-07-11T07:34:05Z</time>
      </trkpt>
      <trkpt lat="48.722337" lon="7.320265">
        <ele>248.0</ele>
        <time>2020-07-11T07:34:06Z</time>
      </trkpt>
      <trkpt lat="48.722476" lon="7.32054">
        <ele>249.0</ele>
        <time>2020-07-11T07:34:10Z</time>
      </trkpt>
      <trkpt lat="48.722512" lon="7.320605">
        <ele>249.0</ele>
        <time>2020-07-11T07:34:11Z</time>
      </trkpt>
      <trkpt lat="48.722616" lon="7.320802">
        <ele>249.0</ele>
        <time>2020-07-11T07:34:14Z</time>
      </trkpt>
      <trkpt lat="48.722687" lon="7.320936">
        <ele>248.0</ele>
        <time>2020-07-11T07:34:16Z</time>
      </trkpt>
      <trkpt lat="48.722762" lon="7.321071">
        <ele>248.0</ele>
        <time>2020-07-11T07:34:18Z</time>
      </trkpt>
      <trkpt lat="48.722832" lon="7.32119">
        <ele>248.0</ele>
        <time>2020-07-11T07:34:20Z</time>
      </trkpt>
      <trkpt lat="48.722898" lon="7.321302">
        <ele>248.0</ele>
        <time>2020-07-11T07:34:22Z</time>
      </trkpt>
      <trkpt lat="48.723009" lon="7.321458">
        <ele>247.0</ele>
        <time>2020-07-11T07:34:25Z</time>
      </trkpt>
      <trkpt lat="48.723083" lon="7.321562">
        <ele>247.0</ele>
        <time>2020-07-11T07:34:27Z</time>
      </trkpt>
      <trkpt lat="48.723155" lon="7.321668">
        <ele>248.0</ele>
        <time>2020-07-11T07:34:29Z</time>
      </trkpt>
      <trkpt lat="48.723228" lon="7.321767">
        <ele>248.0</ele>
        <time>2020-07-11T07:34:31Z</time>
      </trkpt>
      <trkpt lat="48.723302" lon="7.321879">
        <ele>248.0</ele>
        <time>2020-07-11T07:34:33Z</time>
      </trkpt>
      <trkpt lat="48.72338" lon="7.321981">
        <ele>247.0</ele>
        <time>2020-07-11T07:34:35Z</time>
      </trkpt>
      <trkpt lat="48.723458" lon="7.32209">
        <ele>247.0</ele>
        <time>2020-07-11T07:34:37Z</time>
      </trkpt>
      <trkpt lat="48.723535" lon="7.322206">
        <ele>247.0</ele>
        <time>2020-07-11T07:34:39Z</time>
      </trkpt>
      <trkpt lat="48.72361" lon="7.32232">
        <ele>247.0</ele>
        <time>2020-07-11T07:34:41Z</time>
      </trkpt>
      <trkpt lat="48.723723" lon="7.322485">
        <ele>248.0</ele>
        <time>2020-07-11T07:34:44Z</time>
      </trkpt>
      <trkpt lat="48.723795" lon="7.322594">
        <ele>248.0</ele>
        <time>2020-07-11T07:34:46Z</time>
      </trkpt>
      <trkpt lat="48.723831" lon="7.322639">
        <ele>248.0</ele>
        <time>2020-07-11T07:34:47Z</time>
      </trkpt>
      <trkpt lat="48.723991" lon="7.322838">
        <ele>248.0</ele>
        <time>2020-07-11T07:34:51Z</time>
      </trkpt>
      <trkpt lat="48.724071" lon="7.322938">
        <ele>248.0</ele>
        <time>2020-07-11T07:34:53Z</time>
      </trkpt>
      <trkpt lat="48.724157" lon="7.323027">
        <ele>248.0</ele>
        <time>2020-07-11T07:34:55Z</time>
      </trkpt>
      <trkpt lat="48.724247" lon="7.323098">
        <ele>248.0</ele>
        <time>2020-07-11T07:34:57Z</time>
      </trkpt>
      <trkpt lat="48.724373" lon="7.323255">
        <ele>249.0</ele>
        <time>2020-07-11T07:35:00Z</time>
      </trkpt>
      <trkpt lat="48.72446" lon="7.32346">
        <ele>249.0</ele>
        <time>2020-07-11T07:35:03Z</time>
      </trkpt>
      <trkpt lat="48.724527" lon="7.323598">
        <ele>249.0</ele>
        <time>2020-07-11T07:35:05Z</time>
      </trkpt>
      <trkpt lat="48.724613" lon="7.323731">
        <ele>248.0</ele>
        <time>2020-07-11T07:35:07Z</time>
      </trkpt>
      <trkpt lat="48.724708" lon="7.323866">
        <ele>247.0</ele>
        <time>2020-07-11T07:35:09Z</time>
      </trkpt>
      <trkpt lat="48.724807" lon="7.324009">
        <ele>247.0</ele>
        <time>2020-07-11T07:35:11Z</time>
      </trkpt>
      <trkpt lat="48.724894" lon="7.324146">
        <ele>247.0</ele>
        <time>2020-07-11T07:35:13Z</time>
      </trkpt>
      <trkpt lat="48.724989" lon="7.324267">
        <ele>246.0</ele>
        <time>2020-07-11T07:35:15Z</time>
      </trkpt>
      <trkpt lat="48.725034" lon="7.324328">
        <ele>247.0</ele>
        <time>2020-07-11T07:35:16Z</time>
      </trkpt>
      <trkpt lat="48.72517" lon="7.324509">
        <ele>246.0</ele>
        <time>2020-07-11T07:35:19Z</time>
      </trkpt>
      <trkpt lat="48.725254" lon="7.324629">
        <ele>246.0</ele>
        <time>2020-07-11T07:35:21Z</time>
      </trkpt>
      <trkpt lat="48.725337" lon="7.324745">
        <ele>246.0</ele>
        <time>2020-07-11T07:35:23Z</time>
      </trkpt>
      <trkpt lat="48.725421" lon="7.324866">
        <ele>246.0</ele>
        <time>2020-07-11T07:35:25Z</time>
      </trkpt>
      <trkpt lat="48.725544" lon="7.32504">
        <ele>245.0</ele>
        <time>2020-07-11T07:35:28Z</time>
      </trkpt>
      <trkpt lat="48.725628" lon="7.325157">
        <ele>245.0</ele>
        <time>2020-07-11T07:35:30Z</time>
      </trkpt>
      <trkpt lat="48.725713" lon="7.325273">
        <ele>246.0</ele>
        <time>2020-07-11T07:35:32Z</time>
      </trkpt>
      <trkpt lat="48.72579" lon="7.325393">
        <ele>245.0</ele>
        <time>2020-07-11T07:35:34Z</time>
      </trkpt>
      <trkpt lat="48.725867" lon="7.325521">
        <ele>245.0</ele>
        <time>2020-07-11T07:35:36Z</time>
      </trkpt>
      <trkpt lat="48.725941" lon="7.325648">
        <ele>246.0</ele>
        <time>2020-07-11T07:35:38Z</time>
      </trkpt>
      <trkpt lat="48.726007" lon="7.325774">
        <ele>245.0</ele>
        <time>2020-07-11T07:35:40Z</time>
      </trkpt>
      <trkpt lat="48.726119" lon="7.326047">
        <ele>247.0</ele>
        <time>2020-07-11T07:35:44Z</time>
      </trkpt>
      <trkpt lat="48.726165" lon="7.326194">
        <ele>246.0</ele>
        <time>2020-07-11T07:35:46Z</time>
      </trkpt>
      <trkpt lat="48.726209" lon="7.32635">
        <ele>247.0</ele>
        <time>2020-07-11T07:35:48Z</time>
      </trkpt>
      <trkpt lat="48.726271" lon="7.32658">
        <ele>247.0</ele>
        <time>2020-07-11T07:35:51Z</time>
      </trkpt>
      <trkpt lat="48.726314" lon="7.326753">
        <ele>246.0</ele>
        <time>2020-07-11T07:35:53Z</time>
      </trkpt>
      <trkpt lat="48.72634" lon="7.32693">
        <ele>247.0</ele>
        <time>2020-07-11T07:35:55Z</time>
      </trkpt>
      <trkpt lat="48.726368" lon="7.327095">
        <ele>246.0</ele>
        <time>2020-07-11T07:35:57Z</time>
      </trkpt>
      <trkpt lat="48.726401" lon="7.327324">
        <ele>246.0</ele>
        <time>2020-07-11T07:36:00Z</time>
      </trkpt>
      <trkpt lat="48.726419" lon="7.32747">
        <ele>246.0</ele>
        <time>2020-07-11T07:36:02Z</time>
      </trkpt>
      <trkpt lat="48.726429" lon="7.327616">
        <ele>244.0</ele>
        <time>2020-07-11T07:36:04Z</time>
      </trkpt>
      <trkpt lat="48.726441" lon="7.327754">
        <ele>243.0</ele>
        <time>2020-07-11T07:36:06Z</time>
      </trkpt>
      <trkpt lat="48.726454" lon="7.327903">
        <ele>243.0</ele>
        <time>2020-07-11T07:36:08Z</time>
      </trkpt>
      <trkpt lat="48.726467" lon="7.328055">
        <ele>244.0</ele>
        <time>2020-07-11T07:36:10Z</time>
      </trkpt>
      <trkpt lat="48.726483" lon="7.328207">
        <ele>244.0</ele>
        <time>2020-07-11T07:36:12Z</time>
      </trkpt>
      <trkpt lat="48.726491" lon="7.328285">
        <ele>244.0</ele>
        <time>2020-07-11T07:36:13Z</time>
      </trkpt>
      <trkpt lat="48.726531" lon="7.328569">
        <ele>244.0</ele>
        <time>2020-07-11T07:36:17Z</time>
      </trkpt>
      <trkpt lat="48.72655" lon="7.328713">
        <ele>244.0</ele>
        <time>2020-07-11T07:36:19Z</time>
      </trkpt>
      <trkpt lat="48.726575" lon="7.328848">
        <ele>244.0</ele>
        <time>2020-07-11T07:36:21Z</time>
      </trkpt>
      <trkpt lat="48.726585" lon="7.328917">
        <ele>244.0</ele>
        <time>2020-07-11T07:36:22Z</time>
      </trkpt>
      <trkpt lat="48.726625" lon="7.329192">
        <ele>244.0</ele>
        <time>2020-07-11T07:36:26Z</time>
      </trkpt>
      <trkpt lat="48.726654" lon="7.32933">
        <ele>244.0</ele>
        <time>2020-07-11T07:36:28Z</time>
      </trkpt>
      <trkpt lat="48.726687" lon="7.329467">
        <ele>244.0</ele>
        <time>2020-07-11T07:36:30Z</time>
      </trkpt>
      <trkpt lat="48.726734" lon="7.329608">
        <ele>244.0</ele>
        <time>2020-07-11T07:36:32Z</time>
      </trkpt>
      <trkpt lat="48.726802" lon="7.329822">
        <ele>243.0</ele>
        <time>2020-07-11T07:36:35Z</time>
      </trkpt>
      <trkpt lat="48.726849" lon="7.329952">
        <ele>243.0</ele>
        <time>2020-07-11T07:36:37Z</time>
      </trkpt>
      <trkpt lat="48.726913" lon="7.330155">
        <ele>244.0</ele>
        <time>2020-07-11T07:36:40Z</time>
      </trkpt>
      <trkpt lat="48.726962" lon="7.330285">
        <ele>243.0</ele>
        <time>2020-07-11T07:36:42Z</time>
      </trkpt>
      <trkpt lat="48.727044" lon="7.330484">
        <ele>244.0</ele>
        <time>2020-07-11T07:36:45Z</time>
      </trkpt>
      <trkpt lat="48.7271" lon="7.330615">
        <ele>244.0</ele>
        <time>2020-07-11T07:36:47Z</time>
      </trkpt>
      <trkpt lat="48.72716" lon="7.330743">
        <ele>244.0</ele>
        <time>2020-07-11T07:36:49Z</time>
      </trkpt>
      <trkpt lat="48.727221" lon="7.33087">
        <ele>244.0</ele>
        <time>2020-07-11T07:36:51Z</time>
      </trkpt>
      <trkpt lat="48.727293" lon="7.330986">
        <ele>245.0</ele>
        <time>2020-07-11T07:36:53Z</time>
      </trkpt>
      <trkpt lat="48.727365" lon="7.331086">
        <ele>245.0</ele>
        <time>2020-07-11T07:36:55Z</time>
      </trkpt>
      <trkpt lat="48.727442" lon="7.331196">
        <ele>244.0</ele>
        <time>2020-07-11T07:36:57Z</time>
      </trkpt>
      <trkpt lat="48.72752" lon="7.331301">
        <ele>243.0</ele>
        <time>2020-07-11T07:36:59Z</time>
      </trkpt>
      <trkpt lat="48.727645" lon="7.33145">
        <ele>243.0</ele>
        <time>2020-07-11T07:37:02Z</time>
      </trkpt>
      <trkpt lat="48.727735" lon="7.331537">
        <ele>243.0</ele>
        <time>2020-07-11T07:37:04Z</time>
      </trkpt>
      <trkpt lat="48.727827" lon="7.331623">
        <ele>244.0</ele>
        <time>2020-07-11T07:37:06Z</time>
      </trkpt>
      <trkpt lat="48.727875" lon="7.33166">
        <ele>244.0</ele>
        <time>2020-07-11T07:37:07Z</time>
      </trkpt>
      <trkpt lat="48.728012" lon="7.331769">
        <ele>243.0</ele>
        <time>2020-07-11T07:37:10Z</time>
      </trkpt>
      <trkpt lat="48.728149" lon="7.331887">
        <ele>244.0</ele>
        <time>2020-07-11T07:37:13Z</time>
      </trkpt>
      <trkpt lat="48.72824" lon="7.331958">
        <ele>244.0</ele>
        <time>2020-07-11T07:37:15Z</time>
      </trkpt>
      <trkpt lat="48.728387" lon="7.332072">
        <ele>244.0</ele>
        <time>2020-07-11T07:37:18Z</time>
      </trkpt>
      <trkpt lat="48.728436" lon="7.332106">
        <ele>244.0</ele>
        <time>2020-07-11T07:37:19Z</time>
      </trkpt>
      <trkpt lat="48.728583" lon="7.332179">
        <ele>244.0</ele>
        <time>2020-07-11T07:37:22Z</time>
      </trkpt>
      <trkpt lat="48.728684" lon="7.332227">
        <ele>245.0</ele>
        <time>2020-07-11T07:37:24Z</time>
      </trkpt>
      <trkpt lat="48.728839" lon="7.332276">
        <ele>245.0</ele>
        <time>2020-07-11T07:37:27Z</time>
      </trkpt>
      <trkpt lat="48.728938" lon="7.332309">
        <ele>245.0</ele>
        <time>2020-07-11T07:37:29Z</time>
      </trkpt>
      <trkpt lat="48.729043" lon="7.332343">
        <ele>245.0</ele>
        <time>2020-07-11T07:37:31Z</time>
      </trkpt>
      <trkpt lat="48.729149" lon="7.33237">
        <ele>245.0</ele>
        <time>2020-07-11T07:37:33Z</time>
      </trkpt>
      <trkpt lat="48.729254" lon="7.332405">
        <ele>245.0</ele>
        <time>2020-07-11T07:37:35Z</time>
      </trkpt>
      <trkpt lat="48.729361" lon="7.33245">
        <ele>245.0</ele>
        <time>2020-07-11T07:37:37Z</time>
      </trkpt>
      <trkpt lat="48.72951" lon="7.332514">
        <ele>245.0</ele>
        <time>2020-07-11T07:37:40Z</time>
      </trkpt>
      <trkpt lat="48.729606" lon="7.33256">
        <ele>245.0</ele>
        <time>2020-07-11T07:37:42Z</time>
      </trkpt>
      <trkpt lat="48.729702" lon="7.332607">
        <ele>245.0</ele>
        <time>2020-07-11T07:37:44Z</time>
      </trkpt>
      <trkpt lat="48.729799" lon="7.332657">
        <ele>245.0</ele>
        <time>2020-07-11T07:37:46Z</time>
      </trkpt>
      <trkpt lat="48.729899" lon="7.332714">
        <ele>244.0</ele>
        <time>2020-07-11T07:37:48Z</time>
      </trkpt>
      <trkpt lat="48.729995" lon="7.332775">
        <ele>244.0</ele>
        <time>2020-07-11T07:37:50Z</time>
      </trkpt>
      <trkpt lat="48.730084" lon="7.332842">
        <ele>244.0</ele>
        <time>2020-07-11T07:37:52Z</time>
      </trkpt>
      <trkpt lat="48.730179" lon="7.332917">
        <ele>244.0</ele>
        <time>2020-07-11T07:37:54Z</time>
      </trkpt>
      <trkpt lat="48.73033" lon="7.333057">
        <ele>243.0</ele>
        <time>2020-07-11T07:37:57Z</time>
      </trkpt>
      <trkpt lat="48.730417" lon="7.333169">
        <ele>242.0</ele>
        <time>2020-07-11T07:37:59Z</time>
      </trkpt>
      <trkpt lat="48.730482" lon="7.333282">
        <ele>243.0</ele>
        <time>2020-07-11T07:38:01Z</time>
      </trkpt>
      <trkpt lat="48.730548" lon="7.333406">
        <ele>243.0</ele>
        <time>2020-07-11T07:38:03Z</time>
      </trkpt>
      <trkpt lat="48.730635" lon="7.333612">
        <ele>244.0</ele>
        <time>2020-07-11T07:38:06Z</time>
      </trkpt>
      <trkpt lat="48.730677" lon="7.333748">
        <ele>244.0</ele>
        <time>2020-07-11T07:38:08Z</time>
      </trkpt>
      <trkpt lat="48.730713" lon="7.333892">
        <ele>244.0</ele>
        <time>2020-07-11T07:38:10Z</time>
      </trkpt>
      <trkpt lat="48.730742" lon="7.334031">
        <ele>245.0</ele>
        <time>2020-07-11T07:38:12Z</time>
      </trkpt>
      <trkpt lat="48.73077" lon="7.334169">
        <ele>244.0</ele>
        <time>2020-07-11T07:38:14Z</time>
      </trkpt>
      <trkpt lat="48.730793" lon="7.334302">
        <ele>244.0</ele>
        <time>2020-07-11T07:38:16Z</time>
      </trkpt>
      <trkpt lat="48.730826" lon="7.334445">
        <ele>244.0</ele>
        <time>2020-07-11T07:38:18Z</time>
      </trkpt>
      <trkpt lat="48.730869" lon="7.334577">
        <ele>245.0</ele>
        <time>2020-07-11T07:38:20Z</time>
      </trkpt>
      <trkpt lat="48.730927" lon="7.334703">
        <ele>245.0</ele>
        <time>2020-07-11T07:38:22Z</time>
      </trkpt>
      <trkpt lat="48.730952" lon="7.334836">
        <ele>245.0</ele>
        <time>2020-07-11T07:38:24Z</time>
      </trkpt>
      <trkpt lat="48.730963" lon="7.334979">
        <ele>244.0</ele>
        <time>2020-07-11T07:38:26Z</time>
      </trkpt>
      <trkpt lat="48.730978" lon="7.335123">
        <ele>245.0</ele>
        <time>2020-07-11T07:38:28Z</time>
      </trkpt>
      <trkpt lat="48.730994" lon="7.335273">
        <ele>244.0</ele>
        <time>2020-07-11T07:38:30Z</time>
      </trkpt>
      <trkpt lat="48.731024" lon="7.335442">
        <ele>243.0</ele>
        <time>2020-07-11T07:38:32Z</time>
      </trkpt>
      <trkpt lat="48.731053" lon="7.335623">
        <ele>243.0</ele>
        <time>2020-07-11T07:38:34Z</time>
      </trkpt>
      <trkpt lat="48.731081" lon="7.335794">
        <ele>243.0</ele>
        <time>2020-07-11T07:38:36Z</time>
      </trkpt>
      <trkpt lat="48.731088" lon="7.335949">
        <ele>243.0</ele>
        <time>2020-07-11T07:38:38Z</time>
      </trkpt>
      <trkpt lat="48.731096" lon="7.336118">
        <ele>243.0</ele>
        <time>2020-07-11T07:38:40Z</time>
      </trkpt>
      <trkpt lat="48.731113" lon="7.336305">
        <ele>243.0</ele>
        <time>2020-07-11T07:38:42Z</time>
      </trkpt>
      <trkpt lat="48.731134" lon="7.336478">
        <ele>242.0</ele>
        <time>2020-07-11T07:38:44Z</time>
      </trkpt>
      <trkpt lat="48.731157" lon="7.336639">
        <ele>242.0</ele>
        <time>2020-07-11T07:38:46Z</time>
      </trkpt>
      <trkpt lat="48.731186" lon="7.336801">
        <ele>241.0</ele>
        <time>2020-07-11T07:38:48Z</time>
      </trkpt>
      <trkpt lat="48.731216" lon="7.336959">
        <ele>242.0</ele>
        <time>2020-07-11T07:38:50Z</time>
      </trkpt>
      <trkpt lat="48.731238" lon="7.337117">
        <ele>242.0</ele>
        <time>2020-07-11T07:38:52Z</time>
      </trkpt>
      <trkpt lat="48.731263" lon="7.337352">
        <ele>242.0</ele>
        <time>2020-07-11T07:38:55Z</time>
      </trkpt>
      <trkpt lat="48.731282" lon="7.337514">
        <ele>242.0</ele>
        <time>2020-07-11T07:38:57Z</time>
      </trkpt>
      <trkpt lat="48.731291" lon="7.33777">
        <ele>241.0</ele>
        <time>2020-07-11T07:39:00Z</time>
      </trkpt>
      <trkpt lat="48.731301" lon="7.337926">
        <ele>241.0</ele>
        <time>2020-07-11T07:39:02Z</time>
      </trkpt>
      <trkpt lat="48.731305" lon="7.33809">
        <ele>242.0</ele>
        <time>2020-07-11T07:39:04Z</time>
      </trkpt>
      <trkpt lat="48.731317" lon="7.338241">
        <ele>241.0</ele>
        <time>2020-07-11T07:39:06Z</time>
      </trkpt>
      <trkpt lat="48.731316" lon="7.338477">
        <ele>241.0</ele>
        <time>2020-07-11T07:39:09Z</time>
      </trkpt>
      <trkpt lat="48.731303" lon="7.338623">
        <ele>241.0</ele>
        <time>2020-07-11T07:39:11Z</time>
      </trkpt>
      <trkpt lat="48.731331" lon="7.338768">
        <ele>241.0</ele>
        <time>2020-07-11T07:39:13Z</time>
      </trkpt>
      <trkpt lat="48.731384" lon="7.338979">
        <ele>240.0</ele>
        <time>2020-07-11T07:39:16Z</time>
      </trkpt>
      <trkpt lat="48.731421" lon="7.339117">
        <ele>239.0</ele>
        <time>2020-07-11T07:39:18Z</time>
      </trkpt>
      <trkpt lat="48.731459" lon="7.339265">
        <ele>239.0</ele>
        <time>2020-07-11T07:39:20Z</time>
      </trkpt>
      <trkpt lat="48.731486" lon="7.339423">
        <ele>240.0</ele>
        <time>2020-07-11T07:39:22Z</time>
      </trkpt>
      <trkpt lat="48.731515" lon="7.339575">
        <ele>239.0</ele>
        <time>2020-07-11T07:39:24Z</time>
      </trkpt>
      <trkpt lat="48.731551" lon="7.339721">
        <ele>239.0</ele>
        <time>2020-07-11T07:39:26Z</time>
      </trkpt>
      <trkpt lat="48.731584" lon="7.339863">
        <ele>239.0</ele>
        <time>2020-07-11T07:39:28Z</time>
      </trkpt>
      <trkpt lat="48.731615" lon="7.340012">
        <ele>239.0</ele>
        <time>2020-07-11T07:39:30Z</time>
      </trkpt>
      <trkpt lat="48.731652" lon="7.340157">
        <ele>239.0</ele>
        <time>2020-07-11T07:39:32Z</time>
      </trkpt>
      <trkpt lat="48.731708" lon="7.340278">
        <ele>239.0</ele>
        <time>2020-07-11T07:39:34Z</time>
      </trkpt>
      <trkpt lat="48.731768" lon="7.340392">
        <ele>239.0</ele>
        <time>2020-07-11T07:39:36Z</time>
      </trkpt>
      <trkpt lat="48.731833" lon="7.340497">
        <ele>239.0</ele>
        <time>2020-07-11T07:39:38Z</time>
      </trkpt>
      <trkpt lat="48.731942" lon="7.340624">
        <ele>239.0</ele>
        <time>2020-07-11T07:39:41Z</time>
      </trkpt>
      <trkpt lat="48.732014" lon="7.340719">
        <ele>239.0</ele>
        <time>2020-07-11T07:39:43Z</time>
      </trkpt>
      <trkpt lat="48.732134" lon="7.340856">
        <ele>240.0</ele>
        <time>2020-07-11T07:39:46Z</time>
      </trkpt>
      <trkpt lat="48.732219" lon="7.340944">
        <ele>239.0</ele>
        <time>2020-07-11T07:39:48Z</time>
      </trkpt>
      <trkpt lat="48.732306" lon="7.34102">
        <ele>239.0</ele>
        <time>2020-07-11T07:39:50Z</time>
      </trkpt>
      <trkpt lat="48.732444" lon="7.341115">
        <ele>239.0</ele>
        <time>2020-07-11T07:39:53Z</time>
      </trkpt>
      <trkpt lat="48.732531" lon="7.341173">
        <ele>239.0</ele>
        <time>2020-07-11T07:39:55Z</time>
      </trkpt>
      <trkpt lat="48.732637" lon="7.341235">
        <ele>239.0</ele>
        <time>2020-07-11T07:39:57Z</time>
      </trkpt>
      <trkpt lat="48.732793" lon="7.341318">
        <ele>239.0</ele>
        <time>2020-07-11T07:40:00Z</time>
      </trkpt>
      <trkpt lat="48.732883" lon="7.341384">
        <ele>240.0</ele>
        <time>2020-07-11T07:40:02Z</time>
      </trkpt>
      <trkpt lat="48.732978" lon="7.341439">
        <ele>240.0</ele>
        <time>2020-07-11T07:40:04Z</time>
      </trkpt>
      <trkpt lat="48.733066" lon="7.341493">
        <ele>239.0</ele>
        <time>2020-07-11T07:40:06Z</time>
      </trkpt>
      <trkpt lat="48.733178" lon="7.341545">
        <ele>239.0</ele>
        <time>2020-07-11T07:40:08Z</time>
      </trkpt>
      <trkpt lat="48.733284" lon="7.341596">
        <ele>239.0</ele>
        <time>2020-07-11T07:40:10Z</time>
      </trkpt>
      <trkpt lat="48.733391" lon="7.341638">
        <ele>239.0</ele>
        <time>2020-07-11T07:40:12Z</time>
      </trkpt>
      <trkpt lat="48.733449" lon="7.341667">
        <ele>240.0</ele>
        <time>2020-07-11T07:40:13Z</time>
      </trkpt>
      <trkpt lat="48.733592" lon="7.341762">
        <ele>240.0</ele>
        <time>2020-07-11T07:40:16Z</time>
      </trkpt>
      <trkpt lat="48.733725" lon="7.341867">
        <ele>240.0</ele>
        <time>2020-07-11T07:40:19Z</time>
      </trkpt>
      <trkpt lat="48.733822" lon="7.341948">
        <ele>240.0</ele>
        <time>2020-07-11T07:40:21Z</time>
      </trkpt>
      <trkpt lat="48.73391" lon="7.342049">
        <ele>240.0</ele>
        <time>2020-07-11T07:40:23Z</time>
      </trkpt>
      <trkpt lat="48.733979" lon="7.342158">
        <ele>240.0</ele>
        <time>2020-07-11T07:40:25Z</time>
      </trkpt>
      <trkpt lat="48.734063" lon="7.342253">
        <ele>240.0</ele>
        <time>2020-07-11T07:40:27Z</time>
      </trkpt>
      <trkpt lat="48.734211" lon="7.342339">
        <ele>240.0</ele>
        <time>2020-07-11T07:40:30Z</time>
      </trkpt>
      <trkpt lat="48.73431" lon="7.342435">
        <ele>240.0</ele>
        <time>2020-07-11T07:40:32Z</time>
      </trkpt>
      <trkpt lat="48.734397" lon="7.342526">
        <ele>240.0</ele>
        <time>2020-07-11T07:40:34Z</time>
      </trkpt>
      <trkpt lat="48.734478" lon="7.342613">
        <ele>240.0</ele>
        <time>2020-07-11T07:40:36Z</time>
      </trkpt>
      <trkpt lat="48.734555" lon="7.342709">
        <ele>240.0</ele>
        <time>2020-07-11T07:40:38Z</time>
      </trkpt>
      <trkpt lat="48.734636" lon="7.342827">
        <ele>240.0</ele>
        <time>2020-07-11T07:40:40Z</time>
      </trkpt>
      <trkpt lat="48.734753" lon="7.343001">
        <ele>239.0</ele>
        <time>2020-07-11T07:40:43Z</time>
      </trkpt>
      <trkpt lat="48.734817" lon="7.3431">
        <ele>239.0</ele>
        <time>2020-07-11T07:40:45Z</time>
      </trkpt>
      <trkpt lat="48.734848" lon="7.343163">
        <ele>240.0</ele>
        <time>2020-07-11T07:40:46Z</time>
      </trkpt>
      <trkpt lat="48.734959" lon="7.343333">
        <ele>240.0</ele>
        <time>2020-07-11T07:40:49Z</time>
      </trkpt>
      <trkpt lat="48.735034" lon="7.34344">
        <ele>240.0</ele>
        <time>2020-07-11T07:40:51Z</time>
      </trkpt>
      <trkpt lat="48.735108" lon="7.343547">
        <ele>240.0</ele>
        <time>2020-07-11T07:40:53Z</time>
      </trkpt>
      <trkpt lat="48.735213" lon="7.343717">
        <ele>240.0</ele>
        <time>2020-07-11T07:40:56Z</time>
      </trkpt>
      <trkpt lat="48.735286" lon="7.343835">
        <ele>239.0</ele>
        <time>2020-07-11T07:40:58Z</time>
      </trkpt>
      <trkpt lat="48.735348" lon="7.343946">
        <ele>239.0</ele>
        <time>2020-07-11T07:41:00Z</time>
      </trkpt>
      <trkpt lat="48.73541" lon="7.344062">
        <ele>239.0</ele>
        <time>2020-07-11T07:41:02Z</time>
      </trkpt>
      <trkpt lat="48.735492" lon="7.344199">
        <ele>238.0</ele>
        <time>2020-07-11T07:41:04Z</time>
      </trkpt>
      <trkpt lat="48.735567" lon="7.344327">
        <ele>238.0</ele>
        <time>2020-07-11T07:41:06Z</time>
      </trkpt>
      <trkpt lat="48.735642" lon="7.34444">
        <ele>239.0</ele>
        <time>2020-07-11T07:41:08Z</time>
      </trkpt>
      <trkpt lat="48.735702" lon="7.344558">
        <ele>239.0</ele>
        <time>2020-07-11T07:41:10Z</time>
      </trkpt>
      <trkpt lat="48.73577" lon="7.344689">
        <ele>239.0</ele>
        <time>2020-07-11T07:41:12Z</time>
      </trkpt>
      <trkpt lat="48.735872" lon="7.34487">
        <ele>240.0</ele>
        <time>2020-07-11T07:41:15Z</time>
      </trkpt>
      <trkpt lat="48.735937" lon="7.344974">
        <ele>241.0</ele>
        <time>2020-07-11T07:41:17Z</time>
      </trkpt>
      <trkpt lat="48.735995" lon="7.345072">
        <ele>241.0</ele>
        <time>2020-07-11T07:41:19Z</time>
      </trkpt>
      <trkpt lat="48.736026" lon="7.345121">
        <ele>241.0</ele>
        <time>2020-07-11T07:41:20Z</time>
      </trkpt>
      <trkpt lat="48.736164" lon="7.345342">
        <ele>241.0</ele>
        <time>2020-07-11T07:41:24Z</time>
      </trkpt>
      <trkpt lat="48.736233" lon="7.345452">
        <ele>241.0</ele>
        <time>2020-07-11T07:41:26Z</time>
      </trkpt>
      <trkpt lat="48.736293" lon="7.345568">
        <ele>241.0</ele>
        <time>2020-07-11T07:41:28Z</time>
      </trkpt>
      <trkpt lat="48.73635" lon="7.345685">
        <ele>240.0</ele>
        <time>2020-07-11T07:41:30Z</time>
      </trkpt>
      <trkpt lat="48.736381" lon="7.345747">
        <ele>240.0</ele>
        <time>2020-07-11T07:41:31Z</time>
      </trkpt>
      <trkpt lat="48.736479" lon="7.345898">
        <ele>240.0</ele>
        <time>2020-07-11T07:41:34Z</time>
      </trkpt>
      <trkpt lat="48.736551" lon="7.345973">
        <ele>240.0</ele>
        <time>2020-07-11T07:41:36Z</time>
      </trkpt>
      <trkpt lat="48.736617" lon="7.34605">
        <ele>240.0</ele>
        <time>2020-07-11T07:41:38Z</time>
      </trkpt>
      <trkpt lat="48.736723" lon="7.346177">
        <ele>241.0</ele>
        <time>2020-07-11T07:41:41Z</time>
      </trkpt>
      <trkpt lat="48.736802" lon="7.346258">
        <ele>241.0</ele>
        <time>2020-07-11T07:41:43Z</time>
      </trkpt>
      <trkpt lat="48.736857" lon="7.346319">
        <ele>241.0</ele>
        <time>2020-07-11T07:41:45Z</time>
      </trkpt>
      <trkpt lat="48.736951" lon="7.346385">
        <ele>242.0</ele>
        <time>2020-07-11T07:41:47Z</time>
      </trkpt>
      <trkpt lat="48.737018" lon="7.346476">
        <ele>242.0</ele>
        <time>2020-07-11T07:41:49Z</time>
      </trkpt>
      <trkpt lat="48.73708" lon="7.346549">
        <ele>242.0</ele>
        <time>2020-07-11T07:41:51Z</time>
      </trkpt>
      <trkpt lat="48.737132" lon="7.346603">
        <ele>242.0</ele>
        <time>2020-07-11T07:41:53Z</time>
      </trkpt>
      <trkpt lat="48.73719" lon="7.346663">
        <ele>243.0</ele>
        <time>2020-07-11T07:41:55Z</time>
      </trkpt>
      <trkpt lat="48.737224" lon="7.346693">
        <ele>243.0</ele>
        <time>2020-07-11T07:41:56Z</time>
      </trkpt>
      <trkpt lat="48.737661" lon="7.347068">
        <ele>245.0</ele>
        <time>2020-07-11T07:42:07Z</time>
      </trkpt>
      <trkpt lat="48.737919" lon="7.347324">
        <ele>245.0</ele>
        <time>2020-07-11T07:42:13Z</time>
      </trkpt>
      <trkpt lat="48.73801" lon="7.347389">
        <ele>244.0</ele>
        <time>2020-07-11T07:42:15Z</time>
      </trkpt>
      <trkpt lat="48.738102" lon="7.347443">
        <ele>244.0</ele>
        <time>2020-07-11T07:42:17Z</time>
      </trkpt>
      <trkpt lat="48.738186" lon="7.347501">
        <ele>243.0</ele>
        <time>2020-07-11T07:42:19Z</time>
      </trkpt>
      <trkpt lat="48.738268" lon="7.347553">
        <ele>242.0</ele>
        <time>2020-07-11T07:42:21Z</time>
      </trkpt>
      <trkpt lat="48.738353" lon="7.347627">
        <ele>242.0</ele>
        <time>2020-07-11T07:42:23Z</time>
      </trkpt>
      <trkpt lat="48.738441" lon="7.347691">
        <ele>242.0</ele>
        <time>2020-07-11T07:42:25Z</time>
      </trkpt>
      <trkpt lat="48.738563" lon="7.347774">
        <ele>242.0</ele>
        <time>2020-07-11T07:42:28Z</time>
      </trkpt>
      <trkpt lat="48.738604" lon="7.347798">
        <ele>242.0</ele>
        <time>2020-07-11T07:42:29Z</time>
      </trkpt>
      <trkpt lat="48.738693" lon="7.347869">
        <ele>242.0</ele>
        <time>2020-07-11T07:42:31Z</time>
      </trkpt>
      <trkpt lat="48.738775" lon="7.347949">
        <ele>243.0</ele>
        <time>2020-07-11T07:42:33Z</time>
      </trkpt>
      <trkpt lat="48.738901" lon="7.348077">
        <ele>243.0</ele>
        <time>2020-07-11T07:42:36Z</time>
      </trkpt>
      <trkpt lat="48.738983" lon="7.348156">
        <ele>243.0</ele>
        <time>2020-07-11T07:42:38Z</time>
      </trkpt>
      <trkpt lat="48.739067" lon="7.348243">
        <ele>243.0</ele>
        <time>2020-07-11T07:42:40Z</time>
      </trkpt>
      <trkpt lat="48.739144" lon="7.34833">
        <ele>242.0</ele>
        <time>2020-07-11T07:42:42Z</time>
      </trkpt>
      <trkpt lat="48.739224" lon="7.348413">
        <ele>242.0</ele>
        <time>2020-07-11T07:42:44Z</time>
      </trkpt>
      <trkpt lat="48.739295" lon="7.348504">
        <ele>241.0</ele>
        <time>2020-07-11T07:42:46Z</time>
      </trkpt>
      <trkpt lat="48.73937" lon="7.348584">
        <ele>241.0</ele>
        <time>2020-07-11T07:42:48Z</time>
      </trkpt>
      <trkpt lat="48.739448" lon="7.348683">
        <ele>241.0</ele>
        <time>2020-07-11T07:42:50Z</time>
      </trkpt>
      <trkpt lat="48.73953" lon="7.348759">
        <ele>241.0</ele>
        <time>2020-07-11T07:42:52Z</time>
      </trkpt>
      <trkpt lat="48.739609" lon="7.348846">
        <ele>241.0</ele>
        <time>2020-07-11T07:42:54Z</time>
      </trkpt>
      <trkpt lat="48.739681" lon="7.348929">
        <ele>241.0</ele>
        <time>2020-07-11T07:42:56Z</time>
      </trkpt>
      <trkpt lat="48.739766" lon="7.349">
        <ele>241.0</ele>
        <time>2020-07-11T07:42:58Z</time>
      </trkpt>
      <trkpt lat="48.739848" lon="7.349067">
        <ele>241.0</ele>
        <time>2020-07-11T07:43:00Z</time>
      </trkpt>
      <trkpt lat="48.739927" lon="7.349142">
        <ele>242.0</ele>
        <time>2020-07-11T07:43:02Z</time>
      </trkpt>
      <trkpt lat="48.740006" lon="7.349204">
        <ele>242.0</ele>
        <time>2020-07-11T07:43:04Z</time>
      </trkpt>
      <trkpt lat="48.740071" lon="7.349283">
        <ele>242.0</ele>
        <time>2020-07-11T07:43:06Z</time>
      </trkpt>
      <trkpt lat="48.740141" lon="7.349375">
        <ele>242.0</ele>
        <time>2020-07-11T07:43:08Z</time>
      </trkpt>
      <trkpt lat="48.740203" lon="7.349487">
        <ele>242.0</ele>
        <time>2020-07-11T07:43:10Z</time>
      </trkpt>
      <trkpt lat="48.740277" lon="7.349614">
        <ele>241.0</ele>
        <time>2020-07-11T07:43:12Z</time>
      </trkpt>
      <trkpt lat="48.740335" lon="7.349723">
        <ele>241.0</ele>
        <time>2020-07-11T07:43:14Z</time>
      </trkpt>
      <trkpt lat="48.74039" lon="7.349829">
        <ele>240.0</ele>
        <time>2020-07-11T07:43:16Z</time>
      </trkpt>
      <trkpt lat="48.740443" lon="7.349943">
        <ele>240.0</ele>
        <time>2020-07-11T07:43:18Z</time>
      </trkpt>
      <trkpt lat="48.740496" lon="7.350065">
        <ele>240.0</ele>
        <time>2020-07-11T07:43:20Z</time>
      </trkpt>
      <trkpt lat="48.740521" lon="7.350127">
        <ele>240.0</ele>
        <time>2020-07-11T07:43:21Z</time>
      </trkpt>
      <trkpt lat="48.740588" lon="7.350307">
        <ele>240.0</ele>
        <time>2020-07-11T07:43:24Z</time>
      </trkpt>
      <trkpt lat="48.740625" lon="7.350426">
        <ele>239.0</ele>
        <time>2020-07-11T07:43:26Z</time>
      </trkpt>
      <trkpt lat="48.740652" lon="7.350483">
        <ele>239.0</ele>
        <time>2020-07-11T07:43:27Z</time>
      </trkpt>
      <trkpt lat="48.740712" lon="7.350661">
        <ele>240.0</ele>
        <time>2020-07-11T07:43:30Z</time>
      </trkpt>
      <trkpt lat="48.74075" lon="7.350779">
        <ele>240.0</ele>
        <time>2020-07-11T07:43:32Z</time>
      </trkpt>
      <trkpt lat="48.740791" lon="7.3509">
        <ele>240.0</ele>
        <time>2020-07-11T07:43:34Z</time>
      </trkpt>
      <trkpt lat="48.740829" lon="7.351019">
        <ele>240.0</ele>
        <time>2020-07-11T07:43:36Z</time>
      </trkpt>
      <trkpt lat="48.740864" lon="7.35114">
        <ele>240.0</ele>
        <time>2020-07-11T07:43:38Z</time>
      </trkpt>
      <trkpt lat="48.740886" lon="7.351258">
        <ele>240.0</ele>
        <time>2020-07-11T07:43:40Z</time>
      </trkpt>
      <trkpt lat="48.740912" lon="7.351394">
        <ele>240.0</ele>
        <time>2020-07-11T07:43:42Z</time>
      </trkpt>
      <trkpt lat="48.74093" lon="7.351527">
        <ele>241.0</ele>
        <time>2020-07-11T07:43:44Z</time>
      </trkpt>
      <trkpt lat="48.740939" lon="7.351655">
        <ele>241.0</ele>
        <time>2020-07-11T07:43:46Z</time>
      </trkpt>
      <trkpt lat="48.740936" lon="7.351795">
        <ele>240.0</ele>
        <time>2020-07-11T07:43:48Z</time>
      </trkpt>
      <trkpt lat="48.74094" lon="7.351934">
        <ele>240.0</ele>
        <time>2020-07-11T07:43:50Z</time>
      </trkpt>
      <trkpt lat="48.740949" lon="7.352068">
        <ele>240.0</ele>
        <time>2020-07-11T07:43:52Z</time>
      </trkpt>
      <trkpt lat="48.740949" lon="7.352209">
        <ele>240.0</ele>
        <time>2020-07-11T07:43:54Z</time>
      </trkpt>
      <trkpt lat="48.740952" lon="7.35235">
        <ele>241.0</ele>
        <time>2020-07-11T07:43:56Z</time>
      </trkpt>
      <trkpt lat="48.740948" lon="7.352484">
        <ele>241.0</ele>
        <time>2020-07-11T07:43:58Z</time>
      </trkpt>
      <trkpt lat="48.740955" lon="7.352623">
        <ele>242.0</ele>
        <time>2020-07-11T07:44:00Z</time>
      </trkpt>
      <trkpt lat="48.740955" lon="7.352774">
        <ele>241.0</ele>
        <time>2020-07-11T07:44:02Z</time>
      </trkpt>
      <trkpt lat="48.740959" lon="7.352909">
        <ele>241.0</ele>
        <time>2020-07-11T07:44:04Z</time>
      </trkpt>
      <trkpt lat="48.740958" lon="7.353048">
        <ele>240.0</ele>
        <time>2020-07-11T07:44:06Z</time>
      </trkpt>
      <trkpt lat="48.740955" lon="7.353188">
        <ele>240.0</ele>
        <time>2020-07-11T07:44:08Z</time>
      </trkpt>
      <trkpt lat="48.74094" lon="7.35335">
        <ele>241.0</ele>
        <time>2020-07-11T07:44:10Z</time>
      </trkpt>
      <trkpt lat="48.740943" lon="7.35351">
        <ele>241.0</ele>
        <time>2020-07-11T07:44:12Z</time>
      </trkpt>
      <trkpt lat="48.74095" lon="7.353653">
        <ele>242.0</ele>
        <time>2020-07-11T07:44:14Z</time>
      </trkpt>
      <trkpt lat="48.740945" lon="7.353795">
        <ele>242.0</ele>
        <time>2020-07-11T07:44:16Z</time>
      </trkpt>
      <trkpt lat="48.740944" lon="7.353931">
        <ele>242.0</ele>
        <time>2020-07-11T07:44:18Z</time>
      </trkpt>
      <trkpt lat="48.740939" lon="7.354058">
        <ele>242.0</ele>
        <time>2020-07-11T07:44:20Z</time>
      </trkpt>
      <trkpt lat="48.740926" lon="7.354177">
        <ele>241.0</ele>
        <time>2020-07-11T07:44:22Z</time>
      </trkpt>
      <trkpt lat="48.740927" lon="7.354283">
        <ele>241.0</ele>
        <time>2020-07-11T07:44:24Z</time>
      </trkpt>
      <trkpt lat="48.740931" lon="7.354407">
        <ele>241.0</ele>
        <time>2020-07-11T07:44:26Z</time>
      </trkpt>
      <trkpt lat="48.740931" lon="7.354542">
        <ele>240.0</ele>
        <time>2020-07-11T07:44:28Z</time>
      </trkpt>
      <trkpt lat="48.740932" lon="7.354662">
        <ele>240.0</ele>
        <time>2020-07-11T07:44:30Z</time>
      </trkpt>
      <trkpt lat="48.74093" lon="7.354778">
        <ele>239.0</ele>
        <time>2020-07-11T07:44:32Z</time>
      </trkpt>
      <trkpt lat="48.740929" lon="7.354888">
        <ele>239.0</ele>
        <time>2020-07-11T07:44:34Z</time>
      </trkpt>
      <trkpt lat="48.740924" lon="7.354997">
        <ele>239.0</ele>
        <time>2020-07-11T07:44:36Z</time>
      </trkpt>
      <trkpt lat="48.740925" lon="7.355117">
        <ele>239.0</ele>
        <time>2020-07-11T07:44:38Z</time>
      </trkpt>
      <trkpt lat="48.740934" lon="7.355245">
        <ele>239.0</ele>
        <time>2020-07-11T07:44:40Z</time>
      </trkpt>
      <trkpt lat="48.740933" lon="7.355364">
        <ele>239.0</ele>
        <time>2020-07-11T07:44:42Z</time>
      </trkpt>
      <trkpt lat="48.740927" lon="7.355477">
        <ele>239.0</ele>
        <time>2020-07-11T07:44:44Z</time>
      </trkpt>
      <trkpt lat="48.740925" lon="7.355593">
        <ele>239.0</ele>
        <time>2020-07-11T07:44:46Z</time>
      </trkpt>
      <trkpt lat="48.74092" lon="7.355713">
        <ele>239.0</ele>
        <time>2020-07-11T07:44:48Z</time>
      </trkpt>
      <trkpt lat="48.740911" lon="7.355832">
        <ele>239.0</ele>
        <time>2020-07-11T07:44:50Z</time>
      </trkpt>
      <trkpt lat="48.74091" lon="7.355993">
        <ele>239.0</ele>
        <time>2020-07-11T07:44:53Z</time>
      </trkpt>
      <trkpt lat="48.740913" lon="7.356086">
        <ele>239.0</ele>
        <time>2020-07-11T07:44:55Z</time>
      </trkpt>
      <trkpt lat="48.740912" lon="7.356174">
        <ele>239.0</ele>
        <time>2020-07-11T07:44:57Z</time>
      </trkpt>
      <trkpt lat="48.740914" lon="7.356259">
        <ele>238.0</ele>
        <time>2020-07-11T07:44:59Z</time>
      </trkpt>
      <trkpt lat="48.740931" lon="7.356328">
        <ele>238.0</ele>
        <time>2020-07-11T07:45:01Z</time>
      </trkpt>
      <trkpt lat="48.740949" lon="7.356395">
        <ele>239.0</ele>
        <time>2020-07-11T07:45:03Z</time>
      </trkpt>
      <trkpt lat="48.740951" lon="7.356404">
        <ele>239.0</ele>
        <time>2020-07-11T07:45:05Z</time>
      </trkpt>
      <trkpt lat="48.740947" lon="7.356411">
        <ele>239.0</ele>
        <time>2020-07-11T07:45:07Z</time>
      </trkpt>
      <trkpt lat="48.740947" lon="7.356411">
        <ele>239.0</ele>
        <time>2020-07-11T07:45:09Z</time>
      </trkpt>
      <trkpt lat="48.740947" lon="7.356411">
        <ele>239.0</ele>
        <time>2020-07-11T07:45:10Z</time>
      </trkpt>
      <trkpt lat="48.740947" lon="7.356411">
        <ele>239.0</ele>
        <time>2020-07-11T07:45:13Z</time>
      </trkpt>
      <trkpt lat="48.740947" lon="7.356411">
        <ele>239.0</ele>
        <time>2020-07-11T07:45:15Z</time>
      </trkpt>
      <trkpt lat="48.740947" lon="7.356411">
        <ele>239.0</ele>
        <time>2020-07-11T07:45:17Z</time>
      </trkpt>
      <trkpt lat="48.740947" lon="7.356411">
        <ele>239.0</ele>
        <time>2020-07-11T07:45:19Z</time>
      </trkpt>
      <trkpt lat="48.740947" lon="7.356411">
        <ele>239.0</ele>
        <time>2020-07-11T07:45:21Z</time>
      </trkpt>
      <trkpt lat="48.740947" lon="7.356411">
        <ele>239.0</ele>
        <time>2020-07-11T07:45:23Z</time>
      </trkpt>
      <trkpt lat="48.740934" lon="7.356427">
        <ele>240.0</ele>
        <time>2020-07-11T07:45:25Z</time>
      </trkpt>
      <trkpt lat="48.74093" lon="7.356473">
        <ele>239.0</ele>
        <time>2020-07-11T07:45:27Z</time>
      </trkpt>
      <trkpt lat="48.740925" lon="7.356546">
        <ele>240.0</ele>
        <time>2020-07-11T07:45:29Z</time>
      </trkpt>
      <trkpt lat="48.74092" lon="7.356632">
        <ele>240.0</ele>
        <time>2020-07-11T07:45:31Z</time>
      </trkpt>
      <trkpt lat="48.740912" lon="7.356789">
        <ele>240.0</ele>
        <time>2020-07-11T07:45:34Z</time>
      </trkpt>
      <trkpt lat="48.740907" lon="7.356906">
        <ele>240.0</ele>
        <time>2020-07-11T07:45:36Z</time>
      </trkpt>
      <trkpt lat="48.740894" lon="7.357022">
        <ele>240.0</ele>
        <time>2020-07-11T07:45:38Z</time>
      </trkpt>
      <trkpt lat="48.74089" lon="7.357146">
        <ele>241.0</ele>
        <time>2020-07-11T07:45:40Z</time>
      </trkpt>
      <trkpt lat="48.740891" lon="7.357275">
        <ele>241.0</ele>
        <time>2020-07-11T07:45:42Z</time>
      </trkpt>
      <trkpt lat="48.740893" lon="7.3574">
        <ele>241.0</ele>
        <time>2020-07-11T07:45:44Z</time>
      </trkpt>
      <trkpt lat="48.740893" lon="7.357541">
        <ele>242.0</ele>
        <time>2020-07-11T07:45:46Z</time>
      </trkpt>
      <trkpt lat="48.740902" lon="7.357751">
        <ele>242.0</ele>
        <time>2020-07-11T07:45:49Z</time>
      </trkpt>
      <trkpt lat="48.740898" lon="7.357821">
        <ele>242.0</ele>
        <time>2020-07-11T07:45:50Z</time>
      </trkpt>
      <trkpt lat="48.740889" lon="7.357952">
        <ele>242.0</ele>
        <time>2020-07-11T07:45:52Z</time>
      </trkpt>
      <trkpt lat="48.740891" lon="7.358152">
        <ele>241.0</ele>
        <time>2020-07-11T07:45:55Z</time>
      </trkpt>
      <trkpt lat="48.740901" lon="7.358288">
        <ele>241.0</ele>
        <time>2020-07-11T07:45:57Z</time>
      </trkpt>
      <trkpt lat="48.740896" lon="7.358427">
        <ele>239.0</ele>
        <time>2020-07-11T07:45:59Z</time>
      </trkpt>
      <trkpt lat="48.740889" lon="7.358567">
        <ele>239.0</ele>
        <time>2020-07-11T07:46:01Z</time>
      </trkpt>
      <trkpt lat="48.740891" lon="7.358699">
        <ele>239.0</ele>
        <time>2020-07-11T07:46:03Z</time>
      </trkpt>
      <trkpt lat="48.74088" lon="7.358841">
        <ele>240.0</ele>
        <time>2020-07-11T07:46:05Z</time>
      </trkpt>
      <trkpt lat="48.740867" lon="7.359044">
        <ele>240.0</ele>
        <time>2020-07-11T07:46:08Z</time>
      </trkpt>
      <trkpt lat="48.740872" lon="7.359178">
        <ele>240.0</ele>
        <time>2020-07-11T07:46:10Z</time>
      </trkpt>
      <trkpt lat="48.74091" lon="7.359306">
        <ele>240.0</ele>
        <time>2020-07-11T07:46:12Z</time>
      </trkpt>
      <trkpt lat="48.741" lon="7.359462">
        <ele>239.0</ele>
        <time>2020-07-11T07:46:15Z</time>
      </trkpt>
      <trkpt lat="48.74105" lon="7.359571">
        <ele>239.0</ele>
        <time>2020-07-11T07:46:17Z</time>
      </trkpt>
      <trkpt lat="48.741118" lon="7.359698">
        <ele>239.0</ele>
        <time>2020-07-11T07:46:19Z</time>
      </trkpt>
      <trkpt lat="48.741185" lon="7.359802">
        <ele>239.0</ele>
        <time>2020-07-11T07:46:21Z</time>
      </trkpt>
      <trkpt lat="48.74129" lon="7.359969">
        <ele>239.0</ele>
        <time>2020-07-11T07:46:24Z</time>
      </trkpt>
      <trkpt lat="48.741363" lon="7.360079">
        <ele>239.0</ele>
        <time>2020-07-11T07:46:26Z</time>
      </trkpt>
      <trkpt lat="48.741423" lon="7.360187">
        <ele>240.0</ele>
        <time>2020-07-11T07:46:28Z</time>
      </trkpt>
      <trkpt lat="48.741477" lon="7.360299">
        <ele>239.0</ele>
        <time>2020-07-11T07:46:30Z</time>
      </trkpt>
      <trkpt lat="48.741527" lon="7.360404">
        <ele>240.0</ele>
        <time>2020-07-11T07:46:32Z</time>
      </trkpt>
      <trkpt lat="48.74158" lon="7.360499">
        <ele>240.0</ele>
        <time>2020-07-11T07:46:34Z</time>
      </trkpt>
      <trkpt lat="48.741626" lon="7.360582">
        <ele>240.0</ele>
        <time>2020-07-11T07:46:36Z</time>
      </trkpt>
      <trkpt lat="48.74168" lon="7.360658">
        <ele>240.0</ele>
        <time>2020-07-11T07:46:38Z</time>
      </trkpt>
      <trkpt lat="48.741753" lon="7.360785">
        <ele>241.0</ele>
        <time>2020-07-11T07:46:41Z</time>
      </trkpt>
      <trkpt lat="48.741798" lon="7.360861">
        <ele>241.0</ele>
        <time>2020-07-11T07:46:43Z</time>
      </trkpt>
      <trkpt lat="48.741836" lon="7.360944">
        <ele>241.0</ele>
        <time>2020-07-11T07:46:45Z</time>
      </trkpt>
      <trkpt lat="48.74187" lon="7.361022">
        <ele>241.0</ele>
        <time>2020-07-11T07:46:47Z</time>
      </trkpt>
      <trkpt lat="48.741906" lon="7.361077">
        <ele>241.0</ele>
        <time>2020-07-11T07:46:49Z</time>
      </trkpt>
      <trkpt lat="48.741939" lon="7.361128">
        <ele>242.0</ele>
        <time>2020-07-11T07:46:51Z</time>
      </trkpt>
      <trkpt lat="48.741972" lon="7.361179">
        <ele>242.0</ele>
        <time>2020-07-11T07:46:53Z</time>
      </trkpt>
      <trkpt lat="48.742025" lon="7.361259">
        <ele>242.0</ele>
        <time>2020-07-11T07:46:56Z</time>
      </trkpt>
      <trkpt lat="48.742043" lon="7.361308">
        <ele>242.0</ele>
        <time>2020-07-11T07:46:58Z</time>
      </trkpt>
      <trkpt lat="48.742062" lon="7.361376">
        <ele>242.0</ele>
        <time>2020-07-11T07:47:01Z</time>
      </trkpt>
      <trkpt lat="48.742069" lon="7.361417">
        <ele>242.0</ele>
        <time>2020-07-11T07:47:03Z</time>
      </trkpt>
      <trkpt lat="48.742066" lon="7.361452">
        <ele>242.0</ele>
        <time>2020-07-11T07:47:06Z</time>
      </trkpt>
      <trkpt lat="48.742052" lon="7.361473">
        <ele>242.0</ele>
        <time>2020-07-11T07:47:08Z</time>
      </trkpt>
      <trkpt lat="48.74203" lon="7.361453">
        <ele>242.0</ele>
        <time>2020-07-11T07:47:10Z</time>
      </trkpt>
      <trkpt lat="48.742007" lon="7.361447">
        <ele>241.0</ele>
        <time>2020-07-11T07:47:12Z</time>
      </trkpt>
      <trkpt lat="48.741976" lon="7.361497">
        <ele>242.0</ele>
        <time>2020-07-11T07:47:14Z</time>
      </trkpt>
      <trkpt lat="48.741955" lon="7.361545">
        <ele>242.0</ele>
        <time>2020-07-11T07:47:16Z</time>
      </trkpt>
      <trkpt lat="48.741919" lon="7.36162">
        <ele>242.0</ele>
        <time>2020-07-11T07:47:19Z</time>
      </trkpt>
      <trkpt lat="48.741899" lon="7.361656">
        <ele>242.0</ele>
        <time>2020-07-11T07:47:21Z</time>
      </trkpt>
      <trkpt lat="48.741885" lon="7.361695">
        <ele>242.0</ele>
        <time>2020-07-11T07:47:23Z</time>
      </trkpt>
      <trkpt lat="48.741844" lon="7.361737">
        <ele>242.0</ele>
        <time>2020-07-11T07:47:25Z</time>
      </trkpt>
      <trkpt lat="48.741824" lon="7.361766">
        <ele>242.0</ele>
        <time>2020-07-11T07:47:26Z</time>
      </trkpt>
      <trkpt lat="48.741768" lon="7.361838">
        <ele>242.0</ele>
        <time>2020-07-11T07:47:29Z</time>
      </trkpt>
      <trkpt lat="48.74172" lon="7.361868">
        <ele>242.0</ele>
        <time>2020-07-11T07:47:31Z</time>
      </trkpt>
      <trkpt lat="48.741677" lon="7.36186">
        <ele>242.0</ele>
        <time>2020-07-11T07:47:33Z</time>
      </trkpt>
      <trkpt lat="48.74166" lon="7.361862">
        <ele>242.0</ele>
        <time>2020-07-11T07:47:35Z</time>
      </trkpt>
      <trkpt lat="48.741672" lon="7.361852">
        <ele>241.0</ele>
        <time>2020-07-11T07:47:37Z</time>
      </trkpt>
      <trkpt lat="48.741673" lon="7.361845">
        <ele>241.0</ele>
        <time>2020-07-11T07:47:39Z</time>
      </trkpt>
      <trkpt lat="48.741673" lon="7.361847">
        <ele>242.0</ele>
        <time>2020-07-11T07:47:41Z</time>
      </trkpt>
      <trkpt lat="48.741673" lon="7.361847">
        <ele>242.0</ele>
        <time>2020-07-11T07:47:44Z</time>
      </trkpt>
      <trkpt lat="48.741673" lon="7.361847">
        <ele>242.0</ele>
        <time>2020-07-11T07:47:46Z</time>
      </trkpt>
      <trkpt lat="48.741673" lon="7.361847">
        <ele>242.0</ele>
        <time>2020-07-11T07:47:48Z</time>
      </trkpt>
      <trkpt lat="48.741677" lon="7.36187">
        <ele>243.0</ele>
        <time>2020-07-11T07:47:50Z</time>
      </trkpt>
      <trkpt lat="48.741678" lon="7.36188">
        <ele>241.0</ele>
        <time>2020-07-11T07:47:52Z</time>
      </trkpt>
      <trkpt lat="48.741678" lon="7.36188">
        <ele>241.0</ele>
        <time>2020-07-11T07:47:54Z</time>
      </trkpt>
      <trkpt lat="48.741678" lon="7.36188">
        <ele>241.0</ele>
        <time>2020-07-11T07:47:56Z</time>
      </trkpt>
      <trkpt lat="48.741672" lon="7.361874">
        <ele>241.0</ele>
        <time>2020-07-11T07:47:58Z</time>
      </trkpt>
      <trkpt lat="48.741671" lon="7.361878">
        <ele>241.0</ele>
        <time>2020-07-11T07:48:00Z</time>
      </trkpt>
      <trkpt lat="48.741669" lon="7.361885">
        <ele>242.0</ele>
        <time>2020-07-11T07:48:01Z</time>
      </trkpt>
      <trkpt lat="48.741668" lon="7.361902">
        <ele>242.0</ele>
        <time>2020-07-11T07:48:06Z</time>
      </trkpt>
      <trkpt lat="48.741668" lon="7.361902">
        <ele>242.0</ele>
        <time>2020-07-11T07:48:08Z</time>
      </trkpt>
      <trkpt lat="48.741667" lon="7.361907">
        <ele>242.0</ele>
        <time>2020-07-11T07:48:10Z</time>
      </trkpt>
      <trkpt lat="48.741673" lon="7.36193">
        <ele>242.0</ele>
        <time>2020-07-11T07:48:12Z</time>
      </trkpt>
      <trkpt lat="48.741696" lon="7.361943">
        <ele>243.0</ele>
        <time>2020-07-11T07:48:14Z</time>
      </trkpt>
      <trkpt lat="48.741729" lon="7.361943">
        <ele>242.0</ele>
        <time>2020-07-11T07:48:16Z</time>
      </trkpt>
      <trkpt lat="48.741767" lon="7.361953">
        <ele>242.0</ele>
        <time>2020-07-11T07:48:18Z</time>
      </trkpt>
      <trkpt lat="48.741774" lon="7.361948">
        <ele>243.0</ele>
        <time>2020-07-11T07:48:20Z</time>
      </trkpt>
      <trkpt lat="48.741773" lon="7.361948">
        <ele>243.0</ele>
        <time>2020-07-11T07:48:22Z</time>
      </trkpt>
      <trkpt lat="48.741773" lon="7.361948">
        <ele>243.0</ele>
        <time>2020-07-11T07:48:23Z</time>
      </trkpt>
      <trkpt lat="48.741773" lon="7.361948">
        <ele>243.0</ele>
        <time>2020-07-11T07:48:26Z</time>
      </trkpt>
      <trkpt lat="48.741773" lon="7.361948">
        <ele>243.0</ele>
        <time>2020-07-11T07:48:36Z</time>
      </trkpt>
      <trkpt lat="48.741773" lon="7.361948">
        <ele>243.0</ele>
        <time>2020-07-11T07:48:37Z</time>
      </trkpt>
      <trkpt lat="48.741773" lon="7.361948">
        <ele>243.0</ele>
        <time>2020-07-11T07:48:40Z</time>
      </trkpt>
      <trkpt lat="48.741773" lon="7.361948">
        <ele>243.0</ele>
        <time>2020-07-11T07:48:42Z</time>
      </trkpt>
      <trkpt lat="48.741766" lon="7.361953">
        <ele>243.0</ele>
        <time>2020-07-11T07:48:44Z</time>
      </trkpt>
      <trkpt lat="48.741759" lon="7.36194">
        <ele>243.0</ele>
        <time>2020-07-11T07:48:46Z</time>
      </trkpt>
      <trkpt lat="48.741759" lon="7.36194">
        <ele>243.0</ele>
        <time>2020-07-11T07:48:48Z</time>
      </trkpt>
      <trkpt lat="48.741759" lon="7.36194">
        <ele>243.0</ele>
        <time>2020-07-11T07:48:50Z</time>
      </trkpt>
      <trkpt lat="48.741759" lon="7.36194">
        <ele>243.0</ele>
        <time>2020-07-11T07:48:53Z</time>
      </trkpt>
      <trkpt lat="48.741759" lon="7.36194">
        <ele>243.0</ele>
        <time>2020-07-11T07:48:55Z</time>
      </trkpt>
      <trkpt lat="48.74177" lon="7.361938">
        <ele>244.0</ele>
        <time>2020-07-11T07:48:57Z</time>
      </trkpt>
      <trkpt lat="48.741779" lon="7.361943">
        <ele>244.0</ele>
        <time>2020-07-11T07:48:58Z</time>
      </trkpt>
      <trkpt lat="48.741832" lon="7.362029">
        <ele>245.0</ele>
        <time>2020-07-11T07:49:01Z</time>
      </trkpt>
      <trkpt lat="48.741871" lon="7.362106">
        <ele>245.0</ele>
        <time>2020-07-11T07:49:03Z</time>
      </trkpt>
      <trkpt lat="48.741908" lon="7.36221">
        <ele>244.0</ele>
        <time>2020-07-11T07:49:06Z</time>
      </trkpt>
      <trkpt lat="48.74191" lon="7.362278">
        <ele>244.0</ele>
        <time>2020-07-11T07:49:08Z</time>
      </trkpt>
      <trkpt lat="48.7419" lon="7.362331">
        <ele>244.0</ele>
        <time>2020-07-11T07:49:10Z</time>
      </trkpt>
      <trkpt lat="48.741882" lon="7.362353">
        <ele>244.0</ele>
        <time>2020-07-11T07:49:12Z</time>
      </trkpt>
      <trkpt lat="48.741875" lon="7.362362">
        <ele>243.0</ele>
        <time>2020-07-11T07:49:13Z</time>
      </trkpt>
      <trkpt lat="48.741863" lon="7.362389">
        <ele>242.0</ele>
        <time>2020-07-11T07:49:16Z</time>
      </trkpt>
      <trkpt lat="48.741863" lon="7.362389">
        <ele>242.0</ele>
        <time>2020-07-11T07:49:18Z</time>
      </trkpt>
      <trkpt lat="48.741874" lon="7.362427">
        <ele>239.0</ele>
        <time>2020-07-11T07:49:21Z</time>
      </trkpt>
      <trkpt lat="48.741912" lon="7.362452">
        <ele>236.0</ele>
        <time>2020-07-11T07:49:23Z</time>
      </trkpt>
      <trkpt lat="48.741937" lon="7.362486">
        <ele>235.0</ele>
        <time>2020-07-11T07:49:25Z</time>
      </trkpt>
      <trkpt lat="48.741951" lon="7.362498">
        <ele>235.0</ele>
        <time>2020-07-11T07:49:27Z</time>
      </trkpt>
      <trkpt lat="48.741953" lon="7.362499">
        <ele>236.0</ele>
        <time>2020-07-11T07:49:30Z</time>
      </trkpt>
      <trkpt lat="48.741953" lon="7.362499">
        <ele>236.0</ele>
        <time>2020-07-11T07:49:32Z</time>
      </trkpt>
      <trkpt lat="48.741953" lon="7.362499">
        <ele>236.0</ele>
        <time>2020-07-11T07:49:34Z</time>
      </trkpt>
      <trkpt lat="48.741953" lon="7.362499">
        <ele>236.0</ele>
        <time>2020-07-11T07:49:38Z</time>
      </trkpt>
      <trkpt lat="48.741953" lon="7.362499">
        <ele>236.0</ele>
        <time>2020-07-11T07:49:40Z</time>
      </trkpt>
      <trkpt lat="48.741953" lon="7.362499">
        <ele>236.0</ele>
        <time>2020-07-11T07:49:42Z</time>
      </trkpt>
      <trkpt lat="48.741956" lon="7.362496">
        <ele>236.0</ele>
        <time>2020-07-11T07:49:44Z</time>
      </trkpt>
      <trkpt lat="48.741953" lon="7.36248">
        <ele>236.0</ele>
        <time>2020-07-11T07:49:46Z</time>
      </trkpt>
      <trkpt lat="48.741957" lon="7.362471">
        <ele>237.0</ele>
        <time>2020-07-11T07:49:48Z</time>
      </trkpt>
      <trkpt lat="48.741955" lon="7.362478">
        <ele>238.0</ele>
        <time>2020-07-11T07:49:50Z</time>
      </trkpt>
      <trkpt lat="48.741957" lon="7.362475">
        <ele>239.0</ele>
        <time>2020-07-11T07:49:52Z</time>
      </trkpt>
      <trkpt lat="48.741958" lon="7.36248">
        <ele>238.0</ele>
        <time>2020-07-11T07:49:54Z</time>
      </trkpt>
      <trkpt lat="48.741958" lon="7.362489">
        <ele>238.0</ele>
        <time>2020-07-11T07:49:56Z</time>
      </trkpt>
      <trkpt lat="48.741958" lon="7.362489">
        <ele>238.0</ele>
        <time>2020-07-11T07:49:58Z</time>
      </trkpt>
      <trkpt lat="48.741965" lon="7.362483">
        <ele>237.0</ele>
        <time>2020-07-11T07:50:00Z</time>
      </trkpt>
      <trkpt lat="48.741973" lon="7.362447">
        <ele>236.0</ele>
        <time>2020-07-11T07:50:02Z</time>
      </trkpt>
      <trkpt lat="48.741951" lon="7.362408">
        <ele>237.0</ele>
        <time>2020-07-11T07:50:04Z</time>
      </trkpt>
      <trkpt lat="48.74191" lon="7.362383">
        <ele>237.0</ele>
        <time>2020-07-11T07:50:06Z</time>
      </trkpt>
      <trkpt lat="48.741865" lon="7.362365">
        <ele>238.0</ele>
        <time>2020-07-11T07:50:08Z</time>
      </trkpt>
      <trkpt lat="48.741816" lon="7.362368">
        <ele>238.0</ele>
        <time>2020-07-11T07:50:10Z</time>
      </trkpt>
      <trkpt lat="48.741771" lon="7.36237">
        <ele>239.0</ele>
        <time>2020-07-11T07:50:12Z</time>
      </trkpt>
      <trkpt lat="48.741726" lon="7.362362">
        <ele>239.0</ele>
        <time>2020-07-11T07:50:14Z</time>
      </trkpt>
      <trkpt lat="48.741684" lon="7.362352">
        <ele>239.0</ele>
        <time>2020-07-11T07:50:16Z</time>
      </trkpt>
      <trkpt lat="48.741646" lon="7.362346">
        <ele>239.0</ele>
        <time>2020-07-11T07:50:18Z</time>
      </trkpt>
      <trkpt lat="48.741606" lon="7.362342">
        <ele>240.0</ele>
        <time>2020-07-11T07:50:20Z</time>
      </trkpt>
      <trkpt lat="48.741586" lon="7.36232">
        <ele>240.0</ele>
        <time>2020-07-11T07:50:22Z</time>
      </trkpt>
      <trkpt lat="48.74157" lon="7.362325">
        <ele>240.0</ele>
        <time>2020-07-11T07:50:24Z</time>
      </trkpt>
      <trkpt lat="48.741553" lon="7.362328">
        <ele>241.0</ele>
        <time>2020-07-11T07:50:26Z</time>
      </trkpt>
      <trkpt lat="48.741534" lon="7.362346">
        <ele>241.0</ele>
        <time>2020-07-11T07:50:28Z</time>
      </trkpt>
      <trkpt lat="48.741516" lon="7.362368">
        <ele>241.0</ele>
        <time>2020-07-11T07:50:30Z</time>
      </trkpt>
      <trkpt lat="48.741506" lon="7.362364">
        <ele>241.0</ele>
        <time>2020-07-11T07:50:32Z</time>
      </trkpt>
      <trkpt lat="48.741506" lon="7.362359">
        <ele>241.0</ele>
        <time>2020-07-11T07:50:34Z</time>
      </trkpt>
      <trkpt lat="48.741506" lon="7.362359">
        <ele>241.0</ele>
        <time>2020-07-11T07:50:36Z</time>
      </trkpt>
      <trkpt lat="48.741506" lon="7.362359">
        <ele>241.0</ele>
        <time>2020-07-11T07:50:38Z</time>
      </trkpt>
      <trkpt lat="48.741501" lon="7.36236">
        <ele>241.0</ele>
        <time>2020-07-11T07:50:40Z</time>
      </trkpt>
      <trkpt lat="48.741499" lon="7.362351">
        <ele>241.0</ele>
        <time>2020-07-11T07:50:42Z</time>
      </trkpt>
      <trkpt lat="48.741499" lon="7.362351">
        <ele>241.0</ele>
        <time>2020-07-11T07:50:44Z</time>
      </trkpt>
      <trkpt lat="48.741476" lon="7.362333">
        <ele>242.0</ele>
        <time>2020-07-11T07:50:46Z</time>
      </trkpt>
      <trkpt lat="48.741475" lon="7.362328">
        <ele>243.0</ele>
        <time>2020-07-11T07:50:48Z</time>
      </trkpt>
      <trkpt lat="48.741475" lon="7.362328">
        <ele>243.0</ele>
        <time>2020-07-11T07:50:50Z</time>
      </trkpt>
      <trkpt lat="48.741446" lon="7.362344">
        <ele>243.0</ele>
        <time>2020-07-11T07:50:52Z</time>
      </trkpt>
      <trkpt lat="48.741407" lon="7.362391">
        <ele>243.0</ele>
        <time>2020-07-11T07:50:54Z</time>
      </trkpt>
      <trkpt lat="48.741371" lon="7.362443">
        <ele>243.0</ele>
        <time>2020-07-11T07:50:56Z</time>
      </trkpt>
      <trkpt lat="48.741333" lon="7.362501">
        <ele>243.0</ele>
        <time>2020-07-11T07:50:58Z</time>
      </trkpt>
      <trkpt lat="48.741303" lon="7.362561">
        <ele>244.0</ele>
        <time>2020-07-11T07:51:00Z</time>
      </trkpt>
      <trkpt lat="48.741278" lon="7.362599">
        <ele>245.0</ele>
        <time>2020-07-11T07:51:02Z</time>
      </trkpt>
      <trkpt lat="48.741255" lon="7.362649">
        <ele>245.0</ele>
        <time>2020-07-11T07:51:04Z</time>
      </trkpt>
      <trkpt lat="48.741234" lon="7.362716">
        <ele>245.0</ele>
        <time>2020-07-11T07:51:06Z</time>
      </trkpt>
      <trkpt lat="48.741208" lon="7.362776">
        <ele>246.0</ele>
        <time>2020-07-11T07:51:08Z</time>
      </trkpt>
      <trkpt lat="48.741191" lon="7.362833">
        <ele>246.0</ele>
        <time>2020-07-11T07:51:10Z</time>
      </trkpt>
      <trkpt lat="48.741187" lon="7.362901">
        <ele>247.0</ele>
        <time>2020-07-11T07:51:12Z</time>
      </trkpt>
      <trkpt lat="48.741182" lon="7.36295">
        <ele>247.0</ele>
        <time>2020-07-11T07:51:14Z</time>
      </trkpt>
      <trkpt lat="48.741176" lon="7.362958">
        <ele>247.0</ele>
        <time>2020-07-11T07:51:16Z</time>
      </trkpt>
      <trkpt lat="48.741161" lon="7.362957">
        <ele>247.0</ele>
        <time>2020-07-11T07:51:18Z</time>
      </trkpt>
      <trkpt lat="48.74114" lon="7.362965">
        <ele>248.0</ele>
        <time>2020-07-11T07:51:20Z</time>
      </trkpt>
      <trkpt lat="48.74114" lon="7.362965">
        <ele>248.0</ele>
        <time>2020-07-11T07:51:22Z</time>
      </trkpt>
      <trkpt lat="48.741125" lon="7.362987">
        <ele>249.0</ele>
        <time>2020-07-11T07:51:39Z</time>
      </trkpt>
      <trkpt lat="48.741125" lon="7.362987">
        <ele>249.0</ele>
        <time>2020-07-11T07:51:41Z</time>
      </trkpt>
      <trkpt lat="48.741125" lon="7.362987">
        <ele>249.0</ele>
        <time>2020-07-11T07:51:43Z</time>
      </trkpt>
      <trkpt lat="48.741125" lon="7.362987">
        <ele>249.0</ele>
        <time>2020-07-11T07:51:45Z</time>
      </trkpt>
      <trkpt lat="48.741125" lon="7.362987">
        <ele>249.0</ele>
        <time>2020-07-11T07:51:47Z</time>
      </trkpt>
      <trkpt lat="48.741125" lon="7.362987">
        <ele>249.0</ele>
        <time>2020-07-11T07:51:49Z</time>
      </trkpt>
      <trkpt lat="48.741121" lon="7.362982">
        <ele>248.0</ele>
        <time>2020-07-11T07:51:51Z</time>
      </trkpt>
      <trkpt lat="48.741125" lon="7.362994">
        <ele>249.0</ele>
        <time>2020-07-11T07:51:53Z</time>
      </trkpt>
      <trkpt lat="48.741125" lon="7.362995">
        <ele>249.0</ele>
        <time>2020-07-11T07:51:55Z</time>
      </trkpt>
      <trkpt lat="48.741125" lon="7.362995">
        <ele>249.0</ele>
        <time>2020-07-11T07:51:57Z</time>
      </trkpt>
      <trkpt lat="48.741125" lon="7.362995">
        <ele>249.0</ele>
        <time>2020-07-11T07:51:59Z</time>
      </trkpt>
      <trkpt lat="48.741125" lon="7.362995">
        <ele>249.0</ele>
        <time>2020-07-11T07:52:01Z</time>
      </trkpt>
      <trkpt lat="48.741133" lon="7.362968">
        <ele>249.0</ele>
        <time>2020-07-11T07:52:03Z</time>
      </trkpt>
      <trkpt lat="48.741162" lon="7.362912">
        <ele>249.0</ele>
        <time>2020-07-11T07:52:05Z</time>
      </trkpt>
      <trkpt lat="48.741189" lon="7.362859">
        <ele>249.0</ele>
        <time>2020-07-11T07:52:07Z</time>
      </trkpt>
      <trkpt lat="48.741208" lon="7.362807">
        <ele>248.0</ele>
        <time>2020-07-11T07:52:09Z</time>
      </trkpt>
      <trkpt lat="48.741225" lon="7.362761">
        <ele>248.0</ele>
        <time>2020-07-11T07:52:11Z</time>
      </trkpt>
      <trkpt lat="48.741256" lon="7.362692">
        <ele>247.0</ele>
        <time>2020-07-11T07:52:14Z</time>
      </trkpt>
      <trkpt lat="48.741274" lon="7.362663">
        <ele>245.0</ele>
        <time>2020-07-11T07:52:16Z</time>
      </trkpt>
      <trkpt lat="48.7413" lon="7.362644">
        <ele>243.0</ele>
        <time>2020-07-11T07:52:18Z</time>
      </trkpt>
      <trkpt lat="48.741323" lon="7.362603">
        <ele>241.0</ele>
        <time>2020-07-11T07:52:20Z</time>
      </trkpt>
      <trkpt lat="48.741346" lon="7.362562">
        <ele>240.0</ele>
        <time>2020-07-11T07:52:22Z</time>
      </trkpt>
      <trkpt lat="48.741383" lon="7.362506">
        <ele>240.0</ele>
        <time>2020-07-11T07:52:24Z</time>
      </trkpt>
      <trkpt lat="48.741417" lon="7.362463">
        <ele>240.0</ele>
        <time>2020-07-11T07:52:26Z</time>
      </trkpt>
      <trkpt lat="48.741446" lon="7.362407">
        <ele>238.0</ele>
        <time>2020-07-11T07:52:28Z</time>
      </trkpt>
      <trkpt lat="48.741489" lon="7.362339">
        <ele>237.0</ele>
        <time>2020-07-11T07:52:30Z</time>
      </trkpt>
      <trkpt lat="48.741552" lon="7.362188">
        <ele>237.0</ele>
        <time>2020-07-11T07:52:33Z</time>
      </trkpt>
      <trkpt lat="48.741605" lon="7.362043">
        <ele>239.0</ele>
        <time>2020-07-11T07:52:35Z</time>
      </trkpt>
      <trkpt lat="48.741706" lon="7.361836">
        <ele>238.0</ele>
        <time>2020-07-11T07:52:38Z</time>
      </trkpt>
      <trkpt lat="48.741793" lon="7.361699">
        <ele>237.0</ele>
        <time>2020-07-11T07:52:40Z</time>
      </trkpt>
      <trkpt lat="48.741888" lon="7.361562">
        <ele>237.0</ele>
        <time>2020-07-11T07:52:42Z</time>
      </trkpt>
      <trkpt lat="48.741949" lon="7.361462">
        <ele>239.0</ele>
        <time>2020-07-11T07:52:44Z</time>
      </trkpt>
      <trkpt lat="48.742021" lon="7.361455">
        <ele>240.0</ele>
        <time>2020-07-11T07:52:46Z</time>
      </trkpt>
      <trkpt lat="48.742116" lon="7.361569">
        <ele>239.0</ele>
        <time>2020-07-11T07:52:48Z</time>
      </trkpt>
      <trkpt lat="48.742193" lon="7.361696">
        <ele>239.0</ele>
        <time>2020-07-11T07:52:50Z</time>
      </trkpt>
      <trkpt lat="48.742229" lon="7.361766">
        <ele>239.0</ele>
        <time>2020-07-11T07:52:51Z</time>
      </trkpt>
      <trkpt lat="48.742348" lon="7.361995">
        <ele>238.0</ele>
        <time>2020-07-11T07:52:54Z</time>
      </trkpt>
      <trkpt lat="48.742434" lon="7.362155">
        <ele>238.0</ele>
        <time>2020-07-11T07:52:56Z</time>
      </trkpt>
      <trkpt lat="48.742519" lon="7.362313">
        <ele>237.0</ele>
        <time>2020-07-11T07:52:58Z</time>
      </trkpt>
      <trkpt lat="48.742599" lon="7.362478">
        <ele>236.0</ele>
        <time>2020-07-11T07:53:00Z</time>
      </trkpt>
      <trkpt lat="48.742725" lon="7.362744">
        <ele>235.0</ele>
        <time>2020-07-11T07:53:03Z</time>
      </trkpt>
      <trkpt lat="48.74282" lon="7.362942">
        <ele>235.0</ele>
        <time>2020-07-11T07:53:05Z</time>
      </trkpt>
      <trkpt lat="48.742914" lon="7.363098">
        <ele>235.0</ele>
        <time>2020-07-11T07:53:07Z</time>
      </trkpt>
      <trkpt lat="48.742999" lon="7.363255">
        <ele>235.0</ele>
        <time>2020-07-11T07:53:09Z</time>
      </trkpt>
      <trkpt lat="48.743075" lon="7.363387">
        <ele>235.0</ele>
        <time>2020-07-11T07:53:11Z</time>
      </trkpt>
      <trkpt lat="48.743139" lon="7.363515">
        <ele>234.0</ele>
        <time>2020-07-11T07:53:13Z</time>
      </trkpt>
      <trkpt lat="48.743202" lon="7.363632">
        <ele>234.0</ele>
        <time>2020-07-11T07:53:15Z</time>
      </trkpt>
      <trkpt lat="48.743296" lon="7.363814">
        <ele>235.0</ele>
        <time>2020-07-11T07:53:18Z</time>
      </trkpt>
      <trkpt lat="48.743362" lon="7.363942">
        <ele>234.0</ele>
        <time>2020-07-11T07:53:20Z</time>
      </trkpt>
      <trkpt lat="48.743459" lon="7.364131">
        <ele>234.0</ele>
        <time>2020-07-11T07:53:23Z</time>
      </trkpt>
      <trkpt lat="48.74352" lon="7.364251">
        <ele>234.0</ele>
        <time>2020-07-11T07:53:25Z</time>
      </trkpt>
      <trkpt lat="48.743604" lon="7.364452">
        <ele>234.0</ele>
        <time>2020-07-11T07:53:28Z</time>
      </trkpt>
      <trkpt lat="48.743597" lon="7.364605">
        <ele>234.0</ele>
        <time>2020-07-11T07:53:30Z</time>
      </trkpt>
      <trkpt lat="48.743539" lon="7.36472">
        <ele>234.0</ele>
        <time>2020-07-11T07:53:32Z</time>
      </trkpt>
      <trkpt lat="48.743474" lon="7.364798">
        <ele>235.0</ele>
        <time>2020-07-11T07:53:34Z</time>
      </trkpt>
      <trkpt lat="48.743411" lon="7.36487">
        <ele>236.0</ele>
        <time>2020-07-11T07:53:36Z</time>
      </trkpt>
      <trkpt lat="48.743356" lon="7.36494">
        <ele>236.0</ele>
        <time>2020-07-11T07:53:38Z</time>
      </trkpt>
      <trkpt lat="48.743305" lon="7.365006">
        <ele>236.0</ele>
        <time>2020-07-11T07:53:40Z</time>
      </trkpt>
      <trkpt lat="48.743258" lon="7.365058">
        <ele>235.0</ele>
        <time>2020-07-11T07:53:42Z</time>
      </trkpt>
      <trkpt lat="48.743214" lon="7.365081">
        <ele>235.0</ele>
        <time>2020-07-11T07:53:44Z</time>
      </trkpt>
      <trkpt lat="48.743182" lon="7.365111">
        <ele>235.0</ele>
        <time>2020-07-11T07:53:46Z</time>
      </trkpt>
      <trkpt lat="48.743161" lon="7.365144">
        <ele>235.0</ele>
        <time>2020-07-11T07:53:48Z</time>
      </trkpt>
      <trkpt lat="48.743138" lon="7.365167">
        <ele>235.0</ele>
        <time>2020-07-11T07:53:50Z</time>
      </trkpt>
      <trkpt lat="48.743125" lon="7.365173">
        <ele>235.0</ele>
        <time>2020-07-11T07:53:52Z</time>
      </trkpt>
      <trkpt lat="48.743123" lon="7.365174">
        <ele>234.0</ele>
        <time>2020-07-11T07:53:54Z</time>
      </trkpt>
      <trkpt lat="48.743127" lon="7.365182">
        <ele>234.0</ele>
        <time>2020-07-11T07:53:56Z</time>
      </trkpt>
      <trkpt lat="48.743127" lon="7.365182">
        <ele>234.0</ele>
        <time>2020-07-11T07:53:57Z</time>
      </trkpt>
      <trkpt lat="48.743128" lon="7.365116">
        <ele>232.0</ele>
        <time>2020-07-11T07:56:29Z</time>
      </trkpt>
      <trkpt lat="48.743128" lon="7.365116">
        <ele>232.0</ele>
        <time>2020-07-11T07:56:31Z</time>
      </trkpt>
      <trkpt lat="48.743128" lon="7.365116">
        <ele>232.0</ele>
        <time>2020-07-11T07:56:33Z</time>
      </trkpt>
      <trkpt lat="48.743128" lon="7.365116">
        <ele>232.0</ele>
        <time>2020-07-11T07:56:35Z</time>
      </trkpt>
      <trkpt lat="48.743128" lon="7.365116">
        <ele>232.0</ele>
        <time>2020-07-11T07:56:37Z</time>
      </trkpt>
      <trkpt lat="48.743128" lon="7.365116">
        <ele>232.0</ele>
        <time>2020-07-11T07:56:39Z</time>
      </trkpt>
      <trkpt lat="48.743128" lon="7.365116">
        <ele>232.0</ele>
        <time>2020-07-11T07:56:40Z</time>
      </trkpt>
      <trkpt lat="48.743128" lon="7.365116">
        <ele>232.0</ele>
        <time>2020-07-11T07:56:43Z</time>
      </trkpt>
      <trkpt lat="48.74312" lon="7.365146">
        <ele>232.0</ele>
        <time>2020-07-11T07:56:45Z</time>
      </trkpt>
      <trkpt lat="48.743119" lon="7.36516">
        <ele>232.0</ele>
        <time>2020-07-11T07:56:47Z</time>
      </trkpt>
      <trkpt lat="48.743119" lon="7.365154">
        <ele>231.0</ele>
        <time>2020-07-11T07:56:49Z</time>
      </trkpt>
      <trkpt lat="48.743119" lon="7.365164">
        <ele>231.0</ele>
        <time>2020-07-11T07:56:51Z</time>
      </trkpt>
      <trkpt lat="48.743103" lon="7.365206">
        <ele>231.0</ele>
        <time>2020-07-11T07:56:53Z</time>
      </trkpt>
      <trkpt lat="48.743056" lon="7.365263">
        <ele>231.0</ele>
        <time>2020-07-11T07:56:55Z</time>
      </trkpt>
      <trkpt lat="48.743003" lon="7.365336">
        <ele>231.0</ele>
        <time>2020-07-11T07:56:57Z</time>
      </trkpt>
      <trkpt lat="48.742893" lon="7.365471">
        <ele>234.0</ele>
        <time>2020-07-11T07:57:00Z</time>
      </trkpt>
      <trkpt lat="48.742859" lon="7.365512">
        <ele>234.0</ele>
        <time>2020-07-11T07:57:01Z</time>
      </trkpt>
      <trkpt lat="48.742751" lon="7.365666">
        <ele>236.0</ele>
        <time>2020-07-11T07:57:04Z</time>
      </trkpt>
      <trkpt lat="48.742671" lon="7.365758">
        <ele>237.0</ele>
        <time>2020-07-11T07:57:06Z</time>
      </trkpt>
      <trkpt lat="48.742553" lon="7.365896">
        <ele>237.0</ele>
        <time>2020-07-11T07:57:09Z</time>
      </trkpt>
      <trkpt lat="48.742514" lon="7.365936">
        <ele>237.0</ele>
        <time>2020-07-11T07:57:10Z</time>
      </trkpt>
      <trkpt lat="48.742385" lon="7.366039">
        <ele>237.0</ele>
        <time>2020-07-11T07:57:13Z</time>
      </trkpt>
      <trkpt lat="48.742301" lon="7.366109">
        <ele>238.0</ele>
        <time>2020-07-11T07:57:15Z</time>
      </trkpt>
      <trkpt lat="48.742235" lon="7.366199">
        <ele>238.0</ele>
        <time>2020-07-11T07:57:17Z</time>
      </trkpt>
      <trkpt lat="48.74217" lon="7.366284">
        <ele>239.0</ele>
        <time>2020-07-11T07:57:19Z</time>
      </trkpt>
      <trkpt lat="48.742101" lon="7.366369">
        <ele>239.0</ele>
        <time>2020-07-11T07:57:21Z</time>
      </trkpt>
      <trkpt lat="48.742026" lon="7.366435">
        <ele>239.0</ele>
        <time>2020-07-11T07:57:23Z</time>
      </trkpt>
      <trkpt lat="48.741959" lon="7.366514">
        <ele>239.0</ele>
        <time>2020-07-11T07:57:25Z</time>
      </trkpt>
      <trkpt lat="48.741864" lon="7.366643">
        <ele>239.0</ele>
        <time>2020-07-11T07:57:28Z</time>
      </trkpt>
      <trkpt lat="48.741796" lon="7.366719">
        <ele>239.0</ele>
        <time>2020-07-11T07:57:30Z</time>
      </trkpt>
      <trkpt lat="48.741727" lon="7.366803">
        <ele>239.0</ele>
        <time>2020-07-11T07:57:32Z</time>
      </trkpt>
      <trkpt lat="48.741657" lon="7.366886">
        <ele>239.0</ele>
        <time>2020-07-11T07:57:34Z</time>
      </trkpt>
      <trkpt lat="48.741579" lon="7.366979">
        <ele>240.0</ele>
        <time>2020-07-11T07:57:36Z</time>
      </trkpt>
      <trkpt lat="48.741513" lon="7.367061">
        <ele>240.0</ele>
        <time>2020-07-11T07:57:38Z</time>
      </trkpt>
      <trkpt lat="48.741453" lon="7.367145">
        <ele>240.0</ele>
        <time>2020-07-11T07:57:40Z</time>
      </trkpt>
      <trkpt lat="48.741382" lon="7.367221">
        <ele>240.0</ele>
        <time>2020-07-11T07:57:42Z</time>
      </trkpt>
      <trkpt lat="48.741306" lon="7.367313">
        <ele>240.0</ele>
        <time>2020-07-11T07:57:44Z</time>
      </trkpt>
      <trkpt lat="48.741236" lon="7.367426">
        <ele>239.0</ele>
        <time>2020-07-11T07:57:46Z</time>
      </trkpt>
      <trkpt lat="48.74116" lon="7.367532">
        <ele>240.0</ele>
        <time>2020-07-11T07:57:48Z</time>
      </trkpt>
      <trkpt lat="48.74105" lon="7.367692">
        <ele>240.0</ele>
        <time>2020-07-11T07:57:51Z</time>
      </trkpt>
      <trkpt lat="48.741017" lon="7.367742">
        <ele>240.0</ele>
        <time>2020-07-11T07:57:52Z</time>
      </trkpt>
      <trkpt lat="48.740951" lon="7.367975">
        <ele>240.0</ele>
        <time>2020-07-11T07:57:56Z</time>
      </trkpt>
      <trkpt lat="48.740967" lon="7.368079">
        <ele>239.0</ele>
        <time>2020-07-11T07:57:58Z</time>
      </trkpt>
      <trkpt lat="48.741019" lon="7.36816">
        <ele>239.0</ele>
        <time>2020-07-11T07:58:00Z</time>
      </trkpt>
      <trkpt lat="48.741114" lon="7.368304">
        <ele>238.0</ele>
        <time>2020-07-11T07:58:03Z</time>
      </trkpt>
      <trkpt lat="48.741208" lon="7.368484">
        <ele>238.0</ele>
        <time>2020-07-11T07:58:06Z</time>
      </trkpt>
      <trkpt lat="48.74127" lon="7.368587">
        <ele>237.0</ele>
        <time>2020-07-11T07:58:08Z</time>
      </trkpt>
      <trkpt lat="48.741341" lon="7.368674">
        <ele>237.0</ele>
        <time>2020-07-11T07:58:10Z</time>
      </trkpt>
      <trkpt lat="48.741406" lon="7.368743">
        <ele>236.0</ele>
        <time>2020-07-11T07:58:12Z</time>
      </trkpt>
      <trkpt lat="48.741482" lon="7.368824">
        <ele>236.0</ele>
        <time>2020-07-11T07:58:14Z</time>
      </trkpt>
      <trkpt lat="48.741551" lon="7.368912">
        <ele>236.0</ele>
        <time>2020-07-11T07:58:16Z</time>
      </trkpt>
      <trkpt lat="48.741604" lon="7.369017">
        <ele>236.0</ele>
        <time>2020-07-11T07:58:18Z</time>
      </trkpt>
      <trkpt lat="48.741642" lon="7.36914">
        <ele>236.0</ele>
        <time>2020-07-11T07:58:20Z</time>
      </trkpt>
      <trkpt lat="48.741686" lon="7.369263">
        <ele>236.0</ele>
        <time>2020-07-11T07:58:22Z</time>
      </trkpt>
      <trkpt lat="48.741738" lon="7.369379">
        <ele>236.0</ele>
        <time>2020-07-11T07:58:24Z</time>
      </trkpt>
      <trkpt lat="48.741796" lon="7.369486">
        <ele>236.0</ele>
        <time>2020-07-11T07:58:26Z</time>
      </trkpt>
      <trkpt lat="48.741857" lon="7.369601">
        <ele>237.0</ele>
        <time>2020-07-11T07:58:28Z</time>
      </trkpt>
      <trkpt lat="48.741914" lon="7.36971">
        <ele>237.0</ele>
        <time>2020-07-11T07:58:30Z</time>
      </trkpt>
      <trkpt lat="48.741973" lon="7.369818">
        <ele>237.0</ele>
        <time>2020-07-11T07:58:32Z</time>
      </trkpt>
      <trkpt lat="48.742035" lon="7.369944">
        <ele>237.0</ele>
        <time>2020-07-11T07:58:34Z</time>
      </trkpt>
      <trkpt lat="48.742102" lon="7.370065">
        <ele>237.0</ele>
        <time>2020-07-11T07:58:36Z</time>
      </trkpt>
      <trkpt lat="48.742165" lon="7.370178">
        <ele>238.0</ele>
        <time>2020-07-11T07:58:38Z</time>
      </trkpt>
      <trkpt lat="48.74223" lon="7.370297">
        <ele>238.0</ele>
        <time>2020-07-11T07:58:40Z</time>
      </trkpt>
      <trkpt lat="48.742319" lon="7.370473">
        <ele>238.0</ele>
        <time>2020-07-11T07:58:43Z</time>
      </trkpt>
      <trkpt lat="48.742373" lon="7.370588">
        <ele>237.0</ele>
        <time>2020-07-11T07:58:45Z</time>
      </trkpt>
      <trkpt lat="48.742431" lon="7.370703">
        <ele>237.0</ele>
        <time>2020-07-11T07:58:47Z</time>
      </trkpt>
      <trkpt lat="48.742525" lon="7.370879">
        <ele>237.0</ele>
        <time>2020-07-11T07:58:50Z</time>
      </trkpt>
      <trkpt lat="48.742588" lon="7.371001">
        <ele>237.0</ele>
        <time>2020-07-11T07:58:52Z</time>
      </trkpt>
      <trkpt lat="48.74266" lon="7.371127">
        <ele>237.0</ele>
        <time>2020-07-11T07:58:54Z</time>
      </trkpt>
      <trkpt lat="48.742726" lon="7.371242">
        <ele>236.0</ele>
        <time>2020-07-11T07:58:56Z</time>
      </trkpt>
      <trkpt lat="48.742792" lon="7.371363">
        <ele>237.0</ele>
        <time>2020-07-11T07:58:58Z</time>
      </trkpt>
      <trkpt lat="48.742895" lon="7.371561">
        <ele>236.0</ele>
        <time>2020-07-11T07:59:01Z</time>
      </trkpt>
      <trkpt lat="48.742964" lon="7.371687">
        <ele>235.0</ele>
        <time>2020-07-11T07:59:03Z</time>
      </trkpt>
      <trkpt lat="48.743029" lon="7.37181">
        <ele>235.0</ele>
        <time>2020-07-11T07:59:05Z</time>
      </trkpt>
      <trkpt lat="48.743095" lon="7.371926">
        <ele>235.0</ele>
        <time>2020-07-11T07:59:07Z</time>
      </trkpt>
      <trkpt lat="48.743162" lon="7.372047">
        <ele>235.0</ele>
        <time>2020-07-11T07:59:09Z</time>
      </trkpt>
      <trkpt lat="48.743252" lon="7.372246">
        <ele>235.0</ele>
        <time>2020-07-11T07:59:12Z</time>
      </trkpt>
      <trkpt lat="48.743313" lon="7.372376">
        <ele>235.0</ele>
        <time>2020-07-11T07:59:14Z</time>
      </trkpt>
      <trkpt lat="48.743376" lon="7.372504">
        <ele>235.0</ele>
        <time>2020-07-11T07:59:16Z</time>
      </trkpt>
      <trkpt lat="48.743443" lon="7.372632">
        <ele>235.0</ele>
        <time>2020-07-11T07:59:18Z</time>
      </trkpt>
      <trkpt lat="48.743544" lon="7.372809">
        <ele>235.0</ele>
        <time>2020-07-11T07:59:21Z</time>
      </trkpt>
      <trkpt lat="48.743608" lon="7.372938">
        <ele>234.0</ele>
        <time>2020-07-11T07:59:23Z</time>
      </trkpt>
      <trkpt lat="48.74367" lon="7.373067">
        <ele>235.0</ele>
        <time>2020-07-11T07:59:25Z</time>
      </trkpt>
      <trkpt lat="48.743763" lon="7.373258">
        <ele>234.0</ele>
        <time>2020-07-11T07:59:28Z</time>
      </trkpt>
      <trkpt lat="48.743831" lon="7.373378">
        <ele>234.0</ele>
        <time>2020-07-11T07:59:30Z</time>
      </trkpt>
      <trkpt lat="48.743904" lon="7.373502">
        <ele>235.0</ele>
        <time>2020-07-11T07:59:32Z</time>
      </trkpt>
      <trkpt lat="48.743974" lon="7.373627">
        <ele>235.0</ele>
        <time>2020-07-11T07:59:34Z</time>
      </trkpt>
      <trkpt lat="48.744079" lon="7.373807">
        <ele>235.0</ele>
        <time>2020-07-11T07:59:37Z</time>
      </trkpt>
      <trkpt lat="48.74415" lon="7.373935">
        <ele>235.0</ele>
        <time>2020-07-11T07:59:39Z</time>
      </trkpt>
      <trkpt lat="48.744217" lon="7.374053">
        <ele>235.0</ele>
        <time>2020-07-11T07:59:41Z</time>
      </trkpt>
      <trkpt lat="48.74428" lon="7.374174">
        <ele>235.0</ele>
        <time>2020-07-11T07:59:43Z</time>
      </trkpt>
      <trkpt lat="48.744353" lon="7.374279">
        <ele>236.0</ele>
        <time>2020-07-11T07:59:45Z</time>
      </trkpt>
      <trkpt lat="48.744414" lon="7.374398">
        <ele>236.0</ele>
        <time>2020-07-11T07:59:47Z</time>
      </trkpt>
      <trkpt lat="48.744511" lon="7.374575">
        <ele>235.0</ele>
        <time>2020-07-11T07:59:50Z</time>
      </trkpt>
      <trkpt lat="48.744575" lon="7.374688">
        <ele>235.0</ele>
        <time>2020-07-11T07:59:52Z</time>
      </trkpt>
      <trkpt lat="48.744608" lon="7.374743">
        <ele>235.0</ele>
        <time>2020-07-11T07:59:53Z</time>
      </trkpt>
      <trkpt lat="48.744706" lon="7.374924">
        <ele>235.0</ele>
        <time>2020-07-11T07:59:56Z</time>
      </trkpt>
      <trkpt lat="48.744764" lon="7.375047">
        <ele>236.0</ele>
        <time>2020-07-11T07:59:58Z</time>
      </trkpt>
      <trkpt lat="48.744829" lon="7.375161">
        <ele>235.0</ele>
        <time>2020-07-11T08:00:00Z</time>
      </trkpt>
      <trkpt lat="48.744895" lon="7.37528">
        <ele>234.0</ele>
        <time>2020-07-11T08:00:02Z</time>
      </trkpt>
      <trkpt lat="48.744962" lon="7.375401">
        <ele>234.0</ele>
        <time>2020-07-11T08:00:04Z</time>
      </trkpt>
      <trkpt lat="48.744994" lon="7.375462">
        <ele>234.0</ele>
        <time>2020-07-11T08:00:05Z</time>
      </trkpt>
      <trkpt lat="48.745127" lon="7.375692">
        <ele>234.0</ele>
        <time>2020-07-11T08:00:09Z</time>
      </trkpt>
      <trkpt lat="48.74516" lon="7.375747">
        <ele>234.0</ele>
        <time>2020-07-11T08:00:10Z</time>
      </trkpt>
      <trkpt lat="48.745244" lon="7.375833">
        <ele>234.0</ele>
        <time>2020-07-11T08:00:12Z</time>
      </trkpt>
      <trkpt lat="48.745402" lon="7.375979">
        <ele>234.0</ele>
        <time>2020-07-11T08:00:16Z</time>
      </trkpt>
      <trkpt lat="48.745447" lon="7.376078">
        <ele>234.0</ele>
        <time>2020-07-11T08:00:18Z</time>
      </trkpt>
      <trkpt lat="48.745471" lon="7.376144">
        <ele>234.0</ele>
        <time>2020-07-11T08:00:19Z</time>
      </trkpt>
      <trkpt lat="48.745554" lon="7.37634">
        <ele>233.0</ele>
        <time>2020-07-11T08:00:22Z</time>
      </trkpt>
      <trkpt lat="48.745599" lon="7.376476">
        <ele>233.0</ele>
        <time>2020-07-11T08:00:24Z</time>
      </trkpt>
      <trkpt lat="48.745656" lon="7.376708">
        <ele>233.0</ele>
        <time>2020-07-11T08:00:27Z</time>
      </trkpt>
      <trkpt lat="48.745731" lon="7.376841">
        <ele>233.0</ele>
        <time>2020-07-11T08:00:29Z</time>
      </trkpt>
      <trkpt lat="48.745811" lon="7.376984">
        <ele>232.0</ele>
        <time>2020-07-11T08:00:31Z</time>
      </trkpt>
      <trkpt lat="48.745895" lon="7.377149">
        <ele>232.0</ele>
        <time>2020-07-11T08:00:33Z</time>
      </trkpt>
      <trkpt lat="48.745967" lon="7.377302">
        <ele>232.0</ele>
        <time>2020-07-11T08:00:35Z</time>
      </trkpt>
      <trkpt lat="48.746073" lon="7.377502">
        <ele>232.0</ele>
        <time>2020-07-11T08:00:38Z</time>
      </trkpt>
      <trkpt lat="48.746143" lon="7.377629">
        <ele>232.0</ele>
        <time>2020-07-11T08:00:40Z</time>
      </trkpt>
      <trkpt lat="48.746213" lon="7.377753">
        <ele>233.0</ele>
        <time>2020-07-11T08:00:42Z</time>
      </trkpt>
      <trkpt lat="48.74625" lon="7.377823">
        <ele>233.0</ele>
        <time>2020-07-11T08:00:43Z</time>
      </trkpt>
      <trkpt lat="48.746354" lon="7.378005">
        <ele>233.0</ele>
        <time>2020-07-11T08:00:46Z</time>
      </trkpt>
      <trkpt lat="48.746412" lon="7.378121">
        <ele>234.0</ele>
        <time>2020-07-11T08:00:48Z</time>
      </trkpt>
      <trkpt lat="48.74648" lon="7.378245">
        <ele>233.0</ele>
        <time>2020-07-11T08:00:50Z</time>
      </trkpt>
      <trkpt lat="48.746545" lon="7.378379">
        <ele>233.0</ele>
        <time>2020-07-11T08:00:52Z</time>
      </trkpt>
      <trkpt lat="48.746634" lon="7.378601">
        <ele>233.0</ele>
        <time>2020-07-11T08:00:55Z</time>
      </trkpt>
      <trkpt lat="48.746743" lon="7.378803">
        <ele>233.0</ele>
        <time>2020-07-11T08:00:58Z</time>
      </trkpt>
      <trkpt lat="48.746873" lon="7.379048">
        <ele>233.0</ele>
        <time>2020-07-11T08:01:02Z</time>
      </trkpt>
      <trkpt lat="48.746935" lon="7.379165">
        <ele>233.0</ele>
        <time>2020-07-11T08:01:04Z</time>
      </trkpt>
      <trkpt lat="48.746999" lon="7.379282">
        <ele>232.0</ele>
        <time>2020-07-11T08:01:06Z</time>
      </trkpt>
      <trkpt lat="48.74706" lon="7.379397">
        <ele>232.0</ele>
        <time>2020-07-11T08:01:08Z</time>
      </trkpt>
      <trkpt lat="48.74713" lon="7.379522">
        <ele>231.0</ele>
        <time>2020-07-11T08:01:10Z</time>
      </trkpt>
      <trkpt lat="48.747226" lon="7.379701">
        <ele>232.0</ele>
        <time>2020-07-11T08:01:13Z</time>
      </trkpt>
      <trkpt lat="48.747323" lon="7.379875">
        <ele>232.0</ele>
        <time>2020-07-11T08:01:16Z</time>
      </trkpt>
      <trkpt lat="48.747386" lon="7.379998">
        <ele>232.0</ele>
        <time>2020-07-11T08:01:18Z</time>
      </trkpt>
      <trkpt lat="48.747419" lon="7.380055">
        <ele>232.0</ele>
        <time>2020-07-11T08:01:19Z</time>
      </trkpt>
      <trkpt lat="48.747523" lon="7.380234">
        <ele>232.0</ele>
        <time>2020-07-11T08:01:22Z</time>
      </trkpt>
      <trkpt lat="48.747632" lon="7.38041">
        <ele>233.0</ele>
        <time>2020-07-11T08:01:25Z</time>
      </trkpt>
      <trkpt lat="48.747704" lon="7.38053">
        <ele>233.0</ele>
        <time>2020-07-11T08:01:27Z</time>
      </trkpt>
      <trkpt lat="48.747777" lon="7.380646">
        <ele>233.0</ele>
        <time>2020-07-11T08:01:29Z</time>
      </trkpt>
      <trkpt lat="48.747881" lon="7.380825">
        <ele>233.0</ele>
        <time>2020-07-11T08:01:32Z</time>
      </trkpt>
      <trkpt lat="48.747947" lon="7.380939">
        <ele>233.0</ele>
        <time>2020-07-11T08:01:34Z</time>
      </trkpt>
      <trkpt lat="48.748017" lon="7.381052">
        <ele>233.0</ele>
        <time>2020-07-11T08:01:36Z</time>
      </trkpt>
      <trkpt lat="48.748087" lon="7.381171">
        <ele>233.0</ele>
        <time>2020-07-11T08:01:38Z</time>
      </trkpt>
      <trkpt lat="48.748152" lon="7.381282">
        <ele>232.0</ele>
        <time>2020-07-11T08:01:40Z</time>
      </trkpt>
      <trkpt lat="48.74823" lon="7.381398">
        <ele>232.0</ele>
        <time>2020-07-11T08:01:42Z</time>
      </trkpt>
      <trkpt lat="48.748343" lon="7.381565">
        <ele>232.0</ele>
        <time>2020-07-11T08:01:45Z</time>
      </trkpt>
      <trkpt lat="48.748419" lon="7.381673">
        <ele>232.0</ele>
        <time>2020-07-11T08:01:47Z</time>
      </trkpt>
      <trkpt lat="48.748496" lon="7.381787">
        <ele>232.0</ele>
        <time>2020-07-11T08:01:49Z</time>
      </trkpt>
      <trkpt lat="48.748579" lon="7.381901">
        <ele>232.0</ele>
        <time>2020-07-11T08:01:51Z</time>
      </trkpt>
      <trkpt lat="48.748652" lon="7.382021">
        <ele>231.0</ele>
        <time>2020-07-11T08:01:53Z</time>
      </trkpt>
      <trkpt lat="48.748762" lon="7.382206">
        <ele>231.0</ele>
        <time>2020-07-11T08:01:56Z</time>
      </trkpt>
      <trkpt lat="48.748843" lon="7.382324">
        <ele>232.0</ele>
        <time>2020-07-11T08:01:58Z</time>
      </trkpt>
      <trkpt lat="48.748883" lon="7.382384">
        <ele>231.0</ele>
        <time>2020-07-11T08:01:59Z</time>
      </trkpt>
      <trkpt lat="48.749004" lon="7.382564">
        <ele>232.0</ele>
        <time>2020-07-11T08:02:02Z</time>
      </trkpt>
      <trkpt lat="48.749082" lon="7.382668">
        <ele>232.0</ele>
        <time>2020-07-11T08:02:04Z</time>
      </trkpt>
      <trkpt lat="48.749203" lon="7.382829">
        <ele>232.0</ele>
        <time>2020-07-11T08:02:07Z</time>
      </trkpt>
      <trkpt lat="48.749242" lon="7.382883">
        <ele>232.0</ele>
        <time>2020-07-11T08:02:08Z</time>
      </trkpt>
      <trkpt lat="48.749368" lon="7.383048">
        <ele>232.0</ele>
        <time>2020-07-11T08:02:11Z</time>
      </trkpt>
      <trkpt lat="48.749454" lon="7.383157">
        <ele>232.0</ele>
        <time>2020-07-11T08:02:13Z</time>
      </trkpt>
      <trkpt lat="48.749537" lon="7.383264">
        <ele>232.0</ele>
        <time>2020-07-11T08:02:15Z</time>
      </trkpt>
      <trkpt lat="48.749621" lon="7.383375">
        <ele>233.0</ele>
        <time>2020-07-11T08:02:17Z</time>
      </trkpt>
      <trkpt lat="48.749744" lon="7.383533">
        <ele>233.0</ele>
        <time>2020-07-11T08:02:20Z</time>
      </trkpt>
      <trkpt lat="48.749827" lon="7.383637">
        <ele>232.0</ele>
        <time>2020-07-11T08:02:22Z</time>
      </trkpt>
      <trkpt lat="48.749916" lon="7.383738">
        <ele>232.0</ele>
        <time>2020-07-11T08:02:24Z</time>
      </trkpt>
      <trkpt lat="48.749999" lon="7.383835">
        <ele>232.0</ele>
        <time>2020-07-11T08:02:26Z</time>
      </trkpt>
      <trkpt lat="48.750088" lon="7.383933">
        <ele>233.0</ele>
        <time>2020-07-11T08:02:28Z</time>
      </trkpt>
      <trkpt lat="48.750223" lon="7.384078">
        <ele>233.0</ele>
        <time>2020-07-11T08:02:31Z</time>
      </trkpt>
      <trkpt lat="48.750324" lon="7.384166">
        <ele>233.0</ele>
        <time>2020-07-11T08:02:33Z</time>
      </trkpt>
      <trkpt lat="48.750372" lon="7.384209">
        <ele>233.0</ele>
        <time>2020-07-11T08:02:34Z</time>
      </trkpt>
      <trkpt lat="48.750511" lon="7.384339">
        <ele>233.0</ele>
        <time>2020-07-11T08:02:37Z</time>
      </trkpt>
      <trkpt lat="48.7506" lon="7.384434">
        <ele>233.0</ele>
        <time>2020-07-11T08:02:39Z</time>
      </trkpt>
      <trkpt lat="48.750741" lon="7.384564">
        <ele>233.0</ele>
        <time>2020-07-11T08:02:42Z</time>
      </trkpt>
      <trkpt lat="48.750787" lon="7.38461">
        <ele>232.0</ele>
        <time>2020-07-11T08:02:43Z</time>
      </trkpt>
      <trkpt lat="48.75092" lon="7.384748">
        <ele>232.0</ele>
        <time>2020-07-11T08:02:46Z</time>
      </trkpt>
      <trkpt lat="48.751009" lon="7.384822">
        <ele>232.0</ele>
        <time>2020-07-11T08:02:48Z</time>
      </trkpt>
      <trkpt lat="48.751102" lon="7.38489">
        <ele>232.0</ele>
        <time>2020-07-11T08:02:50Z</time>
      </trkpt>
      <trkpt lat="48.751168" lon="7.385007">
        <ele>231.0</ele>
        <time>2020-07-11T08:02:52Z</time>
      </trkpt>
      <trkpt lat="48.751244" lon="7.385134">
        <ele>232.0</ele>
        <time>2020-07-11T08:02:55Z</time>
      </trkpt>
      <trkpt lat="48.751279" lon="7.385196">
        <ele>232.0</ele>
        <time>2020-07-11T08:02:57Z</time>
      </trkpt>
      <trkpt lat="48.751304" lon="7.385218">
        <ele>232.0</ele>
        <time>2020-07-11T08:02:58Z</time>
      </trkpt>
      <trkpt lat="48.751388" lon="7.385283">
        <ele>231.0</ele>
        <time>2020-07-11T08:03:01Z</time>
      </trkpt>
      <trkpt lat="48.751462" lon="7.385347">
        <ele>231.0</ele>
        <time>2020-07-11T08:03:03Z</time>
      </trkpt>
      <trkpt lat="48.751624" lon="7.385481">
        <ele>232.0</ele>
        <time>2020-07-11T08:03:06Z</time>
      </trkpt>
      <trkpt lat="48.75174" lon="7.385595">
        <ele>231.0</ele>
        <time>2020-07-11T08:03:08Z</time>
      </trkpt>
      <trkpt lat="48.751852" lon="7.385692">
        <ele>231.0</ele>
        <time>2020-07-11T08:03:10Z</time>
      </trkpt>
      <trkpt lat="48.751954" lon="7.385798">
        <ele>231.0</ele>
        <time>2020-07-11T08:03:12Z</time>
      </trkpt>
      <trkpt lat="48.752054" lon="7.385898">
        <ele>230.0</ele>
        <time>2020-07-11T08:03:14Z</time>
      </trkpt>
      <trkpt lat="48.752143" lon="7.385993">
        <ele>230.0</ele>
        <time>2020-07-11T08:03:16Z</time>
      </trkpt>
      <trkpt lat="48.752244" lon="7.386086">
        <ele>229.0</ele>
        <time>2020-07-11T08:03:18Z</time>
      </trkpt>
      <trkpt lat="48.752337" lon="7.386172">
        <ele>229.0</ele>
        <time>2020-07-11T08:03:20Z</time>
      </trkpt>
      <trkpt lat="48.752425" lon="7.386267">
        <ele>228.0</ele>
        <time>2020-07-11T08:03:22Z</time>
      </trkpt>
      <trkpt lat="48.752513" lon="7.386357">
        <ele>227.0</ele>
        <time>2020-07-11T08:03:24Z</time>
      </trkpt>
      <trkpt lat="48.752602" lon="7.386444">
        <ele>227.0</ele>
        <time>2020-07-11T08:03:26Z</time>
      </trkpt>
      <trkpt lat="48.75269" lon="7.386527">
        <ele>226.0</ele>
        <time>2020-07-11T08:03:28Z</time>
      </trkpt>
      <trkpt lat="48.752769" lon="7.38661">
        <ele>226.0</ele>
        <time>2020-07-11T08:03:30Z</time>
      </trkpt>
      <trkpt lat="48.752852" lon="7.386694">
        <ele>226.0</ele>
        <time>2020-07-11T08:03:32Z</time>
      </trkpt>
      <trkpt lat="48.752926" lon="7.386776">
        <ele>225.0</ele>
        <time>2020-07-11T08:03:34Z</time>
      </trkpt>
      <trkpt lat="48.752999" lon="7.386867">
        <ele>225.0</ele>
        <time>2020-07-11T08:03:36Z</time>
      </trkpt>
      <trkpt lat="48.753081" lon="7.386963">
        <ele>225.0</ele>
        <time>2020-07-11T08:03:38Z</time>
      </trkpt>
      <trkpt lat="48.75312" lon="7.38701">
        <ele>225.0</ele>
        <time>2020-07-11T08:03:39Z</time>
      </trkpt>
      <trkpt lat="48.753234" lon="7.38717">
        <ele>225.0</ele>
        <time>2020-07-11T08:03:42Z</time>
      </trkpt>
      <trkpt lat="48.753349" lon="7.387315">
        <ele>224.0</ele>
        <time>2020-07-11T08:03:45Z</time>
      </trkpt>
      <trkpt lat="48.753424" lon="7.387415">
        <ele>225.0</ele>
        <time>2020-07-11T08:03:47Z</time>
      </trkpt>
      <trkpt lat="48.75346" lon="7.387465">
        <ele>225.0</ele>
        <time>2020-07-11T08:03:48Z</time>
      </trkpt>
      <trkpt lat="48.753596" lon="7.387662">
        <ele>225.0</ele>
        <time>2020-07-11T08:03:52Z</time>
      </trkpt>
      <trkpt lat="48.753663" lon="7.387766">
        <ele>225.0</ele>
        <time>2020-07-11T08:03:54Z</time>
      </trkpt>
      <trkpt lat="48.75373" lon="7.387885">
        <ele>225.0</ele>
        <time>2020-07-11T08:03:56Z</time>
      </trkpt>
      <trkpt lat="48.753794" lon="7.38799">
        <ele>225.0</ele>
        <time>2020-07-11T08:03:58Z</time>
      </trkpt>
      <trkpt lat="48.753873" lon="7.388099">
        <ele>226.0</ele>
        <time>2020-07-11T08:04:00Z</time>
      </trkpt>
      <trkpt lat="48.753975" lon="7.388285">
        <ele>227.0</ele>
        <time>2020-07-11T08:04:03Z</time>
      </trkpt>
      <trkpt lat="48.754069" lon="7.388479">
        <ele>227.0</ele>
        <time>2020-07-11T08:04:06Z</time>
      </trkpt>
      <trkpt lat="48.754126" lon="7.388605">
        <ele>227.0</ele>
        <time>2020-07-11T08:04:08Z</time>
      </trkpt>
      <trkpt lat="48.754182" lon="7.388737">
        <ele>227.0</ele>
        <time>2020-07-11T08:04:10Z</time>
      </trkpt>
      <trkpt lat="48.754259" lon="7.388942">
        <ele>226.0</ele>
        <time>2020-07-11T08:04:13Z</time>
      </trkpt>
      <trkpt lat="48.754307" lon="7.389075">
        <ele>226.0</ele>
        <time>2020-07-11T08:04:15Z</time>
      </trkpt>
      <trkpt lat="48.754368" lon="7.389213">
        <ele>227.0</ele>
        <time>2020-07-11T08:04:17Z</time>
      </trkpt>
      <trkpt lat="48.754419" lon="7.389361">
        <ele>227.0</ele>
        <time>2020-07-11T08:04:19Z</time>
      </trkpt>
      <trkpt lat="48.754483" lon="7.389496">
        <ele>227.0</ele>
        <time>2020-07-11T08:04:21Z</time>
      </trkpt>
      <trkpt lat="48.754545" lon="7.389626">
        <ele>227.0</ele>
        <time>2020-07-11T08:04:23Z</time>
      </trkpt>
      <trkpt lat="48.754596" lon="7.389771">
        <ele>227.0</ele>
        <time>2020-07-11T08:04:25Z</time>
      </trkpt>
      <trkpt lat="48.754647" lon="7.389911">
        <ele>227.0</ele>
        <time>2020-07-11T08:04:27Z</time>
      </trkpt>
      <trkpt lat="48.754727" lon="7.390125">
        <ele>227.0</ele>
        <time>2020-07-11T08:04:30Z</time>
      </trkpt>
      <trkpt lat="48.754779" lon="7.39027">
        <ele>227.0</ele>
        <time>2020-07-11T08:04:32Z</time>
      </trkpt>
      <trkpt lat="48.754823" lon="7.390418">
        <ele>227.0</ele>
        <time>2020-07-11T08:04:34Z</time>
      </trkpt>
      <trkpt lat="48.754871" lon="7.39056">
        <ele>227.0</ele>
        <time>2020-07-11T08:04:36Z</time>
      </trkpt>
      <trkpt lat="48.754919" lon="7.390706">
        <ele>228.0</ele>
        <time>2020-07-11T08:04:38Z</time>
      </trkpt>
      <trkpt lat="48.754941" lon="7.390779">
        <ele>228.0</ele>
        <time>2020-07-11T08:04:39Z</time>
      </trkpt>
      <trkpt lat="48.755036" lon="7.391073">
        <ele>228.0</ele>
        <time>2020-07-11T08:04:43Z</time>
      </trkpt>
      <trkpt lat="48.755081" lon="7.391223">
        <ele>228.0</ele>
        <time>2020-07-11T08:04:45Z</time>
      </trkpt>
      <trkpt lat="48.755108" lon="7.391295">
        <ele>228.0</ele>
        <time>2020-07-11T08:04:46Z</time>
      </trkpt>
      <trkpt lat="48.755207" lon="7.391591">
        <ele>228.0</ele>
        <time>2020-07-11T08:04:50Z</time>
      </trkpt>
      <trkpt lat="48.755251" lon="7.391742">
        <ele>227.0</ele>
        <time>2020-07-11T08:04:52Z</time>
      </trkpt>
      <trkpt lat="48.755298" lon="7.391895">
        <ele>228.0</ele>
        <time>2020-07-11T08:04:54Z</time>
      </trkpt>
      <trkpt lat="48.755359" lon="7.392105">
        <ele>228.0</ele>
        <time>2020-07-11T08:04:57Z</time>
      </trkpt>
      <trkpt lat="48.755378" lon="7.39218">
        <ele>228.0</ele>
        <time>2020-07-11T08:04:58Z</time>
      </trkpt>
      <trkpt lat="48.755437" lon="7.3924">
        <ele>228.0</ele>
        <time>2020-07-11T08:05:01Z</time>
      </trkpt>
      <trkpt lat="48.755475" lon="7.392539">
        <ele>228.0</ele>
        <time>2020-07-11T08:05:03Z</time>
      </trkpt>
      <trkpt lat="48.755516" lon="7.392669">
        <ele>228.0</ele>
        <time>2020-07-11T08:05:05Z</time>
      </trkpt>
      <trkpt lat="48.755569" lon="7.392826">
        <ele>227.0</ele>
        <time>2020-07-11T08:05:07Z</time>
      </trkpt>
      <trkpt lat="48.755616" lon="7.392972">
        <ele>227.0</ele>
        <time>2020-07-11T08:05:09Z</time>
      </trkpt>
      <trkpt lat="48.755662" lon="7.393126">
        <ele>227.0</ele>
        <time>2020-07-11T08:05:11Z</time>
      </trkpt>
      <trkpt lat="48.755711" lon="7.393277">
        <ele>226.0</ele>
        <time>2020-07-11T08:05:13Z</time>
      </trkpt>
      <trkpt lat="48.755768" lon="7.393497">
        <ele>226.0</ele>
        <time>2020-07-11T08:05:16Z</time>
      </trkpt>
      <trkpt lat="48.755807" lon="7.393638">
        <ele>226.0</ele>
        <time>2020-07-11T08:05:18Z</time>
      </trkpt>
      <trkpt lat="48.75585" lon="7.393779">
        <ele>225.0</ele>
        <time>2020-07-11T08:05:20Z</time>
      </trkpt>
      <trkpt lat="48.755901" lon="7.393919">
        <ele>225.0</ele>
        <time>2020-07-11T08:05:22Z</time>
      </trkpt>
      <trkpt lat="48.755941" lon="7.394063">
        <ele>225.0</ele>
        <time>2020-07-11T08:05:24Z</time>
      </trkpt>
      <trkpt lat="48.755982" lon="7.394207">
        <ele>225.0</ele>
        <time>2020-07-11T08:05:26Z</time>
      </trkpt>
      <trkpt lat="48.756027" lon="7.394347">
        <ele>225.0</ele>
        <time>2020-07-11T08:05:28Z</time>
      </trkpt>
      <trkpt lat="48.75607" lon="7.394495">
        <ele>224.0</ele>
        <time>2020-07-11T08:05:30Z</time>
      </trkpt>
      <trkpt lat="48.756109" lon="7.394644">
        <ele>224.0</ele>
        <time>2020-07-11T08:05:32Z</time>
      </trkpt>
      <trkpt lat="48.756169" lon="7.394864">
        <ele>225.0</ele>
        <time>2020-07-11T08:05:35Z</time>
      </trkpt>
      <trkpt lat="48.756212" lon="7.395006">
        <ele>225.0</ele>
        <time>2020-07-11T08:05:37Z</time>
      </trkpt>
      <trkpt lat="48.756254" lon="7.395144">
        <ele>225.0</ele>
        <time>2020-07-11T08:05:39Z</time>
      </trkpt>
      <trkpt lat="48.756297" lon="7.395288">
        <ele>225.0</ele>
        <time>2020-07-11T08:05:41Z</time>
      </trkpt>
      <trkpt lat="48.756365" lon="7.395499">
        <ele>225.0</ele>
        <time>2020-07-11T08:05:44Z</time>
      </trkpt>
      <trkpt lat="48.756401" lon="7.395638">
        <ele>225.0</ele>
        <time>2020-07-11T08:05:46Z</time>
      </trkpt>
      <trkpt lat="48.756441" lon="7.395778">
        <ele>224.0</ele>
        <time>2020-07-11T08:05:48Z</time>
      </trkpt>
      <trkpt lat="48.756491" lon="7.395912">
        <ele>224.0</ele>
        <time>2020-07-11T08:05:50Z</time>
      </trkpt>
      <trkpt lat="48.756535" lon="7.39604">
        <ele>224.0</ele>
        <time>2020-07-11T08:05:52Z</time>
      </trkpt>
      <trkpt lat="48.756608" lon="7.39624">
        <ele>224.0</ele>
        <time>2020-07-11T08:05:55Z</time>
      </trkpt>
      <trkpt lat="48.756654" lon="7.396384">
        <ele>225.0</ele>
        <time>2020-07-11T08:05:57Z</time>
      </trkpt>
      <trkpt lat="48.75669" lon="7.396532">
        <ele>226.0</ele>
        <time>2020-07-11T08:05:59Z</time>
      </trkpt>
      <trkpt lat="48.756732" lon="7.396669">
        <ele>225.0</ele>
        <time>2020-07-11T08:06:01Z</time>
      </trkpt>
      <trkpt lat="48.756783" lon="7.396819">
        <ele>223.0</ele>
        <time>2020-07-11T08:06:03Z</time>
      </trkpt>
      <trkpt lat="48.756843" lon="7.397034">
        <ele>222.0</ele>
        <time>2020-07-11T08:06:06Z</time>
      </trkpt>
      <trkpt lat="48.756886" lon="7.397183">
        <ele>223.0</ele>
        <time>2020-07-11T08:06:08Z</time>
      </trkpt>
      <trkpt lat="48.756937" lon="7.397337">
        <ele>224.0</ele>
        <time>2020-07-11T08:06:10Z</time>
      </trkpt>
      <trkpt lat="48.757002" lon="7.397571">
        <ele>225.0</ele>
        <time>2020-07-11T08:06:13Z</time>
      </trkpt>
      <trkpt lat="48.757043" lon="7.397719">
        <ele>226.0</ele>
        <time>2020-07-11T08:06:15Z</time>
      </trkpt>
      <trkpt lat="48.757085" lon="7.397872">
        <ele>227.0</ele>
        <time>2020-07-11T08:06:17Z</time>
      </trkpt>
      <trkpt lat="48.757127" lon="7.398021">
        <ele>228.0</ele>
        <time>2020-07-11T08:06:19Z</time>
      </trkpt>
      <trkpt lat="48.757181" lon="7.398222">
        <ele>228.0</ele>
        <time>2020-07-11T08:06:22Z</time>
      </trkpt>
      <trkpt lat="48.757196" lon="7.398333">
        <ele>229.0</ele>
        <time>2020-07-11T08:06:24Z</time>
      </trkpt>
      <trkpt lat="48.757229" lon="7.398442">
        <ele>229.0</ele>
        <time>2020-07-11T08:06:26Z</time>
      </trkpt>
      <trkpt lat="48.757282" lon="7.398599">
        <ele>228.0</ele>
        <time>2020-07-11T08:06:28Z</time>
      </trkpt>
      <trkpt lat="48.757334" lon="7.398786">
        <ele>228.0</ele>
        <time>2020-07-11T08:06:30Z</time>
      </trkpt>
      <trkpt lat="48.757391" lon="7.398972">
        <ele>228.0</ele>
        <time>2020-07-11T08:06:32Z</time>
      </trkpt>
      <trkpt lat="48.757419" lon="7.399063">
        <ele>228.0</ele>
        <time>2020-07-11T08:06:33Z</time>
      </trkpt>
      <trkpt lat="48.757504" lon="7.399305">
        <ele>228.0</ele>
        <time>2020-07-11T08:06:36Z</time>
      </trkpt>
      <trkpt lat="48.757554" lon="7.399468">
        <ele>227.0</ele>
        <time>2020-07-11T08:06:38Z</time>
      </trkpt>
      <trkpt lat="48.757605" lon="7.399627">
        <ele>227.0</ele>
        <time>2020-07-11T08:06:40Z</time>
      </trkpt>
      <trkpt lat="48.757683" lon="7.399869">
        <ele>227.0</ele>
        <time>2020-07-11T08:06:43Z</time>
      </trkpt>
      <trkpt lat="48.757734" lon="7.400033">
        <ele>227.0</ele>
        <time>2020-07-11T08:06:45Z</time>
      </trkpt>
      <trkpt lat="48.757782" lon="7.400189">
        <ele>227.0</ele>
        <time>2020-07-11T08:06:47Z</time>
      </trkpt>
      <trkpt lat="48.757799" lon="7.400267">
        <ele>227.0</ele>
        <time>2020-07-11T08:06:48Z</time>
      </trkpt>
      <trkpt lat="48.757863" lon="7.400496">
        <ele>227.0</ele>
        <time>2020-07-11T08:06:51Z</time>
      </trkpt>
      <trkpt lat="48.757907" lon="7.400642">
        <ele>227.0</ele>
        <time>2020-07-11T08:06:53Z</time>
      </trkpt>
      <trkpt lat="48.75795" lon="7.400782">
        <ele>227.0</ele>
        <time>2020-07-11T08:06:55Z</time>
      </trkpt>
      <trkpt lat="48.758016" lon="7.401005">
        <ele>227.0</ele>
        <time>2020-07-11T08:06:58Z</time>
      </trkpt>
      <trkpt lat="48.758056" lon="7.401146">
        <ele>227.0</ele>
        <time>2020-07-11T08:07:00Z</time>
      </trkpt>
      <trkpt lat="48.758095" lon="7.401284">
        <ele>226.0</ele>
        <time>2020-07-11T08:07:02Z</time>
      </trkpt>
      <trkpt lat="48.758167" lon="7.401501">
        <ele>227.0</ele>
        <time>2020-07-11T08:07:05Z</time>
      </trkpt>
      <trkpt lat="48.758222" lon="7.401656">
        <ele>228.0</ele>
        <time>2020-07-11T08:07:07Z</time>
      </trkpt>
      <trkpt lat="48.758261" lon="7.401806">
        <ele>228.0</ele>
        <time>2020-07-11T08:07:09Z</time>
      </trkpt>
      <trkpt lat="48.758326" lon="7.402041">
        <ele>229.0</ele>
        <time>2020-07-11T08:07:12Z</time>
      </trkpt>
      <trkpt lat="48.758369" lon="7.402193">
        <ele>228.0</ele>
        <time>2020-07-11T08:07:14Z</time>
      </trkpt>
      <trkpt lat="48.758418" lon="7.402338">
        <ele>228.0</ele>
        <time>2020-07-11T08:07:16Z</time>
      </trkpt>
      <trkpt lat="48.758498" lon="7.402599">
        <ele>227.0</ele>
        <time>2020-07-11T08:07:19Z</time>
      </trkpt>
      <trkpt lat="48.758561" lon="7.40279">
        <ele>226.0</ele>
        <time>2020-07-11T08:07:21Z</time>
      </trkpt>
      <trkpt lat="48.758628" lon="7.402965">
        <ele>225.0</ele>
        <time>2020-07-11T08:07:23Z</time>
      </trkpt>
      <trkpt lat="48.758686" lon="7.403139">
        <ele>225.0</ele>
        <time>2020-07-11T08:07:25Z</time>
      </trkpt>
      <trkpt lat="48.758741" lon="7.403312">
        <ele>225.0</ele>
        <time>2020-07-11T08:07:27Z</time>
      </trkpt>
      <trkpt lat="48.758789" lon="7.403467">
        <ele>225.0</ele>
        <time>2020-07-11T08:07:29Z</time>
      </trkpt>
      <trkpt lat="48.758831" lon="7.403613">
        <ele>226.0</ele>
        <time>2020-07-11T08:07:31Z</time>
      </trkpt>
      <trkpt lat="48.75888" lon="7.403778">
        <ele>225.0</ele>
        <time>2020-07-11T08:07:33Z</time>
      </trkpt>
      <trkpt lat="48.758936" lon="7.403945">
        <ele>225.0</ele>
        <time>2020-07-11T08:07:35Z</time>
      </trkpt>
      <trkpt lat="48.758985" lon="7.404108">
        <ele>225.0</ele>
        <time>2020-07-11T08:07:37Z</time>
      </trkpt>
      <trkpt lat="48.759056" lon="7.404348">
        <ele>225.0</ele>
        <time>2020-07-11T08:07:40Z</time>
      </trkpt>
      <trkpt lat="48.759104" lon="7.404508">
        <ele>225.0</ele>
        <time>2020-07-11T08:07:42Z</time>
      </trkpt>
      <trkpt lat="48.759131" lon="7.404588">
        <ele>225.0</ele>
        <time>2020-07-11T08:07:43Z</time>
      </trkpt>
      <trkpt lat="48.759176" lon="7.404746">
        <ele>224.0</ele>
        <time>2020-07-11T08:07:45Z</time>
      </trkpt>
      <trkpt lat="48.759219" lon="7.404892">
        <ele>224.0</ele>
        <time>2020-07-11T08:07:47Z</time>
      </trkpt>
      <trkpt lat="48.759272" lon="7.405114">
        <ele>223.0</ele>
        <time>2020-07-11T08:07:50Z</time>
      </trkpt>
      <trkpt lat="48.759313" lon="7.405264">
        <ele>223.0</ele>
        <time>2020-07-11T08:07:52Z</time>
      </trkpt>
      <trkpt lat="48.759356" lon="7.405415">
        <ele>223.0</ele>
        <time>2020-07-11T08:07:54Z</time>
      </trkpt>
      <trkpt lat="48.75942" lon="7.40564">
        <ele>223.0</ele>
        <time>2020-07-11T08:07:57Z</time>
      </trkpt>
      <trkpt lat="48.759471" lon="7.405793">
        <ele>223.0</ele>
        <time>2020-07-11T08:07:59Z</time>
      </trkpt>
      <trkpt lat="48.759525" lon="7.405944">
        <ele>222.0</ele>
        <time>2020-07-11T08:08:01Z</time>
      </trkpt>
      <trkpt lat="48.7596" lon="7.406173">
        <ele>222.0</ele>
        <time>2020-07-11T08:08:04Z</time>
      </trkpt>
      <trkpt lat="48.759643" lon="7.406323">
        <ele>223.0</ele>
        <time>2020-07-11T08:08:06Z</time>
      </trkpt>
      <trkpt lat="48.759689" lon="7.40647">
        <ele>223.0</ele>
        <time>2020-07-11T08:08:08Z</time>
      </trkpt>
      <trkpt lat="48.759762" lon="7.406695">
        <ele>223.0</ele>
        <time>2020-07-11T08:08:11Z</time>
      </trkpt>
      <trkpt lat="48.759785" lon="7.406769">
        <ele>223.0</ele>
        <time>2020-07-11T08:08:12Z</time>
      </trkpt>
      <trkpt lat="48.759853" lon="7.406992">
        <ele>223.0</ele>
        <time>2020-07-11T08:08:15Z</time>
      </trkpt>
      <trkpt lat="48.759893" lon="7.407137">
        <ele>222.0</ele>
        <time>2020-07-11T08:08:17Z</time>
      </trkpt>
      <trkpt lat="48.759935" lon="7.40729">
        <ele>222.0</ele>
        <time>2020-07-11T08:08:19Z</time>
      </trkpt>
      <trkpt lat="48.759974" lon="7.407447">
        <ele>222.0</ele>
        <time>2020-07-11T08:08:21Z</time>
      </trkpt>
      <trkpt lat="48.760021" lon="7.407594">
        <ele>222.0</ele>
        <time>2020-07-11T08:08:23Z</time>
      </trkpt>
      <trkpt lat="48.760074" lon="7.407744">
        <ele>222.0</ele>
        <time>2020-07-11T08:08:25Z</time>
      </trkpt>
      <trkpt lat="48.760122" lon="7.407895">
        <ele>222.0</ele>
        <time>2020-07-11T08:08:27Z</time>
      </trkpt>
      <trkpt lat="48.760194" lon="7.408128">
        <ele>222.0</ele>
        <time>2020-07-11T08:08:30Z</time>
      </trkpt>
      <trkpt lat="48.760238" lon="7.408281">
        <ele>222.0</ele>
        <time>2020-07-11T08:08:32Z</time>
      </trkpt>
      <trkpt lat="48.76029" lon="7.408435">
        <ele>222.0</ele>
        <time>2020-07-11T08:08:34Z</time>
      </trkpt>
      <trkpt lat="48.760343" lon="7.408582">
        <ele>223.0</ele>
        <time>2020-07-11T08:08:36Z</time>
      </trkpt>
      <trkpt lat="48.760387" lon="7.408729">
        <ele>223.0</ele>
        <time>2020-07-11T08:08:38Z</time>
      </trkpt>
      <trkpt lat="48.760454" lon="7.408964">
        <ele>223.0</ele>
        <time>2020-07-11T08:08:41Z</time>
      </trkpt>
      <trkpt lat="48.760497" lon="7.409114">
        <ele>223.0</ele>
        <time>2020-07-11T08:08:43Z</time>
      </trkpt>
      <trkpt lat="48.760543" lon="7.409263">
        <ele>224.0</ele>
        <time>2020-07-11T08:08:45Z</time>
      </trkpt>
      <trkpt lat="48.760617" lon="7.409499">
        <ele>224.0</ele>
        <time>2020-07-11T08:08:48Z</time>
      </trkpt>
      <trkpt lat="48.76066" lon="7.40965">
        <ele>224.0</ele>
        <time>2020-07-11T08:08:50Z</time>
      </trkpt>
      <trkpt lat="48.760703" lon="7.409801">
        <ele>224.0</ele>
        <time>2020-07-11T08:08:52Z</time>
      </trkpt>
      <trkpt lat="48.760748" lon="7.409965">
        <ele>224.0</ele>
        <time>2020-07-11T08:08:54Z</time>
      </trkpt>
      <trkpt lat="48.760817" lon="7.410192">
        <ele>224.0</ele>
        <time>2020-07-11T08:08:57Z</time>
      </trkpt>
      <trkpt lat="48.760859" lon="7.410348">
        <ele>224.0</ele>
        <time>2020-07-11T08:08:59Z</time>
      </trkpt>
      <trkpt lat="48.760902" lon="7.410492">
        <ele>224.0</ele>
        <time>2020-07-11T08:09:01Z</time>
      </trkpt>
      <trkpt lat="48.760947" lon="7.41064">
        <ele>224.0</ele>
        <time>2020-07-11T08:09:03Z</time>
      </trkpt>
      <trkpt lat="48.760988" lon="7.410776">
        <ele>224.0</ele>
        <time>2020-07-11T08:09:05Z</time>
      </trkpt>
      <trkpt lat="48.761057" lon="7.41098">
        <ele>224.0</ele>
        <time>2020-07-11T08:09:08Z</time>
      </trkpt>
      <trkpt lat="48.761099" lon="7.411118">
        <ele>224.0</ele>
        <time>2020-07-11T08:09:10Z</time>
      </trkpt>
      <trkpt lat="48.76114" lon="7.411257">
        <ele>224.0</ele>
        <time>2020-07-11T08:09:12Z</time>
      </trkpt>
      <trkpt lat="48.761177" lon="7.411404">
        <ele>224.0</ele>
        <time>2020-07-11T08:09:14Z</time>
      </trkpt>
      <trkpt lat="48.761225" lon="7.411545">
        <ele>224.0</ele>
        <time>2020-07-11T08:09:16Z</time>
      </trkpt>
      <trkpt lat="48.761271" lon="7.411684">
        <ele>223.0</ele>
        <time>2020-07-11T08:09:18Z</time>
      </trkpt>
      <trkpt lat="48.76131" lon="7.411822">
        <ele>223.0</ele>
        <time>2020-07-11T08:09:20Z</time>
      </trkpt>
      <trkpt lat="48.761351" lon="7.411964">
        <ele>223.0</ele>
        <time>2020-07-11T08:09:22Z</time>
      </trkpt>
      <trkpt lat="48.76142" lon="7.412186">
        <ele>223.0</ele>
        <time>2020-07-11T08:09:25Z</time>
      </trkpt>
      <trkpt lat="48.761447" lon="7.412262">
        <ele>223.0</ele>
        <time>2020-07-11T08:09:26Z</time>
      </trkpt>
      <trkpt lat="48.76152" lon="7.412482">
        <ele>223.0</ele>
        <time>2020-07-11T08:09:29Z</time>
      </trkpt>
      <trkpt lat="48.76156" lon="7.41263">
        <ele>223.0</ele>
        <time>2020-07-11T08:09:31Z</time>
      </trkpt>
      <trkpt lat="48.761625" lon="7.412855">
        <ele>224.0</ele>
        <time>2020-07-11T08:09:34Z</time>
      </trkpt>
      <trkpt lat="48.761667" lon="7.413004">
        <ele>224.0</ele>
        <time>2020-07-11T08:09:36Z</time>
      </trkpt>
      <trkpt lat="48.761713" lon="7.413155">
        <ele>225.0</ele>
        <time>2020-07-11T08:09:38Z</time>
      </trkpt>
      <trkpt lat="48.761751" lon="7.413298">
        <ele>224.0</ele>
        <time>2020-07-11T08:09:40Z</time>
      </trkpt>
      <trkpt lat="48.761814" lon="7.41351">
        <ele>224.0</ele>
        <time>2020-07-11T08:09:43Z</time>
      </trkpt>
      <trkpt lat="48.761858" lon="7.413653">
        <ele>223.0</ele>
        <time>2020-07-11T08:09:45Z</time>
      </trkpt>
      <trkpt lat="48.761903" lon="7.413794">
        <ele>223.0</ele>
        <time>2020-07-11T08:09:47Z</time>
      </trkpt>
      <trkpt lat="48.761951" lon="7.413938">
        <ele>223.0</ele>
        <time>2020-07-11T08:09:49Z</time>
      </trkpt>
      <trkpt lat="48.761989" lon="7.41409">
        <ele>223.0</ele>
        <time>2020-07-11T08:09:51Z</time>
      </trkpt>
      <trkpt lat="48.76203" lon="7.41423">
        <ele>223.0</ele>
        <time>2020-07-11T08:09:53Z</time>
      </trkpt>
      <trkpt lat="48.762103" lon="7.41444">
        <ele>223.0</ele>
        <time>2020-07-11T08:09:56Z</time>
      </trkpt>
      <trkpt lat="48.762151" lon="7.414583">
        <ele>223.0</ele>
        <time>2020-07-11T08:09:58Z</time>
      </trkpt>
      <trkpt lat="48.762194" lon="7.414722">
        <ele>223.0</ele>
        <time>2020-07-11T08:10:00Z</time>
      </trkpt>
      <trkpt lat="48.762219" lon="7.414792">
        <ele>223.0</ele>
        <time>2020-07-11T08:10:01Z</time>
      </trkpt>
      <trkpt lat="48.762279" lon="7.414986">
        <ele>223.0</ele>
        <time>2020-07-11T08:10:04Z</time>
      </trkpt>
      <trkpt lat="48.762319" lon="7.415107">
        <ele>223.0</ele>
        <time>2020-07-11T08:10:06Z</time>
      </trkpt>
      <trkpt lat="48.762348" lon="7.415249">
        <ele>223.0</ele>
        <time>2020-07-11T08:10:08Z</time>
      </trkpt>
      <trkpt lat="48.762411" lon="7.41546">
        <ele>223.0</ele>
        <time>2020-07-11T08:10:11Z</time>
      </trkpt>
      <trkpt lat="48.762462" lon="7.415597">
        <ele>223.0</ele>
        <time>2020-07-11T08:10:13Z</time>
      </trkpt>
      <trkpt lat="48.762513" lon="7.415729">
        <ele>223.0</ele>
        <time>2020-07-11T08:10:15Z</time>
      </trkpt>
      <trkpt lat="48.762561" lon="7.415872">
        <ele>223.0</ele>
        <time>2020-07-11T08:10:17Z</time>
      </trkpt>
      <trkpt lat="48.762608" lon="7.416071">
        <ele>224.0</ele>
        <time>2020-07-11T08:10:20Z</time>
      </trkpt>
      <trkpt lat="48.762623" lon="7.416135">
        <ele>224.0</ele>
        <time>2020-07-11T08:10:21Z</time>
      </trkpt>
      <trkpt lat="48.762657" lon="7.416378">
        <ele>224.0</ele>
        <time>2020-07-11T08:10:25Z</time>
      </trkpt>
      <trkpt lat="48.762678" lon="7.416451">
        <ele>224.0</ele>
        <time>2020-07-11T08:10:27Z</time>
      </trkpt>
      <trkpt lat="48.762685" lon="7.416512">
        <ele>224.0</ele>
        <time>2020-07-11T08:10:29Z</time>
      </trkpt>
      <trkpt lat="48.762683" lon="7.416606">
        <ele>224.0</ele>
        <time>2020-07-11T08:10:31Z</time>
      </trkpt>
      <trkpt lat="48.762732" lon="7.416797">
        <ele>223.0</ele>
        <time>2020-07-11T08:10:34Z</time>
      </trkpt>
      <trkpt lat="48.762799" lon="7.416918">
        <ele>223.0</ele>
        <time>2020-07-11T08:10:36Z</time>
      </trkpt>
      <trkpt lat="48.762876" lon="7.417059">
        <ele>223.0</ele>
        <time>2020-07-11T08:10:38Z</time>
      </trkpt>
      <trkpt lat="48.762877" lon="7.41725">
        <ele>223.0</ele>
        <time>2020-07-11T08:10:40Z</time>
      </trkpt>
      <trkpt lat="48.762789" lon="7.417371">
        <ele>223.0</ele>
        <time>2020-07-11T08:10:42Z</time>
      </trkpt>
      <trkpt lat="48.7627" lon="7.41748">
        <ele>222.0</ele>
        <time>2020-07-11T08:10:44Z</time>
      </trkpt>
      <trkpt lat="48.762615" lon="7.417553">
        <ele>221.0</ele>
        <time>2020-07-11T08:10:46Z</time>
      </trkpt>
      <trkpt lat="48.762536" lon="7.417611">
        <ele>221.0</ele>
        <time>2020-07-11T08:10:48Z</time>
      </trkpt>
      <trkpt lat="48.762518" lon="7.417744">
        <ele>220.0</ele>
        <time>2020-07-11T08:10:50Z</time>
      </trkpt>
      <trkpt lat="48.762562" lon="7.41787">
        <ele>220.0</ele>
        <time>2020-07-11T08:10:52Z</time>
      </trkpt>
      <trkpt lat="48.762626" lon="7.418082">
        <ele>220.0</ele>
        <time>2020-07-11T08:10:55Z</time>
      </trkpt>
      <trkpt lat="48.762666" lon="7.418215">
        <ele>220.0</ele>
        <time>2020-07-11T08:10:57Z</time>
      </trkpt>
      <trkpt lat="48.762708" lon="7.418351">
        <ele>220.0</ele>
        <time>2020-07-11T08:10:59Z</time>
      </trkpt>
      <trkpt lat="48.762757" lon="7.418494">
        <ele>220.0</ele>
        <time>2020-07-11T08:11:01Z</time>
      </trkpt>
      <trkpt lat="48.762801" lon="7.418633">
        <ele>219.0</ele>
        <time>2020-07-11T08:11:03Z</time>
      </trkpt>
      <trkpt lat="48.762891" lon="7.418823">
        <ele>220.0</ele>
        <time>2020-07-11T08:11:06Z</time>
      </trkpt>
      <trkpt lat="48.762988" lon="7.418857">
        <ele>219.0</ele>
        <time>2020-07-11T08:11:08Z</time>
      </trkpt>
      <trkpt lat="48.763084" lon="7.418823">
        <ele>220.0</ele>
        <time>2020-07-11T08:11:10Z</time>
      </trkpt>
      <trkpt lat="48.763214" lon="7.418841">
        <ele>220.0</ele>
        <time>2020-07-11T08:11:13Z</time>
      </trkpt>
      <trkpt lat="48.763265" lon="7.418947">
        <ele>220.0</ele>
        <time>2020-07-11T08:11:15Z</time>
      </trkpt>
      <trkpt lat="48.763278" lon="7.419074">
        <ele>220.0</ele>
        <time>2020-07-11T08:11:17Z</time>
      </trkpt>
      <trkpt lat="48.763284" lon="7.419207">
        <ele>220.0</ele>
        <time>2020-07-11T08:11:19Z</time>
      </trkpt>
      <trkpt lat="48.763293" lon="7.41936">
        <ele>220.0</ele>
        <time>2020-07-11T08:11:21Z</time>
      </trkpt>
      <trkpt lat="48.763296" lon="7.419437">
        <ele>220.0</ele>
        <time>2020-07-11T08:11:22Z</time>
      </trkpt>
      <trkpt lat="48.763298" lon="7.419681">
        <ele>221.0</ele>
        <time>2020-07-11T08:11:25Z</time>
      </trkpt>
      <trkpt lat="48.763301" lon="7.419845">
        <ele>221.0</ele>
        <time>2020-07-11T08:11:27Z</time>
      </trkpt>
      <trkpt lat="48.763303" lon="7.42">
        <ele>220.0</ele>
        <time>2020-07-11T08:11:29Z</time>
      </trkpt>
      <trkpt lat="48.7633" lon="7.420168">
        <ele>220.0</ele>
        <time>2020-07-11T08:11:31Z</time>
      </trkpt>
      <trkpt lat="48.763295" lon="7.420336">
        <ele>220.0</ele>
        <time>2020-07-11T08:11:33Z</time>
      </trkpt>
      <trkpt lat="48.763293" lon="7.42059">
        <ele>219.0</ele>
        <time>2020-07-11T08:11:36Z</time>
      </trkpt>
      <trkpt lat="48.763295" lon="7.420756">
        <ele>219.0</ele>
        <time>2020-07-11T08:11:38Z</time>
      </trkpt>
      <trkpt lat="48.763296" lon="7.420928">
        <ele>219.0</ele>
        <time>2020-07-11T08:11:40Z</time>
      </trkpt>
      <trkpt lat="48.763295" lon="7.421102">
        <ele>219.0</ele>
        <time>2020-07-11T08:11:42Z</time>
      </trkpt>
      <trkpt lat="48.76329" lon="7.421268">
        <ele>219.0</ele>
        <time>2020-07-11T08:11:44Z</time>
      </trkpt>
      <trkpt lat="48.763284" lon="7.42143">
        <ele>219.0</ele>
        <time>2020-07-11T08:11:46Z</time>
      </trkpt>
      <trkpt lat="48.76328" lon="7.421589">
        <ele>219.0</ele>
        <time>2020-07-11T08:11:48Z</time>
      </trkpt>
      <trkpt lat="48.763283" lon="7.421753">
        <ele>219.0</ele>
        <time>2020-07-11T08:11:50Z</time>
      </trkpt>
      <trkpt lat="48.763282" lon="7.421923">
        <ele>219.0</ele>
        <time>2020-07-11T08:11:52Z</time>
      </trkpt>
      <trkpt lat="48.763281" lon="7.422095">
        <ele>219.0</ele>
        <time>2020-07-11T08:11:54Z</time>
      </trkpt>
      <trkpt lat="48.763284" lon="7.422264">
        <ele>219.0</ele>
        <time>2020-07-11T08:11:56Z</time>
      </trkpt>
      <trkpt lat="48.763285" lon="7.422526">
        <ele>220.0</ele>
        <time>2020-07-11T08:11:59Z</time>
      </trkpt>
      <trkpt lat="48.763289" lon="7.422698">
        <ele>220.0</ele>
        <time>2020-07-11T08:12:01Z</time>
      </trkpt>
      <trkpt lat="48.763292" lon="7.422868">
        <ele>220.0</ele>
        <time>2020-07-11T08:12:03Z</time>
      </trkpt>
      <trkpt lat="48.763296" lon="7.423118">
        <ele>220.0</ele>
        <time>2020-07-11T08:12:06Z</time>
      </trkpt>
      <trkpt lat="48.763294" lon="7.423285">
        <ele>220.0</ele>
        <time>2020-07-11T08:12:08Z</time>
      </trkpt>
      <trkpt lat="48.763294" lon="7.423449">
        <ele>219.0</ele>
        <time>2020-07-11T08:12:10Z</time>
      </trkpt>
      <trkpt lat="48.763295" lon="7.423704">
        <ele>220.0</ele>
        <time>2020-07-11T08:12:13Z</time>
      </trkpt>
      <trkpt lat="48.76329" lon="7.423866">
        <ele>219.0</ele>
        <time>2020-07-11T08:12:15Z</time>
      </trkpt>
      <trkpt lat="48.763288" lon="7.42403">
        <ele>219.0</ele>
        <time>2020-07-11T08:12:17Z</time>
      </trkpt>
      <trkpt lat="48.763297" lon="7.424196">
        <ele>220.0</ele>
        <time>2020-07-11T08:12:19Z</time>
      </trkpt>
      <trkpt lat="48.763299" lon="7.424356">
        <ele>219.0</ele>
        <time>2020-07-11T08:12:21Z</time>
      </trkpt>
      <trkpt lat="48.7633" lon="7.424518">
        <ele>219.0</ele>
        <time>2020-07-11T08:12:23Z</time>
      </trkpt>
      <trkpt lat="48.763296" lon="7.42467">
        <ele>219.0</ele>
        <time>2020-07-11T08:12:25Z</time>
      </trkpt>
      <trkpt lat="48.763297" lon="7.424834">
        <ele>219.0</ele>
        <time>2020-07-11T08:12:27Z</time>
      </trkpt>
      <trkpt lat="48.763293" lon="7.424993">
        <ele>219.0</ele>
        <time>2020-07-11T08:12:29Z</time>
      </trkpt>
      <trkpt lat="48.763295" lon="7.425232">
        <ele>219.0</ele>
        <time>2020-07-11T08:12:32Z</time>
      </trkpt>
      <trkpt lat="48.763296" lon="7.4254">
        <ele>220.0</ele>
        <time>2020-07-11T08:12:34Z</time>
      </trkpt>
      <trkpt lat="48.763303" lon="7.425566">
        <ele>220.0</ele>
        <time>2020-07-11T08:12:36Z</time>
      </trkpt>
      <trkpt lat="48.763308" lon="7.425733">
        <ele>220.0</ele>
        <time>2020-07-11T08:12:38Z</time>
      </trkpt>
      <trkpt lat="48.763307" lon="7.425817">
        <ele>220.0</ele>
        <time>2020-07-11T08:12:39Z</time>
      </trkpt>
      <trkpt lat="48.763294" lon="7.426069">
        <ele>220.0</ele>
        <time>2020-07-11T08:12:42Z</time>
      </trkpt>
      <trkpt lat="48.7633" lon="7.426319">
        <ele>220.0</ele>
        <time>2020-07-11T08:12:45Z</time>
      </trkpt>
      <trkpt lat="48.763305" lon="7.42649">
        <ele>220.0</ele>
        <time>2020-07-11T08:12:47Z</time>
      </trkpt>
      <trkpt lat="48.763298" lon="7.426656">
        <ele>219.0</ele>
        <time>2020-07-11T08:12:49Z</time>
      </trkpt>
      <trkpt lat="48.763295" lon="7.426825">
        <ele>219.0</ele>
        <time>2020-07-11T08:12:51Z</time>
      </trkpt>
      <trkpt lat="48.763292" lon="7.426998">
        <ele>219.0</ele>
        <time>2020-07-11T08:12:53Z</time>
      </trkpt>
      <trkpt lat="48.763289" lon="7.427247">
        <ele>218.0</ele>
        <time>2020-07-11T08:12:56Z</time>
      </trkpt>
      <trkpt lat="48.763289" lon="7.427413">
        <ele>218.0</ele>
        <time>2020-07-11T08:12:58Z</time>
      </trkpt>
      <trkpt lat="48.763292" lon="7.4275">
        <ele>218.0</ele>
        <time>2020-07-11T08:12:59Z</time>
      </trkpt>
      <trkpt lat="48.763291" lon="7.427758">
        <ele>219.0</ele>
        <time>2020-07-11T08:13:02Z</time>
      </trkpt>
      <trkpt lat="48.763287" lon="7.427934">
        <ele>219.0</ele>
        <time>2020-07-11T08:13:04Z</time>
      </trkpt>
      <trkpt lat="48.763285" lon="7.428111">
        <ele>219.0</ele>
        <time>2020-07-11T08:13:06Z</time>
      </trkpt>
      <trkpt lat="48.763288" lon="7.428373">
        <ele>220.0</ele>
        <time>2020-07-11T08:13:09Z</time>
      </trkpt>
      <trkpt lat="48.763288" lon="7.428545">
        <ele>220.0</ele>
        <time>2020-07-11T08:13:11Z</time>
      </trkpt>
      <trkpt lat="48.763289" lon="7.428718">
        <ele>220.0</ele>
        <time>2020-07-11T08:13:13Z</time>
      </trkpt>
      <trkpt lat="48.763285" lon="7.42889">
        <ele>221.0</ele>
        <time>2020-07-11T08:13:15Z</time>
      </trkpt>
      <trkpt lat="48.763284" lon="7.428979">
        <ele>221.0</ele>
        <time>2020-07-11T08:13:16Z</time>
      </trkpt>
      <trkpt lat="48.763263" lon="7.429235">
        <ele>221.0</ele>
        <time>2020-07-11T08:13:19Z</time>
      </trkpt>
      <trkpt lat="48.763254" lon="7.429399">
        <ele>221.0</ele>
        <time>2020-07-11T08:13:21Z</time>
      </trkpt>
      <trkpt lat="48.763245" lon="7.429647">
        <ele>221.0</ele>
        <time>2020-07-11T08:13:24Z</time>
      </trkpt>
      <trkpt lat="48.763234" lon="7.429815">
        <ele>221.0</ele>
        <time>2020-07-11T08:13:26Z</time>
      </trkpt>
      <trkpt lat="48.763233" lon="7.429899">
        <ele>222.0</ele>
        <time>2020-07-11T08:13:27Z</time>
      </trkpt>
      <trkpt lat="48.763229" lon="7.430158">
        <ele>222.0</ele>
        <time>2020-07-11T08:13:30Z</time>
      </trkpt>
      <trkpt lat="48.763215" lon="7.430315">
        <ele>222.0</ele>
        <time>2020-07-11T08:13:32Z</time>
      </trkpt>
      <trkpt lat="48.763208" lon="7.430477">
        <ele>222.0</ele>
        <time>2020-07-11T08:13:34Z</time>
      </trkpt>
      <trkpt lat="48.763204" lon="7.430635">
        <ele>221.0</ele>
        <time>2020-07-11T08:13:36Z</time>
      </trkpt>
      <trkpt lat="48.763191" lon="7.430797">
        <ele>222.0</ele>
        <time>2020-07-11T08:13:38Z</time>
      </trkpt>
      <trkpt lat="48.763163" lon="7.431041">
        <ele>222.0</ele>
        <time>2020-07-11T08:13:41Z</time>
      </trkpt>
      <trkpt lat="48.763137" lon="7.431191">
        <ele>221.0</ele>
        <time>2020-07-11T08:13:43Z</time>
      </trkpt>
      <trkpt lat="48.763115" lon="7.43135">
        <ele>221.0</ele>
        <time>2020-07-11T08:13:45Z</time>
      </trkpt>
      <trkpt lat="48.763081" lon="7.431586">
        <ele>221.0</ele>
        <time>2020-07-11T08:13:48Z</time>
      </trkpt>
      <trkpt lat="48.763053" lon="7.431744">
        <ele>221.0</ele>
        <time>2020-07-11T08:13:50Z</time>
      </trkpt>
      <trkpt lat="48.763035" lon="7.431901">
        <ele>221.0</ele>
        <time>2020-07-11T08:13:52Z</time>
      </trkpt>
      <trkpt lat="48.76301" lon="7.432058">
        <ele>221.0</ele>
        <time>2020-07-11T08:13:54Z</time>
      </trkpt>
      <trkpt lat="48.762986" lon="7.432222">
        <ele>221.0</ele>
        <time>2020-07-11T08:13:56Z</time>
      </trkpt>
      <trkpt lat="48.76296" lon="7.432385">
        <ele>222.0</ele>
        <time>2020-07-11T08:13:58Z</time>
      </trkpt>
      <trkpt lat="48.762934" lon="7.432545">
        <ele>222.0</ele>
        <time>2020-07-11T08:14:00Z</time>
      </trkpt>
      <trkpt lat="48.762883" lon="7.43279">
        <ele>221.0</ele>
        <time>2020-07-11T08:14:03Z</time>
      </trkpt>
      <trkpt lat="48.762855" lon="7.432943">
        <ele>221.0</ele>
        <time>2020-07-11T08:14:05Z</time>
      </trkpt>
      <trkpt lat="48.762828" lon="7.433079">
        <ele>221.0</ele>
        <time>2020-07-11T08:14:07Z</time>
      </trkpt>
      <trkpt lat="48.762799" lon="7.433216">
        <ele>221.0</ele>
        <time>2020-07-11T08:14:09Z</time>
      </trkpt>
      <trkpt lat="48.762777" lon="7.433325">
        <ele>221.0</ele>
        <time>2020-07-11T08:14:11Z</time>
      </trkpt>
      <trkpt lat="48.76277" lon="7.433355">
        <ele>221.0</ele>
        <time>2020-07-11T08:14:12Z</time>
      </trkpt>
      <trkpt lat="48.762755" lon="7.433386">
        <ele>220.0</ele>
        <time>2020-07-11T08:14:16Z</time>
      </trkpt>
      <trkpt lat="48.762755" lon="7.433383">
        <ele>220.0</ele>
        <time>2020-07-11T08:14:18Z</time>
      </trkpt>
      <trkpt lat="48.762755" lon="7.433383">
        <ele>220.0</ele>
        <time>2020-07-11T08:14:20Z</time>
      </trkpt>
      <trkpt lat="48.762755" lon="7.433383">
        <ele>220.0</ele>
        <time>2020-07-11T08:14:57Z</time>
      </trkpt>
      <trkpt lat="48.762755" lon="7.433383">
        <ele>220.0</ele>
        <time>2020-07-11T08:15:00Z</time>
      </trkpt>
      <trkpt lat="48.762755" lon="7.433383">
        <ele>220.0</ele>
        <time>2020-07-11T08:15:02Z</time>
      </trkpt>
      <trkpt lat="48.762755" lon="7.433383">
        <ele>220.0</ele>
        <time>2020-07-11T08:15:04Z</time>
      </trkpt>
      <trkpt lat="48.762755" lon="7.433383">
        <ele>220.0</ele>
        <time>2020-07-11T08:15:05Z</time>
      </trkpt>
      <trkpt lat="48.762755" lon="7.433383">
        <ele>220.0</ele>
        <time>2020-07-11T08:15:08Z</time>
      </trkpt>
      <trkpt lat="48.762755" lon="7.433383">
        <ele>220.0</ele>
        <time>2020-07-11T08:15:10Z</time>
      </trkpt>
      <trkpt lat="48.762755" lon="7.433383">
        <ele>220.0</ele>
        <time>2020-07-11T08:15:12Z</time>
      </trkpt>
      <trkpt lat="48.762755" lon="7.433383">
        <ele>220.0</ele>
        <time>2020-07-11T08:15:14Z</time>
      </trkpt>
      <trkpt lat="48.762752" lon="7.433383">
        <ele>220.0</ele>
        <time>2020-07-11T08:15:16Z</time>
      </trkpt>
      <trkpt lat="48.762746" lon="7.433406">
        <ele>220.0</ele>
        <time>2020-07-11T08:15:18Z</time>
      </trkpt>
      <trkpt lat="48.762744" lon="7.433463">
        <ele>220.0</ele>
        <time>2020-07-11T08:15:20Z</time>
      </trkpt>
      <trkpt lat="48.762732" lon="7.433531">
        <ele>219.0</ele>
        <time>2020-07-11T08:15:22Z</time>
      </trkpt>
      <trkpt lat="48.762708" lon="7.433613">
        <ele>219.0</ele>
        <time>2020-07-11T08:15:24Z</time>
      </trkpt>
      <trkpt lat="48.76269" lon="7.433736">
        <ele>218.0</ele>
        <time>2020-07-11T08:15:26Z</time>
      </trkpt>
      <trkpt lat="48.762661" lon="7.433873">
        <ele>218.0</ele>
        <time>2020-07-11T08:15:28Z</time>
      </trkpt>
      <trkpt lat="48.762635" lon="7.434004">
        <ele>219.0</ele>
        <time>2020-07-11T08:15:30Z</time>
      </trkpt>
      <trkpt lat="48.7626" lon="7.434145">
        <ele>219.0</ele>
        <time>2020-07-11T08:15:32Z</time>
      </trkpt>
      <trkpt lat="48.762567" lon="7.434283">
        <ele>219.0</ele>
        <time>2020-07-11T08:15:34Z</time>
      </trkpt>
      <trkpt lat="48.762531" lon="7.434427">
        <ele>219.0</ele>
        <time>2020-07-11T08:15:36Z</time>
      </trkpt>
      <trkpt lat="48.762489" lon="7.434572">
        <ele>219.0</ele>
        <time>2020-07-11T08:15:38Z</time>
      </trkpt>
      <trkpt lat="48.762446" lon="7.434727">
        <ele>219.0</ele>
        <time>2020-07-11T08:15:40Z</time>
      </trkpt>
      <trkpt lat="48.762407" lon="7.434885">
        <ele>219.0</ele>
        <time>2020-07-11T08:15:42Z</time>
      </trkpt>
      <trkpt lat="48.76237" lon="7.43505">
        <ele>220.0</ele>
        <time>2020-07-11T08:15:44Z</time>
      </trkpt>
      <trkpt lat="48.762308" lon="7.435286">
        <ele>219.0</ele>
        <time>2020-07-11T08:15:47Z</time>
      </trkpt>
      <trkpt lat="48.762261" lon="7.43545">
        <ele>220.0</ele>
        <time>2020-07-11T08:15:49Z</time>
      </trkpt>
      <trkpt lat="48.762191" lon="7.43569">
        <ele>220.0</ele>
        <time>2020-07-11T08:15:52Z</time>
      </trkpt>
      <trkpt lat="48.762168" lon="7.43577">
        <ele>220.0</ele>
        <time>2020-07-11T08:15:53Z</time>
      </trkpt>
      <trkpt lat="48.762091" lon="7.436007">
        <ele>221.0</ele>
        <time>2020-07-11T08:15:56Z</time>
      </trkpt>
      <trkpt lat="48.76204" lon="7.436163">
        <ele>219.0</ele>
        <time>2020-07-11T08:15:58Z</time>
      </trkpt>
      <trkpt lat="48.761991" lon="7.43632">
        <ele>219.0</ele>
        <time>2020-07-11T08:16:00Z</time>
      </trkpt>
      <trkpt lat="48.761938" lon="7.436471">
        <ele>219.0</ele>
        <time>2020-07-11T08:16:02Z</time>
      </trkpt>
      <trkpt lat="48.761884" lon="7.436637">
        <ele>220.0</ele>
        <time>2020-07-11T08:16:04Z</time>
      </trkpt>
      <trkpt lat="48.761827" lon="7.43679">
        <ele>219.0</ele>
        <time>2020-07-11T08:16:06Z</time>
      </trkpt>
      <trkpt lat="48.761771" lon="7.436949">
        <ele>220.0</ele>
        <time>2020-07-11T08:16:08Z</time>
      </trkpt>
      <trkpt lat="48.761715" lon="7.437111">
        <ele>221.0</ele>
        <time>2020-07-11T08:16:10Z</time>
      </trkpt>
      <trkpt lat="48.761655" lon="7.437253">
        <ele>221.0</ele>
        <time>2020-07-11T08:16:12Z</time>
      </trkpt>
      <trkpt lat="48.761566" lon="7.437469">
        <ele>221.0</ele>
        <time>2020-07-11T08:16:15Z</time>
      </trkpt>
      <trkpt lat="48.76151" lon="7.437616">
        <ele>221.0</ele>
        <time>2020-07-11T08:16:17Z</time>
      </trkpt>
      <trkpt lat="48.761452" lon="7.437772">
        <ele>219.0</ele>
        <time>2020-07-11T08:16:19Z</time>
      </trkpt>
      <trkpt lat="48.761391" lon="7.437918">
        <ele>219.0</ele>
        <time>2020-07-11T08:16:21Z</time>
      </trkpt>
      <trkpt lat="48.761335" lon="7.438067">
        <ele>219.0</ele>
        <time>2020-07-11T08:16:23Z</time>
      </trkpt>
      <trkpt lat="48.761252" lon="7.438296">
        <ele>219.0</ele>
        <time>2020-07-11T08:16:26Z</time>
      </trkpt>
      <trkpt lat="48.761199" lon="7.438449">
        <ele>220.0</ele>
        <time>2020-07-11T08:16:28Z</time>
      </trkpt>
      <trkpt lat="48.761143" lon="7.438603">
        <ele>220.0</ele>
        <time>2020-07-11T08:16:30Z</time>
      </trkpt>
      <trkpt lat="48.76109" lon="7.438748">
        <ele>220.0</ele>
        <time>2020-07-11T08:16:32Z</time>
      </trkpt>
      <trkpt lat="48.761035" lon="7.438898">
        <ele>220.0</ele>
        <time>2020-07-11T08:16:34Z</time>
      </trkpt>
      <trkpt lat="48.760952" lon="7.439123">
        <ele>220.0</ele>
        <time>2020-07-11T08:16:37Z</time>
      </trkpt>
      <trkpt lat="48.7609" lon="7.439268">
        <ele>220.0</ele>
        <time>2020-07-11T08:16:39Z</time>
      </trkpt>
      <trkpt lat="48.760845" lon="7.439408">
        <ele>220.0</ele>
        <time>2020-07-11T08:16:41Z</time>
      </trkpt>
      <trkpt lat="48.760766" lon="7.439617">
        <ele>220.0</ele>
        <time>2020-07-11T08:16:44Z</time>
      </trkpt>
      <trkpt lat="48.760714" lon="7.439755">
        <ele>220.0</ele>
        <time>2020-07-11T08:16:46Z</time>
      </trkpt>
      <trkpt lat="48.76066" lon="7.439889">
        <ele>220.0</ele>
        <time>2020-07-11T08:16:48Z</time>
      </trkpt>
      <trkpt lat="48.760629" lon="7.439965">
        <ele>220.0</ele>
        <time>2020-07-11T08:16:49Z</time>
      </trkpt>
      <trkpt lat="48.760556" lon="7.440185">
        <ele>220.0</ele>
        <time>2020-07-11T08:16:52Z</time>
      </trkpt>
      <trkpt lat="48.760496" lon="7.440335">
        <ele>221.0</ele>
        <time>2020-07-11T08:16:54Z</time>
      </trkpt>
      <trkpt lat="48.760443" lon="7.440482">
        <ele>221.0</ele>
        <time>2020-07-11T08:16:56Z</time>
      </trkpt>
      <trkpt lat="48.760387" lon="7.44062">
        <ele>221.0</ele>
        <time>2020-07-11T08:16:58Z</time>
      </trkpt>
      <trkpt lat="48.760333" lon="7.440761">
        <ele>221.0</ele>
        <time>2020-07-11T08:17:00Z</time>
      </trkpt>
      <trkpt lat="48.760283" lon="7.440904">
        <ele>221.0</ele>
        <time>2020-07-11T08:17:02Z</time>
      </trkpt>
      <trkpt lat="48.760235" lon="7.441056">
        <ele>222.0</ele>
        <time>2020-07-11T08:17:04Z</time>
      </trkpt>
      <trkpt lat="48.76018" lon="7.441205">
        <ele>222.0</ele>
        <time>2020-07-11T08:17:06Z</time>
      </trkpt>
      <trkpt lat="48.760122" lon="7.441351">
        <ele>222.0</ele>
        <time>2020-07-11T08:17:08Z</time>
      </trkpt>
      <trkpt lat="48.760038" lon="7.441575">
        <ele>222.0</ele>
        <time>2020-07-11T08:17:11Z</time>
      </trkpt>
      <trkpt lat="48.760014" lon="7.441647">
        <ele>222.0</ele>
        <time>2020-07-11T08:17:12Z</time>
      </trkpt>
      <trkpt lat="48.759901" lon="7.441935">
        <ele>222.0</ele>
        <time>2020-07-11T08:17:16Z</time>
      </trkpt>
      <trkpt lat="48.759845" lon="7.442079">
        <ele>221.0</ele>
        <time>2020-07-11T08:17:18Z</time>
      </trkpt>
      <trkpt lat="48.759817" lon="7.442153">
        <ele>221.0</ele>
        <time>2020-07-11T08:17:19Z</time>
      </trkpt>
      <trkpt lat="48.759739" lon="7.442376">
        <ele>221.0</ele>
        <time>2020-07-11T08:17:22Z</time>
      </trkpt>
      <trkpt lat="48.759661" lon="7.442596">
        <ele>222.0</ele>
        <time>2020-07-11T08:17:25Z</time>
      </trkpt>
      <trkpt lat="48.759608" lon="7.442746">
        <ele>222.0</ele>
        <time>2020-07-11T08:17:27Z</time>
      </trkpt>
      <trkpt lat="48.759581" lon="7.442819">
        <ele>222.0</ele>
        <time>2020-07-11T08:17:28Z</time>
      </trkpt>
      <trkpt lat="48.759501" lon="7.443036">
        <ele>222.0</ele>
        <time>2020-07-11T08:17:31Z</time>
      </trkpt>
      <trkpt lat="48.759389" lon="7.443334">
        <ele>222.0</ele>
        <time>2020-07-11T08:17:35Z</time>
      </trkpt>
      <trkpt lat="48.75933" lon="7.443475">
        <ele>221.0</ele>
        <time>2020-07-11T08:17:37Z</time>
      </trkpt>
      <trkpt lat="48.759282" lon="7.443616">
        <ele>221.0</ele>
        <time>2020-07-11T08:17:39Z</time>
      </trkpt>
      <trkpt lat="48.759256" lon="7.443686">
        <ele>221.0</ele>
        <time>2020-07-11T08:17:40Z</time>
      </trkpt>
      <trkpt lat="48.759144" lon="7.443979">
        <ele>221.0</ele>
        <time>2020-07-11T08:17:44Z</time>
      </trkpt>
      <trkpt lat="48.759093" lon="7.444124">
        <ele>222.0</ele>
        <time>2020-07-11T08:17:46Z</time>
      </trkpt>
      <trkpt lat="48.759039" lon="7.444271">
        <ele>222.0</ele>
        <time>2020-07-11T08:17:48Z</time>
      </trkpt>
      <trkpt lat="48.759011" lon="7.444345">
        <ele>222.0</ele>
        <time>2020-07-11T08:17:49Z</time>
      </trkpt>
      <trkpt lat="48.758924" lon="7.444571">
        <ele>222.0</ele>
        <time>2020-07-11T08:17:52Z</time>
      </trkpt>
      <trkpt lat="48.758866" lon="7.444715">
        <ele>223.0</ele>
        <time>2020-07-11T08:17:54Z</time>
      </trkpt>
      <trkpt lat="48.7588" lon="7.444856">
        <ele>223.0</ele>
        <time>2020-07-11T08:17:56Z</time>
      </trkpt>
      <trkpt lat="48.758691" lon="7.445053">
        <ele>222.0</ele>
        <time>2020-07-11T08:17:59Z</time>
      </trkpt>
      <trkpt lat="48.758616" lon="7.445178">
        <ele>222.0</ele>
        <time>2020-07-11T08:18:01Z</time>
      </trkpt>
      <trkpt lat="48.758579" lon="7.44524">
        <ele>222.0</ele>
        <time>2020-07-11T08:18:02Z</time>
      </trkpt>
      <trkpt lat="48.758459" lon="7.445408">
        <ele>222.0</ele>
        <time>2020-07-11T08:18:05Z</time>
      </trkpt>
      <trkpt lat="48.758417" lon="7.445464">
        <ele>222.0</ele>
        <time>2020-07-11T08:18:06Z</time>
      </trkpt>
      <trkpt lat="48.758297" lon="7.445638">
        <ele>222.0</ele>
        <time>2020-07-11T08:18:09Z</time>
      </trkpt>
      <trkpt lat="48.758217" lon="7.44574">
        <ele>222.0</ele>
        <time>2020-07-11T08:18:11Z</time>
      </trkpt>
      <trkpt lat="48.758131" lon="7.445845">
        <ele>222.0</ele>
        <time>2020-07-11T08:18:13Z</time>
      </trkpt>
      <trkpt lat="48.758037" lon="7.44595">
        <ele>222.0</ele>
        <time>2020-07-11T08:18:15Z</time>
      </trkpt>
      <trkpt lat="48.757948" lon="7.446054">
        <ele>222.0</ele>
        <time>2020-07-11T08:18:17Z</time>
      </trkpt>
      <trkpt lat="48.757855" lon="7.446148">
        <ele>222.0</ele>
        <time>2020-07-11T08:18:19Z</time>
      </trkpt>
      <trkpt lat="48.757761" lon="7.446231">
        <ele>222.0</ele>
        <time>2020-07-11T08:18:21Z</time>
      </trkpt>
      <trkpt lat="48.757666" lon="7.446309">
        <ele>222.0</ele>
        <time>2020-07-11T08:18:23Z</time>
      </trkpt>
      <trkpt lat="48.757553" lon="7.446385">
        <ele>221.0</ele>
        <time>2020-07-11T08:18:25Z</time>
      </trkpt>
      <trkpt lat="48.757449" lon="7.446462">
        <ele>221.0</ele>
        <time>2020-07-11T08:18:27Z</time>
      </trkpt>
      <trkpt lat="48.757355" lon="7.446533">
        <ele>221.0</ele>
        <time>2020-07-11T08:18:29Z</time>
      </trkpt>
      <trkpt lat="48.757254" lon="7.44659">
        <ele>221.0</ele>
        <time>2020-07-11T08:18:31Z</time>
      </trkpt>
      <trkpt lat="48.757153" lon="7.446651">
        <ele>221.0</ele>
        <time>2020-07-11T08:18:33Z</time>
      </trkpt>
      <trkpt lat="48.757051" lon="7.44671">
        <ele>220.0</ele>
        <time>2020-07-11T08:18:35Z</time>
      </trkpt>
      <trkpt lat="48.756955" lon="7.446777">
        <ele>221.0</ele>
        <time>2020-07-11T08:18:37Z</time>
      </trkpt>
      <trkpt lat="48.756856" lon="7.446835">
        <ele>221.0</ele>
        <time>2020-07-11T08:18:39Z</time>
      </trkpt>
      <trkpt lat="48.756759" lon="7.446888">
        <ele>221.0</ele>
        <time>2020-07-11T08:18:41Z</time>
      </trkpt>
      <trkpt lat="48.756603" lon="7.446965">
        <ele>221.0</ele>
        <time>2020-07-11T08:18:44Z</time>
      </trkpt>
      <trkpt lat="48.756545" lon="7.446988">
        <ele>221.0</ele>
        <time>2020-07-11T08:18:45Z</time>
      </trkpt>
      <trkpt lat="48.756379" lon="7.447074">
        <ele>221.0</ele>
        <time>2020-07-11T08:18:48Z</time>
      </trkpt>
      <trkpt lat="48.756267" lon="7.447125">
        <ele>221.0</ele>
        <time>2020-07-11T08:18:50Z</time>
      </trkpt>
      <trkpt lat="48.756156" lon="7.447182">
        <ele>221.0</ele>
        <time>2020-07-11T08:18:52Z</time>
      </trkpt>
      <trkpt lat="48.755994" lon="7.447268">
        <ele>222.0</ele>
        <time>2020-07-11T08:18:55Z</time>
      </trkpt>
      <trkpt lat="48.755887" lon="7.447322">
        <ele>222.0</ele>
        <time>2020-07-11T08:18:57Z</time>
      </trkpt>
      <trkpt lat="48.755725" lon="7.447398">
        <ele>222.0</ele>
        <time>2020-07-11T08:19:00Z</time>
      </trkpt>
      <trkpt lat="48.75567" lon="7.447424">
        <ele>222.0</ele>
        <time>2020-07-11T08:19:01Z</time>
      </trkpt>
      <trkpt lat="48.75546" lon="7.44753">
        <ele>221.0</ele>
        <time>2020-07-11T08:19:05Z</time>
      </trkpt>
      <trkpt lat="48.755408" lon="7.447557">
        <ele>222.0</ele>
        <time>2020-07-11T08:19:06Z</time>
      </trkpt>
      <trkpt lat="48.755248" lon="7.447636">
        <ele>222.0</ele>
        <time>2020-07-11T08:19:09Z</time>
      </trkpt>
      <trkpt lat="48.755092" lon="7.44773">
        <ele>222.0</ele>
        <time>2020-07-11T08:19:12Z</time>
      </trkpt>
      <trkpt lat="48.754944" lon="7.447817">
        <ele>222.0</ele>
        <time>2020-07-11T08:19:15Z</time>
      </trkpt>
      <trkpt lat="48.75484" lon="7.447879">
        <ele>222.0</ele>
        <time>2020-07-11T08:19:17Z</time>
      </trkpt>
      <trkpt lat="48.754741" lon="7.447957">
        <ele>223.0</ele>
        <time>2020-07-11T08:19:19Z</time>
      </trkpt>
      <trkpt lat="48.75465" lon="7.448033">
        <ele>224.0</ele>
        <time>2020-07-11T08:19:21Z</time>
      </trkpt>
      <trkpt lat="48.754553" lon="7.448107">
        <ele>224.0</ele>
        <time>2020-07-11T08:19:23Z</time>
      </trkpt>
      <trkpt lat="48.754454" lon="7.448189">
        <ele>223.0</ele>
        <time>2020-07-11T08:19:25Z</time>
      </trkpt>
      <trkpt lat="48.754353" lon="7.448281">
        <ele>223.0</ele>
        <time>2020-07-11T08:19:27Z</time>
      </trkpt>
      <trkpt lat="48.754255" lon="7.448368">
        <ele>223.0</ele>
        <time>2020-07-11T08:19:29Z</time>
      </trkpt>
      <trkpt lat="48.754107" lon="7.448509">
        <ele>222.0</ele>
        <time>2020-07-11T08:19:32Z</time>
      </trkpt>
      <trkpt lat="48.754014" lon="7.448595">
        <ele>222.0</ele>
        <time>2020-07-11T08:19:34Z</time>
      </trkpt>
      <trkpt lat="48.753927" lon="7.448692">
        <ele>222.0</ele>
        <time>2020-07-11T08:19:36Z</time>
      </trkpt>
      <trkpt lat="48.753839" lon="7.448798">
        <ele>223.0</ele>
        <time>2020-07-11T08:19:38Z</time>
      </trkpt>
      <trkpt lat="48.753759" lon="7.4489">
        <ele>223.0</ele>
        <time>2020-07-11T08:19:40Z</time>
      </trkpt>
      <trkpt lat="48.753671" lon="7.448996">
        <ele>223.0</ele>
        <time>2020-07-11T08:19:42Z</time>
      </trkpt>
      <trkpt lat="48.753577" lon="7.449088">
        <ele>223.0</ele>
        <time>2020-07-11T08:19:44Z</time>
      </trkpt>
      <trkpt lat="48.753437" lon="7.449236">
        <ele>223.0</ele>
        <time>2020-07-11T08:19:47Z</time>
      </trkpt>
      <trkpt lat="48.753347" lon="7.449328">
        <ele>223.0</ele>
        <time>2020-07-11T08:19:49Z</time>
      </trkpt>
      <trkpt lat="48.753258" lon="7.449418">
        <ele>223.0</ele>
        <time>2020-07-11T08:19:51Z</time>
      </trkpt>
      <trkpt lat="48.753171" lon="7.449512">
        <ele>222.0</ele>
        <time>2020-07-11T08:19:53Z</time>
      </trkpt>
      <trkpt lat="48.753077" lon="7.44961">
        <ele>222.0</ele>
        <time>2020-07-11T08:19:55Z</time>
      </trkpt>
      <trkpt lat="48.752936" lon="7.449769">
        <ele>221.0</ele>
        <time>2020-07-11T08:19:58Z</time>
      </trkpt>
      <trkpt lat="48.75284" lon="7.449879">
        <ele>221.0</ele>
        <time>2020-07-11T08:20:00Z</time>
      </trkpt>
      <trkpt lat="48.75275" lon="7.449975">
        <ele>221.0</ele>
        <time>2020-07-11T08:20:02Z</time>
      </trkpt>
      <trkpt lat="48.752658" lon="7.45007">
        <ele>221.0</ele>
        <time>2020-07-11T08:20:04Z</time>
      </trkpt>
      <trkpt lat="48.752559" lon="7.450174">
        <ele>221.0</ele>
        <time>2020-07-11T08:20:06Z</time>
      </trkpt>
      <trkpt lat="48.752465" lon="7.450274">
        <ele>221.0</ele>
        <time>2020-07-11T08:20:08Z</time>
      </trkpt>
      <trkpt lat="48.752367" lon="7.450351">
        <ele>221.0</ele>
        <time>2020-07-11T08:20:10Z</time>
      </trkpt>
      <trkpt lat="48.752259" lon="7.450398">
        <ele>221.0</ele>
        <time>2020-07-11T08:20:12Z</time>
      </trkpt>
      <trkpt lat="48.752145" lon="7.450434">
        <ele>221.0</ele>
        <time>2020-07-11T08:20:14Z</time>
      </trkpt>
      <trkpt lat="48.752093" lon="7.450447">
        <ele>221.0</ele>
        <time>2020-07-11T08:20:15Z</time>
      </trkpt>
      <trkpt lat="48.751877" lon="7.450509">
        <ele>221.0</ele>
        <time>2020-07-11T08:20:19Z</time>
      </trkpt>
      <trkpt lat="48.751773" lon="7.450549">
        <ele>221.0</ele>
        <time>2020-07-11T08:20:21Z</time>
      </trkpt>
      <trkpt lat="48.751668" lon="7.450577">
        <ele>221.0</ele>
        <time>2020-07-11T08:20:23Z</time>
      </trkpt>
      <trkpt lat="48.751556" lon="7.45056">
        <ele>221.0</ele>
        <time>2020-07-11T08:20:25Z</time>
      </trkpt>
      <trkpt lat="48.751455" lon="7.450601">
        <ele>221.0</ele>
        <time>2020-07-11T08:20:27Z</time>
      </trkpt>
      <trkpt lat="48.751411" lon="7.450642">
        <ele>221.0</ele>
        <time>2020-07-11T08:20:28Z</time>
      </trkpt>
      <trkpt lat="48.751234" lon="7.450819">
        <ele>220.0</ele>
        <time>2020-07-11T08:20:32Z</time>
      </trkpt>
      <trkpt lat="48.751152" lon="7.450919">
        <ele>220.0</ele>
        <time>2020-07-11T08:20:34Z</time>
      </trkpt>
      <trkpt lat="48.75106" lon="7.451014">
        <ele>221.0</ele>
        <time>2020-07-11T08:20:36Z</time>
      </trkpt>
      <trkpt lat="48.750956" lon="7.451109">
        <ele>222.0</ele>
        <time>2020-07-11T08:20:38Z</time>
      </trkpt>
      <trkpt lat="48.75091" lon="7.451148">
        <ele>223.0</ele>
        <time>2020-07-11T08:20:39Z</time>
      </trkpt>
      <trkpt lat="48.750713" lon="7.451335">
        <ele>222.0</ele>
        <time>2020-07-11T08:20:43Z</time>
      </trkpt>
      <trkpt lat="48.750618" lon="7.451436">
        <ele>222.0</ele>
        <time>2020-07-11T08:20:45Z</time>
      </trkpt>
      <trkpt lat="48.75053" lon="7.451536">
        <ele>222.0</ele>
        <time>2020-07-11T08:20:47Z</time>
      </trkpt>
      <trkpt lat="48.75044" lon="7.451635">
        <ele>223.0</ele>
        <time>2020-07-11T08:20:49Z</time>
      </trkpt>
      <trkpt lat="48.750358" lon="7.451731">
        <ele>223.0</ele>
        <time>2020-07-11T08:20:51Z</time>
      </trkpt>
      <trkpt lat="48.750318" lon="7.451776">
        <ele>222.0</ele>
        <time>2020-07-11T08:20:52Z</time>
      </trkpt>
      <trkpt lat="48.750252" lon="7.451966">
        <ele>222.0</ele>
        <time>2020-07-11T08:20:55Z</time>
      </trkpt>
      <trkpt lat="48.750231" lon="7.452099">
        <ele>221.0</ele>
        <time>2020-07-11T08:20:57Z</time>
      </trkpt>
      <trkpt lat="48.750194" lon="7.452224">
        <ele>221.0</ele>
        <time>2020-07-11T08:20:59Z</time>
      </trkpt>
      <trkpt lat="48.750221" lon="7.452371">
        <ele>221.0</ele>
        <time>2020-07-11T08:21:01Z</time>
      </trkpt>
      <trkpt lat="48.750266" lon="7.452514">
        <ele>220.0</ele>
        <time>2020-07-11T08:21:03Z</time>
      </trkpt>
      <trkpt lat="48.750302" lon="7.452651">
        <ele>220.0</ele>
        <time>2020-07-11T08:21:05Z</time>
      </trkpt>
      <trkpt lat="48.750253" lon="7.452761">
        <ele>220.0</ele>
        <time>2020-07-11T08:21:07Z</time>
      </trkpt>
      <trkpt lat="48.750172" lon="7.452831">
        <ele>220.0</ele>
        <time>2020-07-11T08:21:09Z</time>
      </trkpt>
      <trkpt lat="48.750068" lon="7.452926">
        <ele>220.0</ele>
        <time>2020-07-11T08:21:12Z</time>
      </trkpt>
      <trkpt lat="48.750025" lon="7.452964">
        <ele>220.0</ele>
        <time>2020-07-11T08:21:13Z</time>
      </trkpt>
      <trkpt lat="48.749888" lon="7.453097">
        <ele>220.0</ele>
        <time>2020-07-11T08:21:16Z</time>
      </trkpt>
      <trkpt lat="48.749799" lon="7.453197">
        <ele>221.0</ele>
        <time>2020-07-11T08:21:18Z</time>
      </trkpt>
      <trkpt lat="48.749702" lon="7.453305">
        <ele>221.0</ele>
        <time>2020-07-11T08:21:20Z</time>
      </trkpt>
      <trkpt lat="48.749617" lon="7.45341">
        <ele>221.0</ele>
        <time>2020-07-11T08:21:22Z</time>
      </trkpt>
      <trkpt lat="48.749575" lon="7.453461">
        <ele>220.0</ele>
        <time>2020-07-11T08:21:23Z</time>
      </trkpt>
      <trkpt lat="48.749442" lon="7.453641">
        <ele>220.0</ele>
        <time>2020-07-11T08:21:26Z</time>
      </trkpt>
      <trkpt lat="48.749309" lon="7.453824">
        <ele>221.0</ele>
        <time>2020-07-11T08:21:29Z</time>
      </trkpt>
      <trkpt lat="48.749227" lon="7.453952">
        <ele>221.0</ele>
        <time>2020-07-11T08:21:31Z</time>
      </trkpt>
      <trkpt lat="48.749188" lon="7.454018">
        <ele>221.0</ele>
        <time>2020-07-11T08:21:32Z</time>
      </trkpt>
      <trkpt lat="48.749065" lon="7.454223">
        <ele>221.0</ele>
        <time>2020-07-11T08:21:35Z</time>
      </trkpt>
      <trkpt lat="48.748988" lon="7.454367">
        <ele>221.0</ele>
        <time>2020-07-11T08:21:37Z</time>
      </trkpt>
      <trkpt lat="48.748921" lon="7.454507">
        <ele>222.0</ele>
        <time>2020-07-11T08:21:39Z</time>
      </trkpt>
      <trkpt lat="48.74889" lon="7.454581">
        <ele>222.0</ele>
        <time>2020-07-11T08:21:40Z</time>
      </trkpt>
      <trkpt lat="48.748789" lon="7.454807">
        <ele>222.0</ele>
        <time>2020-07-11T08:21:43Z</time>
      </trkpt>
      <trkpt lat="48.748725" lon="7.454959">
        <ele>222.0</ele>
        <time>2020-07-11T08:21:45Z</time>
      </trkpt>
      <trkpt lat="48.748666" lon="7.455116">
        <ele>222.0</ele>
        <time>2020-07-11T08:21:47Z</time>
      </trkpt>
      <trkpt lat="48.748642" lon="7.455197">
        <ele>222.0</ele>
        <time>2020-07-11T08:21:48Z</time>
      </trkpt>
      <trkpt lat="48.748559" lon="7.455442">
        <ele>222.0</ele>
        <time>2020-07-11T08:21:51Z</time>
      </trkpt>
      <trkpt lat="48.748518" lon="7.455605">
        <ele>222.0</ele>
        <time>2020-07-11T08:21:53Z</time>
      </trkpt>
      <trkpt lat="48.748468" lon="7.455769">
        <ele>222.0</ele>
        <time>2020-07-11T08:21:55Z</time>
      </trkpt>
      <trkpt lat="48.748403" lon="7.456033">
        <ele>221.0</ele>
        <time>2020-07-11T08:21:58Z</time>
      </trkpt>
      <trkpt lat="48.748369" lon="7.456202">
        <ele>221.0</ele>
        <time>2020-07-11T08:22:00Z</time>
      </trkpt>
      <trkpt lat="48.748355" lon="7.456297">
        <ele>221.0</ele>
        <time>2020-07-11T08:22:01Z</time>
      </trkpt>
      <trkpt lat="48.748294" lon="7.456631">
        <ele>222.0</ele>
        <time>2020-07-11T08:22:05Z</time>
      </trkpt>
      <trkpt lat="48.748278" lon="7.456722">
        <ele>222.0</ele>
        <time>2020-07-11T08:22:06Z</time>
      </trkpt>
      <trkpt lat="48.748241" lon="7.456972">
        <ele>221.0</ele>
        <time>2020-07-11T08:22:09Z</time>
      </trkpt>
      <trkpt lat="48.748222" lon="7.457136">
        <ele>221.0</ele>
        <time>2020-07-11T08:22:11Z</time>
      </trkpt>
      <trkpt lat="48.748212" lon="7.457385">
        <ele>221.0</ele>
        <time>2020-07-11T08:22:14Z</time>
      </trkpt>
      <trkpt lat="48.748216" lon="7.457479">
        <ele>220.0</ele>
        <time>2020-07-11T08:22:15Z</time>
      </trkpt>
      <trkpt lat="48.748225" lon="7.457822">
        <ele>220.0</ele>
        <time>2020-07-11T08:22:19Z</time>
      </trkpt>
      <trkpt lat="48.748254" lon="7.457986">
        <ele>220.0</ele>
        <time>2020-07-11T08:22:21Z</time>
      </trkpt>
      <trkpt lat="48.74827" lon="7.458156">
        <ele>220.0</ele>
        <time>2020-07-11T08:22:23Z</time>
      </trkpt>
      <trkpt lat="48.748268" lon="7.458332">
        <ele>220.0</ele>
        <time>2020-07-11T08:22:25Z</time>
      </trkpt>
      <trkpt lat="48.748247" lon="7.458485">
        <ele>220.0</ele>
        <time>2020-07-11T08:22:27Z</time>
      </trkpt>
      <trkpt lat="48.748225" lon="7.458642">
        <ele>221.0</ele>
        <time>2020-07-11T08:22:29Z</time>
      </trkpt>
      <trkpt lat="48.748217" lon="7.458811">
        <ele>221.0</ele>
        <time>2020-07-11T08:22:31Z</time>
      </trkpt>
      <trkpt lat="48.748215" lon="7.459097">
        <ele>220.0</ele>
        <time>2020-07-11T08:22:34Z</time>
      </trkpt>
      <trkpt lat="48.748222" lon="7.459322">
        <ele>219.0</ele>
        <time>2020-07-11T08:22:36Z</time>
      </trkpt>
      <trkpt lat="48.74822" lon="7.459543">
        <ele>219.0</ele>
        <time>2020-07-11T08:22:38Z</time>
      </trkpt>
      <trkpt lat="48.748218" lon="7.459768">
        <ele>219.0</ele>
        <time>2020-07-11T08:22:40Z</time>
      </trkpt>
      <trkpt lat="48.748217" lon="7.45999">
        <ele>219.0</ele>
        <time>2020-07-11T08:22:42Z</time>
      </trkpt>
      <trkpt lat="48.748233" lon="7.460192">
        <ele>219.0</ele>
        <time>2020-07-11T08:22:44Z</time>
      </trkpt>
      <trkpt lat="48.748245" lon="7.460382">
        <ele>219.0</ele>
        <time>2020-07-11T08:22:46Z</time>
      </trkpt>
      <trkpt lat="48.748244" lon="7.46065">
        <ele>218.0</ele>
        <time>2020-07-11T08:22:49Z</time>
      </trkpt>
      <trkpt lat="48.748235" lon="7.460851">
        <ele>218.0</ele>
        <time>2020-07-11T08:22:51Z</time>
      </trkpt>
      <trkpt lat="48.74823" lon="7.461054">
        <ele>217.0</ele>
        <time>2020-07-11T08:22:53Z</time>
      </trkpt>
      <trkpt lat="48.748226" lon="7.461341">
        <ele>217.0</ele>
        <time>2020-07-11T08:22:56Z</time>
      </trkpt>
      <trkpt lat="48.748226" lon="7.461519">
        <ele>217.0</ele>
        <time>2020-07-11T08:22:58Z</time>
      </trkpt>
      <trkpt lat="48.748231" lon="7.461704">
        <ele>217.0</ele>
        <time>2020-07-11T08:23:00Z</time>
      </trkpt>
      <trkpt lat="48.748227" lon="7.461883">
        <ele>217.0</ele>
        <time>2020-07-11T08:23:02Z</time>
      </trkpt>
      <trkpt lat="48.748224" lon="7.462163">
        <ele>218.0</ele>
        <time>2020-07-11T08:23:05Z</time>
      </trkpt>
      <trkpt lat="48.748214" lon="7.462333">
        <ele>218.0</ele>
        <time>2020-07-11T08:23:07Z</time>
      </trkpt>
      <trkpt lat="48.748195" lon="7.462499">
        <ele>219.0</ele>
        <time>2020-07-11T08:23:09Z</time>
      </trkpt>
      <trkpt lat="48.748171" lon="7.462678">
        <ele>217.0</ele>
        <time>2020-07-11T08:23:11Z</time>
      </trkpt>
      <trkpt lat="48.748141" lon="7.462852">
        <ele>217.0</ele>
        <time>2020-07-11T08:23:13Z</time>
      </trkpt>
      <trkpt lat="48.748102" lon="7.463007">
        <ele>216.0</ele>
        <time>2020-07-11T08:23:15Z</time>
      </trkpt>
      <trkpt lat="48.748017" lon="7.463136">
        <ele>217.0</ele>
        <time>2020-07-11T08:23:17Z</time>
      </trkpt>
      <trkpt lat="48.747899" lon="7.463225">
        <ele>217.0</ele>
        <time>2020-07-11T08:23:19Z</time>
      </trkpt>
      <trkpt lat="48.747787" lon="7.463288">
        <ele>218.0</ele>
        <time>2020-07-11T08:23:21Z</time>
      </trkpt>
      <trkpt lat="48.747697" lon="7.463392">
        <ele>219.0</ele>
        <time>2020-07-11T08:23:23Z</time>
      </trkpt>
      <trkpt lat="48.747637" lon="7.463504">
        <ele>219.0</ele>
        <time>2020-07-11T08:23:25Z</time>
      </trkpt>
      <trkpt lat="48.747594" lon="7.463597">
        <ele>220.0</ele>
        <time>2020-07-11T08:23:27Z</time>
      </trkpt>
      <trkpt lat="48.747564" lon="7.46364">
        <ele>220.0</ele>
        <time>2020-07-11T08:23:29Z</time>
      </trkpt>
      <trkpt lat="48.747535" lon="7.463696">
        <ele>220.0</ele>
        <time>2020-07-11T08:23:31Z</time>
      </trkpt>
      <trkpt lat="48.747506" lon="7.463788">
        <ele>220.0</ele>
        <time>2020-07-11T08:23:33Z</time>
      </trkpt>
      <trkpt lat="48.747473" lon="7.463914">
        <ele>219.0</ele>
        <time>2020-07-11T08:23:35Z</time>
      </trkpt>
      <trkpt lat="48.747463" lon="7.464056">
        <ele>219.0</ele>
        <time>2020-07-11T08:23:37Z</time>
      </trkpt>
      <trkpt lat="48.747428" lon="7.464208">
        <ele>218.0</ele>
        <time>2020-07-11T08:23:39Z</time>
      </trkpt>
      <trkpt lat="48.747376" lon="7.464374">
        <ele>219.0</ele>
        <time>2020-07-11T08:23:41Z</time>
      </trkpt>
      <trkpt lat="48.747289" lon="7.464647">
        <ele>219.0</ele>
        <time>2020-07-11T08:23:44Z</time>
      </trkpt>
      <trkpt lat="48.747232" lon="7.46481">
        <ele>218.0</ele>
        <time>2020-07-11T08:23:46Z</time>
      </trkpt>
      <trkpt lat="48.747121" lon="7.46507">
        <ele>217.0</ele>
        <time>2020-07-11T08:23:49Z</time>
      </trkpt>
      <trkpt lat="48.747038" lon="7.465236">
        <ele>217.0</ele>
        <time>2020-07-11T08:23:51Z</time>
      </trkpt>
      <trkpt lat="48.746951" lon="7.465388">
        <ele>217.0</ele>
        <time>2020-07-11T08:23:53Z</time>
      </trkpt>
      <trkpt lat="48.746863" lon="7.46555">
        <ele>217.0</ele>
        <time>2020-07-11T08:23:55Z</time>
      </trkpt>
      <trkpt lat="48.746822" lon="7.465631">
        <ele>217.0</ele>
        <time>2020-07-11T08:23:56Z</time>
      </trkpt>
      <trkpt lat="48.74666" lon="7.465919">
        <ele>218.0</ele>
        <time>2020-07-11T08:24:00Z</time>
      </trkpt>
      <trkpt lat="48.746583" lon="7.466061">
        <ele>218.0</ele>
        <time>2020-07-11T08:24:02Z</time>
      </trkpt>
      <trkpt lat="48.746503" lon="7.466186">
        <ele>219.0</ele>
        <time>2020-07-11T08:24:04Z</time>
      </trkpt>
      <trkpt lat="48.746426" lon="7.466326">
        <ele>218.0</ele>
        <time>2020-07-11T08:24:06Z</time>
      </trkpt>
      <trkpt lat="48.746353" lon="7.466461">
        <ele>218.0</ele>
        <time>2020-07-11T08:24:08Z</time>
      </trkpt>
      <trkpt lat="48.746277" lon="7.466596">
        <ele>218.0</ele>
        <time>2020-07-11T08:24:10Z</time>
      </trkpt>
      <trkpt lat="48.746212" lon="7.466733">
        <ele>218.0</ele>
        <time>2020-07-11T08:24:12Z</time>
      </trkpt>
      <trkpt lat="48.746108" lon="7.466943">
        <ele>218.0</ele>
        <time>2020-07-11T08:24:15Z</time>
      </trkpt>
      <trkpt lat="48.746041" lon="7.467081">
        <ele>218.0</ele>
        <time>2020-07-11T08:24:17Z</time>
      </trkpt>
      <trkpt lat="48.74594" lon="7.467285">
        <ele>218.0</ele>
        <time>2020-07-11T08:24:20Z</time>
      </trkpt>
      <trkpt lat="48.745911" lon="7.467354">
        <ele>218.0</ele>
        <time>2020-07-11T08:24:21Z</time>
      </trkpt>
      <trkpt lat="48.745825" lon="7.46757">
        <ele>218.0</ele>
        <time>2020-07-11T08:24:24Z</time>
      </trkpt>
      <trkpt lat="48.745771" lon="7.46771">
        <ele>218.0</ele>
        <time>2020-07-11T08:24:26Z</time>
      </trkpt>
      <trkpt lat="48.745683" lon="7.467911">
        <ele>218.0</ele>
        <time>2020-07-11T08:24:29Z</time>
      </trkpt>
      <trkpt lat="48.745622" lon="7.468056">
        <ele>218.0</ele>
        <time>2020-07-11T08:24:31Z</time>
      </trkpt>
      <trkpt lat="48.74556" lon="7.468206">
        <ele>218.0</ele>
        <time>2020-07-11T08:24:33Z</time>
      </trkpt>
      <trkpt lat="48.74553" lon="7.468286">
        <ele>219.0</ele>
        <time>2020-07-11T08:24:34Z</time>
      </trkpt>
      <trkpt lat="48.745441" lon="7.468518">
        <ele>219.0</ele>
        <time>2020-07-11T08:24:37Z</time>
      </trkpt>
      <trkpt lat="48.745383" lon="7.468677">
        <ele>219.0</ele>
        <time>2020-07-11T08:24:39Z</time>
      </trkpt>
      <trkpt lat="48.745325" lon="7.468837">
        <ele>219.0</ele>
        <time>2020-07-11T08:24:41Z</time>
      </trkpt>
      <trkpt lat="48.745237" lon="7.469066">
        <ele>220.0</ele>
        <time>2020-07-11T08:24:44Z</time>
      </trkpt>
      <trkpt lat="48.745181" lon="7.469222">
        <ele>220.0</ele>
        <time>2020-07-11T08:24:46Z</time>
      </trkpt>
      <trkpt lat="48.745128" lon="7.469364">
        <ele>219.0</ele>
        <time>2020-07-11T08:24:48Z</time>
      </trkpt>
      <trkpt lat="48.745075" lon="7.469508">
        <ele>219.0</ele>
        <time>2020-07-11T08:24:50Z</time>
      </trkpt>
      <trkpt lat="48.745029" lon="7.469662">
        <ele>219.0</ele>
        <time>2020-07-11T08:24:52Z</time>
      </trkpt>
      <trkpt lat="48.744953" lon="7.46989">
        <ele>218.0</ele>
        <time>2020-07-11T08:24:55Z</time>
      </trkpt>
      <trkpt lat="48.744905" lon="7.470034">
        <ele>218.0</ele>
        <time>2020-07-11T08:24:57Z</time>
      </trkpt>
      <trkpt lat="48.744852" lon="7.470174">
        <ele>218.0</ele>
        <time>2020-07-11T08:24:59Z</time>
      </trkpt>
      <trkpt lat="48.744806" lon="7.47032">
        <ele>218.0</ele>
        <time>2020-07-11T08:25:01Z</time>
      </trkpt>
      <trkpt lat="48.744766" lon="7.47047">
        <ele>218.0</ele>
        <time>2020-07-11T08:25:03Z</time>
      </trkpt>
      <trkpt lat="48.744748" lon="7.470544">
        <ele>218.0</ele>
        <time>2020-07-11T08:25:04Z</time>
      </trkpt>
      <trkpt lat="48.744691" lon="7.470768">
        <ele>218.0</ele>
        <time>2020-07-11T08:25:07Z</time>
      </trkpt>
      <trkpt lat="48.744651" lon="7.470944">
        <ele>218.0</ele>
        <time>2020-07-11T08:25:09Z</time>
      </trkpt>
      <trkpt lat="48.744602" lon="7.471102">
        <ele>218.0</ele>
        <time>2020-07-11T08:25:11Z</time>
      </trkpt>
      <trkpt lat="48.744551" lon="7.471254">
        <ele>219.0</ele>
        <time>2020-07-11T08:25:13Z</time>
      </trkpt>
      <trkpt lat="48.744513" lon="7.471411">
        <ele>220.0</ele>
        <time>2020-07-11T08:25:15Z</time>
      </trkpt>
      <trkpt lat="48.744466" lon="7.471572">
        <ele>220.0</ele>
        <time>2020-07-11T08:25:17Z</time>
      </trkpt>
      <trkpt lat="48.744424" lon="7.47173">
        <ele>219.0</ele>
        <time>2020-07-11T08:25:19Z</time>
      </trkpt>
      <trkpt lat="48.74438" lon="7.471884">
        <ele>220.0</ele>
        <time>2020-07-11T08:25:21Z</time>
      </trkpt>
      <trkpt lat="48.744331" lon="7.472044">
        <ele>219.0</ele>
        <time>2020-07-11T08:25:23Z</time>
      </trkpt>
      <trkpt lat="48.74428" lon="7.472204">
        <ele>218.0</ele>
        <time>2020-07-11T08:25:25Z</time>
      </trkpt>
      <trkpt lat="48.744227" lon="7.472376">
        <ele>218.0</ele>
        <time>2020-07-11T08:25:27Z</time>
      </trkpt>
      <trkpt lat="48.744151" lon="7.472635">
        <ele>218.0</ele>
        <time>2020-07-11T08:25:30Z</time>
      </trkpt>
      <trkpt lat="48.744099" lon="7.472799">
        <ele>218.0</ele>
        <time>2020-07-11T08:25:32Z</time>
      </trkpt>
      <trkpt lat="48.744044" lon="7.472961">
        <ele>218.0</ele>
        <time>2020-07-11T08:25:34Z</time>
      </trkpt>
      <trkpt lat="48.743995" lon="7.473128">
        <ele>218.0</ele>
        <time>2020-07-11T08:25:36Z</time>
      </trkpt>
      <trkpt lat="48.743972" lon="7.473208">
        <ele>219.0</ele>
        <time>2020-07-11T08:25:37Z</time>
      </trkpt>
      <trkpt lat="48.743899" lon="7.473446">
        <ele>218.0</ele>
        <time>2020-07-11T08:25:40Z</time>
      </trkpt>
      <trkpt lat="48.74385" lon="7.473599">
        <ele>218.0</ele>
        <time>2020-07-11T08:25:42Z</time>
      </trkpt>
      <trkpt lat="48.7438" lon="7.473754">
        <ele>219.0</ele>
        <time>2020-07-11T08:25:44Z</time>
      </trkpt>
      <trkpt lat="48.743722" lon="7.473996">
        <ele>219.0</ele>
        <time>2020-07-11T08:25:47Z</time>
      </trkpt>
      <trkpt lat="48.743673" lon="7.474149">
        <ele>219.0</ele>
        <time>2020-07-11T08:25:49Z</time>
      </trkpt>
      <trkpt lat="48.743625" lon="7.474315">
        <ele>219.0</ele>
        <time>2020-07-11T08:25:51Z</time>
      </trkpt>
      <trkpt lat="48.743543" lon="7.474549">
        <ele>219.0</ele>
        <time>2020-07-11T08:25:54Z</time>
      </trkpt>
      <trkpt lat="48.74352" lon="7.474623">
        <ele>219.0</ele>
        <time>2020-07-11T08:25:55Z</time>
      </trkpt>
      <trkpt lat="48.74345" lon="7.474894">
        <ele>218.0</ele>
        <time>2020-07-11T08:25:58Z</time>
      </trkpt>
      <trkpt lat="48.743357" lon="7.47523">
        <ele>216.0</ele>
        <time>2020-07-11T08:26:01Z</time>
      </trkpt>
      <trkpt lat="48.743293" lon="7.475446">
        <ele>217.0</ele>
        <time>2020-07-11T08:26:03Z</time>
      </trkpt>
      <trkpt lat="48.743229" lon="7.475659">
        <ele>217.0</ele>
        <time>2020-07-11T08:26:05Z</time>
      </trkpt>
      <trkpt lat="48.743165" lon="7.475858">
        <ele>217.0</ele>
        <time>2020-07-11T08:26:07Z</time>
      </trkpt>
      <trkpt lat="48.743081" lon="7.476143">
        <ele>217.0</ele>
        <time>2020-07-11T08:26:10Z</time>
      </trkpt>
      <trkpt lat="48.743021" lon="7.476332">
        <ele>217.0</ele>
        <time>2020-07-11T08:26:12Z</time>
      </trkpt>
      <trkpt lat="48.742964" lon="7.476523">
        <ele>217.0</ele>
        <time>2020-07-11T08:26:14Z</time>
      </trkpt>
      <trkpt lat="48.742907" lon="7.47671">
        <ele>217.0</ele>
        <time>2020-07-11T08:26:16Z</time>
      </trkpt>
      <trkpt lat="48.742854" lon="7.476905">
        <ele>218.0</ele>
        <time>2020-07-11T08:26:18Z</time>
      </trkpt>
      <trkpt lat="48.7428" lon="7.477091">
        <ele>218.0</ele>
        <time>2020-07-11T08:26:20Z</time>
      </trkpt>
      <trkpt lat="48.742741" lon="7.477282">
        <ele>217.0</ele>
        <time>2020-07-11T08:26:22Z</time>
      </trkpt>
      <trkpt lat="48.742685" lon="7.477474">
        <ele>217.0</ele>
        <time>2020-07-11T08:26:24Z</time>
      </trkpt>
      <trkpt lat="48.742602" lon="7.477762">
        <ele>217.0</ele>
        <time>2020-07-11T08:26:27Z</time>
      </trkpt>
      <trkpt lat="48.74254" lon="7.47794">
        <ele>217.0</ele>
        <time>2020-07-11T08:26:29Z</time>
      </trkpt>
      <trkpt lat="48.742471" lon="7.478117">
        <ele>218.0</ele>
        <time>2020-07-11T08:26:31Z</time>
      </trkpt>
      <trkpt lat="48.742399" lon="7.47828">
        <ele>218.0</ele>
        <time>2020-07-11T08:26:33Z</time>
      </trkpt>
      <trkpt lat="48.742332" lon="7.478433">
        <ele>218.0</ele>
        <time>2020-07-11T08:26:35Z</time>
      </trkpt>
      <trkpt lat="48.742277" lon="7.478577">
        <ele>218.0</ele>
        <time>2020-07-11T08:26:37Z</time>
      </trkpt>
      <trkpt lat="48.742211" lon="7.478763">
        <ele>219.0</ele>
        <time>2020-07-11T08:26:40Z</time>
      </trkpt>
      <trkpt lat="48.742195" lon="7.478877">
        <ele>219.0</ele>
        <time>2020-07-11T08:26:42Z</time>
      </trkpt>
      <trkpt lat="48.742155" lon="7.479047">
        <ele>219.0</ele>
        <time>2020-07-11T08:26:44Z</time>
      </trkpt>
      <trkpt lat="48.742093" lon="7.47934">
        <ele>219.0</ele>
        <time>2020-07-11T08:26:47Z</time>
      </trkpt>
      <trkpt lat="48.742069" lon="7.479444">
        <ele>219.0</ele>
        <time>2020-07-11T08:26:48Z</time>
      </trkpt>
      <trkpt lat="48.741972" lon="7.479845">
        <ele>218.0</ele>
        <time>2020-07-11T08:26:52Z</time>
      </trkpt>
      <trkpt lat="48.741923" lon="7.480044">
        <ele>217.0</ele>
        <time>2020-07-11T08:26:54Z</time>
      </trkpt>
      <trkpt lat="48.741855" lon="7.480339">
        <ele>217.0</ele>
        <time>2020-07-11T08:26:57Z</time>
      </trkpt>
      <trkpt lat="48.741833" lon="7.480438">
        <ele>217.0</ele>
        <time>2020-07-11T08:26:58Z</time>
      </trkpt>
      <trkpt lat="48.741774" lon="7.480732">
        <ele>217.0</ele>
        <time>2020-07-11T08:27:01Z</time>
      </trkpt>
      <trkpt lat="48.741739" lon="7.480922">
        <ele>216.0</ele>
        <time>2020-07-11T08:27:03Z</time>
      </trkpt>
      <trkpt lat="48.741712" lon="7.481118">
        <ele>216.0</ele>
        <time>2020-07-11T08:27:05Z</time>
      </trkpt>
      <trkpt lat="48.741692" lon="7.48131">
        <ele>216.0</ele>
        <time>2020-07-11T08:27:07Z</time>
      </trkpt>
      <trkpt lat="48.741672" lon="7.481607">
        <ele>216.0</ele>
        <time>2020-07-11T08:27:10Z</time>
      </trkpt>
      <trkpt lat="48.741669" lon="7.4818">
        <ele>215.0</ele>
        <time>2020-07-11T08:27:12Z</time>
      </trkpt>
      <trkpt lat="48.741665" lon="7.481991">
        <ele>215.0</ele>
        <time>2020-07-11T08:27:14Z</time>
      </trkpt>
      <trkpt lat="48.741657" lon="7.48219">
        <ele>216.0</ele>
        <time>2020-07-11T08:27:16Z</time>
      </trkpt>
      <trkpt lat="48.741658" lon="7.482375">
        <ele>215.0</ele>
        <time>2020-07-11T08:27:18Z</time>
      </trkpt>
      <trkpt lat="48.741665" lon="7.482575">
        <ele>215.0</ele>
        <time>2020-07-11T08:27:20Z</time>
      </trkpt>
      <trkpt lat="48.741668" lon="7.48267">
        <ele>215.0</ele>
        <time>2020-07-11T08:27:21Z</time>
      </trkpt>
      <trkpt lat="48.741674" lon="7.48306">
        <ele>215.0</ele>
        <time>2020-07-11T08:27:25Z</time>
      </trkpt>
      <trkpt lat="48.741673" lon="7.483252">
        <ele>215.0</ele>
        <time>2020-07-11T08:27:27Z</time>
      </trkpt>
      <trkpt lat="48.741684" lon="7.483446">
        <ele>215.0</ele>
        <time>2020-07-11T08:27:29Z</time>
      </trkpt>
      <trkpt lat="48.74168" lon="7.483736">
        <ele>216.0</ele>
        <time>2020-07-11T08:27:32Z</time>
      </trkpt>
      <trkpt lat="48.741674" lon="7.483943">
        <ele>216.0</ele>
        <time>2020-07-11T08:27:34Z</time>
      </trkpt>
      <trkpt lat="48.741676" lon="7.484143">
        <ele>216.0</ele>
        <time>2020-07-11T08:27:36Z</time>
      </trkpt>
      <trkpt lat="48.741675" lon="7.484438">
        <ele>216.0</ele>
        <time>2020-07-11T08:27:39Z</time>
      </trkpt>
      <trkpt lat="48.741673" lon="7.484528">
        <ele>216.0</ele>
        <time>2020-07-11T08:27:40Z</time>
      </trkpt>
      <trkpt lat="48.741687" lon="7.4849">
        <ele>216.0</ele>
        <time>2020-07-11T08:27:44Z</time>
      </trkpt>
      <trkpt lat="48.741689" lon="7.484996">
        <ele>216.0</ele>
        <time>2020-07-11T08:27:45Z</time>
      </trkpt>
      <trkpt lat="48.741697" lon="7.485292">
        <ele>217.0</ele>
        <time>2020-07-11T08:27:48Z</time>
      </trkpt>
      <trkpt lat="48.74171" lon="7.485489">
        <ele>217.0</ele>
        <time>2020-07-11T08:27:50Z</time>
      </trkpt>
      <trkpt lat="48.741709" lon="7.485685">
        <ele>217.0</ele>
        <time>2020-07-11T08:27:52Z</time>
      </trkpt>
      <trkpt lat="48.7417" lon="7.485885">
        <ele>216.0</ele>
        <time>2020-07-11T08:27:54Z</time>
      </trkpt>
      <trkpt lat="48.741681" lon="7.486195">
        <ele>215.0</ele>
        <time>2020-07-11T08:27:57Z</time>
      </trkpt>
      <trkpt lat="48.741679" lon="7.486427">
        <ele>214.0</ele>
        <time>2020-07-11T08:27:59Z</time>
      </trkpt>
      <trkpt lat="48.741687" lon="7.486666">
        <ele>214.0</ele>
        <time>2020-07-11T08:28:01Z</time>
      </trkpt>
      <trkpt lat="48.74169" lon="7.486885">
        <ele>214.0</ele>
        <time>2020-07-11T08:28:03Z</time>
      </trkpt>
      <trkpt lat="48.741696" lon="7.487099">
        <ele>214.0</ele>
        <time>2020-07-11T08:28:05Z</time>
      </trkpt>
      <trkpt lat="48.741688" lon="7.487314">
        <ele>214.0</ele>
        <time>2020-07-11T08:28:07Z</time>
      </trkpt>
      <trkpt lat="48.741687" lon="7.487512">
        <ele>214.0</ele>
        <time>2020-07-11T08:28:09Z</time>
      </trkpt>
      <trkpt lat="48.74169" lon="7.48771">
        <ele>213.0</ele>
        <time>2020-07-11T08:28:11Z</time>
      </trkpt>
      <trkpt lat="48.741691" lon="7.487906">
        <ele>213.0</ele>
        <time>2020-07-11T08:28:13Z</time>
      </trkpt>
      <trkpt lat="48.741691" lon="7.488183">
        <ele>214.0</ele>
        <time>2020-07-11T08:28:16Z</time>
      </trkpt>
      <trkpt lat="48.741696" lon="7.488368">
        <ele>214.0</ele>
        <time>2020-07-11T08:28:18Z</time>
      </trkpt>
      <trkpt lat="48.741703" lon="7.488647">
        <ele>214.0</ele>
        <time>2020-07-11T08:28:21Z</time>
      </trkpt>
      <trkpt lat="48.741708" lon="7.488915">
        <ele>213.0</ele>
        <time>2020-07-11T08:28:24Z</time>
      </trkpt>
      <trkpt lat="48.741705" lon="7.489086">
        <ele>213.0</ele>
        <time>2020-07-11T08:28:26Z</time>
      </trkpt>
      <trkpt lat="48.741708" lon="7.489255">
        <ele>213.0</ele>
        <time>2020-07-11T08:28:28Z</time>
      </trkpt>
      <trkpt lat="48.74171" lon="7.489429">
        <ele>213.0</ele>
        <time>2020-07-11T08:28:30Z</time>
      </trkpt>
      <trkpt lat="48.741705" lon="7.489592">
        <ele>214.0</ele>
        <time>2020-07-11T08:28:32Z</time>
      </trkpt>
      <trkpt lat="48.741694" lon="7.489749">
        <ele>214.0</ele>
        <time>2020-07-11T08:28:34Z</time>
      </trkpt>
      <trkpt lat="48.741691" lon="7.489889">
        <ele>214.0</ele>
        <time>2020-07-11T08:28:36Z</time>
      </trkpt>
      <trkpt lat="48.741685" lon="7.490017">
        <ele>215.0</ele>
        <time>2020-07-11T08:28:38Z</time>
      </trkpt>
      <trkpt lat="48.741678" lon="7.49013">
        <ele>215.0</ele>
        <time>2020-07-11T08:28:40Z</time>
      </trkpt>
      <trkpt lat="48.741688" lon="7.490219">
        <ele>215.0</ele>
        <time>2020-07-11T08:28:42Z</time>
      </trkpt>
      <trkpt lat="48.741739" lon="7.490267">
        <ele>215.0</ele>
        <time>2020-07-11T08:28:44Z</time>
      </trkpt>
      <trkpt lat="48.741794" lon="7.490276">
        <ele>216.0</ele>
        <time>2020-07-11T08:28:46Z</time>
      </trkpt>
      <trkpt lat="48.741847" lon="7.490277">
        <ele>216.0</ele>
        <time>2020-07-11T08:28:49Z</time>
      </trkpt>
      <trkpt lat="48.741851" lon="7.49027">
        <ele>217.0</ele>
        <time>2020-07-11T08:28:50Z</time>
      </trkpt>
      <trkpt lat="48.741841" lon="7.490244">
        <ele>217.0</ele>
        <time>2020-07-11T08:28:53Z</time>
      </trkpt>
      <trkpt lat="48.741842" lon="7.490247">
        <ele>217.0</ele>
        <time>2020-07-11T08:28:55Z</time>
      </trkpt>
      <trkpt lat="48.741842" lon="7.490247">
        <ele>217.0</ele>
        <time>2020-07-11T08:28:57Z</time>
      </trkpt>
      <trkpt lat="48.741845" lon="7.49025">
        <ele>217.0</ele>
        <time>2020-07-11T08:32:35Z</time>
      </trkpt>
      <trkpt lat="48.741845" lon="7.49025">
        <ele>217.0</ele>
        <time>2020-07-11T08:32:37Z</time>
      </trkpt>
      <trkpt lat="48.741845" lon="7.49025">
        <ele>217.0</ele>
        <time>2020-07-11T08:32:39Z</time>
      </trkpt>
      <trkpt lat="48.741845" lon="7.49025">
        <ele>217.0</ele>
        <time>2020-07-11T08:32:41Z</time>
      </trkpt>
      <trkpt lat="48.741845" lon="7.49025">
        <ele>217.0</ele>
        <time>2020-07-11T08:32:43Z</time>
      </trkpt>
      <trkpt lat="48.741845" lon="7.49025">
        <ele>217.0</ele>
        <time>2020-07-11T08:32:45Z</time>
      </trkpt>
      <trkpt lat="48.741845" lon="7.49025">
        <ele>217.0</ele>
        <time>2020-07-11T08:32:47Z</time>
      </trkpt>
      <trkpt lat="48.741845" lon="7.49025">
        <ele>217.0</ele>
        <time>2020-07-11T08:32:50Z</time>
      </trkpt>
      <trkpt lat="48.741845" lon="7.49025">
        <ele>217.0</ele>
        <time>2020-07-11T08:32:52Z</time>
      </trkpt>
      <trkpt lat="48.741845" lon="7.49025">
        <ele>217.0</ele>
        <time>2020-07-11T08:32:54Z</time>
      </trkpt>
      <trkpt lat="48.741845" lon="7.49025">
        <ele>217.0</ele>
        <time>2020-07-11T08:32:56Z</time>
      </trkpt>
      <trkpt lat="48.741849" lon="7.490227">
        <ele>217.0</ele>
        <time>2020-07-11T08:32:58Z</time>
      </trkpt>
      <trkpt lat="48.74182" lon="7.490224">
        <ele>218.0</ele>
        <time>2020-07-11T08:33:00Z</time>
      </trkpt>
      <trkpt lat="48.741785" lon="7.49024">
        <ele>218.0</ele>
        <time>2020-07-11T08:33:02Z</time>
      </trkpt>
      <trkpt lat="48.741725" lon="7.490215">
        <ele>218.0</ele>
        <time>2020-07-11T08:33:04Z</time>
      </trkpt>
      <trkpt lat="48.741674" lon="7.49025">
        <ele>217.0</ele>
        <time>2020-07-11T08:33:06Z</time>
      </trkpt>
      <trkpt lat="48.741681" lon="7.490388">
        <ele>217.0</ele>
        <time>2020-07-11T08:33:08Z</time>
      </trkpt>
      <trkpt lat="48.741691" lon="7.490539">
        <ele>216.0</ele>
        <time>2020-07-11T08:33:10Z</time>
      </trkpt>
      <trkpt lat="48.741707" lon="7.49073">
        <ele>216.0</ele>
        <time>2020-07-11T08:33:12Z</time>
      </trkpt>
      <trkpt lat="48.741725" lon="7.490935">
        <ele>217.0</ele>
        <time>2020-07-11T08:33:14Z</time>
      </trkpt>
      <trkpt lat="48.741736" lon="7.491147">
        <ele>217.0</ele>
        <time>2020-07-11T08:33:16Z</time>
      </trkpt>
      <trkpt lat="48.741735" lon="7.49136">
        <ele>217.0</ele>
        <time>2020-07-11T08:33:18Z</time>
      </trkpt>
      <trkpt lat="48.741745" lon="7.491568">
        <ele>217.0</ele>
        <time>2020-07-11T08:33:20Z</time>
      </trkpt>
      <trkpt lat="48.741745" lon="7.491768">
        <ele>216.0</ele>
        <time>2020-07-11T08:33:22Z</time>
      </trkpt>
      <trkpt lat="48.741748" lon="7.491974">
        <ele>217.0</ele>
        <time>2020-07-11T08:33:24Z</time>
      </trkpt>
      <trkpt lat="48.741751" lon="7.49218">
        <ele>217.0</ele>
        <time>2020-07-11T08:33:26Z</time>
      </trkpt>
      <trkpt lat="48.741754" lon="7.492377">
        <ele>217.0</ele>
        <time>2020-07-11T08:33:28Z</time>
      </trkpt>
      <trkpt lat="48.741761" lon="7.49258">
        <ele>217.0</ele>
        <time>2020-07-11T08:33:30Z</time>
      </trkpt>
      <trkpt lat="48.741757" lon="7.492774">
        <ele>216.0</ele>
        <time>2020-07-11T08:33:32Z</time>
      </trkpt>
      <trkpt lat="48.741757" lon="7.492973">
        <ele>216.0</ele>
        <time>2020-07-11T08:33:34Z</time>
      </trkpt>
      <trkpt lat="48.741755" lon="7.493164">
        <ele>216.0</ele>
        <time>2020-07-11T08:33:36Z</time>
      </trkpt>
      <trkpt lat="48.741757" lon="7.493357">
        <ele>216.0</ele>
        <time>2020-07-11T08:33:38Z</time>
      </trkpt>
      <trkpt lat="48.741755" lon="7.493561">
        <ele>217.0</ele>
        <time>2020-07-11T08:33:40Z</time>
      </trkpt>
      <trkpt lat="48.741752" lon="7.493752">
        <ele>216.0</ele>
        <time>2020-07-11T08:33:42Z</time>
      </trkpt>
      <trkpt lat="48.741748" lon="7.493853">
        <ele>216.0</ele>
        <time>2020-07-11T08:33:43Z</time>
      </trkpt>
      <trkpt lat="48.74174" lon="7.494245">
        <ele>216.0</ele>
        <time>2020-07-11T08:33:47Z</time>
      </trkpt>
      <trkpt lat="48.741732" lon="7.494432">
        <ele>216.0</ele>
        <time>2020-07-11T08:33:49Z</time>
      </trkpt>
      <trkpt lat="48.741724" lon="7.494612">
        <ele>216.0</ele>
        <time>2020-07-11T08:33:51Z</time>
      </trkpt>
      <trkpt lat="48.741713" lon="7.494888">
        <ele>216.0</ele>
        <time>2020-07-11T08:33:54Z</time>
      </trkpt>
      <trkpt lat="48.741703" lon="7.495065">
        <ele>216.0</ele>
        <time>2020-07-11T08:33:56Z</time>
      </trkpt>
      <trkpt lat="48.7417" lon="7.495247">
        <ele>216.0</ele>
        <time>2020-07-11T08:33:58Z</time>
      </trkpt>
      <trkpt lat="48.741691" lon="7.495595">
        <ele>216.0</ele>
        <time>2020-07-11T08:34:02Z</time>
      </trkpt>
      <trkpt lat="48.741685" lon="7.495682">
        <ele>215.0</ele>
        <time>2020-07-11T08:34:03Z</time>
      </trkpt>
      <trkpt lat="48.741667" lon="7.495939">
        <ele>214.0</ele>
        <time>2020-07-11T08:34:06Z</time>
      </trkpt>
      <trkpt lat="48.741668" lon="7.496115">
        <ele>214.0</ele>
        <time>2020-07-11T08:34:08Z</time>
      </trkpt>
      <trkpt lat="48.741662" lon="7.496288">
        <ele>214.0</ele>
        <time>2020-07-11T08:34:10Z</time>
      </trkpt>
      <trkpt lat="48.741657" lon="7.496463">
        <ele>214.0</ele>
        <time>2020-07-11T08:34:12Z</time>
      </trkpt>
      <trkpt lat="48.74165" lon="7.496634">
        <ele>214.0</ele>
        <time>2020-07-11T08:34:14Z</time>
      </trkpt>
      <trkpt lat="48.741644" lon="7.496806">
        <ele>213.0</ele>
        <time>2020-07-11T08:34:16Z</time>
      </trkpt>
      <trkpt lat="48.741641" lon="7.496984">
        <ele>213.0</ele>
        <time>2020-07-11T08:34:18Z</time>
      </trkpt>
      <trkpt lat="48.74163" lon="7.497244">
        <ele>213.0</ele>
        <time>2020-07-11T08:34:21Z</time>
      </trkpt>
      <trkpt lat="48.741621" lon="7.49751">
        <ele>214.0</ele>
        <time>2020-07-11T08:34:24Z</time>
      </trkpt>
      <trkpt lat="48.741612" lon="7.497691">
        <ele>214.0</ele>
        <time>2020-07-11T08:34:26Z</time>
      </trkpt>
      <trkpt lat="48.741609" lon="7.49787">
        <ele>213.0</ele>
        <time>2020-07-11T08:34:28Z</time>
      </trkpt>
      <trkpt lat="48.741605" lon="7.498043">
        <ele>214.0</ele>
        <time>2020-07-11T08:34:30Z</time>
      </trkpt>
      <trkpt lat="48.741603" lon="7.498217">
        <ele>214.0</ele>
        <time>2020-07-11T08:34:32Z</time>
      </trkpt>
      <trkpt lat="48.741597" lon="7.498466">
        <ele>213.0</ele>
        <time>2020-07-11T08:34:35Z</time>
      </trkpt>
      <trkpt lat="48.7416" lon="7.498633">
        <ele>214.0</ele>
        <time>2020-07-11T08:34:37Z</time>
      </trkpt>
      <trkpt lat="48.7416" lon="7.498715">
        <ele>214.0</ele>
        <time>2020-07-11T08:34:38Z</time>
      </trkpt>
      <trkpt lat="48.741614" lon="7.499045">
        <ele>214.0</ele>
        <time>2020-07-11T08:34:42Z</time>
      </trkpt>
      <trkpt lat="48.741624" lon="7.499206">
        <ele>214.0</ele>
        <time>2020-07-11T08:34:44Z</time>
      </trkpt>
      <trkpt lat="48.741633" lon="7.499362">
        <ele>214.0</ele>
        <time>2020-07-11T08:34:46Z</time>
      </trkpt>
      <trkpt lat="48.741638" lon="7.499528">
        <ele>214.0</ele>
        <time>2020-07-11T08:34:48Z</time>
      </trkpt>
      <trkpt lat="48.741652" lon="7.499778">
        <ele>213.0</ele>
        <time>2020-07-11T08:34:51Z</time>
      </trkpt>
      <trkpt lat="48.741663" lon="7.49995">
        <ele>213.0</ele>
        <time>2020-07-11T08:34:53Z</time>
      </trkpt>
      <trkpt lat="48.741683" lon="7.500119">
        <ele>212.0</ele>
        <time>2020-07-11T08:34:55Z</time>
      </trkpt>
      <trkpt lat="48.741674" lon="7.500282">
        <ele>212.0</ele>
        <time>2020-07-11T08:34:57Z</time>
      </trkpt>
      <trkpt lat="48.741705" lon="7.500454">
        <ele>212.0</ele>
        <time>2020-07-11T08:34:59Z</time>
      </trkpt>
      <trkpt lat="48.741762" lon="7.500589">
        <ele>212.0</ele>
        <time>2020-07-11T08:35:01Z</time>
      </trkpt>
      <trkpt lat="48.741823" lon="7.500748">
        <ele>213.0</ele>
        <time>2020-07-11T08:35:03Z</time>
      </trkpt>
      <trkpt lat="48.741867" lon="7.50092">
        <ele>213.0</ele>
        <time>2020-07-11T08:35:05Z</time>
      </trkpt>
      <trkpt lat="48.741912" lon="7.50109">
        <ele>214.0</ele>
        <time>2020-07-11T08:35:07Z</time>
      </trkpt>
      <trkpt lat="48.741948" lon="7.501256">
        <ele>214.0</ele>
        <time>2020-07-11T08:35:09Z</time>
      </trkpt>
      <trkpt lat="48.741982" lon="7.501432">
        <ele>214.0</ele>
        <time>2020-07-11T08:35:11Z</time>
      </trkpt>
      <trkpt lat="48.742014" lon="7.501602">
        <ele>213.0</ele>
        <time>2020-07-11T08:35:13Z</time>
      </trkpt>
      <trkpt lat="48.742049" lon="7.501773">
        <ele>213.0</ele>
        <time>2020-07-11T08:35:15Z</time>
      </trkpt>
      <trkpt lat="48.742088" lon="7.501936">
        <ele>213.0</ele>
        <time>2020-07-11T08:35:17Z</time>
      </trkpt>
      <trkpt lat="48.742138" lon="7.502201">
        <ele>213.0</ele>
        <time>2020-07-11T08:35:20Z</time>
      </trkpt>
      <trkpt lat="48.742167" lon="7.502369">
        <ele>212.0</ele>
        <time>2020-07-11T08:35:22Z</time>
      </trkpt>
      <trkpt lat="48.742202" lon="7.502614">
        <ele>211.0</ele>
        <time>2020-07-11T08:35:25Z</time>
      </trkpt>
      <trkpt lat="48.742222" lon="7.502774">
        <ele>211.0</ele>
        <time>2020-07-11T08:35:27Z</time>
      </trkpt>
      <trkpt lat="48.742259" lon="7.503022">
        <ele>211.0</ele>
        <time>2020-07-11T08:35:30Z</time>
      </trkpt>
      <trkpt lat="48.742281" lon="7.503191">
        <ele>210.0</ele>
        <time>2020-07-11T08:35:32Z</time>
      </trkpt>
      <trkpt lat="48.742301" lon="7.503359">
        <ele>211.0</ele>
        <time>2020-07-11T08:35:34Z</time>
      </trkpt>
      <trkpt lat="48.742321" lon="7.503522">
        <ele>211.0</ele>
        <time>2020-07-11T08:35:36Z</time>
      </trkpt>
      <trkpt lat="48.742341" lon="7.503687">
        <ele>211.0</ele>
        <time>2020-07-11T08:35:38Z</time>
      </trkpt>
      <trkpt lat="48.742363" lon="7.503849">
        <ele>210.0</ele>
        <time>2020-07-11T08:35:40Z</time>
      </trkpt>
      <trkpt lat="48.742381" lon="7.504017">
        <ele>210.0</ele>
        <time>2020-07-11T08:35:42Z</time>
      </trkpt>
      <trkpt lat="48.742411" lon="7.504273">
        <ele>211.0</ele>
        <time>2020-07-11T08:35:45Z</time>
      </trkpt>
      <trkpt lat="48.742421" lon="7.504455">
        <ele>211.0</ele>
        <time>2020-07-11T08:35:47Z</time>
      </trkpt>
      <trkpt lat="48.742428" lon="7.504634">
        <ele>211.0</ele>
        <time>2020-07-11T08:35:49Z</time>
      </trkpt>
      <trkpt lat="48.742432" lon="7.504806">
        <ele>211.0</ele>
        <time>2020-07-11T08:35:51Z</time>
      </trkpt>
      <trkpt lat="48.742437" lon="7.504984">
        <ele>212.0</ele>
        <time>2020-07-11T08:35:53Z</time>
      </trkpt>
      <trkpt lat="48.742443" lon="7.505162">
        <ele>212.0</ele>
        <time>2020-07-11T08:35:55Z</time>
      </trkpt>
      <trkpt lat="48.742448" lon="7.505431">
        <ele>211.0</ele>
        <time>2020-07-11T08:35:58Z</time>
      </trkpt>
      <trkpt lat="48.74245" lon="7.505611">
        <ele>212.0</ele>
        <time>2020-07-11T08:36:00Z</time>
      </trkpt>
      <trkpt lat="48.742447" lon="7.505706">
        <ele>212.0</ele>
        <time>2020-07-11T08:36:01Z</time>
      </trkpt>
      <trkpt lat="48.742435" lon="7.506068">
        <ele>213.0</ele>
        <time>2020-07-11T08:36:05Z</time>
      </trkpt>
      <trkpt lat="48.742427" lon="7.506231">
        <ele>213.0</ele>
        <time>2020-07-11T08:36:07Z</time>
      </trkpt>
      <trkpt lat="48.742419" lon="7.506397">
        <ele>213.0</ele>
        <time>2020-07-11T08:36:09Z</time>
      </trkpt>
      <trkpt lat="48.74241" lon="7.506561">
        <ele>213.0</ele>
        <time>2020-07-11T08:36:11Z</time>
      </trkpt>
      <trkpt lat="48.742394" lon="7.506737">
        <ele>213.0</ele>
        <time>2020-07-11T08:36:13Z</time>
      </trkpt>
      <trkpt lat="48.742382" lon="7.506922">
        <ele>213.0</ele>
        <time>2020-07-11T08:36:15Z</time>
      </trkpt>
      <trkpt lat="48.742358" lon="7.507177">
        <ele>214.0</ele>
        <time>2020-07-11T08:36:18Z</time>
      </trkpt>
      <trkpt lat="48.742336" lon="7.507339">
        <ele>214.0</ele>
        <time>2020-07-11T08:36:20Z</time>
      </trkpt>
      <trkpt lat="48.742319" lon="7.507483">
        <ele>214.0</ele>
        <time>2020-07-11T08:36:22Z</time>
      </trkpt>
      <trkpt lat="48.742309" lon="7.507623">
        <ele>214.0</ele>
        <time>2020-07-11T08:36:24Z</time>
      </trkpt>
      <trkpt lat="48.742294" lon="7.507762">
        <ele>215.0</ele>
        <time>2020-07-11T08:36:26Z</time>
      </trkpt>
      <trkpt lat="48.742265" lon="7.507883">
        <ele>215.0</ele>
        <time>2020-07-11T08:36:28Z</time>
      </trkpt>
      <trkpt lat="48.742236" lon="7.508051">
        <ele>215.0</ele>
        <time>2020-07-11T08:36:31Z</time>
      </trkpt>
      <trkpt lat="48.742229" lon="7.508218">
        <ele>215.0</ele>
        <time>2020-07-11T08:36:33Z</time>
      </trkpt>
      <trkpt lat="48.742214" lon="7.508412">
        <ele>214.0</ele>
        <time>2020-07-11T08:36:35Z</time>
      </trkpt>
      <trkpt lat="48.742193" lon="7.508637">
        <ele>214.0</ele>
        <time>2020-07-11T08:36:37Z</time>
      </trkpt>
      <trkpt lat="48.742164" lon="7.508871">
        <ele>213.0</ele>
        <time>2020-07-11T08:36:39Z</time>
      </trkpt>
      <trkpt lat="48.742139" lon="7.509093">
        <ele>213.0</ele>
        <time>2020-07-11T08:36:41Z</time>
      </trkpt>
      <trkpt lat="48.742117" lon="7.509299">
        <ele>212.0</ele>
        <time>2020-07-11T08:36:43Z</time>
      </trkpt>
      <trkpt lat="48.742091" lon="7.5095">
        <ele>212.0</ele>
        <time>2020-07-11T08:36:45Z</time>
      </trkpt>
      <trkpt lat="48.742055" lon="7.509795">
        <ele>212.0</ele>
        <time>2020-07-11T08:36:48Z</time>
      </trkpt>
      <trkpt lat="48.742026" lon="7.509986">
        <ele>211.0</ele>
        <time>2020-07-11T08:36:50Z</time>
      </trkpt>
      <trkpt lat="48.742007" lon="7.510171">
        <ele>211.0</ele>
        <time>2020-07-11T08:36:52Z</time>
      </trkpt>
      <trkpt lat="48.741996" lon="7.510259">
        <ele>210.0</ele>
        <time>2020-07-11T08:36:53Z</time>
      </trkpt>
      <trkpt lat="48.741959" lon="7.510528">
        <ele>211.0</ele>
        <time>2020-07-11T08:36:56Z</time>
      </trkpt>
      <trkpt lat="48.741926" lon="7.510801">
        <ele>210.0</ele>
        <time>2020-07-11T08:36:59Z</time>
      </trkpt>
      <trkpt lat="48.741909" lon="7.510979">
        <ele>211.0</ele>
        <time>2020-07-11T08:37:01Z</time>
      </trkpt>
      <trkpt lat="48.741877" lon="7.511262">
        <ele>210.0</ele>
        <time>2020-07-11T08:37:04Z</time>
      </trkpt>
      <trkpt lat="48.741869" lon="7.511352">
        <ele>210.0</ele>
        <time>2020-07-11T08:37:05Z</time>
      </trkpt>
      <trkpt lat="48.741839" lon="7.51163">
        <ele>209.0</ele>
        <time>2020-07-11T08:37:08Z</time>
      </trkpt>
      <trkpt lat="48.741824" lon="7.511818">
        <ele>210.0</ele>
        <time>2020-07-11T08:37:10Z</time>
      </trkpt>
      <trkpt lat="48.741806" lon="7.512">
        <ele>210.0</ele>
        <time>2020-07-11T08:37:12Z</time>
      </trkpt>
      <trkpt lat="48.741791" lon="7.512178">
        <ele>210.0</ele>
        <time>2020-07-11T08:37:14Z</time>
      </trkpt>
      <trkpt lat="48.741774" lon="7.512352">
        <ele>209.0</ele>
        <time>2020-07-11T08:37:16Z</time>
      </trkpt>
      <trkpt lat="48.741752" lon="7.512526">
        <ele>209.0</ele>
        <time>2020-07-11T08:37:18Z</time>
      </trkpt>
      <trkpt lat="48.741731" lon="7.5127">
        <ele>209.0</ele>
        <time>2020-07-11T08:37:20Z</time>
      </trkpt>
      <trkpt lat="48.741698" lon="7.512939">
        <ele>210.0</ele>
        <time>2020-07-11T08:37:23Z</time>
      </trkpt>
      <trkpt lat="48.741678" lon="7.513079">
        <ele>210.0</ele>
        <time>2020-07-11T08:37:25Z</time>
      </trkpt>
      <trkpt lat="48.741663" lon="7.513193">
        <ele>210.0</ele>
        <time>2020-07-11T08:37:27Z</time>
      </trkpt>
      <trkpt lat="48.741659" lon="7.51326">
        <ele>211.0</ele>
        <time>2020-07-11T08:37:29Z</time>
      </trkpt>
      <trkpt lat="48.741652" lon="7.513313">
        <ele>211.0</ele>
        <time>2020-07-11T08:37:31Z</time>
      </trkpt>
      <trkpt lat="48.741639" lon="7.513422">
        <ele>211.0</ele>
        <time>2020-07-11T08:37:34Z</time>
      </trkpt>
      <trkpt lat="48.741636" lon="7.513568">
        <ele>212.0</ele>
        <time>2020-07-11T08:37:36Z</time>
      </trkpt>
      <trkpt lat="48.741633" lon="7.513763">
        <ele>213.0</ele>
        <time>2020-07-11T08:37:38Z</time>
      </trkpt>
      <trkpt lat="48.741614" lon="7.513984">
        <ele>213.0</ele>
        <time>2020-07-11T08:37:40Z</time>
      </trkpt>
      <trkpt lat="48.741593" lon="7.514199">
        <ele>212.0</ele>
        <time>2020-07-11T08:37:42Z</time>
      </trkpt>
      <trkpt lat="48.741574" lon="7.514409">
        <ele>212.0</ele>
        <time>2020-07-11T08:37:44Z</time>
      </trkpt>
      <trkpt lat="48.741555" lon="7.514602">
        <ele>212.0</ele>
        <time>2020-07-11T08:37:46Z</time>
      </trkpt>
      <trkpt lat="48.741534" lon="7.514793">
        <ele>211.0</ele>
        <time>2020-07-11T08:37:48Z</time>
      </trkpt>
      <trkpt lat="48.741515" lon="7.514972">
        <ele>211.0</ele>
        <time>2020-07-11T08:37:50Z</time>
      </trkpt>
      <trkpt lat="48.741499" lon="7.515155">
        <ele>211.0</ele>
        <time>2020-07-11T08:37:52Z</time>
      </trkpt>
      <trkpt lat="48.741467" lon="7.515434">
        <ele>210.0</ele>
        <time>2020-07-11T08:37:55Z</time>
      </trkpt>
      <trkpt lat="48.741452" lon="7.515622">
        <ele>211.0</ele>
        <time>2020-07-11T08:37:57Z</time>
      </trkpt>
      <trkpt lat="48.741435" lon="7.515802">
        <ele>211.0</ele>
        <time>2020-07-11T08:37:59Z</time>
      </trkpt>
      <trkpt lat="48.741414" lon="7.515989">
        <ele>211.0</ele>
        <time>2020-07-11T08:38:01Z</time>
      </trkpt>
      <trkpt lat="48.741393" lon="7.516169">
        <ele>211.0</ele>
        <time>2020-07-11T08:38:03Z</time>
      </trkpt>
      <trkpt lat="48.741382" lon="7.516264">
        <ele>211.0</ele>
        <time>2020-07-11T08:38:04Z</time>
      </trkpt>
      <trkpt lat="48.741348" lon="7.516551">
        <ele>211.0</ele>
        <time>2020-07-11T08:38:07Z</time>
      </trkpt>
      <trkpt lat="48.741314" lon="7.516834">
        <ele>211.0</ele>
        <time>2020-07-11T08:38:10Z</time>
      </trkpt>
      <trkpt lat="48.741299" lon="7.517017">
        <ele>211.0</ele>
        <time>2020-07-11T08:38:12Z</time>
      </trkpt>
      <trkpt lat="48.741279" lon="7.517204">
        <ele>211.0</ele>
        <time>2020-07-11T08:38:14Z</time>
      </trkpt>
      <trkpt lat="48.741245" lon="7.517489">
        <ele>211.0</ele>
        <time>2020-07-11T08:38:17Z</time>
      </trkpt>
      <trkpt lat="48.741227" lon="7.51768">
        <ele>210.0</ele>
        <time>2020-07-11T08:38:19Z</time>
      </trkpt>
      <trkpt lat="48.74121" lon="7.517861">
        <ele>210.0</ele>
        <time>2020-07-11T08:38:21Z</time>
      </trkpt>
      <trkpt lat="48.74118" lon="7.518128">
        <ele>210.0</ele>
        <time>2020-07-11T08:38:24Z</time>
      </trkpt>
      <trkpt lat="48.741173" lon="7.518215">
        <ele>210.0</ele>
        <time>2020-07-11T08:38:25Z</time>
      </trkpt>
      <trkpt lat="48.741146" lon="7.518481">
        <ele>210.0</ele>
        <time>2020-07-11T08:38:28Z</time>
      </trkpt>
      <trkpt lat="48.741123" lon="7.518665">
        <ele>210.0</ele>
        <time>2020-07-11T08:38:30Z</time>
      </trkpt>
      <trkpt lat="48.741093" lon="7.518945">
        <ele>210.0</ele>
        <time>2020-07-11T08:38:33Z</time>
      </trkpt>
      <trkpt lat="48.74107" lon="7.519134">
        <ele>210.0</ele>
        <time>2020-07-11T08:38:35Z</time>
      </trkpt>
      <trkpt lat="48.741052" lon="7.519314">
        <ele>209.0</ele>
        <time>2020-07-11T08:38:37Z</time>
      </trkpt>
      <trkpt lat="48.741032" lon="7.519496">
        <ele>210.0</ele>
        <time>2020-07-11T08:38:39Z</time>
      </trkpt>
      <trkpt lat="48.741013" lon="7.519681">
        <ele>210.0</ele>
        <time>2020-07-11T08:38:41Z</time>
      </trkpt>
      <trkpt lat="48.74099" lon="7.519859">
        <ele>210.0</ele>
        <time>2020-07-11T08:38:43Z</time>
      </trkpt>
      <trkpt lat="48.740973" lon="7.520029">
        <ele>210.0</ele>
        <time>2020-07-11T08:38:45Z</time>
      </trkpt>
      <trkpt lat="48.740952" lon="7.520213">
        <ele>210.0</ele>
        <time>2020-07-11T08:38:47Z</time>
      </trkpt>
      <trkpt lat="48.740932" lon="7.520389">
        <ele>210.0</ele>
        <time>2020-07-11T08:38:49Z</time>
      </trkpt>
      <trkpt lat="48.740913" lon="7.520562">
        <ele>210.0</ele>
        <time>2020-07-11T08:38:51Z</time>
      </trkpt>
      <trkpt lat="48.740894" lon="7.520749">
        <ele>210.0</ele>
        <time>2020-07-11T08:38:53Z</time>
      </trkpt>
      <trkpt lat="48.740881" lon="7.520932">
        <ele>210.0</ele>
        <time>2020-07-11T08:38:55Z</time>
      </trkpt>
      <trkpt lat="48.740861" lon="7.521114">
        <ele>211.0</ele>
        <time>2020-07-11T08:38:57Z</time>
      </trkpt>
      <trkpt lat="48.740842" lon="7.521295">
        <ele>212.0</ele>
        <time>2020-07-11T08:38:59Z</time>
      </trkpt>
      <trkpt lat="48.740817" lon="7.521478">
        <ele>211.0</ele>
        <time>2020-07-11T08:39:01Z</time>
      </trkpt>
      <trkpt lat="48.740795" lon="7.52166">
        <ele>211.0</ele>
        <time>2020-07-11T08:39:03Z</time>
      </trkpt>
      <trkpt lat="48.740773" lon="7.521851">
        <ele>211.0</ele>
        <time>2020-07-11T08:39:05Z</time>
      </trkpt>
      <trkpt lat="48.740755" lon="7.522039">
        <ele>211.0</ele>
        <time>2020-07-11T08:39:07Z</time>
      </trkpt>
      <trkpt lat="48.740734" lon="7.522227">
        <ele>211.0</ele>
        <time>2020-07-11T08:39:09Z</time>
      </trkpt>
      <trkpt lat="48.740712" lon="7.522408">
        <ele>211.0</ele>
        <time>2020-07-11T08:39:11Z</time>
      </trkpt>
      <trkpt lat="48.740691" lon="7.522581">
        <ele>211.0</ele>
        <time>2020-07-11T08:39:13Z</time>
      </trkpt>
      <trkpt lat="48.740663" lon="7.52285">
        <ele>210.0</ele>
        <time>2020-07-11T08:39:16Z</time>
      </trkpt>
      <trkpt lat="48.740644" lon="7.523023">
        <ele>210.0</ele>
        <time>2020-07-11T08:39:18Z</time>
      </trkpt>
      <trkpt lat="48.740628" lon="7.523202">
        <ele>210.0</ele>
        <time>2020-07-11T08:39:20Z</time>
      </trkpt>
      <trkpt lat="48.74061" lon="7.523386">
        <ele>210.0</ele>
        <time>2020-07-11T08:39:22Z</time>
      </trkpt>
      <trkpt lat="48.740593" lon="7.523552">
        <ele>210.0</ele>
        <time>2020-07-11T08:39:24Z</time>
      </trkpt>
      <trkpt lat="48.740576" lon="7.523716">
        <ele>211.0</ele>
        <time>2020-07-11T08:39:26Z</time>
      </trkpt>
      <trkpt lat="48.740563" lon="7.523866">
        <ele>211.0</ele>
        <time>2020-07-11T08:39:28Z</time>
      </trkpt>
      <trkpt lat="48.740549" lon="7.524017">
        <ele>211.0</ele>
        <time>2020-07-11T08:39:30Z</time>
      </trkpt>
      <trkpt lat="48.740531" lon="7.524175">
        <ele>211.0</ele>
        <time>2020-07-11T08:39:32Z</time>
      </trkpt>
      <trkpt lat="48.74051" lon="7.524337">
        <ele>211.0</ele>
        <time>2020-07-11T08:39:34Z</time>
      </trkpt>
      <trkpt lat="48.740492" lon="7.524499">
        <ele>211.0</ele>
        <time>2020-07-11T08:39:36Z</time>
      </trkpt>
      <trkpt lat="48.740469" lon="7.524661">
        <ele>211.0</ele>
        <time>2020-07-11T08:39:38Z</time>
      </trkpt>
      <trkpt lat="48.74045" lon="7.524829">
        <ele>210.0</ele>
        <time>2020-07-11T08:39:40Z</time>
      </trkpt>
      <trkpt lat="48.740418" lon="7.525077">
        <ele>210.0</ele>
        <time>2020-07-11T08:39:43Z</time>
      </trkpt>
      <trkpt lat="48.740411" lon="7.525163">
        <ele>210.0</ele>
        <time>2020-07-11T08:39:44Z</time>
      </trkpt>
      <trkpt lat="48.740386" lon="7.525416">
        <ele>211.0</ele>
        <time>2020-07-11T08:39:47Z</time>
      </trkpt>
      <trkpt lat="48.740374" lon="7.525598">
        <ele>210.0</ele>
        <time>2020-07-11T08:39:49Z</time>
      </trkpt>
      <trkpt lat="48.740341" lon="7.525866">
        <ele>210.0</ele>
        <time>2020-07-11T08:39:52Z</time>
      </trkpt>
      <trkpt lat="48.740322" lon="7.526046">
        <ele>210.0</ele>
        <time>2020-07-11T08:39:54Z</time>
      </trkpt>
      <trkpt lat="48.740313" lon="7.526135">
        <ele>210.0</ele>
        <time>2020-07-11T08:39:55Z</time>
      </trkpt>
      <trkpt lat="48.740268" lon="7.526481">
        <ele>211.0</ele>
        <time>2020-07-11T08:39:59Z</time>
      </trkpt>
      <trkpt lat="48.740251" lon="7.526658">
        <ele>211.0</ele>
        <time>2020-07-11T08:40:01Z</time>
      </trkpt>
      <trkpt lat="48.740236" lon="7.526829">
        <ele>211.0</ele>
        <time>2020-07-11T08:40:03Z</time>
      </trkpt>
      <trkpt lat="48.74022" lon="7.526991">
        <ele>212.0</ele>
        <time>2020-07-11T08:40:05Z</time>
      </trkpt>
      <trkpt lat="48.740199" lon="7.527154">
        <ele>213.0</ele>
        <time>2020-07-11T08:40:07Z</time>
      </trkpt>
      <trkpt lat="48.740179" lon="7.52733">
        <ele>213.0</ele>
        <time>2020-07-11T08:40:09Z</time>
      </trkpt>
      <trkpt lat="48.740168" lon="7.527594">
        <ele>212.0</ele>
        <time>2020-07-11T08:40:12Z</time>
      </trkpt>
      <trkpt lat="48.740152" lon="7.527769">
        <ele>212.0</ele>
        <time>2020-07-11T08:40:14Z</time>
      </trkpt>
      <trkpt lat="48.74013" lon="7.52794">
        <ele>212.0</ele>
        <time>2020-07-11T08:40:16Z</time>
      </trkpt>
      <trkpt lat="48.740116" lon="7.528027">
        <ele>211.0</ele>
        <time>2020-07-11T08:40:17Z</time>
      </trkpt>
      <trkpt lat="48.740087" lon="7.528199">
        <ele>212.0</ele>
        <time>2020-07-11T08:40:19Z</time>
      </trkpt>
      <trkpt lat="48.740058" lon="7.528447">
        <ele>211.0</ele>
        <time>2020-07-11T08:40:22Z</time>
      </trkpt>
      <trkpt lat="48.740045" lon="7.528611">
        <ele>211.0</ele>
        <time>2020-07-11T08:40:24Z</time>
      </trkpt>
      <trkpt lat="48.740029" lon="7.52879">
        <ele>211.0</ele>
        <time>2020-07-11T08:40:26Z</time>
      </trkpt>
      <trkpt lat="48.740009" lon="7.528962">
        <ele>211.0</ele>
        <time>2020-07-11T08:40:28Z</time>
      </trkpt>
      <trkpt lat="48.73999" lon="7.529131">
        <ele>211.0</ele>
        <time>2020-07-11T08:40:30Z</time>
      </trkpt>
      <trkpt lat="48.739969" lon="7.529379">
        <ele>212.0</ele>
        <time>2020-07-11T08:40:33Z</time>
      </trkpt>
      <trkpt lat="48.739959" lon="7.529632">
        <ele>213.0</ele>
        <time>2020-07-11T08:40:36Z</time>
      </trkpt>
      <trkpt lat="48.739953" lon="7.529721">
        <ele>213.0</ele>
        <time>2020-07-11T08:40:37Z</time>
      </trkpt>
      <trkpt lat="48.739948" lon="7.529991">
        <ele>213.0</ele>
        <time>2020-07-11T08:40:40Z</time>
      </trkpt>
      <trkpt lat="48.739957" lon="7.530245">
        <ele>213.0</ele>
        <time>2020-07-11T08:40:43Z</time>
      </trkpt>
      <trkpt lat="48.73993" lon="7.530505">
        <ele>213.0</ele>
        <time>2020-07-11T08:40:46Z</time>
      </trkpt>
      <trkpt lat="48.73991" lon="7.53067">
        <ele>213.0</ele>
        <time>2020-07-11T08:40:48Z</time>
      </trkpt>
      <trkpt lat="48.739916" lon="7.530819">
        <ele>214.0</ele>
        <time>2020-07-11T08:40:50Z</time>
      </trkpt>
      <trkpt lat="48.739926" lon="7.530955">
        <ele>213.0</ele>
        <time>2020-07-11T08:40:52Z</time>
      </trkpt>
      <trkpt lat="48.73995" lon="7.531082">
        <ele>214.0</ele>
        <time>2020-07-11T08:40:54Z</time>
      </trkpt>
      <trkpt lat="48.739985" lon="7.531189">
        <ele>214.0</ele>
        <time>2020-07-11T08:40:56Z</time>
      </trkpt>
      <trkpt lat="48.740024" lon="7.531277">
        <ele>214.0</ele>
        <time>2020-07-11T08:40:58Z</time>
      </trkpt>
      <trkpt lat="48.740057" lon="7.531404">
        <ele>214.0</ele>
        <time>2020-07-11T08:41:00Z</time>
      </trkpt>
      <trkpt lat="48.74008" lon="7.531564">
        <ele>213.0</ele>
        <time>2020-07-11T08:41:02Z</time>
      </trkpt>
      <trkpt lat="48.740108" lon="7.531748">
        <ele>213.0</ele>
        <time>2020-07-11T08:41:04Z</time>
      </trkpt>
      <trkpt lat="48.740119" lon="7.531845">
        <ele>213.0</ele>
        <time>2020-07-11T08:41:05Z</time>
      </trkpt>
      <trkpt lat="48.740151" lon="7.532136">
        <ele>213.0</ele>
        <time>2020-07-11T08:41:08Z</time>
      </trkpt>
      <trkpt lat="48.740174" lon="7.532321">
        <ele>213.0</ele>
        <time>2020-07-11T08:41:10Z</time>
      </trkpt>
      <trkpt lat="48.740194" lon="7.532601">
        <ele>213.0</ele>
        <time>2020-07-11T08:41:13Z</time>
      </trkpt>
      <trkpt lat="48.740209" lon="7.532777">
        <ele>213.0</ele>
        <time>2020-07-11T08:41:15Z</time>
      </trkpt>
      <trkpt lat="48.740229" lon="7.532953">
        <ele>212.0</ele>
        <time>2020-07-11T08:41:17Z</time>
      </trkpt>
      <trkpt lat="48.740243" lon="7.533121">
        <ele>212.0</ele>
        <time>2020-07-11T08:41:19Z</time>
      </trkpt>
      <trkpt lat="48.740258" lon="7.533287">
        <ele>212.0</ele>
        <time>2020-07-11T08:41:21Z</time>
      </trkpt>
      <trkpt lat="48.740279" lon="7.533456">
        <ele>211.0</ele>
        <time>2020-07-11T08:41:23Z</time>
      </trkpt>
      <trkpt lat="48.740303" lon="7.533616">
        <ele>211.0</ele>
        <time>2020-07-11T08:41:25Z</time>
      </trkpt>
      <trkpt lat="48.740324" lon="7.533783">
        <ele>211.0</ele>
        <time>2020-07-11T08:41:27Z</time>
      </trkpt>
      <trkpt lat="48.740359" lon="7.53401">
        <ele>211.0</ele>
        <time>2020-07-11T08:41:30Z</time>
      </trkpt>
      <trkpt lat="48.740399" lon="7.534235">
        <ele>211.0</ele>
        <time>2020-07-11T08:41:33Z</time>
      </trkpt>
      <trkpt lat="48.740433" lon="7.534389">
        <ele>211.0</ele>
        <time>2020-07-11T08:41:35Z</time>
      </trkpt>
      <trkpt lat="48.740451" lon="7.534556">
        <ele>211.0</ele>
        <time>2020-07-11T08:41:37Z</time>
      </trkpt>
      <trkpt lat="48.74047" lon="7.534719">
        <ele>211.0</ele>
        <time>2020-07-11T08:41:39Z</time>
      </trkpt>
      <trkpt lat="48.74049" lon="7.534887">
        <ele>211.0</ele>
        <time>2020-07-11T08:41:41Z</time>
      </trkpt>
      <trkpt lat="48.740523" lon="7.535135">
        <ele>211.0</ele>
        <time>2020-07-11T08:41:44Z</time>
      </trkpt>
      <trkpt lat="48.740539" lon="7.535302">
        <ele>211.0</ele>
        <time>2020-07-11T08:41:46Z</time>
      </trkpt>
      <trkpt lat="48.740564" lon="7.53546">
        <ele>211.0</ele>
        <time>2020-07-11T08:41:48Z</time>
      </trkpt>
      <trkpt lat="48.740602" lon="7.535613">
        <ele>211.0</ele>
        <time>2020-07-11T08:41:50Z</time>
      </trkpt>
      <trkpt lat="48.740642" lon="7.535771">
        <ele>211.0</ele>
        <time>2020-07-11T08:41:52Z</time>
      </trkpt>
      <trkpt lat="48.740678" lon="7.535926">
        <ele>211.0</ele>
        <time>2020-07-11T08:41:54Z</time>
      </trkpt>
      <trkpt lat="48.740722" lon="7.53606">
        <ele>212.0</ele>
        <time>2020-07-11T08:41:56Z</time>
      </trkpt>
      <trkpt lat="48.740779" lon="7.536204">
        <ele>211.0</ele>
        <time>2020-07-11T08:41:58Z</time>
      </trkpt>
      <trkpt lat="48.740843" lon="7.536347">
        <ele>211.0</ele>
        <time>2020-07-11T08:42:00Z</time>
      </trkpt>
      <trkpt lat="48.740894" lon="7.536497">
        <ele>212.0</ele>
        <time>2020-07-11T08:42:02Z</time>
      </trkpt>
      <trkpt lat="48.740958" lon="7.536722">
        <ele>211.0</ele>
        <time>2020-07-11T08:42:05Z</time>
      </trkpt>
      <trkpt lat="48.741001" lon="7.53688">
        <ele>212.0</ele>
        <time>2020-07-11T08:42:07Z</time>
      </trkpt>
      <trkpt lat="48.741053" lon="7.537098">
        <ele>211.0</ele>
        <time>2020-07-11T08:42:10Z</time>
      </trkpt>
      <trkpt lat="48.741108" lon="7.537249">
        <ele>211.0</ele>
        <time>2020-07-11T08:42:12Z</time>
      </trkpt>
      <trkpt lat="48.741139" lon="7.537327">
        <ele>210.0</ele>
        <time>2020-07-11T08:42:13Z</time>
      </trkpt>
      <trkpt lat="48.741231" lon="7.537583">
        <ele>210.0</ele>
        <time>2020-07-11T08:42:16Z</time>
      </trkpt>
      <trkpt lat="48.741288" lon="7.537753">
        <ele>210.0</ele>
        <time>2020-07-11T08:42:18Z</time>
      </trkpt>
      <trkpt lat="48.741358" lon="7.537923">
        <ele>210.0</ele>
        <time>2020-07-11T08:42:20Z</time>
      </trkpt>
      <trkpt lat="48.741415" lon="7.538086">
        <ele>209.0</ele>
        <time>2020-07-11T08:42:22Z</time>
      </trkpt>
      <trkpt lat="48.741474" lon="7.538235">
        <ele>209.0</ele>
        <time>2020-07-11T08:42:24Z</time>
      </trkpt>
      <trkpt lat="48.741527" lon="7.538386">
        <ele>209.0</ele>
        <time>2020-07-11T08:42:26Z</time>
      </trkpt>
      <trkpt lat="48.741581" lon="7.538535">
        <ele>209.0</ele>
        <time>2020-07-11T08:42:28Z</time>
      </trkpt>
      <trkpt lat="48.741635" lon="7.538674">
        <ele>209.0</ele>
        <time>2020-07-11T08:42:30Z</time>
      </trkpt>
      <trkpt lat="48.741686" lon="7.538805">
        <ele>209.0</ele>
        <time>2020-07-11T08:42:32Z</time>
      </trkpt>
      <trkpt lat="48.741736" lon="7.538941">
        <ele>209.0</ele>
        <time>2020-07-11T08:42:34Z</time>
      </trkpt>
      <trkpt lat="48.741788" lon="7.539067">
        <ele>209.0</ele>
        <time>2020-07-11T08:42:36Z</time>
      </trkpt>
      <trkpt lat="48.741828" lon="7.539207">
        <ele>209.0</ele>
        <time>2020-07-11T08:42:39Z</time>
      </trkpt>
      <trkpt lat="48.741832" lon="7.539246">
        <ele>209.0</ele>
        <time>2020-07-11T08:42:41Z</time>
      </trkpt>
      <trkpt lat="48.741826" lon="7.539257">
        <ele>208.0</ele>
        <time>2020-07-11T08:42:43Z</time>
      </trkpt>
      <trkpt lat="48.74182" lon="7.539258">
        <ele>208.0</ele>
        <time>2020-07-11T08:42:45Z</time>
      </trkpt>
      <trkpt lat="48.741818" lon="7.539256">
        <ele>208.0</ele>
        <time>2020-07-11T08:42:47Z</time>
      </trkpt>
      <trkpt lat="48.741818" lon="7.539256">
        <ele>208.0</ele>
        <time>2020-07-11T08:42:49Z</time>
      </trkpt>
      <trkpt lat="48.741811" lon="7.53925">
        <ele>209.0</ele>
        <time>2020-07-11T08:43:13Z</time>
      </trkpt>
      <trkpt lat="48.741811" lon="7.53925">
        <ele>209.0</ele>
        <time>2020-07-11T08:43:17Z</time>
      </trkpt>
      <trkpt lat="48.741811" lon="7.53925">
        <ele>209.0</ele>
        <time>2020-07-11T08:43:19Z</time>
      </trkpt>
      <trkpt lat="48.741811" lon="7.53925">
        <ele>209.0</ele>
        <time>2020-07-11T08:43:21Z</time>
      </trkpt>
      <trkpt lat="48.741811" lon="7.53925">
        <ele>209.0</ele>
        <time>2020-07-11T08:43:23Z</time>
      </trkpt>
      <trkpt lat="48.741811" lon="7.53925">
        <ele>209.0</ele>
        <time>2020-07-11T08:43:25Z</time>
      </trkpt>
      <trkpt lat="48.741811" lon="7.53925">
        <ele>209.0</ele>
        <time>2020-07-11T08:43:27Z</time>
      </trkpt>
      <trkpt lat="48.741812" lon="7.539241">
        <ele>209.0</ele>
        <time>2020-07-11T08:43:29Z</time>
      </trkpt>
      <trkpt lat="48.741822" lon="7.539246">
        <ele>209.0</ele>
        <time>2020-07-11T08:43:31Z</time>
      </trkpt>
      <trkpt lat="48.74182" lon="7.539251">
        <ele>209.0</ele>
        <time>2020-07-11T08:43:33Z</time>
      </trkpt>
      <trkpt lat="48.741824" lon="7.539253">
        <ele>209.0</ele>
        <time>2020-07-11T08:43:35Z</time>
      </trkpt>
      <trkpt lat="48.741836" lon="7.53928">
        <ele>209.0</ele>
        <time>2020-07-11T08:43:37Z</time>
      </trkpt>
      <trkpt lat="48.74186" lon="7.539356">
        <ele>209.0</ele>
        <time>2020-07-11T08:43:39Z</time>
      </trkpt>
      <trkpt lat="48.741885" lon="7.539429">
        <ele>209.0</ele>
        <time>2020-07-11T08:43:41Z</time>
      </trkpt>
      <trkpt lat="48.741916" lon="7.539519">
        <ele>209.0</ele>
        <time>2020-07-11T08:43:43Z</time>
      </trkpt>
      <trkpt lat="48.741958" lon="7.539621">
        <ele>209.0</ele>
        <time>2020-07-11T08:43:45Z</time>
      </trkpt>
      <trkpt lat="48.741996" lon="7.539732">
        <ele>209.0</ele>
        <time>2020-07-11T08:43:47Z</time>
      </trkpt>
      <trkpt lat="48.742042" lon="7.539851">
        <ele>210.0</ele>
        <time>2020-07-11T08:43:49Z</time>
      </trkpt>
      <trkpt lat="48.74211" lon="7.54003">
        <ele>209.0</ele>
        <time>2020-07-11T08:43:52Z</time>
      </trkpt>
      <trkpt lat="48.742136" lon="7.540089">
        <ele>209.0</ele>
        <time>2020-07-11T08:43:53Z</time>
      </trkpt>
      <trkpt lat="48.742228" lon="7.540342">
        <ele>209.0</ele>
        <time>2020-07-11T08:43:57Z</time>
      </trkpt>
      <trkpt lat="48.742276" lon="7.54047">
        <ele>209.0</ele>
        <time>2020-07-11T08:43:59Z</time>
      </trkpt>
      <trkpt lat="48.742319" lon="7.54061">
        <ele>208.0</ele>
        <time>2020-07-11T08:44:01Z</time>
      </trkpt>
      <trkpt lat="48.742343" lon="7.540673">
        <ele>208.0</ele>
        <time>2020-07-11T08:44:02Z</time>
      </trkpt>
      <trkpt lat="48.742392" lon="7.540813">
        <ele>207.0</ele>
        <time>2020-07-11T08:44:04Z</time>
      </trkpt>
      <trkpt lat="48.742465" lon="7.541021">
        <ele>208.0</ele>
        <time>2020-07-11T08:44:07Z</time>
      </trkpt>
      <trkpt lat="48.742509" lon="7.541158">
        <ele>207.0</ele>
        <time>2020-07-11T08:44:09Z</time>
      </trkpt>
      <trkpt lat="48.742575" lon="7.541373">
        <ele>207.0</ele>
        <time>2020-07-11T08:44:12Z</time>
      </trkpt>
      <trkpt lat="48.742619" lon="7.54152">
        <ele>207.0</ele>
        <time>2020-07-11T08:44:14Z</time>
      </trkpt>
      <trkpt lat="48.742665" lon="7.541672">
        <ele>207.0</ele>
        <time>2020-07-11T08:44:16Z</time>
      </trkpt>
      <trkpt lat="48.742717" lon="7.541815">
        <ele>207.0</ele>
        <time>2020-07-11T08:44:18Z</time>
      </trkpt>
      <trkpt lat="48.742816" lon="7.542026">
        <ele>207.0</ele>
        <time>2020-07-11T08:44:21Z</time>
      </trkpt>
      <trkpt lat="48.742863" lon="7.542166">
        <ele>207.0</ele>
        <time>2020-07-11T08:44:23Z</time>
      </trkpt>
      <trkpt lat="48.742909" lon="7.542311">
        <ele>208.0</ele>
        <time>2020-07-11T08:44:25Z</time>
      </trkpt>
      <trkpt lat="48.742968" lon="7.542454">
        <ele>208.0</ele>
        <time>2020-07-11T08:44:27Z</time>
      </trkpt>
      <trkpt lat="48.743048" lon="7.542665">
        <ele>208.0</ele>
        <time>2020-07-11T08:44:30Z</time>
      </trkpt>
      <trkpt lat="48.743072" lon="7.54273">
        <ele>208.0</ele>
        <time>2020-07-11T08:44:31Z</time>
      </trkpt>
      <trkpt lat="48.743134" lon="7.542949">
        <ele>209.0</ele>
        <time>2020-07-11T08:44:34Z</time>
      </trkpt>
      <trkpt lat="48.743176" lon="7.543086">
        <ele>209.0</ele>
        <time>2020-07-11T08:44:36Z</time>
      </trkpt>
      <trkpt lat="48.743238" lon="7.543294">
        <ele>209.0</ele>
        <time>2020-07-11T08:44:39Z</time>
      </trkpt>
      <trkpt lat="48.743285" lon="7.543434">
        <ele>209.0</ele>
        <time>2020-07-11T08:44:41Z</time>
      </trkpt>
      <trkpt lat="48.743328" lon="7.543584">
        <ele>209.0</ele>
        <time>2020-07-11T08:44:43Z</time>
      </trkpt>
      <trkpt lat="48.743372" lon="7.543727">
        <ele>209.0</ele>
        <time>2020-07-11T08:44:45Z</time>
      </trkpt>
      <trkpt lat="48.743405" lon="7.543879">
        <ele>209.0</ele>
        <time>2020-07-11T08:44:47Z</time>
      </trkpt>
      <trkpt lat="48.743445" lon="7.544039">
        <ele>209.0</ele>
        <time>2020-07-11T08:44:49Z</time>
      </trkpt>
      <trkpt lat="48.743483" lon="7.544198">
        <ele>209.0</ele>
        <time>2020-07-11T08:44:51Z</time>
      </trkpt>
      <trkpt lat="48.743512" lon="7.544349">
        <ele>209.0</ele>
        <time>2020-07-11T08:44:53Z</time>
      </trkpt>
      <trkpt lat="48.743546" lon="7.544505">
        <ele>210.0</ele>
        <time>2020-07-11T08:44:55Z</time>
      </trkpt>
      <trkpt lat="48.743571" lon="7.544657">
        <ele>210.0</ele>
        <time>2020-07-11T08:44:57Z</time>
      </trkpt>
      <trkpt lat="48.743602" lon="7.544822">
        <ele>209.0</ele>
        <time>2020-07-11T08:44:59Z</time>
      </trkpt>
      <trkpt lat="48.743634" lon="7.544975">
        <ele>209.0</ele>
        <time>2020-07-11T08:45:01Z</time>
      </trkpt>
      <trkpt lat="48.743664" lon="7.545131">
        <ele>209.0</ele>
        <time>2020-07-11T08:45:03Z</time>
      </trkpt>
      <trkpt lat="48.743707" lon="7.545356">
        <ele>210.0</ele>
        <time>2020-07-11T08:45:06Z</time>
      </trkpt>
      <trkpt lat="48.743735" lon="7.545498">
        <ele>210.0</ele>
        <time>2020-07-11T08:45:08Z</time>
      </trkpt>
      <trkpt lat="48.74377" lon="7.545646">
        <ele>210.0</ele>
        <time>2020-07-11T08:45:10Z</time>
      </trkpt>
      <trkpt lat="48.743799" lon="7.545801">
        <ele>210.0</ele>
        <time>2020-07-11T08:45:12Z</time>
      </trkpt>
      <trkpt lat="48.743824" lon="7.545952">
        <ele>209.0</ele>
        <time>2020-07-11T08:45:14Z</time>
      </trkpt>
      <trkpt lat="48.743857" lon="7.546094">
        <ele>209.0</ele>
        <time>2020-07-11T08:45:16Z</time>
      </trkpt>
      <trkpt lat="48.743892" lon="7.546244">
        <ele>210.0</ele>
        <time>2020-07-11T08:45:18Z</time>
      </trkpt>
      <trkpt lat="48.743933" lon="7.546488">
        <ele>210.0</ele>
        <time>2020-07-11T08:45:21Z</time>
      </trkpt>
      <trkpt lat="48.743961" lon="7.546638">
        <ele>210.0</ele>
        <time>2020-07-11T08:45:23Z</time>
      </trkpt>
      <trkpt lat="48.743985" lon="7.546788">
        <ele>210.0</ele>
        <time>2020-07-11T08:45:25Z</time>
      </trkpt>
      <trkpt lat="48.744009" lon="7.546943">
        <ele>210.0</ele>
        <time>2020-07-11T08:45:27Z</time>
      </trkpt>
      <trkpt lat="48.744031" lon="7.547205">
        <ele>210.0</ele>
        <time>2020-07-11T08:45:30Z</time>
      </trkpt>
      <trkpt lat="48.744049" lon="7.547452">
        <ele>210.0</ele>
        <time>2020-07-11T08:45:33Z</time>
      </trkpt>
      <trkpt lat="48.744064" lon="7.547627">
        <ele>209.0</ele>
        <time>2020-07-11T08:45:35Z</time>
      </trkpt>
      <trkpt lat="48.744073" lon="7.54779">
        <ele>209.0</ele>
        <time>2020-07-11T08:45:37Z</time>
      </trkpt>
      <trkpt lat="48.744081" lon="7.547955">
        <ele>208.0</ele>
        <time>2020-07-11T08:45:39Z</time>
      </trkpt>
      <trkpt lat="48.744075" lon="7.548121">
        <ele>208.0</ele>
        <time>2020-07-11T08:45:41Z</time>
      </trkpt>
      <trkpt lat="48.744066" lon="7.548289">
        <ele>208.0</ele>
        <time>2020-07-11T08:45:43Z</time>
      </trkpt>
      <trkpt lat="48.744055" lon="7.548458">
        <ele>208.0</ele>
        <time>2020-07-11T08:45:45Z</time>
      </trkpt>
      <trkpt lat="48.744042" lon="7.548622">
        <ele>208.0</ele>
        <time>2020-07-11T08:45:47Z</time>
      </trkpt>
      <trkpt lat="48.744028" lon="7.54879">
        <ele>208.0</ele>
        <time>2020-07-11T08:45:49Z</time>
      </trkpt>
      <trkpt lat="48.744013" lon="7.548953">
        <ele>209.0</ele>
        <time>2020-07-11T08:45:51Z</time>
      </trkpt>
      <trkpt lat="48.743984" lon="7.549198">
        <ele>209.0</ele>
        <time>2020-07-11T08:45:54Z</time>
      </trkpt>
      <trkpt lat="48.743961" lon="7.549365">
        <ele>209.0</ele>
        <time>2020-07-11T08:45:56Z</time>
      </trkpt>
      <trkpt lat="48.743936" lon="7.549535">
        <ele>209.0</ele>
        <time>2020-07-11T08:45:58Z</time>
      </trkpt>
      <trkpt lat="48.743906" lon="7.549707">
        <ele>209.0</ele>
        <time>2020-07-11T08:46:00Z</time>
      </trkpt>
      <trkpt lat="48.743897" lon="7.549791">
        <ele>209.0</ele>
        <time>2020-07-11T08:46:01Z</time>
      </trkpt>
      <trkpt lat="48.743857" lon="7.550042">
        <ele>208.0</ele>
        <time>2020-07-11T08:46:04Z</time>
      </trkpt>
      <trkpt lat="48.743832" lon="7.550217">
        <ele>208.0</ele>
        <time>2020-07-11T08:46:06Z</time>
      </trkpt>
      <trkpt lat="48.743798" lon="7.550472">
        <ele>207.0</ele>
        <time>2020-07-11T08:46:09Z</time>
      </trkpt>
      <trkpt lat="48.743774" lon="7.550647">
        <ele>208.0</ele>
        <time>2020-07-11T08:46:11Z</time>
      </trkpt>
      <trkpt lat="48.743753" lon="7.55082">
        <ele>208.0</ele>
        <time>2020-07-11T08:46:13Z</time>
      </trkpt>
      <trkpt lat="48.743726" lon="7.55099">
        <ele>208.0</ele>
        <time>2020-07-11T08:46:15Z</time>
      </trkpt>
      <trkpt lat="48.743713" lon="7.551077">
        <ele>208.0</ele>
        <time>2020-07-11T08:46:16Z</time>
      </trkpt>
      <trkpt lat="48.743668" lon="7.551408">
        <ele>209.0</ele>
        <time>2020-07-11T08:46:20Z</time>
      </trkpt>
      <trkpt lat="48.743643" lon="7.551572">
        <ele>208.0</ele>
        <time>2020-07-11T08:46:22Z</time>
      </trkpt>
      <trkpt lat="48.743623" lon="7.551732">
        <ele>208.0</ele>
        <time>2020-07-11T08:46:24Z</time>
      </trkpt>
      <trkpt lat="48.7436" lon="7.551888">
        <ele>208.0</ele>
        <time>2020-07-11T08:46:26Z</time>
      </trkpt>
      <trkpt lat="48.743578" lon="7.552068">
        <ele>208.0</ele>
        <time>2020-07-11T08:46:28Z</time>
      </trkpt>
      <trkpt lat="48.743554" lon="7.552254">
        <ele>208.0</ele>
        <time>2020-07-11T08:46:30Z</time>
      </trkpt>
      <trkpt lat="48.743542" lon="7.552341">
        <ele>207.0</ele>
        <time>2020-07-11T08:46:31Z</time>
      </trkpt>
      <trkpt lat="48.743524" lon="7.552598">
        <ele>207.0</ele>
        <time>2020-07-11T08:46:34Z</time>
      </trkpt>
      <trkpt lat="48.743516" lon="7.552763">
        <ele>206.0</ele>
        <time>2020-07-11T08:46:36Z</time>
      </trkpt>
      <trkpt lat="48.74351" lon="7.552932">
        <ele>206.0</ele>
        <time>2020-07-11T08:46:38Z</time>
      </trkpt>
      <trkpt lat="48.743509" lon="7.553106">
        <ele>207.0</ele>
        <time>2020-07-11T08:46:40Z</time>
      </trkpt>
      <trkpt lat="48.743518" lon="7.55336">
        <ele>206.0</ele>
        <time>2020-07-11T08:46:43Z</time>
      </trkpt>
      <trkpt lat="48.743534" lon="7.553524">
        <ele>206.0</ele>
        <time>2020-07-11T08:46:45Z</time>
      </trkpt>
      <trkpt lat="48.74355" lon="7.553694">
        <ele>205.0</ele>
        <time>2020-07-11T08:46:47Z</time>
      </trkpt>
      <trkpt lat="48.743573" lon="7.553859">
        <ele>204.0</ele>
        <time>2020-07-11T08:46:49Z</time>
      </trkpt>
      <trkpt lat="48.743604" lon="7.554024">
        <ele>204.0</ele>
        <time>2020-07-11T08:46:51Z</time>
      </trkpt>
      <trkpt lat="48.74362" lon="7.554103">
        <ele>204.0</ele>
        <time>2020-07-11T08:46:52Z</time>
      </trkpt>
      <trkpt lat="48.743672" lon="7.554333">
        <ele>205.0</ele>
        <time>2020-07-11T08:46:55Z</time>
      </trkpt>
      <trkpt lat="48.743692" lon="7.554405">
        <ele>205.0</ele>
        <time>2020-07-11T08:46:56Z</time>
      </trkpt>
      <trkpt lat="48.743788" lon="7.554684">
        <ele>204.0</ele>
        <time>2020-07-11T08:47:00Z</time>
      </trkpt>
      <trkpt lat="48.743813" lon="7.554758">
        <ele>204.0</ele>
        <time>2020-07-11T08:47:01Z</time>
      </trkpt>
      <trkpt lat="48.743864" lon="7.554913">
        <ele>204.0</ele>
        <time>2020-07-11T08:47:03Z</time>
      </trkpt>
      <trkpt lat="48.743966" lon="7.555213">
        <ele>205.0</ele>
        <time>2020-07-11T08:47:07Z</time>
      </trkpt>
      <trkpt lat="48.743993" lon="7.555292">
        <ele>205.0</ele>
        <time>2020-07-11T08:47:08Z</time>
      </trkpt>
      <trkpt lat="48.744074" lon="7.555524">
        <ele>204.0</ele>
        <time>2020-07-11T08:47:11Z</time>
      </trkpt>
      <trkpt lat="48.744129" lon="7.555681">
        <ele>205.0</ele>
        <time>2020-07-11T08:47:13Z</time>
      </trkpt>
      <trkpt lat="48.744179" lon="7.555846">
        <ele>205.0</ele>
        <time>2020-07-11T08:47:15Z</time>
      </trkpt>
      <trkpt lat="48.744275" lon="7.556061">
        <ele>204.0</ele>
        <time>2020-07-11T08:47:18Z</time>
      </trkpt>
      <trkpt lat="48.744339" lon="7.556203">
        <ele>205.0</ele>
        <time>2020-07-11T08:47:20Z</time>
      </trkpt>
      <trkpt lat="48.744407" lon="7.556347">
        <ele>204.0</ele>
        <time>2020-07-11T08:47:22Z</time>
      </trkpt>
      <trkpt lat="48.74448" lon="7.556487">
        <ele>204.0</ele>
        <time>2020-07-11T08:47:24Z</time>
      </trkpt>
      <trkpt lat="48.744554" lon="7.556627">
        <ele>204.0</ele>
        <time>2020-07-11T08:47:26Z</time>
      </trkpt>
      <trkpt lat="48.744621" lon="7.556759">
        <ele>204.0</ele>
        <time>2020-07-11T08:47:28Z</time>
      </trkpt>
      <trkpt lat="48.744698" lon="7.556888">
        <ele>204.0</ele>
        <time>2020-07-11T08:47:30Z</time>
      </trkpt>
      <trkpt lat="48.744742" lon="7.556949">
        <ele>205.0</ele>
        <time>2020-07-11T08:47:31Z</time>
      </trkpt>
      <trkpt lat="48.744867" lon="7.557138">
        <ele>205.0</ele>
        <time>2020-07-11T08:47:34Z</time>
      </trkpt>
      <trkpt lat="48.744998" lon="7.557311">
        <ele>206.0</ele>
        <time>2020-07-11T08:47:37Z</time>
      </trkpt>
      <trkpt lat="48.74509" lon="7.557419">
        <ele>207.0</ele>
        <time>2020-07-11T08:47:39Z</time>
      </trkpt>
      <trkpt lat="48.745188" lon="7.557523">
        <ele>208.0</ele>
        <time>2020-07-11T08:47:41Z</time>
      </trkpt>
      <trkpt lat="48.745286" lon="7.557622">
        <ele>208.0</ele>
        <time>2020-07-11T08:47:43Z</time>
      </trkpt>
      <trkpt lat="48.745434" lon="7.557772">
        <ele>208.0</ele>
        <time>2020-07-11T08:47:46Z</time>
      </trkpt>
      <trkpt lat="48.745519" lon="7.557877">
        <ele>208.0</ele>
        <time>2020-07-11T08:47:48Z</time>
      </trkpt>
      <trkpt lat="48.745603" lon="7.55798">
        <ele>209.0</ele>
        <time>2020-07-11T08:47:50Z</time>
      </trkpt>
      <trkpt lat="48.745686" lon="7.55809">
        <ele>209.0</ele>
        <time>2020-07-11T08:47:52Z</time>
      </trkpt>
      <trkpt lat="48.745803" lon="7.558263">
        <ele>210.0</ele>
        <time>2020-07-11T08:47:55Z</time>
      </trkpt>
      <trkpt lat="48.74588" lon="7.558391">
        <ele>210.0</ele>
        <time>2020-07-11T08:47:57Z</time>
      </trkpt>
      <trkpt lat="48.74595" lon="7.55852">
        <ele>210.0</ele>
        <time>2020-07-11T08:47:59Z</time>
      </trkpt>
      <trkpt lat="48.745985" lon="7.558587">
        <ele>209.0</ele>
        <time>2020-07-11T08:48:00Z</time>
      </trkpt>
      <trkpt lat="48.746122" lon="7.558865">
        <ele>209.0</ele>
        <time>2020-07-11T08:48:04Z</time>
      </trkpt>
      <trkpt lat="48.746184" lon="7.559021">
        <ele>208.0</ele>
        <time>2020-07-11T08:48:06Z</time>
      </trkpt>
      <trkpt lat="48.746241" lon="7.559177">
        <ele>207.0</ele>
        <time>2020-07-11T08:48:08Z</time>
      </trkpt>
      <trkpt lat="48.746272" lon="7.559252">
        <ele>207.0</ele>
        <time>2020-07-11T08:48:09Z</time>
      </trkpt>
      <trkpt lat="48.746352" lon="7.559485">
        <ele>207.0</ele>
        <time>2020-07-11T08:48:12Z</time>
      </trkpt>
      <trkpt lat="48.746407" lon="7.559648">
        <ele>208.0</ele>
        <time>2020-07-11T08:48:14Z</time>
      </trkpt>
      <trkpt lat="48.746464" lon="7.559821">
        <ele>208.0</ele>
        <time>2020-07-11T08:48:16Z</time>
      </trkpt>
      <trkpt lat="48.746522" lon="7.560002">
        <ele>208.0</ele>
        <time>2020-07-11T08:48:18Z</time>
      </trkpt>
      <trkpt lat="48.746573" lon="7.560166">
        <ele>208.0</ele>
        <time>2020-07-11T08:48:20Z</time>
      </trkpt>
      <trkpt lat="48.74665" lon="7.560414">
        <ele>208.0</ele>
        <time>2020-07-11T08:48:23Z</time>
      </trkpt>
      <trkpt lat="48.746709" lon="7.560588">
        <ele>208.0</ele>
        <time>2020-07-11T08:48:25Z</time>
      </trkpt>
      <trkpt lat="48.746765" lon="7.560759">
        <ele>208.0</ele>
        <time>2020-07-11T08:48:27Z</time>
      </trkpt>
      <trkpt lat="48.746817" lon="7.560935">
        <ele>208.0</ele>
        <time>2020-07-11T08:48:29Z</time>
      </trkpt>
      <trkpt lat="48.746863" lon="7.561112">
        <ele>208.0</ele>
        <time>2020-07-11T08:48:31Z</time>
      </trkpt>
      <trkpt lat="48.746931" lon="7.561389">
        <ele>208.0</ele>
        <time>2020-07-11T08:48:34Z</time>
      </trkpt>
      <trkpt lat="48.746984" lon="7.561574">
        <ele>209.0</ele>
        <time>2020-07-11T08:48:36Z</time>
      </trkpt>
      <trkpt lat="48.747011" lon="7.561659">
        <ele>209.0</ele>
        <time>2020-07-11T08:48:37Z</time>
      </trkpt>
      <trkpt lat="48.74709" lon="7.561921">
        <ele>209.0</ele>
        <time>2020-07-11T08:48:40Z</time>
      </trkpt>
      <trkpt lat="48.747161" lon="7.562187">
        <ele>209.0</ele>
        <time>2020-07-11T08:48:43Z</time>
      </trkpt>
      <trkpt lat="48.747209" lon="7.56236">
        <ele>209.0</ele>
        <time>2020-07-11T08:48:45Z</time>
      </trkpt>
      <trkpt lat="48.747256" lon="7.562542">
        <ele>209.0</ele>
        <time>2020-07-11T08:48:47Z</time>
      </trkpt>
      <trkpt lat="48.74731" lon="7.562722">
        <ele>210.0</ele>
        <time>2020-07-11T08:48:49Z</time>
      </trkpt>
      <trkpt lat="48.747368" lon="7.562889">
        <ele>210.0</ele>
        <time>2020-07-11T08:48:51Z</time>
      </trkpt>
      <trkpt lat="48.747418" lon="7.563058">
        <ele>210.0</ele>
        <time>2020-07-11T08:48:53Z</time>
      </trkpt>
      <trkpt lat="48.747465" lon="7.563232">
        <ele>210.0</ele>
        <time>2020-07-11T08:48:55Z</time>
      </trkpt>
      <trkpt lat="48.74752" lon="7.563404">
        <ele>210.0</ele>
        <time>2020-07-11T08:48:57Z</time>
      </trkpt>
      <trkpt lat="48.747569" lon="7.563574">
        <ele>210.0</ele>
        <time>2020-07-11T08:48:59Z</time>
      </trkpt>
      <trkpt lat="48.74762" lon="7.563739">
        <ele>209.0</ele>
        <time>2020-07-11T08:49:01Z</time>
      </trkpt>
      <trkpt lat="48.747667" lon="7.563903">
        <ele>210.0</ele>
        <time>2020-07-11T08:49:03Z</time>
      </trkpt>
      <trkpt lat="48.747745" lon="7.564167">
        <ele>210.0</ele>
        <time>2020-07-11T08:49:06Z</time>
      </trkpt>
      <trkpt lat="48.747795" lon="7.564339">
        <ele>210.0</ele>
        <time>2020-07-11T08:49:08Z</time>
      </trkpt>
      <trkpt lat="48.747836" lon="7.564504">
        <ele>210.0</ele>
        <time>2020-07-11T08:49:10Z</time>
      </trkpt>
      <trkpt lat="48.747886" lon="7.564664">
        <ele>210.0</ele>
        <time>2020-07-11T08:49:12Z</time>
      </trkpt>
      <trkpt lat="48.747942" lon="7.564832">
        <ele>209.0</ele>
        <time>2020-07-11T08:49:14Z</time>
      </trkpt>
      <trkpt lat="48.747991" lon="7.565006">
        <ele>209.0</ele>
        <time>2020-07-11T08:49:16Z</time>
      </trkpt>
      <trkpt lat="48.748058" lon="7.565256">
        <ele>209.0</ele>
        <time>2020-07-11T08:49:19Z</time>
      </trkpt>
      <trkpt lat="48.748106" lon="7.565433">
        <ele>209.0</ele>
        <time>2020-07-11T08:49:21Z</time>
      </trkpt>
      <trkpt lat="48.748147" lon="7.565615">
        <ele>208.0</ele>
        <time>2020-07-11T08:49:23Z</time>
      </trkpt>
      <trkpt lat="48.74818" lon="7.565794">
        <ele>208.0</ele>
        <time>2020-07-11T08:49:25Z</time>
      </trkpt>
      <trkpt lat="48.748211" lon="7.565975">
        <ele>209.0</ele>
        <time>2020-07-11T08:49:27Z</time>
      </trkpt>
      <trkpt lat="48.748236" lon="7.566152">
        <ele>208.0</ele>
        <time>2020-07-11T08:49:29Z</time>
      </trkpt>
      <trkpt lat="48.748262" lon="7.56633">
        <ele>209.0</ele>
        <time>2020-07-11T08:49:31Z</time>
      </trkpt>
      <trkpt lat="48.748299" lon="7.566589">
        <ele>209.0</ele>
        <time>2020-07-11T08:49:34Z</time>
      </trkpt>
      <trkpt lat="48.748339" lon="7.566845">
        <ele>210.0</ele>
        <time>2020-07-11T08:49:37Z</time>
      </trkpt>
      <trkpt lat="48.748357" lon="7.567012">
        <ele>210.0</ele>
        <time>2020-07-11T08:49:39Z</time>
      </trkpt>
      <trkpt lat="48.748366" lon="7.56718">
        <ele>211.0</ele>
        <time>2020-07-11T08:49:41Z</time>
      </trkpt>
      <trkpt lat="48.748379" lon="7.567352">
        <ele>210.0</ele>
        <time>2020-07-11T08:49:43Z</time>
      </trkpt>
      <trkpt lat="48.748395" lon="7.567599">
        <ele>210.0</ele>
        <time>2020-07-11T08:49:46Z</time>
      </trkpt>
      <trkpt lat="48.748415" lon="7.567756">
        <ele>210.0</ele>
        <time>2020-07-11T08:49:48Z</time>
      </trkpt>
      <trkpt lat="48.748439" lon="7.567919">
        <ele>209.0</ele>
        <time>2020-07-11T08:49:50Z</time>
      </trkpt>
      <trkpt lat="48.748459" lon="7.567993">
        <ele>209.0</ele>
        <time>2020-07-11T08:49:51Z</time>
      </trkpt>
      <trkpt lat="48.748567" lon="7.568177">
        <ele>209.0</ele>
        <time>2020-07-11T08:49:54Z</time>
      </trkpt>
      <trkpt lat="48.748602" lon="7.568321">
        <ele>209.0</ele>
        <time>2020-07-11T08:49:56Z</time>
      </trkpt>
      <trkpt lat="48.748623" lon="7.568454">
        <ele>209.0</ele>
        <time>2020-07-11T08:49:58Z</time>
      </trkpt>
      <trkpt lat="48.748579" lon="7.568567">
        <ele>209.0</ele>
        <time>2020-07-11T08:50:00Z</time>
      </trkpt>
      <trkpt lat="48.748432" lon="7.568684">
        <ele>209.0</ele>
        <time>2020-07-11T08:50:03Z</time>
      </trkpt>
      <trkpt lat="48.74839" lon="7.568817">
        <ele>208.0</ele>
        <time>2020-07-11T08:50:05Z</time>
      </trkpt>
      <trkpt lat="48.748402" lon="7.568965">
        <ele>208.0</ele>
        <time>2020-07-11T08:50:07Z</time>
      </trkpt>
      <trkpt lat="48.748427" lon="7.569108">
        <ele>208.0</ele>
        <time>2020-07-11T08:50:09Z</time>
      </trkpt>
      <trkpt lat="48.748449" lon="7.569261">
        <ele>208.0</ele>
        <time>2020-07-11T08:50:11Z</time>
      </trkpt>
      <trkpt lat="48.74847" lon="7.569406">
        <ele>209.0</ele>
        <time>2020-07-11T08:50:13Z</time>
      </trkpt>
      <trkpt lat="48.748506" lon="7.569638">
        <ele>208.0</ele>
        <time>2020-07-11T08:50:16Z</time>
      </trkpt>
      <trkpt lat="48.748518" lon="7.56972">
        <ele>208.0</ele>
        <time>2020-07-11T08:50:17Z</time>
      </trkpt>
      <trkpt lat="48.748552" lon="7.569959">
        <ele>208.0</ele>
        <time>2020-07-11T08:50:20Z</time>
      </trkpt>
      <trkpt lat="48.748562" lon="7.570118">
        <ele>209.0</ele>
        <time>2020-07-11T08:50:22Z</time>
      </trkpt>
      <trkpt lat="48.748569" lon="7.570341">
        <ele>209.0</ele>
        <time>2020-07-11T08:50:25Z</time>
      </trkpt>
      <trkpt lat="48.748581" lon="7.570411">
        <ele>209.0</ele>
        <time>2020-07-11T08:50:26Z</time>
      </trkpt>
      <trkpt lat="48.748621" lon="7.570641">
        <ele>209.0</ele>
        <time>2020-07-11T08:50:29Z</time>
      </trkpt>
      <trkpt lat="48.748652" lon="7.570794">
        <ele>209.0</ele>
        <time>2020-07-11T08:50:31Z</time>
      </trkpt>
      <trkpt lat="48.748682" lon="7.57095">
        <ele>209.0</ele>
        <time>2020-07-11T08:50:33Z</time>
      </trkpt>
      <trkpt lat="48.748714" lon="7.571117">
        <ele>209.0</ele>
        <time>2020-07-11T08:50:35Z</time>
      </trkpt>
      <trkpt lat="48.748739" lon="7.571276">
        <ele>209.0</ele>
        <time>2020-07-11T08:50:37Z</time>
      </trkpt>
      <trkpt lat="48.748765" lon="7.571446">
        <ele>209.0</ele>
        <time>2020-07-11T08:50:39Z</time>
      </trkpt>
      <trkpt lat="48.748799" lon="7.571607">
        <ele>209.0</ele>
        <time>2020-07-11T08:50:41Z</time>
      </trkpt>
      <trkpt lat="48.748852" lon="7.571757">
        <ele>209.0</ele>
        <time>2020-07-11T08:50:43Z</time>
      </trkpt>
      <trkpt lat="48.748945" lon="7.571971">
        <ele>209.0</ele>
        <time>2020-07-11T08:50:46Z</time>
      </trkpt>
      <trkpt lat="48.749015" lon="7.57219">
        <ele>209.0</ele>
        <time>2020-07-11T08:50:49Z</time>
      </trkpt>
      <trkpt lat="48.749052" lon="7.572342">
        <ele>209.0</ele>
        <time>2020-07-11T08:50:51Z</time>
      </trkpt>
      <trkpt lat="48.749077" lon="7.572512">
        <ele>210.0</ele>
        <time>2020-07-11T08:50:53Z</time>
      </trkpt>
      <trkpt lat="48.749099" lon="7.572694">
        <ele>210.0</ele>
        <time>2020-07-11T08:50:55Z</time>
      </trkpt>
      <trkpt lat="48.749132" lon="7.572971">
        <ele>209.0</ele>
        <time>2020-07-11T08:50:58Z</time>
      </trkpt>
      <trkpt lat="48.749151" lon="7.573153">
        <ele>209.0</ele>
        <time>2020-07-11T08:51:00Z</time>
      </trkpt>
      <trkpt lat="48.749184" lon="7.573441">
        <ele>208.0</ele>
        <time>2020-07-11T08:51:03Z</time>
      </trkpt>
      <trkpt lat="48.749193" lon="7.573544">
        <ele>208.0</ele>
        <time>2020-07-11T08:51:04Z</time>
      </trkpt>
      <trkpt lat="48.749219" lon="7.573852">
        <ele>208.0</ele>
        <time>2020-07-11T08:51:07Z</time>
      </trkpt>
      <trkpt lat="48.749244" lon="7.57405">
        <ele>207.0</ele>
        <time>2020-07-11T08:51:09Z</time>
      </trkpt>
      <trkpt lat="48.74927" lon="7.574335">
        <ele>206.0</ele>
        <time>2020-07-11T08:51:12Z</time>
      </trkpt>
      <trkpt lat="48.749285" lon="7.57452">
        <ele>206.0</ele>
        <time>2020-07-11T08:51:14Z</time>
      </trkpt>
      <trkpt lat="48.749303" lon="7.574709">
        <ele>206.0</ele>
        <time>2020-07-11T08:51:16Z</time>
      </trkpt>
      <trkpt lat="48.749323" lon="7.574877">
        <ele>207.0</ele>
        <time>2020-07-11T08:51:18Z</time>
      </trkpt>
      <trkpt lat="48.749327" lon="7.57494">
        <ele>207.0</ele>
        <time>2020-07-11T08:51:19Z</time>
      </trkpt>
      <trkpt lat="48.74935" lon="7.5752">
        <ele>207.0</ele>
        <time>2020-07-11T08:51:23Z</time>
      </trkpt>
      <trkpt lat="48.749353" lon="7.575273">
        <ele>207.0</ele>
        <time>2020-07-11T08:51:24Z</time>
      </trkpt>
      <trkpt lat="48.749362" lon="7.575422">
        <ele>208.0</ele>
        <time>2020-07-11T08:51:26Z</time>
      </trkpt>
      <trkpt lat="48.749372" lon="7.57557">
        <ele>208.0</ele>
        <time>2020-07-11T08:51:28Z</time>
      </trkpt>
      <trkpt lat="48.74939" lon="7.575804">
        <ele>208.0</ele>
        <time>2020-07-11T08:51:31Z</time>
      </trkpt>
      <trkpt lat="48.749393" lon="7.575958">
        <ele>208.0</ele>
        <time>2020-07-11T08:51:33Z</time>
      </trkpt>
      <trkpt lat="48.749403" lon="7.576111">
        <ele>208.0</ele>
        <time>2020-07-11T08:51:35Z</time>
      </trkpt>
      <trkpt lat="48.74941" lon="7.576255">
        <ele>209.0</ele>
        <time>2020-07-11T08:51:37Z</time>
      </trkpt>
      <trkpt lat="48.749417" lon="7.57639">
        <ele>209.0</ele>
        <time>2020-07-11T08:51:39Z</time>
      </trkpt>
      <trkpt lat="48.749421" lon="7.576599">
        <ele>208.0</ele>
        <time>2020-07-11T08:51:42Z</time>
      </trkpt>
      <trkpt lat="48.749426" lon="7.576745">
        <ele>208.0</ele>
        <time>2020-07-11T08:51:44Z</time>
      </trkpt>
      <trkpt lat="48.749436" lon="7.576895">
        <ele>207.0</ele>
        <time>2020-07-11T08:51:46Z</time>
      </trkpt>
      <trkpt lat="48.74944" lon="7.577044">
        <ele>207.0</ele>
        <time>2020-07-11T08:51:48Z</time>
      </trkpt>
      <trkpt lat="48.749446" lon="7.57719">
        <ele>208.0</ele>
        <time>2020-07-11T08:51:50Z</time>
      </trkpt>
      <trkpt lat="48.749461" lon="7.577421">
        <ele>209.0</ele>
        <time>2020-07-11T08:51:53Z</time>
      </trkpt>
      <trkpt lat="48.749473" lon="7.577579">
        <ele>209.0</ele>
        <time>2020-07-11T08:51:55Z</time>
      </trkpt>
      <trkpt lat="48.749489" lon="7.577724">
        <ele>209.0</ele>
        <time>2020-07-11T08:51:57Z</time>
      </trkpt>
      <trkpt lat="48.749499" lon="7.577879">
        <ele>210.0</ele>
        <time>2020-07-11T08:51:59Z</time>
      </trkpt>
      <trkpt lat="48.749507" lon="7.578036">
        <ele>209.0</ele>
        <time>2020-07-11T08:52:01Z</time>
      </trkpt>
      <trkpt lat="48.749515" lon="7.5782">
        <ele>209.0</ele>
        <time>2020-07-11T08:52:03Z</time>
      </trkpt>
      <trkpt lat="48.749525" lon="7.57837">
        <ele>209.0</ele>
        <time>2020-07-11T08:52:05Z</time>
      </trkpt>
      <trkpt lat="48.749534" lon="7.578541">
        <ele>209.0</ele>
        <time>2020-07-11T08:52:07Z</time>
      </trkpt>
      <trkpt lat="48.749545" lon="7.578793">
        <ele>209.0</ele>
        <time>2020-07-11T08:52:10Z</time>
      </trkpt>
      <trkpt lat="48.749551" lon="7.578958">
        <ele>209.0</ele>
        <time>2020-07-11T08:52:12Z</time>
      </trkpt>
      <trkpt lat="48.749554" lon="7.579125">
        <ele>209.0</ele>
        <time>2020-07-11T08:52:14Z</time>
      </trkpt>
      <trkpt lat="48.749557" lon="7.579208">
        <ele>209.0</ele>
        <time>2020-07-11T08:52:15Z</time>
      </trkpt>
      <trkpt lat="48.749566" lon="7.579537">
        <ele>210.0</ele>
        <time>2020-07-11T08:52:19Z</time>
      </trkpt>
      <trkpt lat="48.749571" lon="7.579623">
        <ele>209.0</ele>
        <time>2020-07-11T08:52:20Z</time>
      </trkpt>
      <trkpt lat="48.749579" lon="7.579795">
        <ele>209.0</ele>
        <time>2020-07-11T08:52:22Z</time>
      </trkpt>
      <trkpt lat="48.749585" lon="7.580053">
        <ele>209.0</ele>
        <time>2020-07-11T08:52:25Z</time>
      </trkpt>
      <trkpt lat="48.749585" lon="7.580313">
        <ele>209.0</ele>
        <time>2020-07-11T08:52:28Z</time>
      </trkpt>
      <trkpt lat="48.749583" lon="7.580484">
        <ele>208.0</ele>
        <time>2020-07-11T08:52:30Z</time>
      </trkpt>
      <trkpt lat="48.749569" lon="7.580746">
        <ele>209.0</ele>
        <time>2020-07-11T08:52:33Z</time>
      </trkpt>
      <trkpt lat="48.749558" lon="7.580917">
        <ele>209.0</ele>
        <time>2020-07-11T08:52:35Z</time>
      </trkpt>
      <trkpt lat="48.749554" lon="7.581004">
        <ele>209.0</ele>
        <time>2020-07-11T08:52:36Z</time>
      </trkpt>
      <trkpt lat="48.74954" lon="7.581261">
        <ele>208.0</ele>
        <time>2020-07-11T08:52:39Z</time>
      </trkpt>
      <trkpt lat="48.74953" lon="7.581425">
        <ele>207.0</ele>
        <time>2020-07-11T08:52:41Z</time>
      </trkpt>
      <trkpt lat="48.749505" lon="7.581685">
        <ele>207.0</ele>
        <time>2020-07-11T08:52:44Z</time>
      </trkpt>
      <trkpt lat="48.74949" lon="7.581875">
        <ele>206.0</ele>
        <time>2020-07-11T08:52:46Z</time>
      </trkpt>
      <trkpt lat="48.749473" lon="7.58206">
        <ele>206.0</ele>
        <time>2020-07-11T08:52:48Z</time>
      </trkpt>
      <trkpt lat="48.749451" lon="7.582248">
        <ele>206.0</ele>
        <time>2020-07-11T08:52:50Z</time>
      </trkpt>
      <trkpt lat="48.749442" lon="7.582343">
        <ele>207.0</ele>
        <time>2020-07-11T08:52:51Z</time>
      </trkpt>
      <trkpt lat="48.749422" lon="7.582529">
        <ele>207.0</ele>
        <time>2020-07-11T08:52:53Z</time>
      </trkpt>
      <trkpt lat="48.749389" lon="7.582816">
        <ele>207.0</ele>
        <time>2020-07-11T08:52:56Z</time>
      </trkpt>
      <trkpt lat="48.749367" lon="7.582998">
        <ele>207.0</ele>
        <time>2020-07-11T08:52:58Z</time>
      </trkpt>
      <trkpt lat="48.749346" lon="7.583188">
        <ele>207.0</ele>
        <time>2020-07-11T08:53:00Z</time>
      </trkpt>
      <trkpt lat="48.749314" lon="7.583468">
        <ele>207.0</ele>
        <time>2020-07-11T08:53:03Z</time>
      </trkpt>
      <trkpt lat="48.749295" lon="7.583645">
        <ele>207.0</ele>
        <time>2020-07-11T08:53:05Z</time>
      </trkpt>
      <trkpt lat="48.749275" lon="7.583824">
        <ele>207.0</ele>
        <time>2020-07-11T08:53:07Z</time>
      </trkpt>
      <trkpt lat="48.749253" lon="7.584011">
        <ele>207.0</ele>
        <time>2020-07-11T08:53:09Z</time>
      </trkpt>
      <trkpt lat="48.749215" lon="7.584294">
        <ele>207.0</ele>
        <time>2020-07-11T08:53:12Z</time>
      </trkpt>
      <trkpt lat="48.749185" lon="7.584572">
        <ele>207.0</ele>
        <time>2020-07-11T08:53:15Z</time>
      </trkpt>
      <trkpt lat="48.749166" lon="7.58475">
        <ele>207.0</ele>
        <time>2020-07-11T08:53:17Z</time>
      </trkpt>
      <trkpt lat="48.749147" lon="7.584927">
        <ele>207.0</ele>
        <time>2020-07-11T08:53:19Z</time>
      </trkpt>
      <trkpt lat="48.749119" lon="7.585193">
        <ele>207.0</ele>
        <time>2020-07-11T08:53:22Z</time>
      </trkpt>
      <trkpt lat="48.749097" lon="7.585457">
        <ele>207.0</ele>
        <time>2020-07-11T08:53:25Z</time>
      </trkpt>
      <trkpt lat="48.749076" lon="7.585631">
        <ele>207.0</ele>
        <time>2020-07-11T08:53:27Z</time>
      </trkpt>
      <trkpt lat="48.749053" lon="7.58581">
        <ele>207.0</ele>
        <time>2020-07-11T08:53:29Z</time>
      </trkpt>
      <trkpt lat="48.749027" lon="7.58599">
        <ele>207.0</ele>
        <time>2020-07-11T08:53:31Z</time>
      </trkpt>
      <trkpt lat="48.749012" lon="7.58617">
        <ele>206.0</ele>
        <time>2020-07-11T08:53:33Z</time>
      </trkpt>
      <trkpt lat="48.748994" lon="7.586342">
        <ele>207.0</ele>
        <time>2020-07-11T08:53:35Z</time>
      </trkpt>
      <trkpt lat="48.748979" lon="7.586512">
        <ele>207.0</ele>
        <time>2020-07-11T08:53:37Z</time>
      </trkpt>
      <trkpt lat="48.748953" lon="7.586686">
        <ele>208.0</ele>
        <time>2020-07-11T08:53:39Z</time>
      </trkpt>
      <trkpt lat="48.748929" lon="7.586858">
        <ele>208.0</ele>
        <time>2020-07-11T08:53:41Z</time>
      </trkpt>
      <trkpt lat="48.748908" lon="7.58704">
        <ele>207.0</ele>
        <time>2020-07-11T08:53:43Z</time>
      </trkpt>
      <trkpt lat="48.748894" lon="7.587219">
        <ele>207.0</ele>
        <time>2020-07-11T08:53:45Z</time>
      </trkpt>
      <trkpt lat="48.74888" lon="7.587394">
        <ele>207.0</ele>
        <time>2020-07-11T08:53:47Z</time>
      </trkpt>
      <trkpt lat="48.748862" lon="7.587659">
        <ele>207.0</ele>
        <time>2020-07-11T08:53:50Z</time>
      </trkpt>
      <trkpt lat="48.74885" lon="7.587827">
        <ele>207.0</ele>
        <time>2020-07-11T08:53:52Z</time>
      </trkpt>
      <trkpt lat="48.748848" lon="7.588002">
        <ele>206.0</ele>
        <time>2020-07-11T08:53:54Z</time>
      </trkpt>
      <trkpt lat="48.748841" lon="7.588261">
        <ele>206.0</ele>
        <time>2020-07-11T08:53:57Z</time>
      </trkpt>
      <trkpt lat="48.748854" lon="7.588526">
        <ele>206.0</ele>
        <time>2020-07-11T08:54:00Z</time>
      </trkpt>
      <trkpt lat="48.748859" lon="7.588699">
        <ele>206.0</ele>
        <time>2020-07-11T08:54:02Z</time>
      </trkpt>
      <trkpt lat="48.748861" lon="7.58888">
        <ele>206.0</ele>
        <time>2020-07-11T08:54:04Z</time>
      </trkpt>
      <trkpt lat="48.748872" lon="7.589048">
        <ele>207.0</ele>
        <time>2020-07-11T08:54:06Z</time>
      </trkpt>
      <trkpt lat="48.748879" lon="7.589315">
        <ele>206.0</ele>
        <time>2020-07-11T08:54:09Z</time>
      </trkpt>
      <trkpt lat="48.748879" lon="7.5895">
        <ele>207.0</ele>
        <time>2020-07-11T08:54:11Z</time>
      </trkpt>
      <trkpt lat="48.748887" lon="7.589671">
        <ele>207.0</ele>
        <time>2020-07-11T08:54:13Z</time>
      </trkpt>
      <trkpt lat="48.748895" lon="7.589858">
        <ele>207.0</ele>
        <time>2020-07-11T08:54:15Z</time>
      </trkpt>
      <trkpt lat="48.748902" lon="7.590039">
        <ele>207.0</ele>
        <time>2020-07-11T08:54:17Z</time>
      </trkpt>
      <trkpt lat="48.748912" lon="7.590306">
        <ele>207.0</ele>
        <time>2020-07-11T08:54:20Z</time>
      </trkpt>
      <trkpt lat="48.748917" lon="7.590489">
        <ele>207.0</ele>
        <time>2020-07-11T08:54:22Z</time>
      </trkpt>
      <trkpt lat="48.748923" lon="7.590669">
        <ele>207.0</ele>
        <time>2020-07-11T08:54:24Z</time>
      </trkpt>
      <trkpt lat="48.748925" lon="7.590849">
        <ele>207.0</ele>
        <time>2020-07-11T08:54:26Z</time>
      </trkpt>
      <trkpt lat="48.748931" lon="7.591032">
        <ele>207.0</ele>
        <time>2020-07-11T08:54:28Z</time>
      </trkpt>
      <trkpt lat="48.748934" lon="7.591122">
        <ele>207.0</ele>
        <time>2020-07-11T08:54:29Z</time>
      </trkpt>
      <trkpt lat="48.748941" lon="7.591387">
        <ele>208.0</ele>
        <time>2020-07-11T08:54:32Z</time>
      </trkpt>
      <trkpt lat="48.748948" lon="7.591568">
        <ele>208.0</ele>
        <time>2020-07-11T08:54:34Z</time>
      </trkpt>
      <trkpt lat="48.748955" lon="7.591837">
        <ele>208.0</ele>
        <time>2020-07-11T08:54:37Z</time>
      </trkpt>
      <trkpt lat="48.748957" lon="7.59201">
        <ele>208.0</ele>
        <time>2020-07-11T08:54:39Z</time>
      </trkpt>
      <trkpt lat="48.748955" lon="7.592186">
        <ele>208.0</ele>
        <time>2020-07-11T08:54:41Z</time>
      </trkpt>
      <trkpt lat="48.748946" lon="7.59236">
        <ele>207.0</ele>
        <time>2020-07-11T08:54:43Z</time>
      </trkpt>
      <trkpt lat="48.748932" lon="7.592598">
        <ele>208.0</ele>
        <time>2020-07-11T08:54:46Z</time>
      </trkpt>
      <trkpt lat="48.748906" lon="7.59282">
        <ele>208.0</ele>
        <time>2020-07-11T08:54:49Z</time>
      </trkpt>
      <trkpt lat="48.74887" lon="7.593048">
        <ele>207.0</ele>
        <time>2020-07-11T08:54:52Z</time>
      </trkpt>
      <trkpt lat="48.748849" lon="7.593194">
        <ele>207.0</ele>
        <time>2020-07-11T08:54:54Z</time>
      </trkpt>
      <trkpt lat="48.748825" lon="7.593349">
        <ele>207.0</ele>
        <time>2020-07-11T08:54:56Z</time>
      </trkpt>
      <trkpt lat="48.748804" lon="7.593509">
        <ele>207.0</ele>
        <time>2020-07-11T08:54:58Z</time>
      </trkpt>
      <trkpt lat="48.74878" lon="7.593661">
        <ele>207.0</ele>
        <time>2020-07-11T08:55:00Z</time>
      </trkpt>
      <trkpt lat="48.748757" lon="7.593819">
        <ele>207.0</ele>
        <time>2020-07-11T08:55:02Z</time>
      </trkpt>
      <trkpt lat="48.748732" lon="7.593946">
        <ele>207.0</ele>
        <time>2020-07-11T08:55:04Z</time>
      </trkpt>
      <trkpt lat="48.748698" lon="7.594043">
        <ele>207.0</ele>
        <time>2020-07-11T08:55:06Z</time>
      </trkpt>
      <trkpt lat="48.748575" lon="7.594042">
        <ele>207.0</ele>
        <time>2020-07-11T08:55:09Z</time>
      </trkpt>
      <trkpt lat="48.748497" lon="7.594126">
        <ele>207.0</ele>
        <time>2020-07-11T08:55:11Z</time>
      </trkpt>
      <trkpt lat="48.748457" lon="7.594296">
        <ele>207.0</ele>
        <time>2020-07-11T08:55:13Z</time>
      </trkpt>
      <trkpt lat="48.748422" lon="7.594478">
        <ele>206.0</ele>
        <time>2020-07-11T08:55:15Z</time>
      </trkpt>
      <trkpt lat="48.748385" lon="7.594662">
        <ele>207.0</ele>
        <time>2020-07-11T08:55:17Z</time>
      </trkpt>
      <trkpt lat="48.748342" lon="7.594828">
        <ele>207.0</ele>
        <time>2020-07-11T08:55:19Z</time>
      </trkpt>
      <trkpt lat="48.748309" lon="7.594996">
        <ele>208.0</ele>
        <time>2020-07-11T08:55:21Z</time>
      </trkpt>
      <trkpt lat="48.748277" lon="7.595161">
        <ele>207.0</ele>
        <time>2020-07-11T08:55:23Z</time>
      </trkpt>
      <trkpt lat="48.748245" lon="7.595315">
        <ele>207.0</ele>
        <time>2020-07-11T08:55:25Z</time>
      </trkpt>
      <trkpt lat="48.748213" lon="7.595472">
        <ele>207.0</ele>
        <time>2020-07-11T08:55:27Z</time>
      </trkpt>
      <trkpt lat="48.748181" lon="7.595611">
        <ele>207.0</ele>
        <time>2020-07-11T08:55:29Z</time>
      </trkpt>
      <trkpt lat="48.748152" lon="7.595731">
        <ele>207.0</ele>
        <time>2020-07-11T08:55:31Z</time>
      </trkpt>
      <trkpt lat="48.74813" lon="7.595872">
        <ele>207.0</ele>
        <time>2020-07-11T08:55:33Z</time>
      </trkpt>
      <trkpt lat="48.748099" lon="7.596023">
        <ele>206.0</ele>
        <time>2020-07-11T08:55:35Z</time>
      </trkpt>
      <trkpt lat="48.748065" lon="7.596165">
        <ele>206.0</ele>
        <time>2020-07-11T08:55:37Z</time>
      </trkpt>
      <trkpt lat="48.748013" lon="7.596377">
        <ele>206.0</ele>
        <time>2020-07-11T08:55:40Z</time>
      </trkpt>
      <trkpt lat="48.747984" lon="7.596517">
        <ele>207.0</ele>
        <time>2020-07-11T08:55:42Z</time>
      </trkpt>
      <trkpt lat="48.747956" lon="7.596668">
        <ele>208.0</ele>
        <time>2020-07-11T08:55:44Z</time>
      </trkpt>
      <trkpt lat="48.747957" lon="7.596819">
        <ele>208.0</ele>
        <time>2020-07-11T08:55:46Z</time>
      </trkpt>
      <trkpt lat="48.748002" lon="7.596947">
        <ele>208.0</ele>
        <time>2020-07-11T08:55:48Z</time>
      </trkpt>
      <trkpt lat="48.748044" lon="7.59708">
        <ele>208.0</ele>
        <time>2020-07-11T08:55:50Z</time>
      </trkpt>
      <trkpt lat="48.748016" lon="7.597207">
        <ele>209.0</ele>
        <time>2020-07-11T08:55:52Z</time>
      </trkpt>
      <trkpt lat="48.747987" lon="7.597347">
        <ele>208.0</ele>
        <time>2020-07-11T08:55:54Z</time>
      </trkpt>
      <trkpt lat="48.747958" lon="7.597485">
        <ele>208.0</ele>
        <time>2020-07-11T08:55:56Z</time>
      </trkpt>
      <trkpt lat="48.747919" lon="7.597627">
        <ele>207.0</ele>
        <time>2020-07-11T08:55:58Z</time>
      </trkpt>
      <trkpt lat="48.747884" lon="7.597777">
        <ele>207.0</ele>
        <time>2020-07-11T08:56:00Z</time>
      </trkpt>
      <trkpt lat="48.747847" lon="7.597934">
        <ele>207.0</ele>
        <time>2020-07-11T08:56:02Z</time>
      </trkpt>
      <trkpt lat="48.747812" lon="7.598093">
        <ele>206.0</ele>
        <time>2020-07-11T08:56:04Z</time>
      </trkpt>
      <trkpt lat="48.747775" lon="7.598254">
        <ele>206.0</ele>
        <time>2020-07-11T08:56:06Z</time>
      </trkpt>
      <trkpt lat="48.747741" lon="7.598415">
        <ele>206.0</ele>
        <time>2020-07-11T08:56:08Z</time>
      </trkpt>
      <trkpt lat="48.747706" lon="7.598574">
        <ele>206.0</ele>
        <time>2020-07-11T08:56:10Z</time>
      </trkpt>
      <trkpt lat="48.747671" lon="7.598745">
        <ele>206.0</ele>
        <time>2020-07-11T08:56:12Z</time>
      </trkpt>
      <trkpt lat="48.747637" lon="7.598918">
        <ele>207.0</ele>
        <time>2020-07-11T08:56:14Z</time>
      </trkpt>
      <trkpt lat="48.747597" lon="7.599089">
        <ele>206.0</ele>
        <time>2020-07-11T08:56:16Z</time>
      </trkpt>
      <trkpt lat="48.747558" lon="7.599254">
        <ele>207.0</ele>
        <time>2020-07-11T08:56:18Z</time>
      </trkpt>
      <trkpt lat="48.747522" lon="7.599417">
        <ele>206.0</ele>
        <time>2020-07-11T08:56:20Z</time>
      </trkpt>
      <trkpt lat="48.747481" lon="7.599583">
        <ele>206.0</ele>
        <time>2020-07-11T08:56:22Z</time>
      </trkpt>
      <trkpt lat="48.74744" lon="7.599747">
        <ele>206.0</ele>
        <time>2020-07-11T08:56:24Z</time>
      </trkpt>
      <trkpt lat="48.747404" lon="7.599924">
        <ele>206.0</ele>
        <time>2020-07-11T08:56:26Z</time>
      </trkpt>
      <trkpt lat="48.747371" lon="7.600103">
        <ele>207.0</ele>
        <time>2020-07-11T08:56:28Z</time>
      </trkpt>
      <trkpt lat="48.747351" lon="7.600278">
        <ele>206.0</ele>
        <time>2020-07-11T08:56:30Z</time>
      </trkpt>
      <trkpt lat="48.747338" lon="7.600457">
        <ele>206.0</ele>
        <time>2020-07-11T08:56:32Z</time>
      </trkpt>
      <trkpt lat="48.747327" lon="7.600635">
        <ele>207.0</ele>
        <time>2020-07-11T08:56:34Z</time>
      </trkpt>
      <trkpt lat="48.747311" lon="7.600805">
        <ele>207.0</ele>
        <time>2020-07-11T08:56:36Z</time>
      </trkpt>
      <trkpt lat="48.747296" lon="7.601077">
        <ele>206.0</ele>
        <time>2020-07-11T08:56:39Z</time>
      </trkpt>
      <trkpt lat="48.747287" lon="7.601261">
        <ele>206.0</ele>
        <time>2020-07-11T08:56:41Z</time>
      </trkpt>
      <trkpt lat="48.747285" lon="7.60135">
        <ele>206.0</ele>
        <time>2020-07-11T08:56:42Z</time>
      </trkpt>
      <trkpt lat="48.747282" lon="7.601605">
        <ele>206.0</ele>
        <time>2020-07-11T08:56:45Z</time>
      </trkpt>
      <trkpt lat="48.747285" lon="7.601693">
        <ele>206.0</ele>
        <time>2020-07-11T08:56:46Z</time>
      </trkpt>
      <trkpt lat="48.747302" lon="7.602038">
        <ele>206.0</ele>
        <time>2020-07-11T08:56:50Z</time>
      </trkpt>
      <trkpt lat="48.747316" lon="7.602219">
        <ele>206.0</ele>
        <time>2020-07-11T08:56:52Z</time>
      </trkpt>
      <trkpt lat="48.747341" lon="7.602393">
        <ele>206.0</ele>
        <time>2020-07-11T08:56:54Z</time>
      </trkpt>
      <trkpt lat="48.747376" lon="7.602554">
        <ele>206.0</ele>
        <time>2020-07-11T08:56:56Z</time>
      </trkpt>
      <trkpt lat="48.747401" lon="7.60272">
        <ele>206.0</ele>
        <time>2020-07-11T08:56:58Z</time>
      </trkpt>
      <trkpt lat="48.747427" lon="7.602882">
        <ele>206.0</ele>
        <time>2020-07-11T08:57:00Z</time>
      </trkpt>
      <trkpt lat="48.747456" lon="7.60303">
        <ele>207.0</ele>
        <time>2020-07-11T08:57:02Z</time>
      </trkpt>
      <trkpt lat="48.747475" lon="7.60317">
        <ele>208.0</ele>
        <time>2020-07-11T08:57:04Z</time>
      </trkpt>
      <trkpt lat="48.747479" lon="7.603282">
        <ele>208.0</ele>
        <time>2020-07-11T08:57:06Z</time>
      </trkpt>
      <trkpt lat="48.747475" lon="7.603348">
        <ele>208.0</ele>
        <time>2020-07-11T08:57:08Z</time>
      </trkpt>
      <trkpt lat="48.747462" lon="7.603414">
        <ele>208.0</ele>
        <time>2020-07-11T08:57:10Z</time>
      </trkpt>
      <trkpt lat="48.747476" lon="7.603495">
        <ele>207.0</ele>
        <time>2020-07-11T08:57:12Z</time>
      </trkpt>
      <trkpt lat="48.747536" lon="7.603553">
        <ele>207.0</ele>
        <time>2020-07-11T08:57:14Z</time>
      </trkpt>
      <trkpt lat="48.74758" lon="7.60372">
        <ele>206.0</ele>
        <time>2020-07-11T08:57:16Z</time>
      </trkpt>
      <trkpt lat="48.747621" lon="7.603871">
        <ele>206.0</ele>
        <time>2020-07-11T08:57:18Z</time>
      </trkpt>
      <trkpt lat="48.74768" lon="7.604013">
        <ele>205.0</ele>
        <time>2020-07-11T08:57:20Z</time>
      </trkpt>
      <trkpt lat="48.747748" lon="7.604134">
        <ele>205.0</ele>
        <time>2020-07-11T08:57:22Z</time>
      </trkpt>
      <trkpt lat="48.747818" lon="7.604262">
        <ele>206.0</ele>
        <time>2020-07-11T08:57:24Z</time>
      </trkpt>
      <trkpt lat="48.747895" lon="7.60441">
        <ele>205.0</ele>
        <time>2020-07-11T08:57:26Z</time>
      </trkpt>
      <trkpt lat="48.747976" lon="7.604544">
        <ele>206.0</ele>
        <time>2020-07-11T08:57:28Z</time>
      </trkpt>
      <trkpt lat="48.748049" lon="7.604681">
        <ele>206.0</ele>
        <time>2020-07-11T08:57:30Z</time>
      </trkpt>
      <trkpt lat="48.748113" lon="7.604818">
        <ele>206.0</ele>
        <time>2020-07-11T08:57:32Z</time>
      </trkpt>
      <trkpt lat="48.748171" lon="7.604957">
        <ele>207.0</ele>
        <time>2020-07-11T08:57:34Z</time>
      </trkpt>
      <trkpt lat="48.748221" lon="7.605105">
        <ele>207.0</ele>
        <time>2020-07-11T08:57:36Z</time>
      </trkpt>
      <trkpt lat="48.748268" lon="7.605245">
        <ele>207.0</ele>
        <time>2020-07-11T08:57:38Z</time>
      </trkpt>
      <trkpt lat="48.748323" lon="7.605384">
        <ele>207.0</ele>
        <time>2020-07-11T08:57:40Z</time>
      </trkpt>
      <trkpt lat="48.748368" lon="7.605522">
        <ele>207.0</ele>
        <time>2020-07-11T08:57:42Z</time>
      </trkpt>
      <trkpt lat="48.748412" lon="7.605672">
        <ele>208.0</ele>
        <time>2020-07-11T08:57:44Z</time>
      </trkpt>
      <trkpt lat="48.748471" lon="7.605908">
        <ele>207.0</ele>
        <time>2020-07-11T08:57:47Z</time>
      </trkpt>
      <trkpt lat="48.748497" lon="7.606055">
        <ele>207.0</ele>
        <time>2020-07-11T08:57:49Z</time>
      </trkpt>
      <trkpt lat="48.748514" lon="7.606216">
        <ele>207.0</ele>
        <time>2020-07-11T08:57:51Z</time>
      </trkpt>
      <trkpt lat="48.748522" lon="7.606379">
        <ele>206.0</ele>
        <time>2020-07-11T08:57:53Z</time>
      </trkpt>
      <trkpt lat="48.748533" lon="7.606541">
        <ele>206.0</ele>
        <time>2020-07-11T08:57:55Z</time>
      </trkpt>
      <trkpt lat="48.748548" lon="7.606696">
        <ele>206.0</ele>
        <time>2020-07-11T08:57:57Z</time>
      </trkpt>
      <trkpt lat="48.748557" lon="7.606854">
        <ele>205.0</ele>
        <time>2020-07-11T08:57:59Z</time>
      </trkpt>
      <trkpt lat="48.748564" lon="7.606997">
        <ele>205.0</ele>
        <time>2020-07-11T08:58:01Z</time>
      </trkpt>
      <trkpt lat="48.748565" lon="7.607129">
        <ele>205.0</ele>
        <time>2020-07-11T08:58:03Z</time>
      </trkpt>
      <trkpt lat="48.748566" lon="7.607247">
        <ele>205.0</ele>
        <time>2020-07-11T08:58:05Z</time>
      </trkpt>
      <trkpt lat="48.748571" lon="7.607381">
        <ele>205.0</ele>
        <time>2020-07-11T08:58:07Z</time>
      </trkpt>
      <trkpt lat="48.748557" lon="7.607534">
        <ele>206.0</ele>
        <time>2020-07-11T08:58:09Z</time>
      </trkpt>
      <trkpt lat="48.748568" lon="7.607705">
        <ele>205.0</ele>
        <time>2020-07-11T08:58:11Z</time>
      </trkpt>
      <trkpt lat="48.74858" lon="7.607892">
        <ele>204.0</ele>
        <time>2020-07-11T08:58:13Z</time>
      </trkpt>
      <trkpt lat="48.748591" lon="7.60809">
        <ele>204.0</ele>
        <time>2020-07-11T08:58:15Z</time>
      </trkpt>
      <trkpt lat="48.7486" lon="7.608299">
        <ele>204.0</ele>
        <time>2020-07-11T08:58:17Z</time>
      </trkpt>
      <trkpt lat="48.748603" lon="7.608504">
        <ele>204.0</ele>
        <time>2020-07-11T08:58:19Z</time>
      </trkpt>
      <trkpt lat="48.748609" lon="7.608705">
        <ele>204.0</ele>
        <time>2020-07-11T08:58:21Z</time>
      </trkpt>
      <trkpt lat="48.748615" lon="7.608892">
        <ele>204.0</ele>
        <time>2020-07-11T08:58:23Z</time>
      </trkpt>
      <trkpt lat="48.748626" lon="7.609075">
        <ele>204.0</ele>
        <time>2020-07-11T08:58:25Z</time>
      </trkpt>
      <trkpt lat="48.748631" lon="7.609258">
        <ele>204.0</ele>
        <time>2020-07-11T08:58:27Z</time>
      </trkpt>
      <trkpt lat="48.748633" lon="7.609435">
        <ele>204.0</ele>
        <time>2020-07-11T08:58:29Z</time>
      </trkpt>
      <trkpt lat="48.748638" lon="7.609611">
        <ele>204.0</ele>
        <time>2020-07-11T08:58:31Z</time>
      </trkpt>
      <trkpt lat="48.748643" lon="7.609786">
        <ele>203.0</ele>
        <time>2020-07-11T08:58:33Z</time>
      </trkpt>
      <trkpt lat="48.748647" lon="7.609966">
        <ele>203.0</ele>
        <time>2020-07-11T08:58:35Z</time>
      </trkpt>
      <trkpt lat="48.74865" lon="7.610146">
        <ele>203.0</ele>
        <time>2020-07-11T08:58:37Z</time>
      </trkpt>
      <trkpt lat="48.748652" lon="7.610322">
        <ele>203.0</ele>
        <time>2020-07-11T08:58:39Z</time>
      </trkpt>
      <trkpt lat="48.748657" lon="7.610493">
        <ele>203.0</ele>
        <time>2020-07-11T08:58:41Z</time>
      </trkpt>
      <trkpt lat="48.748667" lon="7.610667">
        <ele>202.0</ele>
        <time>2020-07-11T08:58:43Z</time>
      </trkpt>
      <trkpt lat="48.748675" lon="7.610848">
        <ele>202.0</ele>
        <time>2020-07-11T08:58:45Z</time>
      </trkpt>
      <trkpt lat="48.748679" lon="7.611026">
        <ele>201.0</ele>
        <time>2020-07-11T08:58:47Z</time>
      </trkpt>
      <trkpt lat="48.748682" lon="7.611117">
        <ele>201.0</ele>
        <time>2020-07-11T08:58:48Z</time>
      </trkpt>
      <trkpt lat="48.748689" lon="7.611365">
        <ele>201.0</ele>
        <time>2020-07-11T08:58:51Z</time>
      </trkpt>
      <trkpt lat="48.748699" lon="7.61153">
        <ele>202.0</ele>
        <time>2020-07-11T08:58:53Z</time>
      </trkpt>
      <trkpt lat="48.748712" lon="7.611699">
        <ele>202.0</ele>
        <time>2020-07-11T08:58:55Z</time>
      </trkpt>
      <trkpt lat="48.748718" lon="7.611866">
        <ele>202.0</ele>
        <time>2020-07-11T08:58:57Z</time>
      </trkpt>
      <trkpt lat="48.748718" lon="7.612032">
        <ele>202.0</ele>
        <time>2020-07-11T08:58:59Z</time>
      </trkpt>
      <trkpt lat="48.748723" lon="7.612197">
        <ele>201.0</ele>
        <time>2020-07-11T08:59:01Z</time>
      </trkpt>
      <trkpt lat="48.748726" lon="7.61238">
        <ele>200.0</ele>
        <time>2020-07-11T08:59:03Z</time>
      </trkpt>
      <trkpt lat="48.748728" lon="7.61264">
        <ele>200.0</ele>
        <time>2020-07-11T08:59:06Z</time>
      </trkpt>
      <trkpt lat="48.748737" lon="7.612816">
        <ele>200.0</ele>
        <time>2020-07-11T08:59:08Z</time>
      </trkpt>
      <trkpt lat="48.748744" lon="7.612993">
        <ele>200.0</ele>
        <time>2020-07-11T08:59:10Z</time>
      </trkpt>
      <trkpt lat="48.748752" lon="7.613168">
        <ele>201.0</ele>
        <time>2020-07-11T08:59:12Z</time>
      </trkpt>
      <trkpt lat="48.748754" lon="7.613346">
        <ele>201.0</ele>
        <time>2020-07-11T08:59:14Z</time>
      </trkpt>
      <trkpt lat="48.748761" lon="7.613523">
        <ele>201.0</ele>
        <time>2020-07-11T08:59:16Z</time>
      </trkpt>
      <trkpt lat="48.748773" lon="7.613697">
        <ele>202.0</ele>
        <time>2020-07-11T08:59:18Z</time>
      </trkpt>
      <trkpt lat="48.748783" lon="7.613864">
        <ele>202.0</ele>
        <time>2020-07-11T08:59:20Z</time>
      </trkpt>
      <trkpt lat="48.748794" lon="7.614038">
        <ele>202.0</ele>
        <time>2020-07-11T08:59:22Z</time>
      </trkpt>
      <trkpt lat="48.748804" lon="7.614203">
        <ele>203.0</ele>
        <time>2020-07-11T08:59:24Z</time>
      </trkpt>
      <trkpt lat="48.74881" lon="7.614369">
        <ele>203.0</ele>
        <time>2020-07-11T08:59:26Z</time>
      </trkpt>
      <trkpt lat="48.748817" lon="7.614541">
        <ele>203.0</ele>
        <time>2020-07-11T08:59:28Z</time>
      </trkpt>
      <trkpt lat="48.748825" lon="7.61471">
        <ele>203.0</ele>
        <time>2020-07-11T08:59:30Z</time>
      </trkpt>
      <trkpt lat="48.748832" lon="7.614878">
        <ele>203.0</ele>
        <time>2020-07-11T08:59:32Z</time>
      </trkpt>
      <trkpt lat="48.748828" lon="7.615057">
        <ele>203.0</ele>
        <time>2020-07-11T08:59:34Z</time>
      </trkpt>
      <trkpt lat="48.748828" lon="7.615226">
        <ele>203.0</ele>
        <time>2020-07-11T08:59:36Z</time>
      </trkpt>
      <trkpt lat="48.748839" lon="7.615468">
        <ele>202.0</ele>
        <time>2020-07-11T08:59:39Z</time>
      </trkpt>
      <trkpt lat="48.748843" lon="7.615639">
        <ele>202.0</ele>
        <time>2020-07-11T08:59:41Z</time>
      </trkpt>
      <trkpt lat="48.748849" lon="7.615799">
        <ele>201.0</ele>
        <time>2020-07-11T08:59:43Z</time>
      </trkpt>
      <trkpt lat="48.748858" lon="7.615974">
        <ele>201.0</ele>
        <time>2020-07-11T08:59:45Z</time>
      </trkpt>
      <trkpt lat="48.748877" lon="7.616152">
        <ele>201.0</ele>
        <time>2020-07-11T08:59:47Z</time>
      </trkpt>
      <trkpt lat="48.7489" lon="7.616309">
        <ele>201.0</ele>
        <time>2020-07-11T08:59:49Z</time>
      </trkpt>
      <trkpt lat="48.748926" lon="7.616466">
        <ele>201.0</ele>
        <time>2020-07-11T08:59:51Z</time>
      </trkpt>
      <trkpt lat="48.748959" lon="7.616625">
        <ele>201.0</ele>
        <time>2020-07-11T08:59:53Z</time>
      </trkpt>
      <trkpt lat="48.748996" lon="7.616792">
        <ele>201.0</ele>
        <time>2020-07-11T08:59:55Z</time>
      </trkpt>
      <trkpt lat="48.749038" lon="7.616963">
        <ele>201.0</ele>
        <time>2020-07-11T08:59:57Z</time>
      </trkpt>
      <trkpt lat="48.749087" lon="7.617122">
        <ele>201.0</ele>
        <time>2020-07-11T08:59:59Z</time>
      </trkpt>
      <trkpt lat="48.749165" lon="7.617366">
        <ele>201.0</ele>
        <time>2020-07-11T09:00:02Z</time>
      </trkpt>
      <trkpt lat="48.749214" lon="7.617514">
        <ele>201.0</ele>
        <time>2020-07-11T09:00:04Z</time>
      </trkpt>
      <trkpt lat="48.749238" lon="7.61759">
        <ele>201.0</ele>
        <time>2020-07-11T09:00:05Z</time>
      </trkpt>
      <trkpt lat="48.749301" lon="7.617814">
        <ele>200.0</ele>
        <time>2020-07-11T09:00:08Z</time>
      </trkpt>
      <trkpt lat="48.749346" lon="7.61797">
        <ele>201.0</ele>
        <time>2020-07-11T09:00:10Z</time>
      </trkpt>
      <trkpt lat="48.74939" lon="7.618124">
        <ele>200.0</ele>
        <time>2020-07-11T09:00:12Z</time>
      </trkpt>
      <trkpt lat="48.749439" lon="7.618277">
        <ele>200.0</ele>
        <time>2020-07-11T09:00:14Z</time>
      </trkpt>
      <trkpt lat="48.749458" lon="7.618358">
        <ele>200.0</ele>
        <time>2020-07-11T09:00:15Z</time>
      </trkpt>
      <trkpt lat="48.749523" lon="7.618592">
        <ele>200.0</ele>
        <time>2020-07-11T09:00:18Z</time>
      </trkpt>
      <trkpt lat="48.749566" lon="7.618743">
        <ele>200.0</ele>
        <time>2020-07-11T09:00:20Z</time>
      </trkpt>
      <trkpt lat="48.749629" lon="7.618976">
        <ele>201.0</ele>
        <time>2020-07-11T09:00:23Z</time>
      </trkpt>
      <trkpt lat="48.749675" lon="7.61914">
        <ele>201.0</ele>
        <time>2020-07-11T09:00:25Z</time>
      </trkpt>
      <trkpt lat="48.749716" lon="7.619296">
        <ele>201.0</ele>
        <time>2020-07-11T09:00:27Z</time>
      </trkpt>
      <trkpt lat="48.749747" lon="7.619449">
        <ele>202.0</ele>
        <time>2020-07-11T09:00:29Z</time>
      </trkpt>
      <trkpt lat="48.749778" lon="7.619602">
        <ele>202.0</ele>
        <time>2020-07-11T09:00:31Z</time>
      </trkpt>
      <trkpt lat="48.749795" lon="7.619738">
        <ele>202.0</ele>
        <time>2020-07-11T09:00:33Z</time>
      </trkpt>
      <trkpt lat="48.749822" lon="7.619869">
        <ele>202.0</ele>
        <time>2020-07-11T09:00:35Z</time>
      </trkpt>
      <trkpt lat="48.749848" lon="7.62">
        <ele>203.0</ele>
        <time>2020-07-11T09:00:37Z</time>
      </trkpt>
      <trkpt lat="48.749865" lon="7.620146">
        <ele>203.0</ele>
        <time>2020-07-11T09:00:39Z</time>
      </trkpt>
      <trkpt lat="48.749877" lon="7.620299">
        <ele>203.0</ele>
        <time>2020-07-11T09:00:41Z</time>
      </trkpt>
      <trkpt lat="48.749887" lon="7.620531">
        <ele>204.0</ele>
        <time>2020-07-11T09:00:44Z</time>
      </trkpt>
      <trkpt lat="48.749884" lon="7.620696">
        <ele>204.0</ele>
        <time>2020-07-11T09:00:46Z</time>
      </trkpt>
      <trkpt lat="48.749873" lon="7.620856">
        <ele>204.0</ele>
        <time>2020-07-11T09:00:48Z</time>
      </trkpt>
      <trkpt lat="48.749862" lon="7.621012">
        <ele>204.0</ele>
        <time>2020-07-11T09:00:50Z</time>
      </trkpt>
      <trkpt lat="48.749843" lon="7.621166">
        <ele>204.0</ele>
        <time>2020-07-11T09:00:52Z</time>
      </trkpt>
      <trkpt lat="48.74981" lon="7.621406">
        <ele>203.0</ele>
        <time>2020-07-11T09:00:55Z</time>
      </trkpt>
      <trkpt lat="48.749785" lon="7.621569">
        <ele>204.0</ele>
        <time>2020-07-11T09:00:57Z</time>
      </trkpt>
      <trkpt lat="48.749768" lon="7.621654">
        <ele>203.0</ele>
        <time>2020-07-11T09:00:58Z</time>
      </trkpt>
      <trkpt lat="48.74972" lon="7.621909">
        <ele>203.0</ele>
        <time>2020-07-11T09:01:01Z</time>
      </trkpt>
      <trkpt lat="48.749696" lon="7.622078">
        <ele>203.0</ele>
        <time>2020-07-11T09:01:03Z</time>
      </trkpt>
      <trkpt lat="48.749659" lon="7.622331">
        <ele>203.0</ele>
        <time>2020-07-11T09:01:06Z</time>
      </trkpt>
      <trkpt lat="48.749634" lon="7.622507">
        <ele>203.0</ele>
        <time>2020-07-11T09:01:08Z</time>
      </trkpt>
      <trkpt lat="48.749606" lon="7.622686">
        <ele>203.0</ele>
        <time>2020-07-11T09:01:10Z</time>
      </trkpt>
      <trkpt lat="48.749589" lon="7.622872">
        <ele>203.0</ele>
        <time>2020-07-11T09:01:12Z</time>
      </trkpt>
      <trkpt lat="48.749579" lon="7.623058">
        <ele>202.0</ele>
        <time>2020-07-11T09:01:14Z</time>
      </trkpt>
      <trkpt lat="48.749575" lon="7.623238">
        <ele>202.0</ele>
        <time>2020-07-11T09:01:16Z</time>
      </trkpt>
      <trkpt lat="48.749568" lon="7.62343">
        <ele>201.0</ele>
        <time>2020-07-11T09:01:18Z</time>
      </trkpt>
      <trkpt lat="48.749567" lon="7.623608">
        <ele>201.0</ele>
        <time>2020-07-11T09:01:20Z</time>
      </trkpt>
      <trkpt lat="48.749569" lon="7.623693">
        <ele>201.0</ele>
        <time>2020-07-11T09:01:21Z</time>
      </trkpt>
      <trkpt lat="48.749587" lon="7.62395">
        <ele>202.0</ele>
        <time>2020-07-11T09:01:24Z</time>
      </trkpt>
      <trkpt lat="48.7496" lon="7.624124">
        <ele>203.0</ele>
        <time>2020-07-11T09:01:26Z</time>
      </trkpt>
      <trkpt lat="48.749614" lon="7.624296">
        <ele>203.0</ele>
        <time>2020-07-11T09:01:28Z</time>
      </trkpt>
      <trkpt lat="48.749633" lon="7.624469">
        <ele>204.0</ele>
        <time>2020-07-11T09:01:30Z</time>
      </trkpt>
      <trkpt lat="48.749655" lon="7.624645">
        <ele>204.0</ele>
        <time>2020-07-11T09:01:32Z</time>
      </trkpt>
      <trkpt lat="48.749659" lon="7.624742">
        <ele>204.0</ele>
        <time>2020-07-11T09:01:33Z</time>
      </trkpt>
      <trkpt lat="48.749692" lon="7.624992">
        <ele>205.0</ele>
        <time>2020-07-11T09:01:36Z</time>
      </trkpt>
      <trkpt lat="48.749713" lon="7.62516">
        <ele>205.0</ele>
        <time>2020-07-11T09:01:38Z</time>
      </trkpt>
      <trkpt lat="48.74973" lon="7.62534">
        <ele>205.0</ele>
        <time>2020-07-11T09:01:40Z</time>
      </trkpt>
      <trkpt lat="48.749744" lon="7.625511">
        <ele>205.0</ele>
        <time>2020-07-11T09:01:42Z</time>
      </trkpt>
      <trkpt lat="48.749757" lon="7.625679">
        <ele>205.0</ele>
        <time>2020-07-11T09:01:44Z</time>
      </trkpt>
      <trkpt lat="48.749772" lon="7.625856">
        <ele>204.0</ele>
        <time>2020-07-11T09:01:46Z</time>
      </trkpt>
      <trkpt lat="48.749787" lon="7.626037">
        <ele>204.0</ele>
        <time>2020-07-11T09:01:48Z</time>
      </trkpt>
      <trkpt lat="48.749805" lon="7.626218">
        <ele>204.0</ele>
        <time>2020-07-11T09:01:50Z</time>
      </trkpt>
      <trkpt lat="48.749818" lon="7.626402">
        <ele>204.0</ele>
        <time>2020-07-11T09:01:52Z</time>
      </trkpt>
      <trkpt lat="48.749846" lon="7.626661">
        <ele>204.0</ele>
        <time>2020-07-11T09:01:55Z</time>
      </trkpt>
      <trkpt lat="48.749864" lon="7.626842">
        <ele>204.0</ele>
        <time>2020-07-11T09:01:57Z</time>
      </trkpt>
      <trkpt lat="48.749881" lon="7.627015">
        <ele>203.0</ele>
        <time>2020-07-11T09:01:59Z</time>
      </trkpt>
      <trkpt lat="48.7499" lon="7.627192">
        <ele>203.0</ele>
        <time>2020-07-11T09:02:01Z</time>
      </trkpt>
      <trkpt lat="48.749917" lon="7.627389">
        <ele>203.0</ele>
        <time>2020-07-11T09:02:03Z</time>
      </trkpt>
      <trkpt lat="48.749935" lon="7.62758">
        <ele>203.0</ele>
        <time>2020-07-11T09:02:05Z</time>
      </trkpt>
      <trkpt lat="48.749951" lon="7.627763">
        <ele>204.0</ele>
        <time>2020-07-11T09:02:07Z</time>
      </trkpt>
      <trkpt lat="48.749952" lon="7.627942">
        <ele>204.0</ele>
        <time>2020-07-11T09:02:09Z</time>
      </trkpt>
      <trkpt lat="48.749963" lon="7.628124">
        <ele>204.0</ele>
        <time>2020-07-11T09:02:11Z</time>
      </trkpt>
      <trkpt lat="48.749957" lon="7.628307">
        <ele>205.0</ele>
        <time>2020-07-11T09:02:13Z</time>
      </trkpt>
      <trkpt lat="48.749954" lon="7.628398">
        <ele>205.0</ele>
        <time>2020-07-11T09:02:14Z</time>
      </trkpt>
      <trkpt lat="48.749945" lon="7.62866">
        <ele>204.0</ele>
        <time>2020-07-11T09:02:17Z</time>
      </trkpt>
      <trkpt lat="48.74993" lon="7.628832">
        <ele>204.0</ele>
        <time>2020-07-11T09:02:19Z</time>
      </trkpt>
      <trkpt lat="48.749912" lon="7.628982">
        <ele>205.0</ele>
        <time>2020-07-11T09:02:21Z</time>
      </trkpt>
      <trkpt lat="48.749892" lon="7.629131">
        <ele>207.0</ele>
        <time>2020-07-11T09:02:24Z</time>
      </trkpt>
      <trkpt lat="48.749881" lon="7.629206">
        <ele>207.0</ele>
        <time>2020-07-11T09:02:26Z</time>
      </trkpt>
      <trkpt lat="48.74988" lon="7.629247">
        <ele>207.0</ele>
        <time>2020-07-11T09:02:27Z</time>
      </trkpt>
      <trkpt lat="48.749847" lon="7.629428">
        <ele>206.0</ele>
        <time>2020-07-11T09:02:30Z</time>
      </trkpt>
      <trkpt lat="48.749813" lon="7.629592">
        <ele>206.0</ele>
        <time>2020-07-11T09:02:32Z</time>
      </trkpt>
      <trkpt lat="48.749774" lon="7.62978">
        <ele>205.0</ele>
        <time>2020-07-11T09:02:34Z</time>
      </trkpt>
      <trkpt lat="48.749726" lon="7.629981">
        <ele>205.0</ele>
        <time>2020-07-11T09:02:36Z</time>
      </trkpt>
      <trkpt lat="48.74965" lon="7.63028">
        <ele>204.0</ele>
        <time>2020-07-11T09:02:39Z</time>
      </trkpt>
      <trkpt lat="48.749602" lon="7.630463">
        <ele>204.0</ele>
        <time>2020-07-11T09:02:41Z</time>
      </trkpt>
      <trkpt lat="48.749548" lon="7.630623">
        <ele>205.0</ele>
        <time>2020-07-11T09:02:43Z</time>
      </trkpt>
      <trkpt lat="48.749496" lon="7.630785">
        <ele>204.0</ele>
        <time>2020-07-11T09:02:45Z</time>
      </trkpt>
      <trkpt lat="48.74947" lon="7.630864">
        <ele>204.0</ele>
        <time>2020-07-11T09:02:46Z</time>
      </trkpt>
      <trkpt lat="48.749406" lon="7.631098">
        <ele>204.0</ele>
        <time>2020-07-11T09:02:49Z</time>
      </trkpt>
      <trkpt lat="48.749383" lon="7.631237">
        <ele>204.0</ele>
        <time>2020-07-11T09:02:51Z</time>
      </trkpt>
      <trkpt lat="48.749384" lon="7.631328">
        <ele>204.0</ele>
        <time>2020-07-11T09:02:53Z</time>
      </trkpt>
      <trkpt lat="48.749404" lon="7.631359">
        <ele>204.0</ele>
        <time>2020-07-11T09:02:55Z</time>
      </trkpt>
      <trkpt lat="48.749391" lon="7.631398">
        <ele>204.0</ele>
        <time>2020-07-11T09:02:57Z</time>
      </trkpt>
      <trkpt lat="48.74939" lon="7.631401">
        <ele>204.0</ele>
        <time>2020-07-11T09:02:58Z</time>
      </trkpt>
      <trkpt lat="48.74939" lon="7.631409">
        <ele>202.0</ele>
        <time>2020-07-11T09:03:01Z</time>
      </trkpt>
      <trkpt lat="48.749389" lon="7.631408">
        <ele>202.0</ele>
        <time>2020-07-11T09:03:04Z</time>
      </trkpt>
      <trkpt lat="48.749384" lon="7.631411">
        <ele>204.0</ele>
        <time>2020-07-11T09:31:41Z</time>
      </trkpt>
      <trkpt lat="48.749378" lon="7.631399">
        <ele>204.0</ele>
        <time>2020-07-11T09:31:43Z</time>
      </trkpt>
      <trkpt lat="48.749381" lon="7.631403">
        <ele>204.0</ele>
        <time>2020-07-11T09:31:45Z</time>
      </trkpt>
      <trkpt lat="48.749388" lon="7.631389">
        <ele>205.0</ele>
        <time>2020-07-11T09:31:47Z</time>
      </trkpt>
      <trkpt lat="48.749388" lon="7.631389">
        <ele>205.0</ele>
        <time>2020-07-11T09:31:49Z</time>
      </trkpt>
      <trkpt lat="48.749388" lon="7.631389">
        <ele>205.0</ele>
        <time>2020-07-11T09:31:51Z</time>
      </trkpt>
      <trkpt lat="48.749388" lon="7.631389">
        <ele>205.0</ele>
        <time>2020-07-11T09:31:53Z</time>
      </trkpt>
      <trkpt lat="48.749388" lon="7.631389">
        <ele>205.0</ele>
        <time>2020-07-11T09:31:55Z</time>
      </trkpt>
      <trkpt lat="48.749395" lon="7.631379">
        <ele>205.0</ele>
        <time>2020-07-11T09:31:57Z</time>
      </trkpt>
      <trkpt lat="48.749397" lon="7.631382">
        <ele>205.0</ele>
        <time>2020-07-11T09:31:59Z</time>
      </trkpt>
      <trkpt lat="48.749394" lon="7.631394">
        <ele>204.0</ele>
        <time>2020-07-11T09:32:02Z</time>
      </trkpt>
      <trkpt lat="48.749396" lon="7.631419">
        <ele>204.0</ele>
        <time>2020-07-11T09:32:04Z</time>
      </trkpt>
      <trkpt lat="48.749388" lon="7.631479">
        <ele>204.0</ele>
        <time>2020-07-11T09:32:06Z</time>
      </trkpt>
      <trkpt lat="48.749378" lon="7.631514">
        <ele>203.0</ele>
        <time>2020-07-11T09:32:07Z</time>
      </trkpt>
      <trkpt lat="48.749333" lon="7.631694">
        <ele>204.0</ele>
        <time>2020-07-11T09:32:11Z</time>
      </trkpt>
      <trkpt lat="48.749302" lon="7.631786">
        <ele>204.0</ele>
        <time>2020-07-11T09:32:13Z</time>
      </trkpt>
      <trkpt lat="48.749257" lon="7.631873">
        <ele>203.0</ele>
        <time>2020-07-11T09:32:15Z</time>
      </trkpt>
      <trkpt lat="48.749213" lon="7.631983">
        <ele>203.0</ele>
        <time>2020-07-11T09:32:17Z</time>
      </trkpt>
      <trkpt lat="48.749171" lon="7.632086">
        <ele>202.0</ele>
        <time>2020-07-11T09:32:19Z</time>
      </trkpt>
      <trkpt lat="48.749124" lon="7.632189">
        <ele>202.0</ele>
        <time>2020-07-11T09:32:21Z</time>
      </trkpt>
      <trkpt lat="48.749077" lon="7.632291">
        <ele>201.0</ele>
        <time>2020-07-11T09:32:23Z</time>
      </trkpt>
      <trkpt lat="48.749038" lon="7.632386">
        <ele>201.0</ele>
        <time>2020-07-11T09:32:25Z</time>
      </trkpt>
      <trkpt lat="48.74898" lon="7.632509">
        <ele>202.0</ele>
        <time>2020-07-11T09:32:28Z</time>
      </trkpt>
      <trkpt lat="48.748945" lon="7.63258">
        <ele>202.0</ele>
        <time>2020-07-11T09:32:30Z</time>
      </trkpt>
      <trkpt lat="48.748915" lon="7.632631">
        <ele>202.0</ele>
        <time>2020-07-11T09:32:32Z</time>
      </trkpt>
      <trkpt lat="48.748902" lon="7.63269">
        <ele>202.0</ele>
        <time>2020-07-11T09:32:34Z</time>
      </trkpt>
      <trkpt lat="48.748891" lon="7.632754">
        <ele>202.0</ele>
        <time>2020-07-11T09:32:36Z</time>
      </trkpt>
      <trkpt lat="48.748869" lon="7.632834">
        <ele>202.0</ele>
        <time>2020-07-11T09:32:38Z</time>
      </trkpt>
      <trkpt lat="48.748824" lon="7.632972">
        <ele>202.0</ele>
        <time>2020-07-11T09:32:40Z</time>
      </trkpt>
      <trkpt lat="48.748753" lon="7.633151">
        <ele>201.0</ele>
        <time>2020-07-11T09:32:42Z</time>
      </trkpt>
      <trkpt lat="48.748629" lon="7.633399">
        <ele>200.0</ele>
        <time>2020-07-11T09:32:45Z</time>
      </trkpt>
      <trkpt lat="48.74854" lon="7.633569">
        <ele>200.0</ele>
        <time>2020-07-11T09:32:47Z</time>
      </trkpt>
      <trkpt lat="48.748497" lon="7.633653">
        <ele>200.0</ele>
        <time>2020-07-11T09:32:48Z</time>
      </trkpt>
      <trkpt lat="48.748361" lon="7.633872">
        <ele>201.0</ele>
        <time>2020-07-11T09:32:51Z</time>
      </trkpt>
      <trkpt lat="48.748274" lon="7.633997">
        <ele>201.0</ele>
        <time>2020-07-11T09:32:53Z</time>
      </trkpt>
      <trkpt lat="48.748188" lon="7.634115">
        <ele>202.0</ele>
        <time>2020-07-11T09:32:55Z</time>
      </trkpt>
      <trkpt lat="48.748059" lon="7.634269">
        <ele>202.0</ele>
        <time>2020-07-11T09:32:58Z</time>
      </trkpt>
      <trkpt lat="48.747967" lon="7.634372">
        <ele>201.0</ele>
        <time>2020-07-11T09:33:00Z</time>
      </trkpt>
      <trkpt lat="48.747924" lon="7.634424">
        <ele>201.0</ele>
        <time>2020-07-11T09:33:01Z</time>
      </trkpt>
      <trkpt lat="48.747796" lon="7.63459">
        <ele>201.0</ele>
        <time>2020-07-11T09:33:04Z</time>
      </trkpt>
      <trkpt lat="48.747704" lon="7.634693">
        <ele>201.0</ele>
        <time>2020-07-11T09:33:06Z</time>
      </trkpt>
      <trkpt lat="48.747611" lon="7.634807">
        <ele>201.0</ele>
        <time>2020-07-11T09:33:08Z</time>
      </trkpt>
      <trkpt lat="48.747515" lon="7.634929">
        <ele>201.0</ele>
        <time>2020-07-11T09:33:10Z</time>
      </trkpt>
      <trkpt lat="48.747416" lon="7.635053">
        <ele>201.0</ele>
        <time>2020-07-11T09:33:12Z</time>
      </trkpt>
      <trkpt lat="48.747323" lon="7.635172">
        <ele>200.0</ele>
        <time>2020-07-11T09:33:14Z</time>
      </trkpt>
      <trkpt lat="48.747223" lon="7.635283">
        <ele>201.0</ele>
        <time>2020-07-11T09:33:16Z</time>
      </trkpt>
      <trkpt lat="48.747123" lon="7.635396">
        <ele>201.0</ele>
        <time>2020-07-11T09:33:18Z</time>
      </trkpt>
      <trkpt lat="48.747024" lon="7.635509">
        <ele>200.0</ele>
        <time>2020-07-11T09:33:20Z</time>
      </trkpt>
      <trkpt lat="48.746914" lon="7.635628">
        <ele>199.0</ele>
        <time>2020-07-11T09:33:22Z</time>
      </trkpt>
      <trkpt lat="48.746813" lon="7.635741">
        <ele>199.0</ele>
        <time>2020-07-11T09:33:24Z</time>
      </trkpt>
      <trkpt lat="48.746714" lon="7.635866">
        <ele>199.0</ele>
        <time>2020-07-11T09:33:26Z</time>
      </trkpt>
      <trkpt lat="48.746622" lon="7.635992">
        <ele>199.0</ele>
        <time>2020-07-11T09:33:28Z</time>
      </trkpt>
      <trkpt lat="48.74653" lon="7.636113">
        <ele>200.0</ele>
        <time>2020-07-11T09:33:30Z</time>
      </trkpt>
      <trkpt lat="48.746444" lon="7.636224">
        <ele>199.0</ele>
        <time>2020-07-11T09:33:32Z</time>
      </trkpt>
      <trkpt lat="48.746355" lon="7.636349">
        <ele>199.0</ele>
        <time>2020-07-11T09:33:34Z</time>
      </trkpt>
      <trkpt lat="48.746265" lon="7.636475">
        <ele>199.0</ele>
        <time>2020-07-11T09:33:36Z</time>
      </trkpt>
      <trkpt lat="48.746135" lon="7.636641">
        <ele>199.0</ele>
        <time>2020-07-11T09:33:39Z</time>
      </trkpt>
      <trkpt lat="48.746048" lon="7.636756">
        <ele>199.0</ele>
        <time>2020-07-11T09:33:41Z</time>
      </trkpt>
      <trkpt lat="48.745954" lon="7.636872">
        <ele>199.0</ele>
        <time>2020-07-11T09:33:43Z</time>
      </trkpt>
      <trkpt lat="48.745863" lon="7.636994">
        <ele>199.0</ele>
        <time>2020-07-11T09:33:45Z</time>
      </trkpt>
      <trkpt lat="48.745775" lon="7.637124">
        <ele>199.0</ele>
        <time>2020-07-11T09:33:47Z</time>
      </trkpt>
      <trkpt lat="48.745635" lon="7.637308">
        <ele>200.0</ele>
        <time>2020-07-11T09:33:50Z</time>
      </trkpt>
      <trkpt lat="48.74559" lon="7.637365">
        <ele>200.0</ele>
        <time>2020-07-11T09:33:51Z</time>
      </trkpt>
      <trkpt lat="48.745455" lon="7.63753">
        <ele>200.0</ele>
        <time>2020-07-11T09:33:54Z</time>
      </trkpt>
      <trkpt lat="48.74537" lon="7.637643">
        <ele>200.0</ele>
        <time>2020-07-11T09:33:56Z</time>
      </trkpt>
      <trkpt lat="48.745285" lon="7.637748">
        <ele>200.0</ele>
        <time>2020-07-11T09:33:58Z</time>
      </trkpt>
      <trkpt lat="48.745202" lon="7.637867">
        <ele>200.0</ele>
        <time>2020-07-11T09:34:00Z</time>
      </trkpt>
      <trkpt lat="48.745115" lon="7.637974">
        <ele>200.0</ele>
        <time>2020-07-11T09:34:02Z</time>
      </trkpt>
      <trkpt lat="48.745026" lon="7.638094">
        <ele>200.0</ele>
        <time>2020-07-11T09:34:04Z</time>
      </trkpt>
      <trkpt lat="48.744942" lon="7.638212">
        <ele>200.0</ele>
        <time>2020-07-11T09:34:06Z</time>
      </trkpt>
      <trkpt lat="48.744857" lon="7.638327">
        <ele>200.0</ele>
        <time>2020-07-11T09:34:08Z</time>
      </trkpt>
      <trkpt lat="48.744714" lon="7.638516">
        <ele>200.0</ele>
        <time>2020-07-11T09:34:11Z</time>
      </trkpt>
      <trkpt lat="48.744623" lon="7.638633">
        <ele>200.0</ele>
        <time>2020-07-11T09:34:13Z</time>
      </trkpt>
      <trkpt lat="48.74458" lon="7.63869">
        <ele>200.0</ele>
        <time>2020-07-11T09:34:14Z</time>
      </trkpt>
      <trkpt lat="48.744444" lon="7.638863">
        <ele>200.0</ele>
        <time>2020-07-11T09:34:17Z</time>
      </trkpt>
      <trkpt lat="48.744359" lon="7.638985">
        <ele>201.0</ele>
        <time>2020-07-11T09:34:19Z</time>
      </trkpt>
      <trkpt lat="48.744234" lon="7.639171">
        <ele>201.0</ele>
        <time>2020-07-11T09:34:22Z</time>
      </trkpt>
      <trkpt lat="48.744153" lon="7.639304">
        <ele>201.0</ele>
        <time>2020-07-11T09:34:24Z</time>
      </trkpt>
      <trkpt lat="48.744079" lon="7.639438">
        <ele>202.0</ele>
        <time>2020-07-11T09:34:26Z</time>
      </trkpt>
      <trkpt lat="48.743961" lon="7.639638">
        <ele>201.0</ele>
        <time>2020-07-11T09:34:29Z</time>
      </trkpt>
      <trkpt lat="48.743884" lon="7.639781">
        <ele>201.0</ele>
        <time>2020-07-11T09:34:31Z</time>
      </trkpt>
      <trkpt lat="48.743809" lon="7.639919">
        <ele>201.0</ele>
        <time>2020-07-11T09:34:33Z</time>
      </trkpt>
      <trkpt lat="48.74373" lon="7.640056">
        <ele>201.0</ele>
        <time>2020-07-11T09:34:35Z</time>
      </trkpt>
      <trkpt lat="48.743615" lon="7.640263">
        <ele>201.0</ele>
        <time>2020-07-11T09:34:38Z</time>
      </trkpt>
      <trkpt lat="48.743542" lon="7.640404">
        <ele>201.0</ele>
        <time>2020-07-11T09:34:40Z</time>
      </trkpt>
      <trkpt lat="48.743465" lon="7.640548">
        <ele>201.0</ele>
        <time>2020-07-11T09:34:42Z</time>
      </trkpt>
      <trkpt lat="48.743391" lon="7.640694">
        <ele>201.0</ele>
        <time>2020-07-11T09:34:44Z</time>
      </trkpt>
      <trkpt lat="48.743311" lon="7.640833">
        <ele>200.0</ele>
        <time>2020-07-11T09:34:46Z</time>
      </trkpt>
      <trkpt lat="48.743233" lon="7.640979">
        <ele>201.0</ele>
        <time>2020-07-11T09:34:48Z</time>
      </trkpt>
      <trkpt lat="48.743158" lon="7.641128">
        <ele>201.0</ele>
        <time>2020-07-11T09:34:50Z</time>
      </trkpt>
      <trkpt lat="48.743082" lon="7.641278">
        <ele>201.0</ele>
        <time>2020-07-11T09:34:52Z</time>
      </trkpt>
      <trkpt lat="48.743003" lon="7.641422">
        <ele>201.0</ele>
        <time>2020-07-11T09:34:54Z</time>
      </trkpt>
      <trkpt lat="48.742963" lon="7.641493">
        <ele>201.0</ele>
        <time>2020-07-11T09:34:55Z</time>
      </trkpt>
      <trkpt lat="48.742843" lon="7.64171">
        <ele>201.0</ele>
        <time>2020-07-11T09:34:58Z</time>
      </trkpt>
      <trkpt lat="48.74277" lon="7.641851">
        <ele>201.0</ele>
        <time>2020-07-11T09:35:00Z</time>
      </trkpt>
      <trkpt lat="48.742699" lon="7.641997">
        <ele>201.0</ele>
        <time>2020-07-11T09:35:02Z</time>
      </trkpt>
      <trkpt lat="48.742625" lon="7.642148">
        <ele>200.0</ele>
        <time>2020-07-11T09:35:04Z</time>
      </trkpt>
      <trkpt lat="48.742551" lon="7.642293">
        <ele>200.0</ele>
        <time>2020-07-11T09:35:06Z</time>
      </trkpt>
      <trkpt lat="48.742432" lon="7.642508">
        <ele>200.0</ele>
        <time>2020-07-11T09:35:09Z</time>
      </trkpt>
      <trkpt lat="48.742353" lon="7.642663">
        <ele>200.0</ele>
        <time>2020-07-11T09:35:11Z</time>
      </trkpt>
      <trkpt lat="48.742275" lon="7.642804">
        <ele>200.0</ele>
        <time>2020-07-11T09:35:13Z</time>
      </trkpt>
      <trkpt lat="48.742197" lon="7.642945">
        <ele>200.0</ele>
        <time>2020-07-11T09:35:15Z</time>
      </trkpt>
      <trkpt lat="48.742089" lon="7.64315">
        <ele>201.0</ele>
        <time>2020-07-11T09:35:18Z</time>
      </trkpt>
      <trkpt lat="48.742053" lon="7.643215">
        <ele>201.0</ele>
        <time>2020-07-11T09:35:19Z</time>
      </trkpt>
      <trkpt lat="48.741946" lon="7.643406">
        <ele>200.0</ele>
        <time>2020-07-11T09:35:22Z</time>
      </trkpt>
      <trkpt lat="48.741838" lon="7.64361">
        <ele>199.0</ele>
        <time>2020-07-11T09:35:25Z</time>
      </trkpt>
      <trkpt lat="48.741762" lon="7.643771">
        <ele>198.0</ele>
        <time>2020-07-11T09:35:27Z</time>
      </trkpt>
      <trkpt lat="48.741669" lon="7.64394">
        <ele>197.0</ele>
        <time>2020-07-11T09:35:29Z</time>
      </trkpt>
      <trkpt lat="48.741579" lon="7.6441">
        <ele>197.0</ele>
        <time>2020-07-11T09:35:31Z</time>
      </trkpt>
      <trkpt lat="48.741493" lon="7.64426">
        <ele>198.0</ele>
        <time>2020-07-11T09:35:33Z</time>
      </trkpt>
      <trkpt lat="48.741403" lon="7.644422">
        <ele>198.0</ele>
        <time>2020-07-11T09:35:35Z</time>
      </trkpt>
      <trkpt lat="48.741313" lon="7.644579">
        <ele>198.0</ele>
        <time>2020-07-11T09:35:37Z</time>
      </trkpt>
      <trkpt lat="48.741229" lon="7.644741">
        <ele>198.0</ele>
        <time>2020-07-11T09:35:39Z</time>
      </trkpt>
      <trkpt lat="48.741142" lon="7.644903">
        <ele>198.0</ele>
        <time>2020-07-11T09:35:41Z</time>
      </trkpt>
      <trkpt lat="48.74106" lon="7.645062">
        <ele>198.0</ele>
        <time>2020-07-11T09:35:43Z</time>
      </trkpt>
      <trkpt lat="48.740938" lon="7.645294">
        <ele>198.0</ele>
        <time>2020-07-11T09:35:46Z</time>
      </trkpt>
      <trkpt lat="48.740858" lon="7.645452">
        <ele>198.0</ele>
        <time>2020-07-11T09:35:48Z</time>
      </trkpt>
      <trkpt lat="48.740775" lon="7.645603">
        <ele>198.0</ele>
        <time>2020-07-11T09:35:50Z</time>
      </trkpt>
      <trkpt lat="48.740694" lon="7.645753">
        <ele>198.0</ele>
        <time>2020-07-11T09:35:52Z</time>
      </trkpt>
      <trkpt lat="48.740615" lon="7.645915">
        <ele>198.0</ele>
        <time>2020-07-11T09:35:54Z</time>
      </trkpt>
      <trkpt lat="48.740538" lon="7.646059">
        <ele>197.0</ele>
        <time>2020-07-11T09:35:56Z</time>
      </trkpt>
      <trkpt lat="48.740458" lon="7.646207">
        <ele>198.0</ele>
        <time>2020-07-11T09:35:58Z</time>
      </trkpt>
      <trkpt lat="48.740336" lon="7.646429">
        <ele>198.0</ele>
        <time>2020-07-11T09:36:01Z</time>
      </trkpt>
      <trkpt lat="48.74026" lon="7.646574">
        <ele>197.0</ele>
        <time>2020-07-11T09:36:03Z</time>
      </trkpt>
      <trkpt lat="48.740181" lon="7.646722">
        <ele>198.0</ele>
        <time>2020-07-11T09:36:05Z</time>
      </trkpt>
      <trkpt lat="48.7401" lon="7.64687">
        <ele>198.0</ele>
        <time>2020-07-11T09:36:07Z</time>
      </trkpt>
      <trkpt lat="48.740028" lon="7.647015">
        <ele>198.0</ele>
        <time>2020-07-11T09:36:09Z</time>
      </trkpt>
      <trkpt lat="48.739949" lon="7.647161">
        <ele>198.0</ele>
        <time>2020-07-11T09:36:11Z</time>
      </trkpt>
      <trkpt lat="48.739875" lon="7.647318">
        <ele>198.0</ele>
        <time>2020-07-11T09:36:13Z</time>
      </trkpt>
      <trkpt lat="48.739796" lon="7.647465">
        <ele>197.0</ele>
        <time>2020-07-11T09:36:15Z</time>
      </trkpt>
      <trkpt lat="48.739715" lon="7.647608">
        <ele>197.0</ele>
        <time>2020-07-11T09:36:17Z</time>
      </trkpt>
      <trkpt lat="48.739638" lon="7.647754">
        <ele>197.0</ele>
        <time>2020-07-11T09:36:19Z</time>
      </trkpt>
      <trkpt lat="48.739555" lon="7.647899">
        <ele>197.0</ele>
        <time>2020-07-11T09:36:21Z</time>
      </trkpt>
      <trkpt lat="48.73943" lon="7.648115">
        <ele>198.0</ele>
        <time>2020-07-11T09:36:24Z</time>
      </trkpt>
      <trkpt lat="48.739355" lon="7.648252">
        <ele>197.0</ele>
        <time>2020-07-11T09:36:26Z</time>
      </trkpt>
      <trkpt lat="48.739285" lon="7.648396">
        <ele>197.0</ele>
        <time>2020-07-11T09:36:28Z</time>
      </trkpt>
      <trkpt lat="48.739245" lon="7.648468">
        <ele>197.0</ele>
        <time>2020-07-11T09:36:29Z</time>
      </trkpt>
      <trkpt lat="48.739129" lon="7.648691">
        <ele>198.0</ele>
        <time>2020-07-11T09:36:32Z</time>
      </trkpt>
      <trkpt lat="48.739056" lon="7.648839">
        <ele>197.0</ele>
        <time>2020-07-11T09:36:34Z</time>
      </trkpt>
      <trkpt lat="48.738981" lon="7.648983">
        <ele>198.0</ele>
        <time>2020-07-11T09:36:36Z</time>
      </trkpt>
      <trkpt lat="48.738871" lon="7.649189">
        <ele>198.0</ele>
        <time>2020-07-11T09:36:39Z</time>
      </trkpt>
      <trkpt lat="48.7388" lon="7.649327">
        <ele>198.0</ele>
        <time>2020-07-11T09:36:41Z</time>
      </trkpt>
      <trkpt lat="48.738726" lon="7.649461">
        <ele>198.0</ele>
        <time>2020-07-11T09:36:43Z</time>
      </trkpt>
      <trkpt lat="48.738648" lon="7.649591">
        <ele>198.0</ele>
        <time>2020-07-11T09:36:45Z</time>
      </trkpt>
      <trkpt lat="48.738533" lon="7.64979">
        <ele>197.0</ele>
        <time>2020-07-11T09:36:48Z</time>
      </trkpt>
      <trkpt lat="48.73846" lon="7.649932">
        <ele>197.0</ele>
        <time>2020-07-11T09:36:50Z</time>
      </trkpt>
      <trkpt lat="48.738387" lon="7.650072">
        <ele>197.0</ele>
        <time>2020-07-11T09:36:52Z</time>
      </trkpt>
      <trkpt lat="48.738313" lon="7.650216">
        <ele>198.0</ele>
        <time>2020-07-11T09:36:54Z</time>
      </trkpt>
      <trkpt lat="48.738246" lon="7.650361">
        <ele>198.0</ele>
        <time>2020-07-11T09:36:56Z</time>
      </trkpt>
      <trkpt lat="48.738176" lon="7.650495">
        <ele>198.0</ele>
        <time>2020-07-11T09:36:58Z</time>
      </trkpt>
      <trkpt lat="48.738068" lon="7.650706">
        <ele>199.0</ele>
        <time>2020-07-11T09:37:01Z</time>
      </trkpt>
      <trkpt lat="48.737992" lon="7.650842">
        <ele>199.0</ele>
        <time>2020-07-11T09:37:03Z</time>
      </trkpt>
      <trkpt lat="48.737921" lon="7.650983">
        <ele>198.0</ele>
        <time>2020-07-11T09:37:05Z</time>
      </trkpt>
      <trkpt lat="48.737851" lon="7.651119">
        <ele>199.0</ele>
        <time>2020-07-11T09:37:07Z</time>
      </trkpt>
      <trkpt lat="48.737746" lon="7.651314">
        <ele>199.0</ele>
        <time>2020-07-11T09:37:10Z</time>
      </trkpt>
      <trkpt lat="48.737677" lon="7.651446">
        <ele>199.0</ele>
        <time>2020-07-11T09:37:12Z</time>
      </trkpt>
      <trkpt lat="48.737607" lon="7.651582">
        <ele>199.0</ele>
        <time>2020-07-11T09:37:14Z</time>
      </trkpt>
      <trkpt lat="48.737534" lon="7.651718">
        <ele>199.0</ele>
        <time>2020-07-11T09:37:16Z</time>
      </trkpt>
      <trkpt lat="48.737444" lon="7.651855">
        <ele>199.0</ele>
        <time>2020-07-11T09:37:18Z</time>
      </trkpt>
      <trkpt lat="48.737365" lon="7.651976">
        <ele>199.0</ele>
        <time>2020-07-11T09:37:20Z</time>
      </trkpt>
      <trkpt lat="48.737295" lon="7.652081">
        <ele>200.0</ele>
        <time>2020-07-11T09:37:22Z</time>
      </trkpt>
      <trkpt lat="48.737227" lon="7.652182">
        <ele>200.0</ele>
        <time>2020-07-11T09:37:24Z</time>
      </trkpt>
      <trkpt lat="48.737161" lon="7.652268">
        <ele>200.0</ele>
        <time>2020-07-11T09:37:26Z</time>
      </trkpt>
      <trkpt lat="48.737099" lon="7.652357">
        <ele>200.0</ele>
        <time>2020-07-11T09:37:28Z</time>
      </trkpt>
      <trkpt lat="48.737031" lon="7.652514">
        <ele>199.0</ele>
        <time>2020-07-11T09:37:31Z</time>
      </trkpt>
      <trkpt lat="48.736943" lon="7.652719">
        <ele>198.0</ele>
        <time>2020-07-11T09:37:34Z</time>
      </trkpt>
      <trkpt lat="48.736874" lon="7.652863">
        <ele>196.0</ele>
        <time>2020-07-11T09:37:36Z</time>
      </trkpt>
      <trkpt lat="48.736795" lon="7.653034">
        <ele>196.0</ele>
        <time>2020-07-11T09:37:38Z</time>
      </trkpt>
      <trkpt lat="48.736713" lon="7.653199">
        <ele>196.0</ele>
        <time>2020-07-11T09:37:40Z</time>
      </trkpt>
      <trkpt lat="48.736605" lon="7.653443">
        <ele>196.0</ele>
        <time>2020-07-11T09:37:43Z</time>
      </trkpt>
      <trkpt lat="48.73653" lon="7.6536">
        <ele>196.0</ele>
        <time>2020-07-11T09:37:45Z</time>
      </trkpt>
      <trkpt lat="48.736492" lon="7.653674">
        <ele>196.0</ele>
        <time>2020-07-11T09:37:46Z</time>
      </trkpt>
      <trkpt lat="48.736337" lon="7.653965">
        <ele>197.0</ele>
        <time>2020-07-11T09:37:50Z</time>
      </trkpt>
      <trkpt lat="48.73626" lon="7.654114">
        <ele>198.0</ele>
        <time>2020-07-11T09:37:52Z</time>
      </trkpt>
      <trkpt lat="48.736145" lon="7.654326">
        <ele>198.0</ele>
        <time>2020-07-11T09:37:55Z</time>
      </trkpt>
      <trkpt lat="48.736069" lon="7.654468">
        <ele>198.0</ele>
        <time>2020-07-11T09:37:57Z</time>
      </trkpt>
      <trkpt lat="48.735995" lon="7.654604">
        <ele>198.0</ele>
        <time>2020-07-11T09:37:59Z</time>
      </trkpt>
      <trkpt lat="48.735926" lon="7.654735">
        <ele>198.0</ele>
        <time>2020-07-11T09:38:01Z</time>
      </trkpt>
      <trkpt lat="48.735888" lon="7.654807">
        <ele>198.0</ele>
        <time>2020-07-11T09:38:02Z</time>
      </trkpt>
      <trkpt lat="48.735774" lon="7.655026">
        <ele>199.0</ele>
        <time>2020-07-11T09:38:05Z</time>
      </trkpt>
      <trkpt lat="48.735698" lon="7.655168">
        <ele>199.0</ele>
        <time>2020-07-11T09:38:07Z</time>
      </trkpt>
      <trkpt lat="48.735617" lon="7.655313">
        <ele>199.0</ele>
        <time>2020-07-11T09:38:09Z</time>
      </trkpt>
      <trkpt lat="48.735543" lon="7.655454">
        <ele>199.0</ele>
        <time>2020-07-11T09:38:11Z</time>
      </trkpt>
      <trkpt lat="48.735464" lon="7.655596">
        <ele>199.0</ele>
        <time>2020-07-11T09:38:13Z</time>
      </trkpt>
      <trkpt lat="48.735387" lon="7.655737">
        <ele>199.0</ele>
        <time>2020-07-11T09:38:15Z</time>
      </trkpt>
      <trkpt lat="48.735308" lon="7.655878">
        <ele>198.0</ele>
        <time>2020-07-11T09:38:17Z</time>
      </trkpt>
      <trkpt lat="48.735228" lon="7.656021">
        <ele>198.0</ele>
        <time>2020-07-11T09:38:19Z</time>
      </trkpt>
      <trkpt lat="48.735155" lon="7.656165">
        <ele>198.0</ele>
        <time>2020-07-11T09:38:21Z</time>
      </trkpt>
      <trkpt lat="48.735081" lon="7.656308">
        <ele>199.0</ele>
        <time>2020-07-11T09:38:23Z</time>
      </trkpt>
      <trkpt lat="48.735004" lon="7.656449">
        <ele>199.0</ele>
        <time>2020-07-11T09:38:25Z</time>
      </trkpt>
      <trkpt lat="48.734931" lon="7.656596">
        <ele>199.0</ele>
        <time>2020-07-11T09:38:27Z</time>
      </trkpt>
      <trkpt lat="48.734852" lon="7.656742">
        <ele>198.0</ele>
        <time>2020-07-11T09:38:29Z</time>
      </trkpt>
      <trkpt lat="48.734775" lon="7.656888">
        <ele>198.0</ele>
        <time>2020-07-11T09:38:31Z</time>
      </trkpt>
      <trkpt lat="48.734655" lon="7.657108">
        <ele>198.0</ele>
        <time>2020-07-11T09:38:34Z</time>
      </trkpt>
      <trkpt lat="48.734575" lon="7.65725">
        <ele>198.0</ele>
        <time>2020-07-11T09:38:36Z</time>
      </trkpt>
      <trkpt lat="48.734497" lon="7.657396">
        <ele>198.0</ele>
        <time>2020-07-11T09:38:38Z</time>
      </trkpt>
      <trkpt lat="48.734424" lon="7.657538">
        <ele>198.0</ele>
        <time>2020-07-11T09:38:40Z</time>
      </trkpt>
      <trkpt lat="48.734351" lon="7.657682">
        <ele>198.0</ele>
        <time>2020-07-11T09:38:42Z</time>
      </trkpt>
      <trkpt lat="48.734278" lon="7.657821">
        <ele>198.0</ele>
        <time>2020-07-11T09:38:44Z</time>
      </trkpt>
      <trkpt lat="48.734175" lon="7.658027">
        <ele>198.0</ele>
        <time>2020-07-11T09:38:47Z</time>
      </trkpt>
      <trkpt lat="48.7341" lon="7.658163">
        <ele>198.0</ele>
        <time>2020-07-11T09:38:49Z</time>
      </trkpt>
      <trkpt lat="48.73403" lon="7.658293">
        <ele>198.0</ele>
        <time>2020-07-11T09:38:51Z</time>
      </trkpt>
      <trkpt lat="48.733959" lon="7.658426">
        <ele>198.0</ele>
        <time>2020-07-11T09:38:53Z</time>
      </trkpt>
      <trkpt lat="48.733887" lon="7.658561">
        <ele>199.0</ele>
        <time>2020-07-11T09:38:55Z</time>
      </trkpt>
      <trkpt lat="48.733772" lon="7.658766">
        <ele>198.0</ele>
        <time>2020-07-11T09:38:58Z</time>
      </trkpt>
      <trkpt lat="48.733699" lon="7.658905">
        <ele>198.0</ele>
        <time>2020-07-11T09:39:00Z</time>
      </trkpt>
      <trkpt lat="48.733636" lon="7.659043">
        <ele>198.0</ele>
        <time>2020-07-11T09:39:02Z</time>
      </trkpt>
      <trkpt lat="48.733527" lon="7.659237">
        <ele>199.0</ele>
        <time>2020-07-11T09:39:05Z</time>
      </trkpt>
      <trkpt lat="48.733453" lon="7.659373">
        <ele>199.0</ele>
        <time>2020-07-11T09:39:07Z</time>
      </trkpt>
      <trkpt lat="48.733383" lon="7.659498">
        <ele>199.0</ele>
        <time>2020-07-11T09:39:09Z</time>
      </trkpt>
      <trkpt lat="48.733349" lon="7.659563">
        <ele>199.0</ele>
        <time>2020-07-11T09:39:10Z</time>
      </trkpt>
      <trkpt lat="48.733244" lon="7.659756">
        <ele>199.0</ele>
        <time>2020-07-11T09:39:13Z</time>
      </trkpt>
      <trkpt lat="48.733141" lon="7.659955">
        <ele>199.0</ele>
        <time>2020-07-11T09:39:16Z</time>
      </trkpt>
      <trkpt lat="48.733078" lon="7.660084">
        <ele>199.0</ele>
        <time>2020-07-11T09:39:18Z</time>
      </trkpt>
      <trkpt lat="48.733011" lon="7.660215">
        <ele>199.0</ele>
        <time>2020-07-11T09:39:20Z</time>
      </trkpt>
      <trkpt lat="48.73294" lon="7.660348">
        <ele>199.0</ele>
        <time>2020-07-11T09:39:22Z</time>
      </trkpt>
      <trkpt lat="48.73283" lon="7.660534">
        <ele>199.0</ele>
        <time>2020-07-11T09:39:25Z</time>
      </trkpt>
      <trkpt lat="48.732765" lon="7.660655">
        <ele>199.0</ele>
        <time>2020-07-11T09:39:27Z</time>
      </trkpt>
      <trkpt lat="48.732668" lon="7.660846">
        <ele>199.0</ele>
        <time>2020-07-11T09:39:30Z</time>
      </trkpt>
      <trkpt lat="48.732603" lon="7.660984">
        <ele>199.0</ele>
        <time>2020-07-11T09:39:32Z</time>
      </trkpt>
      <trkpt lat="48.732541" lon="7.661118">
        <ele>199.0</ele>
        <time>2020-07-11T09:39:34Z</time>
      </trkpt>
      <trkpt lat="48.732476" lon="7.661243">
        <ele>198.0</ele>
        <time>2020-07-11T09:39:36Z</time>
      </trkpt>
      <trkpt lat="48.73241" lon="7.661369">
        <ele>198.0</ele>
        <time>2020-07-11T09:39:38Z</time>
      </trkpt>
      <trkpt lat="48.732346" lon="7.661498">
        <ele>199.0</ele>
        <time>2020-07-11T09:39:40Z</time>
      </trkpt>
      <trkpt lat="48.732289" lon="7.66163">
        <ele>199.0</ele>
        <time>2020-07-11T09:39:42Z</time>
      </trkpt>
      <trkpt lat="48.732225" lon="7.661756">
        <ele>199.0</ele>
        <time>2020-07-11T09:39:44Z</time>
      </trkpt>
      <trkpt lat="48.732164" lon="7.661889">
        <ele>199.0</ele>
        <time>2020-07-11T09:39:46Z</time>
      </trkpt>
      <trkpt lat="48.732059" lon="7.66209">
        <ele>198.0</ele>
        <time>2020-07-11T09:39:49Z</time>
      </trkpt>
      <trkpt lat="48.731988" lon="7.662216">
        <ele>198.0</ele>
        <time>2020-07-11T09:39:51Z</time>
      </trkpt>
      <trkpt lat="48.731925" lon="7.662351">
        <ele>198.0</ele>
        <time>2020-07-11T09:39:53Z</time>
      </trkpt>
      <trkpt lat="48.731874" lon="7.662496">
        <ele>198.0</ele>
        <time>2020-07-11T09:39:55Z</time>
      </trkpt>
      <trkpt lat="48.731811" lon="7.662629">
        <ele>199.0</ele>
        <time>2020-07-11T09:39:57Z</time>
      </trkpt>
      <trkpt lat="48.731748" lon="7.662766">
        <ele>199.0</ele>
        <time>2020-07-11T09:39:59Z</time>
      </trkpt>
      <trkpt lat="48.731719" lon="7.662836">
        <ele>199.0</ele>
        <time>2020-07-11T09:40:00Z</time>
      </trkpt>
      <trkpt lat="48.73163" lon="7.663036">
        <ele>199.0</ele>
        <time>2020-07-11T09:40:03Z</time>
      </trkpt>
      <trkpt lat="48.73153" lon="7.663236">
        <ele>199.0</ele>
        <time>2020-07-11T09:40:06Z</time>
      </trkpt>
      <trkpt lat="48.73147" lon="7.663366">
        <ele>199.0</ele>
        <time>2020-07-11T09:40:08Z</time>
      </trkpt>
      <trkpt lat="48.731405" lon="7.663498">
        <ele>198.0</ele>
        <time>2020-07-11T09:40:10Z</time>
      </trkpt>
      <trkpt lat="48.7313" lon="7.66368">
        <ele>199.0</ele>
        <time>2020-07-11T09:40:13Z</time>
      </trkpt>
      <trkpt lat="48.73122" lon="7.663796">
        <ele>199.0</ele>
        <time>2020-07-11T09:40:15Z</time>
      </trkpt>
      <trkpt lat="48.731144" lon="7.663916">
        <ele>199.0</ele>
        <time>2020-07-11T09:40:17Z</time>
      </trkpt>
      <trkpt lat="48.731051" lon="7.664078">
        <ele>200.0</ele>
        <time>2020-07-11T09:40:20Z</time>
      </trkpt>
      <trkpt lat="48.731029" lon="7.664168">
        <ele>200.0</ele>
        <time>2020-07-11T09:40:22Z</time>
      </trkpt>
      <trkpt lat="48.731013" lon="7.664273">
        <ele>199.0</ele>
        <time>2020-07-11T09:40:24Z</time>
      </trkpt>
      <trkpt lat="48.731" lon="7.664313">
        <ele>199.0</ele>
        <time>2020-07-11T09:40:26Z</time>
      </trkpt>
      <trkpt lat="48.731" lon="7.664321">
        <ele>199.0</ele>
        <time>2020-07-11T09:40:28Z</time>
      </trkpt>
      <trkpt lat="48.731" lon="7.664321">
        <ele>199.0</ele>
        <time>2020-07-11T09:40:30Z</time>
      </trkpt>
      <trkpt lat="48.731001" lon="7.664315">
        <ele>199.0</ele>
        <time>2020-07-11T09:40:32Z</time>
      </trkpt>
      <trkpt lat="48.731016" lon="7.664307">
        <ele>199.0</ele>
        <time>2020-07-11T09:40:35Z</time>
      </trkpt>
      <trkpt lat="48.731017" lon="7.664303">
        <ele>199.0</ele>
        <time>2020-07-11T09:40:37Z</time>
      </trkpt>
      <trkpt lat="48.731019" lon="7.664277">
        <ele>199.0</ele>
        <time>2020-07-11T09:40:39Z</time>
      </trkpt>
      <trkpt lat="48.731023" lon="7.664263">
        <ele>200.0</ele>
        <time>2020-07-11T09:40:41Z</time>
      </trkpt>
      <trkpt lat="48.731019" lon="7.664255">
        <ele>200.0</ele>
        <time>2020-07-11T09:40:43Z</time>
      </trkpt>
      <trkpt lat="48.731004" lon="7.664227">
        <ele>200.0</ele>
        <time>2020-07-11T09:40:45Z</time>
      </trkpt>
      <trkpt lat="48.730985" lon="7.664187">
        <ele>200.0</ele>
        <time>2020-07-11T09:40:47Z</time>
      </trkpt>
      <trkpt lat="48.730978" lon="7.664153">
        <ele>200.0</ele>
        <time>2020-07-11T09:40:49Z</time>
      </trkpt>
      <trkpt lat="48.731002" lon="7.664157">
        <ele>200.0</ele>
        <time>2020-07-11T09:40:51Z</time>
      </trkpt>
      <trkpt lat="48.731066" lon="7.664174">
        <ele>200.0</ele>
        <time>2020-07-11T09:40:54Z</time>
      </trkpt>
      <trkpt lat="48.731103" lon="7.664198">
        <ele>200.0</ele>
        <time>2020-07-11T09:40:56Z</time>
      </trkpt>
      <trkpt lat="48.731138" lon="7.664232">
        <ele>201.0</ele>
        <time>2020-07-11T09:40:58Z</time>
      </trkpt>
      <trkpt lat="48.731216" lon="7.664308">
        <ele>202.0</ele>
        <time>2020-07-11T09:41:02Z</time>
      </trkpt>
      <trkpt lat="48.731251" lon="7.66437">
        <ele>202.0</ele>
        <time>2020-07-11T09:41:04Z</time>
      </trkpt>
      <trkpt lat="48.731222" lon="7.664487">
        <ele>200.0</ele>
        <time>2020-07-11T09:41:06Z</time>
      </trkpt>
      <trkpt lat="48.731159" lon="7.664602">
        <ele>198.0</ele>
        <time>2020-07-11T09:41:08Z</time>
      </trkpt>
      <trkpt lat="48.731077" lon="7.664748">
        <ele>198.0</ele>
        <time>2020-07-11T09:41:10Z</time>
      </trkpt>
      <trkpt lat="48.730985" lon="7.664917">
        <ele>197.0</ele>
        <time>2020-07-11T09:41:12Z</time>
      </trkpt>
      <trkpt lat="48.7309" lon="7.665087">
        <ele>197.0</ele>
        <time>2020-07-11T09:41:14Z</time>
      </trkpt>
      <trkpt lat="48.730818" lon="7.665251">
        <ele>196.0</ele>
        <time>2020-07-11T09:41:16Z</time>
      </trkpt>
      <trkpt lat="48.730692" lon="7.665495">
        <ele>196.0</ele>
        <time>2020-07-11T09:41:19Z</time>
      </trkpt>
      <trkpt lat="48.730613" lon="7.665652">
        <ele>196.0</ele>
        <time>2020-07-11T09:41:21Z</time>
      </trkpt>
      <trkpt lat="48.730536" lon="7.665808">
        <ele>196.0</ele>
        <time>2020-07-11T09:41:23Z</time>
      </trkpt>
      <trkpt lat="48.73046" lon="7.665961">
        <ele>196.0</ele>
        <time>2020-07-11T09:41:25Z</time>
      </trkpt>
      <trkpt lat="48.73035" lon="7.666199">
        <ele>196.0</ele>
        <time>2020-07-11T09:41:28Z</time>
      </trkpt>
      <trkpt lat="48.73027" lon="7.66635">
        <ele>196.0</ele>
        <time>2020-07-11T09:41:30Z</time>
      </trkpt>
      <trkpt lat="48.730178" lon="7.666571">
        <ele>196.0</ele>
        <time>2020-07-11T09:41:33Z</time>
      </trkpt>
      <trkpt lat="48.730106" lon="7.666711">
        <ele>196.0</ele>
        <time>2020-07-11T09:41:35Z</time>
      </trkpt>
      <trkpt lat="48.730039" lon="7.666856">
        <ele>196.0</ele>
        <time>2020-07-11T09:41:37Z</time>
      </trkpt>
      <trkpt lat="48.72997" lon="7.666997">
        <ele>196.0</ele>
        <time>2020-07-11T09:41:39Z</time>
      </trkpt>
      <trkpt lat="48.729903" lon="7.667133">
        <ele>196.0</ele>
        <time>2020-07-11T09:41:41Z</time>
      </trkpt>
      <trkpt lat="48.729869" lon="7.667201">
        <ele>196.0</ele>
        <time>2020-07-11T09:41:42Z</time>
      </trkpt>
      <trkpt lat="48.729766" lon="7.667424">
        <ele>196.0</ele>
        <time>2020-07-11T09:41:45Z</time>
      </trkpt>
      <trkpt lat="48.729733" lon="7.667498">
        <ele>196.0</ele>
        <time>2020-07-11T09:41:46Z</time>
      </trkpt>
      <trkpt lat="48.729626" lon="7.667703">
        <ele>196.0</ele>
        <time>2020-07-11T09:41:49Z</time>
      </trkpt>
      <trkpt lat="48.729564" lon="7.667847">
        <ele>196.0</ele>
        <time>2020-07-11T09:41:51Z</time>
      </trkpt>
      <trkpt lat="48.729502" lon="7.667989">
        <ele>196.0</ele>
        <time>2020-07-11T09:41:53Z</time>
      </trkpt>
      <trkpt lat="48.729436" lon="7.66813">
        <ele>196.0</ele>
        <time>2020-07-11T09:41:55Z</time>
      </trkpt>
      <trkpt lat="48.729327" lon="7.668338">
        <ele>196.0</ele>
        <time>2020-07-11T09:41:58Z</time>
      </trkpt>
      <trkpt lat="48.72926" lon="7.668471">
        <ele>196.0</ele>
        <time>2020-07-11T09:42:00Z</time>
      </trkpt>
      <trkpt lat="48.729194" lon="7.668612">
        <ele>196.0</ele>
        <time>2020-07-11T09:42:02Z</time>
      </trkpt>
      <trkpt lat="48.729127" lon="7.668751">
        <ele>196.0</ele>
        <time>2020-07-11T09:42:04Z</time>
      </trkpt>
      <trkpt lat="48.729059" lon="7.668894">
        <ele>196.0</ele>
        <time>2020-07-11T09:42:06Z</time>
      </trkpt>
      <trkpt lat="48.728994" lon="7.669039">
        <ele>196.0</ele>
        <time>2020-07-11T09:42:08Z</time>
      </trkpt>
      <trkpt lat="48.728925" lon="7.669179">
        <ele>196.0</ele>
        <time>2020-07-11T09:42:10Z</time>
      </trkpt>
      <trkpt lat="48.728855" lon="7.669323">
        <ele>196.0</ele>
        <time>2020-07-11T09:42:12Z</time>
      </trkpt>
      <trkpt lat="48.728758" lon="7.669526">
        <ele>196.0</ele>
        <time>2020-07-11T09:42:15Z</time>
      </trkpt>
      <trkpt lat="48.728726" lon="7.669598">
        <ele>196.0</ele>
        <time>2020-07-11T09:42:16Z</time>
      </trkpt>
      <trkpt lat="48.728633" lon="7.669794">
        <ele>196.0</ele>
        <time>2020-07-11T09:42:19Z</time>
      </trkpt>
      <trkpt lat="48.728571" lon="7.669921">
        <ele>196.0</ele>
        <time>2020-07-11T09:42:21Z</time>
      </trkpt>
      <trkpt lat="48.72854" lon="7.669987">
        <ele>196.0</ele>
        <time>2020-07-11T09:42:22Z</time>
      </trkpt>
      <trkpt lat="48.728447" lon="7.670173">
        <ele>196.0</ele>
        <time>2020-07-11T09:42:25Z</time>
      </trkpt>
      <trkpt lat="48.728382" lon="7.670306">
        <ele>196.0</ele>
        <time>2020-07-11T09:42:27Z</time>
      </trkpt>
      <trkpt lat="48.72835" lon="7.670372">
        <ele>196.0</ele>
        <time>2020-07-11T09:42:28Z</time>
      </trkpt>
      <trkpt lat="48.72825" lon="7.670572">
        <ele>196.0</ele>
        <time>2020-07-11T09:42:31Z</time>
      </trkpt>
      <trkpt lat="48.728152" lon="7.670773">
        <ele>195.0</ele>
        <time>2020-07-11T09:42:34Z</time>
      </trkpt>
      <trkpt lat="48.72805" lon="7.670972">
        <ele>195.0</ele>
        <time>2020-07-11T09:42:37Z</time>
      </trkpt>
      <trkpt lat="48.727992" lon="7.671098">
        <ele>195.0</ele>
        <time>2020-07-11T09:42:39Z</time>
      </trkpt>
      <trkpt lat="48.72793" lon="7.671228">
        <ele>194.0</ele>
        <time>2020-07-11T09:42:41Z</time>
      </trkpt>
      <trkpt lat="48.727859" lon="7.671369">
        <ele>194.0</ele>
        <time>2020-07-11T09:42:43Z</time>
      </trkpt>
      <trkpt lat="48.727756" lon="7.671577">
        <ele>194.0</ele>
        <time>2020-07-11T09:42:46Z</time>
      </trkpt>
      <trkpt lat="48.72769" lon="7.671717">
        <ele>194.0</ele>
        <time>2020-07-11T09:42:48Z</time>
      </trkpt>
      <trkpt lat="48.727629" lon="7.671856">
        <ele>194.0</ele>
        <time>2020-07-11T09:42:50Z</time>
      </trkpt>
      <trkpt lat="48.727558" lon="7.671992">
        <ele>194.0</ele>
        <time>2020-07-11T09:42:52Z</time>
      </trkpt>
      <trkpt lat="48.727486" lon="7.672129">
        <ele>194.0</ele>
        <time>2020-07-11T09:42:54Z</time>
      </trkpt>
      <trkpt lat="48.727415" lon="7.672272">
        <ele>195.0</ele>
        <time>2020-07-11T09:42:56Z</time>
      </trkpt>
      <trkpt lat="48.727346" lon="7.672417">
        <ele>195.0</ele>
        <time>2020-07-11T09:42:58Z</time>
      </trkpt>
      <trkpt lat="48.727242" lon="7.672613">
        <ele>195.0</ele>
        <time>2020-07-11T09:43:01Z</time>
      </trkpt>
      <trkpt lat="48.727173" lon="7.672754">
        <ele>195.0</ele>
        <time>2020-07-11T09:43:03Z</time>
      </trkpt>
      <trkpt lat="48.727142" lon="7.672826">
        <ele>195.0</ele>
        <time>2020-07-11T09:43:04Z</time>
      </trkpt>
      <trkpt lat="48.727011" lon="7.673117">
        <ele>195.0</ele>
        <time>2020-07-11T09:43:08Z</time>
      </trkpt>
      <trkpt lat="48.726948" lon="7.673257">
        <ele>196.0</ele>
        <time>2020-07-11T09:43:10Z</time>
      </trkpt>
      <trkpt lat="48.726881" lon="7.673392">
        <ele>196.0</ele>
        <time>2020-07-11T09:43:12Z</time>
      </trkpt>
      <trkpt lat="48.726849" lon="7.673455">
        <ele>196.0</ele>
        <time>2020-07-11T09:43:13Z</time>
      </trkpt>
      <trkpt lat="48.726753" lon="7.673652">
        <ele>196.0</ele>
        <time>2020-07-11T09:43:16Z</time>
      </trkpt>
      <trkpt lat="48.726664" lon="7.673858">
        <ele>195.0</ele>
        <time>2020-07-11T09:43:19Z</time>
      </trkpt>
      <trkpt lat="48.726601" lon="7.673992">
        <ele>196.0</ele>
        <time>2020-07-11T09:43:21Z</time>
      </trkpt>
      <trkpt lat="48.726541" lon="7.674126">
        <ele>195.0</ele>
        <time>2020-07-11T09:43:23Z</time>
      </trkpt>
      <trkpt lat="48.726472" lon="7.674261">
        <ele>195.0</ele>
        <time>2020-07-11T09:43:25Z</time>
      </trkpt>
      <trkpt lat="48.726407" lon="7.674393">
        <ele>196.0</ele>
        <time>2020-07-11T09:43:27Z</time>
      </trkpt>
      <trkpt lat="48.72634" lon="7.674536">
        <ele>196.0</ele>
        <time>2020-07-11T09:43:29Z</time>
      </trkpt>
      <trkpt lat="48.726274" lon="7.674689">
        <ele>196.0</ele>
        <time>2020-07-11T09:43:31Z</time>
      </trkpt>
      <trkpt lat="48.726213" lon="7.674825">
        <ele>197.0</ele>
        <time>2020-07-11T09:43:33Z</time>
      </trkpt>
      <trkpt lat="48.726143" lon="7.674958">
        <ele>197.0</ele>
        <time>2020-07-11T09:43:35Z</time>
      </trkpt>
      <trkpt lat="48.726035" lon="7.675164">
        <ele>198.0</ele>
        <time>2020-07-11T09:43:38Z</time>
      </trkpt>
      <trkpt lat="48.725963" lon="7.675298">
        <ele>199.0</ele>
        <time>2020-07-11T09:43:40Z</time>
      </trkpt>
      <trkpt lat="48.725896" lon="7.675431">
        <ele>199.0</ele>
        <time>2020-07-11T09:43:42Z</time>
      </trkpt>
      <trkpt lat="48.72583" lon="7.675568">
        <ele>198.0</ele>
        <time>2020-07-11T09:43:44Z</time>
      </trkpt>
      <trkpt lat="48.725761" lon="7.675699">
        <ele>198.0</ele>
        <time>2020-07-11T09:43:46Z</time>
      </trkpt>
      <trkpt lat="48.725692" lon="7.675848">
        <ele>198.0</ele>
        <time>2020-07-11T09:43:48Z</time>
      </trkpt>
      <trkpt lat="48.725658" lon="7.675925">
        <ele>199.0</ele>
        <time>2020-07-11T09:43:49Z</time>
      </trkpt>
      <trkpt lat="48.725546" lon="7.67616">
        <ele>200.0</ele>
        <time>2020-07-11T09:43:52Z</time>
      </trkpt>
      <trkpt lat="48.725473" lon="7.676307">
        <ele>200.0</ele>
        <time>2020-07-11T09:43:54Z</time>
      </trkpt>
      <trkpt lat="48.725402" lon="7.67645">
        <ele>199.0</ele>
        <time>2020-07-11T09:43:56Z</time>
      </trkpt>
      <trkpt lat="48.725369" lon="7.676523">
        <ele>199.0</ele>
        <time>2020-07-11T09:43:57Z</time>
      </trkpt>
      <trkpt lat="48.725266" lon="7.676737">
        <ele>199.0</ele>
        <time>2020-07-11T09:44:00Z</time>
      </trkpt>
      <trkpt lat="48.725204" lon="7.676882">
        <ele>200.0</ele>
        <time>2020-07-11T09:44:02Z</time>
      </trkpt>
      <trkpt lat="48.725124" lon="7.677039">
        <ele>200.0</ele>
        <time>2020-07-11T09:44:04Z</time>
      </trkpt>
      <trkpt lat="48.725052" lon="7.677199">
        <ele>200.0</ele>
        <time>2020-07-11T09:44:06Z</time>
      </trkpt>
      <trkpt lat="48.724991" lon="7.677346">
        <ele>200.0</ele>
        <time>2020-07-11T09:44:08Z</time>
      </trkpt>
      <trkpt lat="48.724923" lon="7.677489">
        <ele>200.0</ele>
        <time>2020-07-11T09:44:10Z</time>
      </trkpt>
      <trkpt lat="48.724844" lon="7.677632">
        <ele>199.0</ele>
        <time>2020-07-11T09:44:12Z</time>
      </trkpt>
      <trkpt lat="48.724773" lon="7.677778">
        <ele>199.0</ele>
        <time>2020-07-11T09:44:14Z</time>
      </trkpt>
      <trkpt lat="48.724668" lon="7.678007">
        <ele>198.0</ele>
        <time>2020-07-11T09:44:17Z</time>
      </trkpt>
      <trkpt lat="48.724602" lon="7.678156">
        <ele>198.0</ele>
        <time>2020-07-11T09:44:19Z</time>
      </trkpt>
      <trkpt lat="48.724562" lon="7.678232">
        <ele>198.0</ele>
        <time>2020-07-11T09:44:20Z</time>
      </trkpt>
      <trkpt lat="48.72446" lon="7.67844">
        <ele>198.0</ele>
        <time>2020-07-11T09:44:23Z</time>
      </trkpt>
      <trkpt lat="48.724391" lon="7.678564">
        <ele>198.0</ele>
        <time>2020-07-11T09:44:25Z</time>
      </trkpt>
      <trkpt lat="48.72432" lon="7.678707">
        <ele>198.0</ele>
        <time>2020-07-11T09:44:27Z</time>
      </trkpt>
      <trkpt lat="48.724246" lon="7.678857">
        <ele>197.0</ele>
        <time>2020-07-11T09:44:29Z</time>
      </trkpt>
      <trkpt lat="48.724214" lon="7.67893">
        <ele>197.0</ele>
        <time>2020-07-11T09:44:30Z</time>
      </trkpt>
      <trkpt lat="48.724119" lon="7.679132">
        <ele>197.0</ele>
        <time>2020-07-11T09:44:33Z</time>
      </trkpt>
      <trkpt lat="48.724029" lon="7.679322">
        <ele>196.0</ele>
        <time>2020-07-11T09:44:36Z</time>
      </trkpt>
      <trkpt lat="48.72397" lon="7.679454">
        <ele>197.0</ele>
        <time>2020-07-11T09:44:38Z</time>
      </trkpt>
      <trkpt lat="48.723937" lon="7.679518">
        <ele>197.0</ele>
        <time>2020-07-11T09:44:39Z</time>
      </trkpt>
      <trkpt lat="48.723803" lon="7.679812">
        <ele>198.0</ele>
        <time>2020-07-11T09:44:43Z</time>
      </trkpt>
      <trkpt lat="48.723726" lon="7.679943">
        <ele>198.0</ele>
        <time>2020-07-11T09:44:45Z</time>
      </trkpt>
      <trkpt lat="48.723663" lon="7.68008">
        <ele>199.0</ele>
        <time>2020-07-11T09:44:47Z</time>
      </trkpt>
      <trkpt lat="48.723597" lon="7.680216">
        <ele>199.0</ele>
        <time>2020-07-11T09:44:49Z</time>
      </trkpt>
      <trkpt lat="48.723532" lon="7.680358">
        <ele>199.0</ele>
        <time>2020-07-11T09:44:51Z</time>
      </trkpt>
      <trkpt lat="48.723454" lon="7.680506">
        <ele>199.0</ele>
        <time>2020-07-11T09:44:53Z</time>
      </trkpt>
      <trkpt lat="48.72338" lon="7.680665">
        <ele>200.0</ele>
        <time>2020-07-11T09:44:55Z</time>
      </trkpt>
      <trkpt lat="48.723307" lon="7.680811">
        <ele>200.0</ele>
        <time>2020-07-11T09:44:57Z</time>
      </trkpt>
      <trkpt lat="48.723243" lon="7.68095">
        <ele>201.0</ele>
        <time>2020-07-11T09:44:59Z</time>
      </trkpt>
      <trkpt lat="48.723143" lon="7.681158">
        <ele>201.0</ele>
        <time>2020-07-11T09:45:02Z</time>
      </trkpt>
      <trkpt lat="48.723079" lon="7.681298">
        <ele>200.0</ele>
        <time>2020-07-11T09:45:04Z</time>
      </trkpt>
      <trkpt lat="48.723014" lon="7.681446">
        <ele>200.0</ele>
        <time>2020-07-11T09:45:06Z</time>
      </trkpt>
      <trkpt lat="48.722941" lon="7.681583">
        <ele>200.0</ele>
        <time>2020-07-11T09:45:08Z</time>
      </trkpt>
      <trkpt lat="48.72287" lon="7.68172">
        <ele>200.0</ele>
        <time>2020-07-11T09:45:10Z</time>
      </trkpt>
      <trkpt lat="48.722799" lon="7.681855">
        <ele>200.0</ele>
        <time>2020-07-11T09:45:12Z</time>
      </trkpt>
      <trkpt lat="48.722738" lon="7.682008">
        <ele>199.0</ele>
        <time>2020-07-11T09:45:14Z</time>
      </trkpt>
      <trkpt lat="48.722676" lon="7.682143">
        <ele>199.0</ele>
        <time>2020-07-11T09:45:16Z</time>
      </trkpt>
      <trkpt lat="48.722572" lon="7.682349">
        <ele>198.0</ele>
        <time>2020-07-11T09:45:19Z</time>
      </trkpt>
      <trkpt lat="48.722539" lon="7.682413">
        <ele>198.0</ele>
        <time>2020-07-11T09:45:20Z</time>
      </trkpt>
      <trkpt lat="48.722445" lon="7.682597">
        <ele>198.0</ele>
        <time>2020-07-11T09:45:23Z</time>
      </trkpt>
      <trkpt lat="48.722379" lon="7.682724">
        <ele>198.0</ele>
        <time>2020-07-11T09:45:25Z</time>
      </trkpt>
      <trkpt lat="48.722314" lon="7.682852">
        <ele>197.0</ele>
        <time>2020-07-11T09:45:27Z</time>
      </trkpt>
      <trkpt lat="48.722241" lon="7.682988">
        <ele>197.0</ele>
        <time>2020-07-11T09:45:29Z</time>
      </trkpt>
      <trkpt lat="48.722173" lon="7.683122">
        <ele>198.0</ele>
        <time>2020-07-11T09:45:31Z</time>
      </trkpt>
      <trkpt lat="48.722062" lon="7.683308">
        <ele>198.0</ele>
        <time>2020-07-11T09:45:34Z</time>
      </trkpt>
      <trkpt lat="48.722025" lon="7.683372">
        <ele>198.0</ele>
        <time>2020-07-11T09:45:35Z</time>
      </trkpt>
      <trkpt lat="48.721919" lon="7.683549">
        <ele>198.0</ele>
        <time>2020-07-11T09:45:38Z</time>
      </trkpt>
      <trkpt lat="48.72184" lon="7.683668">
        <ele>198.0</ele>
        <time>2020-07-11T09:45:40Z</time>
      </trkpt>
      <trkpt lat="48.721762" lon="7.683796">
        <ele>197.0</ele>
        <time>2020-07-11T09:45:42Z</time>
      </trkpt>
      <trkpt lat="48.721676" lon="7.683913">
        <ele>197.0</ele>
        <time>2020-07-11T09:45:44Z</time>
      </trkpt>
      <trkpt lat="48.721583" lon="7.684044">
        <ele>196.0</ele>
        <time>2020-07-11T09:45:46Z</time>
      </trkpt>
      <trkpt lat="48.72145" lon="7.684224">
        <ele>195.0</ele>
        <time>2020-07-11T09:45:49Z</time>
      </trkpt>
      <trkpt lat="48.721364" lon="7.684346">
        <ele>195.0</ele>
        <time>2020-07-11T09:45:51Z</time>
      </trkpt>
      <trkpt lat="48.721271" lon="7.684463">
        <ele>195.0</ele>
        <time>2020-07-11T09:45:53Z</time>
      </trkpt>
      <trkpt lat="48.721181" lon="7.68457">
        <ele>195.0</ele>
        <time>2020-07-11T09:45:55Z</time>
      </trkpt>
      <trkpt lat="48.721091" lon="7.684671">
        <ele>196.0</ele>
        <time>2020-07-11T09:45:57Z</time>
      </trkpt>
      <trkpt lat="48.721002" lon="7.684763">
        <ele>196.0</ele>
        <time>2020-07-11T09:45:59Z</time>
      </trkpt>
      <trkpt lat="48.720905" lon="7.684866">
        <ele>196.0</ele>
        <time>2020-07-11T09:46:01Z</time>
      </trkpt>
      <trkpt lat="48.720747" lon="7.685016">
        <ele>196.0</ele>
        <time>2020-07-11T09:46:04Z</time>
      </trkpt>
      <trkpt lat="48.720652" lon="7.685109">
        <ele>196.0</ele>
        <time>2020-07-11T09:46:06Z</time>
      </trkpt>
      <trkpt lat="48.720554" lon="7.685189">
        <ele>196.0</ele>
        <time>2020-07-11T09:46:08Z</time>
      </trkpt>
      <trkpt lat="48.720463" lon="7.685272">
        <ele>196.0</ele>
        <time>2020-07-11T09:46:10Z</time>
      </trkpt>
      <trkpt lat="48.720364" lon="7.685357">
        <ele>197.0</ele>
        <time>2020-07-11T09:46:12Z</time>
      </trkpt>
      <trkpt lat="48.720218" lon="7.68547">
        <ele>197.0</ele>
        <time>2020-07-11T09:46:15Z</time>
      </trkpt>
      <trkpt lat="48.720128" lon="7.68555">
        <ele>197.0</ele>
        <time>2020-07-11T09:46:17Z</time>
      </trkpt>
      <trkpt lat="48.720039" lon="7.685638">
        <ele>197.0</ele>
        <time>2020-07-11T09:46:19Z</time>
      </trkpt>
      <trkpt lat="48.719934" lon="7.685725">
        <ele>196.0</ele>
        <time>2020-07-11T09:46:21Z</time>
      </trkpt>
      <trkpt lat="48.719827" lon="7.685813">
        <ele>195.0</ele>
        <time>2020-07-11T09:46:23Z</time>
      </trkpt>
      <trkpt lat="48.719713" lon="7.685915">
        <ele>196.0</ele>
        <time>2020-07-11T09:46:25Z</time>
      </trkpt>
      <trkpt lat="48.719557" lon="7.68605">
        <ele>196.0</ele>
        <time>2020-07-11T09:46:28Z</time>
      </trkpt>
      <trkpt lat="48.719455" lon="7.686127">
        <ele>196.0</ele>
        <time>2020-07-11T09:46:30Z</time>
      </trkpt>
      <trkpt lat="48.719348" lon="7.686213">
        <ele>196.0</ele>
        <time>2020-07-11T09:46:32Z</time>
      </trkpt>
      <trkpt lat="48.719248" lon="7.686301">
        <ele>196.0</ele>
        <time>2020-07-11T09:46:34Z</time>
      </trkpt>
      <trkpt lat="48.719136" lon="7.686384">
        <ele>195.0</ele>
        <time>2020-07-11T09:46:36Z</time>
      </trkpt>
      <trkpt lat="48.719037" lon="7.686471">
        <ele>195.0</ele>
        <time>2020-07-11T09:46:38Z</time>
      </trkpt>
      <trkpt lat="48.718933" lon="7.686546">
        <ele>195.0</ele>
        <time>2020-07-11T09:46:40Z</time>
      </trkpt>
      <trkpt lat="48.718838" lon="7.686627">
        <ele>195.0</ele>
        <time>2020-07-11T09:46:42Z</time>
      </trkpt>
      <trkpt lat="48.718696" lon="7.686743">
        <ele>194.0</ele>
        <time>2020-07-11T09:46:45Z</time>
      </trkpt>
      <trkpt lat="48.71865" lon="7.68678">
        <ele>194.0</ele>
        <time>2020-07-11T09:46:46Z</time>
      </trkpt>
      <trkpt lat="48.718439" lon="7.686943">
        <ele>195.0</ele>
        <time>2020-07-11T09:46:50Z</time>
      </trkpt>
      <trkpt lat="48.71834" lon="7.687019">
        <ele>195.0</ele>
        <time>2020-07-11T09:46:52Z</time>
      </trkpt>
      <trkpt lat="48.71823" lon="7.687114">
        <ele>195.0</ele>
        <time>2020-07-11T09:46:54Z</time>
      </trkpt>
      <trkpt lat="48.718126" lon="7.687188">
        <ele>196.0</ele>
        <time>2020-07-11T09:46:56Z</time>
      </trkpt>
      <trkpt lat="48.717968" lon="7.68732">
        <ele>196.0</ele>
        <time>2020-07-11T09:46:59Z</time>
      </trkpt>
      <trkpt lat="48.717856" lon="7.687401">
        <ele>197.0</ele>
        <time>2020-07-11T09:47:01Z</time>
      </trkpt>
      <trkpt lat="48.717754" lon="7.687489">
        <ele>196.0</ele>
        <time>2020-07-11T09:47:03Z</time>
      </trkpt>
      <trkpt lat="48.717603" lon="7.687624">
        <ele>197.0</ele>
        <time>2020-07-11T09:47:06Z</time>
      </trkpt>
      <trkpt lat="48.717496" lon="7.687715">
        <ele>196.0</ele>
        <time>2020-07-11T09:47:08Z</time>
      </trkpt>
      <trkpt lat="48.71739" lon="7.687803">
        <ele>197.0</ele>
        <time>2020-07-11T09:47:10Z</time>
      </trkpt>
      <trkpt lat="48.717285" lon="7.687896">
        <ele>197.0</ele>
        <time>2020-07-11T09:47:12Z</time>
      </trkpt>
      <trkpt lat="48.717177" lon="7.68798">
        <ele>197.0</ele>
        <time>2020-07-11T09:47:14Z</time>
      </trkpt>
      <trkpt lat="48.717068" lon="7.688073">
        <ele>197.0</ele>
        <time>2020-07-11T09:47:16Z</time>
      </trkpt>
      <trkpt lat="48.716962" lon="7.688166">
        <ele>197.0</ele>
        <time>2020-07-11T09:47:18Z</time>
      </trkpt>
      <trkpt lat="48.716907" lon="7.688207">
        <ele>197.0</ele>
        <time>2020-07-11T09:47:19Z</time>
      </trkpt>
      <trkpt lat="48.716749" lon="7.688326">
        <ele>197.0</ele>
        <time>2020-07-11T09:47:22Z</time>
      </trkpt>
      <trkpt lat="48.716644" lon="7.688405">
        <ele>196.0</ele>
        <time>2020-07-11T09:47:24Z</time>
      </trkpt>
      <trkpt lat="48.716538" lon="7.68849">
        <ele>196.0</ele>
        <time>2020-07-11T09:47:26Z</time>
      </trkpt>
      <trkpt lat="48.716435" lon="7.688571">
        <ele>196.0</ele>
        <time>2020-07-11T09:47:28Z</time>
      </trkpt>
      <trkpt lat="48.716284" lon="7.6887">
        <ele>195.0</ele>
        <time>2020-07-11T09:47:31Z</time>
      </trkpt>
      <trkpt lat="48.716229" lon="7.688743">
        <ele>195.0</ele>
        <time>2020-07-11T09:47:32Z</time>
      </trkpt>
      <trkpt lat="48.716124" lon="7.688826">
        <ele>195.0</ele>
        <time>2020-07-11T09:47:34Z</time>
      </trkpt>
      <trkpt lat="48.715968" lon="7.688958">
        <ele>195.0</ele>
        <time>2020-07-11T09:47:37Z</time>
      </trkpt>
      <trkpt lat="48.715805" lon="7.689074">
        <ele>196.0</ele>
        <time>2020-07-11T09:47:40Z</time>
      </trkpt>
      <trkpt lat="48.71571" lon="7.689155">
        <ele>195.0</ele>
        <time>2020-07-11T09:47:42Z</time>
      </trkpt>
      <trkpt lat="48.715609" lon="7.689238">
        <ele>195.0</ele>
        <time>2020-07-11T09:47:44Z</time>
      </trkpt>
      <trkpt lat="48.715515" lon="7.689329">
        <ele>195.0</ele>
        <time>2020-07-11T09:47:46Z</time>
      </trkpt>
      <trkpt lat="48.715417" lon="7.689421">
        <ele>195.0</ele>
        <time>2020-07-11T09:47:48Z</time>
      </trkpt>
      <trkpt lat="48.715311" lon="7.689513">
        <ele>196.0</ele>
        <time>2020-07-11T09:47:50Z</time>
      </trkpt>
      <trkpt lat="48.715202" lon="7.689597">
        <ele>196.0</ele>
        <time>2020-07-11T09:47:52Z</time>
      </trkpt>
      <trkpt lat="48.715106" lon="7.689674">
        <ele>197.0</ele>
        <time>2020-07-11T09:47:54Z</time>
      </trkpt>
      <trkpt lat="48.715006" lon="7.689753">
        <ele>197.0</ele>
        <time>2020-07-11T09:47:56Z</time>
      </trkpt>
      <trkpt lat="48.714909" lon="7.689834">
        <ele>197.0</ele>
        <time>2020-07-11T09:47:58Z</time>
      </trkpt>
      <trkpt lat="48.71478" lon="7.689972">
        <ele>197.0</ele>
        <time>2020-07-11T09:48:01Z</time>
      </trkpt>
      <trkpt lat="48.714691" lon="7.690032">
        <ele>197.0</ele>
        <time>2020-07-11T09:48:03Z</time>
      </trkpt>
      <trkpt lat="48.71458" lon="7.690054">
        <ele>197.0</ele>
        <time>2020-07-11T09:48:05Z</time>
      </trkpt>
      <trkpt lat="48.714481" lon="7.690131">
        <ele>197.0</ele>
        <time>2020-07-11T09:48:07Z</time>
      </trkpt>
      <trkpt lat="48.71441" lon="7.69023">
        <ele>196.0</ele>
        <time>2020-07-11T09:48:09Z</time>
      </trkpt>
      <trkpt lat="48.714332" lon="7.690341">
        <ele>196.0</ele>
        <time>2020-07-11T09:48:11Z</time>
      </trkpt>
      <trkpt lat="48.714241" lon="7.690438">
        <ele>196.0</ele>
        <time>2020-07-11T09:48:13Z</time>
      </trkpt>
      <trkpt lat="48.714146" lon="7.690527">
        <ele>196.0</ele>
        <time>2020-07-11T09:48:15Z</time>
      </trkpt>
      <trkpt lat="48.714049" lon="7.690624">
        <ele>195.0</ele>
        <time>2020-07-11T09:48:17Z</time>
      </trkpt>
      <trkpt lat="48.713902" lon="7.690764">
        <ele>196.0</ele>
        <time>2020-07-11T09:48:20Z</time>
      </trkpt>
      <trkpt lat="48.713805" lon="7.690849">
        <ele>196.0</ele>
        <time>2020-07-11T09:48:22Z</time>
      </trkpt>
      <trkpt lat="48.713705" lon="7.690931">
        <ele>196.0</ele>
        <time>2020-07-11T09:48:24Z</time>
      </trkpt>
      <trkpt lat="48.713647" lon="7.690968">
        <ele>196.0</ele>
        <time>2020-07-11T09:48:25Z</time>
      </trkpt>
      <trkpt lat="48.713482" lon="7.691069">
        <ele>196.0</ele>
        <time>2020-07-11T09:48:28Z</time>
      </trkpt>
      <trkpt lat="48.713318" lon="7.691175">
        <ele>195.0</ele>
        <time>2020-07-11T09:48:31Z</time>
      </trkpt>
      <trkpt lat="48.713211" lon="7.691253">
        <ele>195.0</ele>
        <time>2020-07-11T09:48:33Z</time>
      </trkpt>
      <trkpt lat="48.713107" lon="7.691332">
        <ele>195.0</ele>
        <time>2020-07-11T09:48:35Z</time>
      </trkpt>
      <trkpt lat="48.713058" lon="7.691366">
        <ele>194.0</ele>
        <time>2020-07-11T09:48:36Z</time>
      </trkpt>
      <trkpt lat="48.712901" lon="7.69149">
        <ele>194.0</ele>
        <time>2020-07-11T09:48:39Z</time>
      </trkpt>
      <trkpt lat="48.712795" lon="7.691574">
        <ele>194.0</ele>
        <time>2020-07-11T09:48:41Z</time>
      </trkpt>
      <trkpt lat="48.71264" lon="7.691692">
        <ele>195.0</ele>
        <time>2020-07-11T09:48:44Z</time>
      </trkpt>
      <trkpt lat="48.712538" lon="7.691776">
        <ele>195.0</ele>
        <time>2020-07-11T09:48:46Z</time>
      </trkpt>
      <trkpt lat="48.712431" lon="7.691867">
        <ele>195.0</ele>
        <time>2020-07-11T09:48:48Z</time>
      </trkpt>
      <trkpt lat="48.712328" lon="7.691959">
        <ele>196.0</ele>
        <time>2020-07-11T09:48:50Z</time>
      </trkpt>
      <trkpt lat="48.712226" lon="7.692042">
        <ele>196.0</ele>
        <time>2020-07-11T09:48:52Z</time>
      </trkpt>
      <trkpt lat="48.712176" lon="7.69208">
        <ele>196.0</ele>
        <time>2020-07-11T09:48:53Z</time>
      </trkpt>
      <trkpt lat="48.712021" lon="7.692206">
        <ele>196.0</ele>
        <time>2020-07-11T09:48:56Z</time>
      </trkpt>
      <trkpt lat="48.711913" lon="7.692286">
        <ele>196.0</ele>
        <time>2020-07-11T09:48:58Z</time>
      </trkpt>
      <trkpt lat="48.711806" lon="7.692362">
        <ele>196.0</ele>
        <time>2020-07-11T09:49:00Z</time>
      </trkpt>
      <trkpt lat="48.711648" lon="7.692485">
        <ele>196.0</ele>
        <time>2020-07-11T09:49:03Z</time>
      </trkpt>
      <trkpt lat="48.711546" lon="7.69258">
        <ele>197.0</ele>
        <time>2020-07-11T09:49:05Z</time>
      </trkpt>
      <trkpt lat="48.711402" lon="7.692692">
        <ele>197.0</ele>
        <time>2020-07-11T09:49:08Z</time>
      </trkpt>
      <trkpt lat="48.711297" lon="7.692773">
        <ele>197.0</ele>
        <time>2020-07-11T09:49:10Z</time>
      </trkpt>
      <trkpt lat="48.711136" lon="7.692901">
        <ele>197.0</ele>
        <time>2020-07-11T09:49:13Z</time>
      </trkpt>
      <trkpt lat="48.711031" lon="7.69299">
        <ele>197.0</ele>
        <time>2020-07-11T09:49:15Z</time>
      </trkpt>
      <trkpt lat="48.710926" lon="7.693087">
        <ele>197.0</ele>
        <time>2020-07-11T09:49:17Z</time>
      </trkpt>
      <trkpt lat="48.710875" lon="7.693128">
        <ele>197.0</ele>
        <time>2020-07-11T09:49:18Z</time>
      </trkpt>
      <trkpt lat="48.710705" lon="7.693273">
        <ele>197.0</ele>
        <time>2020-07-11T09:49:21Z</time>
      </trkpt>
      <trkpt lat="48.710651" lon="7.693314">
        <ele>197.0</ele>
        <time>2020-07-11T09:49:22Z</time>
      </trkpt>
      <trkpt lat="48.710492" lon="7.693437">
        <ele>198.0</ele>
        <time>2020-07-11T09:49:25Z</time>
      </trkpt>
      <trkpt lat="48.710386" lon="7.693527">
        <ele>199.0</ele>
        <time>2020-07-11T09:49:27Z</time>
      </trkpt>
      <trkpt lat="48.710282" lon="7.693606">
        <ele>199.0</ele>
        <time>2020-07-11T09:49:29Z</time>
      </trkpt>
      <trkpt lat="48.710176" lon="7.693691">
        <ele>199.0</ele>
        <time>2020-07-11T09:49:31Z</time>
      </trkpt>
      <trkpt lat="48.710019" lon="7.693826">
        <ele>198.0</ele>
        <time>2020-07-11T09:49:34Z</time>
      </trkpt>
      <trkpt lat="48.709919" lon="7.693916">
        <ele>198.0</ele>
        <time>2020-07-11T09:49:36Z</time>
      </trkpt>
      <trkpt lat="48.709813" lon="7.694004">
        <ele>199.0</ele>
        <time>2020-07-11T09:49:38Z</time>
      </trkpt>
      <trkpt lat="48.709712" lon="7.694085">
        <ele>198.0</ele>
        <time>2020-07-11T09:49:40Z</time>
      </trkpt>
      <trkpt lat="48.709611" lon="7.694166">
        <ele>198.0</ele>
        <time>2020-07-11T09:49:42Z</time>
      </trkpt>
      <trkpt lat="48.709505" lon="7.694247">
        <ele>198.0</ele>
        <time>2020-07-11T09:49:44Z</time>
      </trkpt>
      <trkpt lat="48.709401" lon="7.694334">
        <ele>197.0</ele>
        <time>2020-07-11T09:49:46Z</time>
      </trkpt>
      <trkpt lat="48.70925" lon="7.694458">
        <ele>198.0</ele>
        <time>2020-07-11T09:49:49Z</time>
      </trkpt>
      <trkpt lat="48.709149" lon="7.694544">
        <ele>197.0</ele>
        <time>2020-07-11T09:49:51Z</time>
      </trkpt>
      <trkpt lat="48.709098" lon="7.694586">
        <ele>197.0</ele>
        <time>2020-07-11T09:49:52Z</time>
      </trkpt>
      <trkpt lat="48.708943" lon="7.694712">
        <ele>196.0</ele>
        <time>2020-07-11T09:49:55Z</time>
      </trkpt>
      <trkpt lat="48.708801" lon="7.694837">
        <ele>197.0</ele>
        <time>2020-07-11T09:49:58Z</time>
      </trkpt>
      <trkpt lat="48.708698" lon="7.694842">
        <ele>196.0</ele>
        <time>2020-07-11T09:50:00Z</time>
      </trkpt>
      <trkpt lat="48.708585" lon="7.694863">
        <ele>197.0</ele>
        <time>2020-07-11T09:50:02Z</time>
      </trkpt>
      <trkpt lat="48.708513" lon="7.695037">
        <ele>196.0</ele>
        <time>2020-07-11T09:50:05Z</time>
      </trkpt>
      <trkpt lat="48.708451" lon="7.695175">
        <ele>196.0</ele>
        <time>2020-07-11T09:50:07Z</time>
      </trkpt>
      <trkpt lat="48.708394" lon="7.695234">
        <ele>195.0</ele>
        <time>2020-07-11T09:50:08Z</time>
      </trkpt>
      <trkpt lat="48.708219" lon="7.69539">
        <ele>194.0</ele>
        <time>2020-07-11T09:50:11Z</time>
      </trkpt>
      <trkpt lat="48.708046" lon="7.695526">
        <ele>193.0</ele>
        <time>2020-07-11T09:50:14Z</time>
      </trkpt>
      <trkpt lat="48.707938" lon="7.695627">
        <ele>194.0</ele>
        <time>2020-07-11T09:50:16Z</time>
      </trkpt>
      <trkpt lat="48.707884" lon="7.695675">
        <ele>194.0</ele>
        <time>2020-07-11T09:50:17Z</time>
      </trkpt>
      <trkpt lat="48.707658" lon="7.695876">
        <ele>194.0</ele>
        <time>2020-07-11T09:50:21Z</time>
      </trkpt>
      <trkpt lat="48.707534" lon="7.695968">
        <ele>194.0</ele>
        <time>2020-07-11T09:50:23Z</time>
      </trkpt>
      <trkpt lat="48.707419" lon="7.696057">
        <ele>194.0</ele>
        <time>2020-07-11T09:50:25Z</time>
      </trkpt>
      <trkpt lat="48.707289" lon="7.696141">
        <ele>193.0</ele>
        <time>2020-07-11T09:50:27Z</time>
      </trkpt>
      <trkpt lat="48.707111" lon="7.696272">
        <ele>193.0</ele>
        <time>2020-07-11T09:50:30Z</time>
      </trkpt>
      <trkpt lat="48.706997" lon="7.696363">
        <ele>192.0</ele>
        <time>2020-07-11T09:50:32Z</time>
      </trkpt>
      <trkpt lat="48.706877" lon="7.696443">
        <ele>192.0</ele>
        <time>2020-07-11T09:50:34Z</time>
      </trkpt>
      <trkpt lat="48.706759" lon="7.69652">
        <ele>192.0</ele>
        <time>2020-07-11T09:50:36Z</time>
      </trkpt>
      <trkpt lat="48.706643" lon="7.696602">
        <ele>192.0</ele>
        <time>2020-07-11T09:50:38Z</time>
      </trkpt>
      <trkpt lat="48.706532" lon="7.696682">
        <ele>193.0</ele>
        <time>2020-07-11T09:50:40Z</time>
      </trkpt>
      <trkpt lat="48.70643" lon="7.696769">
        <ele>193.0</ele>
        <time>2020-07-11T09:50:42Z</time>
      </trkpt>
      <trkpt lat="48.706322" lon="7.69685">
        <ele>193.0</ele>
        <time>2020-07-11T09:50:44Z</time>
      </trkpt>
      <trkpt lat="48.70616" lon="7.696957">
        <ele>193.0</ele>
        <time>2020-07-11T09:50:47Z</time>
      </trkpt>
      <trkpt lat="48.70605" lon="7.69702">
        <ele>193.0</ele>
        <time>2020-07-11T09:50:49Z</time>
      </trkpt>
      <trkpt lat="48.705948" lon="7.697093">
        <ele>194.0</ele>
        <time>2020-07-11T09:50:51Z</time>
      </trkpt>
      <trkpt lat="48.705842" lon="7.697155">
        <ele>194.0</ele>
        <time>2020-07-11T09:50:53Z</time>
      </trkpt>
      <trkpt lat="48.705733" lon="7.697215">
        <ele>194.0</ele>
        <time>2020-07-11T09:50:55Z</time>
      </trkpt>
      <trkpt lat="48.705627" lon="7.697278">
        <ele>194.0</ele>
        <time>2020-07-11T09:50:57Z</time>
      </trkpt>
      <trkpt lat="48.705516" lon="7.697342">
        <ele>193.0</ele>
        <time>2020-07-11T09:50:59Z</time>
      </trkpt>
      <trkpt lat="48.705413" lon="7.697402">
        <ele>193.0</ele>
        <time>2020-07-11T09:51:01Z</time>
      </trkpt>
      <trkpt lat="48.705256" lon="7.697498">
        <ele>193.0</ele>
        <time>2020-07-11T09:51:04Z</time>
      </trkpt>
      <trkpt lat="48.705202" lon="7.697525">
        <ele>194.0</ele>
        <time>2020-07-11T09:51:05Z</time>
      </trkpt>
      <trkpt lat="48.705035" lon="7.697617">
        <ele>193.0</ele>
        <time>2020-07-11T09:51:08Z</time>
      </trkpt>
      <trkpt lat="48.704929" lon="7.697689">
        <ele>194.0</ele>
        <time>2020-07-11T09:51:10Z</time>
      </trkpt>
      <trkpt lat="48.704827" lon="7.697747">
        <ele>194.0</ele>
        <time>2020-07-11T09:51:12Z</time>
      </trkpt>
      <trkpt lat="48.704717" lon="7.697798">
        <ele>194.0</ele>
        <time>2020-07-11T09:51:14Z</time>
      </trkpt>
      <trkpt lat="48.704618" lon="7.697852">
        <ele>194.0</ele>
        <time>2020-07-11T09:51:16Z</time>
      </trkpt>
      <trkpt lat="48.704512" lon="7.697909">
        <ele>194.0</ele>
        <time>2020-07-11T09:51:18Z</time>
      </trkpt>
      <trkpt lat="48.704402" lon="7.697962">
        <ele>194.0</ele>
        <time>2020-07-11T09:51:20Z</time>
      </trkpt>
      <trkpt lat="48.704231" lon="7.698046">
        <ele>194.0</ele>
        <time>2020-07-11T09:51:23Z</time>
      </trkpt>
      <trkpt lat="48.704117" lon="7.69811">
        <ele>194.0</ele>
        <time>2020-07-11T09:51:25Z</time>
      </trkpt>
      <trkpt lat="48.704014" lon="7.698163">
        <ele>194.0</ele>
        <time>2020-07-11T09:51:27Z</time>
      </trkpt>
      <trkpt lat="48.703908" lon="7.698216">
        <ele>194.0</ele>
        <time>2020-07-11T09:51:29Z</time>
      </trkpt>
      <trkpt lat="48.703801" lon="7.698273">
        <ele>194.0</ele>
        <time>2020-07-11T09:51:31Z</time>
      </trkpt>
      <trkpt lat="48.703697" lon="7.698338">
        <ele>195.0</ele>
        <time>2020-07-11T09:51:33Z</time>
      </trkpt>
      <trkpt lat="48.703591" lon="7.698391">
        <ele>194.0</ele>
        <time>2020-07-11T09:51:35Z</time>
      </trkpt>
      <trkpt lat="48.703383" lon="7.698494">
        <ele>195.0</ele>
        <time>2020-07-11T09:51:39Z</time>
      </trkpt>
      <trkpt lat="48.703281" lon="7.698548">
        <ele>195.0</ele>
        <time>2020-07-11T09:51:41Z</time>
      </trkpt>
      <trkpt lat="48.703182" lon="7.69857">
        <ele>195.0</ele>
        <time>2020-07-11T09:51:43Z</time>
      </trkpt>
      <trkpt lat="48.70303" lon="7.698601">
        <ele>196.0</ele>
        <time>2020-07-11T09:51:46Z</time>
      </trkpt>
      <trkpt lat="48.702934" lon="7.698653">
        <ele>195.0</ele>
        <time>2020-07-11T09:51:48Z</time>
      </trkpt>
      <trkpt lat="48.702836" lon="7.698711">
        <ele>195.0</ele>
        <time>2020-07-11T09:51:50Z</time>
      </trkpt>
      <trkpt lat="48.702747" lon="7.698751">
        <ele>195.0</ele>
        <time>2020-07-11T09:51:52Z</time>
      </trkpt>
      <trkpt lat="48.702644" lon="7.698811">
        <ele>195.0</ele>
        <time>2020-07-11T09:51:54Z</time>
      </trkpt>
      <trkpt lat="48.702543" lon="7.698866">
        <ele>195.0</ele>
        <time>2020-07-11T09:51:56Z</time>
      </trkpt>
      <trkpt lat="48.702441" lon="7.698914">
        <ele>195.0</ele>
        <time>2020-07-11T09:51:58Z</time>
      </trkpt>
      <trkpt lat="48.702333" lon="7.698971">
        <ele>195.0</ele>
        <time>2020-07-11T09:52:00Z</time>
      </trkpt>
      <trkpt lat="48.702177" lon="7.699053">
        <ele>195.0</ele>
        <time>2020-07-11T09:52:03Z</time>
      </trkpt>
      <trkpt lat="48.702073" lon="7.699113">
        <ele>196.0</ele>
        <time>2020-07-11T09:52:05Z</time>
      </trkpt>
      <trkpt lat="48.701971" lon="7.699166">
        <ele>196.0</ele>
        <time>2020-07-11T09:52:07Z</time>
      </trkpt>
      <trkpt lat="48.701917" lon="7.699191">
        <ele>196.0</ele>
        <time>2020-07-11T09:52:08Z</time>
      </trkpt>
      <trkpt lat="48.701771" lon="7.699274">
        <ele>196.0</ele>
        <time>2020-07-11T09:52:11Z</time>
      </trkpt>
      <trkpt lat="48.70166" lon="7.699332">
        <ele>196.0</ele>
        <time>2020-07-11T09:52:13Z</time>
      </trkpt>
      <trkpt lat="48.701548" lon="7.699387">
        <ele>195.0</ele>
        <time>2020-07-11T09:52:15Z</time>
      </trkpt>
      <trkpt lat="48.701441" lon="7.699439">
        <ele>195.0</ele>
        <time>2020-07-11T09:52:17Z</time>
      </trkpt>
      <trkpt lat="48.701335" lon="7.699497">
        <ele>195.0</ele>
        <time>2020-07-11T09:52:19Z</time>
      </trkpt>
      <trkpt lat="48.701179" lon="7.699581">
        <ele>195.0</ele>
        <time>2020-07-11T09:52:22Z</time>
      </trkpt>
      <trkpt lat="48.701078" lon="7.699628">
        <ele>195.0</ele>
        <time>2020-07-11T09:52:24Z</time>
      </trkpt>
      <trkpt lat="48.700975" lon="7.699679">
        <ele>195.0</ele>
        <time>2020-07-11T09:52:26Z</time>
      </trkpt>
      <trkpt lat="48.70088" lon="7.699733">
        <ele>195.0</ele>
        <time>2020-07-11T09:52:28Z</time>
      </trkpt>
      <trkpt lat="48.700834" lon="7.699762">
        <ele>195.0</ele>
        <time>2020-07-11T09:52:29Z</time>
      </trkpt>
      <trkpt lat="48.700706" lon="7.699831">
        <ele>195.0</ele>
        <time>2020-07-11T09:52:32Z</time>
      </trkpt>
      <trkpt lat="48.700617" lon="7.699867">
        <ele>195.0</ele>
        <time>2020-07-11T09:52:34Z</time>
      </trkpt>
      <trkpt lat="48.700522" lon="7.699915">
        <ele>195.0</ele>
        <time>2020-07-11T09:52:36Z</time>
      </trkpt>
      <trkpt lat="48.700475" lon="7.69994">
        <ele>195.0</ele>
        <time>2020-07-11T09:52:37Z</time>
      </trkpt>
      <trkpt lat="48.700328" lon="7.700021">
        <ele>195.0</ele>
        <time>2020-07-11T09:52:40Z</time>
      </trkpt>
      <trkpt lat="48.700226" lon="7.700089">
        <ele>195.0</ele>
        <time>2020-07-11T09:52:42Z</time>
      </trkpt>
      <trkpt lat="48.700074" lon="7.700177">
        <ele>195.0</ele>
        <time>2020-07-11T09:52:45Z</time>
      </trkpt>
      <trkpt lat="48.700024" lon="7.70021">
        <ele>195.0</ele>
        <time>2020-07-11T09:52:46Z</time>
      </trkpt>
      <trkpt lat="48.699874" lon="7.700297">
        <ele>195.0</ele>
        <time>2020-07-11T09:52:49Z</time>
      </trkpt>
      <trkpt lat="48.699773" lon="7.70035">
        <ele>195.0</ele>
        <time>2020-07-11T09:52:51Z</time>
      </trkpt>
      <trkpt lat="48.699671" lon="7.700409">
        <ele>195.0</ele>
        <time>2020-07-11T09:52:53Z</time>
      </trkpt>
      <trkpt lat="48.699519" lon="7.700496">
        <ele>195.0</ele>
        <time>2020-07-11T09:52:56Z</time>
      </trkpt>
      <trkpt lat="48.699424" lon="7.700544">
        <ele>195.0</ele>
        <time>2020-07-11T09:52:58Z</time>
      </trkpt>
      <trkpt lat="48.699326" lon="7.700595">
        <ele>194.0</ele>
        <time>2020-07-11T09:53:00Z</time>
      </trkpt>
      <trkpt lat="48.699221" lon="7.70065">
        <ele>193.0</ele>
        <time>2020-07-11T09:53:02Z</time>
      </trkpt>
      <trkpt lat="48.699115" lon="7.700705">
        <ele>193.0</ele>
        <time>2020-07-11T09:53:04Z</time>
      </trkpt>
      <trkpt lat="48.699014" lon="7.700758">
        <ele>193.0</ele>
        <time>2020-07-11T09:53:06Z</time>
      </trkpt>
      <trkpt lat="48.698858" lon="7.700843">
        <ele>193.0</ele>
        <time>2020-07-11T09:53:09Z</time>
      </trkpt>
      <trkpt lat="48.698754" lon="7.700911">
        <ele>192.0</ele>
        <time>2020-07-11T09:53:11Z</time>
      </trkpt>
      <trkpt lat="48.698649" lon="7.700972">
        <ele>193.0</ele>
        <time>2020-07-11T09:53:13Z</time>
      </trkpt>
      <trkpt lat="48.698491" lon="7.701065">
        <ele>192.0</ele>
        <time>2020-07-11T09:53:16Z</time>
      </trkpt>
      <trkpt lat="48.69844" lon="7.701093">
        <ele>192.0</ele>
        <time>2020-07-11T09:53:17Z</time>
      </trkpt>
      <trkpt lat="48.698236" lon="7.701205">
        <ele>192.0</ele>
        <time>2020-07-11T09:53:21Z</time>
      </trkpt>
      <trkpt lat="48.698136" lon="7.701264">
        <ele>192.0</ele>
        <time>2020-07-11T09:53:23Z</time>
      </trkpt>
      <trkpt lat="48.698029" lon="7.701315">
        <ele>192.0</ele>
        <time>2020-07-11T09:53:25Z</time>
      </trkpt>
      <trkpt lat="48.697922" lon="7.701365">
        <ele>192.0</ele>
        <time>2020-07-11T09:53:27Z</time>
      </trkpt>
      <trkpt lat="48.697819" lon="7.701415">
        <ele>192.0</ele>
        <time>2020-07-11T09:53:29Z</time>
      </trkpt>
      <trkpt lat="48.697713" lon="7.701461">
        <ele>192.0</ele>
        <time>2020-07-11T09:53:31Z</time>
      </trkpt>
      <trkpt lat="48.697602" lon="7.701515">
        <ele>192.0</ele>
        <time>2020-07-11T09:53:33Z</time>
      </trkpt>
      <trkpt lat="48.697491" lon="7.701569">
        <ele>193.0</ele>
        <time>2020-07-11T09:53:35Z</time>
      </trkpt>
      <trkpt lat="48.697385" lon="7.701629">
        <ele>194.0</ele>
        <time>2020-07-11T09:53:37Z</time>
      </trkpt>
      <trkpt lat="48.697211" lon="7.701718">
        <ele>194.0</ele>
        <time>2020-07-11T09:53:40Z</time>
      </trkpt>
      <trkpt lat="48.697095" lon="7.70179">
        <ele>194.0</ele>
        <time>2020-07-11T09:53:42Z</time>
      </trkpt>
      <trkpt lat="48.696936" lon="7.701884">
        <ele>194.0</ele>
        <time>2020-07-11T09:53:45Z</time>
      </trkpt>
      <trkpt lat="48.696829" lon="7.701942">
        <ele>194.0</ele>
        <time>2020-07-11T09:53:47Z</time>
      </trkpt>
      <trkpt lat="48.69672" lon="7.702003">
        <ele>194.0</ele>
        <time>2020-07-11T09:53:49Z</time>
      </trkpt>
      <trkpt lat="48.69661" lon="7.702061">
        <ele>194.0</ele>
        <time>2020-07-11T09:53:51Z</time>
      </trkpt>
      <trkpt lat="48.696441" lon="7.702144">
        <ele>195.0</ele>
        <time>2020-07-11T09:53:54Z</time>
      </trkpt>
      <trkpt lat="48.696267" lon="7.702234">
        <ele>195.0</ele>
        <time>2020-07-11T09:53:57Z</time>
      </trkpt>
      <trkpt lat="48.696213" lon="7.702258">
        <ele>195.0</ele>
        <time>2020-07-11T09:53:58Z</time>
      </trkpt>
      <trkpt lat="48.696044" lon="7.70236">
        <ele>195.0</ele>
        <time>2020-07-11T09:54:01Z</time>
      </trkpt>
      <trkpt lat="48.695876" lon="7.702453">
        <ele>194.0</ele>
        <time>2020-07-11T09:54:04Z</time>
      </trkpt>
      <trkpt lat="48.695757" lon="7.702518">
        <ele>194.0</ele>
        <time>2020-07-11T09:54:06Z</time>
      </trkpt>
      <trkpt lat="48.695701" lon="7.702545">
        <ele>194.0</ele>
        <time>2020-07-11T09:54:07Z</time>
      </trkpt>
      <trkpt lat="48.695536" lon="7.702638">
        <ele>194.0</ele>
        <time>2020-07-11T09:54:10Z</time>
      </trkpt>
      <trkpt lat="48.695428" lon="7.702694">
        <ele>194.0</ele>
        <time>2020-07-11T09:54:12Z</time>
      </trkpt>
      <trkpt lat="48.695319" lon="7.702746">
        <ele>194.0</ele>
        <time>2020-07-11T09:54:14Z</time>
      </trkpt>
      <trkpt lat="48.695211" lon="7.702794">
        <ele>194.0</ele>
        <time>2020-07-11T09:54:16Z</time>
      </trkpt>
      <trkpt lat="48.695044" lon="7.702877">
        <ele>194.0</ele>
        <time>2020-07-11T09:54:19Z</time>
      </trkpt>
      <trkpt lat="48.694932" lon="7.70294">
        <ele>194.0</ele>
        <time>2020-07-11T09:54:21Z</time>
      </trkpt>
      <trkpt lat="48.694821" lon="7.702998">
        <ele>195.0</ele>
        <time>2020-07-11T09:54:23Z</time>
      </trkpt>
      <trkpt lat="48.694709" lon="7.703057">
        <ele>195.0</ele>
        <time>2020-07-11T09:54:25Z</time>
      </trkpt>
      <trkpt lat="48.694484" lon="7.703177">
        <ele>196.0</ele>
        <time>2020-07-11T09:54:29Z</time>
      </trkpt>
      <trkpt lat="48.694373" lon="7.703237">
        <ele>196.0</ele>
        <time>2020-07-11T09:54:31Z</time>
      </trkpt>
      <trkpt lat="48.694266" lon="7.703296">
        <ele>196.0</ele>
        <time>2020-07-11T09:54:33Z</time>
      </trkpt>
      <trkpt lat="48.694086" lon="7.70339">
        <ele>196.0</ele>
        <time>2020-07-11T09:54:36Z</time>
      </trkpt>
      <trkpt lat="48.694027" lon="7.703421">
        <ele>195.0</ele>
        <time>2020-07-11T09:54:37Z</time>
      </trkpt>
      <trkpt lat="48.693857" lon="7.703531">
        <ele>195.0</ele>
        <time>2020-07-11T09:54:40Z</time>
      </trkpt>
      <trkpt lat="48.693678" lon="7.703625">
        <ele>195.0</ele>
        <time>2020-07-11T09:54:43Z</time>
      </trkpt>
      <trkpt lat="48.693517" lon="7.703705">
        <ele>195.0</ele>
        <time>2020-07-11T09:54:46Z</time>
      </trkpt>
      <trkpt lat="48.69341" lon="7.70376">
        <ele>195.0</ele>
        <time>2020-07-11T09:54:48Z</time>
      </trkpt>
      <trkpt lat="48.693304" lon="7.703815">
        <ele>196.0</ele>
        <time>2020-07-11T09:54:50Z</time>
      </trkpt>
      <trkpt lat="48.693194" lon="7.703871">
        <ele>196.0</ele>
        <time>2020-07-11T09:54:52Z</time>
      </trkpt>
      <trkpt lat="48.693085" lon="7.703928">
        <ele>196.0</ele>
        <time>2020-07-11T09:54:54Z</time>
      </trkpt>
      <trkpt lat="48.692973" lon="7.703992">
        <ele>196.0</ele>
        <time>2020-07-11T09:54:56Z</time>
      </trkpt>
      <trkpt lat="48.692865" lon="7.704045">
        <ele>195.0</ele>
        <time>2020-07-11T09:54:58Z</time>
      </trkpt>
      <trkpt lat="48.692754" lon="7.704102">
        <ele>195.0</ele>
        <time>2020-07-11T09:55:00Z</time>
      </trkpt>
      <trkpt lat="48.692697" lon="7.70413">
        <ele>195.0</ele>
        <time>2020-07-11T09:55:01Z</time>
      </trkpt>
      <trkpt lat="48.692473" lon="7.704256">
        <ele>196.0</ele>
        <time>2020-07-11T09:55:05Z</time>
      </trkpt>
      <trkpt lat="48.69236" lon="7.70432">
        <ele>196.0</ele>
        <time>2020-07-11T09:55:07Z</time>
      </trkpt>
      <trkpt lat="48.692249" lon="7.704385">
        <ele>196.0</ele>
        <time>2020-07-11T09:55:09Z</time>
      </trkpt>
      <trkpt lat="48.692195" lon="7.704419">
        <ele>196.0</ele>
        <time>2020-07-11T09:55:10Z</time>
      </trkpt>
      <trkpt lat="48.691969" lon="7.704526">
        <ele>196.0</ele>
        <time>2020-07-11T09:55:14Z</time>
      </trkpt>
      <trkpt lat="48.691915" lon="7.704553">
        <ele>196.0</ele>
        <time>2020-07-11T09:55:15Z</time>
      </trkpt>
      <trkpt lat="48.691752" lon="7.704647">
        <ele>195.0</ele>
        <time>2020-07-11T09:55:18Z</time>
      </trkpt>
      <trkpt lat="48.691642" lon="7.704703">
        <ele>195.0</ele>
        <time>2020-07-11T09:55:20Z</time>
      </trkpt>
      <trkpt lat="48.691532" lon="7.704756">
        <ele>195.0</ele>
        <time>2020-07-11T09:55:22Z</time>
      </trkpt>
      <trkpt lat="48.691424" lon="7.704813">
        <ele>195.0</ele>
        <time>2020-07-11T09:55:24Z</time>
      </trkpt>
      <trkpt lat="48.69131" lon="7.704872">
        <ele>195.0</ele>
        <time>2020-07-11T09:55:26Z</time>
      </trkpt>
      <trkpt lat="48.691149" lon="7.70495">
        <ele>195.0</ele>
        <time>2020-07-11T09:55:29Z</time>
      </trkpt>
      <trkpt lat="48.691039" lon="7.705016">
        <ele>195.0</ele>
        <time>2020-07-11T09:55:31Z</time>
      </trkpt>
      <trkpt lat="48.690927" lon="7.705091">
        <ele>195.0</ele>
        <time>2020-07-11T09:55:33Z</time>
      </trkpt>
      <trkpt lat="48.690827" lon="7.705172">
        <ele>195.0</ele>
        <time>2020-07-11T09:55:35Z</time>
      </trkpt>
      <trkpt lat="48.690724" lon="7.705245">
        <ele>195.0</ele>
        <time>2020-07-11T09:55:37Z</time>
      </trkpt>
      <trkpt lat="48.690601" lon="7.705278">
        <ele>195.0</ele>
        <time>2020-07-11T09:55:39Z</time>
      </trkpt>
      <trkpt lat="48.690441" lon="7.705357">
        <ele>195.0</ele>
        <time>2020-07-11T09:55:42Z</time>
      </trkpt>
      <trkpt lat="48.690334" lon="7.705407">
        <ele>195.0</ele>
        <time>2020-07-11T09:55:44Z</time>
      </trkpt>
      <trkpt lat="48.690227" lon="7.705463">
        <ele>196.0</ele>
        <time>2020-07-11T09:55:46Z</time>
      </trkpt>
      <trkpt lat="48.69017" lon="7.705496">
        <ele>196.0</ele>
        <time>2020-07-11T09:55:47Z</time>
      </trkpt>
      <trkpt lat="48.689948" lon="7.705617">
        <ele>196.0</ele>
        <time>2020-07-11T09:55:51Z</time>
      </trkpt>
      <trkpt lat="48.689837" lon="7.705674">
        <ele>195.0</ele>
        <time>2020-07-11T09:55:53Z</time>
      </trkpt>
      <trkpt lat="48.689727" lon="7.705741">
        <ele>195.0</ele>
        <time>2020-07-11T09:55:55Z</time>
      </trkpt>
      <trkpt lat="48.689571" lon="7.705861">
        <ele>196.0</ele>
        <time>2020-07-11T09:55:58Z</time>
      </trkpt>
      <trkpt lat="48.689466" lon="7.705928">
        <ele>196.0</ele>
        <time>2020-07-11T09:56:00Z</time>
      </trkpt>
      <trkpt lat="48.689301" lon="7.705957">
        <ele>196.0</ele>
        <time>2020-07-11T09:56:03Z</time>
      </trkpt>
      <trkpt lat="48.689247" lon="7.705977">
        <ele>195.0</ele>
        <time>2020-07-11T09:56:04Z</time>
      </trkpt>
      <trkpt lat="48.689083" lon="7.706073">
        <ele>196.0</ele>
        <time>2020-07-11T09:56:07Z</time>
      </trkpt>
      <trkpt lat="48.688976" lon="7.706134">
        <ele>196.0</ele>
        <time>2020-07-11T09:56:09Z</time>
      </trkpt>
      <trkpt lat="48.688818" lon="7.706224">
        <ele>195.0</ele>
        <time>2020-07-11T09:56:12Z</time>
      </trkpt>
      <trkpt lat="48.688706" lon="7.706287">
        <ele>195.0</ele>
        <time>2020-07-11T09:56:14Z</time>
      </trkpt>
      <trkpt lat="48.688598" lon="7.706344">
        <ele>195.0</ele>
        <time>2020-07-11T09:56:16Z</time>
      </trkpt>
      <trkpt lat="48.688489" lon="7.7064">
        <ele>195.0</ele>
        <time>2020-07-11T09:56:18Z</time>
      </trkpt>
      <trkpt lat="48.688318" lon="7.70649">
        <ele>195.0</ele>
        <time>2020-07-11T09:56:21Z</time>
      </trkpt>
      <trkpt lat="48.688207" lon="7.706557">
        <ele>195.0</ele>
        <time>2020-07-11T09:56:23Z</time>
      </trkpt>
      <trkpt lat="48.688096" lon="7.706619">
        <ele>195.0</ele>
        <time>2020-07-11T09:56:25Z</time>
      </trkpt>
      <trkpt lat="48.68798" lon="7.706676">
        <ele>196.0</ele>
        <time>2020-07-11T09:56:27Z</time>
      </trkpt>
      <trkpt lat="48.687863" lon="7.706737">
        <ele>195.0</ele>
        <time>2020-07-11T09:56:29Z</time>
      </trkpt>
      <trkpt lat="48.687751" lon="7.706798">
        <ele>196.0</ele>
        <time>2020-07-11T09:56:31Z</time>
      </trkpt>
      <trkpt lat="48.687642" lon="7.706867">
        <ele>196.0</ele>
        <time>2020-07-11T09:56:33Z</time>
      </trkpt>
      <trkpt lat="48.687523" lon="7.706924">
        <ele>196.0</ele>
        <time>2020-07-11T09:56:35Z</time>
      </trkpt>
      <trkpt lat="48.687411" lon="7.706986">
        <ele>197.0</ele>
        <time>2020-07-11T09:56:37Z</time>
      </trkpt>
      <trkpt lat="48.687246" lon="7.70708">
        <ele>197.0</ele>
        <time>2020-07-11T09:56:40Z</time>
      </trkpt>
      <trkpt lat="48.687139" lon="7.70714">
        <ele>197.0</ele>
        <time>2020-07-11T09:56:42Z</time>
      </trkpt>
      <trkpt lat="48.686972" lon="7.707227">
        <ele>197.0</ele>
        <time>2020-07-11T09:56:45Z</time>
      </trkpt>
      <trkpt lat="48.686918" lon="7.70726">
        <ele>196.0</ele>
        <time>2020-07-11T09:56:46Z</time>
      </trkpt>
      <trkpt lat="48.686752" lon="7.707337">
        <ele>196.0</ele>
        <time>2020-07-11T09:56:49Z</time>
      </trkpt>
      <trkpt lat="48.686639" lon="7.707389">
        <ele>196.0</ele>
        <time>2020-07-11T09:56:51Z</time>
      </trkpt>
      <trkpt lat="48.686468" lon="7.70748">
        <ele>195.0</ele>
        <time>2020-07-11T09:56:54Z</time>
      </trkpt>
      <trkpt lat="48.686294" lon="7.707575">
        <ele>196.0</ele>
        <time>2020-07-11T09:56:57Z</time>
      </trkpt>
      <trkpt lat="48.686238" lon="7.707603">
        <ele>196.0</ele>
        <time>2020-07-11T09:56:58Z</time>
      </trkpt>
      <trkpt lat="48.686076" lon="7.707683">
        <ele>196.0</ele>
        <time>2020-07-11T09:57:01Z</time>
      </trkpt>
      <trkpt lat="48.685961" lon="7.707744">
        <ele>196.0</ele>
        <time>2020-07-11T09:57:03Z</time>
      </trkpt>
      <trkpt lat="48.685851" lon="7.707805">
        <ele>196.0</ele>
        <time>2020-07-11T09:57:05Z</time>
      </trkpt>
      <trkpt lat="48.685681" lon="7.70789">
        <ele>196.0</ele>
        <time>2020-07-11T09:57:08Z</time>
      </trkpt>
      <trkpt lat="48.685624" lon="7.707924">
        <ele>196.0</ele>
        <time>2020-07-11T09:57:09Z</time>
      </trkpt>
      <trkpt lat="48.685462" lon="7.708017">
        <ele>195.0</ele>
        <time>2020-07-11T09:57:12Z</time>
      </trkpt>
      <trkpt lat="48.685352" lon="7.708072">
        <ele>195.0</ele>
        <time>2020-07-11T09:57:14Z</time>
      </trkpt>
      <trkpt lat="48.685241" lon="7.708086">
        <ele>194.0</ele>
        <time>2020-07-11T09:57:16Z</time>
      </trkpt>
      <trkpt lat="48.685118" lon="7.708101">
        <ele>194.0</ele>
        <time>2020-07-11T09:57:18Z</time>
      </trkpt>
      <trkpt lat="48.685064" lon="7.708204">
        <ele>194.0</ele>
        <time>2020-07-11T09:57:20Z</time>
      </trkpt>
      <trkpt lat="48.684945" lon="7.70829">
        <ele>195.0</ele>
        <time>2020-07-11T09:57:22Z</time>
      </trkpt>
      <trkpt lat="48.684822" lon="7.708363">
        <ele>194.0</ele>
        <time>2020-07-11T09:57:24Z</time>
      </trkpt>
      <trkpt lat="48.684703" lon="7.708413">
        <ele>196.0</ele>
        <time>2020-07-11T09:57:26Z</time>
      </trkpt>
      <trkpt lat="48.684593" lon="7.708463">
        <ele>196.0</ele>
        <time>2020-07-11T09:57:28Z</time>
      </trkpt>
      <trkpt lat="48.684481" lon="7.708526">
        <ele>196.0</ele>
        <time>2020-07-11T09:57:30Z</time>
      </trkpt>
      <trkpt lat="48.68432" lon="7.70861">
        <ele>196.0</ele>
        <time>2020-07-11T09:57:33Z</time>
      </trkpt>
      <trkpt lat="48.684153" lon="7.708694">
        <ele>197.0</ele>
        <time>2020-07-11T09:57:36Z</time>
      </trkpt>
      <trkpt lat="48.683997" lon="7.708775">
        <ele>197.0</ele>
        <time>2020-07-11T09:57:39Z</time>
      </trkpt>
      <trkpt lat="48.683949" lon="7.708799">
        <ele>196.0</ele>
        <time>2020-07-11T09:57:40Z</time>
      </trkpt>
      <trkpt lat="48.683795" lon="7.708887">
        <ele>197.0</ele>
        <time>2020-07-11T09:57:43Z</time>
      </trkpt>
      <trkpt lat="48.683631" lon="7.708973">
        <ele>197.0</ele>
        <time>2020-07-11T09:57:46Z</time>
      </trkpt>
      <trkpt lat="48.68352" lon="7.709038">
        <ele>197.0</ele>
        <time>2020-07-11T09:57:48Z</time>
      </trkpt>
      <trkpt lat="48.68347" lon="7.709065">
        <ele>197.0</ele>
        <time>2020-07-11T09:57:49Z</time>
      </trkpt>
      <trkpt lat="48.683317" lon="7.709157">
        <ele>196.0</ele>
        <time>2020-07-11T09:57:52Z</time>
      </trkpt>
      <trkpt lat="48.683211" lon="7.709209">
        <ele>196.0</ele>
        <time>2020-07-11T09:57:54Z</time>
      </trkpt>
      <trkpt lat="48.683107" lon="7.709259">
        <ele>195.0</ele>
        <time>2020-07-11T09:57:56Z</time>
      </trkpt>
      <trkpt lat="48.683005" lon="7.709292">
        <ele>195.0</ele>
        <time>2020-07-11T09:57:58Z</time>
      </trkpt>
      <trkpt lat="48.682845" lon="7.709353">
        <ele>194.0</ele>
        <time>2020-07-11T09:58:01Z</time>
      </trkpt>
      <trkpt lat="48.682735" lon="7.709419">
        <ele>194.0</ele>
        <time>2020-07-11T09:58:03Z</time>
      </trkpt>
      <trkpt lat="48.682629" lon="7.709512">
        <ele>195.0</ele>
        <time>2020-07-11T09:58:05Z</time>
      </trkpt>
      <trkpt lat="48.682527" lon="7.709593">
        <ele>194.0</ele>
        <time>2020-07-11T09:58:07Z</time>
      </trkpt>
      <trkpt lat="48.682401" lon="7.709677">
        <ele>193.0</ele>
        <time>2020-07-11T09:58:09Z</time>
      </trkpt>
      <trkpt lat="48.682198" lon="7.709786">
        <ele>192.0</ele>
        <time>2020-07-11T09:58:12Z</time>
      </trkpt>
      <trkpt lat="48.682061" lon="7.709848">
        <ele>192.0</ele>
        <time>2020-07-11T09:58:14Z</time>
      </trkpt>
      <trkpt lat="48.68193" lon="7.709918">
        <ele>193.0</ele>
        <time>2020-07-11T09:58:16Z</time>
      </trkpt>
      <trkpt lat="48.681792" lon="7.709977">
        <ele>194.0</ele>
        <time>2020-07-11T09:58:18Z</time>
      </trkpt>
      <trkpt lat="48.681596" lon="7.71008">
        <ele>194.0</ele>
        <time>2020-07-11T09:58:21Z</time>
      </trkpt>
      <trkpt lat="48.681471" lon="7.710154">
        <ele>194.0</ele>
        <time>2020-07-11T09:58:23Z</time>
      </trkpt>
      <trkpt lat="48.681347" lon="7.710213">
        <ele>193.0</ele>
        <time>2020-07-11T09:58:25Z</time>
      </trkpt>
      <trkpt lat="48.681227" lon="7.710275">
        <ele>193.0</ele>
        <time>2020-07-11T09:58:27Z</time>
      </trkpt>
      <trkpt lat="48.681107" lon="7.710348">
        <ele>193.0</ele>
        <time>2020-07-11T09:58:29Z</time>
      </trkpt>
      <trkpt lat="48.680931" lon="7.710434">
        <ele>193.0</ele>
        <time>2020-07-11T09:58:32Z</time>
      </trkpt>
      <trkpt lat="48.680818" lon="7.710494">
        <ele>193.0</ele>
        <time>2020-07-11T09:58:34Z</time>
      </trkpt>
      <trkpt lat="48.680701" lon="7.710549">
        <ele>193.0</ele>
        <time>2020-07-11T09:58:36Z</time>
      </trkpt>
      <trkpt lat="48.680581" lon="7.710613">
        <ele>193.0</ele>
        <time>2020-07-11T09:58:38Z</time>
      </trkpt>
      <trkpt lat="48.68046" lon="7.710683">
        <ele>193.0</ele>
        <time>2020-07-11T09:58:40Z</time>
      </trkpt>
      <trkpt lat="48.68034" lon="7.710743">
        <ele>193.0</ele>
        <time>2020-07-11T09:58:42Z</time>
      </trkpt>
      <trkpt lat="48.680223" lon="7.710798">
        <ele>193.0</ele>
        <time>2020-07-11T09:58:44Z</time>
      </trkpt>
      <trkpt lat="48.680106" lon="7.710857">
        <ele>193.0</ele>
        <time>2020-07-11T09:58:46Z</time>
      </trkpt>
      <trkpt lat="48.679991" lon="7.710923">
        <ele>193.0</ele>
        <time>2020-07-11T09:58:48Z</time>
      </trkpt>
      <trkpt lat="48.679821" lon="7.711018">
        <ele>193.0</ele>
        <time>2020-07-11T09:58:51Z</time>
      </trkpt>
      <trkpt lat="48.67965" lon="7.711107">
        <ele>193.0</ele>
        <time>2020-07-11T09:58:54Z</time>
      </trkpt>
      <trkpt lat="48.679534" lon="7.711177">
        <ele>193.0</ele>
        <time>2020-07-11T09:58:56Z</time>
      </trkpt>
      <trkpt lat="48.67942" lon="7.711241">
        <ele>194.0</ele>
        <time>2020-07-11T09:58:58Z</time>
      </trkpt>
      <trkpt lat="48.679244" lon="7.711334">
        <ele>194.0</ele>
        <time>2020-07-11T09:59:01Z</time>
      </trkpt>
      <trkpt lat="48.679131" lon="7.711399">
        <ele>194.0</ele>
        <time>2020-07-11T09:59:03Z</time>
      </trkpt>
      <trkpt lat="48.679016" lon="7.711467">
        <ele>194.0</ele>
        <time>2020-07-11T09:59:05Z</time>
      </trkpt>
      <trkpt lat="48.678835" lon="7.711556">
        <ele>195.0</ele>
        <time>2020-07-11T09:59:08Z</time>
      </trkpt>
      <trkpt lat="48.678716" lon="7.711618">
        <ele>194.0</ele>
        <time>2020-07-11T09:59:10Z</time>
      </trkpt>
      <trkpt lat="48.678602" lon="7.711687">
        <ele>194.0</ele>
        <time>2020-07-11T09:59:12Z</time>
      </trkpt>
      <trkpt lat="48.678486" lon="7.711745">
        <ele>194.0</ele>
        <time>2020-07-11T09:59:14Z</time>
      </trkpt>
      <trkpt lat="48.678429" lon="7.711774">
        <ele>194.0</ele>
        <time>2020-07-11T09:59:15Z</time>
      </trkpt>
      <trkpt lat="48.678254" lon="7.711857">
        <ele>194.0</ele>
        <time>2020-07-11T09:59:18Z</time>
      </trkpt>
      <trkpt lat="48.678087" lon="7.711939">
        <ele>194.0</ele>
        <time>2020-07-11T09:59:21Z</time>
      </trkpt>
      <trkpt lat="48.677981" lon="7.712019">
        <ele>195.0</ele>
        <time>2020-07-11T09:59:23Z</time>
      </trkpt>
      <trkpt lat="48.677875" lon="7.71208">
        <ele>194.0</ele>
        <time>2020-07-11T09:59:25Z</time>
      </trkpt>
      <trkpt lat="48.677703" lon="7.71217">
        <ele>195.0</ele>
        <time>2020-07-11T09:59:28Z</time>
      </trkpt>
      <trkpt lat="48.677591" lon="7.712224">
        <ele>195.0</ele>
        <time>2020-07-11T09:59:30Z</time>
      </trkpt>
      <trkpt lat="48.677481" lon="7.712278">
        <ele>195.0</ele>
        <time>2020-07-11T09:59:32Z</time>
      </trkpt>
      <trkpt lat="48.677353" lon="7.712325">
        <ele>194.0</ele>
        <time>2020-07-11T09:59:34Z</time>
      </trkpt>
      <trkpt lat="48.677293" lon="7.712353">
        <ele>194.0</ele>
        <time>2020-07-11T09:59:35Z</time>
      </trkpt>
      <trkpt lat="48.677134" lon="7.712448">
        <ele>194.0</ele>
        <time>2020-07-11T09:59:38Z</time>
      </trkpt>
      <trkpt lat="48.677028" lon="7.712508">
        <ele>194.0</ele>
        <time>2020-07-11T09:59:40Z</time>
      </trkpt>
      <trkpt lat="48.676859" lon="7.712614">
        <ele>193.0</ele>
        <time>2020-07-11T09:59:43Z</time>
      </trkpt>
      <trkpt lat="48.676751" lon="7.712669">
        <ele>193.0</ele>
        <time>2020-07-11T09:59:45Z</time>
      </trkpt>
      <trkpt lat="48.676584" lon="7.712769">
        <ele>192.0</ele>
        <time>2020-07-11T09:59:48Z</time>
      </trkpt>
      <trkpt lat="48.676528" lon="7.712805">
        <ele>192.0</ele>
        <time>2020-07-11T09:59:49Z</time>
      </trkpt>
      <trkpt lat="48.676287" lon="7.712932">
        <ele>192.0</ele>
        <time>2020-07-11T09:59:53Z</time>
      </trkpt>
      <trkpt lat="48.676175" lon="7.712989">
        <ele>192.0</ele>
        <time>2020-07-11T09:59:55Z</time>
      </trkpt>
      <trkpt lat="48.676062" lon="7.71305">
        <ele>191.0</ele>
        <time>2020-07-11T09:59:57Z</time>
      </trkpt>
      <trkpt lat="48.675948" lon="7.713103">
        <ele>190.0</ele>
        <time>2020-07-11T09:59:59Z</time>
      </trkpt>
      <trkpt lat="48.675837" lon="7.71316">
        <ele>190.0</ele>
        <time>2020-07-11T10:00:01Z</time>
      </trkpt>
      <trkpt lat="48.675722" lon="7.713214">
        <ele>191.0</ele>
        <time>2020-07-11T10:00:03Z</time>
      </trkpt>
      <trkpt lat="48.675609" lon="7.713275">
        <ele>191.0</ele>
        <time>2020-07-11T10:00:05Z</time>
      </trkpt>
      <trkpt lat="48.675428" lon="7.713378">
        <ele>191.0</ele>
        <time>2020-07-11T10:00:08Z</time>
      </trkpt>
      <trkpt lat="48.675317" lon="7.713445">
        <ele>192.0</ele>
        <time>2020-07-11T10:00:10Z</time>
      </trkpt>
      <trkpt lat="48.675258" lon="7.713473">
        <ele>192.0</ele>
        <time>2020-07-11T10:00:11Z</time>
      </trkpt>
      <trkpt lat="48.675091" lon="7.713555">
        <ele>192.0</ele>
        <time>2020-07-11T10:00:14Z</time>
      </trkpt>
      <trkpt lat="48.674982" lon="7.71361">
        <ele>192.0</ele>
        <time>2020-07-11T10:00:16Z</time>
      </trkpt>
      <trkpt lat="48.674873" lon="7.713662">
        <ele>191.0</ele>
        <time>2020-07-11T10:00:18Z</time>
      </trkpt>
      <trkpt lat="48.674772" lon="7.713722">
        <ele>192.0</ele>
        <time>2020-07-11T10:00:20Z</time>
      </trkpt>
      <trkpt lat="48.674665" lon="7.713776">
        <ele>192.0</ele>
        <time>2020-07-11T10:00:22Z</time>
      </trkpt>
      <trkpt lat="48.674459" lon="7.713885">
        <ele>192.0</ele>
        <time>2020-07-11T10:00:26Z</time>
      </trkpt>
      <trkpt lat="48.674358" lon="7.713941">
        <ele>192.0</ele>
        <time>2020-07-11T10:00:28Z</time>
      </trkpt>
      <trkpt lat="48.674266" lon="7.71399">
        <ele>192.0</ele>
        <time>2020-07-11T10:00:30Z</time>
      </trkpt>
      <trkpt lat="48.674128" lon="7.714071">
        <ele>192.0</ele>
        <time>2020-07-11T10:00:33Z</time>
      </trkpt>
      <trkpt lat="48.674084" lon="7.714093">
        <ele>192.0</ele>
        <time>2020-07-11T10:00:34Z</time>
      </trkpt>
      <trkpt lat="48.673939" lon="7.714167">
        <ele>192.0</ele>
        <time>2020-07-11T10:00:37Z</time>
      </trkpt>
      <trkpt lat="48.673894" lon="7.714194">
        <ele>192.0</ele>
        <time>2020-07-11T10:00:38Z</time>
      </trkpt>
      <trkpt lat="48.673809" lon="7.714249">
        <ele>191.0</ele>
        <time>2020-07-11T10:00:40Z</time>
      </trkpt>
      <trkpt lat="48.673613" lon="7.714345">
        <ele>191.0</ele>
        <time>2020-07-11T10:00:44Z</time>
      </trkpt>
      <trkpt lat="48.673514" lon="7.714388">
        <ele>192.0</ele>
        <time>2020-07-11T10:00:46Z</time>
      </trkpt>
      <trkpt lat="48.673465" lon="7.714407">
        <ele>192.0</ele>
        <time>2020-07-11T10:00:47Z</time>
      </trkpt>
      <trkpt lat="48.673367" lon="7.714438">
        <ele>191.0</ele>
        <time>2020-07-11T10:00:49Z</time>
      </trkpt>
      <trkpt lat="48.673211" lon="7.714504">
        <ele>192.0</ele>
        <time>2020-07-11T10:00:52Z</time>
      </trkpt>
      <trkpt lat="48.673115" lon="7.714582">
        <ele>192.0</ele>
        <time>2020-07-11T10:00:54Z</time>
      </trkpt>
      <trkpt lat="48.673035" lon="7.714667">
        <ele>192.0</ele>
        <time>2020-07-11T10:00:56Z</time>
      </trkpt>
      <trkpt lat="48.672932" lon="7.714727">
        <ele>191.0</ele>
        <time>2020-07-11T10:00:58Z</time>
      </trkpt>
      <trkpt lat="48.672871" lon="7.714767">
        <ele>190.0</ele>
        <time>2020-07-11T10:00:59Z</time>
      </trkpt>
      <trkpt lat="48.672625" lon="7.714909">
        <ele>190.0</ele>
        <time>2020-07-11T10:01:03Z</time>
      </trkpt>
      <trkpt lat="48.672503" lon="7.714968">
        <ele>191.0</ele>
        <time>2020-07-11T10:01:05Z</time>
      </trkpt>
      <trkpt lat="48.672391" lon="7.715022">
        <ele>191.0</ele>
        <time>2020-07-11T10:01:07Z</time>
      </trkpt>
      <trkpt lat="48.672282" lon="7.715069">
        <ele>191.0</ele>
        <time>2020-07-11T10:01:09Z</time>
      </trkpt>
      <trkpt lat="48.672176" lon="7.715118">
        <ele>191.0</ele>
        <time>2020-07-11T10:01:11Z</time>
      </trkpt>
      <trkpt lat="48.672069" lon="7.715176">
        <ele>191.0</ele>
        <time>2020-07-11T10:01:13Z</time>
      </trkpt>
      <trkpt lat="48.67186" lon="7.71529">
        <ele>190.0</ele>
        <time>2020-07-11T10:01:17Z</time>
      </trkpt>
      <trkpt lat="48.671747" lon="7.715353">
        <ele>190.0</ele>
        <time>2020-07-11T10:01:19Z</time>
      </trkpt>
      <trkpt lat="48.671636" lon="7.715425">
        <ele>190.0</ele>
        <time>2020-07-11T10:01:21Z</time>
      </trkpt>
      <trkpt lat="48.671481" lon="7.715502">
        <ele>190.0</ele>
        <time>2020-07-11T10:01:24Z</time>
      </trkpt>
      <trkpt lat="48.671386" lon="7.715553">
        <ele>190.0</ele>
        <time>2020-07-11T10:01:26Z</time>
      </trkpt>
      <trkpt lat="48.671295" lon="7.715591">
        <ele>190.0</ele>
        <time>2020-07-11T10:01:28Z</time>
      </trkpt>
      <trkpt lat="48.671133" lon="7.715668">
        <ele>190.0</ele>
        <time>2020-07-11T10:01:32Z</time>
      </trkpt>
      <trkpt lat="48.671064" lon="7.715704">
        <ele>190.0</ele>
        <time>2020-07-11T10:01:34Z</time>
      </trkpt>
      <trkpt lat="48.67103" lon="7.715727">
        <ele>190.0</ele>
        <time>2020-07-11T10:01:36Z</time>
      </trkpt>
      <trkpt lat="48.671024" lon="7.715725">
        <ele>190.0</ele>
        <time>2020-07-11T10:01:38Z</time>
      </trkpt>
      <trkpt lat="48.671024" lon="7.715725">
        <ele>190.0</ele>
        <time>2020-07-11T10:01:39Z</time>
      </trkpt>
      <trkpt lat="48.671025" lon="7.715729">
        <ele>190.0</ele>
        <time>2020-07-11T10:01:42Z</time>
      </trkpt>
      <trkpt lat="48.671025" lon="7.715729">
        <ele>190.0</ele>
        <time>2020-07-11T10:01:44Z</time>
      </trkpt>
      <trkpt lat="48.671025" lon="7.715729">
        <ele>190.0</ele>
        <time>2020-07-11T10:03:56Z</time>
      </trkpt>
      <trkpt lat="48.671025" lon="7.715729">
        <ele>190.0</ele>
        <time>2020-07-11T10:03:58Z</time>
      </trkpt>
      <trkpt lat="48.671025" lon="7.715729">
        <ele>190.0</ele>
        <time>2020-07-11T10:04:00Z</time>
      </trkpt>
      <trkpt lat="48.671025" lon="7.715729">
        <ele>190.0</ele>
        <time>2020-07-11T10:04:02Z</time>
      </trkpt>
      <trkpt lat="48.671025" lon="7.715729">
        <ele>190.0</ele>
        <time>2020-07-11T10:04:05Z</time>
      </trkpt>
      <trkpt lat="48.671025" lon="7.715729">
        <ele>190.0</ele>
        <time>2020-07-11T10:04:07Z</time>
      </trkpt>
      <trkpt lat="48.671025" lon="7.715729">
        <ele>190.0</ele>
        <time>2020-07-11T10:04:09Z</time>
      </trkpt>
      <trkpt lat="48.671025" lon="7.715729">
        <ele>190.0</ele>
        <time>2020-07-11T10:04:11Z</time>
      </trkpt>
      <trkpt lat="48.671025" lon="7.715729">
        <ele>190.0</ele>
        <time>2020-07-11T10:04:13Z</time>
      </trkpt>
      <trkpt lat="48.671025" lon="7.715729">
        <ele>190.0</ele>
        <time>2020-07-11T10:04:16Z</time>
      </trkpt>
      <trkpt lat="48.671025" lon="7.715729">
        <ele>190.0</ele>
        <time>2020-07-11T10:04:18Z</time>
      </trkpt>
      <trkpt lat="48.671017" lon="7.715731">
        <ele>190.0</ele>
        <time>2020-07-11T10:04:20Z</time>
      </trkpt>
      <trkpt lat="48.670992" lon="7.715687">
        <ele>190.0</ele>
        <time>2020-07-11T10:04:22Z</time>
      </trkpt>
      <trkpt lat="48.670962" lon="7.715587">
        <ele>190.0</ele>
        <time>2020-07-11T10:04:25Z</time>
      </trkpt>
      <trkpt lat="48.670945" lon="7.715514">
        <ele>190.0</ele>
        <time>2020-07-11T10:04:27Z</time>
      </trkpt>
      <trkpt lat="48.670914" lon="7.715459">
        <ele>190.0</ele>
        <time>2020-07-11T10:04:29Z</time>
      </trkpt>
      <trkpt lat="48.670874" lon="7.715493">
        <ele>189.0</ele>
        <time>2020-07-11T10:04:31Z</time>
      </trkpt>
      <trkpt lat="48.670802" lon="7.71555">
        <ele>190.0</ele>
        <time>2020-07-11T10:04:33Z</time>
      </trkpt>
      <trkpt lat="48.670736" lon="7.715598">
        <ele>189.0</ele>
        <time>2020-07-11T10:04:35Z</time>
      </trkpt>
      <trkpt lat="48.670658" lon="7.715638">
        <ele>189.0</ele>
        <time>2020-07-11T10:04:37Z</time>
      </trkpt>
      <trkpt lat="48.670537" lon="7.715714">
        <ele>188.0</ele>
        <time>2020-07-11T10:04:40Z</time>
      </trkpt>
      <trkpt lat="48.670455" lon="7.715768">
        <ele>189.0</ele>
        <time>2020-07-11T10:04:42Z</time>
      </trkpt>
      <trkpt lat="48.670373" lon="7.715833">
        <ele>189.0</ele>
        <time>2020-07-11T10:04:44Z</time>
      </trkpt>
      <trkpt lat="48.6703" lon="7.715902">
        <ele>189.0</ele>
        <time>2020-07-11T10:04:46Z</time>
      </trkpt>
      <trkpt lat="48.670261" lon="7.715934">
        <ele>189.0</ele>
        <time>2020-07-11T10:04:47Z</time>
      </trkpt>
      <trkpt lat="48.670111" lon="7.716084">
        <ele>189.0</ele>
        <time>2020-07-11T10:04:51Z</time>
      </trkpt>
      <trkpt lat="48.670036" lon="7.716167">
        <ele>189.0</ele>
        <time>2020-07-11T10:04:53Z</time>
      </trkpt>
      <trkpt lat="48.669958" lon="7.716245">
        <ele>189.0</ele>
        <time>2020-07-11T10:04:55Z</time>
      </trkpt>
      <trkpt lat="48.66988" lon="7.71634">
        <ele>189.0</ele>
        <time>2020-07-11T10:04:57Z</time>
      </trkpt>
      <trkpt lat="48.669808" lon="7.716437">
        <ele>190.0</ele>
        <time>2020-07-11T10:04:59Z</time>
      </trkpt>
      <trkpt lat="48.669737" lon="7.716539">
        <ele>190.0</ele>
        <time>2020-07-11T10:05:01Z</time>
      </trkpt>
      <trkpt lat="48.669664" lon="7.716651">
        <ele>190.0</ele>
        <time>2020-07-11T10:05:03Z</time>
      </trkpt>
      <trkpt lat="48.669597" lon="7.716759">
        <ele>190.0</ele>
        <time>2020-07-11T10:05:05Z</time>
      </trkpt>
      <trkpt lat="48.669493" lon="7.716927">
        <ele>190.0</ele>
        <time>2020-07-11T10:05:08Z</time>
      </trkpt>
      <trkpt lat="48.669428" lon="7.717041">
        <ele>190.0</ele>
        <time>2020-07-11T10:05:10Z</time>
      </trkpt>
      <trkpt lat="48.669362" lon="7.717156">
        <ele>190.0</ele>
        <time>2020-07-11T10:05:12Z</time>
      </trkpt>
      <trkpt lat="48.669284" lon="7.71733">
        <ele>190.0</ele>
        <time>2020-07-11T10:05:15Z</time>
      </trkpt>
      <trkpt lat="48.669239" lon="7.717449">
        <ele>190.0</ele>
        <time>2020-07-11T10:05:17Z</time>
      </trkpt>
      <trkpt lat="48.66918" lon="7.717537">
        <ele>189.0</ele>
        <time>2020-07-11T10:05:19Z</time>
      </trkpt>
      <trkpt lat="48.669122" lon="7.717619">
        <ele>189.0</ele>
        <time>2020-07-11T10:05:21Z</time>
      </trkpt>
      <trkpt lat="48.669011" lon="7.717803">
        <ele>188.0</ele>
        <time>2020-07-11T10:05:24Z</time>
      </trkpt>
      <trkpt lat="48.66895" lon="7.717935">
        <ele>188.0</ele>
        <time>2020-07-11T10:05:26Z</time>
      </trkpt>
      <trkpt lat="48.668892" lon="7.718057">
        <ele>189.0</ele>
        <time>2020-07-11T10:05:28Z</time>
      </trkpt>
      <trkpt lat="48.668792" lon="7.718256">
        <ele>190.0</ele>
        <time>2020-07-11T10:05:31Z</time>
      </trkpt>
      <trkpt lat="48.668727" lon="7.718384">
        <ele>190.0</ele>
        <time>2020-07-11T10:05:33Z</time>
      </trkpt>
      <trkpt lat="48.668662" lon="7.71851">
        <ele>191.0</ele>
        <time>2020-07-11T10:05:35Z</time>
      </trkpt>
      <trkpt lat="48.668603" lon="7.718631">
        <ele>191.0</ele>
        <time>2020-07-11T10:05:37Z</time>
      </trkpt>
      <trkpt lat="48.668571" lon="7.718694">
        <ele>191.0</ele>
        <time>2020-07-11T10:05:38Z</time>
      </trkpt>
      <trkpt lat="48.668476" lon="7.71888">
        <ele>191.0</ele>
        <time>2020-07-11T10:05:41Z</time>
      </trkpt>
      <trkpt lat="48.66841" lon="7.718999">
        <ele>191.0</ele>
        <time>2020-07-11T10:05:43Z</time>
      </trkpt>
      <trkpt lat="48.66835" lon="7.719119">
        <ele>191.0</ele>
        <time>2020-07-11T10:05:45Z</time>
      </trkpt>
      <trkpt lat="48.668317" lon="7.719187">
        <ele>191.0</ele>
        <time>2020-07-11T10:05:46Z</time>
      </trkpt>
      <trkpt lat="48.668234" lon="7.719366">
        <ele>191.0</ele>
        <time>2020-07-11T10:05:49Z</time>
      </trkpt>
      <trkpt lat="48.668181" lon="7.719465">
        <ele>191.0</ele>
        <time>2020-07-11T10:05:51Z</time>
      </trkpt>
      <trkpt lat="48.668098" lon="7.719528">
        <ele>190.0</ele>
        <time>2020-07-11T10:05:53Z</time>
      </trkpt>
      <trkpt lat="48.668019" lon="7.71959">
        <ele>191.0</ele>
        <time>2020-07-11T10:05:55Z</time>
      </trkpt>
      <trkpt lat="48.667939" lon="7.719657">
        <ele>190.0</ele>
        <time>2020-07-11T10:05:57Z</time>
      </trkpt>
      <trkpt lat="48.66782" lon="7.719755">
        <ele>190.0</ele>
        <time>2020-07-11T10:06:00Z</time>
      </trkpt>
      <trkpt lat="48.667759" lon="7.719842">
        <ele>189.0</ele>
        <time>2020-07-11T10:06:02Z</time>
      </trkpt>
      <trkpt lat="48.667694" lon="7.71995">
        <ele>190.0</ele>
        <time>2020-07-11T10:06:04Z</time>
      </trkpt>
      <trkpt lat="48.667596" lon="7.720112">
        <ele>190.0</ele>
        <time>2020-07-11T10:06:07Z</time>
      </trkpt>
      <trkpt lat="48.667566" lon="7.72016">
        <ele>190.0</ele>
        <time>2020-07-11T10:06:08Z</time>
      </trkpt>
      <trkpt lat="48.667477" lon="7.720314">
        <ele>190.0</ele>
        <time>2020-07-11T10:06:11Z</time>
      </trkpt>
      <trkpt lat="48.6674" lon="7.720419">
        <ele>191.0</ele>
        <time>2020-07-11T10:06:13Z</time>
      </trkpt>
      <trkpt lat="48.667324" lon="7.720539">
        <ele>191.0</ele>
        <time>2020-07-11T10:06:15Z</time>
      </trkpt>
      <trkpt lat="48.667237" lon="7.720745">
        <ele>191.0</ele>
        <time>2020-07-11T10:06:18Z</time>
      </trkpt>
      <trkpt lat="48.667187" lon="7.720873">
        <ele>190.0</ele>
        <time>2020-07-11T10:06:20Z</time>
      </trkpt>
      <trkpt lat="48.667094" lon="7.720971">
        <ele>190.0</ele>
        <time>2020-07-11T10:06:22Z</time>
      </trkpt>
      <trkpt lat="48.667005" lon="7.721063">
        <ele>190.0</ele>
        <time>2020-07-11T10:06:24Z</time>
      </trkpt>
      <trkpt lat="48.666962" lon="7.721111">
        <ele>190.0</ele>
        <time>2020-07-11T10:06:25Z</time>
      </trkpt>
      <trkpt lat="48.666846" lon="7.721244">
        <ele>190.0</ele>
        <time>2020-07-11T10:06:28Z</time>
      </trkpt>
      <trkpt lat="48.666765" lon="7.721337">
        <ele>190.0</ele>
        <time>2020-07-11T10:06:30Z</time>
      </trkpt>
      <trkpt lat="48.66668" lon="7.721436">
        <ele>190.0</ele>
        <time>2020-07-11T10:06:32Z</time>
      </trkpt>
      <trkpt lat="48.66659" lon="7.721537">
        <ele>190.0</ele>
        <time>2020-07-11T10:06:34Z</time>
      </trkpt>
      <trkpt lat="48.666456" lon="7.721695">
        <ele>190.0</ele>
        <time>2020-07-11T10:06:37Z</time>
      </trkpt>
      <trkpt lat="48.666366" lon="7.721798">
        <ele>191.0</ele>
        <time>2020-07-11T10:06:39Z</time>
      </trkpt>
      <trkpt lat="48.666281" lon="7.721899">
        <ele>191.0</ele>
        <time>2020-07-11T10:06:41Z</time>
      </trkpt>
      <trkpt lat="48.666201" lon="7.721997">
        <ele>191.0</ele>
        <time>2020-07-11T10:06:43Z</time>
      </trkpt>
      <trkpt lat="48.666071" lon="7.722143">
        <ele>192.0</ele>
        <time>2020-07-11T10:06:46Z</time>
      </trkpt>
      <trkpt lat="48.665988" lon="7.72223">
        <ele>192.0</ele>
        <time>2020-07-11T10:06:48Z</time>
      </trkpt>
      <trkpt lat="48.665946" lon="7.722281">
        <ele>192.0</ele>
        <time>2020-07-11T10:06:49Z</time>
      </trkpt>
      <trkpt lat="48.665822" lon="7.72242">
        <ele>191.0</ele>
        <time>2020-07-11T10:06:52Z</time>
      </trkpt>
      <trkpt lat="48.665738" lon="7.72252">
        <ele>191.0</ele>
        <time>2020-07-11T10:06:54Z</time>
      </trkpt>
      <trkpt lat="48.665648" lon="7.722606">
        <ele>191.0</ele>
        <time>2020-07-11T10:06:56Z</time>
      </trkpt>
      <trkpt lat="48.665552" lon="7.722708">
        <ele>191.0</ele>
        <time>2020-07-11T10:06:58Z</time>
      </trkpt>
      <trkpt lat="48.665463" lon="7.722813">
        <ele>192.0</ele>
        <time>2020-07-11T10:07:00Z</time>
      </trkpt>
      <trkpt lat="48.665381" lon="7.72291">
        <ele>192.0</ele>
        <time>2020-07-11T10:07:02Z</time>
      </trkpt>
      <trkpt lat="48.665299" lon="7.723002">
        <ele>192.0</ele>
        <time>2020-07-11T10:07:04Z</time>
      </trkpt>
      <trkpt lat="48.665216" lon="7.723097">
        <ele>192.0</ele>
        <time>2020-07-11T10:07:06Z</time>
      </trkpt>
      <trkpt lat="48.665125" lon="7.723188">
        <ele>192.0</ele>
        <time>2020-07-11T10:07:08Z</time>
      </trkpt>
      <trkpt lat="48.665039" lon="7.723283">
        <ele>191.0</ele>
        <time>2020-07-11T10:07:10Z</time>
      </trkpt>
      <trkpt lat="48.664915" lon="7.723424">
        <ele>192.0</ele>
        <time>2020-07-11T10:07:13Z</time>
      </trkpt>
      <trkpt lat="48.664832" lon="7.723516">
        <ele>192.0</ele>
        <time>2020-07-11T10:07:15Z</time>
      </trkpt>
      <trkpt lat="48.664749" lon="7.723609">
        <ele>191.0</ele>
        <time>2020-07-11T10:07:17Z</time>
      </trkpt>
      <trkpt lat="48.66466" lon="7.723698">
        <ele>191.0</ele>
        <time>2020-07-11T10:07:19Z</time>
      </trkpt>
      <trkpt lat="48.664577" lon="7.723792">
        <ele>190.0</ele>
        <time>2020-07-11T10:07:21Z</time>
      </trkpt>
      <trkpt lat="48.664493" lon="7.723885">
        <ele>190.0</ele>
        <time>2020-07-11T10:07:23Z</time>
      </trkpt>
      <trkpt lat="48.664378" lon="7.72401">
        <ele>189.0</ele>
        <time>2020-07-11T10:07:26Z</time>
      </trkpt>
      <trkpt lat="48.664306" lon="7.724085">
        <ele>190.0</ele>
        <time>2020-07-11T10:07:28Z</time>
      </trkpt>
      <trkpt lat="48.664273" lon="7.724123">
        <ele>189.0</ele>
        <time>2020-07-11T10:07:29Z</time>
      </trkpt>
      <trkpt lat="48.66418" lon="7.724227">
        <ele>190.0</ele>
        <time>2020-07-11T10:07:32Z</time>
      </trkpt>
      <trkpt lat="48.664102" lon="7.724316">
        <ele>190.0</ele>
        <time>2020-07-11T10:07:35Z</time>
      </trkpt>
      <trkpt lat="48.664053" lon="7.724374">
        <ele>190.0</ele>
        <time>2020-07-11T10:07:37Z</time>
      </trkpt>
      <trkpt lat="48.664004" lon="7.724431">
        <ele>190.0</ele>
        <time>2020-07-11T10:07:39Z</time>
      </trkpt>
      <trkpt lat="48.663933" lon="7.724511">
        <ele>190.0</ele>
        <time>2020-07-11T10:07:42Z</time>
      </trkpt>
      <trkpt lat="48.663885" lon="7.724569">
        <ele>190.0</ele>
        <time>2020-07-11T10:07:44Z</time>
      </trkpt>
      <trkpt lat="48.663829" lon="7.724634">
        <ele>189.0</ele>
        <time>2020-07-11T10:07:46Z</time>
      </trkpt>
      <trkpt lat="48.663771" lon="7.724711">
        <ele>190.0</ele>
        <time>2020-07-11T10:07:48Z</time>
      </trkpt>
      <trkpt lat="48.6637" lon="7.724784">
        <ele>191.0</ele>
        <time>2020-07-11T10:07:50Z</time>
      </trkpt>
      <trkpt lat="48.663655" lon="7.724835">
        <ele>190.0</ele>
        <time>2020-07-11T10:07:52Z</time>
      </trkpt>
      <trkpt lat="48.663604" lon="7.724881">
        <ele>190.0</ele>
        <time>2020-07-11T10:07:54Z</time>
      </trkpt>
      <trkpt lat="48.663552" lon="7.724942">
        <ele>190.0</ele>
        <time>2020-07-11T10:07:56Z</time>
      </trkpt>
      <trkpt lat="48.663504" lon="7.725026">
        <ele>190.0</ele>
        <time>2020-07-11T10:07:58Z</time>
      </trkpt>
      <trkpt lat="48.663435" lon="7.725105">
        <ele>190.0</ele>
        <time>2020-07-11T10:08:00Z</time>
      </trkpt>
      <trkpt lat="48.66335" lon="7.725198">
        <ele>191.0</ele>
        <time>2020-07-11T10:08:02Z</time>
      </trkpt>
      <trkpt lat="48.663252" lon="7.725295">
        <ele>190.0</ele>
        <time>2020-07-11T10:08:04Z</time>
      </trkpt>
      <trkpt lat="48.663172" lon="7.725391">
        <ele>190.0</ele>
        <time>2020-07-11T10:08:06Z</time>
      </trkpt>
      <trkpt lat="48.663081" lon="7.725495">
        <ele>190.0</ele>
        <time>2020-07-11T10:08:08Z</time>
      </trkpt>
      <trkpt lat="48.662987" lon="7.725594">
        <ele>189.0</ele>
        <time>2020-07-11T10:08:10Z</time>
      </trkpt>
      <trkpt lat="48.662891" lon="7.725694">
        <ele>189.0</ele>
        <time>2020-07-11T10:08:12Z</time>
      </trkpt>
      <trkpt lat="48.662808" lon="7.72578">
        <ele>190.0</ele>
        <time>2020-07-11T10:08:14Z</time>
      </trkpt>
      <trkpt lat="48.662723" lon="7.725866">
        <ele>190.0</ele>
        <time>2020-07-11T10:08:16Z</time>
      </trkpt>
      <trkpt lat="48.662631" lon="7.725959">
        <ele>189.0</ele>
        <time>2020-07-11T10:08:18Z</time>
      </trkpt>
      <trkpt lat="48.662548" lon="7.726057">
        <ele>189.0</ele>
        <time>2020-07-11T10:08:20Z</time>
      </trkpt>
      <trkpt lat="48.662466" lon="7.726152">
        <ele>189.0</ele>
        <time>2020-07-11T10:08:22Z</time>
      </trkpt>
      <trkpt lat="48.662387" lon="7.726238">
        <ele>189.0</ele>
        <time>2020-07-11T10:08:24Z</time>
      </trkpt>
      <trkpt lat="48.662286" lon="7.726336">
        <ele>188.0</ele>
        <time>2020-07-11T10:08:26Z</time>
      </trkpt>
      <trkpt lat="48.662196" lon="7.726445">
        <ele>189.0</ele>
        <time>2020-07-11T10:08:28Z</time>
      </trkpt>
      <trkpt lat="48.662098" lon="7.726554">
        <ele>189.0</ele>
        <time>2020-07-11T10:08:30Z</time>
      </trkpt>
      <trkpt lat="48.661999" lon="7.726667">
        <ele>189.0</ele>
        <time>2020-07-11T10:08:32Z</time>
      </trkpt>
      <trkpt lat="48.661908" lon="7.726775">
        <ele>189.0</ele>
        <time>2020-07-11T10:08:34Z</time>
      </trkpt>
      <trkpt lat="48.661816" lon="7.726872">
        <ele>189.0</ele>
        <time>2020-07-11T10:08:36Z</time>
      </trkpt>
      <trkpt lat="48.661671" lon="7.72702">
        <ele>188.0</ele>
        <time>2020-07-11T10:08:39Z</time>
      </trkpt>
      <trkpt lat="48.66158" lon="7.727116">
        <ele>188.0</ele>
        <time>2020-07-11T10:08:41Z</time>
      </trkpt>
      <trkpt lat="48.661492" lon="7.727218">
        <ele>188.0</ele>
        <time>2020-07-11T10:08:43Z</time>
      </trkpt>
      <trkpt lat="48.661411" lon="7.727318">
        <ele>188.0</ele>
        <time>2020-07-11T10:08:45Z</time>
      </trkpt>
      <trkpt lat="48.661279" lon="7.727462">
        <ele>188.0</ele>
        <time>2020-07-11T10:08:48Z</time>
      </trkpt>
      <trkpt lat="48.661184" lon="7.727556">
        <ele>188.0</ele>
        <time>2020-07-11T10:08:50Z</time>
      </trkpt>
      <trkpt lat="48.66109" lon="7.727661">
        <ele>187.0</ele>
        <time>2020-07-11T10:08:52Z</time>
      </trkpt>
      <trkpt lat="48.660954" lon="7.727813">
        <ele>187.0</ele>
        <time>2020-07-11T10:08:55Z</time>
      </trkpt>
      <trkpt lat="48.660868" lon="7.727917">
        <ele>188.0</ele>
        <time>2020-07-11T10:08:57Z</time>
      </trkpt>
      <trkpt lat="48.660779" lon="7.72801">
        <ele>188.0</ele>
        <time>2020-07-11T10:08:59Z</time>
      </trkpt>
      <trkpt lat="48.660692" lon="7.728107">
        <ele>188.0</ele>
        <time>2020-07-11T10:09:01Z</time>
      </trkpt>
      <trkpt lat="48.660597" lon="7.728206">
        <ele>188.0</ele>
        <time>2020-07-11T10:09:03Z</time>
      </trkpt>
      <trkpt lat="48.660462" lon="7.728365">
        <ele>189.0</ele>
        <time>2020-07-11T10:09:06Z</time>
      </trkpt>
      <trkpt lat="48.660378" lon="7.728473">
        <ele>189.0</ele>
        <time>2020-07-11T10:09:08Z</time>
      </trkpt>
      <trkpt lat="48.660288" lon="7.728575">
        <ele>189.0</ele>
        <time>2020-07-11T10:09:10Z</time>
      </trkpt>
      <trkpt lat="48.660192" lon="7.728671">
        <ele>189.0</ele>
        <time>2020-07-11T10:09:12Z</time>
      </trkpt>
      <trkpt lat="48.660147" lon="7.728717">
        <ele>189.0</ele>
        <time>2020-07-11T10:09:13Z</time>
      </trkpt>
      <trkpt lat="48.66002" lon="7.728858">
        <ele>189.0</ele>
        <time>2020-07-11T10:09:16Z</time>
      </trkpt>
      <trkpt lat="48.65993" lon="7.728955">
        <ele>189.0</ele>
        <time>2020-07-11T10:09:18Z</time>
      </trkpt>
      <trkpt lat="48.65984" lon="7.729049">
        <ele>189.0</ele>
        <time>2020-07-11T10:09:20Z</time>
      </trkpt>
      <trkpt lat="48.659749" lon="7.729144">
        <ele>188.0</ele>
        <time>2020-07-11T10:09:22Z</time>
      </trkpt>
      <trkpt lat="48.6596" lon="7.729297">
        <ele>188.0</ele>
        <time>2020-07-11T10:09:25Z</time>
      </trkpt>
      <trkpt lat="48.659504" lon="7.729408">
        <ele>189.0</ele>
        <time>2020-07-11T10:09:27Z</time>
      </trkpt>
      <trkpt lat="48.659412" lon="7.729512">
        <ele>189.0</ele>
        <time>2020-07-11T10:09:29Z</time>
      </trkpt>
      <trkpt lat="48.659313" lon="7.729617">
        <ele>188.0</ele>
        <time>2020-07-11T10:09:31Z</time>
      </trkpt>
      <trkpt lat="48.659208" lon="7.729724">
        <ele>189.0</ele>
        <time>2020-07-11T10:09:33Z</time>
      </trkpt>
      <trkpt lat="48.659068" lon="7.729872">
        <ele>188.0</ele>
        <time>2020-07-11T10:09:36Z</time>
      </trkpt>
      <trkpt lat="48.658926" lon="7.730018">
        <ele>188.0</ele>
        <time>2020-07-11T10:09:39Z</time>
      </trkpt>
      <trkpt lat="48.658774" lon="7.73017">
        <ele>188.0</ele>
        <time>2020-07-11T10:09:42Z</time>
      </trkpt>
      <trkpt lat="48.658721" lon="7.730213">
        <ele>188.0</ele>
        <time>2020-07-11T10:09:43Z</time>
      </trkpt>
      <trkpt lat="48.658553" lon="7.730318">
        <ele>189.0</ele>
        <time>2020-07-11T10:09:46Z</time>
      </trkpt>
      <trkpt lat="48.658398" lon="7.730417">
        <ele>189.0</ele>
        <time>2020-07-11T10:09:49Z</time>
      </trkpt>
      <trkpt lat="48.658308" lon="7.730496">
        <ele>189.0</ele>
        <time>2020-07-11T10:09:51Z</time>
      </trkpt>
      <trkpt lat="48.658176" lon="7.730622">
        <ele>189.0</ele>
        <time>2020-07-11T10:09:54Z</time>
      </trkpt>
      <trkpt lat="48.658097" lon="7.730727">
        <ele>190.0</ele>
        <time>2020-07-11T10:09:56Z</time>
      </trkpt>
      <trkpt lat="48.658032" lon="7.730845">
        <ele>190.0</ele>
        <time>2020-07-11T10:09:58Z</time>
      </trkpt>
      <trkpt lat="48.65795" lon="7.730958">
        <ele>190.0</ele>
        <time>2020-07-11T10:10:00Z</time>
      </trkpt>
      <trkpt lat="48.657867" lon="7.731023">
        <ele>190.0</ele>
        <time>2020-07-11T10:10:02Z</time>
      </trkpt>
      <trkpt lat="48.657786" lon="7.7311">
        <ele>190.0</ele>
        <time>2020-07-11T10:10:04Z</time>
      </trkpt>
      <trkpt lat="48.657645" lon="7.731209">
        <ele>190.0</ele>
        <time>2020-07-11T10:10:07Z</time>
      </trkpt>
      <trkpt lat="48.657548" lon="7.731277">
        <ele>191.0</ele>
        <time>2020-07-11T10:10:09Z</time>
      </trkpt>
      <trkpt lat="48.657443" lon="7.731356">
        <ele>192.0</ele>
        <time>2020-07-11T10:10:11Z</time>
      </trkpt>
      <trkpt lat="48.657347" lon="7.73144">
        <ele>193.0</ele>
        <time>2020-07-11T10:10:13Z</time>
      </trkpt>
      <trkpt lat="48.657252" lon="7.731532">
        <ele>193.0</ele>
        <time>2020-07-11T10:10:15Z</time>
      </trkpt>
      <trkpt lat="48.657163" lon="7.731628">
        <ele>192.0</ele>
        <time>2020-07-11T10:10:17Z</time>
      </trkpt>
      <trkpt lat="48.657069" lon="7.731728">
        <ele>193.0</ele>
        <time>2020-07-11T10:10:19Z</time>
      </trkpt>
      <trkpt lat="48.656906" lon="7.73184">
        <ele>194.0</ele>
        <time>2020-07-11T10:10:22Z</time>
      </trkpt>
      <trkpt lat="48.656739" lon="7.731951">
        <ele>196.0</ele>
        <time>2020-07-11T10:10:25Z</time>
      </trkpt>
      <trkpt lat="48.656638" lon="7.732037">
        <ele>197.0</ele>
        <time>2020-07-11T10:10:27Z</time>
      </trkpt>
      <trkpt lat="48.656493" lon="7.732182">
        <ele>197.0</ele>
        <time>2020-07-11T10:10:30Z</time>
      </trkpt>
      <trkpt lat="48.656403" lon="7.73229">
        <ele>197.0</ele>
        <time>2020-07-11T10:10:32Z</time>
      </trkpt>
      <trkpt lat="48.656312" lon="7.732396">
        <ele>196.0</ele>
        <time>2020-07-11T10:10:34Z</time>
      </trkpt>
      <trkpt lat="48.65621" lon="7.73249">
        <ele>195.0</ele>
        <time>2020-07-11T10:10:36Z</time>
      </trkpt>
      <trkpt lat="48.656115" lon="7.732582">
        <ele>195.0</ele>
        <time>2020-07-11T10:10:38Z</time>
      </trkpt>
      <trkpt lat="48.656022" lon="7.732667">
        <ele>194.0</ele>
        <time>2020-07-11T10:10:40Z</time>
      </trkpt>
      <trkpt lat="48.655924" lon="7.732749">
        <ele>194.0</ele>
        <time>2020-07-11T10:10:42Z</time>
      </trkpt>
      <trkpt lat="48.655829" lon="7.732826">
        <ele>193.0</ele>
        <time>2020-07-11T10:10:44Z</time>
      </trkpt>
      <trkpt lat="48.655675" lon="7.732966">
        <ele>193.0</ele>
        <time>2020-07-11T10:10:47Z</time>
      </trkpt>
      <trkpt lat="48.655579" lon="7.733054">
        <ele>193.0</ele>
        <time>2020-07-11T10:10:49Z</time>
      </trkpt>
      <trkpt lat="48.655479" lon="7.733137">
        <ele>192.0</ele>
        <time>2020-07-11T10:10:51Z</time>
      </trkpt>
      <trkpt lat="48.65543" lon="7.73318">
        <ele>192.0</ele>
        <time>2020-07-11T10:10:52Z</time>
      </trkpt>
      <trkpt lat="48.655291" lon="7.733312">
        <ele>192.0</ele>
        <time>2020-07-11T10:10:55Z</time>
      </trkpt>
      <trkpt lat="48.655198" lon="7.733401">
        <ele>192.0</ele>
        <time>2020-07-11T10:10:57Z</time>
      </trkpt>
      <trkpt lat="48.6551" lon="7.733478">
        <ele>191.0</ele>
        <time>2020-07-11T10:10:59Z</time>
      </trkpt>
      <trkpt lat="48.65496" lon="7.733611">
        <ele>192.0</ele>
        <time>2020-07-11T10:11:02Z</time>
      </trkpt>
      <trkpt lat="48.654862" lon="7.733696">
        <ele>192.0</ele>
        <time>2020-07-11T10:11:04Z</time>
      </trkpt>
      <trkpt lat="48.654713" lon="7.733816">
        <ele>192.0</ele>
        <time>2020-07-11T10:11:07Z</time>
      </trkpt>
      <trkpt lat="48.654617" lon="7.733899">
        <ele>192.0</ele>
        <time>2020-07-11T10:11:09Z</time>
      </trkpt>
      <trkpt lat="48.654517" lon="7.733985">
        <ele>191.0</ele>
        <time>2020-07-11T10:11:11Z</time>
      </trkpt>
      <trkpt lat="48.654372" lon="7.734126">
        <ele>190.0</ele>
        <time>2020-07-11T10:11:14Z</time>
      </trkpt>
      <trkpt lat="48.654277" lon="7.734217">
        <ele>191.0</ele>
        <time>2020-07-11T10:11:16Z</time>
      </trkpt>
      <trkpt lat="48.654179" lon="7.734305">
        <ele>190.0</ele>
        <time>2020-07-11T10:11:18Z</time>
      </trkpt>
      <trkpt lat="48.654076" lon="7.734392">
        <ele>190.0</ele>
        <time>2020-07-11T10:11:20Z</time>
      </trkpt>
      <trkpt lat="48.653981" lon="7.734479">
        <ele>190.0</ele>
        <time>2020-07-11T10:11:22Z</time>
      </trkpt>
      <trkpt lat="48.653888" lon="7.734559">
        <ele>190.0</ele>
        <time>2020-07-11T10:11:24Z</time>
      </trkpt>
      <trkpt lat="48.65379" lon="7.734638">
        <ele>190.0</ele>
        <time>2020-07-11T10:11:26Z</time>
      </trkpt>
      <trkpt lat="48.653692" lon="7.734729">
        <ele>189.0</ele>
        <time>2020-07-11T10:11:28Z</time>
      </trkpt>
      <trkpt lat="48.653595" lon="7.734816">
        <ele>189.0</ele>
        <time>2020-07-11T10:11:30Z</time>
      </trkpt>
      <trkpt lat="48.653455" lon="7.734938">
        <ele>189.0</ele>
        <time>2020-07-11T10:11:33Z</time>
      </trkpt>
      <trkpt lat="48.653359" lon="7.735018">
        <ele>189.0</ele>
        <time>2020-07-11T10:11:35Z</time>
      </trkpt>
      <trkpt lat="48.65326" lon="7.735101">
        <ele>188.0</ele>
        <time>2020-07-11T10:11:37Z</time>
      </trkpt>
      <trkpt lat="48.653162" lon="7.735193">
        <ele>188.0</ele>
        <time>2020-07-11T10:11:39Z</time>
      </trkpt>
      <trkpt lat="48.653114" lon="7.735241">
        <ele>188.0</ele>
        <time>2020-07-11T10:11:40Z</time>
      </trkpt>
      <trkpt lat="48.652958" lon="7.735382">
        <ele>187.0</ele>
        <time>2020-07-11T10:11:43Z</time>
      </trkpt>
      <trkpt lat="48.652864" lon="7.735478">
        <ele>188.0</ele>
        <time>2020-07-11T10:11:45Z</time>
      </trkpt>
      <trkpt lat="48.652777" lon="7.735553">
        <ele>187.0</ele>
        <time>2020-07-11T10:11:47Z</time>
      </trkpt>
      <trkpt lat="48.652698" lon="7.73563">
        <ele>187.0</ele>
        <time>2020-07-11T10:11:49Z</time>
      </trkpt>
      <trkpt lat="48.652571" lon="7.735745">
        <ele>187.0</ele>
        <time>2020-07-11T10:11:52Z</time>
      </trkpt>
      <trkpt lat="48.65246" lon="7.735832">
        <ele>187.0</ele>
        <time>2020-07-11T10:11:54Z</time>
      </trkpt>
      <trkpt lat="48.652301" lon="7.735959">
        <ele>187.0</ele>
        <time>2020-07-11T10:11:57Z</time>
      </trkpt>
      <trkpt lat="48.652198" lon="7.736021">
        <ele>187.0</ele>
        <time>2020-07-11T10:11:59Z</time>
      </trkpt>
      <trkpt lat="48.652049" lon="7.736162">
        <ele>187.0</ele>
        <time>2020-07-11T10:12:02Z</time>
      </trkpt>
      <trkpt lat="48.651951" lon="7.736258">
        <ele>186.0</ele>
        <time>2020-07-11T10:12:04Z</time>
      </trkpt>
      <trkpt lat="48.651854" lon="7.736352">
        <ele>186.0</ele>
        <time>2020-07-11T10:12:06Z</time>
      </trkpt>
      <trkpt lat="48.651752" lon="7.73645">
        <ele>186.0</ele>
        <time>2020-07-11T10:12:08Z</time>
      </trkpt>
      <trkpt lat="48.651651" lon="7.736553">
        <ele>187.0</ele>
        <time>2020-07-11T10:12:10Z</time>
      </trkpt>
      <trkpt lat="48.651549" lon="7.736656">
        <ele>187.0</ele>
        <time>2020-07-11T10:12:12Z</time>
      </trkpt>
      <trkpt lat="48.651442" lon="7.736746">
        <ele>187.0</ele>
        <time>2020-07-11T10:12:14Z</time>
      </trkpt>
      <trkpt lat="48.651344" lon="7.736844">
        <ele>187.0</ele>
        <time>2020-07-11T10:12:16Z</time>
      </trkpt>
      <trkpt lat="48.651241" lon="7.736928">
        <ele>187.0</ele>
        <time>2020-07-11T10:12:18Z</time>
      </trkpt>
      <trkpt lat="48.651094" lon="7.73706">
        <ele>187.0</ele>
        <time>2020-07-11T10:12:21Z</time>
      </trkpt>
      <trkpt lat="48.650988" lon="7.737161">
        <ele>187.0</ele>
        <time>2020-07-11T10:12:23Z</time>
      </trkpt>
      <trkpt lat="48.65088" lon="7.737253">
        <ele>187.0</ele>
        <time>2020-07-11T10:12:25Z</time>
      </trkpt>
      <trkpt lat="48.650715" lon="7.737398">
        <ele>187.0</ele>
        <time>2020-07-11T10:12:28Z</time>
      </trkpt>
      <trkpt lat="48.650659" lon="7.737445">
        <ele>187.0</ele>
        <time>2020-07-11T10:12:29Z</time>
      </trkpt>
      <trkpt lat="48.650512" lon="7.737594">
        <ele>187.0</ele>
        <time>2020-07-11T10:12:32Z</time>
      </trkpt>
      <trkpt lat="48.650408" lon="7.737685">
        <ele>187.0</ele>
        <time>2020-07-11T10:12:34Z</time>
      </trkpt>
      <trkpt lat="48.65031" lon="7.737772">
        <ele>187.0</ele>
        <time>2020-07-11T10:12:36Z</time>
      </trkpt>
      <trkpt lat="48.650165" lon="7.737911">
        <ele>187.0</ele>
        <time>2020-07-11T10:12:39Z</time>
      </trkpt>
      <trkpt lat="48.650064" lon="7.738002">
        <ele>187.0</ele>
        <time>2020-07-11T10:12:41Z</time>
      </trkpt>
      <trkpt lat="48.649966" lon="7.738094">
        <ele>187.0</ele>
        <time>2020-07-11T10:12:43Z</time>
      </trkpt>
      <trkpt lat="48.649862" lon="7.738185">
        <ele>187.0</ele>
        <time>2020-07-11T10:12:45Z</time>
      </trkpt>
      <trkpt lat="48.649711" lon="7.738321">
        <ele>187.0</ele>
        <time>2020-07-11T10:12:48Z</time>
      </trkpt>
      <trkpt lat="48.649614" lon="7.738406">
        <ele>187.0</ele>
        <time>2020-07-11T10:12:50Z</time>
      </trkpt>
      <trkpt lat="48.64952" lon="7.738496">
        <ele>188.0</ele>
        <time>2020-07-11T10:12:52Z</time>
      </trkpt>
      <trkpt lat="48.649422" lon="7.738584">
        <ele>188.0</ele>
        <time>2020-07-11T10:12:54Z</time>
      </trkpt>
      <trkpt lat="48.649321" lon="7.738669">
        <ele>188.0</ele>
        <time>2020-07-11T10:12:56Z</time>
      </trkpt>
      <trkpt lat="48.64927" lon="7.738705">
        <ele>188.0</ele>
        <time>2020-07-11T10:12:57Z</time>
      </trkpt>
      <trkpt lat="48.649121" lon="7.738843">
        <ele>188.0</ele>
        <time>2020-07-11T10:13:00Z</time>
      </trkpt>
      <trkpt lat="48.649024" lon="7.738928">
        <ele>188.0</ele>
        <time>2020-07-11T10:13:02Z</time>
      </trkpt>
      <trkpt lat="48.648926" lon="7.739013">
        <ele>188.0</ele>
        <time>2020-07-11T10:13:04Z</time>
      </trkpt>
      <trkpt lat="48.648778" lon="7.739144">
        <ele>188.0</ele>
        <time>2020-07-11T10:13:07Z</time>
      </trkpt>
      <trkpt lat="48.648676" lon="7.739243">
        <ele>188.0</ele>
        <time>2020-07-11T10:13:09Z</time>
      </trkpt>
      <trkpt lat="48.648624" lon="7.73929">
        <ele>188.0</ele>
        <time>2020-07-11T10:13:10Z</time>
      </trkpt>
      <trkpt lat="48.648476" lon="7.739423">
        <ele>189.0</ele>
        <time>2020-07-11T10:13:13Z</time>
      </trkpt>
      <trkpt lat="48.648331" lon="7.739542">
        <ele>188.0</ele>
        <time>2020-07-11T10:13:16Z</time>
      </trkpt>
      <trkpt lat="48.64823" lon="7.739623">
        <ele>188.0</ele>
        <time>2020-07-11T10:13:18Z</time>
      </trkpt>
      <trkpt lat="48.64808" lon="7.739747">
        <ele>187.0</ele>
        <time>2020-07-11T10:13:21Z</time>
      </trkpt>
      <trkpt lat="48.647978" lon="7.73982">
        <ele>187.0</ele>
        <time>2020-07-11T10:13:23Z</time>
      </trkpt>
      <trkpt lat="48.647884" lon="7.739881">
        <ele>188.0</ele>
        <time>2020-07-11T10:13:25Z</time>
      </trkpt>
      <trkpt lat="48.647777" lon="7.739971">
        <ele>189.0</ele>
        <time>2020-07-11T10:13:28Z</time>
      </trkpt>
      <trkpt lat="48.647722" lon="7.740005">
        <ele>190.0</ele>
        <time>2020-07-11T10:13:30Z</time>
      </trkpt>
      <trkpt lat="48.647657" lon="7.740061">
        <ele>190.0</ele>
        <time>2020-07-11T10:13:33Z</time>
      </trkpt>
      <trkpt lat="48.647594" lon="7.740126">
        <ele>189.0</ele>
        <time>2020-07-11T10:13:36Z</time>
      </trkpt>
      <trkpt lat="48.647539" lon="7.740193">
        <ele>189.0</ele>
        <time>2020-07-11T10:13:38Z</time>
      </trkpt>
      <trkpt lat="48.647466" lon="7.74028">
        <ele>188.0</ele>
        <time>2020-07-11T10:13:40Z</time>
      </trkpt>
      <trkpt lat="48.64736" lon="7.740384">
        <ele>188.0</ele>
        <time>2020-07-11T10:13:42Z</time>
      </trkpt>
      <trkpt lat="48.647244" lon="7.740496">
        <ele>188.0</ele>
        <time>2020-07-11T10:13:44Z</time>
      </trkpt>
      <trkpt lat="48.647137" lon="7.740597">
        <ele>188.0</ele>
        <time>2020-07-11T10:13:46Z</time>
      </trkpt>
      <trkpt lat="48.647033" lon="7.740698">
        <ele>188.0</ele>
        <time>2020-07-11T10:13:48Z</time>
      </trkpt>
      <trkpt lat="48.646934" lon="7.740779">
        <ele>187.0</ele>
        <time>2020-07-11T10:13:50Z</time>
      </trkpt>
      <trkpt lat="48.646778" lon="7.74091">
        <ele>187.0</ele>
        <time>2020-07-11T10:13:53Z</time>
      </trkpt>
      <trkpt lat="48.646677" lon="7.741">
        <ele>187.0</ele>
        <time>2020-07-11T10:13:55Z</time>
      </trkpt>
      <trkpt lat="48.646572" lon="7.741081">
        <ele>187.0</ele>
        <time>2020-07-11T10:13:57Z</time>
      </trkpt>
      <trkpt lat="48.646473" lon="7.74117">
        <ele>187.0</ele>
        <time>2020-07-11T10:13:59Z</time>
      </trkpt>
      <trkpt lat="48.646378" lon="7.741258">
        <ele>186.0</ele>
        <time>2020-07-11T10:14:01Z</time>
      </trkpt>
      <trkpt lat="48.646237" lon="7.741392">
        <ele>185.0</ele>
        <time>2020-07-11T10:14:04Z</time>
      </trkpt>
      <trkpt lat="48.64619" lon="7.741431">
        <ele>186.0</ele>
        <time>2020-07-11T10:14:05Z</time>
      </trkpt>
      <trkpt lat="48.646044" lon="7.741556">
        <ele>186.0</ele>
        <time>2020-07-11T10:14:08Z</time>
      </trkpt>
      <trkpt lat="48.645904" lon="7.741688">
        <ele>186.0</ele>
        <time>2020-07-11T10:14:11Z</time>
      </trkpt>
      <trkpt lat="48.645803" lon="7.741776">
        <ele>186.0</ele>
        <time>2020-07-11T10:14:13Z</time>
      </trkpt>
      <trkpt lat="48.645708" lon="7.741863">
        <ele>186.0</ele>
        <time>2020-07-11T10:14:15Z</time>
      </trkpt>
      <trkpt lat="48.645614" lon="7.741957">
        <ele>186.0</ele>
        <time>2020-07-11T10:14:17Z</time>
      </trkpt>
      <trkpt lat="48.645517" lon="7.742036">
        <ele>186.0</ele>
        <time>2020-07-11T10:14:19Z</time>
      </trkpt>
      <trkpt lat="48.645372" lon="7.742169">
        <ele>186.0</ele>
        <time>2020-07-11T10:14:22Z</time>
      </trkpt>
      <trkpt lat="48.645276" lon="7.742253">
        <ele>186.0</ele>
        <time>2020-07-11T10:14:24Z</time>
      </trkpt>
      <trkpt lat="48.645176" lon="7.74234">
        <ele>186.0</ele>
        <time>2020-07-11T10:14:26Z</time>
      </trkpt>
      <trkpt lat="48.64504" lon="7.742474">
        <ele>186.0</ele>
        <time>2020-07-11T10:14:29Z</time>
      </trkpt>
      <trkpt lat="48.644993" lon="7.742516">
        <ele>186.0</ele>
        <time>2020-07-11T10:14:30Z</time>
      </trkpt>
      <trkpt lat="48.644837" lon="7.742652">
        <ele>186.0</ele>
        <time>2020-07-11T10:14:33Z</time>
      </trkpt>
      <trkpt lat="48.644736" lon="7.742741">
        <ele>187.0</ele>
        <time>2020-07-11T10:14:35Z</time>
      </trkpt>
      <trkpt lat="48.644634" lon="7.74283">
        <ele>187.0</ele>
        <time>2020-07-11T10:14:37Z</time>
      </trkpt>
      <trkpt lat="48.644534" lon="7.742922">
        <ele>187.0</ele>
        <time>2020-07-11T10:14:39Z</time>
      </trkpt>
      <trkpt lat="48.644378" lon="7.743052">
        <ele>188.0</ele>
        <time>2020-07-11T10:14:42Z</time>
      </trkpt>
      <trkpt lat="48.644271" lon="7.74314">
        <ele>187.0</ele>
        <time>2020-07-11T10:14:44Z</time>
      </trkpt>
      <trkpt lat="48.644172" lon="7.743231">
        <ele>187.0</ele>
        <time>2020-07-11T10:14:46Z</time>
      </trkpt>
      <trkpt lat="48.644068" lon="7.743328">
        <ele>187.0</ele>
        <time>2020-07-11T10:14:48Z</time>
      </trkpt>
      <trkpt lat="48.643966" lon="7.743429">
        <ele>187.0</ele>
        <time>2020-07-11T10:14:50Z</time>
      </trkpt>
      <trkpt lat="48.64387" lon="7.743526">
        <ele>187.0</ele>
        <time>2020-07-11T10:14:52Z</time>
      </trkpt>
      <trkpt lat="48.64378" lon="7.74363">
        <ele>186.0</ele>
        <time>2020-07-11T10:14:54Z</time>
      </trkpt>
      <trkpt lat="48.643654" lon="7.743808">
        <ele>187.0</ele>
        <time>2020-07-11T10:14:57Z</time>
      </trkpt>
      <trkpt lat="48.643607" lon="7.743851">
        <ele>187.0</ele>
        <time>2020-07-11T10:14:58Z</time>
      </trkpt>
      <trkpt lat="48.643468" lon="7.743906">
        <ele>189.0</ele>
        <time>2020-07-11T10:15:01Z</time>
      </trkpt>
      <trkpt lat="48.64338" lon="7.743946">
        <ele>190.0</ele>
        <time>2020-07-11T10:15:04Z</time>
      </trkpt>
      <trkpt lat="48.643384" lon="7.743999">
        <ele>190.0</ele>
        <time>2020-07-11T10:15:06Z</time>
      </trkpt>
      <trkpt lat="48.643404" lon="7.744042">
        <ele>190.0</ele>
        <time>2020-07-11T10:15:08Z</time>
      </trkpt>
      <trkpt lat="48.643421" lon="7.744079">
        <ele>190.0</ele>
        <time>2020-07-11T10:15:10Z</time>
      </trkpt>
      <trkpt lat="48.643431" lon="7.744112">
        <ele>191.0</ele>
        <time>2020-07-11T10:15:12Z</time>
      </trkpt>
      <trkpt lat="48.643457" lon="7.74413">
        <ele>190.0</ele>
        <time>2020-07-11T10:15:14Z</time>
      </trkpt>
      <trkpt lat="48.643482" lon="7.744182">
        <ele>190.0</ele>
        <time>2020-07-11T10:15:16Z</time>
      </trkpt>
      <trkpt lat="48.643489" lon="7.744282">
        <ele>189.0</ele>
        <time>2020-07-11T10:15:18Z</time>
      </trkpt>
      <trkpt lat="48.643427" lon="7.744365">
        <ele>189.0</ele>
        <time>2020-07-11T10:15:20Z</time>
      </trkpt>
      <trkpt lat="48.643334" lon="7.744429">
        <ele>188.0</ele>
        <time>2020-07-11T10:15:22Z</time>
      </trkpt>
      <trkpt lat="48.643221" lon="7.744503">
        <ele>186.0</ele>
        <time>2020-07-11T10:15:24Z</time>
      </trkpt>
      <trkpt lat="48.6431" lon="7.744581">
        <ele>185.0</ele>
        <time>2020-07-11T10:15:26Z</time>
      </trkpt>
      <trkpt lat="48.642976" lon="7.744683">
        <ele>185.0</ele>
        <time>2020-07-11T10:15:28Z</time>
      </trkpt>
      <trkpt lat="48.642868" lon="7.744774">
        <ele>185.0</ele>
        <time>2020-07-11T10:15:30Z</time>
      </trkpt>
      <trkpt lat="48.642766" lon="7.744864">
        <ele>185.0</ele>
        <time>2020-07-11T10:15:32Z</time>
      </trkpt>
      <trkpt lat="48.642667" lon="7.744964">
        <ele>185.0</ele>
        <time>2020-07-11T10:15:34Z</time>
      </trkpt>
      <trkpt lat="48.642568" lon="7.745054">
        <ele>185.0</ele>
        <time>2020-07-11T10:15:36Z</time>
      </trkpt>
      <trkpt lat="48.642462" lon="7.745149">
        <ele>185.0</ele>
        <time>2020-07-11T10:15:38Z</time>
      </trkpt>
      <trkpt lat="48.642365" lon="7.745245">
        <ele>185.0</ele>
        <time>2020-07-11T10:15:40Z</time>
      </trkpt>
      <trkpt lat="48.642269" lon="7.745341">
        <ele>185.0</ele>
        <time>2020-07-11T10:15:42Z</time>
      </trkpt>
      <trkpt lat="48.642117" lon="7.745455">
        <ele>185.0</ele>
        <time>2020-07-11T10:15:45Z</time>
      </trkpt>
      <trkpt lat="48.642022" lon="7.745546">
        <ele>185.0</ele>
        <time>2020-07-11T10:15:47Z</time>
      </trkpt>
      <trkpt lat="48.641929" lon="7.745627">
        <ele>185.0</ele>
        <time>2020-07-11T10:15:49Z</time>
      </trkpt>
      <trkpt lat="48.641833" lon="7.745712">
        <ele>185.0</ele>
        <time>2020-07-11T10:15:51Z</time>
      </trkpt>
      <trkpt lat="48.641737" lon="7.745793">
        <ele>185.0</ele>
        <time>2020-07-11T10:15:53Z</time>
      </trkpt>
      <trkpt lat="48.641642" lon="7.745875">
        <ele>185.0</ele>
        <time>2020-07-11T10:15:55Z</time>
      </trkpt>
      <trkpt lat="48.641554" lon="7.745955">
        <ele>185.0</ele>
        <time>2020-07-11T10:15:57Z</time>
      </trkpt>
      <trkpt lat="48.641461" lon="7.746035">
        <ele>186.0</ele>
        <time>2020-07-11T10:15:59Z</time>
      </trkpt>
      <trkpt lat="48.641317" lon="7.746168">
        <ele>186.0</ele>
        <time>2020-07-11T10:16:02Z</time>
      </trkpt>
      <trkpt lat="48.641268" lon="7.746209">
        <ele>186.0</ele>
        <time>2020-07-11T10:16:03Z</time>
      </trkpt>
      <trkpt lat="48.641119" lon="7.746337">
        <ele>187.0</ele>
        <time>2020-07-11T10:16:06Z</time>
      </trkpt>
      <trkpt lat="48.641023" lon="7.746419">
        <ele>187.0</ele>
        <time>2020-07-11T10:16:08Z</time>
      </trkpt>
      <trkpt lat="48.640936" lon="7.746508">
        <ele>186.0</ele>
        <time>2020-07-11T10:16:10Z</time>
      </trkpt>
      <trkpt lat="48.640841" lon="7.746598">
        <ele>186.0</ele>
        <time>2020-07-11T10:16:12Z</time>
      </trkpt>
      <trkpt lat="48.640747" lon="7.74668">
        <ele>186.0</ele>
        <time>2020-07-11T10:16:14Z</time>
      </trkpt>
      <trkpt lat="48.640648" lon="7.74677">
        <ele>186.0</ele>
        <time>2020-07-11T10:16:16Z</time>
      </trkpt>
      <trkpt lat="48.640507" lon="7.74691">
        <ele>187.0</ele>
        <time>2020-07-11T10:16:19Z</time>
      </trkpt>
      <trkpt lat="48.640459" lon="7.746951">
        <ele>187.0</ele>
        <time>2020-07-11T10:16:20Z</time>
      </trkpt>
      <trkpt lat="48.64031" lon="7.747075">
        <ele>187.0</ele>
        <time>2020-07-11T10:16:23Z</time>
      </trkpt>
      <trkpt lat="48.640214" lon="7.747156">
        <ele>187.0</ele>
        <time>2020-07-11T10:16:25Z</time>
      </trkpt>
      <trkpt lat="48.640119" lon="7.747236">
        <ele>187.0</ele>
        <time>2020-07-11T10:16:27Z</time>
      </trkpt>
      <trkpt lat="48.640074" lon="7.747279">
        <ele>187.0</ele>
        <time>2020-07-11T10:16:28Z</time>
      </trkpt>
      <trkpt lat="48.639937" lon="7.747393">
        <ele>187.0</ele>
        <time>2020-07-11T10:16:31Z</time>
      </trkpt>
      <trkpt lat="48.639837" lon="7.747477">
        <ele>187.0</ele>
        <time>2020-07-11T10:16:33Z</time>
      </trkpt>
      <trkpt lat="48.639687" lon="7.747597">
        <ele>187.0</ele>
        <time>2020-07-11T10:16:36Z</time>
      </trkpt>
      <trkpt lat="48.639639" lon="7.747644">
        <ele>186.0</ele>
        <time>2020-07-11T10:16:37Z</time>
      </trkpt>
      <trkpt lat="48.6395" lon="7.747772">
        <ele>187.0</ele>
        <time>2020-07-11T10:16:40Z</time>
      </trkpt>
      <trkpt lat="48.639354" lon="7.747906">
        <ele>187.0</ele>
        <time>2020-07-11T10:16:43Z</time>
      </trkpt>
      <trkpt lat="48.639263" lon="7.747991">
        <ele>187.0</ele>
        <time>2020-07-11T10:16:45Z</time>
      </trkpt>
      <trkpt lat="48.639124" lon="7.748118">
        <ele>188.0</ele>
        <time>2020-07-11T10:16:48Z</time>
      </trkpt>
      <trkpt lat="48.639077" lon="7.74816">
        <ele>188.0</ele>
        <time>2020-07-11T10:16:49Z</time>
      </trkpt>
      <trkpt lat="48.638948" lon="7.748279">
        <ele>187.0</ele>
        <time>2020-07-11T10:16:52Z</time>
      </trkpt>
      <trkpt lat="48.638845" lon="7.748362">
        <ele>187.0</ele>
        <time>2020-07-11T10:16:54Z</time>
      </trkpt>
      <trkpt lat="48.638749" lon="7.748459">
        <ele>188.0</ele>
        <time>2020-07-11T10:16:56Z</time>
      </trkpt>
      <trkpt lat="48.638597" lon="7.748586">
        <ele>187.0</ele>
        <time>2020-07-11T10:16:59Z</time>
      </trkpt>
      <trkpt lat="48.638504" lon="7.748674">
        <ele>187.0</ele>
        <time>2020-07-11T10:17:01Z</time>
      </trkpt>
      <trkpt lat="48.63841" lon="7.748758">
        <ele>187.0</ele>
        <time>2020-07-11T10:17:03Z</time>
      </trkpt>
      <trkpt lat="48.638358" lon="7.748791">
        <ele>188.0</ele>
        <time>2020-07-11T10:17:04Z</time>
      </trkpt>
      <trkpt lat="48.63822" lon="7.748923">
        <ele>188.0</ele>
        <time>2020-07-11T10:17:07Z</time>
      </trkpt>
      <trkpt lat="48.638124" lon="7.74901">
        <ele>187.0</ele>
        <time>2020-07-11T10:17:09Z</time>
      </trkpt>
      <trkpt lat="48.638033" lon="7.749093">
        <ele>187.0</ele>
        <time>2020-07-11T10:17:11Z</time>
      </trkpt>
      <trkpt lat="48.637942" lon="7.74917">
        <ele>187.0</ele>
        <time>2020-07-11T10:17:13Z</time>
      </trkpt>
      <trkpt lat="48.637847" lon="7.749251">
        <ele>186.0</ele>
        <time>2020-07-11T10:17:15Z</time>
      </trkpt>
      <trkpt lat="48.637705" lon="7.749372">
        <ele>186.0</ele>
        <time>2020-07-11T10:17:18Z</time>
      </trkpt>
      <trkpt lat="48.637614" lon="7.749446">
        <ele>186.0</ele>
        <time>2020-07-11T10:17:20Z</time>
      </trkpt>
      <trkpt lat="48.637512" lon="7.749515">
        <ele>186.0</ele>
        <time>2020-07-11T10:17:22Z</time>
      </trkpt>
      <trkpt lat="48.637418" lon="7.749592">
        <ele>186.0</ele>
        <time>2020-07-11T10:17:24Z</time>
      </trkpt>
      <trkpt lat="48.637273" lon="7.74971">
        <ele>186.0</ele>
        <time>2020-07-11T10:17:27Z</time>
      </trkpt>
      <trkpt lat="48.637223" lon="7.749741">
        <ele>186.0</ele>
        <time>2020-07-11T10:17:28Z</time>
      </trkpt>
      <trkpt lat="48.637019" lon="7.749863">
        <ele>185.0</ele>
        <time>2020-07-11T10:17:32Z</time>
      </trkpt>
      <trkpt lat="48.636914" lon="7.749933">
        <ele>185.0</ele>
        <time>2020-07-11T10:17:34Z</time>
      </trkpt>
      <trkpt lat="48.636809" lon="7.749997">
        <ele>185.0</ele>
        <time>2020-07-11T10:17:36Z</time>
      </trkpt>
      <trkpt lat="48.636665" lon="7.750105">
        <ele>185.0</ele>
        <time>2020-07-11T10:17:39Z</time>
      </trkpt>
      <trkpt lat="48.636567" lon="7.750172">
        <ele>185.0</ele>
        <time>2020-07-11T10:17:41Z</time>
      </trkpt>
      <trkpt lat="48.636473" lon="7.750239">
        <ele>185.0</ele>
        <time>2020-07-11T10:17:43Z</time>
      </trkpt>
      <trkpt lat="48.63632" lon="7.750329">
        <ele>185.0</ele>
        <time>2020-07-11T10:17:46Z</time>
      </trkpt>
      <trkpt lat="48.636219" lon="7.750401">
        <ele>184.0</ele>
        <time>2020-07-11T10:17:48Z</time>
      </trkpt>
      <trkpt lat="48.636117" lon="7.750473">
        <ele>184.0</ele>
        <time>2020-07-11T10:17:50Z</time>
      </trkpt>
      <trkpt lat="48.636066" lon="7.750511">
        <ele>184.0</ele>
        <time>2020-07-11T10:17:51Z</time>
      </trkpt>
      <trkpt lat="48.635867" lon="7.750656">
        <ele>185.0</ele>
        <time>2020-07-11T10:17:55Z</time>
      </trkpt>
      <trkpt lat="48.635769" lon="7.750733">
        <ele>186.0</ele>
        <time>2020-07-11T10:17:57Z</time>
      </trkpt>
      <trkpt lat="48.635674" lon="7.750811">
        <ele>185.0</ele>
        <time>2020-07-11T10:17:59Z</time>
      </trkpt>
      <trkpt lat="48.635585" lon="7.750892">
        <ele>186.0</ele>
        <time>2020-07-11T10:18:01Z</time>
      </trkpt>
      <trkpt lat="48.635495" lon="7.750978">
        <ele>186.0</ele>
        <time>2020-07-11T10:18:03Z</time>
      </trkpt>
      <trkpt lat="48.635363" lon="7.751114">
        <ele>187.0</ele>
        <time>2020-07-11T10:18:06Z</time>
      </trkpt>
      <trkpt lat="48.635272" lon="7.751212">
        <ele>187.0</ele>
        <time>2020-07-11T10:18:08Z</time>
      </trkpt>
      <trkpt lat="48.635186" lon="7.751326">
        <ele>188.0</ele>
        <time>2020-07-11T10:18:10Z</time>
      </trkpt>
      <trkpt lat="48.635104" lon="7.751449">
        <ele>188.0</ele>
        <time>2020-07-11T10:18:12Z</time>
      </trkpt>
      <trkpt lat="48.635029" lon="7.751562">
        <ele>188.0</ele>
        <time>2020-07-11T10:18:14Z</time>
      </trkpt>
      <trkpt lat="48.634958" lon="7.751677">
        <ele>188.0</ele>
        <time>2020-07-11T10:18:16Z</time>
      </trkpt>
      <trkpt lat="48.634888" lon="7.751794">
        <ele>187.0</ele>
        <time>2020-07-11T10:18:18Z</time>
      </trkpt>
      <trkpt lat="48.634828" lon="7.751916">
        <ele>187.0</ele>
        <time>2020-07-11T10:18:20Z</time>
      </trkpt>
      <trkpt lat="48.634767" lon="7.752049">
        <ele>187.0</ele>
        <time>2020-07-11T10:18:22Z</time>
      </trkpt>
      <trkpt lat="48.634712" lon="7.752183">
        <ele>187.0</ele>
        <time>2020-07-11T10:18:24Z</time>
      </trkpt>
      <trkpt lat="48.634654" lon="7.752316">
        <ele>187.0</ele>
        <time>2020-07-11T10:18:26Z</time>
      </trkpt>
      <trkpt lat="48.634593" lon="7.752451">
        <ele>187.0</ele>
        <time>2020-07-11T10:18:28Z</time>
      </trkpt>
      <trkpt lat="48.634531" lon="7.752587">
        <ele>187.0</ele>
        <time>2020-07-11T10:18:30Z</time>
      </trkpt>
      <trkpt lat="48.634471" lon="7.752728">
        <ele>187.0</ele>
        <time>2020-07-11T10:18:32Z</time>
      </trkpt>
      <trkpt lat="48.634411" lon="7.752852">
        <ele>186.0</ele>
        <time>2020-07-11T10:18:34Z</time>
      </trkpt>
      <trkpt lat="48.634342" lon="7.752986">
        <ele>186.0</ele>
        <time>2020-07-11T10:18:36Z</time>
      </trkpt>
      <trkpt lat="48.634278" lon="7.753124">
        <ele>186.0</ele>
        <time>2020-07-11T10:18:38Z</time>
      </trkpt>
      <trkpt lat="48.634207" lon="7.753257">
        <ele>185.0</ele>
        <time>2020-07-11T10:18:40Z</time>
      </trkpt>
      <trkpt lat="48.634101" lon="7.753433">
        <ele>186.0</ele>
        <time>2020-07-11T10:18:43Z</time>
      </trkpt>
      <trkpt lat="48.634034" lon="7.753546">
        <ele>187.0</ele>
        <time>2020-07-11T10:18:45Z</time>
      </trkpt>
      <trkpt lat="48.633969" lon="7.753652">
        <ele>187.0</ele>
        <time>2020-07-11T10:18:47Z</time>
      </trkpt>
      <trkpt lat="48.633909" lon="7.753752">
        <ele>187.0</ele>
        <time>2020-07-11T10:18:49Z</time>
      </trkpt>
      <trkpt lat="48.633839" lon="7.753897">
        <ele>188.0</ele>
        <time>2020-07-11T10:18:52Z</time>
      </trkpt>
      <trkpt lat="48.633802" lon="7.753998">
        <ele>188.0</ele>
        <time>2020-07-11T10:18:55Z</time>
      </trkpt>
      <trkpt lat="48.633786" lon="7.754036">
        <ele>188.0</ele>
        <time>2020-07-11T10:18:57Z</time>
      </trkpt>
      <trkpt lat="48.633756" lon="7.754071">
        <ele>188.0</ele>
        <time>2020-07-11T10:19:00Z</time>
      </trkpt>
      <trkpt lat="48.633742" lon="7.754113">
        <ele>187.0</ele>
        <time>2020-07-11T10:19:02Z</time>
      </trkpt>
      <trkpt lat="48.633732" lon="7.754134">
        <ele>188.0</ele>
        <time>2020-07-11T10:19:03Z</time>
      </trkpt>
      <trkpt lat="48.633669" lon="7.754229">
        <ele>188.0</ele>
        <time>2020-07-11T10:19:07Z</time>
      </trkpt>
      <trkpt lat="48.633619" lon="7.754302">
        <ele>188.0</ele>
        <time>2020-07-11T10:19:09Z</time>
      </trkpt>
      <trkpt lat="48.633564" lon="7.754377">
        <ele>188.0</ele>
        <time>2020-07-11T10:19:11Z</time>
      </trkpt>
      <trkpt lat="48.633469" lon="7.754509">
        <ele>187.0</ele>
        <time>2020-07-11T10:19:13Z</time>
      </trkpt>
      <trkpt lat="48.633367" lon="7.75465">
        <ele>187.0</ele>
        <time>2020-07-11T10:19:15Z</time>
      </trkpt>
      <trkpt lat="48.633258" lon="7.754795">
        <ele>187.0</ele>
        <time>2020-07-11T10:19:17Z</time>
      </trkpt>
      <trkpt lat="48.633158" lon="7.754926">
        <ele>187.0</ele>
        <time>2020-07-11T10:19:19Z</time>
      </trkpt>
      <trkpt lat="48.633065" lon="7.755042">
        <ele>186.0</ele>
        <time>2020-07-11T10:19:21Z</time>
      </trkpt>
      <trkpt lat="48.632973" lon="7.755151">
        <ele>186.0</ele>
        <time>2020-07-11T10:19:23Z</time>
      </trkpt>
      <trkpt lat="48.632883" lon="7.755241">
        <ele>186.0</ele>
        <time>2020-07-11T10:19:25Z</time>
      </trkpt>
      <trkpt lat="48.632798" lon="7.755335">
        <ele>186.0</ele>
        <time>2020-07-11T10:19:27Z</time>
      </trkpt>
      <trkpt lat="48.632683" lon="7.755453">
        <ele>186.0</ele>
        <time>2020-07-11T10:19:30Z</time>
      </trkpt>
      <trkpt lat="48.632605" lon="7.755512">
        <ele>186.0</ele>
        <time>2020-07-11T10:19:32Z</time>
      </trkpt>
      <trkpt lat="48.63254" lon="7.755569">
        <ele>186.0</ele>
        <time>2020-07-11T10:19:34Z</time>
      </trkpt>
      <trkpt lat="48.632506" lon="7.755602">
        <ele>186.0</ele>
        <time>2020-07-11T10:19:36Z</time>
      </trkpt>
      <trkpt lat="48.632499" lon="7.755604">
        <ele>185.0</ele>
        <time>2020-07-11T10:19:39Z</time>
      </trkpt>
      <trkpt lat="48.632499" lon="7.755604">
        <ele>185.0</ele>
        <time>2020-07-11T10:19:41Z</time>
      </trkpt>
      <trkpt lat="48.632499" lon="7.755604">
        <ele>185.0</ele>
        <time>2020-07-11T10:19:43Z</time>
      </trkpt>
      <trkpt lat="48.632498" lon="7.755599">
        <ele>185.0</ele>
        <time>2020-07-11T10:20:54Z</time>
      </trkpt>
      <trkpt lat="48.632498" lon="7.755599">
        <ele>185.0</ele>
        <time>2020-07-11T10:20:56Z</time>
      </trkpt>
      <trkpt lat="48.632498" lon="7.755599">
        <ele>185.0</ele>
        <time>2020-07-11T10:20:58Z</time>
      </trkpt>
      <trkpt lat="48.632498" lon="7.755599">
        <ele>185.0</ele>
        <time>2020-07-11T10:21:00Z</time>
      </trkpt>
      <trkpt lat="48.632498" lon="7.755599">
        <ele>185.0</ele>
        <time>2020-07-11T10:21:02Z</time>
      </trkpt>
      <trkpt lat="48.632498" lon="7.755599">
        <ele>185.0</ele>
        <time>2020-07-11T10:21:04Z</time>
      </trkpt>
      <trkpt lat="48.632498" lon="7.755599">
        <ele>185.0</ele>
        <time>2020-07-11T10:21:07Z</time>
      </trkpt>
      <trkpt lat="48.632498" lon="7.755599">
        <ele>185.0</ele>
        <time>2020-07-11T10:21:09Z</time>
      </trkpt>
      <trkpt lat="48.632498" lon="7.755599">
        <ele>185.0</ele>
        <time>2020-07-11T10:21:11Z</time>
      </trkpt>
      <trkpt lat="48.632498" lon="7.755599">
        <ele>185.0</ele>
        <time>2020-07-11T10:21:13Z</time>
      </trkpt>
      <trkpt lat="48.632498" lon="7.755599">
        <ele>185.0</ele>
        <time>2020-07-11T10:21:15Z</time>
      </trkpt>
      <trkpt lat="48.632489" lon="7.755614">
        <ele>184.0</ele>
        <time>2020-07-11T10:21:17Z</time>
      </trkpt>
      <trkpt lat="48.632466" lon="7.755638">
        <ele>184.0</ele>
        <time>2020-07-11T10:21:19Z</time>
      </trkpt>
      <trkpt lat="48.632427" lon="7.755666">
        <ele>183.0</ele>
        <time>2020-07-11T10:21:21Z</time>
      </trkpt>
      <trkpt lat="48.63237" lon="7.755702">
        <ele>182.0</ele>
        <time>2020-07-11T10:21:23Z</time>
      </trkpt>
      <trkpt lat="48.632304" lon="7.755737">
        <ele>182.0</ele>
        <time>2020-07-11T10:21:25Z</time>
      </trkpt>
      <trkpt lat="48.632225" lon="7.755769">
        <ele>182.0</ele>
        <time>2020-07-11T10:21:27Z</time>
      </trkpt>
      <trkpt lat="48.632147" lon="7.755824">
        <ele>184.0</ele>
        <time>2020-07-11T10:21:29Z</time>
      </trkpt>
      <trkpt lat="48.632059" lon="7.755868">
        <ele>184.0</ele>
        <time>2020-07-11T10:21:31Z</time>
      </trkpt>
      <trkpt lat="48.631969" lon="7.755912">
        <ele>184.0</ele>
        <time>2020-07-11T10:21:33Z</time>
      </trkpt>
      <trkpt lat="48.631878" lon="7.755948">
        <ele>185.0</ele>
        <time>2020-07-11T10:21:35Z</time>
      </trkpt>
      <trkpt lat="48.631788" lon="7.755986">
        <ele>184.0</ele>
        <time>2020-07-11T10:21:37Z</time>
      </trkpt>
      <trkpt lat="48.631691" lon="7.756019">
        <ele>185.0</ele>
        <time>2020-07-11T10:21:39Z</time>
      </trkpt>
      <trkpt lat="48.631586" lon="7.756041">
        <ele>185.0</ele>
        <time>2020-07-11T10:21:41Z</time>
      </trkpt>
      <trkpt lat="48.631478" lon="7.756056">
        <ele>185.0</ele>
        <time>2020-07-11T10:21:43Z</time>
      </trkpt>
      <trkpt lat="48.631372" lon="7.756074">
        <ele>186.0</ele>
        <time>2020-07-11T10:21:45Z</time>
      </trkpt>
      <trkpt lat="48.631266" lon="7.756087">
        <ele>187.0</ele>
        <time>2020-07-11T10:21:47Z</time>
      </trkpt>
      <trkpt lat="48.631107" lon="7.756106">
        <ele>187.0</ele>
        <time>2020-07-11T10:21:50Z</time>
      </trkpt>
      <trkpt lat="48.630995" lon="7.756109">
        <ele>187.0</ele>
        <time>2020-07-11T10:21:52Z</time>
      </trkpt>
      <trkpt lat="48.630939" lon="7.756112">
        <ele>187.0</ele>
        <time>2020-07-11T10:21:53Z</time>
      </trkpt>
      <trkpt lat="48.630772" lon="7.756111">
        <ele>186.0</ele>
        <time>2020-07-11T10:21:56Z</time>
      </trkpt>
      <trkpt lat="48.630661" lon="7.756096">
        <ele>186.0</ele>
        <time>2020-07-11T10:21:58Z</time>
      </trkpt>
      <trkpt lat="48.630545" lon="7.756069">
        <ele>186.0</ele>
        <time>2020-07-11T10:22:00Z</time>
      </trkpt>
      <trkpt lat="48.630387" lon="7.756016">
        <ele>186.0</ele>
        <time>2020-07-11T10:22:03Z</time>
      </trkpt>
      <trkpt lat="48.630285" lon="7.755975">
        <ele>186.0</ele>
        <time>2020-07-11T10:22:05Z</time>
      </trkpt>
      <trkpt lat="48.630182" lon="7.75593">
        <ele>185.0</ele>
        <time>2020-07-11T10:22:07Z</time>
      </trkpt>
      <trkpt lat="48.630077" lon="7.755878">
        <ele>185.0</ele>
        <time>2020-07-11T10:22:09Z</time>
      </trkpt>
      <trkpt lat="48.629977" lon="7.755834">
        <ele>184.0</ele>
        <time>2020-07-11T10:22:11Z</time>
      </trkpt>
      <trkpt lat="48.629871" lon="7.755777">
        <ele>184.0</ele>
        <time>2020-07-11T10:22:13Z</time>
      </trkpt>
      <trkpt lat="48.629777" lon="7.755701">
        <ele>183.0</ele>
        <time>2020-07-11T10:22:15Z</time>
      </trkpt>
      <trkpt lat="48.629688" lon="7.755619">
        <ele>183.0</ele>
        <time>2020-07-11T10:22:17Z</time>
      </trkpt>
      <trkpt lat="48.629634" lon="7.755575">
        <ele>183.0</ele>
        <time>2020-07-11T10:22:18Z</time>
      </trkpt>
      <trkpt lat="48.629538" lon="7.755488">
        <ele>183.0</ele>
        <time>2020-07-11T10:22:20Z</time>
      </trkpt>
      <trkpt lat="48.629342" lon="7.755299">
        <ele>183.0</ele>
        <time>2020-07-11T10:22:24Z</time>
      </trkpt>
      <trkpt lat="48.629243" lon="7.755196">
        <ele>184.0</ele>
        <time>2020-07-11T10:22:26Z</time>
      </trkpt>
      <trkpt lat="48.629152" lon="7.755095">
        <ele>184.0</ele>
        <time>2020-07-11T10:22:28Z</time>
      </trkpt>
      <trkpt lat="48.629072" lon="7.755004">
        <ele>184.0</ele>
        <time>2020-07-11T10:22:30Z</time>
      </trkpt>
      <trkpt lat="48.628982" lon="7.754914">
        <ele>185.0</ele>
        <time>2020-07-11T10:22:32Z</time>
      </trkpt>
      <trkpt lat="48.628886" lon="7.754821">
        <ele>185.0</ele>
        <time>2020-07-11T10:22:34Z</time>
      </trkpt>
      <trkpt lat="48.628725" lon="7.754693">
        <ele>185.0</ele>
        <time>2020-07-11T10:22:37Z</time>
      </trkpt>
      <trkpt lat="48.628586" lon="7.754596">
        <ele>184.0</ele>
        <time>2020-07-11T10:22:40Z</time>
      </trkpt>
      <trkpt lat="48.628486" lon="7.754537">
        <ele>184.0</ele>
        <time>2020-07-11T10:22:42Z</time>
      </trkpt>
      <trkpt lat="48.628433" lon="7.754507">
        <ele>184.0</ele>
        <time>2020-07-11T10:22:43Z</time>
      </trkpt>
      <trkpt lat="48.628255" lon="7.75443">
        <ele>184.0</ele>
        <time>2020-07-11T10:22:46Z</time>
      </trkpt>
      <trkpt lat="48.628136" lon="7.754387">
        <ele>184.0</ele>
        <time>2020-07-11T10:22:48Z</time>
      </trkpt>
      <trkpt lat="48.628013" lon="7.754345">
        <ele>184.0</ele>
        <time>2020-07-11T10:22:50Z</time>
      </trkpt>
      <trkpt lat="48.627891" lon="7.754319">
        <ele>185.0</ele>
        <time>2020-07-11T10:22:52Z</time>
      </trkpt>
      <trkpt lat="48.627779" lon="7.754298">
        <ele>185.0</ele>
        <time>2020-07-11T10:22:54Z</time>
      </trkpt>
      <trkpt lat="48.627659" lon="7.754293">
        <ele>185.0</ele>
        <time>2020-07-11T10:22:56Z</time>
      </trkpt>
      <trkpt lat="48.627484" lon="7.754312">
        <ele>185.0</ele>
        <time>2020-07-11T10:22:59Z</time>
      </trkpt>
      <trkpt lat="48.62737" lon="7.754331">
        <ele>184.0</ele>
        <time>2020-07-11T10:23:01Z</time>
      </trkpt>
      <trkpt lat="48.627254" lon="7.754348">
        <ele>185.0</ele>
        <time>2020-07-11T10:23:03Z</time>
      </trkpt>
      <trkpt lat="48.627143" lon="7.754377">
        <ele>185.0</ele>
        <time>2020-07-11T10:23:05Z</time>
      </trkpt>
      <trkpt lat="48.627033" lon="7.75441">
        <ele>185.0</ele>
        <time>2020-07-11T10:23:07Z</time>
      </trkpt>
      <trkpt lat="48.626871" lon="7.754461">
        <ele>185.0</ele>
        <time>2020-07-11T10:23:10Z</time>
      </trkpt>
      <trkpt lat="48.626781" lon="7.75445">
        <ele>185.0</ele>
        <time>2020-07-11T10:23:12Z</time>
      </trkpt>
      <trkpt lat="48.626705" lon="7.754452">
        <ele>185.0</ele>
        <time>2020-07-11T10:23:14Z</time>
      </trkpt>
      <trkpt lat="48.626639" lon="7.754508">
        <ele>184.0</ele>
        <time>2020-07-11T10:23:16Z</time>
      </trkpt>
      <trkpt lat="48.626571" lon="7.754626">
        <ele>183.0</ele>
        <time>2020-07-11T10:23:18Z</time>
      </trkpt>
      <trkpt lat="48.626469" lon="7.754714">
        <ele>182.0</ele>
        <time>2020-07-11T10:23:20Z</time>
      </trkpt>
      <trkpt lat="48.626372" lon="7.754798">
        <ele>182.0</ele>
        <time>2020-07-11T10:23:22Z</time>
      </trkpt>
      <trkpt lat="48.626277" lon="7.754885">
        <ele>182.0</ele>
        <time>2020-07-11T10:23:24Z</time>
      </trkpt>
      <trkpt lat="48.62619" lon="7.754991">
        <ele>181.0</ele>
        <time>2020-07-11T10:23:26Z</time>
      </trkpt>
      <trkpt lat="48.626099" lon="7.755102">
        <ele>182.0</ele>
        <time>2020-07-11T10:23:28Z</time>
      </trkpt>
      <trkpt lat="48.626006" lon="7.755206">
        <ele>182.0</ele>
        <time>2020-07-11T10:23:30Z</time>
      </trkpt>
      <trkpt lat="48.625925" lon="7.755315">
        <ele>183.0</ele>
        <time>2020-07-11T10:23:32Z</time>
      </trkpt>
      <trkpt lat="48.625842" lon="7.755407">
        <ele>183.0</ele>
        <time>2020-07-11T10:23:34Z</time>
      </trkpt>
      <trkpt lat="48.625753" lon="7.755493">
        <ele>182.0</ele>
        <time>2020-07-11T10:23:36Z</time>
      </trkpt>
      <trkpt lat="48.625668" lon="7.755512">
        <ele>181.0</ele>
        <time>2020-07-11T10:23:38Z</time>
      </trkpt>
      <trkpt lat="48.625602" lon="7.755559">
        <ele>181.0</ele>
        <time>2020-07-11T10:23:40Z</time>
      </trkpt>
      <trkpt lat="48.625559" lon="7.755661">
        <ele>181.0</ele>
        <time>2020-07-11T10:23:42Z</time>
      </trkpt>
      <trkpt lat="48.625511" lon="7.755786">
        <ele>183.0</ele>
        <time>2020-07-11T10:23:44Z</time>
      </trkpt>
      <trkpt lat="48.625418" lon="7.75591">
        <ele>183.0</ele>
        <time>2020-07-11T10:23:46Z</time>
      </trkpt>
      <trkpt lat="48.625325" lon="7.756044">
        <ele>185.0</ele>
        <time>2020-07-11T10:23:48Z</time>
      </trkpt>
      <trkpt lat="48.625243" lon="7.756148">
        <ele>186.0</ele>
        <time>2020-07-11T10:23:50Z</time>
      </trkpt>
      <trkpt lat="48.625163" lon="7.756279">
        <ele>186.0</ele>
        <time>2020-07-11T10:23:52Z</time>
      </trkpt>
      <trkpt lat="48.625033" lon="7.756454">
        <ele>186.0</ele>
        <time>2020-07-11T10:23:55Z</time>
      </trkpt>
      <trkpt lat="48.624945" lon="7.75656">
        <ele>187.0</ele>
        <time>2020-07-11T10:23:57Z</time>
      </trkpt>
      <trkpt lat="48.624813" lon="7.756717">
        <ele>186.0</ele>
        <time>2020-07-11T10:24:00Z</time>
      </trkpt>
      <trkpt lat="48.624684" lon="7.756891">
        <ele>186.0</ele>
        <time>2020-07-11T10:24:03Z</time>
      </trkpt>
      <trkpt lat="48.624598" lon="7.75702">
        <ele>185.0</ele>
        <time>2020-07-11T10:24:05Z</time>
      </trkpt>
      <trkpt lat="48.624506" lon="7.757133">
        <ele>186.0</ele>
        <time>2020-07-11T10:24:07Z</time>
      </trkpt>
      <trkpt lat="48.62442" lon="7.757243">
        <ele>185.0</ele>
        <time>2020-07-11T10:24:09Z</time>
      </trkpt>
      <trkpt lat="48.624335" lon="7.757357">
        <ele>185.0</ele>
        <time>2020-07-11T10:24:11Z</time>
      </trkpt>
      <trkpt lat="48.624248" lon="7.757466">
        <ele>185.0</ele>
        <time>2020-07-11T10:24:13Z</time>
      </trkpt>
      <trkpt lat="48.624157" lon="7.757591">
        <ele>185.0</ele>
        <time>2020-07-11T10:24:15Z</time>
      </trkpt>
      <trkpt lat="48.624022" lon="7.757759">
        <ele>185.0</ele>
        <time>2020-07-11T10:24:18Z</time>
      </trkpt>
      <trkpt lat="48.623937" lon="7.757875">
        <ele>185.0</ele>
        <time>2020-07-11T10:24:20Z</time>
      </trkpt>
      <trkpt lat="48.623893" lon="7.757938">
        <ele>185.0</ele>
        <time>2020-07-11T10:24:21Z</time>
      </trkpt>
      <trkpt lat="48.62376" lon="7.758107">
        <ele>184.0</ele>
        <time>2020-07-11T10:24:24Z</time>
      </trkpt>
      <trkpt lat="48.62367" lon="7.758227">
        <ele>185.0</ele>
        <time>2020-07-11T10:24:26Z</time>
      </trkpt>
      <trkpt lat="48.623579" lon="7.758348">
        <ele>185.0</ele>
        <time>2020-07-11T10:24:28Z</time>
      </trkpt>
      <trkpt lat="48.623494" lon="7.758463">
        <ele>185.0</ele>
        <time>2020-07-11T10:24:30Z</time>
      </trkpt>
      <trkpt lat="48.623402" lon="7.758577">
        <ele>185.0</ele>
        <time>2020-07-11T10:24:32Z</time>
      </trkpt>
      <trkpt lat="48.623307" lon="7.758694">
        <ele>184.0</ele>
        <time>2020-07-11T10:24:34Z</time>
      </trkpt>
      <trkpt lat="48.623169" lon="7.758869">
        <ele>183.0</ele>
        <time>2020-07-11T10:24:37Z</time>
      </trkpt>
      <trkpt lat="48.623033" lon="7.759051">
        <ele>183.0</ele>
        <time>2020-07-11T10:24:40Z</time>
      </trkpt>
      <trkpt lat="48.622849" lon="7.759278">
        <ele>184.0</ele>
        <time>2020-07-11T10:24:44Z</time>
      </trkpt>
      <trkpt lat="48.622809" lon="7.759342">
        <ele>184.0</ele>
        <time>2020-07-11T10:24:45Z</time>
      </trkpt>
      <trkpt lat="48.622676" lon="7.759521">
        <ele>184.0</ele>
        <time>2020-07-11T10:24:48Z</time>
      </trkpt>
      <trkpt lat="48.622586" lon="7.759635">
        <ele>184.0</ele>
        <time>2020-07-11T10:24:50Z</time>
      </trkpt>
      <trkpt lat="48.622498" lon="7.759746">
        <ele>184.0</ele>
        <time>2020-07-11T10:24:52Z</time>
      </trkpt>
      <trkpt lat="48.622366" lon="7.759916">
        <ele>185.0</ele>
        <time>2020-07-11T10:24:55Z</time>
      </trkpt>
      <trkpt lat="48.622279" lon="7.760016">
        <ele>184.0</ele>
        <time>2020-07-11T10:24:57Z</time>
      </trkpt>
      <trkpt lat="48.622188" lon="7.760107">
        <ele>185.0</ele>
        <time>2020-07-11T10:24:59Z</time>
      </trkpt>
      <trkpt lat="48.622092" lon="7.760187">
        <ele>185.0</ele>
        <time>2020-07-11T10:25:01Z</time>
      </trkpt>
      <trkpt lat="48.62199" lon="7.760281">
        <ele>186.0</ele>
        <time>2020-07-11T10:25:03Z</time>
      </trkpt>
      <trkpt lat="48.62189" lon="7.760372">
        <ele>185.0</ele>
        <time>2020-07-11T10:25:05Z</time>
      </trkpt>
      <trkpt lat="48.621785" lon="7.760457">
        <ele>185.0</ele>
        <time>2020-07-11T10:25:07Z</time>
      </trkpt>
      <trkpt lat="48.621681" lon="7.760528">
        <ele>185.0</ele>
        <time>2020-07-11T10:25:09Z</time>
      </trkpt>
      <trkpt lat="48.621576" lon="7.7606">
        <ele>184.0</ele>
        <time>2020-07-11T10:25:11Z</time>
      </trkpt>
      <trkpt lat="48.621472" lon="7.760665">
        <ele>185.0</ele>
        <time>2020-07-11T10:25:13Z</time>
      </trkpt>
      <trkpt lat="48.621376" lon="7.760721">
        <ele>185.0</ele>
        <time>2020-07-11T10:25:15Z</time>
      </trkpt>
      <trkpt lat="48.621279" lon="7.760768">
        <ele>184.0</ele>
        <time>2020-07-11T10:25:17Z</time>
      </trkpt>
      <trkpt lat="48.621181" lon="7.76082">
        <ele>184.0</ele>
        <time>2020-07-11T10:25:19Z</time>
      </trkpt>
      <trkpt lat="48.621029" lon="7.760931">
        <ele>183.0</ele>
        <time>2020-07-11T10:25:22Z</time>
      </trkpt>
      <trkpt lat="48.620916" lon="7.760977">
        <ele>183.0</ele>
        <time>2020-07-11T10:25:24Z</time>
      </trkpt>
      <trkpt lat="48.620804" lon="7.761006">
        <ele>184.0</ele>
        <time>2020-07-11T10:25:26Z</time>
      </trkpt>
      <trkpt lat="48.620636" lon="7.761058">
        <ele>185.0</ele>
        <time>2020-07-11T10:25:29Z</time>
      </trkpt>
      <trkpt lat="48.620524" lon="7.761092">
        <ele>185.0</ele>
        <time>2020-07-11T10:25:31Z</time>
      </trkpt>
      <trkpt lat="48.620408" lon="7.761114">
        <ele>185.0</ele>
        <time>2020-07-11T10:25:33Z</time>
      </trkpt>
      <trkpt lat="48.620298" lon="7.761135">
        <ele>186.0</ele>
        <time>2020-07-11T10:25:35Z</time>
      </trkpt>
      <trkpt lat="48.620133" lon="7.761165">
        <ele>187.0</ele>
        <time>2020-07-11T10:25:38Z</time>
      </trkpt>
      <trkpt lat="48.620016" lon="7.761184">
        <ele>187.0</ele>
        <time>2020-07-11T10:25:40Z</time>
      </trkpt>
      <trkpt lat="48.619898" lon="7.761204">
        <ele>188.0</ele>
        <time>2020-07-11T10:25:42Z</time>
      </trkpt>
      <trkpt lat="48.619719" lon="7.761216">
        <ele>187.0</ele>
        <time>2020-07-11T10:25:45Z</time>
      </trkpt>
      <trkpt lat="48.619609" lon="7.761229">
        <ele>188.0</ele>
        <time>2020-07-11T10:25:47Z</time>
      </trkpt>
      <trkpt lat="48.619498" lon="7.761238">
        <ele>188.0</ele>
        <time>2020-07-11T10:25:49Z</time>
      </trkpt>
      <trkpt lat="48.619383" lon="7.761259">
        <ele>188.0</ele>
        <time>2020-07-11T10:25:51Z</time>
      </trkpt>
      <trkpt lat="48.619267" lon="7.761276">
        <ele>188.0</ele>
        <time>2020-07-11T10:25:53Z</time>
      </trkpt>
      <trkpt lat="48.619211" lon="7.761286">
        <ele>188.0</ele>
        <time>2020-07-11T10:25:54Z</time>
      </trkpt>
      <trkpt lat="48.619039" lon="7.761313">
        <ele>188.0</ele>
        <time>2020-07-11T10:25:57Z</time>
      </trkpt>
      <trkpt lat="48.618927" lon="7.761321">
        <ele>188.0</ele>
        <time>2020-07-11T10:25:59Z</time>
      </trkpt>
      <trkpt lat="48.618816" lon="7.761332">
        <ele>188.0</ele>
        <time>2020-07-11T10:26:01Z</time>
      </trkpt>
      <trkpt lat="48.618704" lon="7.761354">
        <ele>188.0</ele>
        <time>2020-07-11T10:26:03Z</time>
      </trkpt>
      <trkpt lat="48.61855" lon="7.7614">
        <ele>188.0</ele>
        <time>2020-07-11T10:26:06Z</time>
      </trkpt>
      <trkpt lat="48.618449" lon="7.761472">
        <ele>188.0</ele>
        <time>2020-07-11T10:26:08Z</time>
      </trkpt>
      <trkpt lat="48.618331" lon="7.761554">
        <ele>186.0</ele>
        <time>2020-07-11T10:26:10Z</time>
      </trkpt>
      <trkpt lat="48.618186" lon="7.761592">
        <ele>186.0</ele>
        <time>2020-07-11T10:26:12Z</time>
      </trkpt>
      <trkpt lat="48.617974" lon="7.761605">
        <ele>185.0</ele>
        <time>2020-07-11T10:26:15Z</time>
      </trkpt>
      <trkpt lat="48.617845" lon="7.761627">
        <ele>185.0</ele>
        <time>2020-07-11T10:26:17Z</time>
      </trkpt>
      <trkpt lat="48.617718" lon="7.761646">
        <ele>184.0</ele>
        <time>2020-07-11T10:26:19Z</time>
      </trkpt>
      <trkpt lat="48.617538" lon="7.76167">
        <ele>185.0</ele>
        <time>2020-07-11T10:26:22Z</time>
      </trkpt>
      <trkpt lat="48.61742" lon="7.761697">
        <ele>185.0</ele>
        <time>2020-07-11T10:26:24Z</time>
      </trkpt>
      <trkpt lat="48.617305" lon="7.761716">
        <ele>185.0</ele>
        <time>2020-07-11T10:26:26Z</time>
      </trkpt>
      <trkpt lat="48.617196" lon="7.76172">
        <ele>185.0</ele>
        <time>2020-07-11T10:26:28Z</time>
      </trkpt>
      <trkpt lat="48.617086" lon="7.761733">
        <ele>185.0</ele>
        <time>2020-07-11T10:26:30Z</time>
      </trkpt>
      <trkpt lat="48.616935" lon="7.76172">
        <ele>185.0</ele>
        <time>2020-07-11T10:26:33Z</time>
      </trkpt>
      <trkpt lat="48.616884" lon="7.761718">
        <ele>185.0</ele>
        <time>2020-07-11T10:26:34Z</time>
      </trkpt>
      <trkpt lat="48.616737" lon="7.761722">
        <ele>185.0</ele>
        <time>2020-07-11T10:26:37Z</time>
      </trkpt>
      <trkpt lat="48.616641" lon="7.761718">
        <ele>185.0</ele>
        <time>2020-07-11T10:26:39Z</time>
      </trkpt>
      <trkpt lat="48.616548" lon="7.761712">
        <ele>186.0</ele>
        <time>2020-07-11T10:26:41Z</time>
      </trkpt>
      <trkpt lat="48.616405" lon="7.761712">
        <ele>186.0</ele>
        <time>2020-07-11T10:26:44Z</time>
      </trkpt>
      <trkpt lat="48.616308" lon="7.761716">
        <ele>186.0</ele>
        <time>2020-07-11T10:26:46Z</time>
      </trkpt>
      <trkpt lat="48.616263" lon="7.761722">
        <ele>186.0</ele>
        <time>2020-07-11T10:26:47Z</time>
      </trkpt>
      <trkpt lat="48.616161" lon="7.761741">
        <ele>187.0</ele>
        <time>2020-07-11T10:26:49Z</time>
      </trkpt>
      <trkpt lat="48.615968" lon="7.761806">
        <ele>186.0</ele>
        <time>2020-07-11T10:26:53Z</time>
      </trkpt>
      <trkpt lat="48.615865" lon="7.761849">
        <ele>185.0</ele>
        <time>2020-07-11T10:26:55Z</time>
      </trkpt>
      <trkpt lat="48.615818" lon="7.761875">
        <ele>185.0</ele>
        <time>2020-07-11T10:26:56Z</time>
      </trkpt>
      <trkpt lat="48.61562" lon="7.761979">
        <ele>186.0</ele>
        <time>2020-07-11T10:27:00Z</time>
      </trkpt>
      <trkpt lat="48.615563" lon="7.76199">
        <ele>185.0</ele>
        <time>2020-07-11T10:27:01Z</time>
      </trkpt>
      <trkpt lat="48.615374" lon="7.76199">
        <ele>184.0</ele>
        <time>2020-07-11T10:27:04Z</time>
      </trkpt>
      <trkpt lat="48.615176" lon="7.761983">
        <ele>184.0</ele>
        <time>2020-07-11T10:27:07Z</time>
      </trkpt>
      <trkpt lat="48.614995" lon="7.761995">
        <ele>185.0</ele>
        <time>2020-07-11T10:27:10Z</time>
      </trkpt>
      <trkpt lat="48.614834" lon="7.762013">
        <ele>185.0</ele>
        <time>2020-07-11T10:27:13Z</time>
      </trkpt>
      <trkpt lat="48.614675" lon="7.762035">
        <ele>185.0</ele>
        <time>2020-07-11T10:27:16Z</time>
      </trkpt>
      <trkpt lat="48.614518" lon="7.762053">
        <ele>185.0</ele>
        <time>2020-07-11T10:27:19Z</time>
      </trkpt>
      <trkpt lat="48.614356" lon="7.762064">
        <ele>185.0</ele>
        <time>2020-07-11T10:27:22Z</time>
      </trkpt>
      <trkpt lat="48.61425" lon="7.762084">
        <ele>185.0</ele>
        <time>2020-07-11T10:27:24Z</time>
      </trkpt>
      <trkpt lat="48.614151" lon="7.762089">
        <ele>185.0</ele>
        <time>2020-07-11T10:27:26Z</time>
      </trkpt>
      <trkpt lat="48.614098" lon="7.762098">
        <ele>186.0</ele>
        <time>2020-07-11T10:27:27Z</time>
      </trkpt>
      <trkpt lat="48.613953" lon="7.762086">
        <ele>185.0</ele>
        <time>2020-07-11T10:27:30Z</time>
      </trkpt>
      <trkpt lat="48.613883" lon="7.762045">
        <ele>186.0</ele>
        <time>2020-07-11T10:27:32Z</time>
      </trkpt>
      <trkpt lat="48.613824" lon="7.762024">
        <ele>186.0</ele>
        <time>2020-07-11T10:27:34Z</time>
      </trkpt>
      <trkpt lat="48.613762" lon="7.762025">
        <ele>185.0</ele>
        <time>2020-07-11T10:27:36Z</time>
      </trkpt>
      <trkpt lat="48.613689" lon="7.762029">
        <ele>185.0</ele>
        <time>2020-07-11T10:27:38Z</time>
      </trkpt>
      <trkpt lat="48.613606" lon="7.762034">
        <ele>186.0</ele>
        <time>2020-07-11T10:27:40Z</time>
      </trkpt>
      <trkpt lat="48.613517" lon="7.76206">
        <ele>186.0</ele>
        <time>2020-07-11T10:27:42Z</time>
      </trkpt>
      <trkpt lat="48.61342" lon="7.762063">
        <ele>186.0</ele>
        <time>2020-07-11T10:27:44Z</time>
      </trkpt>
      <trkpt lat="48.61326" lon="7.762085">
        <ele>187.0</ele>
        <time>2020-07-11T10:27:47Z</time>
      </trkpt>
      <trkpt lat="48.613152" lon="7.762103">
        <ele>186.0</ele>
        <time>2020-07-11T10:27:49Z</time>
      </trkpt>
      <trkpt lat="48.613044" lon="7.762129">
        <ele>186.0</ele>
        <time>2020-07-11T10:27:51Z</time>
      </trkpt>
      <trkpt lat="48.612879" lon="7.762159">
        <ele>186.0</ele>
        <time>2020-07-11T10:27:54Z</time>
      </trkpt>
      <trkpt lat="48.612779" lon="7.762167">
        <ele>186.0</ele>
        <time>2020-07-11T10:27:56Z</time>
      </trkpt>
      <trkpt lat="48.612672" lon="7.762188">
        <ele>186.0</ele>
        <time>2020-07-11T10:27:58Z</time>
      </trkpt>
      <trkpt lat="48.612568" lon="7.762209">
        <ele>186.0</ele>
        <time>2020-07-11T10:28:00Z</time>
      </trkpt>
      <trkpt lat="48.612456" lon="7.762229">
        <ele>187.0</ele>
        <time>2020-07-11T10:28:02Z</time>
      </trkpt>
      <trkpt lat="48.612352" lon="7.762243">
        <ele>187.0</ele>
        <time>2020-07-11T10:28:04Z</time>
      </trkpt>
      <trkpt lat="48.612242" lon="7.762253">
        <ele>187.0</ele>
        <time>2020-07-11T10:28:06Z</time>
      </trkpt>
      <trkpt lat="48.612141" lon="7.76226">
        <ele>187.0</ele>
        <time>2020-07-11T10:28:08Z</time>
      </trkpt>
      <trkpt lat="48.612042" lon="7.762279">
        <ele>186.0</ele>
        <time>2020-07-11T10:28:10Z</time>
      </trkpt>
      <trkpt lat="48.611943" lon="7.762296">
        <ele>186.0</ele>
        <time>2020-07-11T10:28:12Z</time>
      </trkpt>
      <trkpt lat="48.611837" lon="7.762301">
        <ele>186.0</ele>
        <time>2020-07-11T10:28:14Z</time>
      </trkpt>
      <trkpt lat="48.611735" lon="7.76232">
        <ele>187.0</ele>
        <time>2020-07-11T10:28:16Z</time>
      </trkpt>
      <trkpt lat="48.61163" lon="7.762333">
        <ele>186.0</ele>
        <time>2020-07-11T10:28:18Z</time>
      </trkpt>
      <trkpt lat="48.61152" lon="7.762346">
        <ele>186.0</ele>
        <time>2020-07-11T10:28:20Z</time>
      </trkpt>
      <trkpt lat="48.611416" lon="7.762348">
        <ele>186.0</ele>
        <time>2020-07-11T10:28:22Z</time>
      </trkpt>
      <trkpt lat="48.611303" lon="7.762366">
        <ele>187.0</ele>
        <time>2020-07-11T10:28:24Z</time>
      </trkpt>
      <trkpt lat="48.611191" lon="7.762378">
        <ele>186.0</ele>
        <time>2020-07-11T10:28:26Z</time>
      </trkpt>
      <trkpt lat="48.611074" lon="7.76239">
        <ele>187.0</ele>
        <time>2020-07-11T10:28:28Z</time>
      </trkpt>
      <trkpt lat="48.610961" lon="7.762406">
        <ele>187.0</ele>
        <time>2020-07-11T10:28:30Z</time>
      </trkpt>
      <trkpt lat="48.610797" lon="7.762416">
        <ele>187.0</ele>
        <time>2020-07-11T10:28:33Z</time>
      </trkpt>
      <trkpt lat="48.610688" lon="7.762435">
        <ele>187.0</ele>
        <time>2020-07-11T10:28:35Z</time>
      </trkpt>
      <trkpt lat="48.610584" lon="7.762459">
        <ele>187.0</ele>
        <time>2020-07-11T10:28:37Z</time>
      </trkpt>
      <trkpt lat="48.610484" lon="7.76247">
        <ele>187.0</ele>
        <time>2020-07-11T10:28:39Z</time>
      </trkpt>
      <trkpt lat="48.610319" lon="7.762498">
        <ele>187.0</ele>
        <time>2020-07-11T10:28:42Z</time>
      </trkpt>
      <trkpt lat="48.610204" lon="7.762543">
        <ele>186.0</ele>
        <time>2020-07-11T10:28:44Z</time>
      </trkpt>
      <trkpt lat="48.610078" lon="7.762562">
        <ele>186.0</ele>
        <time>2020-07-11T10:28:46Z</time>
      </trkpt>
      <trkpt lat="48.609906" lon="7.762581">
        <ele>186.0</ele>
        <time>2020-07-11T10:28:49Z</time>
      </trkpt>
      <trkpt lat="48.609793" lon="7.7626">
        <ele>186.0</ele>
        <time>2020-07-11T10:28:51Z</time>
      </trkpt>
      <trkpt lat="48.609683" lon="7.762627">
        <ele>185.0</ele>
        <time>2020-07-11T10:28:53Z</time>
      </trkpt>
      <trkpt lat="48.609572" lon="7.762646">
        <ele>185.0</ele>
        <time>2020-07-11T10:28:55Z</time>
      </trkpt>
      <trkpt lat="48.609514" lon="7.762657">
        <ele>185.0</ele>
        <time>2020-07-11T10:28:56Z</time>
      </trkpt>
      <trkpt lat="48.609344" lon="7.762687">
        <ele>186.0</ele>
        <time>2020-07-11T10:28:59Z</time>
      </trkpt>
      <trkpt lat="48.609236" lon="7.762693">
        <ele>186.0</ele>
        <time>2020-07-11T10:29:01Z</time>
      </trkpt>
      <trkpt lat="48.609063" lon="7.762706">
        <ele>187.0</ele>
        <time>2020-07-11T10:29:04Z</time>
      </trkpt>
      <trkpt lat="48.608954" lon="7.762724">
        <ele>186.0</ele>
        <time>2020-07-11T10:29:06Z</time>
      </trkpt>
      <trkpt lat="48.60885" lon="7.762738">
        <ele>186.0</ele>
        <time>2020-07-11T10:29:08Z</time>
      </trkpt>
      <trkpt lat="48.608739" lon="7.76276">
        <ele>186.0</ele>
        <time>2020-07-11T10:29:10Z</time>
      </trkpt>
      <trkpt lat="48.608624" lon="7.762771">
        <ele>186.0</ele>
        <time>2020-07-11T10:29:12Z</time>
      </trkpt>
      <trkpt lat="48.608461" lon="7.762782">
        <ele>186.0</ele>
        <time>2020-07-11T10:29:15Z</time>
      </trkpt>
      <trkpt lat="48.608357" lon="7.762786">
        <ele>186.0</ele>
        <time>2020-07-11T10:29:17Z</time>
      </trkpt>
      <trkpt lat="48.608244" lon="7.762797">
        <ele>186.0</ele>
        <time>2020-07-11T10:29:19Z</time>
      </trkpt>
      <trkpt lat="48.608128" lon="7.762827">
        <ele>185.0</ele>
        <time>2020-07-11T10:29:21Z</time>
      </trkpt>
      <trkpt lat="48.607967" lon="7.762891">
        <ele>185.0</ele>
        <time>2020-07-11T10:29:24Z</time>
      </trkpt>
      <trkpt lat="48.607798" lon="7.762905">
        <ele>185.0</ele>
        <time>2020-07-11T10:29:27Z</time>
      </trkpt>
      <trkpt lat="48.60769" lon="7.76293">
        <ele>185.0</ele>
        <time>2020-07-11T10:29:29Z</time>
      </trkpt>
      <trkpt lat="48.607635" lon="7.762941">
        <ele>185.0</ele>
        <time>2020-07-11T10:29:30Z</time>
      </trkpt>
      <trkpt lat="48.607411" lon="7.762977">
        <ele>185.0</ele>
        <time>2020-07-11T10:29:34Z</time>
      </trkpt>
      <trkpt lat="48.607297" lon="7.762967">
        <ele>185.0</ele>
        <time>2020-07-11T10:29:36Z</time>
      </trkpt>
      <trkpt lat="48.607173" lon="7.762981">
        <ele>185.0</ele>
        <time>2020-07-11T10:29:38Z</time>
      </trkpt>
      <trkpt lat="48.607052" lon="7.762996">
        <ele>185.0</ele>
        <time>2020-07-11T10:29:40Z</time>
      </trkpt>
      <trkpt lat="48.606932" lon="7.763015">
        <ele>185.0</ele>
        <time>2020-07-11T10:29:42Z</time>
      </trkpt>
      <trkpt lat="48.606818" lon="7.763019">
        <ele>184.0</ele>
        <time>2020-07-11T10:29:44Z</time>
      </trkpt>
      <trkpt lat="48.606697" lon="7.763041">
        <ele>184.0</ele>
        <time>2020-07-11T10:29:46Z</time>
      </trkpt>
      <trkpt lat="48.606585" lon="7.763055">
        <ele>184.0</ele>
        <time>2020-07-11T10:29:48Z</time>
      </trkpt>
      <trkpt lat="48.606469" lon="7.763075">
        <ele>184.0</ele>
        <time>2020-07-11T10:29:50Z</time>
      </trkpt>
      <trkpt lat="48.606295" lon="7.7631">
        <ele>184.0</ele>
        <time>2020-07-11T10:29:53Z</time>
      </trkpt>
      <trkpt lat="48.606183" lon="7.763109">
        <ele>184.0</ele>
        <time>2020-07-11T10:29:55Z</time>
      </trkpt>
      <trkpt lat="48.606068" lon="7.763129">
        <ele>184.0</ele>
        <time>2020-07-11T10:29:57Z</time>
      </trkpt>
      <trkpt lat="48.605959" lon="7.763148">
        <ele>184.0</ele>
        <time>2020-07-11T10:29:59Z</time>
      </trkpt>
      <trkpt lat="48.605847" lon="7.763172">
        <ele>184.0</ele>
        <time>2020-07-11T10:30:01Z</time>
      </trkpt>
      <trkpt lat="48.605667" lon="7.76319">
        <ele>184.0</ele>
        <time>2020-07-11T10:30:04Z</time>
      </trkpt>
      <trkpt lat="48.60561" lon="7.763192">
        <ele>184.0</ele>
        <time>2020-07-11T10:30:05Z</time>
      </trkpt>
      <trkpt lat="48.605442" lon="7.763204">
        <ele>185.0</ele>
        <time>2020-07-11T10:30:08Z</time>
      </trkpt>
      <trkpt lat="48.605274" lon="7.763218">
        <ele>186.0</ele>
        <time>2020-07-11T10:30:11Z</time>
      </trkpt>
      <trkpt lat="48.605156" lon="7.763241">
        <ele>186.0</ele>
        <time>2020-07-11T10:30:13Z</time>
      </trkpt>
      <trkpt lat="48.605044" lon="7.763268">
        <ele>185.0</ele>
        <time>2020-07-11T10:30:15Z</time>
      </trkpt>
      <trkpt lat="48.604877" lon="7.763293">
        <ele>185.0</ele>
        <time>2020-07-11T10:30:18Z</time>
      </trkpt>
      <trkpt lat="48.604824" lon="7.763301">
        <ele>185.0</ele>
        <time>2020-07-11T10:30:19Z</time>
      </trkpt>
      <trkpt lat="48.604659" lon="7.763348">
        <ele>186.0</ele>
        <time>2020-07-11T10:30:22Z</time>
      </trkpt>
      <trkpt lat="48.604606" lon="7.763349">
        <ele>186.0</ele>
        <time>2020-07-11T10:30:23Z</time>
      </trkpt>
      <trkpt lat="48.604442" lon="7.763318">
        <ele>186.0</ele>
        <time>2020-07-11T10:30:26Z</time>
      </trkpt>
      <trkpt lat="48.604332" lon="7.763335">
        <ele>186.0</ele>
        <time>2020-07-11T10:30:28Z</time>
      </trkpt>
      <trkpt lat="48.604169" lon="7.763389">
        <ele>185.0</ele>
        <time>2020-07-11T10:30:31Z</time>
      </trkpt>
      <trkpt lat="48.60407" lon="7.763418">
        <ele>185.0</ele>
        <time>2020-07-11T10:30:33Z</time>
      </trkpt>
      <trkpt lat="48.603978" lon="7.763452">
        <ele>186.0</ele>
        <time>2020-07-11T10:30:35Z</time>
      </trkpt>
      <trkpt lat="48.603934" lon="7.763474">
        <ele>186.0</ele>
        <time>2020-07-11T10:30:36Z</time>
      </trkpt>
      <trkpt lat="48.603808" lon="7.763533">
        <ele>185.0</ele>
        <time>2020-07-11T10:30:39Z</time>
      </trkpt>
      <trkpt lat="48.603726" lon="7.763572">
        <ele>185.0</ele>
        <time>2020-07-11T10:30:41Z</time>
      </trkpt>
      <trkpt lat="48.603648" lon="7.763626">
        <ele>185.0</ele>
        <time>2020-07-11T10:30:43Z</time>
      </trkpt>
      <trkpt lat="48.603571" lon="7.763665">
        <ele>186.0</ele>
        <time>2020-07-11T10:30:45Z</time>
      </trkpt>
      <trkpt lat="48.60349" lon="7.763699">
        <ele>185.0</ele>
        <time>2020-07-11T10:30:47Z</time>
      </trkpt>
      <trkpt lat="48.603412" lon="7.763732">
        <ele>185.0</ele>
        <time>2020-07-11T10:30:49Z</time>
      </trkpt>
      <trkpt lat="48.603278" lon="7.763795">
        <ele>184.0</ele>
        <time>2020-07-11T10:30:52Z</time>
      </trkpt>
      <trkpt lat="48.60324" lon="7.763819">
        <ele>185.0</ele>
        <time>2020-07-11T10:30:53Z</time>
      </trkpt>
      <trkpt lat="48.60312" lon="7.763877">
        <ele>185.0</ele>
        <time>2020-07-11T10:30:56Z</time>
      </trkpt>
      <trkpt lat="48.603028" lon="7.763946">
        <ele>185.0</ele>
        <time>2020-07-11T10:30:59Z</time>
      </trkpt>
      <trkpt lat="48.602964" lon="7.763992">
        <ele>184.0</ele>
        <time>2020-07-11T10:31:01Z</time>
      </trkpt>
      <trkpt lat="48.602905" lon="7.764042">
        <ele>184.0</ele>
        <time>2020-07-11T10:31:03Z</time>
      </trkpt>
      <trkpt lat="48.602856" lon="7.764088">
        <ele>184.0</ele>
        <time>2020-07-11T10:31:05Z</time>
      </trkpt>
      <trkpt lat="48.602794" lon="7.764159">
        <ele>184.0</ele>
        <time>2020-07-11T10:31:08Z</time>
      </trkpt>
      <trkpt lat="48.60275" lon="7.764187">
        <ele>184.0</ele>
        <time>2020-07-11T10:31:10Z</time>
      </trkpt>
      <trkpt lat="48.602692" lon="7.764245">
        <ele>184.0</ele>
        <time>2020-07-11T10:31:12Z</time>
      </trkpt>
      <trkpt lat="48.60263" lon="7.764285">
        <ele>184.0</ele>
        <time>2020-07-11T10:31:14Z</time>
      </trkpt>
      <trkpt lat="48.602561" lon="7.764329">
        <ele>185.0</ele>
        <time>2020-07-11T10:31:16Z</time>
      </trkpt>
      <trkpt lat="48.602487" lon="7.764367">
        <ele>185.0</ele>
        <time>2020-07-11T10:31:18Z</time>
      </trkpt>
      <trkpt lat="48.602414" lon="7.764411">
        <ele>185.0</ele>
        <time>2020-07-11T10:31:20Z</time>
      </trkpt>
      <trkpt lat="48.602342" lon="7.764459">
        <ele>186.0</ele>
        <time>2020-07-11T10:31:22Z</time>
      </trkpt>
      <trkpt lat="48.602232" lon="7.764558">
        <ele>186.0</ele>
        <time>2020-07-11T10:31:25Z</time>
      </trkpt>
      <trkpt lat="48.602165" lon="7.764625">
        <ele>186.0</ele>
        <time>2020-07-11T10:31:27Z</time>
      </trkpt>
      <trkpt lat="48.602092" lon="7.764694">
        <ele>186.0</ele>
        <time>2020-07-11T10:31:29Z</time>
      </trkpt>
      <trkpt lat="48.602021" lon="7.764764">
        <ele>185.0</ele>
        <time>2020-07-11T10:31:31Z</time>
      </trkpt>
      <trkpt lat="48.601903" lon="7.764877">
        <ele>185.0</ele>
        <time>2020-07-11T10:31:34Z</time>
      </trkpt>
      <trkpt lat="48.601827" lon="7.764962">
        <ele>185.0</ele>
        <time>2020-07-11T10:31:36Z</time>
      </trkpt>
      <trkpt lat="48.60175" lon="7.765049">
        <ele>185.0</ele>
        <time>2020-07-11T10:31:38Z</time>
      </trkpt>
      <trkpt lat="48.601675" lon="7.76514">
        <ele>185.0</ele>
        <time>2020-07-11T10:31:40Z</time>
      </trkpt>
      <trkpt lat="48.601568" lon="7.765264">
        <ele>185.0</ele>
        <time>2020-07-11T10:31:43Z</time>
      </trkpt>
      <trkpt lat="48.601496" lon="7.765348">
        <ele>185.0</ele>
        <time>2020-07-11T10:31:45Z</time>
      </trkpt>
      <trkpt lat="48.601428" lon="7.765432">
        <ele>185.0</ele>
        <time>2020-07-11T10:31:47Z</time>
      </trkpt>
      <trkpt lat="48.601359" lon="7.765529">
        <ele>185.0</ele>
        <time>2020-07-11T10:31:49Z</time>
      </trkpt>
      <trkpt lat="48.601295" lon="7.765627">
        <ele>185.0</ele>
        <time>2020-07-11T10:31:51Z</time>
      </trkpt>
      <trkpt lat="48.601205" lon="7.765789">
        <ele>185.0</ele>
        <time>2020-07-11T10:31:54Z</time>
      </trkpt>
      <trkpt lat="48.601146" lon="7.765887">
        <ele>185.0</ele>
        <time>2020-07-11T10:31:56Z</time>
      </trkpt>
      <trkpt lat="48.601095" lon="7.765983">
        <ele>185.0</ele>
        <time>2020-07-11T10:31:58Z</time>
      </trkpt>
      <trkpt lat="48.601042" lon="7.766089">
        <ele>185.0</ele>
        <time>2020-07-11T10:32:00Z</time>
      </trkpt>
      <trkpt lat="48.600983" lon="7.766183">
        <ele>186.0</ele>
        <time>2020-07-11T10:32:02Z</time>
      </trkpt>
      <trkpt lat="48.600923" lon="7.766274">
        <ele>186.0</ele>
        <time>2020-07-11T10:32:04Z</time>
      </trkpt>
      <trkpt lat="48.600868" lon="7.766355">
        <ele>187.0</ele>
        <time>2020-07-11T10:32:06Z</time>
      </trkpt>
      <trkpt lat="48.600806" lon="7.766441">
        <ele>187.0</ele>
        <time>2020-07-11T10:32:08Z</time>
      </trkpt>
      <trkpt lat="48.600719" lon="7.766571">
        <ele>187.0</ele>
        <time>2020-07-11T10:32:11Z</time>
      </trkpt>
      <trkpt lat="48.600661" lon="7.766658">
        <ele>187.0</ele>
        <time>2020-07-11T10:32:13Z</time>
      </trkpt>
      <trkpt lat="48.600607" lon="7.766734">
        <ele>186.0</ele>
        <time>2020-07-11T10:32:15Z</time>
      </trkpt>
      <trkpt lat="48.60056" lon="7.766813">
        <ele>186.0</ele>
        <time>2020-07-11T10:32:17Z</time>
      </trkpt>
      <trkpt lat="48.600518" lon="7.766889">
        <ele>186.0</ele>
        <time>2020-07-11T10:32:19Z</time>
      </trkpt>
      <trkpt lat="48.600473" lon="7.766955">
        <ele>186.0</ele>
        <time>2020-07-11T10:32:21Z</time>
      </trkpt>
      <trkpt lat="48.600426" lon="7.76703">
        <ele>186.0</ele>
        <time>2020-07-11T10:32:23Z</time>
      </trkpt>
      <trkpt lat="48.600383" lon="7.767106">
        <ele>186.0</ele>
        <time>2020-07-11T10:32:25Z</time>
      </trkpt>
      <trkpt lat="48.600342" lon="7.76718">
        <ele>186.0</ele>
        <time>2020-07-11T10:32:27Z</time>
      </trkpt>
      <trkpt lat="48.600305" lon="7.767254">
        <ele>186.0</ele>
        <time>2020-07-11T10:32:29Z</time>
      </trkpt>
      <trkpt lat="48.600258" lon="7.767319">
        <ele>186.0</ele>
        <time>2020-07-11T10:32:31Z</time>
      </trkpt>
      <trkpt lat="48.600185" lon="7.767412">
        <ele>186.0</ele>
        <time>2020-07-11T10:32:34Z</time>
      </trkpt>
      <trkpt lat="48.600118" lon="7.767524">
        <ele>186.0</ele>
        <time>2020-07-11T10:32:37Z</time>
      </trkpt>
      <trkpt lat="48.600074" lon="7.767601">
        <ele>186.0</ele>
        <time>2020-07-11T10:32:39Z</time>
      </trkpt>
      <trkpt lat="48.600022" lon="7.767672">
        <ele>186.0</ele>
        <time>2020-07-11T10:32:41Z</time>
      </trkpt>
      <trkpt lat="48.599979" lon="7.767724">
        <ele>186.0</ele>
        <time>2020-07-11T10:32:43Z</time>
      </trkpt>
      <trkpt lat="48.599893" lon="7.767769">
        <ele>186.0</ele>
        <time>2020-07-11T10:32:46Z</time>
      </trkpt>
      <trkpt lat="48.599842" lon="7.767826">
        <ele>186.0</ele>
        <time>2020-07-11T10:32:48Z</time>
      </trkpt>
      <trkpt lat="48.599777" lon="7.767894">
        <ele>186.0</ele>
        <time>2020-07-11T10:32:50Z</time>
      </trkpt>
      <trkpt lat="48.599703" lon="7.76797">
        <ele>186.0</ele>
        <time>2020-07-11T10:32:52Z</time>
      </trkpt>
      <trkpt lat="48.599634" lon="7.768049">
        <ele>186.0</ele>
        <time>2020-07-11T10:32:54Z</time>
      </trkpt>
      <trkpt lat="48.599607" lon="7.768089">
        <ele>186.0</ele>
        <time>2020-07-11T10:32:55Z</time>
      </trkpt>
      <trkpt lat="48.599513" lon="7.768233">
        <ele>186.0</ele>
        <time>2020-07-11T10:32:58Z</time>
      </trkpt>
      <trkpt lat="48.599483" lon="7.768348">
        <ele>185.0</ele>
        <time>2020-07-11T10:33:00Z</time>
      </trkpt>
      <trkpt lat="48.599421" lon="7.768473">
        <ele>185.0</ele>
        <time>2020-07-11T10:33:03Z</time>
      </trkpt>
      <trkpt lat="48.599406" lon="7.768564">
        <ele>185.0</ele>
        <time>2020-07-11T10:33:05Z</time>
      </trkpt>
      <trkpt lat="48.599374" lon="7.768647">
        <ele>185.0</ele>
        <time>2020-07-11T10:33:07Z</time>
      </trkpt>
      <trkpt lat="48.599336" lon="7.768687">
        <ele>186.0</ele>
        <time>2020-07-11T10:33:09Z</time>
      </trkpt>
      <trkpt lat="48.599278" lon="7.768745">
        <ele>187.0</ele>
        <time>2020-07-11T10:33:12Z</time>
      </trkpt>
      <trkpt lat="48.599261" lon="7.76879">
        <ele>187.0</ele>
        <time>2020-07-11T10:33:14Z</time>
      </trkpt>
      <trkpt lat="48.599255" lon="7.768791">
        <ele>187.0</ele>
        <time>2020-07-11T10:33:16Z</time>
      </trkpt>
      <trkpt lat="48.599246" lon="7.768809">
        <ele>188.0</ele>
        <time>2020-07-11T10:33:18Z</time>
      </trkpt>
      <trkpt lat="48.599246" lon="7.768809">
        <ele>188.0</ele>
        <time>2020-07-11T10:33:21Z</time>
      </trkpt>
      <trkpt lat="48.599257" lon="7.768765">
        <ele>187.0</ele>
        <time>2020-07-11T10:35:27Z</time>
      </trkpt>
      <trkpt lat="48.599257" lon="7.768765">
        <ele>187.0</ele>
        <time>2020-07-11T10:35:29Z</time>
      </trkpt>
      <trkpt lat="48.599257" lon="7.768765">
        <ele>187.0</ele>
        <time>2020-07-11T10:35:31Z</time>
      </trkpt>
      <trkpt lat="48.599257" lon="7.768765">
        <ele>187.0</ele>
        <time>2020-07-11T10:35:33Z</time>
      </trkpt>
      <trkpt lat="48.599257" lon="7.768765">
        <ele>187.0</ele>
        <time>2020-07-11T10:35:35Z</time>
      </trkpt>
      <trkpt lat="48.599257" lon="7.768765">
        <ele>187.0</ele>
        <time>2020-07-11T10:35:37Z</time>
      </trkpt>
      <trkpt lat="48.599257" lon="7.768765">
        <ele>187.0</ele>
        <time>2020-07-11T10:35:39Z</time>
      </trkpt>
      <trkpt lat="48.599257" lon="7.768765">
        <ele>187.0</ele>
        <time>2020-07-11T10:35:41Z</time>
      </trkpt>
      <trkpt lat="48.599257" lon="7.768765">
        <ele>187.0</ele>
        <time>2020-07-11T10:35:43Z</time>
      </trkpt>
      <trkpt lat="48.599257" lon="7.768765">
        <ele>187.0</ele>
        <time>2020-07-11T10:35:45Z</time>
      </trkpt>
      <trkpt lat="48.599257" lon="7.768765">
        <ele>187.0</ele>
        <time>2020-07-11T10:35:47Z</time>
      </trkpt>
      <trkpt lat="48.599257" lon="7.768765">
        <ele>187.0</ele>
        <time>2020-07-11T10:35:49Z</time>
      </trkpt>
      <trkpt lat="48.599235" lon="7.76878">
        <ele>186.0</ele>
        <time>2020-07-11T10:35:51Z</time>
      </trkpt>
      <trkpt lat="48.599216" lon="7.768804">
        <ele>186.0</ele>
        <time>2020-07-11T10:35:53Z</time>
      </trkpt>
      <trkpt lat="48.599191" lon="7.768846">
        <ele>186.0</ele>
        <time>2020-07-11T10:35:55Z</time>
      </trkpt>
      <trkpt lat="48.59916" lon="7.768915">
        <ele>185.0</ele>
        <time>2020-07-11T10:35:57Z</time>
      </trkpt>
      <trkpt lat="48.599121" lon="7.768999">
        <ele>186.0</ele>
        <time>2020-07-11T10:35:59Z</time>
      </trkpt>
      <trkpt lat="48.599073" lon="7.769079">
        <ele>187.0</ele>
        <time>2020-07-11T10:36:01Z</time>
      </trkpt>
      <trkpt lat="48.599027" lon="7.769157">
        <ele>189.0</ele>
        <time>2020-07-11T10:36:03Z</time>
      </trkpt>
      <trkpt lat="48.598966" lon="7.769244">
        <ele>189.0</ele>
        <time>2020-07-11T10:36:05Z</time>
      </trkpt>
      <trkpt lat="48.598901" lon="7.769335">
        <ele>190.0</ele>
        <time>2020-07-11T10:36:07Z</time>
      </trkpt>
      <trkpt lat="48.598842" lon="7.769424">
        <ele>189.0</ele>
        <time>2020-07-11T10:36:09Z</time>
      </trkpt>
      <trkpt lat="48.598781" lon="7.769517">
        <ele>189.0</ele>
        <time>2020-07-11T10:36:11Z</time>
      </trkpt>
      <trkpt lat="48.59872" lon="7.769606">
        <ele>190.0</ele>
        <time>2020-07-11T10:36:13Z</time>
      </trkpt>
      <trkpt lat="48.598665" lon="7.769696">
        <ele>191.0</ele>
        <time>2020-07-11T10:36:15Z</time>
      </trkpt>
      <trkpt lat="48.598621" lon="7.769795">
        <ele>191.0</ele>
        <time>2020-07-11T10:36:17Z</time>
      </trkpt>
      <trkpt lat="48.598592" lon="7.769872">
        <ele>191.0</ele>
        <time>2020-07-11T10:36:19Z</time>
      </trkpt>
      <trkpt lat="48.598582" lon="7.769959">
        <ele>190.0</ele>
        <time>2020-07-11T10:36:21Z</time>
      </trkpt>
      <trkpt lat="48.598562" lon="7.770047">
        <ele>190.0</ele>
        <time>2020-07-11T10:36:23Z</time>
      </trkpt>
      <trkpt lat="48.598532" lon="7.770141">
        <ele>190.0</ele>
        <time>2020-07-11T10:36:25Z</time>
      </trkpt>
      <trkpt lat="48.598479" lon="7.770231">
        <ele>190.0</ele>
        <time>2020-07-11T10:36:27Z</time>
      </trkpt>
      <trkpt lat="48.598414" lon="7.770322">
        <ele>190.0</ele>
        <time>2020-07-11T10:36:29Z</time>
      </trkpt>
      <trkpt lat="48.598344" lon="7.770416">
        <ele>191.0</ele>
        <time>2020-07-11T10:36:31Z</time>
      </trkpt>
      <trkpt lat="48.598278" lon="7.770512">
        <ele>189.0</ele>
        <time>2020-07-11T10:36:33Z</time>
      </trkpt>
      <trkpt lat="48.598214" lon="7.770618">
        <ele>189.0</ele>
        <time>2020-07-11T10:36:35Z</time>
      </trkpt>
      <trkpt lat="48.598145" lon="7.770725">
        <ele>189.0</ele>
        <time>2020-07-11T10:36:37Z</time>
      </trkpt>
      <trkpt lat="48.598079" lon="7.770842">
        <ele>189.0</ele>
        <time>2020-07-11T10:36:39Z</time>
      </trkpt>
      <trkpt lat="48.598011" lon="7.770968">
        <ele>188.0</ele>
        <time>2020-07-11T10:36:41Z</time>
      </trkpt>
      <trkpt lat="48.597943" lon="7.771093">
        <ele>187.0</ele>
        <time>2020-07-11T10:36:43Z</time>
      </trkpt>
      <trkpt lat="48.597869" lon="7.771214">
        <ele>187.0</ele>
        <time>2020-07-11T10:36:45Z</time>
      </trkpt>
      <trkpt lat="48.597795" lon="7.771335">
        <ele>186.0</ele>
        <time>2020-07-11T10:36:47Z</time>
      </trkpt>
      <trkpt lat="48.597715" lon="7.771456">
        <ele>186.0</ele>
        <time>2020-07-11T10:36:49Z</time>
      </trkpt>
      <trkpt lat="48.597642" lon="7.771575">
        <ele>186.0</ele>
        <time>2020-07-11T10:36:51Z</time>
      </trkpt>
      <trkpt lat="48.597576" lon="7.771701">
        <ele>186.0</ele>
        <time>2020-07-11T10:36:53Z</time>
      </trkpt>
      <trkpt lat="48.597515" lon="7.771816">
        <ele>185.0</ele>
        <time>2020-07-11T10:36:55Z</time>
      </trkpt>
      <trkpt lat="48.597444" lon="7.771914">
        <ele>185.0</ele>
        <time>2020-07-11T10:36:57Z</time>
      </trkpt>
      <trkpt lat="48.597392" lon="7.772016">
        <ele>185.0</ele>
        <time>2020-07-11T10:36:59Z</time>
      </trkpt>
      <trkpt lat="48.597327" lon="7.772111">
        <ele>185.0</ele>
        <time>2020-07-11T10:37:01Z</time>
      </trkpt>
      <trkpt lat="48.597269" lon="7.772223">
        <ele>185.0</ele>
        <time>2020-07-11T10:37:03Z</time>
      </trkpt>
      <trkpt lat="48.597209" lon="7.772324">
        <ele>185.0</ele>
        <time>2020-07-11T10:37:05Z</time>
      </trkpt>
      <trkpt lat="48.597147" lon="7.772426">
        <ele>186.0</ele>
        <time>2020-07-11T10:37:07Z</time>
      </trkpt>
      <trkpt lat="48.597064" lon="7.772519">
        <ele>185.0</ele>
        <time>2020-07-11T10:37:09Z</time>
      </trkpt>
      <trkpt lat="48.597003" lon="7.772608">
        <ele>186.0</ele>
        <time>2020-07-11T10:37:11Z</time>
      </trkpt>
      <trkpt lat="48.596954" lon="7.772703">
        <ele>187.0</ele>
        <time>2020-07-11T10:37:13Z</time>
      </trkpt>
      <trkpt lat="48.596904" lon="7.772791">
        <ele>187.0</ele>
        <time>2020-07-11T10:37:15Z</time>
      </trkpt>
      <trkpt lat="48.596849" lon="7.772874">
        <ele>188.0</ele>
        <time>2020-07-11T10:37:17Z</time>
      </trkpt>
      <trkpt lat="48.596797" lon="7.772964">
        <ele>188.0</ele>
        <time>2020-07-11T10:37:19Z</time>
      </trkpt>
      <trkpt lat="48.596741" lon="7.773051">
        <ele>189.0</ele>
        <time>2020-07-11T10:37:21Z</time>
      </trkpt>
      <trkpt lat="48.596687" lon="7.773137">
        <ele>190.0</ele>
        <time>2020-07-11T10:37:23Z</time>
      </trkpt>
      <trkpt lat="48.596639" lon="7.773211">
        <ele>190.0</ele>
        <time>2020-07-11T10:37:25Z</time>
      </trkpt>
      <trkpt lat="48.596597" lon="7.773289">
        <ele>190.0</ele>
        <time>2020-07-11T10:37:27Z</time>
      </trkpt>
      <trkpt lat="48.596551" lon="7.773363">
        <ele>190.0</ele>
        <time>2020-07-11T10:37:29Z</time>
      </trkpt>
      <trkpt lat="48.596477" lon="7.773468">
        <ele>190.0</ele>
        <time>2020-07-11T10:37:32Z</time>
      </trkpt>
      <trkpt lat="48.596432" lon="7.773532">
        <ele>189.0</ele>
        <time>2020-07-11T10:37:34Z</time>
      </trkpt>
      <trkpt lat="48.596383" lon="7.773599">
        <ele>189.0</ele>
        <time>2020-07-11T10:37:36Z</time>
      </trkpt>
      <trkpt lat="48.596337" lon="7.773674">
        <ele>190.0</ele>
        <time>2020-07-11T10:37:38Z</time>
      </trkpt>
      <trkpt lat="48.596293" lon="7.77376">
        <ele>191.0</ele>
        <time>2020-07-11T10:37:40Z</time>
      </trkpt>
      <trkpt lat="48.596236" lon="7.773845">
        <ele>191.0</ele>
        <time>2020-07-11T10:37:42Z</time>
      </trkpt>
      <trkpt lat="48.59618" lon="7.773929">
        <ele>191.0</ele>
        <time>2020-07-11T10:37:44Z</time>
      </trkpt>
      <trkpt lat="48.596136" lon="7.774019">
        <ele>191.0</ele>
        <time>2020-07-11T10:37:46Z</time>
      </trkpt>
      <trkpt lat="48.596081" lon="7.774092">
        <ele>191.0</ele>
        <time>2020-07-11T10:37:48Z</time>
      </trkpt>
      <trkpt lat="48.596038" lon="7.774148">
        <ele>190.0</ele>
        <time>2020-07-11T10:37:50Z</time>
      </trkpt>
      <trkpt lat="48.596003" lon="7.774199">
        <ele>191.0</ele>
        <time>2020-07-11T10:37:52Z</time>
      </trkpt>
      <trkpt lat="48.595977" lon="7.77426">
        <ele>191.0</ele>
        <time>2020-07-11T10:37:54Z</time>
      </trkpt>
      <trkpt lat="48.595951" lon="7.774329">
        <ele>191.0</ele>
        <time>2020-07-11T10:37:56Z</time>
      </trkpt>
      <trkpt lat="48.59592" lon="7.7744">
        <ele>191.0</ele>
        <time>2020-07-11T10:37:58Z</time>
      </trkpt>
      <trkpt lat="48.595876" lon="7.774452">
        <ele>191.0</ele>
        <time>2020-07-11T10:38:00Z</time>
      </trkpt>
      <trkpt lat="48.595826" lon="7.77448">
        <ele>190.0</ele>
        <time>2020-07-11T10:38:02Z</time>
      </trkpt>
      <trkpt lat="48.595782" lon="7.774434">
        <ele>190.0</ele>
        <time>2020-07-11T10:38:04Z</time>
      </trkpt>
      <trkpt lat="48.59574" lon="7.774386">
        <ele>191.0</ele>
        <time>2020-07-11T10:38:06Z</time>
      </trkpt>
      <trkpt lat="48.595701" lon="7.774329">
        <ele>191.0</ele>
        <time>2020-07-11T10:38:08Z</time>
      </trkpt>
      <trkpt lat="48.595662" lon="7.774275">
        <ele>191.0</ele>
        <time>2020-07-11T10:38:10Z</time>
      </trkpt>
      <trkpt lat="48.595621" lon="7.774225">
        <ele>191.0</ele>
        <time>2020-07-11T10:38:12Z</time>
      </trkpt>
      <trkpt lat="48.595577" lon="7.77416">
        <ele>191.0</ele>
        <time>2020-07-11T10:38:14Z</time>
      </trkpt>
      <trkpt lat="48.595522" lon="7.774081">
        <ele>191.0</ele>
        <time>2020-07-11T10:38:16Z</time>
      </trkpt>
      <trkpt lat="48.595478" lon="7.773996">
        <ele>192.0</ele>
        <time>2020-07-11T10:38:18Z</time>
      </trkpt>
      <trkpt lat="48.595416" lon="7.773895">
        <ele>192.0</ele>
        <time>2020-07-11T10:38:20Z</time>
      </trkpt>
      <trkpt lat="48.595361" lon="7.773799">
        <ele>192.0</ele>
        <time>2020-07-11T10:38:22Z</time>
      </trkpt>
      <trkpt lat="48.595295" lon="7.773695">
        <ele>192.0</ele>
        <time>2020-07-11T10:38:24Z</time>
      </trkpt>
      <trkpt lat="48.595226" lon="7.77359">
        <ele>192.0</ele>
        <time>2020-07-11T10:38:26Z</time>
      </trkpt>
      <trkpt lat="48.595157" lon="7.773471">
        <ele>192.0</ele>
        <time>2020-07-11T10:38:28Z</time>
      </trkpt>
      <trkpt lat="48.595087" lon="7.773377">
        <ele>192.0</ele>
        <time>2020-07-11T10:38:30Z</time>
      </trkpt>
      <trkpt lat="48.59502" lon="7.773283">
        <ele>189.0</ele>
        <time>2020-07-11T10:38:32Z</time>
      </trkpt>
      <trkpt lat="48.594943" lon="7.773189">
        <ele>188.0</ele>
        <time>2020-07-11T10:38:34Z</time>
      </trkpt>
      <trkpt lat="48.594868" lon="7.773105">
        <ele>187.0</ele>
        <time>2020-07-11T10:38:36Z</time>
      </trkpt>
      <trkpt lat="48.594803" lon="7.773011">
        <ele>187.0</ele>
        <time>2020-07-11T10:38:38Z</time>
      </trkpt>
      <trkpt lat="48.59474" lon="7.77291">
        <ele>186.0</ele>
        <time>2020-07-11T10:38:40Z</time>
      </trkpt>
      <trkpt lat="48.594672" lon="7.772809">
        <ele>186.0</ele>
        <time>2020-07-11T10:38:42Z</time>
      </trkpt>
      <trkpt lat="48.594595" lon="7.772709">
        <ele>186.0</ele>
        <time>2020-07-11T10:38:44Z</time>
      </trkpt>
      <trkpt lat="48.59452" lon="7.772596">
        <ele>186.0</ele>
        <time>2020-07-11T10:38:46Z</time>
      </trkpt>
      <trkpt lat="48.594452" lon="7.772488">
        <ele>185.0</ele>
        <time>2020-07-11T10:38:48Z</time>
      </trkpt>
      <trkpt lat="48.594372" lon="7.772377">
        <ele>185.0</ele>
        <time>2020-07-11T10:38:50Z</time>
      </trkpt>
      <trkpt lat="48.594302" lon="7.772271">
        <ele>185.0</ele>
        <time>2020-07-11T10:38:52Z</time>
      </trkpt>
      <trkpt lat="48.594222" lon="7.772164">
        <ele>183.0</ele>
        <time>2020-07-11T10:38:54Z</time>
      </trkpt>
      <trkpt lat="48.594167" lon="7.772085">
        <ele>182.0</ele>
        <time>2020-07-11T10:38:56Z</time>
      </trkpt>
      <trkpt lat="48.594104" lon="7.771991">
        <ele>182.0</ele>
        <time>2020-07-11T10:38:58Z</time>
      </trkpt>
      <trkpt lat="48.594021" lon="7.771892">
        <ele>180.0</ele>
        <time>2020-07-11T10:39:00Z</time>
      </trkpt>
      <trkpt lat="48.593952" lon="7.771787">
        <ele>180.0</ele>
        <time>2020-07-11T10:39:02Z</time>
      </trkpt>
      <trkpt lat="48.593882" lon="7.771677">
        <ele>181.0</ele>
        <time>2020-07-11T10:39:04Z</time>
      </trkpt>
      <trkpt lat="48.593807" lon="7.771564">
        <ele>181.0</ele>
        <time>2020-07-11T10:39:06Z</time>
      </trkpt>
      <trkpt lat="48.593735" lon="7.771463">
        <ele>182.0</ele>
        <time>2020-07-11T10:39:08Z</time>
      </trkpt>
      <trkpt lat="48.593663" lon="7.771367">
        <ele>181.0</ele>
        <time>2020-07-11T10:39:10Z</time>
      </trkpt>
      <trkpt lat="48.593587" lon="7.771282">
        <ele>181.0</ele>
        <time>2020-07-11T10:39:12Z</time>
      </trkpt>
      <trkpt lat="48.593524" lon="7.771193">
        <ele>181.0</ele>
        <time>2020-07-11T10:39:14Z</time>
      </trkpt>
      <trkpt lat="48.593453" lon="7.771098">
        <ele>182.0</ele>
        <time>2020-07-11T10:39:16Z</time>
      </trkpt>
      <trkpt lat="48.593384" lon="7.771">
        <ele>182.0</ele>
        <time>2020-07-11T10:39:18Z</time>
      </trkpt>
      <trkpt lat="48.593327" lon="7.770914">
        <ele>182.0</ele>
        <time>2020-07-11T10:39:20Z</time>
      </trkpt>
      <trkpt lat="48.593263" lon="7.770815">
        <ele>182.0</ele>
        <time>2020-07-11T10:39:22Z</time>
      </trkpt>
      <trkpt lat="48.593196" lon="7.770733">
        <ele>182.0</ele>
        <time>2020-07-11T10:39:24Z</time>
      </trkpt>
      <trkpt lat="48.593126" lon="7.770647">
        <ele>182.0</ele>
        <time>2020-07-11T10:39:26Z</time>
      </trkpt>
      <trkpt lat="48.593051" lon="7.770572">
        <ele>183.0</ele>
        <time>2020-07-11T10:39:28Z</time>
      </trkpt>
      <trkpt lat="48.592977" lon="7.770492">
        <ele>182.0</ele>
        <time>2020-07-11T10:39:30Z</time>
      </trkpt>
      <trkpt lat="48.592919" lon="7.770395">
        <ele>181.0</ele>
        <time>2020-07-11T10:39:32Z</time>
      </trkpt>
      <trkpt lat="48.592847" lon="7.770302">
        <ele>182.0</ele>
        <time>2020-07-11T10:39:34Z</time>
      </trkpt>
      <trkpt lat="48.592785" lon="7.770229">
        <ele>182.0</ele>
        <time>2020-07-11T10:39:36Z</time>
      </trkpt>
      <trkpt lat="48.592736" lon="7.770142">
        <ele>182.0</ele>
        <time>2020-07-11T10:39:38Z</time>
      </trkpt>
      <trkpt lat="48.592669" lon="7.770052">
        <ele>182.0</ele>
        <time>2020-07-11T10:39:40Z</time>
      </trkpt>
      <trkpt lat="48.592601" lon="7.769983">
        <ele>182.0</ele>
        <time>2020-07-11T10:39:42Z</time>
      </trkpt>
      <trkpt lat="48.592542" lon="7.769909">
        <ele>182.0</ele>
        <time>2020-07-11T10:39:44Z</time>
      </trkpt>
      <trkpt lat="48.59248" lon="7.769826">
        <ele>182.0</ele>
        <time>2020-07-11T10:39:46Z</time>
      </trkpt>
      <trkpt lat="48.592409" lon="7.769746">
        <ele>182.0</ele>
        <time>2020-07-11T10:39:48Z</time>
      </trkpt>
      <trkpt lat="48.592331" lon="7.769675">
        <ele>182.0</ele>
        <time>2020-07-11T10:39:50Z</time>
      </trkpt>
      <trkpt lat="48.592249" lon="7.769593">
        <ele>181.0</ele>
        <time>2020-07-11T10:39:52Z</time>
      </trkpt>
      <trkpt lat="48.592187" lon="7.769518">
        <ele>182.0</ele>
        <time>2020-07-11T10:39:54Z</time>
      </trkpt>
      <trkpt lat="48.592124" lon="7.769466">
        <ele>182.0</ele>
        <time>2020-07-11T10:39:56Z</time>
      </trkpt>
      <trkpt lat="48.59205" lon="7.769468">
        <ele>183.0</ele>
        <time>2020-07-11T10:39:58Z</time>
      </trkpt>
      <trkpt lat="48.59199" lon="7.769473">
        <ele>183.0</ele>
        <time>2020-07-11T10:40:00Z</time>
      </trkpt>
      <trkpt lat="48.591936" lon="7.769464">
        <ele>183.0</ele>
        <time>2020-07-11T10:40:02Z</time>
      </trkpt>
      <trkpt lat="48.591884" lon="7.769422">
        <ele>183.0</ele>
        <time>2020-07-11T10:40:04Z</time>
      </trkpt>
      <trkpt lat="48.591814" lon="7.769363">
        <ele>183.0</ele>
        <time>2020-07-11T10:40:06Z</time>
      </trkpt>
      <trkpt lat="48.591741" lon="7.769312">
        <ele>184.0</ele>
        <time>2020-07-11T10:40:08Z</time>
      </trkpt>
      <trkpt lat="48.591654" lon="7.769235">
        <ele>185.0</ele>
        <time>2020-07-11T10:40:10Z</time>
      </trkpt>
      <trkpt lat="48.591537" lon="7.769105">
        <ele>184.0</ele>
        <time>2020-07-11T10:40:13Z</time>
      </trkpt>
      <trkpt lat="48.591494" lon="7.769065">
        <ele>184.0</ele>
        <time>2020-07-11T10:40:14Z</time>
      </trkpt>
      <trkpt lat="48.591411" lon="7.768986">
        <ele>185.0</ele>
        <time>2020-07-11T10:40:16Z</time>
      </trkpt>
      <trkpt lat="48.591286" lon="7.768871">
        <ele>184.0</ele>
        <time>2020-07-11T10:40:19Z</time>
      </trkpt>
      <trkpt lat="48.591189" lon="7.768777">
        <ele>185.0</ele>
        <time>2020-07-11T10:40:21Z</time>
      </trkpt>
      <trkpt lat="48.591106" lon="7.768674">
        <ele>185.0</ele>
        <time>2020-07-11T10:40:23Z</time>
      </trkpt>
      <trkpt lat="48.591027" lon="7.768582">
        <ele>185.0</ele>
        <time>2020-07-11T10:40:25Z</time>
      </trkpt>
      <trkpt lat="48.590954" lon="7.768496">
        <ele>184.0</ele>
        <time>2020-07-11T10:40:27Z</time>
      </trkpt>
      <trkpt lat="48.590873" lon="7.768406">
        <ele>184.0</ele>
        <time>2020-07-11T10:40:29Z</time>
      </trkpt>
      <trkpt lat="48.590795" lon="7.768312">
        <ele>184.0</ele>
        <time>2020-07-11T10:40:31Z</time>
      </trkpt>
      <trkpt lat="48.590721" lon="7.768224">
        <ele>184.0</ele>
        <time>2020-07-11T10:40:33Z</time>
      </trkpt>
      <trkpt lat="48.590642" lon="7.768133">
        <ele>185.0</ele>
        <time>2020-07-11T10:40:35Z</time>
      </trkpt>
      <trkpt lat="48.590544" lon="7.768034">
        <ele>185.0</ele>
        <time>2020-07-11T10:40:37Z</time>
      </trkpt>
      <trkpt lat="48.590456" lon="7.767934">
        <ele>185.0</ele>
        <time>2020-07-11T10:40:39Z</time>
      </trkpt>
      <trkpt lat="48.590374" lon="7.767858">
        <ele>185.0</ele>
        <time>2020-07-11T10:40:41Z</time>
      </trkpt>
      <trkpt lat="48.590284" lon="7.76775">
        <ele>184.0</ele>
        <time>2020-07-11T10:40:43Z</time>
      </trkpt>
      <trkpt lat="48.590207" lon="7.767667">
        <ele>184.0</ele>
        <time>2020-07-11T10:40:45Z</time>
      </trkpt>
      <trkpt lat="48.590139" lon="7.767585">
        <ele>185.0</ele>
        <time>2020-07-11T10:40:47Z</time>
      </trkpt>
      <trkpt lat="48.590071" lon="7.767508">
        <ele>185.0</ele>
        <time>2020-07-11T10:40:49Z</time>
      </trkpt>
      <trkpt lat="48.590005" lon="7.767429">
        <ele>185.0</ele>
        <time>2020-07-11T10:40:51Z</time>
      </trkpt>
      <trkpt lat="48.589953" lon="7.767363">
        <ele>186.0</ele>
        <time>2020-07-11T10:40:53Z</time>
      </trkpt>
      <trkpt lat="48.589919" lon="7.767328">
        <ele>186.0</ele>
        <time>2020-07-11T10:40:55Z</time>
      </trkpt>
      <trkpt lat="48.589912" lon="7.767313">
        <ele>186.0</ele>
        <time>2020-07-11T10:40:57Z</time>
      </trkpt>
      <trkpt lat="48.589907" lon="7.767308">
        <ele>185.0</ele>
        <time>2020-07-11T10:40:59Z</time>
      </trkpt>
      <trkpt lat="48.589907" lon="7.767308">
        <ele>185.0</ele>
        <time>2020-07-11T10:41:01Z</time>
      </trkpt>
      <trkpt lat="48.589907" lon="7.767308">
        <ele>185.0</ele>
        <time>2020-07-11T10:41:03Z</time>
      </trkpt>
      <trkpt lat="48.589907" lon="7.767308">
        <ele>185.0</ele>
        <time>2020-07-11T10:41:09Z</time>
      </trkpt>
      <trkpt lat="48.589907" lon="7.767308">
        <ele>185.0</ele>
        <time>2020-07-11T10:41:11Z</time>
      </trkpt>
      <trkpt lat="48.589907" lon="7.767308">
        <ele>185.0</ele>
        <time>2020-07-11T10:41:13Z</time>
      </trkpt>
      <trkpt lat="48.589907" lon="7.767308">
        <ele>185.0</ele>
        <time>2020-07-11T10:41:15Z</time>
      </trkpt>
      <trkpt lat="48.589907" lon="7.767308">
        <ele>185.0</ele>
        <time>2020-07-11T10:41:17Z</time>
      </trkpt>
      <trkpt lat="48.589907" lon="7.767308">
        <ele>185.0</ele>
        <time>2020-07-11T10:41:19Z</time>
      </trkpt>
      <trkpt lat="48.589907" lon="7.767308">
        <ele>185.0</ele>
        <time>2020-07-11T10:41:21Z</time>
      </trkpt>
      <trkpt lat="48.589907" lon="7.767308">
        <ele>185.0</ele>
        <time>2020-07-11T10:41:23Z</time>
      </trkpt>
      <trkpt lat="48.589907" lon="7.767308">
        <ele>185.0</ele>
        <time>2020-07-11T10:41:25Z</time>
      </trkpt>
      <trkpt lat="48.589907" lon="7.767308">
        <ele>185.0</ele>
        <time>2020-07-11T10:41:27Z</time>
      </trkpt>
      <trkpt lat="48.589907" lon="7.767308">
        <ele>185.0</ele>
        <time>2020-07-11T10:41:29Z</time>
      </trkpt>
      <trkpt lat="48.589907" lon="7.767308">
        <ele>185.0</ele>
        <time>2020-07-11T10:41:31Z</time>
      </trkpt>
      <trkpt lat="48.589881" lon="7.76729">
        <ele>185.0</ele>
        <time>2020-07-11T10:41:33Z</time>
      </trkpt>
      <trkpt lat="48.589833" lon="7.767247">
        <ele>185.0</ele>
        <time>2020-07-11T10:41:35Z</time>
      </trkpt>
      <trkpt lat="48.589785" lon="7.767211">
        <ele>185.0</ele>
        <time>2020-07-11T10:41:37Z</time>
      </trkpt>
      <trkpt lat="48.589744" lon="7.767198">
        <ele>185.0</ele>
        <time>2020-07-11T10:41:39Z</time>
      </trkpt>
      <trkpt lat="48.589701" lon="7.767188">
        <ele>185.0</ele>
        <time>2020-07-11T10:41:41Z</time>
      </trkpt>
      <trkpt lat="48.589681" lon="7.767213">
        <ele>184.0</ele>
        <time>2020-07-11T10:41:43Z</time>
      </trkpt>
      <trkpt lat="48.589651" lon="7.767254">
        <ele>184.0</ele>
        <time>2020-07-11T10:41:45Z</time>
      </trkpt>
      <trkpt lat="48.5896" lon="7.767306">
        <ele>184.0</ele>
        <time>2020-07-11T10:41:47Z</time>
      </trkpt>
      <trkpt lat="48.589548" lon="7.767385">
        <ele>184.0</ele>
        <time>2020-07-11T10:41:49Z</time>
      </trkpt>
      <trkpt lat="48.589499" lon="7.767467">
        <ele>184.0</ele>
        <time>2020-07-11T10:41:51Z</time>
      </trkpt>
      <trkpt lat="48.589447" lon="7.76756">
        <ele>184.0</ele>
        <time>2020-07-11T10:41:53Z</time>
      </trkpt>
      <trkpt lat="48.589392" lon="7.767652">
        <ele>184.0</ele>
        <time>2020-07-11T10:41:55Z</time>
      </trkpt>
      <trkpt lat="48.589339" lon="7.767734">
        <ele>184.0</ele>
        <time>2020-07-11T10:41:57Z</time>
      </trkpt>
      <trkpt lat="48.589289" lon="7.767826">
        <ele>184.0</ele>
        <time>2020-07-11T10:41:59Z</time>
      </trkpt>
      <trkpt lat="48.58924" lon="7.767917">
        <ele>183.0</ele>
        <time>2020-07-11T10:42:01Z</time>
      </trkpt>
      <trkpt lat="48.589187" lon="7.767987">
        <ele>183.0</ele>
        <time>2020-07-11T10:42:03Z</time>
      </trkpt>
      <trkpt lat="48.58915" lon="7.768063">
        <ele>183.0</ele>
        <time>2020-07-11T10:42:05Z</time>
      </trkpt>
      <trkpt lat="48.58909" lon="7.768221">
        <ele>183.0</ele>
        <time>2020-07-11T10:42:07Z</time>
      </trkpt>
      <trkpt lat="48.589035" lon="7.768361">
        <ele>183.0</ele>
        <time>2020-07-11T10:42:09Z</time>
      </trkpt>
      <trkpt lat="48.588992" lon="7.768445">
        <ele>183.0</ele>
        <time>2020-07-11T10:42:11Z</time>
      </trkpt>
      <trkpt lat="48.588939" lon="7.768561">
        <ele>183.0</ele>
        <time>2020-07-11T10:42:13Z</time>
      </trkpt>
      <trkpt lat="48.588899" lon="7.768669">
        <ele>182.0</ele>
        <time>2020-07-11T10:42:15Z</time>
      </trkpt>
      <trkpt lat="48.588852" lon="7.768775">
        <ele>181.0</ele>
        <time>2020-07-11T10:42:17Z</time>
      </trkpt>
      <trkpt lat="48.58881" lon="7.768872">
        <ele>182.0</ele>
        <time>2020-07-11T10:42:19Z</time>
      </trkpt>
      <trkpt lat="48.588756" lon="7.768954">
        <ele>182.0</ele>
        <time>2020-07-11T10:42:21Z</time>
      </trkpt>
      <trkpt lat="48.588694" lon="7.769064">
        <ele>182.0</ele>
        <time>2020-07-11T10:42:23Z</time>
      </trkpt>
      <trkpt lat="48.588647" lon="7.769198">
        <ele>183.0</ele>
        <time>2020-07-11T10:42:25Z</time>
      </trkpt>
      <trkpt lat="48.588582" lon="7.76931">
        <ele>182.0</ele>
        <time>2020-07-11T10:42:27Z</time>
      </trkpt>
      <trkpt lat="48.588513" lon="7.76941">
        <ele>183.0</ele>
        <time>2020-07-11T10:42:29Z</time>
      </trkpt>
      <trkpt lat="48.588458" lon="7.76951">
        <ele>183.0</ele>
        <time>2020-07-11T10:42:31Z</time>
      </trkpt>
      <trkpt lat="48.588405" lon="7.769584">
        <ele>184.0</ele>
        <time>2020-07-11T10:42:33Z</time>
      </trkpt>
      <trkpt lat="48.588362" lon="7.769638">
        <ele>184.0</ele>
        <time>2020-07-11T10:42:35Z</time>
      </trkpt>
      <trkpt lat="48.588315" lon="7.76967">
        <ele>184.0</ele>
        <time>2020-07-11T10:42:37Z</time>
      </trkpt>
      <trkpt lat="48.588272" lon="7.769727">
        <ele>184.0</ele>
        <time>2020-07-11T10:42:39Z</time>
      </trkpt>
      <trkpt lat="48.588216" lon="7.769737">
        <ele>185.0</ele>
        <time>2020-07-11T10:42:41Z</time>
      </trkpt>
      <trkpt lat="48.588149" lon="7.769713">
        <ele>184.0</ele>
        <time>2020-07-11T10:42:43Z</time>
      </trkpt>
      <trkpt lat="48.588081" lon="7.769685">
        <ele>184.0</ele>
        <time>2020-07-11T10:42:45Z</time>
      </trkpt>
      <trkpt lat="48.588023" lon="7.769668">
        <ele>185.0</ele>
        <time>2020-07-11T10:42:47Z</time>
      </trkpt>
      <trkpt lat="48.587952" lon="7.769652">
        <ele>185.0</ele>
        <time>2020-07-11T10:42:49Z</time>
      </trkpt>
      <trkpt lat="48.587856" lon="7.76962">
        <ele>185.0</ele>
        <time>2020-07-11T10:42:51Z</time>
      </trkpt>
      <trkpt lat="48.587779" lon="7.769618">
        <ele>185.0</ele>
        <time>2020-07-11T10:42:53Z</time>
      </trkpt>
      <trkpt lat="48.587707" lon="7.769597">
        <ele>185.0</ele>
        <time>2020-07-11T10:42:55Z</time>
      </trkpt>
      <trkpt lat="48.587654" lon="7.769582">
        <ele>185.0</ele>
        <time>2020-07-11T10:42:57Z</time>
      </trkpt>
      <trkpt lat="48.587603" lon="7.769614">
        <ele>186.0</ele>
        <time>2020-07-11T10:43:00Z</time>
      </trkpt>
      <trkpt lat="48.587539" lon="7.769693">
        <ele>186.0</ele>
        <time>2020-07-11T10:43:02Z</time>
      </trkpt>
      <trkpt lat="48.587515" lon="7.769741">
        <ele>186.0</ele>
        <time>2020-07-11T10:43:03Z</time>
      </trkpt>
      <trkpt lat="48.587449" lon="7.769831">
        <ele>186.0</ele>
        <time>2020-07-11T10:43:06Z</time>
      </trkpt>
      <trkpt lat="48.587398" lon="7.76989">
        <ele>186.0</ele>
        <time>2020-07-11T10:43:08Z</time>
      </trkpt>
      <trkpt lat="48.587329" lon="7.769968">
        <ele>185.0</ele>
        <time>2020-07-11T10:43:10Z</time>
      </trkpt>
      <trkpt lat="48.587265" lon="7.770022">
        <ele>186.0</ele>
        <time>2020-07-11T10:43:12Z</time>
      </trkpt>
      <trkpt lat="48.587209" lon="7.770066">
        <ele>186.0</ele>
        <time>2020-07-11T10:43:14Z</time>
      </trkpt>
      <trkpt lat="48.587168" lon="7.7701">
        <ele>186.0</ele>
        <time>2020-07-11T10:43:16Z</time>
      </trkpt>
      <trkpt lat="48.587129" lon="7.770121">
        <ele>186.0</ele>
        <time>2020-07-11T10:43:18Z</time>
      </trkpt>
      <trkpt lat="48.587087" lon="7.770145">
        <ele>185.0</ele>
        <time>2020-07-11T10:43:20Z</time>
      </trkpt>
      <trkpt lat="48.587037" lon="7.770185">
        <ele>185.0</ele>
        <time>2020-07-11T10:43:22Z</time>
      </trkpt>
      <trkpt lat="48.586993" lon="7.770227">
        <ele>185.0</ele>
        <time>2020-07-11T10:43:24Z</time>
      </trkpt>
      <trkpt lat="48.586933" lon="7.77027">
        <ele>185.0</ele>
        <time>2020-07-11T10:43:26Z</time>
      </trkpt>
      <trkpt lat="48.586863" lon="7.770306">
        <ele>184.0</ele>
        <time>2020-07-11T10:43:28Z</time>
      </trkpt>
      <trkpt lat="48.586798" lon="7.770378">
        <ele>184.0</ele>
        <time>2020-07-11T10:43:30Z</time>
      </trkpt>
      <trkpt lat="48.586721" lon="7.770459">
        <ele>183.0</ele>
        <time>2020-07-11T10:43:32Z</time>
      </trkpt>
      <trkpt lat="48.58661" lon="7.77056">
        <ele>182.0</ele>
        <time>2020-07-11T10:43:34Z</time>
      </trkpt>
      <trkpt lat="48.586507" lon="7.770655">
        <ele>180.0</ele>
        <time>2020-07-11T10:43:36Z</time>
      </trkpt>
      <trkpt lat="48.586408" lon="7.770747">
        <ele>178.0</ele>
        <time>2020-07-11T10:43:38Z</time>
      </trkpt>
      <trkpt lat="48.586316" lon="7.770843">
        <ele>178.0</ele>
        <time>2020-07-11T10:43:40Z</time>
      </trkpt>
      <trkpt lat="48.586227" lon="7.770963">
        <ele>178.0</ele>
        <time>2020-07-11T10:43:42Z</time>
      </trkpt>
      <trkpt lat="48.586158" lon="7.771121">
        <ele>179.0</ele>
        <time>2020-07-11T10:43:44Z</time>
      </trkpt>
      <trkpt lat="48.586094" lon="7.771244">
        <ele>180.0</ele>
        <time>2020-07-11T10:43:46Z</time>
      </trkpt>
      <trkpt lat="48.586031" lon="7.771349">
        <ele>181.0</ele>
        <time>2020-07-11T10:43:48Z</time>
      </trkpt>
      <trkpt lat="48.585967" lon="7.771469">
        <ele>183.0</ele>
        <time>2020-07-11T10:43:50Z</time>
      </trkpt>
      <trkpt lat="48.585888" lon="7.771589">
        <ele>183.0</ele>
        <time>2020-07-11T10:43:52Z</time>
      </trkpt>
      <trkpt lat="48.585825" lon="7.771695">
        <ele>184.0</ele>
        <time>2020-07-11T10:43:54Z</time>
      </trkpt>
      <trkpt lat="48.585764" lon="7.771804">
        <ele>182.0</ele>
        <time>2020-07-11T10:43:56Z</time>
      </trkpt>
      <trkpt lat="48.585697" lon="7.77189">
        <ele>182.0</ele>
        <time>2020-07-11T10:43:58Z</time>
      </trkpt>
      <trkpt lat="48.585642" lon="7.771989">
        <ele>182.0</ele>
        <time>2020-07-11T10:44:00Z</time>
      </trkpt>
      <trkpt lat="48.585583" lon="7.77209">
        <ele>181.0</ele>
        <time>2020-07-11T10:44:02Z</time>
      </trkpt>
      <trkpt lat="48.585525" lon="7.772157">
        <ele>181.0</ele>
        <time>2020-07-11T10:44:04Z</time>
      </trkpt>
      <trkpt lat="48.585465" lon="7.772221">
        <ele>182.0</ele>
        <time>2020-07-11T10:44:06Z</time>
      </trkpt>
      <trkpt lat="48.585424" lon="7.7723">
        <ele>182.0</ele>
        <time>2020-07-11T10:44:08Z</time>
      </trkpt>
      <trkpt lat="48.585398" lon="7.772339">
        <ele>182.0</ele>
        <time>2020-07-11T10:44:10Z</time>
      </trkpt>
      <trkpt lat="48.585366" lon="7.772412">
        <ele>181.0</ele>
        <time>2020-07-11T10:44:12Z</time>
      </trkpt>
      <trkpt lat="48.585325" lon="7.772486">
        <ele>181.0</ele>
        <time>2020-07-11T10:44:14Z</time>
      </trkpt>
      <trkpt lat="48.58527" lon="7.772564">
        <ele>182.0</ele>
        <time>2020-07-11T10:44:16Z</time>
      </trkpt>
      <trkpt lat="48.5852" lon="7.772647">
        <ele>182.0</ele>
        <time>2020-07-11T10:44:18Z</time>
      </trkpt>
      <trkpt lat="48.585131" lon="7.772725">
        <ele>182.0</ele>
        <time>2020-07-11T10:44:20Z</time>
      </trkpt>
      <trkpt lat="48.585076" lon="7.772824">
        <ele>184.0</ele>
        <time>2020-07-11T10:44:22Z</time>
      </trkpt>
      <trkpt lat="48.58502" lon="7.772929">
        <ele>184.0</ele>
        <time>2020-07-11T10:44:24Z</time>
      </trkpt>
      <trkpt lat="48.584967" lon="7.77303">
        <ele>183.0</ele>
        <time>2020-07-11T10:44:26Z</time>
      </trkpt>
      <trkpt lat="48.584907" lon="7.773114">
        <ele>182.0</ele>
        <time>2020-07-11T10:44:28Z</time>
      </trkpt>
      <trkpt lat="48.584843" lon="7.773184">
        <ele>182.0</ele>
        <time>2020-07-11T10:44:30Z</time>
      </trkpt>
      <trkpt lat="48.584772" lon="7.773264">
        <ele>182.0</ele>
        <time>2020-07-11T10:44:32Z</time>
      </trkpt>
      <trkpt lat="48.584713" lon="7.77334">
        <ele>181.0</ele>
        <time>2020-07-11T10:44:34Z</time>
      </trkpt>
      <trkpt lat="48.584657" lon="7.773426">
        <ele>181.0</ele>
        <time>2020-07-11T10:44:36Z</time>
      </trkpt>
      <trkpt lat="48.584587" lon="7.773489">
        <ele>181.0</ele>
        <time>2020-07-11T10:44:38Z</time>
      </trkpt>
      <trkpt lat="48.584531" lon="7.773547">
        <ele>181.0</ele>
        <time>2020-07-11T10:44:40Z</time>
      </trkpt>
      <trkpt lat="48.584506" lon="7.773617">
        <ele>182.0</ele>
        <time>2020-07-11T10:44:42Z</time>
      </trkpt>
      <trkpt lat="48.5845" lon="7.773705">
        <ele>182.0</ele>
        <time>2020-07-11T10:44:44Z</time>
      </trkpt>
      <trkpt lat="48.584474" lon="7.773791">
        <ele>182.0</ele>
        <time>2020-07-11T10:44:46Z</time>
      </trkpt>
      <trkpt lat="48.584445" lon="7.773846">
        <ele>182.0</ele>
        <time>2020-07-11T10:44:48Z</time>
      </trkpt>
      <trkpt lat="48.584419" lon="7.773872">
        <ele>183.0</ele>
        <time>2020-07-11T10:44:50Z</time>
      </trkpt>
      <trkpt lat="48.58438" lon="7.773898">
        <ele>183.0</ele>
        <time>2020-07-11T10:44:52Z</time>
      </trkpt>
      <trkpt lat="48.584333" lon="7.773915">
        <ele>184.0</ele>
        <time>2020-07-11T10:44:54Z</time>
      </trkpt>
      <trkpt lat="48.584301" lon="7.773975">
        <ele>185.0</ele>
        <time>2020-07-11T10:44:56Z</time>
      </trkpt>
      <trkpt lat="48.584266" lon="7.774057">
        <ele>185.0</ele>
        <time>2020-07-11T10:44:58Z</time>
      </trkpt>
      <trkpt lat="48.584237" lon="7.774133">
        <ele>186.0</ele>
        <time>2020-07-11T10:45:00Z</time>
      </trkpt>
      <trkpt lat="48.584193" lon="7.774224">
        <ele>186.0</ele>
        <time>2020-07-11T10:45:02Z</time>
      </trkpt>
      <trkpt lat="48.584138" lon="7.774313">
        <ele>186.0</ele>
        <time>2020-07-11T10:45:04Z</time>
      </trkpt>
      <trkpt lat="48.584091" lon="7.774395">
        <ele>186.0</ele>
        <time>2020-07-11T10:45:06Z</time>
      </trkpt>
      <trkpt lat="48.584038" lon="7.774463">
        <ele>186.0</ele>
        <time>2020-07-11T10:45:08Z</time>
      </trkpt>
      <trkpt lat="48.583977" lon="7.77456">
        <ele>186.0</ele>
        <time>2020-07-11T10:45:10Z</time>
      </trkpt>
      <trkpt lat="48.583928" lon="7.774646">
        <ele>186.0</ele>
        <time>2020-07-11T10:45:12Z</time>
      </trkpt>
      <trkpt lat="48.583877" lon="7.774723">
        <ele>186.0</ele>
        <time>2020-07-11T10:45:14Z</time>
      </trkpt>
      <trkpt lat="48.583812" lon="7.774804">
        <ele>185.0</ele>
        <time>2020-07-11T10:45:16Z</time>
      </trkpt>
      <trkpt lat="48.583743" lon="7.774898">
        <ele>184.0</ele>
        <time>2020-07-11T10:45:18Z</time>
      </trkpt>
      <trkpt lat="48.583681" lon="7.774968">
        <ele>184.0</ele>
        <time>2020-07-11T10:45:20Z</time>
      </trkpt>
      <trkpt lat="48.58361" lon="7.77507">
        <ele>184.0</ele>
        <time>2020-07-11T10:45:22Z</time>
      </trkpt>
      <trkpt lat="48.583565" lon="7.775187">
        <ele>183.0</ele>
        <time>2020-07-11T10:45:24Z</time>
      </trkpt>
      <trkpt lat="48.583515" lon="7.77534">
        <ele>183.0</ele>
        <time>2020-07-11T10:45:26Z</time>
      </trkpt>
      <trkpt lat="48.583455" lon="7.775471">
        <ele>182.0</ele>
        <time>2020-07-11T10:45:28Z</time>
      </trkpt>
      <trkpt lat="48.583409" lon="7.775604">
        <ele>182.0</ele>
        <time>2020-07-11T10:45:30Z</time>
      </trkpt>
      <trkpt lat="48.583356" lon="7.775715">
        <ele>182.0</ele>
        <time>2020-07-11T10:45:32Z</time>
      </trkpt>
      <trkpt lat="48.583297" lon="7.775834">
        <ele>183.0</ele>
        <time>2020-07-11T10:45:34Z</time>
      </trkpt>
      <trkpt lat="48.583229" lon="7.775952">
        <ele>184.0</ele>
        <time>2020-07-11T10:45:36Z</time>
      </trkpt>
      <trkpt lat="48.583163" lon="7.776075">
        <ele>184.0</ele>
        <time>2020-07-11T10:45:38Z</time>
      </trkpt>
      <trkpt lat="48.583129" lon="7.776171">
        <ele>184.0</ele>
        <time>2020-07-11T10:45:40Z</time>
      </trkpt>
      <trkpt lat="48.583074" lon="7.776323">
        <ele>186.0</ele>
        <time>2020-07-11T10:45:42Z</time>
      </trkpt>
      <trkpt lat="48.583015" lon="7.776426">
        <ele>187.0</ele>
        <time>2020-07-11T10:45:44Z</time>
      </trkpt>
      <trkpt lat="48.582974" lon="7.776524">
        <ele>188.0</ele>
        <time>2020-07-11T10:45:46Z</time>
      </trkpt>
      <trkpt lat="48.582936" lon="7.776606">
        <ele>188.0</ele>
        <time>2020-07-11T10:45:48Z</time>
      </trkpt>
      <trkpt lat="48.58288" lon="7.776698">
        <ele>189.0</ele>
        <time>2020-07-11T10:45:50Z</time>
      </trkpt>
      <trkpt lat="48.582819" lon="7.776783">
        <ele>189.0</ele>
        <time>2020-07-11T10:45:52Z</time>
      </trkpt>
      <trkpt lat="48.582766" lon="7.776878">
        <ele>189.0</ele>
        <time>2020-07-11T10:45:54Z</time>
      </trkpt>
      <trkpt lat="48.582719" lon="7.776961">
        <ele>190.0</ele>
        <time>2020-07-11T10:45:56Z</time>
      </trkpt>
      <trkpt lat="48.582674" lon="7.777042">
        <ele>190.0</ele>
        <time>2020-07-11T10:45:58Z</time>
      </trkpt>
      <trkpt lat="48.582638" lon="7.777118">
        <ele>189.0</ele>
        <time>2020-07-11T10:46:00Z</time>
      </trkpt>
      <trkpt lat="48.582593" lon="7.777226">
        <ele>189.0</ele>
        <time>2020-07-11T10:46:02Z</time>
      </trkpt>
      <trkpt lat="48.582557" lon="7.777354">
        <ele>189.0</ele>
        <time>2020-07-11T10:46:04Z</time>
      </trkpt>
      <trkpt lat="48.582502" lon="7.777478">
        <ele>190.0</ele>
        <time>2020-07-11T10:46:06Z</time>
      </trkpt>
      <trkpt lat="48.582436" lon="7.777594">
        <ele>190.0</ele>
        <time>2020-07-11T10:46:08Z</time>
      </trkpt>
      <trkpt lat="48.582371" lon="7.777702">
        <ele>188.0</ele>
        <time>2020-07-11T10:46:10Z</time>
      </trkpt>
      <trkpt lat="48.582275" lon="7.777867">
        <ele>189.0</ele>
        <time>2020-07-11T10:46:13Z</time>
      </trkpt>
      <trkpt lat="48.58221" lon="7.777967">
        <ele>189.0</ele>
        <time>2020-07-11T10:46:15Z</time>
      </trkpt>
      <trkpt lat="48.582161" lon="7.778074">
        <ele>189.0</ele>
        <time>2020-07-11T10:46:17Z</time>
      </trkpt>
      <trkpt lat="48.582096" lon="7.778196">
        <ele>188.0</ele>
        <time>2020-07-11T10:46:19Z</time>
      </trkpt>
      <trkpt lat="48.58203" lon="7.778308">
        <ele>187.0</ele>
        <time>2020-07-11T10:46:21Z</time>
      </trkpt>
      <trkpt lat="48.581973" lon="7.778417">
        <ele>186.0</ele>
        <time>2020-07-11T10:46:23Z</time>
      </trkpt>
      <trkpt lat="48.58191" lon="7.778522">
        <ele>187.0</ele>
        <time>2020-07-11T10:46:25Z</time>
      </trkpt>
      <trkpt lat="48.581862" lon="7.778617">
        <ele>187.0</ele>
        <time>2020-07-11T10:46:27Z</time>
      </trkpt>
      <trkpt lat="48.581836" lon="7.778718">
        <ele>186.0</ele>
        <time>2020-07-11T10:46:29Z</time>
      </trkpt>
      <trkpt lat="48.5818" lon="7.778816">
        <ele>187.0</ele>
        <time>2020-07-11T10:46:31Z</time>
      </trkpt>
      <trkpt lat="48.581756" lon="7.778902">
        <ele>186.0</ele>
        <time>2020-07-11T10:46:33Z</time>
      </trkpt>
      <trkpt lat="48.581703" lon="7.778984">
        <ele>187.0</ele>
        <time>2020-07-11T10:46:35Z</time>
      </trkpt>
      <trkpt lat="48.581619" lon="7.779013">
        <ele>186.0</ele>
        <time>2020-07-11T10:46:37Z</time>
      </trkpt>
      <trkpt lat="48.581517" lon="7.779036">
        <ele>186.0</ele>
        <time>2020-07-11T10:46:39Z</time>
      </trkpt>
      <trkpt lat="48.581437" lon="7.779061">
        <ele>186.0</ele>
        <time>2020-07-11T10:46:41Z</time>
      </trkpt>
      <trkpt lat="48.581374" lon="7.779084">
        <ele>186.0</ele>
        <time>2020-07-11T10:46:43Z</time>
      </trkpt>
      <trkpt lat="48.581311" lon="7.7791">
        <ele>186.0</ele>
        <time>2020-07-11T10:46:45Z</time>
      </trkpt>
      <trkpt lat="48.581242" lon="7.779116">
        <ele>186.0</ele>
        <time>2020-07-11T10:46:47Z</time>
      </trkpt>
      <trkpt lat="48.581163" lon="7.77913">
        <ele>187.0</ele>
        <time>2020-07-11T10:46:49Z</time>
      </trkpt>
      <trkpt lat="48.581101" lon="7.779151">
        <ele>187.0</ele>
        <time>2020-07-11T10:46:51Z</time>
      </trkpt>
      <trkpt lat="48.581045" lon="7.779172">
        <ele>187.0</ele>
        <time>2020-07-11T10:46:53Z</time>
      </trkpt>
      <trkpt lat="48.580994" lon="7.779193">
        <ele>187.0</ele>
        <time>2020-07-11T10:46:55Z</time>
      </trkpt>
      <trkpt lat="48.580957" lon="7.779209">
        <ele>187.0</ele>
        <time>2020-07-11T10:46:57Z</time>
      </trkpt>
      <trkpt lat="48.580939" lon="7.779216">
        <ele>188.0</ele>
        <time>2020-07-11T10:46:59Z</time>
      </trkpt>
      <trkpt lat="48.580922" lon="7.779221">
        <ele>188.0</ele>
        <time>2020-07-11T10:47:01Z</time>
      </trkpt>
      <trkpt lat="48.580907" lon="7.779224">
        <ele>187.0</ele>
        <time>2020-07-11T10:47:03Z</time>
      </trkpt>
      <trkpt lat="48.580898" lon="7.779249">
        <ele>187.0</ele>
        <time>2020-07-11T10:47:05Z</time>
      </trkpt>
      <trkpt lat="48.580883" lon="7.779282">
        <ele>187.0</ele>
        <time>2020-07-11T10:47:07Z</time>
      </trkpt>
      <trkpt lat="48.580876" lon="7.779343">
        <ele>188.0</ele>
        <time>2020-07-11T10:47:09Z</time>
      </trkpt>
      <trkpt lat="48.580817" lon="7.77939">
        <ele>187.0</ele>
        <time>2020-07-11T10:47:11Z</time>
      </trkpt>
      <trkpt lat="48.580748" lon="7.779404">
        <ele>187.0</ele>
        <time>2020-07-11T10:47:13Z</time>
      </trkpt>
      <trkpt lat="48.580663" lon="7.779413">
        <ele>187.0</ele>
        <time>2020-07-11T10:47:15Z</time>
      </trkpt>
      <trkpt lat="48.580581" lon="7.779438">
        <ele>187.0</ele>
        <time>2020-07-11T10:47:17Z</time>
      </trkpt>
      <trkpt lat="48.580506" lon="7.779481">
        <ele>188.0</ele>
        <time>2020-07-11T10:47:19Z</time>
      </trkpt>
      <trkpt lat="48.580437" lon="7.779548">
        <ele>188.0</ele>
        <time>2020-07-11T10:47:21Z</time>
      </trkpt>
      <trkpt lat="48.580381" lon="7.779634">
        <ele>189.0</ele>
        <time>2020-07-11T10:47:23Z</time>
      </trkpt>
      <trkpt lat="48.580332" lon="7.779713">
        <ele>189.0</ele>
        <time>2020-07-11T10:47:25Z</time>
      </trkpt>
      <trkpt lat="48.580287" lon="7.779796">
        <ele>189.0</ele>
        <time>2020-07-11T10:47:27Z</time>
      </trkpt>
      <trkpt lat="48.580241" lon="7.779872">
        <ele>189.0</ele>
        <time>2020-07-11T10:47:29Z</time>
      </trkpt>
      <trkpt lat="48.580192" lon="7.779948">
        <ele>189.0</ele>
        <time>2020-07-11T10:47:31Z</time>
      </trkpt>
      <trkpt lat="48.580148" lon="7.780046">
        <ele>188.0</ele>
        <time>2020-07-11T10:47:33Z</time>
      </trkpt>
      <trkpt lat="48.580101" lon="7.78013">
        <ele>189.0</ele>
        <time>2020-07-11T10:47:35Z</time>
      </trkpt>
      <trkpt lat="48.580055" lon="7.780216">
        <ele>189.0</ele>
        <time>2020-07-11T10:47:37Z</time>
      </trkpt>
      <trkpt lat="48.580012" lon="7.780301">
        <ele>189.0</ele>
        <time>2020-07-11T10:47:39Z</time>
      </trkpt>
      <trkpt lat="48.57997" lon="7.780385">
        <ele>190.0</ele>
        <time>2020-07-11T10:47:41Z</time>
      </trkpt>
      <trkpt lat="48.579923" lon="7.780469">
        <ele>190.0</ele>
        <time>2020-07-11T10:47:43Z</time>
      </trkpt>
      <trkpt lat="48.579864" lon="7.78056">
        <ele>191.0</ele>
        <time>2020-07-11T10:47:45Z</time>
      </trkpt>
      <trkpt lat="48.579819" lon="7.780647">
        <ele>192.0</ele>
        <time>2020-07-11T10:47:47Z</time>
      </trkpt>
      <trkpt lat="48.579776" lon="7.780739">
        <ele>193.0</ele>
        <time>2020-07-11T10:47:49Z</time>
      </trkpt>
      <trkpt lat="48.579735" lon="7.78082">
        <ele>193.0</ele>
        <time>2020-07-11T10:47:51Z</time>
      </trkpt>
      <trkpt lat="48.579697" lon="7.780893">
        <ele>193.0</ele>
        <time>2020-07-11T10:47:53Z</time>
      </trkpt>
      <trkpt lat="48.579658" lon="7.780964">
        <ele>193.0</ele>
        <time>2020-07-11T10:47:55Z</time>
      </trkpt>
      <trkpt lat="48.579621" lon="7.781031">
        <ele>193.0</ele>
        <time>2020-07-11T10:47:57Z</time>
      </trkpt>
      <trkpt lat="48.579582" lon="7.781102">
        <ele>193.0</ele>
        <time>2020-07-11T10:47:59Z</time>
      </trkpt>
      <trkpt lat="48.579544" lon="7.781182">
        <ele>193.0</ele>
        <time>2020-07-11T10:48:01Z</time>
      </trkpt>
      <trkpt lat="48.579506" lon="7.781243">
        <ele>194.0</ele>
        <time>2020-07-11T10:48:03Z</time>
      </trkpt>
      <trkpt lat="48.579475" lon="7.781302">
        <ele>194.0</ele>
        <time>2020-07-11T10:48:05Z</time>
      </trkpt>
      <trkpt lat="48.579445" lon="7.781361">
        <ele>194.0</ele>
        <time>2020-07-11T10:48:07Z</time>
      </trkpt>
      <trkpt lat="48.57941" lon="7.78142">
        <ele>194.0</ele>
        <time>2020-07-11T10:48:09Z</time>
      </trkpt>
      <trkpt lat="48.579374" lon="7.781483">
        <ele>194.0</ele>
        <time>2020-07-11T10:48:11Z</time>
      </trkpt>
      <trkpt lat="48.579337" lon="7.781546">
        <ele>194.0</ele>
        <time>2020-07-11T10:48:13Z</time>
      </trkpt>
      <trkpt lat="48.579301" lon="7.781609">
        <ele>194.0</ele>
        <time>2020-07-11T10:48:15Z</time>
      </trkpt>
      <trkpt lat="48.579265" lon="7.781674">
        <ele>194.0</ele>
        <time>2020-07-11T10:48:17Z</time>
      </trkpt>
      <trkpt lat="48.579236" lon="7.781738">
        <ele>194.0</ele>
        <time>2020-07-11T10:48:19Z</time>
      </trkpt>
      <trkpt lat="48.579204" lon="7.781798">
        <ele>194.0</ele>
        <time>2020-07-11T10:48:21Z</time>
      </trkpt>
      <trkpt lat="48.579171" lon="7.781864">
        <ele>194.0</ele>
        <time>2020-07-11T10:48:23Z</time>
      </trkpt>
      <trkpt lat="48.579141" lon="7.781919">
        <ele>194.0</ele>
        <time>2020-07-11T10:48:25Z</time>
      </trkpt>
      <trkpt lat="48.579107" lon="7.781978">
        <ele>195.0</ele>
        <time>2020-07-11T10:48:27Z</time>
      </trkpt>
      <trkpt lat="48.579071" lon="7.782035">
        <ele>195.0</ele>
        <time>2020-07-11T10:48:29Z</time>
      </trkpt>
      <trkpt lat="48.579034" lon="7.782092">
        <ele>195.0</ele>
        <time>2020-07-11T10:48:31Z</time>
      </trkpt>
      <trkpt lat="48.578995" lon="7.782149">
        <ele>195.0</ele>
        <time>2020-07-11T10:48:33Z</time>
      </trkpt>
      <trkpt lat="48.578959" lon="7.782213">
        <ele>195.0</ele>
        <time>2020-07-11T10:48:35Z</time>
      </trkpt>
      <trkpt lat="48.578924" lon="7.782279">
        <ele>196.0</ele>
        <time>2020-07-11T10:48:37Z</time>
      </trkpt>
      <trkpt lat="48.57889" lon="7.782351">
        <ele>195.0</ele>
        <time>2020-07-11T10:48:39Z</time>
      </trkpt>
      <trkpt lat="48.578848" lon="7.782419">
        <ele>195.0</ele>
        <time>2020-07-11T10:48:41Z</time>
      </trkpt>
      <trkpt lat="48.578812" lon="7.782492">
        <ele>195.0</ele>
        <time>2020-07-11T10:48:43Z</time>
      </trkpt>
      <trkpt lat="48.578778" lon="7.782556">
        <ele>195.0</ele>
        <time>2020-07-11T10:48:45Z</time>
      </trkpt>
      <trkpt lat="48.578739" lon="7.782615">
        <ele>195.0</ele>
        <time>2020-07-11T10:48:47Z</time>
      </trkpt>
      <trkpt lat="48.578705" lon="7.782679">
        <ele>195.0</ele>
        <time>2020-07-11T10:48:49Z</time>
      </trkpt>
      <trkpt lat="48.578671" lon="7.782742">
        <ele>195.0</ele>
        <time>2020-07-11T10:48:51Z</time>
      </trkpt>
      <trkpt lat="48.578638" lon="7.782804">
        <ele>195.0</ele>
        <time>2020-07-11T10:48:53Z</time>
      </trkpt>
      <trkpt lat="48.5786" lon="7.782869">
        <ele>195.0</ele>
        <time>2020-07-11T10:48:55Z</time>
      </trkpt>
      <trkpt lat="48.578557" lon="7.782937">
        <ele>194.0</ele>
        <time>2020-07-11T10:48:57Z</time>
      </trkpt>
      <trkpt lat="48.578508" lon="7.78302">
        <ele>194.0</ele>
        <time>2020-07-11T10:48:59Z</time>
      </trkpt>
      <trkpt lat="48.578418" lon="7.783171">
        <ele>194.0</ele>
        <time>2020-07-11T10:49:02Z</time>
      </trkpt>
      <trkpt lat="48.578364" lon="7.783268">
        <ele>194.0</ele>
        <time>2020-07-11T10:49:04Z</time>
      </trkpt>
      <trkpt lat="48.578315" lon="7.783367">
        <ele>194.0</ele>
        <time>2020-07-11T10:49:06Z</time>
      </trkpt>
      <trkpt lat="48.578278" lon="7.783464">
        <ele>194.0</ele>
        <time>2020-07-11T10:49:08Z</time>
      </trkpt>
      <trkpt lat="48.57823" lon="7.783573">
        <ele>194.0</ele>
        <time>2020-07-11T10:49:10Z</time>
      </trkpt>
      <trkpt lat="48.578198" lon="7.783655">
        <ele>194.0</ele>
        <time>2020-07-11T10:49:12Z</time>
      </trkpt>
      <trkpt lat="48.578169" lon="7.783728">
        <ele>194.0</ele>
        <time>2020-07-11T10:49:14Z</time>
      </trkpt>
      <trkpt lat="48.57815" lon="7.783806">
        <ele>194.0</ele>
        <time>2020-07-11T10:49:16Z</time>
      </trkpt>
      <trkpt lat="48.578134" lon="7.783885">
        <ele>194.0</ele>
        <time>2020-07-11T10:49:18Z</time>
      </trkpt>
      <trkpt lat="48.578102" lon="7.783952">
        <ele>194.0</ele>
        <time>2020-07-11T10:49:20Z</time>
      </trkpt>
      <trkpt lat="48.578047" lon="7.783999">
        <ele>193.0</ele>
        <time>2020-07-11T10:49:22Z</time>
      </trkpt>
      <trkpt lat="48.577961" lon="7.784036">
        <ele>193.0</ele>
        <time>2020-07-11T10:49:24Z</time>
      </trkpt>
      <trkpt lat="48.57789" lon="7.784007">
        <ele>193.0</ele>
        <time>2020-07-11T10:49:26Z</time>
      </trkpt>
      <trkpt lat="48.577837" lon="7.783967">
        <ele>193.0</ele>
        <time>2020-07-11T10:49:28Z</time>
      </trkpt>
      <trkpt lat="48.577807" lon="7.783904">
        <ele>193.0</ele>
        <time>2020-07-11T10:49:30Z</time>
      </trkpt>
      <trkpt lat="48.577767" lon="7.783836">
        <ele>193.0</ele>
        <time>2020-07-11T10:49:32Z</time>
      </trkpt>
      <trkpt lat="48.577708" lon="7.783789">
        <ele>193.0</ele>
        <time>2020-07-11T10:49:34Z</time>
      </trkpt>
      <trkpt lat="48.577633" lon="7.783779">
        <ele>193.0</ele>
        <time>2020-07-11T10:49:36Z</time>
      </trkpt>
      <trkpt lat="48.577548" lon="7.783801">
        <ele>192.0</ele>
        <time>2020-07-11T10:49:38Z</time>
      </trkpt>
      <trkpt lat="48.577459" lon="7.783824">
        <ele>191.0</ele>
        <time>2020-07-11T10:49:40Z</time>
      </trkpt>
      <trkpt lat="48.577365" lon="7.783829">
        <ele>191.0</ele>
        <time>2020-07-11T10:49:42Z</time>
      </trkpt>
      <trkpt lat="48.577266" lon="7.783858">
        <ele>191.0</ele>
        <time>2020-07-11T10:49:44Z</time>
      </trkpt>
      <trkpt lat="48.577165" lon="7.78389">
        <ele>190.0</ele>
        <time>2020-07-11T10:49:46Z</time>
      </trkpt>
      <trkpt lat="48.577061" lon="7.783916">
        <ele>190.0</ele>
        <time>2020-07-11T10:49:48Z</time>
      </trkpt>
      <trkpt lat="48.576946" lon="7.783945">
        <ele>191.0</ele>
        <time>2020-07-11T10:49:50Z</time>
      </trkpt>
      <trkpt lat="48.576827" lon="7.783987">
        <ele>191.0</ele>
        <time>2020-07-11T10:49:52Z</time>
      </trkpt>
      <trkpt lat="48.576716" lon="7.784028">
        <ele>190.0</ele>
        <time>2020-07-11T10:49:54Z</time>
      </trkpt>
      <trkpt lat="48.576605" lon="7.784063">
        <ele>190.0</ele>
        <time>2020-07-11T10:49:56Z</time>
      </trkpt>
      <trkpt lat="48.576508" lon="7.784101">
        <ele>190.0</ele>
        <time>2020-07-11T10:49:58Z</time>
      </trkpt>
      <trkpt lat="48.576402" lon="7.784133">
        <ele>191.0</ele>
        <time>2020-07-11T10:50:00Z</time>
      </trkpt>
      <trkpt lat="48.576317" lon="7.784171">
        <ele>191.0</ele>
        <time>2020-07-11T10:50:02Z</time>
      </trkpt>
      <trkpt lat="48.57624" lon="7.784211">
        <ele>191.0</ele>
        <time>2020-07-11T10:50:04Z</time>
      </trkpt>
      <trkpt lat="48.576167" lon="7.784231">
        <ele>191.0</ele>
        <time>2020-07-11T10:50:06Z</time>
      </trkpt>
      <trkpt lat="48.576086" lon="7.784249">
        <ele>191.0</ele>
        <time>2020-07-11T10:50:08Z</time>
      </trkpt>
      <trkpt lat="48.576011" lon="7.784277">
        <ele>191.0</ele>
        <time>2020-07-11T10:50:10Z</time>
      </trkpt>
      <trkpt lat="48.575954" lon="7.784297">
        <ele>191.0</ele>
        <time>2020-07-11T10:50:12Z</time>
      </trkpt>
      <trkpt lat="48.575892" lon="7.784309">
        <ele>191.0</ele>
        <time>2020-07-11T10:50:14Z</time>
      </trkpt>
      <trkpt lat="48.575813" lon="7.784311">
        <ele>191.0</ele>
        <time>2020-07-11T10:50:16Z</time>
      </trkpt>
      <trkpt lat="48.575729" lon="7.784333">
        <ele>191.0</ele>
        <time>2020-07-11T10:50:18Z</time>
      </trkpt>
      <trkpt lat="48.575655" lon="7.784363">
        <ele>191.0</ele>
        <time>2020-07-11T10:50:20Z</time>
      </trkpt>
      <trkpt lat="48.575581" lon="7.784378">
        <ele>191.0</ele>
        <time>2020-07-11T10:50:22Z</time>
      </trkpt>
      <trkpt lat="48.575495" lon="7.78441">
        <ele>191.0</ele>
        <time>2020-07-11T10:50:24Z</time>
      </trkpt>
      <trkpt lat="48.575412" lon="7.784441">
        <ele>191.0</ele>
        <time>2020-07-11T10:50:26Z</time>
      </trkpt>
      <trkpt lat="48.575332" lon="7.784476">
        <ele>192.0</ele>
        <time>2020-07-11T10:50:28Z</time>
      </trkpt>
      <trkpt lat="48.575245" lon="7.7845">
        <ele>192.0</ele>
        <time>2020-07-11T10:50:30Z</time>
      </trkpt>
      <trkpt lat="48.575155" lon="7.784515">
        <ele>191.0</ele>
        <time>2020-07-11T10:50:32Z</time>
      </trkpt>
      <trkpt lat="48.575072" lon="7.784538">
        <ele>190.0</ele>
        <time>2020-07-11T10:50:34Z</time>
      </trkpt>
      <trkpt lat="48.574984" lon="7.784563">
        <ele>190.0</ele>
        <time>2020-07-11T10:50:36Z</time>
      </trkpt>
      <trkpt lat="48.57491" lon="7.784577">
        <ele>190.0</ele>
        <time>2020-07-11T10:50:38Z</time>
      </trkpt>
      <trkpt lat="48.57484" lon="7.78459">
        <ele>189.0</ele>
        <time>2020-07-11T10:50:40Z</time>
      </trkpt>
      <trkpt lat="48.574763" lon="7.784611">
        <ele>189.0</ele>
        <time>2020-07-11T10:50:42Z</time>
      </trkpt>
      <trkpt lat="48.574677" lon="7.784649">
        <ele>189.0</ele>
        <time>2020-07-11T10:50:44Z</time>
      </trkpt>
      <trkpt lat="48.574589" lon="7.784687">
        <ele>188.0</ele>
        <time>2020-07-11T10:50:46Z</time>
      </trkpt>
      <trkpt lat="48.574496" lon="7.784715">
        <ele>189.0</ele>
        <time>2020-07-11T10:50:48Z</time>
      </trkpt>
      <trkpt lat="48.574412" lon="7.784733">
        <ele>189.0</ele>
        <time>2020-07-11T10:50:50Z</time>
      </trkpt>
      <trkpt lat="48.57433" lon="7.784754">
        <ele>189.0</ele>
        <time>2020-07-11T10:50:52Z</time>
      </trkpt>
      <trkpt lat="48.574258" lon="7.784761">
        <ele>189.0</ele>
        <time>2020-07-11T10:50:54Z</time>
      </trkpt>
      <trkpt lat="48.574185" lon="7.784781">
        <ele>190.0</ele>
        <time>2020-07-11T10:50:56Z</time>
      </trkpt>
      <trkpt lat="48.574119" lon="7.784794">
        <ele>190.0</ele>
        <time>2020-07-11T10:50:58Z</time>
      </trkpt>
      <trkpt lat="48.574058" lon="7.784814">
        <ele>190.0</ele>
        <time>2020-07-11T10:51:00Z</time>
      </trkpt>
      <trkpt lat="48.573992" lon="7.784834">
        <ele>190.0</ele>
        <time>2020-07-11T10:51:02Z</time>
      </trkpt>
      <trkpt lat="48.573924" lon="7.784855">
        <ele>190.0</ele>
        <time>2020-07-11T10:51:04Z</time>
      </trkpt>
      <trkpt lat="48.573858" lon="7.784878">
        <ele>190.0</ele>
        <time>2020-07-11T10:51:06Z</time>
      </trkpt>
      <trkpt lat="48.573796" lon="7.784896">
        <ele>190.0</ele>
        <time>2020-07-11T10:51:08Z</time>
      </trkpt>
      <trkpt lat="48.573753" lon="7.784916">
        <ele>190.0</ele>
        <time>2020-07-11T10:51:10Z</time>
      </trkpt>
      <trkpt lat="48.57372" lon="7.784918">
        <ele>189.0</ele>
        <time>2020-07-11T10:51:12Z</time>
      </trkpt>
      <trkpt lat="48.573694" lon="7.784912">
        <ele>189.0</ele>
        <time>2020-07-11T10:51:14Z</time>
      </trkpt>
      <trkpt lat="48.57368" lon="7.784918">
        <ele>189.0</ele>
        <time>2020-07-11T10:51:16Z</time>
      </trkpt>
      <trkpt lat="48.573677" lon="7.784921">
        <ele>189.0</ele>
        <time>2020-07-11T10:51:18Z</time>
      </trkpt>
      <trkpt lat="48.573663" lon="7.78493">
        <ele>189.0</ele>
        <time>2020-07-11T10:51:20Z</time>
      </trkpt>
      <trkpt lat="48.57365" lon="7.784932">
        <ele>188.0</ele>
        <time>2020-07-11T10:51:22Z</time>
      </trkpt>
      <trkpt lat="48.573644" lon="7.784923">
        <ele>188.0</ele>
        <time>2020-07-11T10:51:24Z</time>
      </trkpt>
      <trkpt lat="48.573645" lon="7.784924">
        <ele>188.0</ele>
        <time>2020-07-11T10:51:26Z</time>
      </trkpt>
      <trkpt lat="48.573645" lon="7.784924">
        <ele>188.0</ele>
        <time>2020-07-11T10:51:28Z</time>
      </trkpt>
      <trkpt lat="48.573645" lon="7.784924">
        <ele>188.0</ele>
        <time>2020-07-11T10:51:30Z</time>
      </trkpt>
      <trkpt lat="48.573645" lon="7.784924">
        <ele>188.0</ele>
        <time>2020-07-11T10:51:32Z</time>
      </trkpt>
      <trkpt lat="48.573645" lon="7.784924">
        <ele>188.0</ele>
        <time>2020-07-11T10:51:34Z</time>
      </trkpt>
      <trkpt lat="48.573645" lon="7.784924">
        <ele>188.0</ele>
        <time>2020-07-11T10:51:36Z</time>
      </trkpt>
      <trkpt lat="48.573645" lon="7.784924">
        <ele>188.0</ele>
        <time>2020-07-11T10:51:38Z</time>
      </trkpt>
      <trkpt lat="48.573645" lon="7.784924">
        <ele>188.0</ele>
        <time>2020-07-11T10:51:40Z</time>
      </trkpt>
      <trkpt lat="48.573645" lon="7.784924">
        <ele>188.0</ele>
        <time>2020-07-11T10:51:42Z</time>
      </trkpt>
      <trkpt lat="48.573645" lon="7.784924">
        <ele>188.0</ele>
        <time>2020-07-11T10:51:44Z</time>
      </trkpt>
      <trkpt lat="48.573633" lon="7.784924">
        <ele>188.0</ele>
        <time>2020-07-11T10:51:46Z</time>
      </trkpt>
      <trkpt lat="48.573613" lon="7.78493">
        <ele>188.0</ele>
        <time>2020-07-11T10:51:48Z</time>
      </trkpt>
      <trkpt lat="48.573582" lon="7.784947">
        <ele>188.0</ele>
        <time>2020-07-11T10:51:50Z</time>
      </trkpt>
      <trkpt lat="48.573531" lon="7.784962">
        <ele>187.0</ele>
        <time>2020-07-11T10:51:52Z</time>
      </trkpt>
      <trkpt lat="48.573469" lon="7.784974">
        <ele>188.0</ele>
        <time>2020-07-11T10:51:54Z</time>
      </trkpt>
      <trkpt lat="48.573402" lon="7.784987">
        <ele>188.0</ele>
        <time>2020-07-11T10:51:56Z</time>
      </trkpt>
      <trkpt lat="48.573334" lon="7.78501">
        <ele>188.0</ele>
        <time>2020-07-11T10:51:58Z</time>
      </trkpt>
      <trkpt lat="48.573256" lon="7.78502">
        <ele>188.0</ele>
        <time>2020-07-11T10:52:00Z</time>
      </trkpt>
      <trkpt lat="48.573165" lon="7.785029">
        <ele>189.0</ele>
        <time>2020-07-11T10:52:02Z</time>
      </trkpt>
      <trkpt lat="48.573073" lon="7.785028">
        <ele>190.0</ele>
        <time>2020-07-11T10:52:04Z</time>
      </trkpt>
      <trkpt lat="48.572997" lon="7.785041">
        <ele>190.0</ele>
        <time>2020-07-11T10:52:06Z</time>
      </trkpt>
      <trkpt lat="48.572925" lon="7.785073">
        <ele>191.0</ele>
        <time>2020-07-11T10:52:08Z</time>
      </trkpt>
      <trkpt lat="48.57285" lon="7.785098">
        <ele>191.0</ele>
        <time>2020-07-11T10:52:10Z</time>
      </trkpt>
      <trkpt lat="48.572733" lon="7.785131">
        <ele>191.0</ele>
        <time>2020-07-11T10:52:13Z</time>
      </trkpt>
      <trkpt lat="48.572696" lon="7.785139">
        <ele>191.0</ele>
        <time>2020-07-11T10:52:14Z</time>
      </trkpt>
      <trkpt lat="48.572582" lon="7.785151">
        <ele>191.0</ele>
        <time>2020-07-11T10:52:17Z</time>
      </trkpt>
      <trkpt lat="48.572505" lon="7.785174">
        <ele>191.0</ele>
        <time>2020-07-11T10:52:19Z</time>
      </trkpt>
      <trkpt lat="48.572432" lon="7.78519">
        <ele>191.0</ele>
        <time>2020-07-11T10:52:21Z</time>
      </trkpt>
      <trkpt lat="48.572353" lon="7.785205">
        <ele>191.0</ele>
        <time>2020-07-11T10:52:23Z</time>
      </trkpt>
      <trkpt lat="48.572283" lon="7.78522">
        <ele>192.0</ele>
        <time>2020-07-11T10:52:25Z</time>
      </trkpt>
      <trkpt lat="48.572205" lon="7.785241">
        <ele>192.0</ele>
        <time>2020-07-11T10:52:27Z</time>
      </trkpt>
      <trkpt lat="48.572137" lon="7.785261">
        <ele>192.0</ele>
        <time>2020-07-11T10:52:29Z</time>
      </trkpt>
      <trkpt lat="48.572062" lon="7.785282">
        <ele>192.0</ele>
        <time>2020-07-11T10:52:31Z</time>
      </trkpt>
      <trkpt lat="48.571981" lon="7.785287">
        <ele>193.0</ele>
        <time>2020-07-11T10:52:33Z</time>
      </trkpt>
      <trkpt lat="48.571899" lon="7.7853">
        <ele>193.0</ele>
        <time>2020-07-11T10:52:35Z</time>
      </trkpt>
      <trkpt lat="48.571818" lon="7.785322">
        <ele>193.0</ele>
        <time>2020-07-11T10:52:37Z</time>
      </trkpt>
      <trkpt lat="48.571738" lon="7.785349">
        <ele>193.0</ele>
        <time>2020-07-11T10:52:39Z</time>
      </trkpt>
      <trkpt lat="48.571669" lon="7.785368">
        <ele>193.0</ele>
        <time>2020-07-11T10:52:41Z</time>
      </trkpt>
      <trkpt lat="48.571595" lon="7.785379">
        <ele>193.0</ele>
        <time>2020-07-11T10:52:43Z</time>
      </trkpt>
      <trkpt lat="48.571528" lon="7.785395">
        <ele>193.0</ele>
        <time>2020-07-11T10:52:45Z</time>
      </trkpt>
      <trkpt lat="48.57147" lon="7.785421">
        <ele>193.0</ele>
        <time>2020-07-11T10:52:47Z</time>
      </trkpt>
      <trkpt lat="48.571423" lon="7.785447">
        <ele>194.0</ele>
        <time>2020-07-11T10:52:49Z</time>
      </trkpt>
      <trkpt lat="48.571386" lon="7.785457">
        <ele>194.0</ele>
        <time>2020-07-11T10:52:51Z</time>
      </trkpt>
      <trkpt lat="48.571357" lon="7.785482">
        <ele>194.0</ele>
        <time>2020-07-11T10:52:53Z</time>
      </trkpt>
      <trkpt lat="48.571323" lon="7.785516">
        <ele>194.0</ele>
        <time>2020-07-11T10:52:55Z</time>
      </trkpt>
      <trkpt lat="48.571288" lon="7.78555">
        <ele>194.0</ele>
        <time>2020-07-11T10:52:57Z</time>
      </trkpt>
      <trkpt lat="48.571246" lon="7.785609">
        <ele>194.0</ele>
        <time>2020-07-11T10:52:59Z</time>
      </trkpt>
      <trkpt lat="48.571206" lon="7.785701">
        <ele>194.0</ele>
        <time>2020-07-11T10:53:01Z</time>
      </trkpt>
      <trkpt lat="48.57118" lon="7.785813">
        <ele>195.0</ele>
        <time>2020-07-11T10:53:03Z</time>
      </trkpt>
      <trkpt lat="48.571165" lon="7.785923">
        <ele>195.0</ele>
        <time>2020-07-11T10:53:05Z</time>
      </trkpt>
      <trkpt lat="48.571164" lon="7.786027">
        <ele>195.0</ele>
        <time>2020-07-11T10:53:07Z</time>
      </trkpt>
      <trkpt lat="48.571177" lon="7.786125">
        <ele>195.0</ele>
        <time>2020-07-11T10:53:09Z</time>
      </trkpt>
      <trkpt lat="48.57116" lon="7.786228">
        <ele>195.0</ele>
        <time>2020-07-11T10:53:11Z</time>
      </trkpt>
      <trkpt lat="48.571127" lon="7.786306">
        <ele>195.0</ele>
        <time>2020-07-11T10:53:13Z</time>
      </trkpt>
      <trkpt lat="48.571098" lon="7.78638">
        <ele>195.0</ele>
        <time>2020-07-11T10:53:15Z</time>
      </trkpt>
      <trkpt lat="48.571062" lon="7.78644">
        <ele>195.0</ele>
        <time>2020-07-11T10:53:17Z</time>
      </trkpt>
      <trkpt lat="48.57102" lon="7.786478">
        <ele>196.0</ele>
        <time>2020-07-11T10:53:19Z</time>
      </trkpt>
      <trkpt lat="48.57097" lon="7.786451">
        <ele>196.0</ele>
        <time>2020-07-11T10:53:21Z</time>
      </trkpt>
      <trkpt lat="48.570927" lon="7.786413">
        <ele>196.0</ele>
        <time>2020-07-11T10:53:23Z</time>
      </trkpt>
      <trkpt lat="48.570891" lon="7.786419">
        <ele>196.0</ele>
        <time>2020-07-11T10:53:25Z</time>
      </trkpt>
      <trkpt lat="48.570853" lon="7.786429">
        <ele>196.0</ele>
        <time>2020-07-11T10:53:27Z</time>
      </trkpt>
      <trkpt lat="48.570815" lon="7.786417">
        <ele>195.0</ele>
        <time>2020-07-11T10:53:29Z</time>
      </trkpt>
      <trkpt lat="48.570779" lon="7.786378">
        <ele>195.0</ele>
        <time>2020-07-11T10:53:31Z</time>
      </trkpt>
      <trkpt lat="48.570749" lon="7.786325">
        <ele>195.0</ele>
        <time>2020-07-11T10:53:33Z</time>
      </trkpt>
      <trkpt lat="48.570718" lon="7.78628">
        <ele>195.0</ele>
        <time>2020-07-11T10:53:35Z</time>
      </trkpt>
      <trkpt lat="48.570693" lon="7.786245">
        <ele>195.0</ele>
        <time>2020-07-11T10:53:37Z</time>
      </trkpt>
      <trkpt lat="48.570691" lon="7.786247">
        <ele>195.0</ele>
        <time>2020-07-11T10:53:39Z</time>
      </trkpt>
      <trkpt lat="48.570692" lon="7.786251">
        <ele>196.0</ele>
        <time>2020-07-11T10:53:41Z</time>
      </trkpt>
      <trkpt lat="48.570692" lon="7.786251">
        <ele>196.0</ele>
        <time>2020-07-11T10:53:43Z</time>
      </trkpt>
      <trkpt lat="48.57069" lon="7.786248">
        <ele>196.0</ele>
        <time>2020-07-11T10:53:45Z</time>
      </trkpt>
      <trkpt lat="48.570687" lon="7.786241">
        <ele>196.0</ele>
        <time>2020-07-11T10:54:36Z</time>
      </trkpt>
      <trkpt lat="48.570687" lon="7.786241">
        <ele>196.0</ele>
        <time>2020-07-11T10:54:38Z</time>
      </trkpt>
      <trkpt lat="48.570687" lon="7.786241">
        <ele>196.0</ele>
        <time>2020-07-11T10:54:40Z</time>
      </trkpt>
      <trkpt lat="48.570687" lon="7.786241">
        <ele>196.0</ele>
        <time>2020-07-11T10:54:42Z</time>
      </trkpt>
      <trkpt lat="48.570687" lon="7.786241">
        <ele>196.0</ele>
        <time>2020-07-11T10:54:44Z</time>
      </trkpt>
      <trkpt lat="48.570687" lon="7.786241">
        <ele>196.0</ele>
        <time>2020-07-11T10:54:46Z</time>
      </trkpt>
      <trkpt lat="48.570687" lon="7.786241">
        <ele>196.0</ele>
        <time>2020-07-11T10:54:48Z</time>
      </trkpt>
      <trkpt lat="48.570687" lon="7.786241">
        <ele>196.0</ele>
        <time>2020-07-11T10:54:50Z</time>
      </trkpt>
      <trkpt lat="48.570687" lon="7.786241">
        <ele>196.0</ele>
        <time>2020-07-11T10:54:52Z</time>
      </trkpt>
      <trkpt lat="48.570676" lon="7.786226">
        <ele>196.0</ele>
        <time>2020-07-11T10:54:54Z</time>
      </trkpt>
      <trkpt lat="48.570664" lon="7.786212">
        <ele>197.0</ele>
        <time>2020-07-11T10:54:56Z</time>
      </trkpt>
      <trkpt lat="48.570657" lon="7.786206">
        <ele>197.0</ele>
        <time>2020-07-11T10:54:58Z</time>
      </trkpt>
      <trkpt lat="48.57063" lon="7.786167">
        <ele>197.0</ele>
        <time>2020-07-11T10:55:01Z</time>
      </trkpt>
      <trkpt lat="48.570586" lon="7.786113">
        <ele>196.0</ele>
        <time>2020-07-11T10:55:03Z</time>
      </trkpt>
      <trkpt lat="48.570533" lon="7.786053">
        <ele>195.0</ele>
        <time>2020-07-11T10:55:05Z</time>
      </trkpt>
      <trkpt lat="48.570479" lon="7.785975">
        <ele>195.0</ele>
        <time>2020-07-11T10:55:07Z</time>
      </trkpt>
      <trkpt lat="48.570413" lon="7.785833">
        <ele>193.0</ele>
        <time>2020-07-11T10:55:10Z</time>
      </trkpt>
      <trkpt lat="48.570372" lon="7.785744">
        <ele>194.0</ele>
        <time>2020-07-11T10:55:12Z</time>
      </trkpt>
      <trkpt lat="48.570346" lon="7.785651">
        <ele>194.0</ele>
        <time>2020-07-11T10:55:14Z</time>
      </trkpt>
      <trkpt lat="48.570327" lon="7.785546">
        <ele>194.0</ele>
        <time>2020-07-11T10:55:16Z</time>
      </trkpt>
      <trkpt lat="48.570291" lon="7.785337">
        <ele>194.0</ele>
        <time>2020-07-11T10:55:20Z</time>
      </trkpt>
      <trkpt lat="48.570279" lon="7.785245">
        <ele>193.0</ele>
        <time>2020-07-11T10:55:22Z</time>
      </trkpt>
      <trkpt lat="48.570263" lon="7.78519">
        <ele>193.0</ele>
        <time>2020-07-11T10:55:24Z</time>
      </trkpt>
      <trkpt lat="48.570247" lon="7.785179">
        <ele>192.0</ele>
        <time>2020-07-11T10:55:26Z</time>
      </trkpt>
      <trkpt lat="48.570241" lon="7.785187">
        <ele>192.0</ele>
        <time>2020-07-11T10:55:29Z</time>
      </trkpt>
      <trkpt lat="48.570241" lon="7.785187">
        <ele>192.0</ele>
        <time>2020-07-11T10:55:31Z</time>
      </trkpt>
      <trkpt lat="48.570241" lon="7.785187">
        <ele>192.0</ele>
        <time>2020-07-11T10:55:33Z</time>
      </trkpt>
      <trkpt lat="48.570241" lon="7.785187">
        <ele>192.0</ele>
        <time>2020-07-11T10:55:35Z</time>
      </trkpt>
      <trkpt lat="48.570241" lon="7.785187">
        <ele>192.0</ele>
        <time>2020-07-11T10:56:06Z</time>
      </trkpt>
      <trkpt lat="48.570241" lon="7.785187">
        <ele>192.0</ele>
        <time>2020-07-11T10:56:08Z</time>
      </trkpt>
      <trkpt lat="48.570241" lon="7.785187">
        <ele>192.0</ele>
        <time>2020-07-11T10:56:10Z</time>
      </trkpt>
      <trkpt lat="48.570241" lon="7.785187">
        <ele>192.0</ele>
        <time>2020-07-11T10:56:13Z</time>
      </trkpt>
      <trkpt lat="48.570241" lon="7.785187">
        <ele>192.0</ele>
        <time>2020-07-11T10:56:15Z</time>
      </trkpt>
      <trkpt lat="48.570241" lon="7.785187">
        <ele>192.0</ele>
        <time>2020-07-11T10:56:16Z</time>
      </trkpt>
      <trkpt lat="48.570241" lon="7.785187">
        <ele>192.0</ele>
        <time>2020-07-11T10:56:19Z</time>
      </trkpt>
      <trkpt lat="48.570241" lon="7.785187">
        <ele>192.0</ele>
        <time>2020-07-11T10:56:21Z</time>
      </trkpt>
      <trkpt lat="48.570241" lon="7.785187">
        <ele>192.0</ele>
        <time>2020-07-11T10:56:24Z</time>
      </trkpt>
      <trkpt lat="48.570241" lon="7.785187">
        <ele>192.0</ele>
        <time>2020-07-11T10:56:26Z</time>
      </trkpt>
      <trkpt lat="48.570241" lon="7.785187">
        <ele>192.0</ele>
        <time>2020-07-11T10:56:28Z</time>
      </trkpt>
      <trkpt lat="48.570242" lon="7.785201">
        <ele>192.0</ele>
        <time>2020-07-11T10:56:30Z</time>
      </trkpt>
      <trkpt lat="48.570228" lon="7.78521">
        <ele>191.0</ele>
        <time>2020-07-11T10:56:31Z</time>
      </trkpt>
      <trkpt lat="48.570156" lon="7.785206">
        <ele>191.0</ele>
        <time>2020-07-11T10:56:34Z</time>
      </trkpt>
      <trkpt lat="48.570087" lon="7.785226">
        <ele>191.0</ele>
        <time>2020-07-11T10:56:36Z</time>
      </trkpt>
      <trkpt lat="48.570041" lon="7.785259">
        <ele>192.0</ele>
        <time>2020-07-11T10:56:38Z</time>
      </trkpt>
      <trkpt lat="48.570032" lon="7.785337">
        <ele>192.0</ele>
        <time>2020-07-11T10:56:40Z</time>
      </trkpt>
      <trkpt lat="48.570042" lon="7.785436">
        <ele>193.0</ele>
        <time>2020-07-11T10:56:42Z</time>
      </trkpt>
      <trkpt lat="48.570049" lon="7.78548">
        <ele>193.0</ele>
        <time>2020-07-11T10:56:43Z</time>
      </trkpt>
      <trkpt lat="48.570082" lon="7.785714">
        <ele>191.0</ele>
        <time>2020-07-11T10:56:47Z</time>
      </trkpt>
      <trkpt lat="48.570123" lon="7.785842">
        <ele>191.0</ele>
        <time>2020-07-11T10:56:49Z</time>
      </trkpt>
      <trkpt lat="48.570173" lon="7.785962">
        <ele>191.0</ele>
        <time>2020-07-11T10:56:51Z</time>
      </trkpt>
      <trkpt lat="48.570227" lon="7.786076">
        <ele>191.0</ele>
        <time>2020-07-11T10:56:53Z</time>
      </trkpt>
      <trkpt lat="48.570235" lon="7.786156">
        <ele>191.0</ele>
        <time>2020-07-11T10:56:55Z</time>
      </trkpt>
      <trkpt lat="48.570183" lon="7.786103">
        <ele>190.0</ele>
        <time>2020-07-11T10:56:57Z</time>
      </trkpt>
      <trkpt lat="48.57009" lon="7.785967">
        <ele>192.0</ele>
        <time>2020-07-11T10:57:00Z</time>
      </trkpt>
      <trkpt lat="48.570022" lon="7.785871">
        <ele>192.0</ele>
        <time>2020-07-11T10:57:02Z</time>
      </trkpt>
      <trkpt lat="48.569945" lon="7.785772">
        <ele>191.0</ele>
        <time>2020-07-11T10:57:04Z</time>
      </trkpt>
      <trkpt lat="48.569868" lon="7.785653">
        <ele>191.0</ele>
        <time>2020-07-11T10:57:06Z</time>
      </trkpt>
      <trkpt lat="48.569782" lon="7.785534">
        <ele>191.0</ele>
        <time>2020-07-11T10:57:08Z</time>
      </trkpt>
      <trkpt lat="48.569693" lon="7.785398">
        <ele>190.0</ele>
        <time>2020-07-11T10:57:10Z</time>
      </trkpt>
      <trkpt lat="48.5696" lon="7.785265">
        <ele>189.0</ele>
        <time>2020-07-11T10:57:12Z</time>
      </trkpt>
      <trkpt lat="48.569511" lon="7.785177">
        <ele>189.0</ele>
        <time>2020-07-11T10:57:14Z</time>
      </trkpt>
      <trkpt lat="48.569422" lon="7.785232">
        <ele>188.0</ele>
        <time>2020-07-11T10:57:16Z</time>
      </trkpt>
      <trkpt lat="48.56934" lon="7.785439">
        <ele>187.0</ele>
        <time>2020-07-11T10:57:19Z</time>
      </trkpt>
      <trkpt lat="48.569284" lon="7.785543">
        <ele>187.0</ele>
        <time>2020-07-11T10:57:21Z</time>
      </trkpt>
      <trkpt lat="48.569319" lon="7.785637">
        <ele>187.0</ele>
        <time>2020-07-11T10:57:23Z</time>
      </trkpt>
      <trkpt lat="48.569369" lon="7.785716">
        <ele>187.0</ele>
        <time>2020-07-11T10:57:25Z</time>
      </trkpt>
      <trkpt lat="48.569472" lon="7.785853">
        <ele>187.0</ele>
        <time>2020-07-11T10:57:28Z</time>
      </trkpt>
      <trkpt lat="48.569545" lon="7.78595">
        <ele>188.0</ele>
        <time>2020-07-11T10:57:30Z</time>
      </trkpt>
      <trkpt lat="48.569617" lon="7.78605">
        <ele>188.0</ele>
        <time>2020-07-11T10:57:32Z</time>
      </trkpt>
      <trkpt lat="48.56965" lon="7.786103">
        <ele>188.0</ele>
        <time>2020-07-11T10:57:33Z</time>
      </trkpt>
      <trkpt lat="48.569751" lon="7.78625">
        <ele>188.0</ele>
        <time>2020-07-11T10:57:36Z</time>
      </trkpt>
      <trkpt lat="48.569818" lon="7.786333">
        <ele>188.0</ele>
        <time>2020-07-11T10:57:38Z</time>
      </trkpt>
      <trkpt lat="48.569876" lon="7.786428">
        <ele>189.0</ele>
        <time>2020-07-11T10:57:40Z</time>
      </trkpt>
      <trkpt lat="48.569934" lon="7.786513">
        <ele>189.0</ele>
        <time>2020-07-11T10:57:42Z</time>
      </trkpt>
      <trkpt lat="48.569987" lon="7.786589">
        <ele>190.0</ele>
        <time>2020-07-11T10:57:44Z</time>
      </trkpt>
      <trkpt lat="48.570057" lon="7.786652">
        <ele>190.0</ele>
        <time>2020-07-11T10:57:46Z</time>
      </trkpt>
      <trkpt lat="48.570109" lon="7.786715">
        <ele>190.0</ele>
        <time>2020-07-11T10:57:48Z</time>
      </trkpt>
      <trkpt lat="48.570116" lon="7.786789">
        <ele>189.0</ele>
        <time>2020-07-11T10:57:50Z</time>
      </trkpt>
      <trkpt lat="48.570075" lon="7.786876">
        <ele>189.0</ele>
        <time>2020-07-11T10:57:53Z</time>
      </trkpt>
      <trkpt lat="48.570049" lon="7.786921">
        <ele>189.0</ele>
        <time>2020-07-11T10:57:55Z</time>
      </trkpt>
      <trkpt lat="48.570014" lon="7.786984">
        <ele>189.0</ele>
        <time>2020-07-11T10:57:57Z</time>
      </trkpt>
      <trkpt lat="48.56998" lon="7.78706">
        <ele>189.0</ele>
        <time>2020-07-11T10:57:59Z</time>
      </trkpt>
      <trkpt lat="48.56994" lon="7.787131">
        <ele>189.0</ele>
        <time>2020-07-11T10:58:01Z</time>
      </trkpt>
      <trkpt lat="48.569891" lon="7.787204">
        <ele>189.0</ele>
        <time>2020-07-11T10:58:03Z</time>
      </trkpt>
      <trkpt lat="48.569846" lon="7.787284">
        <ele>189.0</ele>
        <time>2020-07-11T10:58:05Z</time>
      </trkpt>
      <trkpt lat="48.569796" lon="7.787363">
        <ele>189.0</ele>
        <time>2020-07-11T10:58:07Z</time>
      </trkpt>
      <trkpt lat="48.569755" lon="7.787444">
        <ele>189.0</ele>
        <time>2020-07-11T10:58:09Z</time>
      </trkpt>
      <trkpt lat="48.569718" lon="7.787521">
        <ele>189.0</ele>
        <time>2020-07-11T10:58:11Z</time>
      </trkpt>
      <trkpt lat="48.569674" lon="7.787587">
        <ele>189.0</ele>
        <time>2020-07-11T10:58:13Z</time>
      </trkpt>
      <trkpt lat="48.569631" lon="7.787653">
        <ele>189.0</ele>
        <time>2020-07-11T10:58:15Z</time>
      </trkpt>
      <trkpt lat="48.569589" lon="7.787722">
        <ele>189.0</ele>
        <time>2020-07-11T10:58:17Z</time>
      </trkpt>
      <trkpt lat="48.569538" lon="7.787793">
        <ele>188.0</ele>
        <time>2020-07-11T10:58:19Z</time>
      </trkpt>
      <trkpt lat="48.569484" lon="7.787861">
        <ele>189.0</ele>
        <time>2020-07-11T10:58:21Z</time>
      </trkpt>
      <trkpt lat="48.569441" lon="7.787932">
        <ele>189.0</ele>
        <time>2020-07-11T10:58:23Z</time>
      </trkpt>
      <trkpt lat="48.569398" lon="7.788011">
        <ele>189.0</ele>
        <time>2020-07-11T10:58:25Z</time>
      </trkpt>
      <trkpt lat="48.569351" lon="7.788087">
        <ele>189.0</ele>
        <time>2020-07-11T10:58:27Z</time>
      </trkpt>
      <trkpt lat="48.569299" lon="7.788187">
        <ele>190.0</ele>
        <time>2020-07-11T10:58:29Z</time>
      </trkpt>
      <trkpt lat="48.569244" lon="7.788278">
        <ele>191.0</ele>
        <time>2020-07-11T10:58:31Z</time>
      </trkpt>
      <trkpt lat="48.569202" lon="7.788356">
        <ele>191.0</ele>
        <time>2020-07-11T10:58:33Z</time>
      </trkpt>
      <trkpt lat="48.569164" lon="7.788426">
        <ele>191.0</ele>
        <time>2020-07-11T10:58:35Z</time>
      </trkpt>
      <trkpt lat="48.569134" lon="7.78849">
        <ele>191.0</ele>
        <time>2020-07-11T10:58:37Z</time>
      </trkpt>
      <trkpt lat="48.569105" lon="7.788546">
        <ele>191.0</ele>
        <time>2020-07-11T10:58:39Z</time>
      </trkpt>
      <trkpt lat="48.569073" lon="7.788602">
        <ele>190.0</ele>
        <time>2020-07-11T10:58:41Z</time>
      </trkpt>
      <trkpt lat="48.569036" lon="7.788669">
        <ele>190.0</ele>
        <time>2020-07-11T10:58:43Z</time>
      </trkpt>
      <trkpt lat="48.568991" lon="7.788736">
        <ele>190.0</ele>
        <time>2020-07-11T10:58:45Z</time>
      </trkpt>
      <trkpt lat="48.568946" lon="7.788806">
        <ele>190.0</ele>
        <time>2020-07-11T10:58:47Z</time>
      </trkpt>
      <trkpt lat="48.568894" lon="7.788881">
        <ele>189.0</ele>
        <time>2020-07-11T10:58:49Z</time>
      </trkpt>
      <trkpt lat="48.568836" lon="7.788958">
        <ele>189.0</ele>
        <time>2020-07-11T10:58:51Z</time>
      </trkpt>
      <trkpt lat="48.568767" lon="7.789041">
        <ele>188.0</ele>
        <time>2020-07-11T10:58:53Z</time>
      </trkpt>
      <trkpt lat="48.568706" lon="7.789108">
        <ele>188.0</ele>
        <time>2020-07-11T10:58:55Z</time>
      </trkpt>
      <trkpt lat="48.568649" lon="7.789186">
        <ele>187.0</ele>
        <time>2020-07-11T10:58:57Z</time>
      </trkpt>
      <trkpt lat="48.568579" lon="7.789272">
        <ele>187.0</ele>
        <time>2020-07-11T10:58:59Z</time>
      </trkpt>
      <trkpt lat="48.5685" lon="7.78933">
        <ele>187.0</ele>
        <time>2020-07-11T10:59:01Z</time>
      </trkpt>
      <trkpt lat="48.568425" lon="7.789406">
        <ele>188.0</ele>
        <time>2020-07-11T10:59:03Z</time>
      </trkpt>
      <trkpt lat="48.568359" lon="7.789496">
        <ele>188.0</ele>
        <time>2020-07-11T10:59:05Z</time>
      </trkpt>
      <trkpt lat="48.568303" lon="7.789591">
        <ele>188.0</ele>
        <time>2020-07-11T10:59:07Z</time>
      </trkpt>
      <trkpt lat="48.568256" lon="7.789688">
        <ele>188.0</ele>
        <time>2020-07-11T10:59:09Z</time>
      </trkpt>
      <trkpt lat="48.568228" lon="7.789808">
        <ele>187.0</ele>
        <time>2020-07-11T10:59:11Z</time>
      </trkpt>
      <trkpt lat="48.568217" lon="7.789935">
        <ele>186.0</ele>
        <time>2020-07-11T10:59:13Z</time>
      </trkpt>
      <trkpt lat="48.568223" lon="7.790056">
        <ele>185.0</ele>
        <time>2020-07-11T10:59:15Z</time>
      </trkpt>
      <trkpt lat="48.568245" lon="7.790162">
        <ele>185.0</ele>
        <time>2020-07-11T10:59:17Z</time>
      </trkpt>
      <trkpt lat="48.568278" lon="7.790251">
        <ele>185.0</ele>
        <time>2020-07-11T10:59:19Z</time>
      </trkpt>
      <trkpt lat="48.568323" lon="7.790334">
        <ele>185.0</ele>
        <time>2020-07-11T10:59:21Z</time>
      </trkpt>
      <trkpt lat="48.568368" lon="7.790417">
        <ele>185.0</ele>
        <time>2020-07-11T10:59:23Z</time>
      </trkpt>
      <trkpt lat="48.568405" lon="7.790508">
        <ele>186.0</ele>
        <time>2020-07-11T10:59:25Z</time>
      </trkpt>
      <trkpt lat="48.568449" lon="7.790591">
        <ele>186.0</ele>
        <time>2020-07-11T10:59:27Z</time>
      </trkpt>
      <trkpt lat="48.568492" lon="7.79068">
        <ele>187.0</ele>
        <time>2020-07-11T10:59:29Z</time>
      </trkpt>
      <trkpt lat="48.568513" lon="7.790773">
        <ele>187.0</ele>
        <time>2020-07-11T10:59:31Z</time>
      </trkpt>
      <trkpt lat="48.568507" lon="7.790863">
        <ele>187.0</ele>
        <time>2020-07-11T10:59:33Z</time>
      </trkpt>
      <trkpt lat="48.568501" lon="7.790933">
        <ele>188.0</ele>
        <time>2020-07-11T10:59:35Z</time>
      </trkpt>
      <trkpt lat="48.568491" lon="7.791005">
        <ele>188.0</ele>
        <time>2020-07-11T10:59:37Z</time>
      </trkpt>
      <trkpt lat="48.568482" lon="7.791077">
        <ele>188.0</ele>
        <time>2020-07-11T10:59:39Z</time>
      </trkpt>
      <trkpt lat="48.568454" lon="7.791133">
        <ele>188.0</ele>
        <time>2020-07-11T10:59:41Z</time>
      </trkpt>
      <trkpt lat="48.568441" lon="7.791177">
        <ele>188.0</ele>
        <time>2020-07-11T10:59:43Z</time>
      </trkpt>
      <trkpt lat="48.568432" lon="7.791217">
        <ele>188.0</ele>
        <time>2020-07-11T10:59:45Z</time>
      </trkpt>
      <trkpt lat="48.568438" lon="7.791265">
        <ele>187.0</ele>
        <time>2020-07-11T10:59:47Z</time>
      </trkpt>
      <trkpt lat="48.568457" lon="7.791332">
        <ele>187.0</ele>
        <time>2020-07-11T10:59:49Z</time>
      </trkpt>
      <trkpt lat="48.568482" lon="7.79138">
        <ele>187.0</ele>
        <time>2020-07-11T10:59:51Z</time>
      </trkpt>
      <trkpt lat="48.568484" lon="7.791447">
        <ele>187.0</ele>
        <time>2020-07-11T10:59:53Z</time>
      </trkpt>
      <trkpt lat="48.568494" lon="7.791464">
        <ele>187.0</ele>
        <time>2020-07-11T10:59:55Z</time>
      </trkpt>
      <trkpt lat="48.56852" lon="7.791445">
        <ele>187.0</ele>
        <time>2020-07-11T10:59:57Z</time>
      </trkpt>
      <trkpt lat="48.568552" lon="7.791431">
        <ele>188.0</ele>
        <time>2020-07-11T10:59:59Z</time>
      </trkpt>
      <trkpt lat="48.568587" lon="7.791438">
        <ele>188.0</ele>
        <time>2020-07-11T11:00:01Z</time>
      </trkpt>
      <trkpt lat="48.56862" lon="7.791468">
        <ele>188.0</ele>
        <time>2020-07-11T11:00:03Z</time>
      </trkpt>
      <trkpt lat="48.568663" lon="7.791493">
        <ele>188.0</ele>
        <time>2020-07-11T11:00:05Z</time>
      </trkpt>
      <trkpt lat="48.56872" lon="7.791511">
        <ele>189.0</ele>
        <time>2020-07-11T11:00:07Z</time>
      </trkpt>
      <trkpt lat="48.568774" lon="7.791526">
        <ele>189.0</ele>
        <time>2020-07-11T11:00:09Z</time>
      </trkpt>
      <trkpt lat="48.568847" lon="7.791557">
        <ele>189.0</ele>
        <time>2020-07-11T11:00:12Z</time>
      </trkpt>
      <trkpt lat="48.568883" lon="7.791613">
        <ele>189.0</ele>
        <time>2020-07-11T11:00:14Z</time>
      </trkpt>
      <trkpt lat="48.568865" lon="7.791671">
        <ele>189.0</ele>
        <time>2020-07-11T11:00:16Z</time>
      </trkpt>
      <trkpt lat="48.568818" lon="7.791674">
        <ele>189.0</ele>
        <time>2020-07-11T11:00:18Z</time>
      </trkpt>
      <trkpt lat="48.568772" lon="7.791716">
        <ele>189.0</ele>
        <time>2020-07-11T11:00:20Z</time>
      </trkpt>
      <trkpt lat="48.568738" lon="7.791782">
        <ele>189.0</ele>
        <time>2020-07-11T11:00:22Z</time>
      </trkpt>
      <trkpt lat="48.568711" lon="7.791856">
        <ele>188.0</ele>
        <time>2020-07-11T11:00:24Z</time>
      </trkpt>
      <trkpt lat="48.568681" lon="7.791938">
        <ele>188.0</ele>
        <time>2020-07-11T11:00:26Z</time>
      </trkpt>
      <trkpt lat="48.568647" lon="7.792029">
        <ele>188.0</ele>
        <time>2020-07-11T11:00:28Z</time>
      </trkpt>
      <trkpt lat="48.568611" lon="7.792128">
        <ele>188.0</ele>
        <time>2020-07-11T11:00:30Z</time>
      </trkpt>
      <trkpt lat="48.568568" lon="7.792226">
        <ele>187.0</ele>
        <time>2020-07-11T11:00:32Z</time>
      </trkpt>
      <trkpt lat="48.568526" lon="7.792336">
        <ele>186.0</ele>
        <time>2020-07-11T11:00:34Z</time>
      </trkpt>
      <trkpt lat="48.568483" lon="7.792458">
        <ele>186.0</ele>
        <time>2020-07-11T11:00:36Z</time>
      </trkpt>
      <trkpt lat="48.568412" lon="7.792575">
        <ele>186.0</ele>
        <time>2020-07-11T11:00:38Z</time>
      </trkpt>
      <trkpt lat="48.568351" lon="7.79269">
        <ele>185.0</ele>
        <time>2020-07-11T11:00:40Z</time>
      </trkpt>
      <trkpt lat="48.568302" lon="7.792807">
        <ele>185.0</ele>
        <time>2020-07-11T11:00:42Z</time>
      </trkpt>
      <trkpt lat="48.568249" lon="7.792908">
        <ele>184.0</ele>
        <time>2020-07-11T11:00:44Z</time>
      </trkpt>
      <trkpt lat="48.568189" lon="7.79304">
        <ele>185.0</ele>
        <time>2020-07-11T11:00:46Z</time>
      </trkpt>
      <trkpt lat="48.568129" lon="7.793179">
        <ele>185.0</ele>
        <time>2020-07-11T11:00:48Z</time>
      </trkpt>
      <trkpt lat="48.568062" lon="7.793295">
        <ele>187.0</ele>
        <time>2020-07-11T11:00:50Z</time>
      </trkpt>
      <trkpt lat="48.568001" lon="7.79341">
        <ele>188.0</ele>
        <time>2020-07-11T11:00:52Z</time>
      </trkpt>
      <trkpt lat="48.567944" lon="7.79352">
        <ele>189.0</ele>
        <time>2020-07-11T11:00:54Z</time>
      </trkpt>
      <trkpt lat="48.567882" lon="7.79362">
        <ele>188.0</ele>
        <time>2020-07-11T11:00:56Z</time>
      </trkpt>
      <trkpt lat="48.567821" lon="7.793712">
        <ele>189.0</ele>
        <time>2020-07-11T11:00:58Z</time>
      </trkpt>
      <trkpt lat="48.567751" lon="7.79381">
        <ele>189.0</ele>
        <time>2020-07-11T11:01:00Z</time>
      </trkpt>
      <trkpt lat="48.567682" lon="7.793908">
        <ele>190.0</ele>
        <time>2020-07-11T11:01:02Z</time>
      </trkpt>
      <trkpt lat="48.567611" lon="7.794018">
        <ele>190.0</ele>
        <time>2020-07-11T11:01:04Z</time>
      </trkpt>
      <trkpt lat="48.567543" lon="7.794108">
        <ele>190.0</ele>
        <time>2020-07-11T11:01:06Z</time>
      </trkpt>
      <trkpt lat="48.567508" lon="7.794145">
        <ele>190.0</ele>
        <time>2020-07-11T11:01:08Z</time>
      </trkpt>
      <trkpt lat="48.567523" lon="7.794175">
        <ele>190.0</ele>
        <time>2020-07-11T11:01:10Z</time>
      </trkpt>
      <trkpt lat="48.567549" lon="7.794162">
        <ele>190.0</ele>
        <time>2020-07-11T11:01:12Z</time>
      </trkpt>
      <trkpt lat="48.567566" lon="7.794133">
        <ele>190.0</ele>
        <time>2020-07-11T11:01:14Z</time>
      </trkpt>
      <trkpt lat="48.567599" lon="7.794092">
        <ele>190.0</ele>
        <time>2020-07-11T11:01:16Z</time>
      </trkpt>
      <trkpt lat="48.567635" lon="7.794067">
        <ele>190.0</ele>
        <time>2020-07-11T11:01:18Z</time>
      </trkpt>
      <trkpt lat="48.567665" lon="7.79413">
        <ele>190.0</ele>
        <time>2020-07-11T11:01:20Z</time>
      </trkpt>
      <trkpt lat="48.567674" lon="7.794222">
        <ele>190.0</ele>
        <time>2020-07-11T11:01:22Z</time>
      </trkpt>
      <trkpt lat="48.567691" lon="7.794323">
        <ele>190.0</ele>
        <time>2020-07-11T11:01:24Z</time>
      </trkpt>
      <trkpt lat="48.567695" lon="7.794458">
        <ele>189.0</ele>
        <time>2020-07-11T11:01:26Z</time>
      </trkpt>
      <trkpt lat="48.56771" lon="7.794565">
        <ele>189.0</ele>
        <time>2020-07-11T11:01:28Z</time>
      </trkpt>
      <trkpt lat="48.56773" lon="7.794675">
        <ele>189.0</ele>
        <time>2020-07-11T11:01:30Z</time>
      </trkpt>
      <trkpt lat="48.567756" lon="7.794787">
        <ele>189.0</ele>
        <time>2020-07-11T11:01:32Z</time>
      </trkpt>
      <trkpt lat="48.567773" lon="7.794901">
        <ele>189.0</ele>
        <time>2020-07-11T11:01:34Z</time>
      </trkpt>
      <trkpt lat="48.567794" lon="7.795015">
        <ele>189.0</ele>
        <time>2020-07-11T11:01:36Z</time>
      </trkpt>
      <trkpt lat="48.567806" lon="7.795122">
        <ele>189.0</ele>
        <time>2020-07-11T11:01:38Z</time>
      </trkpt>
      <trkpt lat="48.567823" lon="7.795234">
        <ele>190.0</ele>
        <time>2020-07-11T11:01:40Z</time>
      </trkpt>
      <trkpt lat="48.567846" lon="7.795355">
        <ele>189.0</ele>
        <time>2020-07-11T11:01:42Z</time>
      </trkpt>
      <trkpt lat="48.56787" lon="7.795468">
        <ele>190.0</ele>
        <time>2020-07-11T11:01:44Z</time>
      </trkpt>
      <trkpt lat="48.567882" lon="7.795564">
        <ele>190.0</ele>
        <time>2020-07-11T11:01:46Z</time>
      </trkpt>
      <trkpt lat="48.567899" lon="7.79567">
        <ele>190.0</ele>
        <time>2020-07-11T11:01:48Z</time>
      </trkpt>
      <trkpt lat="48.567914" lon="7.795775">
        <ele>190.0</ele>
        <time>2020-07-11T11:01:50Z</time>
      </trkpt>
      <trkpt lat="48.567933" lon="7.795875">
        <ele>190.0</ele>
        <time>2020-07-11T11:01:52Z</time>
      </trkpt>
      <trkpt lat="48.567945" lon="7.795967">
        <ele>190.0</ele>
        <time>2020-07-11T11:01:54Z</time>
      </trkpt>
      <trkpt lat="48.567959" lon="7.796044">
        <ele>190.0</ele>
        <time>2020-07-11T11:01:56Z</time>
      </trkpt>
      <trkpt lat="48.567968" lon="7.796117">
        <ele>189.0</ele>
        <time>2020-07-11T11:01:58Z</time>
      </trkpt>
      <trkpt lat="48.567974" lon="7.796191">
        <ele>189.0</ele>
        <time>2020-07-11T11:02:00Z</time>
      </trkpt>
      <trkpt lat="48.567962" lon="7.796256">
        <ele>189.0</ele>
        <time>2020-07-11T11:02:02Z</time>
      </trkpt>
      <trkpt lat="48.567929" lon="7.796318">
        <ele>189.0</ele>
        <time>2020-07-11T11:02:04Z</time>
      </trkpt>
      <trkpt lat="48.56791" lon="7.796389">
        <ele>189.0</ele>
        <time>2020-07-11T11:02:06Z</time>
      </trkpt>
      <trkpt lat="48.567917" lon="7.796476">
        <ele>189.0</ele>
        <time>2020-07-11T11:02:08Z</time>
      </trkpt>
      <trkpt lat="48.567926" lon="7.796574">
        <ele>189.0</ele>
        <time>2020-07-11T11:02:10Z</time>
      </trkpt>
      <trkpt lat="48.567941" lon="7.796676">
        <ele>189.0</ele>
        <time>2020-07-11T11:02:12Z</time>
      </trkpt>
      <trkpt lat="48.567957" lon="7.79679">
        <ele>189.0</ele>
        <time>2020-07-11T11:02:14Z</time>
      </trkpt>
      <trkpt lat="48.567985" lon="7.796906">
        <ele>189.0</ele>
        <time>2020-07-11T11:02:16Z</time>
      </trkpt>
      <trkpt lat="48.568001" lon="7.797017">
        <ele>188.0</ele>
        <time>2020-07-11T11:02:18Z</time>
      </trkpt>
      <trkpt lat="48.568033" lon="7.797139">
        <ele>188.0</ele>
        <time>2020-07-11T11:02:20Z</time>
      </trkpt>
      <trkpt lat="48.568054" lon="7.797251">
        <ele>188.0</ele>
        <time>2020-07-11T11:02:22Z</time>
      </trkpt>
      <trkpt lat="48.568071" lon="7.797364">
        <ele>189.0</ele>
        <time>2020-07-11T11:02:24Z</time>
      </trkpt>
      <trkpt lat="48.568088" lon="7.79747">
        <ele>189.0</ele>
        <time>2020-07-11T11:02:26Z</time>
      </trkpt>
      <trkpt lat="48.568104" lon="7.797574">
        <ele>189.0</ele>
        <time>2020-07-11T11:02:28Z</time>
      </trkpt>
      <trkpt lat="48.568116" lon="7.797677">
        <ele>189.0</ele>
        <time>2020-07-11T11:02:30Z</time>
      </trkpt>
      <trkpt lat="48.568136" lon="7.797782">
        <ele>188.0</ele>
        <time>2020-07-11T11:02:32Z</time>
      </trkpt>
      <trkpt lat="48.568152" lon="7.797891">
        <ele>189.0</ele>
        <time>2020-07-11T11:02:34Z</time>
      </trkpt>
      <trkpt lat="48.568165" lon="7.798004">
        <ele>188.0</ele>
        <time>2020-07-11T11:02:36Z</time>
      </trkpt>
      <trkpt lat="48.568183" lon="7.798108">
        <ele>187.0</ele>
        <time>2020-07-11T11:02:38Z</time>
      </trkpt>
      <trkpt lat="48.568197" lon="7.79821">
        <ele>187.0</ele>
        <time>2020-07-11T11:02:40Z</time>
      </trkpt>
      <trkpt lat="48.568213" lon="7.798308">
        <ele>187.0</ele>
        <time>2020-07-11T11:02:42Z</time>
      </trkpt>
      <trkpt lat="48.568228" lon="7.798403">
        <ele>187.0</ele>
        <time>2020-07-11T11:02:44Z</time>
      </trkpt>
      <trkpt lat="48.56825" lon="7.798492">
        <ele>187.0</ele>
        <time>2020-07-11T11:02:46Z</time>
      </trkpt>
      <trkpt lat="48.568291" lon="7.798567">
        <ele>187.0</ele>
        <time>2020-07-11T11:02:48Z</time>
      </trkpt>
      <trkpt lat="48.568339" lon="7.79863">
        <ele>187.0</ele>
        <time>2020-07-11T11:02:50Z</time>
      </trkpt>
      <trkpt lat="48.568383" lon="7.798693">
        <ele>187.0</ele>
        <time>2020-07-11T11:02:52Z</time>
      </trkpt>
      <trkpt lat="48.568444" lon="7.798797">
        <ele>188.0</ele>
        <time>2020-07-11T11:02:55Z</time>
      </trkpt>
      <trkpt lat="48.568474" lon="7.798823">
        <ele>188.0</ele>
        <time>2020-07-11T11:02:56Z</time>
      </trkpt>
      <trkpt lat="48.568533" lon="7.798933">
        <ele>187.0</ele>
        <time>2020-07-11T11:02:59Z</time>
      </trkpt>
      <trkpt lat="48.568554" lon="7.799022">
        <ele>187.0</ele>
        <time>2020-07-11T11:03:01Z</time>
      </trkpt>
      <trkpt lat="48.568565" lon="7.79912">
        <ele>187.0</ele>
        <time>2020-07-11T11:03:03Z</time>
      </trkpt>
      <trkpt lat="48.568579" lon="7.799209">
        <ele>186.0</ele>
        <time>2020-07-11T11:03:05Z</time>
      </trkpt>
      <trkpt lat="48.568594" lon="7.799301">
        <ele>186.0</ele>
        <time>2020-07-11T11:03:07Z</time>
      </trkpt>
      <trkpt lat="48.56861" lon="7.79939">
        <ele>187.0</ele>
        <time>2020-07-11T11:03:09Z</time>
      </trkpt>
      <trkpt lat="48.56862" lon="7.799487">
        <ele>187.0</ele>
        <time>2020-07-11T11:03:11Z</time>
      </trkpt>
      <trkpt lat="48.568627" lon="7.799582">
        <ele>187.0</ele>
        <time>2020-07-11T11:03:13Z</time>
      </trkpt>
      <trkpt lat="48.56864" lon="7.799676">
        <ele>187.0</ele>
        <time>2020-07-11T11:03:15Z</time>
      </trkpt>
      <trkpt lat="48.568658" lon="7.799769">
        <ele>187.0</ele>
        <time>2020-07-11T11:03:17Z</time>
      </trkpt>
      <trkpt lat="48.568672" lon="7.799848">
        <ele>187.0</ele>
        <time>2020-07-11T11:03:19Z</time>
      </trkpt>
      <trkpt lat="48.568689" lon="7.799926">
        <ele>187.0</ele>
        <time>2020-07-11T11:03:21Z</time>
      </trkpt>
      <trkpt lat="48.568699" lon="7.800002">
        <ele>187.0</ele>
        <time>2020-07-11T11:03:23Z</time>
      </trkpt>
      <trkpt lat="48.568691" lon="7.800071">
        <ele>188.0</ele>
        <time>2020-07-11T11:03:25Z</time>
      </trkpt>
      <trkpt lat="48.568666" lon="7.800119">
        <ele>188.0</ele>
        <time>2020-07-11T11:03:27Z</time>
      </trkpt>
      <trkpt lat="48.568646" lon="7.800168">
        <ele>187.0</ele>
        <time>2020-07-11T11:03:29Z</time>
      </trkpt>
      <trkpt lat="48.568623" lon="7.800209">
        <ele>187.0</ele>
        <time>2020-07-11T11:03:31Z</time>
      </trkpt>
      <trkpt lat="48.56863" lon="7.800265">
        <ele>187.0</ele>
        <time>2020-07-11T11:03:33Z</time>
      </trkpt>
      <trkpt lat="48.568642" lon="7.80033">
        <ele>186.0</ele>
        <time>2020-07-11T11:03:35Z</time>
      </trkpt>
      <trkpt lat="48.568657" lon="7.800408">
        <ele>186.0</ele>
        <time>2020-07-11T11:03:37Z</time>
      </trkpt>
      <trkpt lat="48.56868" lon="7.800473">
        <ele>187.0</ele>
        <time>2020-07-11T11:03:39Z</time>
      </trkpt>
      <trkpt lat="48.568697" lon="7.800544">
        <ele>187.0</ele>
        <time>2020-07-11T11:03:41Z</time>
      </trkpt>
      <trkpt lat="48.568711" lon="7.800629">
        <ele>187.0</ele>
        <time>2020-07-11T11:03:43Z</time>
      </trkpt>
      <trkpt lat="48.568718" lon="7.800719">
        <ele>187.0</ele>
        <time>2020-07-11T11:03:45Z</time>
      </trkpt>
      <trkpt lat="48.568725" lon="7.800798">
        <ele>188.0</ele>
        <time>2020-07-11T11:03:47Z</time>
      </trkpt>
      <trkpt lat="48.568735" lon="7.800881">
        <ele>188.0</ele>
        <time>2020-07-11T11:03:49Z</time>
      </trkpt>
      <trkpt lat="48.568752" lon="7.800967">
        <ele>189.0</ele>
        <time>2020-07-11T11:03:51Z</time>
      </trkpt>
      <trkpt lat="48.568768" lon="7.801046">
        <ele>189.0</ele>
        <time>2020-07-11T11:03:53Z</time>
      </trkpt>
      <trkpt lat="48.56878" lon="7.801123">
        <ele>190.0</ele>
        <time>2020-07-11T11:03:55Z</time>
      </trkpt>
      <trkpt lat="48.568791" lon="7.801201">
        <ele>190.0</ele>
        <time>2020-07-11T11:03:57Z</time>
      </trkpt>
      <trkpt lat="48.568803" lon="7.801278">
        <ele>190.0</ele>
        <time>2020-07-11T11:03:59Z</time>
      </trkpt>
      <trkpt lat="48.568809" lon="7.801353">
        <ele>190.0</ele>
        <time>2020-07-11T11:04:01Z</time>
      </trkpt>
      <trkpt lat="48.56882" lon="7.801428">
        <ele>191.0</ele>
        <time>2020-07-11T11:04:03Z</time>
      </trkpt>
      <trkpt lat="48.568836" lon="7.801503">
        <ele>191.0</ele>
        <time>2020-07-11T11:04:05Z</time>
      </trkpt>
      <trkpt lat="48.568853" lon="7.801575">
        <ele>191.0</ele>
        <time>2020-07-11T11:04:07Z</time>
      </trkpt>
      <trkpt lat="48.568861" lon="7.801654">
        <ele>192.0</ele>
        <time>2020-07-11T11:04:09Z</time>
      </trkpt>
      <trkpt lat="48.568876" lon="7.801725">
        <ele>192.0</ele>
        <time>2020-07-11T11:04:11Z</time>
      </trkpt>
      <trkpt lat="48.568878" lon="7.8018">
        <ele>192.0</ele>
        <time>2020-07-11T11:04:13Z</time>
      </trkpt>
      <trkpt lat="48.568875" lon="7.801879">
        <ele>192.0</ele>
        <time>2020-07-11T11:04:15Z</time>
      </trkpt>
      <trkpt lat="48.568878" lon="7.801954">
        <ele>193.0</ele>
        <time>2020-07-11T11:04:17Z</time>
      </trkpt>
      <trkpt lat="48.568878" lon="7.802031">
        <ele>193.0</ele>
        <time>2020-07-11T11:04:19Z</time>
      </trkpt>
      <trkpt lat="48.568878" lon="7.802109">
        <ele>193.0</ele>
        <time>2020-07-11T11:04:21Z</time>
      </trkpt>
      <trkpt lat="48.568883" lon="7.802186">
        <ele>193.0</ele>
        <time>2020-07-11T11:04:23Z</time>
      </trkpt>
      <trkpt lat="48.568887" lon="7.80226">
        <ele>193.0</ele>
        <time>2020-07-11T11:04:25Z</time>
      </trkpt>
      <trkpt lat="48.568895" lon="7.802336">
        <ele>194.0</ele>
        <time>2020-07-11T11:04:27Z</time>
      </trkpt>
      <trkpt lat="48.568893" lon="7.802399">
        <ele>195.0</ele>
        <time>2020-07-11T11:04:29Z</time>
      </trkpt>
      <trkpt lat="48.568897" lon="7.802473">
        <ele>195.0</ele>
        <time>2020-07-11T11:04:31Z</time>
      </trkpt>
      <trkpt lat="48.568907" lon="7.802546">
        <ele>196.0</ele>
        <time>2020-07-11T11:04:33Z</time>
      </trkpt>
      <trkpt lat="48.568923" lon="7.802636">
        <ele>196.0</ele>
        <time>2020-07-11T11:04:35Z</time>
      </trkpt>
      <trkpt lat="48.568932" lon="7.802718">
        <ele>196.0</ele>
        <time>2020-07-11T11:04:37Z</time>
      </trkpt>
      <trkpt lat="48.568943" lon="7.802796">
        <ele>196.0</ele>
        <time>2020-07-11T11:04:39Z</time>
      </trkpt>
      <trkpt lat="48.568951" lon="7.802869">
        <ele>197.0</ele>
        <time>2020-07-11T11:04:41Z</time>
      </trkpt>
      <trkpt lat="48.568956" lon="7.802935">
        <ele>198.0</ele>
        <time>2020-07-11T11:04:43Z</time>
      </trkpt>
      <trkpt lat="48.568957" lon="7.80301">
        <ele>197.0</ele>
        <time>2020-07-11T11:04:45Z</time>
      </trkpt>
      <trkpt lat="48.568956" lon="7.80308">
        <ele>196.0</ele>
        <time>2020-07-11T11:04:47Z</time>
      </trkpt>
      <trkpt lat="48.568961" lon="7.803167">
        <ele>196.0</ele>
        <time>2020-07-11T11:04:49Z</time>
      </trkpt>
      <trkpt lat="48.568981" lon="7.803255">
        <ele>197.0</ele>
        <time>2020-07-11T11:04:51Z</time>
      </trkpt>
      <trkpt lat="48.568998" lon="7.803337">
        <ele>198.0</ele>
        <time>2020-07-11T11:04:53Z</time>
      </trkpt>
      <trkpt lat="48.569013" lon="7.80342">
        <ele>198.0</ele>
        <time>2020-07-11T11:04:55Z</time>
      </trkpt>
      <trkpt lat="48.569024" lon="7.803507">
        <ele>198.0</ele>
        <time>2020-07-11T11:04:57Z</time>
      </trkpt>
      <trkpt lat="48.569039" lon="7.80358">
        <ele>198.0</ele>
        <time>2020-07-11T11:04:59Z</time>
      </trkpt>
      <trkpt lat="48.569056" lon="7.803658">
        <ele>198.0</ele>
        <time>2020-07-11T11:05:01Z</time>
      </trkpt>
      <trkpt lat="48.569066" lon="7.803741">
        <ele>198.0</ele>
        <time>2020-07-11T11:05:03Z</time>
      </trkpt>
      <trkpt lat="48.56908" lon="7.803824">
        <ele>198.0</ele>
        <time>2020-07-11T11:05:05Z</time>
      </trkpt>
      <trkpt lat="48.569095" lon="7.80391">
        <ele>198.0</ele>
        <time>2020-07-11T11:05:07Z</time>
      </trkpt>
      <trkpt lat="48.56911" lon="7.803995">
        <ele>199.0</ele>
        <time>2020-07-11T11:05:09Z</time>
      </trkpt>
      <trkpt lat="48.569125" lon="7.804089">
        <ele>198.0</ele>
        <time>2020-07-11T11:05:11Z</time>
      </trkpt>
      <trkpt lat="48.569144" lon="7.804188">
        <ele>198.0</ele>
        <time>2020-07-11T11:05:13Z</time>
      </trkpt>
      <trkpt lat="48.569158" lon="7.804286">
        <ele>198.0</ele>
        <time>2020-07-11T11:05:15Z</time>
      </trkpt>
      <trkpt lat="48.569176" lon="7.804388">
        <ele>198.0</ele>
        <time>2020-07-11T11:05:17Z</time>
      </trkpt>
      <trkpt lat="48.569205" lon="7.804515">
        <ele>196.0</ele>
        <time>2020-07-11T11:05:19Z</time>
      </trkpt>
      <trkpt lat="48.569233" lon="7.804636">
        <ele>196.0</ele>
        <time>2020-07-11T11:05:21Z</time>
      </trkpt>
      <trkpt lat="48.569268" lon="7.804753">
        <ele>195.0</ele>
        <time>2020-07-11T11:05:23Z</time>
      </trkpt>
      <trkpt lat="48.569299" lon="7.804866">
        <ele>195.0</ele>
        <time>2020-07-11T11:05:25Z</time>
      </trkpt>
      <trkpt lat="48.569326" lon="7.804964">
        <ele>195.0</ele>
        <time>2020-07-11T11:05:27Z</time>
      </trkpt>
      <trkpt lat="48.569355" lon="7.805061">
        <ele>194.0</ele>
        <time>2020-07-11T11:05:29Z</time>
      </trkpt>
      <trkpt lat="48.569381" lon="7.805163">
        <ele>194.0</ele>
        <time>2020-07-11T11:05:31Z</time>
      </trkpt>
      <trkpt lat="48.569407" lon="7.805266">
        <ele>194.0</ele>
        <time>2020-07-11T11:05:33Z</time>
      </trkpt>
      <trkpt lat="48.569449" lon="7.805385">
        <ele>194.0</ele>
        <time>2020-07-11T11:05:35Z</time>
      </trkpt>
      <trkpt lat="48.569494" lon="7.805535">
        <ele>192.0</ele>
        <time>2020-07-11T11:05:38Z</time>
      </trkpt>
      <trkpt lat="48.569516" lon="7.805618">
        <ele>192.0</ele>
        <time>2020-07-11T11:05:40Z</time>
      </trkpt>
      <trkpt lat="48.569525" lon="7.805662">
        <ele>191.0</ele>
        <time>2020-07-11T11:05:41Z</time>
      </trkpt>
      <trkpt lat="48.569556" lon="7.805851">
        <ele>190.0</ele>
        <time>2020-07-11T11:05:44Z</time>
      </trkpt>
      <trkpt lat="48.569582" lon="7.805994">
        <ele>190.0</ele>
        <time>2020-07-11T11:05:46Z</time>
      </trkpt>
      <trkpt lat="48.569607" lon="7.806108">
        <ele>190.0</ele>
        <time>2020-07-11T11:05:48Z</time>
      </trkpt>
      <trkpt lat="48.569622" lon="7.806192">
        <ele>190.0</ele>
        <time>2020-07-11T11:05:50Z</time>
      </trkpt>
      <trkpt lat="48.569617" lon="7.806249">
        <ele>190.0</ele>
        <time>2020-07-11T11:05:52Z</time>
      </trkpt>
      <trkpt lat="48.569584" lon="7.806215">
        <ele>189.0</ele>
        <time>2020-07-11T11:05:54Z</time>
      </trkpt>
      <trkpt lat="48.569558" lon="7.806171">
        <ele>189.0</ele>
        <time>2020-07-11T11:05:56Z</time>
      </trkpt>
      <trkpt lat="48.569535" lon="7.806135">
        <ele>189.0</ele>
        <time>2020-07-11T11:05:58Z</time>
      </trkpt>
      <trkpt lat="48.569518" lon="7.806078">
        <ele>189.0</ele>
        <time>2020-07-11T11:06:00Z</time>
      </trkpt>
      <trkpt lat="48.569501" lon="7.806004">
        <ele>189.0</ele>
        <time>2020-07-11T11:06:02Z</time>
      </trkpt>
      <trkpt lat="48.569479" lon="7.805913">
        <ele>188.0</ele>
        <time>2020-07-11T11:06:04Z</time>
      </trkpt>
      <trkpt lat="48.569451" lon="7.805796">
        <ele>188.0</ele>
        <time>2020-07-11T11:06:06Z</time>
      </trkpt>
      <trkpt lat="48.569426" lon="7.805672">
        <ele>188.0</ele>
        <time>2020-07-11T11:06:08Z</time>
      </trkpt>
      <trkpt lat="48.569403" lon="7.805553">
        <ele>187.0</ele>
        <time>2020-07-11T11:06:10Z</time>
      </trkpt>
      <trkpt lat="48.569391" lon="7.805433">
        <ele>186.0</ele>
        <time>2020-07-11T11:06:12Z</time>
      </trkpt>
      <trkpt lat="48.569379" lon="7.805346">
        <ele>186.0</ele>
        <time>2020-07-11T11:06:14Z</time>
      </trkpt>
      <trkpt lat="48.569356" lon="7.805311">
        <ele>187.0</ele>
        <time>2020-07-11T11:06:16Z</time>
      </trkpt>
      <trkpt lat="48.569297" lon="7.805323">
        <ele>186.0</ele>
        <time>2020-07-11T11:06:18Z</time>
      </trkpt>
      <trkpt lat="48.569232" lon="7.805344">
        <ele>186.0</ele>
        <time>2020-07-11T11:06:20Z</time>
      </trkpt>
      <trkpt lat="48.569171" lon="7.805357">
        <ele>186.0</ele>
        <time>2020-07-11T11:06:22Z</time>
      </trkpt>
      <trkpt lat="48.569104" lon="7.805397">
        <ele>185.0</ele>
        <time>2020-07-11T11:06:24Z</time>
      </trkpt>
      <trkpt lat="48.56904" lon="7.805452">
        <ele>184.0</ele>
        <time>2020-07-11T11:06:26Z</time>
      </trkpt>
      <trkpt lat="48.568973" lon="7.805508">
        <ele>184.0</ele>
        <time>2020-07-11T11:06:28Z</time>
      </trkpt>
      <trkpt lat="48.568917" lon="7.805554">
        <ele>185.0</ele>
        <time>2020-07-11T11:06:30Z</time>
      </trkpt>
      <trkpt lat="48.568863" lon="7.805583">
        <ele>185.0</ele>
        <time>2020-07-11T11:06:32Z</time>
      </trkpt>
      <trkpt lat="48.568811" lon="7.805606">
        <ele>184.0</ele>
        <time>2020-07-11T11:06:34Z</time>
      </trkpt>
      <trkpt lat="48.568763" lon="7.805622">
        <ele>184.0</ele>
        <time>2020-07-11T11:06:36Z</time>
      </trkpt>
      <trkpt lat="48.568711" lon="7.805617">
        <ele>184.0</ele>
        <time>2020-07-11T11:06:38Z</time>
      </trkpt>
      <trkpt lat="48.568674" lon="7.805575">
        <ele>183.0</ele>
        <time>2020-07-11T11:06:40Z</time>
      </trkpt>
      <trkpt lat="48.568645" lon="7.805537">
        <ele>184.0</ele>
        <time>2020-07-11T11:06:42Z</time>
      </trkpt>
      <trkpt lat="48.568626" lon="7.805511">
        <ele>184.0</ele>
        <time>2020-07-11T11:06:44Z</time>
      </trkpt>
      <trkpt lat="48.568619" lon="7.805515">
        <ele>184.0</ele>
        <time>2020-07-11T11:06:46Z</time>
      </trkpt>
      <trkpt lat="48.568625" lon="7.805518">
        <ele>184.0</ele>
        <time>2020-07-11T11:06:48Z</time>
      </trkpt>
      <trkpt lat="48.568628" lon="7.805516">
        <ele>184.0</ele>
        <time>2020-07-11T11:06:50Z</time>
      </trkpt>
      <trkpt lat="48.568627" lon="7.805518">
        <ele>184.0</ele>
        <time>2020-07-11T11:06:52Z</time>
      </trkpt>
      <trkpt lat="48.568624" lon="7.805522">
        <ele>183.0</ele>
        <time>2020-07-11T11:07:22Z</time>
      </trkpt>
      <trkpt lat="48.568624" lon="7.805522">
        <ele>183.0</ele>
        <time>2020-07-11T11:07:24Z</time>
      </trkpt>
      <trkpt lat="48.568624" lon="7.805522">
        <ele>183.0</ele>
        <time>2020-07-11T11:07:26Z</time>
      </trkpt>
      <trkpt lat="48.568624" lon="7.805522">
        <ele>183.0</ele>
        <time>2020-07-11T11:07:28Z</time>
      </trkpt>
      <trkpt lat="48.568624" lon="7.805522">
        <ele>183.0</ele>
        <time>2020-07-11T11:07:30Z</time>
      </trkpt>
      <trkpt lat="48.568624" lon="7.805522">
        <ele>183.0</ele>
        <time>2020-07-11T11:07:32Z</time>
      </trkpt>
      <trkpt lat="48.568624" lon="7.805522">
        <ele>183.0</ele>
        <time>2020-07-11T11:07:34Z</time>
      </trkpt>
      <trkpt lat="48.568624" lon="7.805522">
        <ele>183.0</ele>
        <time>2020-07-11T11:07:36Z</time>
      </trkpt>
      <trkpt lat="48.568624" lon="7.805522">
        <ele>183.0</ele>
        <time>2020-07-11T11:07:38Z</time>
      </trkpt>
      <trkpt lat="48.568624" lon="7.805522">
        <ele>183.0</ele>
        <time>2020-07-11T11:07:40Z</time>
      </trkpt>
      <trkpt lat="48.568624" lon="7.805522">
        <ele>183.0</ele>
        <time>2020-07-11T11:07:42Z</time>
      </trkpt>
      <trkpt lat="48.568624" lon="7.805514">
        <ele>184.0</ele>
        <time>2020-07-11T11:07:44Z</time>
      </trkpt>
      <trkpt lat="48.568605" lon="7.805541">
        <ele>185.0</ele>
        <time>2020-07-11T11:07:46Z</time>
      </trkpt>
      <trkpt lat="48.568552" lon="7.805609">
        <ele>184.0</ele>
        <time>2020-07-11T11:07:49Z</time>
      </trkpt>
      <trkpt lat="48.568507" lon="7.80566">
        <ele>184.0</ele>
        <time>2020-07-11T11:07:51Z</time>
      </trkpt>
      <trkpt lat="48.568412" lon="7.805705">
        <ele>184.0</ele>
        <time>2020-07-11T11:07:53Z</time>
      </trkpt>
      <trkpt lat="48.568307" lon="7.805735">
        <ele>185.0</ele>
        <time>2020-07-11T11:07:55Z</time>
      </trkpt>
      <trkpt lat="48.568205" lon="7.80576">
        <ele>185.0</ele>
        <time>2020-07-11T11:07:57Z</time>
      </trkpt>
      <trkpt lat="48.56811" lon="7.8058">
        <ele>185.0</ele>
        <time>2020-07-11T11:07:59Z</time>
      </trkpt>
      <trkpt lat="48.56801" lon="7.805837">
        <ele>186.0</ele>
        <time>2020-07-11T11:08:01Z</time>
      </trkpt>
      <trkpt lat="48.567907" lon="7.805863">
        <ele>186.0</ele>
        <time>2020-07-11T11:08:03Z</time>
      </trkpt>
      <trkpt lat="48.567805" lon="7.80589">
        <ele>186.0</ele>
        <time>2020-07-11T11:08:05Z</time>
      </trkpt>
      <trkpt lat="48.567703" lon="7.805917">
        <ele>186.0</ele>
        <time>2020-07-11T11:08:07Z</time>
      </trkpt>
      <trkpt lat="48.567604" lon="7.805959">
        <ele>186.0</ele>
        <time>2020-07-11T11:08:09Z</time>
      </trkpt>
      <trkpt lat="48.567499" lon="7.805994">
        <ele>186.0</ele>
        <time>2020-07-11T11:08:11Z</time>
      </trkpt>
      <trkpt lat="48.567398" lon="7.806038">
        <ele>187.0</ele>
        <time>2020-07-11T11:08:13Z</time>
      </trkpt>
      <trkpt lat="48.567306" lon="7.806081">
        <ele>187.0</ele>
        <time>2020-07-11T11:08:15Z</time>
      </trkpt>
      <trkpt lat="48.567202" lon="7.806107">
        <ele>187.0</ele>
        <time>2020-07-11T11:08:17Z</time>
      </trkpt>
      <trkpt lat="48.567099" lon="7.806122">
        <ele>187.0</ele>
        <time>2020-07-11T11:08:19Z</time>
      </trkpt>
      <trkpt lat="48.566997" lon="7.806127">
        <ele>187.0</ele>
        <time>2020-07-11T11:08:21Z</time>
      </trkpt>
      <trkpt lat="48.566896" lon="7.806128">
        <ele>186.0</ele>
        <time>2020-07-11T11:08:23Z</time>
      </trkpt>
      <trkpt lat="48.566794" lon="7.806148">
        <ele>185.0</ele>
        <time>2020-07-11T11:08:25Z</time>
      </trkpt>
      <trkpt lat="48.566688" lon="7.80619">
        <ele>185.0</ele>
        <time>2020-07-11T11:08:27Z</time>
      </trkpt>
      <trkpt lat="48.566594" lon="7.80624">
        <ele>185.0</ele>
        <time>2020-07-11T11:08:29Z</time>
      </trkpt>
      <trkpt lat="48.566499" lon="7.806269">
        <ele>185.0</ele>
        <time>2020-07-11T11:08:31Z</time>
      </trkpt>
      <trkpt lat="48.566399" lon="7.806291">
        <ele>185.0</ele>
        <time>2020-07-11T11:08:33Z</time>
      </trkpt>
      <trkpt lat="48.566308" lon="7.806307">
        <ele>185.0</ele>
        <time>2020-07-11T11:08:35Z</time>
      </trkpt>
      <trkpt lat="48.56621" lon="7.806323">
        <ele>184.0</ele>
        <time>2020-07-11T11:08:37Z</time>
      </trkpt>
      <trkpt lat="48.566112" lon="7.806335">
        <ele>184.0</ele>
        <time>2020-07-11T11:08:39Z</time>
      </trkpt>
      <trkpt lat="48.566014" lon="7.806349">
        <ele>185.0</ele>
        <time>2020-07-11T11:08:41Z</time>
      </trkpt>
      <trkpt lat="48.565925" lon="7.806363">
        <ele>185.0</ele>
        <time>2020-07-11T11:08:43Z</time>
      </trkpt>
      <trkpt lat="48.565827" lon="7.806388">
        <ele>184.0</ele>
        <time>2020-07-11T11:08:45Z</time>
      </trkpt>
      <trkpt lat="48.565728" lon="7.806401">
        <ele>185.0</ele>
        <time>2020-07-11T11:08:47Z</time>
      </trkpt>
      <trkpt lat="48.565634" lon="7.806424">
        <ele>185.0</ele>
        <time>2020-07-11T11:08:49Z</time>
      </trkpt>
      <trkpt lat="48.565542" lon="7.806444">
        <ele>185.0</ele>
        <time>2020-07-11T11:08:51Z</time>
      </trkpt>
      <trkpt lat="48.565452" lon="7.806466">
        <ele>184.0</ele>
        <time>2020-07-11T11:08:53Z</time>
      </trkpt>
      <trkpt lat="48.565361" lon="7.806484">
        <ele>184.0</ele>
        <time>2020-07-11T11:08:55Z</time>
      </trkpt>
      <trkpt lat="48.565266" lon="7.806503">
        <ele>184.0</ele>
        <time>2020-07-11T11:08:57Z</time>
      </trkpt>
      <trkpt lat="48.565175" lon="7.806526">
        <ele>184.0</ele>
        <time>2020-07-11T11:08:59Z</time>
      </trkpt>
      <trkpt lat="48.565092" lon="7.806558">
        <ele>184.0</ele>
        <time>2020-07-11T11:09:01Z</time>
      </trkpt>
      <trkpt lat="48.565003" lon="7.806579">
        <ele>184.0</ele>
        <time>2020-07-11T11:09:03Z</time>
      </trkpt>
      <trkpt lat="48.564911" lon="7.806595">
        <ele>184.0</ele>
        <time>2020-07-11T11:09:05Z</time>
      </trkpt>
      <trkpt lat="48.564822" lon="7.806613">
        <ele>184.0</ele>
        <time>2020-07-11T11:09:07Z</time>
      </trkpt>
      <trkpt lat="48.564735" lon="7.806625">
        <ele>184.0</ele>
        <time>2020-07-11T11:09:09Z</time>
      </trkpt>
      <trkpt lat="48.564641" lon="7.80664">
        <ele>184.0</ele>
        <time>2020-07-11T11:09:11Z</time>
      </trkpt>
      <trkpt lat="48.564559" lon="7.806668">
        <ele>184.0</ele>
        <time>2020-07-11T11:09:13Z</time>
      </trkpt>
      <trkpt lat="48.564484" lon="7.806696">
        <ele>184.0</ele>
        <time>2020-07-11T11:09:15Z</time>
      </trkpt>
      <trkpt lat="48.56442" lon="7.806693">
        <ele>184.0</ele>
        <time>2020-07-11T11:09:17Z</time>
      </trkpt>
      <trkpt lat="48.564356" lon="7.806677">
        <ele>185.0</ele>
        <time>2020-07-11T11:09:19Z</time>
      </trkpt>
      <trkpt lat="48.564287" lon="7.806693">
        <ele>184.0</ele>
        <time>2020-07-11T11:09:21Z</time>
      </trkpt>
      <trkpt lat="48.564212" lon="7.806709">
        <ele>185.0</ele>
        <time>2020-07-11T11:09:23Z</time>
      </trkpt>
      <trkpt lat="48.564139" lon="7.806719">
        <ele>185.0</ele>
        <time>2020-07-11T11:09:25Z</time>
      </trkpt>
      <trkpt lat="48.564063" lon="7.806717">
        <ele>185.0</ele>
        <time>2020-07-11T11:09:27Z</time>
      </trkpt>
      <trkpt lat="48.563979" lon="7.806705">
        <ele>184.0</ele>
        <time>2020-07-11T11:09:29Z</time>
      </trkpt>
      <trkpt lat="48.563895" lon="7.806703">
        <ele>184.0</ele>
        <time>2020-07-11T11:09:31Z</time>
      </trkpt>
      <trkpt lat="48.563815" lon="7.806724">
        <ele>184.0</ele>
        <time>2020-07-11T11:09:33Z</time>
      </trkpt>
      <trkpt lat="48.563743" lon="7.806731">
        <ele>183.0</ele>
        <time>2020-07-11T11:09:35Z</time>
      </trkpt>
      <trkpt lat="48.563664" lon="7.806745">
        <ele>184.0</ele>
        <time>2020-07-11T11:09:37Z</time>
      </trkpt>
      <trkpt lat="48.563587" lon="7.806743">
        <ele>184.0</ele>
        <time>2020-07-11T11:09:39Z</time>
      </trkpt>
      <trkpt lat="48.56353" lon="7.806746">
        <ele>184.0</ele>
        <time>2020-07-11T11:09:41Z</time>
      </trkpt>
      <trkpt lat="48.563502" lon="7.806757">
        <ele>184.0</ele>
        <time>2020-07-11T11:09:43Z</time>
      </trkpt>
      <trkpt lat="48.563522" lon="7.806776">
        <ele>184.0</ele>
        <time>2020-07-11T11:09:45Z</time>
      </trkpt>
      <trkpt lat="48.563548" lon="7.806763">
        <ele>184.0</ele>
        <time>2020-07-11T11:09:47Z</time>
      </trkpt>
      <trkpt lat="48.56359" lon="7.806752">
        <ele>184.0</ele>
        <time>2020-07-11T11:09:49Z</time>
      </trkpt>
      <trkpt lat="48.563637" lon="7.80675">
        <ele>184.0</ele>
        <time>2020-07-11T11:09:51Z</time>
      </trkpt>
      <trkpt lat="48.563695" lon="7.806758">
        <ele>184.0</ele>
        <time>2020-07-11T11:09:53Z</time>
      </trkpt>
      <trkpt lat="48.563763" lon="7.806752">
        <ele>184.0</ele>
        <time>2020-07-11T11:09:55Z</time>
      </trkpt>
      <trkpt lat="48.563833" lon="7.806744">
        <ele>184.0</ele>
        <time>2020-07-11T11:09:57Z</time>
      </trkpt>
      <trkpt lat="48.563905" lon="7.806729">
        <ele>184.0</ele>
        <time>2020-07-11T11:09:59Z</time>
      </trkpt>
      <trkpt lat="48.563972" lon="7.806721">
        <ele>185.0</ele>
        <time>2020-07-11T11:10:01Z</time>
      </trkpt>
      <trkpt lat="48.564037" lon="7.806716">
        <ele>185.0</ele>
        <time>2020-07-11T11:10:03Z</time>
      </trkpt>
      <trkpt lat="48.564098" lon="7.806699">
        <ele>185.0</ele>
        <time>2020-07-11T11:10:05Z</time>
      </trkpt>
      <trkpt lat="48.564155" lon="7.806692">
        <ele>186.0</ele>
        <time>2020-07-11T11:10:07Z</time>
      </trkpt>
      <trkpt lat="48.564216" lon="7.806689">
        <ele>185.0</ele>
        <time>2020-07-11T11:10:09Z</time>
      </trkpt>
      <trkpt lat="48.564284" lon="7.806681">
        <ele>185.0</ele>
        <time>2020-07-11T11:10:11Z</time>
      </trkpt>
      <trkpt lat="48.564358" lon="7.806668">
        <ele>185.0</ele>
        <time>2020-07-11T11:10:13Z</time>
      </trkpt>
      <trkpt lat="48.564432" lon="7.806657">
        <ele>184.0</ele>
        <time>2020-07-11T11:10:15Z</time>
      </trkpt>
      <trkpt lat="48.564507" lon="7.806658">
        <ele>184.0</ele>
        <time>2020-07-11T11:10:17Z</time>
      </trkpt>
      <trkpt lat="48.564584" lon="7.806663">
        <ele>184.0</ele>
        <time>2020-07-11T11:10:19Z</time>
      </trkpt>
      <trkpt lat="48.56466" lon="7.806654">
        <ele>185.0</ele>
        <time>2020-07-11T11:10:21Z</time>
      </trkpt>
      <trkpt lat="48.564735" lon="7.806633">
        <ele>184.0</ele>
        <time>2020-07-11T11:10:23Z</time>
      </trkpt>
      <trkpt lat="48.564814" lon="7.806626">
        <ele>184.0</ele>
        <time>2020-07-11T11:10:25Z</time>
      </trkpt>
      <trkpt lat="48.564885" lon="7.806599">
        <ele>185.0</ele>
        <time>2020-07-11T11:10:27Z</time>
      </trkpt>
      <trkpt lat="48.564955" lon="7.806583">
        <ele>184.0</ele>
        <time>2020-07-11T11:10:29Z</time>
      </trkpt>
      <trkpt lat="48.565028" lon="7.806576">
        <ele>184.0</ele>
        <time>2020-07-11T11:10:31Z</time>
      </trkpt>
      <trkpt lat="48.565096" lon="7.806565">
        <ele>184.0</ele>
        <time>2020-07-11T11:10:33Z</time>
      </trkpt>
      <trkpt lat="48.565177" lon="7.806543">
        <ele>184.0</ele>
        <time>2020-07-11T11:10:36Z</time>
      </trkpt>
      <trkpt lat="48.565224" lon="7.806559">
        <ele>184.0</ele>
        <time>2020-07-11T11:10:38Z</time>
      </trkpt>
      <trkpt lat="48.565246" lon="7.806572">
        <ele>184.0</ele>
        <time>2020-07-11T11:10:39Z</time>
      </trkpt>
      <trkpt lat="48.56528" lon="7.806665">
        <ele>184.0</ele>
        <time>2020-07-11T11:10:42Z</time>
      </trkpt>
      <trkpt lat="48.565291" lon="7.806751">
        <ele>184.0</ele>
        <time>2020-07-11T11:10:44Z</time>
      </trkpt>
      <trkpt lat="48.565305" lon="7.806836">
        <ele>184.0</ele>
        <time>2020-07-11T11:10:46Z</time>
      </trkpt>
      <trkpt lat="48.565318" lon="7.806932">
        <ele>184.0</ele>
        <time>2020-07-11T11:10:48Z</time>
      </trkpt>
      <trkpt lat="48.565334" lon="7.807032">
        <ele>184.0</ele>
        <time>2020-07-11T11:10:50Z</time>
      </trkpt>
      <trkpt lat="48.565359" lon="7.807113">
        <ele>184.0</ele>
        <time>2020-07-11T11:10:52Z</time>
      </trkpt>
      <trkpt lat="48.565378" lon="7.807202">
        <ele>184.0</ele>
        <time>2020-07-11T11:10:54Z</time>
      </trkpt>
      <trkpt lat="48.565401" lon="7.807287">
        <ele>185.0</ele>
        <time>2020-07-11T11:10:56Z</time>
      </trkpt>
      <trkpt lat="48.565424" lon="7.807364">
        <ele>185.0</ele>
        <time>2020-07-11T11:10:58Z</time>
      </trkpt>
      <trkpt lat="48.565415" lon="7.807432">
        <ele>185.0</ele>
        <time>2020-07-11T11:11:00Z</time>
      </trkpt>
      <trkpt lat="48.565362" lon="7.807457">
        <ele>185.0</ele>
        <time>2020-07-11T11:11:02Z</time>
      </trkpt>
      <trkpt lat="48.565308" lon="7.80746">
        <ele>185.0</ele>
        <time>2020-07-11T11:11:04Z</time>
      </trkpt>
      <trkpt lat="48.565241" lon="7.807479">
        <ele>185.0</ele>
        <time>2020-07-11T11:11:06Z</time>
      </trkpt>
      <trkpt lat="48.565174" lon="7.807502">
        <ele>185.0</ele>
        <time>2020-07-11T11:11:08Z</time>
      </trkpt>
      <trkpt lat="48.565103" lon="7.807516">
        <ele>185.0</ele>
        <time>2020-07-11T11:11:10Z</time>
      </trkpt>
      <trkpt lat="48.565017" lon="7.807532">
        <ele>185.0</ele>
        <time>2020-07-11T11:11:12Z</time>
      </trkpt>
      <trkpt lat="48.564929" lon="7.807548">
        <ele>185.0</ele>
        <time>2020-07-11T11:11:14Z</time>
      </trkpt>
      <trkpt lat="48.564838" lon="7.807568">
        <ele>186.0</ele>
        <time>2020-07-11T11:11:16Z</time>
      </trkpt>
      <trkpt lat="48.564751" lon="7.807587">
        <ele>186.0</ele>
        <time>2020-07-11T11:11:18Z</time>
      </trkpt>
      <trkpt lat="48.564662" lon="7.807601">
        <ele>186.0</ele>
        <time>2020-07-11T11:11:20Z</time>
      </trkpt>
      <trkpt lat="48.564576" lon="7.807616">
        <ele>186.0</ele>
        <time>2020-07-11T11:11:22Z</time>
      </trkpt>
      <trkpt lat="48.56449" lon="7.807635">
        <ele>186.0</ele>
        <time>2020-07-11T11:11:24Z</time>
      </trkpt>
      <trkpt lat="48.564405" lon="7.80765">
        <ele>186.0</ele>
        <time>2020-07-11T11:11:26Z</time>
      </trkpt>
      <trkpt lat="48.564321" lon="7.807672">
        <ele>185.0</ele>
        <time>2020-07-11T11:11:28Z</time>
      </trkpt>
      <trkpt lat="48.564241" lon="7.807684">
        <ele>185.0</ele>
        <time>2020-07-11T11:11:30Z</time>
      </trkpt>
      <trkpt lat="48.564156" lon="7.807702">
        <ele>186.0</ele>
        <time>2020-07-11T11:11:32Z</time>
      </trkpt>
      <trkpt lat="48.56407" lon="7.807713">
        <ele>186.0</ele>
        <time>2020-07-11T11:11:34Z</time>
      </trkpt>
      <trkpt lat="48.563982" lon="7.807731">
        <ele>186.0</ele>
        <time>2020-07-11T11:11:36Z</time>
      </trkpt>
      <trkpt lat="48.563903" lon="7.807745">
        <ele>185.0</ele>
        <time>2020-07-11T11:11:38Z</time>
      </trkpt>
      <trkpt lat="48.563814" lon="7.807758">
        <ele>185.0</ele>
        <time>2020-07-11T11:11:40Z</time>
      </trkpt>
      <trkpt lat="48.563723" lon="7.807778">
        <ele>186.0</ele>
        <time>2020-07-11T11:11:42Z</time>
      </trkpt>
      <trkpt lat="48.563629" lon="7.807795">
        <ele>186.0</ele>
        <time>2020-07-11T11:11:44Z</time>
      </trkpt>
      <trkpt lat="48.563539" lon="7.807803">
        <ele>185.0</ele>
        <time>2020-07-11T11:11:46Z</time>
      </trkpt>
      <trkpt lat="48.563453" lon="7.80782">
        <ele>186.0</ele>
        <time>2020-07-11T11:11:48Z</time>
      </trkpt>
      <trkpt lat="48.56336" lon="7.807837">
        <ele>186.0</ele>
        <time>2020-07-11T11:11:50Z</time>
      </trkpt>
      <trkpt lat="48.563273" lon="7.807857">
        <ele>186.0</ele>
        <time>2020-07-11T11:11:52Z</time>
      </trkpt>
      <trkpt lat="48.563186" lon="7.807869">
        <ele>186.0</ele>
        <time>2020-07-11T11:11:54Z</time>
      </trkpt>
      <trkpt lat="48.563094" lon="7.807885">
        <ele>185.0</ele>
        <time>2020-07-11T11:11:56Z</time>
      </trkpt>
      <trkpt lat="48.563005" lon="7.807905">
        <ele>185.0</ele>
        <time>2020-07-11T11:11:58Z</time>
      </trkpt>
      <trkpt lat="48.562923" lon="7.807924">
        <ele>185.0</ele>
        <time>2020-07-11T11:12:00Z</time>
      </trkpt>
      <trkpt lat="48.562839" lon="7.807937">
        <ele>185.0</ele>
        <time>2020-07-11T11:12:02Z</time>
      </trkpt>
      <trkpt lat="48.562751" lon="7.807957">
        <ele>186.0</ele>
        <time>2020-07-11T11:12:04Z</time>
      </trkpt>
      <trkpt lat="48.562666" lon="7.807973">
        <ele>186.0</ele>
        <time>2020-07-11T11:12:06Z</time>
      </trkpt>
      <trkpt lat="48.56257" lon="7.807988">
        <ele>186.0</ele>
        <time>2020-07-11T11:12:08Z</time>
      </trkpt>
      <trkpt lat="48.562477" lon="7.808003">
        <ele>186.0</ele>
        <time>2020-07-11T11:12:10Z</time>
      </trkpt>
      <trkpt lat="48.562378" lon="7.808019">
        <ele>186.0</ele>
        <time>2020-07-11T11:12:12Z</time>
      </trkpt>
      <trkpt lat="48.562287" lon="7.80803">
        <ele>186.0</ele>
        <time>2020-07-11T11:12:14Z</time>
      </trkpt>
      <trkpt lat="48.562191" lon="7.808036">
        <ele>186.0</ele>
        <time>2020-07-11T11:12:16Z</time>
      </trkpt>
      <trkpt lat="48.56211" lon="7.808054">
        <ele>186.0</ele>
        <time>2020-07-11T11:12:18Z</time>
      </trkpt>
      <trkpt lat="48.562013" lon="7.808064">
        <ele>185.0</ele>
        <time>2020-07-11T11:12:20Z</time>
      </trkpt>
      <trkpt lat="48.561928" lon="7.80808">
        <ele>186.0</ele>
        <time>2020-07-11T11:12:22Z</time>
      </trkpt>
      <trkpt lat="48.561853" lon="7.808097">
        <ele>186.0</ele>
        <time>2020-07-11T11:12:24Z</time>
      </trkpt>
      <trkpt lat="48.561781" lon="7.808106">
        <ele>186.0</ele>
        <time>2020-07-11T11:12:26Z</time>
      </trkpt>
      <trkpt lat="48.561719" lon="7.808106">
        <ele>187.0</ele>
        <time>2020-07-11T11:12:28Z</time>
      </trkpt>
      <trkpt lat="48.561656" lon="7.808117">
        <ele>186.0</ele>
        <time>2020-07-11T11:12:30Z</time>
      </trkpt>
      <trkpt lat="48.5616" lon="7.808135">
        <ele>187.0</ele>
        <time>2020-07-11T11:12:32Z</time>
      </trkpt>
      <trkpt lat="48.561547" lon="7.808157">
        <ele>187.0</ele>
        <time>2020-07-11T11:12:34Z</time>
      </trkpt>
      <trkpt lat="48.561516" lon="7.808216">
        <ele>187.0</ele>
        <time>2020-07-11T11:12:36Z</time>
      </trkpt>
      <trkpt lat="48.561512" lon="7.808293">
        <ele>187.0</ele>
        <time>2020-07-11T11:12:38Z</time>
      </trkpt>
      <trkpt lat="48.561516" lon="7.808381">
        <ele>186.0</ele>
        <time>2020-07-11T11:12:40Z</time>
      </trkpt>
      <trkpt lat="48.561516" lon="7.808486">
        <ele>187.0</ele>
        <time>2020-07-11T11:12:42Z</time>
      </trkpt>
      <trkpt lat="48.561509" lon="7.808542">
        <ele>187.0</ele>
        <time>2020-07-11T11:12:44Z</time>
      </trkpt>
      <trkpt lat="48.561511" lon="7.808574">
        <ele>188.0</ele>
        <time>2020-07-11T11:12:46Z</time>
      </trkpt>
      <trkpt lat="48.561526" lon="7.808606">
        <ele>188.0</ele>
        <time>2020-07-11T11:12:48Z</time>
      </trkpt>
      <trkpt lat="48.56154" lon="7.808623">
        <ele>188.0</ele>
        <time>2020-07-11T11:12:50Z</time>
      </trkpt>
      <trkpt lat="48.561565" lon="7.808586">
        <ele>188.0</ele>
        <time>2020-07-11T11:12:52Z</time>
      </trkpt>
      <trkpt lat="48.561567" lon="7.80853">
        <ele>188.0</ele>
        <time>2020-07-11T11:12:54Z</time>
      </trkpt>
      <trkpt lat="48.561536" lon="7.8085">
        <ele>187.0</ele>
        <time>2020-07-11T11:12:56Z</time>
      </trkpt>
      <trkpt lat="48.56152" lon="7.80848">
        <ele>187.0</ele>
        <time>2020-07-11T11:12:58Z</time>
      </trkpt>
      <trkpt lat="48.561524" lon="7.808473">
        <ele>187.0</ele>
        <time>2020-07-11T11:13:00Z</time>
      </trkpt>
      <trkpt lat="48.561527" lon="7.808469">
        <ele>187.0</ele>
        <time>2020-07-11T11:13:02Z</time>
      </trkpt>
      <trkpt lat="48.561527" lon="7.808469">
        <ele>187.0</ele>
        <time>2020-07-11T11:13:04Z</time>
      </trkpt>
      <trkpt lat="48.561527" lon="7.808469">
        <ele>187.0</ele>
        <time>2020-07-11T11:13:06Z</time>
      </trkpt>
      <trkpt lat="48.561539" lon="7.808517">
        <ele>187.0</ele>
        <time>2020-07-11T11:13:08Z</time>
      </trkpt>
      <trkpt lat="48.561552" lon="7.808559">
        <ele>188.0</ele>
        <time>2020-07-11T11:13:10Z</time>
      </trkpt>
      <trkpt lat="48.561557" lon="7.808588">
        <ele>187.0</ele>
        <time>2020-07-11T11:13:12Z</time>
      </trkpt>
      <trkpt lat="48.561562" lon="7.808621">
        <ele>188.0</ele>
        <time>2020-07-11T11:13:14Z</time>
      </trkpt>
      <trkpt lat="48.561556" lon="7.808673">
        <ele>188.0</ele>
        <time>2020-07-11T11:13:16Z</time>
      </trkpt>
      <trkpt lat="48.561551" lon="7.808723">
        <ele>189.0</ele>
        <time>2020-07-11T11:13:18Z</time>
      </trkpt>
      <trkpt lat="48.561545" lon="7.808764">
        <ele>189.0</ele>
        <time>2020-07-11T11:13:20Z</time>
      </trkpt>
      <trkpt lat="48.561539" lon="7.808804">
        <ele>188.0</ele>
        <time>2020-07-11T11:13:22Z</time>
      </trkpt>
      <trkpt lat="48.561533" lon="7.808836">
        <ele>188.0</ele>
        <time>2020-07-11T11:13:24Z</time>
      </trkpt>
      <trkpt lat="48.561529" lon="7.808843">
        <ele>188.0</ele>
        <time>2020-07-11T11:13:26Z</time>
      </trkpt>
      <trkpt lat="48.561538" lon="7.808849">
        <ele>187.0</ele>
        <time>2020-07-11T11:13:28Z</time>
      </trkpt>
      <trkpt lat="48.561538" lon="7.808849">
        <ele>187.0</ele>
        <time>2020-07-11T11:13:30Z</time>
      </trkpt>
      <trkpt lat="48.561518" lon="7.808753">
        <ele>186.0</ele>
        <time>2020-07-11T11:14:57Z</time>
      </trkpt>
      <trkpt lat="48.561503" lon="7.808741">
        <ele>186.0</ele>
        <time>2020-07-11T11:14:59Z</time>
      </trkpt>
      <trkpt lat="48.561486" lon="7.808744">
        <ele>186.0</ele>
        <time>2020-07-11T11:15:01Z</time>
      </trkpt>
      <trkpt lat="48.561468" lon="7.808751">
        <ele>186.0</ele>
        <time>2020-07-11T11:15:03Z</time>
      </trkpt>
      <trkpt lat="48.561452" lon="7.808774">
        <ele>184.0</ele>
        <time>2020-07-11T11:15:05Z</time>
      </trkpt>
      <trkpt lat="48.561465" lon="7.808795">
        <ele>183.0</ele>
        <time>2020-07-11T11:15:07Z</time>
      </trkpt>
      <trkpt lat="48.561496" lon="7.808811">
        <ele>183.0</ele>
        <time>2020-07-11T11:15:09Z</time>
      </trkpt>
      <trkpt lat="48.561518" lon="7.808833">
        <ele>182.0</ele>
        <time>2020-07-11T11:15:11Z</time>
      </trkpt>
      <trkpt lat="48.561527" lon="7.808854">
        <ele>182.0</ele>
        <time>2020-07-11T11:15:13Z</time>
      </trkpt>
      <trkpt lat="48.561527" lon="7.808854">
        <ele>182.0</ele>
        <time>2020-07-11T11:15:15Z</time>
      </trkpt>
      <trkpt lat="48.56151" lon="7.808902">
        <ele>180.0</ele>
        <time>2020-07-11T11:15:17Z</time>
      </trkpt>
      <trkpt lat="48.561513" lon="7.808931">
        <ele>180.0</ele>
        <time>2020-07-11T11:15:19Z</time>
      </trkpt>
      <trkpt lat="48.561517" lon="7.808966">
        <ele>180.0</ele>
        <time>2020-07-11T11:15:21Z</time>
      </trkpt>
      <trkpt lat="48.56152" lon="7.809">
        <ele>180.0</ele>
        <time>2020-07-11T11:15:23Z</time>
      </trkpt>
      <trkpt lat="48.561521" lon="7.809022">
        <ele>180.0</ele>
        <time>2020-07-11T11:15:24Z</time>
      </trkpt>
      <trkpt lat="48.561511" lon="7.809077">
        <ele>179.0</ele>
        <time>2020-07-11T11:15:27Z</time>
      </trkpt>
      <trkpt lat="48.561494" lon="7.809121">
        <ele>179.0</ele>
        <time>2020-07-11T11:15:30Z</time>
      </trkpt>
      <trkpt lat="48.561494" lon="7.809146">
        <ele>180.0</ele>
        <time>2020-07-11T11:15:32Z</time>
      </trkpt>
      <trkpt lat="48.561497" lon="7.809152">
        <ele>180.0</ele>
        <time>2020-07-11T11:15:33Z</time>
      </trkpt>
      <trkpt lat="48.561512" lon="7.809146">
        <ele>180.0</ele>
        <time>2020-07-11T11:15:37Z</time>
      </trkpt>
      <trkpt lat="48.561516" lon="7.809123">
        <ele>180.0</ele>
        <time>2020-07-11T11:15:39Z</time>
      </trkpt>
      <trkpt lat="48.561534" lon="7.808899">
        <ele>185.0</ele>
        <time>2020-07-11T11:19:39Z</time>
      </trkpt>
      <trkpt lat="48.561536" lon="7.808875">
        <ele>187.0</ele>
        <time>2020-07-11T11:19:41Z</time>
      </trkpt>
      <trkpt lat="48.561537" lon="7.808875">
        <ele>187.0</ele>
        <time>2020-07-11T11:19:43Z</time>
      </trkpt>
      <trkpt lat="48.561537" lon="7.808875">
        <ele>187.0</ele>
        <time>2020-07-11T11:19:45Z</time>
      </trkpt>
      <trkpt lat="48.561537" lon="7.808875">
        <ele>187.0</ele>
        <time>2020-07-11T11:19:47Z</time>
      </trkpt>
      <trkpt lat="48.561537" lon="7.808875">
        <ele>187.0</ele>
        <time>2020-07-11T11:19:49Z</time>
      </trkpt>
      <trkpt lat="48.561537" lon="7.808875">
        <ele>187.0</ele>
        <time>2020-07-11T11:19:51Z</time>
      </trkpt>
      <trkpt lat="48.561537" lon="7.808875">
        <ele>187.0</ele>
        <time>2020-07-11T11:19:53Z</time>
      </trkpt>
      <trkpt lat="48.561556" lon="7.808884">
        <ele>188.0</ele>
        <time>2020-07-11T11:19:55Z</time>
      </trkpt>
      <trkpt lat="48.561555" lon="7.808887">
        <ele>187.0</ele>
        <time>2020-07-11T11:19:58Z</time>
      </trkpt>
      <trkpt lat="48.561567" lon="7.808898">
        <ele>187.0</ele>
        <time>2020-07-11T11:20:00Z</time>
      </trkpt>
      <trkpt lat="48.561574" lon="7.808902">
        <ele>188.0</ele>
        <time>2020-07-11T11:20:01Z</time>
      </trkpt>
      <trkpt lat="48.561579" lon="7.808935">
        <ele>187.0</ele>
        <time>2020-07-11T11:20:03Z</time>
      </trkpt>
      <trkpt lat="48.561609" lon="7.808968">
        <ele>186.0</ele>
        <time>2020-07-11T11:20:06Z</time>
      </trkpt>
      <trkpt lat="48.561629" lon="7.809015">
        <ele>186.0</ele>
        <time>2020-07-11T11:20:08Z</time>
      </trkpt>
      <trkpt lat="48.561646" lon="7.80902">
        <ele>186.0</ele>
        <time>2020-07-11T11:20:10Z</time>
      </trkpt>
      <trkpt lat="48.561626" lon="7.808981">
        <ele>186.0</ele>
        <time>2020-07-11T11:20:12Z</time>
      </trkpt>
      <trkpt lat="48.561598" lon="7.808933">
        <ele>187.0</ele>
        <time>2020-07-11T11:20:14Z</time>
      </trkpt>
      <trkpt lat="48.561578" lon="7.808874">
        <ele>186.0</ele>
        <time>2020-07-11T11:20:16Z</time>
      </trkpt>
      <trkpt lat="48.561569" lon="7.808811">
        <ele>186.0</ele>
        <time>2020-07-11T11:20:18Z</time>
      </trkpt>
      <trkpt lat="48.561561" lon="7.808746">
        <ele>185.0</ele>
        <time>2020-07-11T11:20:20Z</time>
      </trkpt>
      <trkpt lat="48.561548" lon="7.808692">
        <ele>185.0</ele>
        <time>2020-07-11T11:20:22Z</time>
      </trkpt>
      <trkpt lat="48.561551" lon="7.808649">
        <ele>185.0</ele>
        <time>2020-07-11T11:20:24Z</time>
      </trkpt>
      <trkpt lat="48.561582" lon="7.808628">
        <ele>185.0</ele>
        <time>2020-07-11T11:20:26Z</time>
      </trkpt>
      <trkpt lat="48.561622" lon="7.80863">
        <ele>186.0</ele>
        <time>2020-07-11T11:20:28Z</time>
      </trkpt>
      <trkpt lat="48.561668" lon="7.808635">
        <ele>186.0</ele>
        <time>2020-07-11T11:20:30Z</time>
      </trkpt>
      <trkpt lat="48.561717" lon="7.808645">
        <ele>187.0</ele>
        <time>2020-07-11T11:20:32Z</time>
      </trkpt>
      <trkpt lat="48.561761" lon="7.808651">
        <ele>187.0</ele>
        <time>2020-07-11T11:20:34Z</time>
      </trkpt>
      <trkpt lat="48.561812" lon="7.808637">
        <ele>186.0</ele>
        <time>2020-07-11T11:20:36Z</time>
      </trkpt>
      <trkpt lat="48.561852" lon="7.808624">
        <ele>186.0</ele>
        <time>2020-07-11T11:20:38Z</time>
      </trkpt>
      <trkpt lat="48.561914" lon="7.808605">
        <ele>186.0</ele>
        <time>2020-07-11T11:20:41Z</time>
      </trkpt>
      <trkpt lat="48.56195" lon="7.808589">
        <ele>186.0</ele>
        <time>2020-07-11T11:20:43Z</time>
      </trkpt>
      <trkpt lat="48.561976" lon="7.808589">
        <ele>187.0</ele>
        <time>2020-07-11T11:20:45Z</time>
      </trkpt>
      <trkpt lat="48.562003" lon="7.808601">
        <ele>187.0</ele>
        <time>2020-07-11T11:20:47Z</time>
      </trkpt>
      <trkpt lat="48.562047" lon="7.808643">
        <ele>188.0</ele>
        <time>2020-07-11T11:20:50Z</time>
      </trkpt>
      <trkpt lat="48.562072" lon="7.808667">
        <ele>188.0</ele>
        <time>2020-07-11T11:20:52Z</time>
      </trkpt>
      <trkpt lat="48.562121" lon="7.808709">
        <ele>188.0</ele>
        <time>2020-07-11T11:20:55Z</time>
      </trkpt>
      <trkpt lat="48.562158" lon="7.808757">
        <ele>187.0</ele>
        <time>2020-07-11T11:20:57Z</time>
      </trkpt>
      <trkpt lat="48.562199" lon="7.808802">
        <ele>187.0</ele>
        <time>2020-07-11T11:20:59Z</time>
      </trkpt>
      <trkpt lat="48.562233" lon="7.808853">
        <ele>187.0</ele>
        <time>2020-07-11T11:21:01Z</time>
      </trkpt>
      <trkpt lat="48.562265" lon="7.808883">
        <ele>187.0</ele>
        <time>2020-07-11T11:21:03Z</time>
      </trkpt>
      <trkpt lat="48.562289" lon="7.808913">
        <ele>188.0</ele>
        <time>2020-07-11T11:21:05Z</time>
      </trkpt>
      <trkpt lat="48.562304" lon="7.808928">
        <ele>189.0</ele>
        <time>2020-07-11T11:21:08Z</time>
      </trkpt>
      <trkpt lat="48.562309" lon="7.808956">
        <ele>189.0</ele>
        <time>2020-07-11T11:21:10Z</time>
      </trkpt>
      <trkpt lat="48.562313" lon="7.808979">
        <ele>188.0</ele>
        <time>2020-07-11T11:21:12Z</time>
      </trkpt>
      <trkpt lat="48.562314" lon="7.808996">
        <ele>188.0</ele>
        <time>2020-07-11T11:21:14Z</time>
      </trkpt>
    </trkseg>
  </trk>
</gpx>
